<?xml version='1.0' encoding='UTF-8'?><gpx version="1.1" creator="JPX - https://github.com/jenetics/jpx" xmlns="http://www.topografix.com/GPX/1/1"><trk><trkseg><trkpt lat="45.65513" lon="10.6334245"><ele>86.0</ele><time>2026-03-28T12:27:01.703Z</time></trkpt><trkpt lat="45.6552194" lon="10.6335477"><ele>86.0</ele><time>2026-03-28T12:27:03.703Z</time></trkpt><trkpt lat="45.6552822" lon="10.633643"><ele>86.0</ele><time>2026-03-28T12:27:04.703Z</time></trkpt><trkpt lat="45.6553588" lon="10.6337567"><ele>86.0</ele><time>2026-03-28T12:27:05.703Z</time></trkpt><trkpt lat="45.655451" lon="10.6338872"><ele>89.66666666666667</ele><time>2026-03-28T12:27:06.702Z</time></trkpt><trkpt lat="45.6555491" lon="10.6340378"><ele>93.33333333333334</ele><time>2026-03-28T12:27:07.703Z</time></trkpt><trkpt lat="45.6556467" lon="10.6342189"><ele>97.0</ele><time>2026-03-28T12:27:08.702Z</time></trkpt><trkpt lat="45.6557388" lon="10.6344153"><ele>96.25</ele><time>2026-03-28T12:27:09.702Z</time></trkpt><trkpt lat="45.6558272" lon="10.6345975"><ele>95.5</ele><time>2026-03-28T12:27:10.702Z</time></trkpt><trkpt lat="45.6559208" lon="10.6347579"><ele>94.75</ele><time>2026-03-28T12:27:11.702Z</time></trkpt><trkpt lat="45.6560203" lon="10.6349066"><ele>94.0</ele><time>2026-03-28T12:27:12.702Z</time></trkpt><trkpt lat="45.6561266" lon="10.6350484"><ele>94.0</ele><time>2026-03-28T12:27:13.703Z</time></trkpt><trkpt lat="45.6562366" lon="10.6351863"><ele>94.0</ele><time>2026-03-28T12:27:14.703Z</time></trkpt><trkpt lat="45.6563496" lon="10.6353194"><ele>94.0</ele><time>2026-03-28T12:27:15.702Z</time></trkpt><trkpt lat="45.6564675" lon="10.6354502"><ele>94.0</ele><time>2026-03-28T12:27:16.703Z</time></trkpt><trkpt lat="45.6565882" lon="10.6355777"><ele>95.0</ele><time>2026-03-28T12:27:17.703Z</time></trkpt><trkpt lat="45.6567108" lon="10.635697"><ele>96.0</ele><time>2026-03-28T12:27:18.703Z</time></trkpt><trkpt lat="45.6568407" lon="10.6358081"><ele>97.0</ele><time>2026-03-28T12:27:19.703Z</time></trkpt><trkpt lat="45.6569706" lon="10.6359102"><ele>98.0</ele><time>2026-03-28T12:27:20.703Z</time></trkpt><trkpt lat="45.6570969" lon="10.6360172"><ele>91.33333333333333</ele><time>2026-03-28T12:27:21.703Z</time></trkpt><trkpt lat="45.657215" lon="10.6361409"><ele>84.66666666666666</ele><time>2026-03-28T12:27:22.702Z</time></trkpt><trkpt lat="45.6573265" lon="10.6362876"><ele>78.0</ele><time>2026-03-28T12:27:23.702Z</time></trkpt><trkpt lat="45.6574399" lon="10.6364458"><ele>78.0</ele><time>2026-03-28T12:27:24.702Z</time></trkpt><trkpt lat="45.6575543" lon="10.6366098"><ele>78.0</ele><time>2026-03-28T12:27:25.703Z</time></trkpt><trkpt lat="45.6576719" lon="10.6367808"><ele>78.0</ele><time>2026-03-28T12:27:26.703Z</time></trkpt><trkpt lat="45.6578002" lon="10.6369554"><ele>81.33333333333333</ele><time>2026-03-28T12:27:27.702Z</time></trkpt><trkpt lat="45.6579382" lon="10.6371304"><ele>84.66666666666666</ele><time>2026-03-28T12:27:28.703Z</time></trkpt><trkpt lat="45.658084" lon="10.6373011"><ele>88.0</ele><time>2026-03-28T12:27:29.702Z</time></trkpt><trkpt lat="45.6582253" lon="10.6374628"><ele>88.0</ele><time>2026-03-28T12:27:30.702Z</time></trkpt><trkpt lat="45.6583554" lon="10.6376228"><ele>88.0</ele><time>2026-03-28T12:27:31.702Z</time></trkpt><trkpt lat="45.6584728" lon="10.6377888"><ele>88.0</ele><time>2026-03-28T12:27:32.703Z</time></trkpt><trkpt lat="45.6585823" lon="10.6379588"><ele>89.66666666666666</ele><time>2026-03-28T12:27:33.703Z</time></trkpt><trkpt lat="45.6586926" lon="10.6381243"><ele>91.33333333333333</ele><time>2026-03-28T12:27:34.702Z</time></trkpt><trkpt lat="45.6588078" lon="10.6382848"><ele>93.0</ele><time>2026-03-28T12:27:35.702Z</time></trkpt><trkpt lat="45.658932" lon="10.6384379"><ele>93.0</ele><time>2026-03-28T12:27:36.702Z</time></trkpt><trkpt lat="45.6590622" lon="10.6385913"><ele>93.0</ele><time>2026-03-28T12:27:37.702Z</time></trkpt><trkpt lat="45.6591881" lon="10.6387378"><ele>93.0</ele><time>2026-03-28T12:27:38.702Z</time></trkpt><trkpt lat="45.6593002" lon="10.6388796"><ele>91.75</ele><time>2026-03-28T12:27:39.703Z</time></trkpt><trkpt lat="45.6593859" lon="10.6390415"><ele>90.5</ele><time>2026-03-28T12:27:40.702Z</time></trkpt><trkpt lat="45.6594528" lon="10.6392241"><ele>89.25</ele><time>2026-03-28T12:27:41.702Z</time></trkpt><trkpt lat="45.659517" lon="10.6394128"><ele>88.0</ele><time>2026-03-28T12:27:42.702Z</time></trkpt><trkpt lat="45.6596065" lon="10.6396034"><ele>88.0</ele><time>2026-03-28T12:27:43.702Z</time></trkpt><trkpt lat="45.6597066" lon="10.6397954"><ele>88.0</ele><time>2026-03-28T12:27:44.702Z</time></trkpt><trkpt lat="45.6598197" lon="10.6399891"><ele>88.0</ele><time>2026-03-28T12:27:45.703Z</time></trkpt><trkpt lat="45.659937" lon="10.6401858"><ele>91.66666666666666</ele><time>2026-03-28T12:27:46.702Z</time></trkpt><trkpt lat="45.6600587" lon="10.6403861"><ele>95.33333333333333</ele><time>2026-03-28T12:27:47.703Z</time></trkpt><trkpt lat="45.6601833" lon="10.640584"><ele>99.0</ele><time>2026-03-28T12:27:48.702Z</time></trkpt><trkpt lat="45.6603017" lon="10.6407941"><ele>99.0</ele><time>2026-03-28T12:27:49.703Z</time></trkpt><trkpt lat="45.66043" lon="10.6409917"><ele>99.0</ele><time>2026-03-28T12:27:50.703Z</time></trkpt><trkpt lat="45.660558" lon="10.6411785"><ele>99.0</ele><time>2026-03-28T12:27:51.702Z</time></trkpt><trkpt lat="45.6606845" lon="10.6413603"><ele>93.66666666666667</ele><time>2026-03-28T12:27:52.702Z</time></trkpt><trkpt lat="45.6608095" lon="10.6415492"><ele>88.33333333333334</ele><time>2026-03-28T12:27:53.703Z</time></trkpt><trkpt lat="45.6609288" lon="10.6417341"><ele>83.0</ele><time>2026-03-28T12:27:54.702Z</time></trkpt><trkpt lat="45.6610532" lon="10.6419302"><ele>85.33333333333334</ele><time>2026-03-28T12:27:55.703Z</time></trkpt><trkpt lat="45.6611743" lon="10.6421046"><ele>87.66666666666667</ele><time>2026-03-28T12:27:56.702Z</time></trkpt><trkpt lat="45.6612987" lon="10.6422642"><ele>90.0</ele><time>2026-03-28T12:27:57.702Z</time></trkpt><trkpt lat="45.6614252" lon="10.642409"><ele>90.0</ele><time>2026-03-28T12:27:58.703Z</time></trkpt><trkpt lat="45.6615529" lon="10.6425549"><ele>90.0</ele><time>2026-03-28T12:27:59.703Z</time></trkpt><trkpt lat="45.6616862" lon="10.6427034"><ele>90.0</ele><time>2026-03-28T12:28:00.703Z</time></trkpt><trkpt lat="45.6618222" lon="10.6428505"><ele>92.33333333333334</ele><time>2026-03-28T12:28:01.702Z</time></trkpt><trkpt lat="45.6619559" lon="10.6430054"><ele>94.66666666666667</ele><time>2026-03-28T12:28:02.702Z</time></trkpt><trkpt lat="45.6620951" lon="10.6431603"><ele>97.0</ele><time>2026-03-28T12:28:03.703Z</time></trkpt><trkpt lat="45.6622331" lon="10.6433206"><ele>97.0</ele><time>2026-03-28T12:28:04.702Z</time></trkpt><trkpt lat="45.6623813" lon="10.6434841"><ele>97.0</ele><time>2026-03-28T12:28:05.703Z</time></trkpt><trkpt lat="45.6625302" lon="10.6436496"><ele>97.0</ele><time>2026-03-28T12:28:06.702Z</time></trkpt><trkpt lat="45.6626779" lon="10.6438138"><ele>100.66666666666667</ele><time>2026-03-28T12:28:07.702Z</time></trkpt><trkpt lat="45.6628302" lon="10.6439753"><ele>104.33333333333334</ele><time>2026-03-28T12:28:08.702Z</time></trkpt><trkpt lat="45.6629745" lon="10.6441605"><ele>108.0</ele><time>2026-03-28T12:28:09.703Z</time></trkpt><trkpt lat="45.6631069" lon="10.6443297"><ele>98.33333333333333</ele><time>2026-03-28T12:28:10.703Z</time></trkpt><trkpt lat="45.6632373" lon="10.6444889"><ele>88.66666666666666</ele><time>2026-03-28T12:28:11.703Z</time></trkpt><trkpt lat="45.6633685" lon="10.6446391"><ele>79.0</ele><time>2026-03-28T12:28:12.702Z</time></trkpt><trkpt lat="45.6635045" lon="10.6447807"><ele>87.66666666666666</ele><time>2026-03-28T12:28:13.703Z</time></trkpt><trkpt lat="45.6636536" lon="10.6449094"><ele>96.33333333333333</ele><time>2026-03-28T12:28:14.703Z</time></trkpt><trkpt lat="45.6638174" lon="10.6450297"><ele>105.0</ele><time>2026-03-28T12:28:15.702Z</time></trkpt><trkpt lat="45.6639839" lon="10.6451341"><ele>105.0</ele><time>2026-03-28T12:28:16.702Z</time></trkpt><trkpt lat="45.6641428" lon="10.6452074"><ele>105.0</ele><time>2026-03-28T12:28:17.703Z</time></trkpt><trkpt lat="45.664295" lon="10.645274"><ele>105.0</ele><time>2026-03-28T12:28:18.702Z</time></trkpt><trkpt lat="45.6644347" lon="10.6453655"><ele>102.33333333333334</ele><time>2026-03-28T12:28:19.702Z</time></trkpt><trkpt lat="45.6645725" lon="10.6454646"><ele>99.66666666666667</ele><time>2026-03-28T12:28:20.703Z</time></trkpt><trkpt lat="45.6646926" lon="10.6456391"><ele>97.0</ele><time>2026-03-28T12:28:21.702Z</time></trkpt><trkpt lat="45.6648172" lon="10.6458125"><ele>97.0</ele><time>2026-03-28T12:28:22.702Z</time></trkpt><trkpt lat="45.6649351" lon="10.6459991"><ele>97.0</ele><time>2026-03-28T12:28:23.701Z</time></trkpt><trkpt lat="45.6650448" lon="10.6462068"><ele>97.0</ele><time>2026-03-28T12:28:24.703Z</time></trkpt><trkpt lat="45.6651509" lon="10.6464182"><ele>92.66666666666667</ele><time>2026-03-28T12:28:25.702Z</time></trkpt><trkpt lat="45.6652667" lon="10.6466158"><ele>88.33333333333334</ele><time>2026-03-28T12:28:26.703Z</time></trkpt><trkpt lat="45.6653914" lon="10.6467991"><ele>84.0</ele><time>2026-03-28T12:28:27.702Z</time></trkpt><trkpt lat="45.6655355" lon="10.6469644"><ele>84.0</ele><time>2026-03-28T12:28:28.702Z</time></trkpt><trkpt lat="45.6656878" lon="10.6471256"><ele>84.0</ele><time>2026-03-28T12:28:29.703Z</time></trkpt><trkpt lat="45.6658538" lon="10.647273"><ele>84.0</ele><time>2026-03-28T12:28:30.701Z</time></trkpt><trkpt lat="45.6660241" lon="10.647417"><ele>83.66666666666667</ele><time>2026-03-28T12:28:31.702Z</time></trkpt><trkpt lat="45.6661961" lon="10.6475508"><ele>83.33333333333334</ele><time>2026-03-28T12:28:32.702Z</time></trkpt><trkpt lat="45.6663565" lon="10.647682"><ele>83.0</ele><time>2026-03-28T12:28:33.702Z</time></trkpt><trkpt lat="45.6665117" lon="10.6478031"><ele>83.0</ele><time>2026-03-28T12:28:34.702Z</time></trkpt><trkpt lat="45.6666592" lon="10.6478816"><ele>83.0</ele><time>2026-03-28T12:28:35.702Z</time></trkpt><trkpt lat="45.6668053" lon="10.6479685"><ele>83.0</ele><time>2026-03-28T12:28:36.702Z</time></trkpt><trkpt lat="45.6669443" lon="10.6480888"><ele>87.0</ele><time>2026-03-28T12:28:37.702Z</time></trkpt><trkpt lat="45.6670796" lon="10.6482365"><ele>91.0</ele><time>2026-03-28T12:28:38.702Z</time></trkpt><trkpt lat="45.6672194" lon="10.6484079"><ele>95.0</ele><time>2026-03-28T12:28:39.703Z</time></trkpt><trkpt lat="45.6673611" lon="10.6485964"><ele>92.0</ele><time>2026-03-28T12:28:40.702Z</time></trkpt><trkpt lat="45.6675021" lon="10.6487852"><ele>89.0</ele><time>2026-03-28T12:28:41.703Z</time></trkpt><trkpt lat="45.6676403" lon="10.6489632"><ele>86.0</ele><time>2026-03-28T12:28:42.702Z</time></trkpt><trkpt lat="45.6677788" lon="10.6491096"><ele>86.0</ele><time>2026-03-28T12:28:43.703Z</time></trkpt><trkpt lat="45.6679163" lon="10.6492371"><ele>86.0</ele><time>2026-03-28T12:28:44.702Z</time></trkpt><trkpt lat="45.6680552" lon="10.6493503"><ele>86.0</ele><time>2026-03-28T12:28:45.703Z</time></trkpt><trkpt lat="45.6681928" lon="10.6494262"><ele>84.0</ele><time>2026-03-28T12:28:46.702Z</time></trkpt><trkpt lat="45.6683321" lon="10.6495079"><ele>82.0</ele><time>2026-03-28T12:28:47.702Z</time></trkpt><trkpt lat="45.6684663" lon="10.6495863"><ele>80.0</ele><time>2026-03-28T12:28:48.702Z</time></trkpt><trkpt lat="45.6686012" lon="10.6496624"><ele>78.0</ele><time>2026-03-28T12:28:49.702Z</time></trkpt><trkpt lat="45.6687418" lon="10.6497404"><ele>78.0</ele><time>2026-03-28T12:28:50.703Z</time></trkpt><trkpt lat="45.6688787" lon="10.6498206"><ele>78.0</ele><time>2026-03-28T12:28:51.702Z</time></trkpt><trkpt lat="45.6690232" lon="10.6498927"><ele>78.0</ele><time>2026-03-28T12:28:52.703Z</time></trkpt><trkpt lat="45.6691667" lon="10.6499657"><ele>78.0</ele><time>2026-03-28T12:28:53.702Z</time></trkpt><trkpt lat="45.669304" lon="10.6500402"><ele>78.0</ele><time>2026-03-28T12:28:54.703Z</time></trkpt><trkpt lat="45.6694429" lon="10.6501163"><ele>78.0</ele><time>2026-03-28T12:28:55.702Z</time></trkpt><trkpt lat="45.6695824" lon="10.6501896"><ele>78.0</ele><time>2026-03-28T12:28:56.702Z</time></trkpt><trkpt lat="45.669714" lon="10.6502674"><ele>78.25</ele><time>2026-03-28T12:28:57.702Z</time></trkpt><trkpt lat="45.6698439" lon="10.6503521"><ele>78.5</ele><time>2026-03-28T12:28:58.702Z</time></trkpt><trkpt lat="45.6699678" lon="10.6504459"><ele>78.75</ele><time>2026-03-28T12:28:59.702Z</time></trkpt><trkpt lat="45.6700817" lon="10.6505595"><ele>79.0</ele><time>2026-03-28T12:29:00.703Z</time></trkpt><trkpt lat="45.6701935" lon="10.6506783"><ele>78.25</ele><time>2026-03-28T12:29:01.703Z</time></trkpt><trkpt lat="45.6703007" lon="10.6508047"><ele>77.5</ele><time>2026-03-28T12:29:02.703Z</time></trkpt><trkpt lat="45.6704061" lon="10.650935"><ele>76.75</ele><time>2026-03-28T12:29:03.702Z</time></trkpt><trkpt lat="45.6705132" lon="10.6510646"><ele>76.0</ele><time>2026-03-28T12:29:04.702Z</time></trkpt><trkpt lat="45.670627" lon="10.6511863"><ele>76.0</ele><time>2026-03-28T12:29:05.702Z</time></trkpt><trkpt lat="45.6707508" lon="10.6512899"><ele>76.0</ele><time>2026-03-28T12:29:06.703Z</time></trkpt><trkpt lat="45.6708837" lon="10.6513718"><ele>76.0</ele><time>2026-03-28T12:29:07.702Z</time></trkpt><trkpt lat="45.6710262" lon="10.6514377"><ele>76.0</ele><time>2026-03-28T12:29:08.702Z</time></trkpt><trkpt lat="45.671175" lon="10.6514964"><ele>76.33333333333333</ele><time>2026-03-28T12:29:09.703Z</time></trkpt><trkpt lat="45.6713276" lon="10.6515383"><ele>76.66666666666667</ele><time>2026-03-28T12:29:10.703Z</time></trkpt><trkpt lat="45.6714766" lon="10.6515664"><ele>77.0</ele><time>2026-03-28T12:29:11.703Z</time></trkpt><trkpt lat="45.6716271" lon="10.6515757"><ele>77.0</ele><time>2026-03-28T12:29:12.702Z</time></trkpt><trkpt lat="45.6717757" lon="10.651573"><ele>77.0</ele><time>2026-03-28T12:29:13.702Z</time></trkpt><trkpt lat="45.6719131" lon="10.6515461"><ele>77.0</ele><time>2026-03-28T12:29:14.703Z</time></trkpt><trkpt lat="45.67206" lon="10.6515039"><ele>77.0</ele><time>2026-03-28T12:29:15.702Z</time></trkpt><trkpt lat="45.6722003" lon="10.6514475"><ele>76.25</ele><time>2026-03-28T12:29:16.703Z</time></trkpt><trkpt lat="45.6723368" lon="10.6513835"><ele>75.5</ele><time>2026-03-28T12:29:17.702Z</time></trkpt><trkpt lat="45.6724724" lon="10.651314"><ele>74.75</ele><time>2026-03-28T12:29:18.704Z</time></trkpt><trkpt lat="45.6726073" lon="10.6512433"><ele>74.0</ele><time>2026-03-28T12:29:19.703Z</time></trkpt><trkpt lat="45.6727469" lon="10.6511656"><ele>74.66666666666667</ele><time>2026-03-28T12:29:20.703Z</time></trkpt><trkpt lat="45.6728927" lon="10.6510904"><ele>75.33333333333333</ele><time>2026-03-28T12:29:21.702Z</time></trkpt><trkpt lat="45.6730398" lon="10.6510066"><ele>76.0</ele><time>2026-03-28T12:29:22.703Z</time></trkpt><trkpt lat="45.6731763" lon="10.6509312"><ele>76.0</ele><time>2026-03-28T12:29:23.703Z</time></trkpt><trkpt lat="45.6733147" lon="10.6508528"><ele>76.0</ele><time>2026-03-28T12:29:24.703Z</time></trkpt><trkpt lat="45.6734488" lon="10.6507816"><ele>76.0</ele><time>2026-03-28T12:29:25.702Z</time></trkpt><trkpt lat="45.6735927" lon="10.6507092"><ele>76.0</ele><time>2026-03-28T12:29:26.702Z</time></trkpt><trkpt lat="45.6737357" lon="10.6506328"><ele>75.75</ele><time>2026-03-28T12:29:27.702Z</time></trkpt><trkpt lat="45.673872" lon="10.6505631"><ele>75.5</ele><time>2026-03-28T12:29:28.702Z</time></trkpt><trkpt lat="45.6740011" lon="10.6505022"><ele>75.25</ele><time>2026-03-28T12:29:29.702Z</time></trkpt><trkpt lat="45.6741044" lon="10.6504549"><ele>75.0</ele><time>2026-03-28T12:29:30.702Z</time></trkpt><trkpt lat="45.6741989" lon="10.6504308"><ele>75.0</ele><time>2026-03-28T12:29:31.702Z</time></trkpt><trkpt lat="45.6742916" lon="10.6504321"><ele>75.0</ele><time>2026-03-28T12:29:32.702Z</time></trkpt><trkpt lat="45.674382" lon="10.6504447"><ele>75.0</ele><time>2026-03-28T12:29:33.703Z</time></trkpt><trkpt lat="45.6744802" lon="10.6504481"><ele>75.0</ele><time>2026-03-28T12:29:34.702Z</time></trkpt><trkpt lat="45.6745831" lon="10.6504504"><ele>75.0</ele><time>2026-03-28T12:29:35.703Z</time></trkpt><trkpt lat="45.6746859" lon="10.6504655"><ele>75.75</ele><time>2026-03-28T12:29:36.702Z</time></trkpt><trkpt lat="45.674795" lon="10.6505153"><ele>76.5</ele><time>2026-03-28T12:29:37.702Z</time></trkpt><trkpt lat="45.674892" lon="10.6505799"><ele>77.25</ele><time>2026-03-28T12:29:38.703Z</time></trkpt><trkpt lat="45.6749936" lon="10.6506622"><ele>78.0</ele><time>2026-03-28T12:29:39.702Z</time></trkpt><trkpt lat="45.6750942" lon="10.6507469"><ele>78.0</ele><time>2026-03-28T12:29:40.703Z</time></trkpt><trkpt lat="45.6751935" lon="10.6508342"><ele>78.0</ele><time>2026-03-28T12:29:41.702Z</time></trkpt><trkpt lat="45.6752847" lon="10.6509535"><ele>78.0</ele><time>2026-03-28T12:29:42.702Z</time></trkpt><trkpt lat="45.6753785" lon="10.6510755"><ele>78.0</ele><time>2026-03-28T12:29:43.703Z</time></trkpt><trkpt lat="45.6754815" lon="10.6511897"><ele>77.5</ele><time>2026-03-28T12:29:44.703Z</time></trkpt><trkpt lat="45.6755798" lon="10.6513116"><ele>77.0</ele><time>2026-03-28T12:29:45.702Z</time></trkpt><trkpt lat="45.6756782" lon="10.6514423"><ele>76.5</ele><time>2026-03-28T12:29:46.702Z</time></trkpt><trkpt lat="45.6757731" lon="10.6515667"><ele>76.0</ele><time>2026-03-28T12:29:47.704Z</time></trkpt><trkpt lat="45.6758745" lon="10.6516852"><ele>76.0</ele><time>2026-03-28T12:29:48.703Z</time></trkpt><trkpt lat="45.675969" lon="10.6518055"><ele>76.0</ele><time>2026-03-28T12:29:49.702Z</time></trkpt><trkpt lat="45.6760636" lon="10.6519261"><ele>76.0</ele><time>2026-03-28T12:29:50.704Z</time></trkpt><trkpt lat="45.6761555" lon="10.652044"><ele>76.0</ele><time>2026-03-28T12:29:51.703Z</time></trkpt><trkpt lat="45.6762479" lon="10.6521576"><ele>75.5</ele><time>2026-03-28T12:29:52.702Z</time></trkpt><trkpt lat="45.6763413" lon="10.6522738"><ele>75.0</ele><time>2026-03-28T12:29:53.703Z</time></trkpt><trkpt lat="45.676434" lon="10.6523845"><ele>74.5</ele><time>2026-03-28T12:29:54.703Z</time></trkpt><trkpt lat="45.6765252" lon="10.6524941"><ele>74.0</ele><time>2026-03-28T12:29:55.702Z</time></trkpt><trkpt lat="45.6766212" lon="10.6525967"><ele>74.0</ele><time>2026-03-28T12:29:56.702Z</time></trkpt><trkpt lat="45.6767287" lon="10.6526856"><ele>74.0</ele><time>2026-03-28T12:29:57.702Z</time></trkpt><trkpt lat="45.6768368" lon="10.6527779"><ele>74.0</ele><time>2026-03-28T12:29:58.703Z</time></trkpt><trkpt lat="45.6769459" lon="10.6528692"><ele>74.0</ele><time>2026-03-28T12:29:59.702Z</time></trkpt><trkpt lat="45.6770588" lon="10.6529531"><ele>73.0</ele><time>2026-03-28T12:30:00.702Z</time></trkpt><trkpt lat="45.6771735" lon="10.6530355"><ele>72.0</ele><time>2026-03-28T12:30:01.702Z</time></trkpt><trkpt lat="45.6772876" lon="10.6531208"><ele>71.0</ele><time>2026-03-28T12:30:02.702Z</time></trkpt><trkpt lat="45.6774019" lon="10.6531994"><ele>70.0</ele><time>2026-03-28T12:30:03.703Z</time></trkpt><trkpt lat="45.6775135" lon="10.6532778"><ele>70.0</ele><time>2026-03-28T12:30:04.702Z</time></trkpt><trkpt lat="45.6776256" lon="10.653354"><ele>70.0</ele><time>2026-03-28T12:30:05.702Z</time></trkpt><trkpt lat="45.6777341" lon="10.653434"><ele>70.0</ele><time>2026-03-28T12:30:06.702Z</time></trkpt><trkpt lat="45.6778525" lon="10.6535083"><ele>70.0</ele><time>2026-03-28T12:30:07.702Z</time></trkpt><trkpt lat="45.6779782" lon="10.6535833"><ele>68.5</ele><time>2026-03-28T12:30:08.703Z</time></trkpt><trkpt lat="45.6781047" lon="10.6536418"><ele>67.0</ele><time>2026-03-28T12:30:09.702Z</time></trkpt><trkpt lat="45.6782386" lon="10.6536875"><ele>65.5</ele><time>2026-03-28T12:30:10.703Z</time></trkpt><trkpt lat="45.67837" lon="10.6537295"><ele>64.0</ele><time>2026-03-28T12:30:11.702Z</time></trkpt><trkpt lat="45.6785021" lon="10.6537658"><ele>64.75</ele><time>2026-03-28T12:30:12.702Z</time></trkpt><trkpt lat="45.6786339" lon="10.6537936"><ele>65.5</ele><time>2026-03-28T12:30:13.703Z</time></trkpt><trkpt lat="45.6787697" lon="10.6538269"><ele>66.25</ele><time>2026-03-28T12:30:14.702Z</time></trkpt><trkpt lat="45.6789082" lon="10.6538633"><ele>67.0</ele><time>2026-03-28T12:30:15.703Z</time></trkpt><trkpt lat="45.679046" lon="10.6538963"><ele>67.0</ele><time>2026-03-28T12:30:16.702Z</time></trkpt><trkpt lat="45.679184" lon="10.6539264"><ele>67.0</ele><time>2026-03-28T12:30:17.702Z</time></trkpt><trkpt lat="45.6793266" lon="10.6539592"><ele>67.0</ele><time>2026-03-28T12:30:18.702Z</time></trkpt><trkpt lat="45.6794701" lon="10.6539888"><ele>67.0</ele><time>2026-03-28T12:30:19.702Z</time></trkpt><trkpt lat="45.6796192" lon="10.6540137"><ele>67.75</ele><time>2026-03-28T12:30:20.703Z</time></trkpt><trkpt lat="45.6797619" lon="10.6540411"><ele>68.5</ele><time>2026-03-28T12:30:21.703Z</time></trkpt><trkpt lat="45.6799061" lon="10.6540797"><ele>69.25</ele><time>2026-03-28T12:30:22.703Z</time></trkpt><trkpt lat="45.6800542" lon="10.6541176"><ele>70.0</ele><time>2026-03-28T12:30:23.704Z</time></trkpt><trkpt lat="45.6801996" lon="10.654143"><ele>71.66666666666666</ele><time>2026-03-28T12:30:24.703Z</time></trkpt><trkpt lat="45.6803475" lon="10.6541816"><ele>73.33333333333333</ele><time>2026-03-28T12:30:25.704Z</time></trkpt><trkpt lat="45.6804971" lon="10.6542121"><ele>75.0</ele><time>2026-03-28T12:30:26.702Z</time></trkpt><trkpt lat="45.6806461" lon="10.6542531"><ele>75.0</ele><time>2026-03-28T12:30:27.703Z</time></trkpt><trkpt lat="45.6807913" lon="10.6542946"><ele>75.0</ele><time>2026-03-28T12:30:28.703Z</time></trkpt><trkpt lat="45.680939" lon="10.6543348"><ele>75.0</ele><time>2026-03-28T12:30:29.703Z</time></trkpt><trkpt lat="45.6810889" lon="10.6543864"><ele>74.66666666666667</ele><time>2026-03-28T12:30:30.704Z</time></trkpt><trkpt lat="45.6812306" lon="10.654458"><ele>74.33333333333334</ele><time>2026-03-28T12:30:31.703Z</time></trkpt><trkpt lat="45.6813702" lon="10.6545403"><ele>74.0</ele><time>2026-03-28T12:30:32.703Z</time></trkpt><trkpt lat="45.6815065" lon="10.6546353"><ele>74.0</ele><time>2026-03-28T12:30:33.702Z</time></trkpt><trkpt lat="45.6816356" lon="10.6547441"><ele>74.0</ele><time>2026-03-28T12:30:34.703Z</time></trkpt><trkpt lat="45.6817651" lon="10.6548652"><ele>74.0</ele><time>2026-03-28T12:30:35.702Z</time></trkpt><trkpt lat="45.6818796" lon="10.6550122"><ele>75.66666666666667</ele><time>2026-03-28T12:30:36.702Z</time></trkpt><trkpt lat="45.6819932" lon="10.6551585"><ele>77.33333333333333</ele><time>2026-03-28T12:30:37.702Z</time></trkpt><trkpt lat="45.6821082" lon="10.6553136"><ele>79.0</ele><time>2026-03-28T12:30:38.703Z</time></trkpt><trkpt lat="45.6822253" lon="10.6554734"><ele>79.0</ele><time>2026-03-28T12:30:39.702Z</time></trkpt><trkpt lat="45.6823383" lon="10.6556335"><ele>79.0</ele><time>2026-03-28T12:30:40.703Z</time></trkpt><trkpt lat="45.6824497" lon="10.6557878"><ele>79.0</ele><time>2026-03-28T12:30:41.703Z</time></trkpt><trkpt lat="45.6825596" lon="10.6559394"><ele>79.0</ele><time>2026-03-28T12:30:42.702Z</time></trkpt><trkpt lat="45.6826686" lon="10.6560946"><ele>79.0</ele><time>2026-03-28T12:30:43.702Z</time></trkpt><trkpt lat="45.6827809" lon="10.6562481"><ele>79.0</ele><time>2026-03-28T12:30:44.703Z</time></trkpt><trkpt lat="45.6828914" lon="10.6564038"><ele>80.33333333333333</ele><time>2026-03-28T12:30:45.702Z</time></trkpt><trkpt lat="45.6829993" lon="10.6565584"><ele>81.66666666666667</ele><time>2026-03-28T12:30:46.703Z</time></trkpt><trkpt lat="45.6831094" lon="10.6567137"><ele>83.0</ele><time>2026-03-28T12:30:47.702Z</time></trkpt><trkpt lat="45.6832182" lon="10.6568689"><ele>80.0</ele><time>2026-03-28T12:30:48.703Z</time></trkpt><trkpt lat="45.6833268" lon="10.6570194"><ele>77.0</ele><time>2026-03-28T12:30:49.703Z</time></trkpt><trkpt lat="45.6834367" lon="10.657171"><ele>74.0</ele><time>2026-03-28T12:30:50.703Z</time></trkpt><trkpt lat="45.6835407" lon="10.657319"><ele>73.75</ele><time>2026-03-28T12:30:51.702Z</time></trkpt><trkpt lat="45.6836487" lon="10.6574572"><ele>73.5</ele><time>2026-03-28T12:30:52.702Z</time></trkpt><trkpt lat="45.6837623" lon="10.6575868"><ele>73.25</ele><time>2026-03-28T12:30:53.702Z</time></trkpt><trkpt lat="45.6838805" lon="10.6577058"><ele>73.0</ele><time>2026-03-28T12:30:54.702Z</time></trkpt><trkpt lat="45.6840015" lon="10.6578232"><ele>73.0</ele><time>2026-03-28T12:30:55.703Z</time></trkpt><trkpt lat="45.6841246" lon="10.6579392"><ele>73.0</ele><time>2026-03-28T12:30:56.702Z</time></trkpt><trkpt lat="45.6842467" lon="10.6580583"><ele>73.0</ele><time>2026-03-28T12:30:57.703Z</time></trkpt><trkpt lat="45.6843725" lon="10.6581779"><ele>73.0</ele><time>2026-03-28T12:30:58.702Z</time></trkpt><trkpt lat="45.684497" lon="10.658289"><ele>73.25</ele><time>2026-03-28T12:30:59.703Z</time></trkpt><trkpt lat="45.6846169" lon="10.6584059"><ele>73.5</ele><time>2026-03-28T12:31:00.702Z</time></trkpt><trkpt lat="45.6847403" lon="10.6585195"><ele>73.75</ele><time>2026-03-28T12:31:01.702Z</time></trkpt><trkpt lat="45.6848579" lon="10.6586369"><ele>74.0</ele><time>2026-03-28T12:31:02.702Z</time></trkpt><trkpt lat="45.6849769" lon="10.6587485"><ele>74.0</ele><time>2026-03-28T12:31:03.702Z</time></trkpt><trkpt lat="45.6850952" lon="10.658861"><ele>74.0</ele><time>2026-03-28T12:31:04.702Z</time></trkpt><trkpt lat="45.685211" lon="10.6589698"><ele>74.0</ele><time>2026-03-28T12:31:05.703Z</time></trkpt><trkpt lat="45.6853267" lon="10.6590855"><ele>74.0</ele><time>2026-03-28T12:31:06.703Z</time></trkpt><trkpt lat="45.6854438" lon="10.6591946"><ele>73.5</ele><time>2026-03-28T12:31:07.702Z</time></trkpt><trkpt lat="45.6855599" lon="10.6593073"><ele>73.0</ele><time>2026-03-28T12:31:08.703Z</time></trkpt><trkpt lat="45.6856742" lon="10.6594198"><ele>72.5</ele><time>2026-03-28T12:31:09.703Z</time></trkpt><trkpt lat="45.6857895" lon="10.6595335"><ele>72.0</ele><time>2026-03-28T12:31:10.703Z</time></trkpt><trkpt lat="45.6859035" lon="10.6596402"><ele>72.0</ele><time>2026-03-28T12:31:11.703Z</time></trkpt><trkpt lat="45.6860221" lon="10.6597462"><ele>72.0</ele><time>2026-03-28T12:31:12.703Z</time></trkpt><trkpt lat="45.6861406" lon="10.6598437"><ele>72.0</ele><time>2026-03-28T12:31:13.702Z</time></trkpt><trkpt lat="45.6862614" lon="10.6599366"><ele>72.0</ele><time>2026-03-28T12:31:14.703Z</time></trkpt><trkpt lat="45.6863857" lon="10.6600251"><ele>71.25</ele><time>2026-03-28T12:31:15.702Z</time></trkpt><trkpt lat="45.6865131" lon="10.6601087"><ele>70.5</ele><time>2026-03-28T12:31:16.702Z</time></trkpt><trkpt lat="45.6866385" lon="10.6601948"><ele>69.75</ele><time>2026-03-28T12:31:17.702Z</time></trkpt><trkpt lat="45.6867617" lon="10.6602831"><ele>69.0</ele><time>2026-03-28T12:31:18.703Z</time></trkpt><trkpt lat="45.6868915" lon="10.6603651"><ele>71.75</ele><time>2026-03-28T12:31:19.703Z</time></trkpt><trkpt lat="45.6870198" lon="10.6604403"><ele>74.5</ele><time>2026-03-28T12:31:20.702Z</time></trkpt><trkpt lat="45.6871503" lon="10.6605193"><ele>77.25</ele><time>2026-03-28T12:31:21.703Z</time></trkpt><trkpt lat="45.6872803" lon="10.660608"><ele>80.0</ele><time>2026-03-28T12:31:22.704Z</time></trkpt><trkpt lat="45.6874133" lon="10.6606917"><ele>80.0</ele><time>2026-03-28T12:31:23.702Z</time></trkpt><trkpt lat="45.6875484" lon="10.6607837"><ele>80.0</ele><time>2026-03-28T12:31:24.703Z</time></trkpt><trkpt lat="45.6876786" lon="10.6608819"><ele>80.0</ele><time>2026-03-28T12:31:25.702Z</time></trkpt><trkpt lat="45.6878068" lon="10.6609838"><ele>80.0</ele><time>2026-03-28T12:31:26.702Z</time></trkpt><trkpt lat="45.6879311" lon="10.6610902"><ele>82.0</ele><time>2026-03-28T12:31:27.702Z</time></trkpt><trkpt lat="45.6880443" lon="10.6612221"><ele>84.0</ele><time>2026-03-28T12:31:28.703Z</time></trkpt><trkpt lat="45.6881597" lon="10.6613591"><ele>86.0</ele><time>2026-03-28T12:31:29.702Z</time></trkpt><trkpt lat="45.6882671" lon="10.6615061"><ele>88.0</ele><time>2026-03-28T12:31:30.702Z</time></trkpt><trkpt lat="45.6883594" lon="10.6616503"><ele>88.0</ele><time>2026-03-28T12:31:31.702Z</time></trkpt><trkpt lat="45.6884552" lon="10.661786"><ele>88.0</ele><time>2026-03-28T12:31:32.703Z</time></trkpt><trkpt lat="45.6885306" lon="10.6618964"><ele>88.0</ele><time>2026-03-28T12:31:33.703Z</time></trkpt><trkpt lat="45.688587" lon="10.6619983"><ele>88.0</ele><time>2026-03-28T12:31:34.702Z</time></trkpt><trkpt lat="45.6886382" lon="10.6620792"><ele>88.0</ele><time>2026-03-28T12:31:35.702Z</time></trkpt><trkpt lat="45.6887018" lon="10.662202"><ele>87.83333333333333</ele><time>2026-03-28T12:31:37.703Z</time></trkpt><trkpt lat="45.6887452" lon="10.6622676"><ele>87.66666666666666</ele><time>2026-03-28T12:31:39.703Z</time></trkpt><trkpt lat="45.6887827" lon="10.6623483"><ele>87.5</ele><time>2026-03-28T12:31:49.704Z</time></trkpt><trkpt lat="45.6888468" lon="10.6624773"><ele>87.33333333333333</ele><time>2026-03-28T12:31:51.703Z</time></trkpt><trkpt lat="45.6888895" lon="10.6625652"><ele>87.16666666666667</ele><time>2026-03-28T12:31:52.703Z</time></trkpt><trkpt lat="45.6889494" lon="10.6626798"><ele>87.0</ele><time>2026-03-28T12:31:53.703Z</time></trkpt><trkpt lat="45.6890193" lon="10.6628213"><ele>87.0</ele><time>2026-03-28T12:31:54.703Z</time></trkpt><trkpt lat="45.6890958" lon="10.6629701"><ele>87.0</ele><time>2026-03-28T12:31:55.702Z</time></trkpt><trkpt lat="45.6891841" lon="10.6631386"><ele>87.0</ele><time>2026-03-28T12:31:56.703Z</time></trkpt><trkpt lat="45.6892782" lon="10.663325"><ele>87.0</ele><time>2026-03-28T12:31:57.701Z</time></trkpt><trkpt lat="45.6893633" lon="10.6634962"><ele>90.0</ele><time>2026-03-28T12:31:58.702Z</time></trkpt><trkpt lat="45.6894409" lon="10.6636466"><ele>93.0</ele><time>2026-03-28T12:31:59.704Z</time></trkpt><trkpt lat="45.689521" lon="10.6637833"><ele>96.0</ele><time>2026-03-28T12:32:00.703Z</time></trkpt><trkpt lat="45.6896192" lon="10.6639025"><ele>99.0</ele><time>2026-03-28T12:32:01.702Z</time></trkpt><trkpt lat="45.6897252" lon="10.6639971"><ele>99.0</ele><time>2026-03-28T12:32:02.704Z</time></trkpt><trkpt lat="45.6898438" lon="10.6640762"><ele>99.0</ele><time>2026-03-28T12:32:03.703Z</time></trkpt><trkpt lat="45.68996" lon="10.6641298"><ele>99.0</ele><time>2026-03-28T12:32:04.702Z</time></trkpt><trkpt lat="45.6900651" lon="10.6641609"><ele>99.0</ele><time>2026-03-28T12:32:05.702Z</time></trkpt><trkpt lat="45.690157" lon="10.6641884"><ele>99.0</ele><time>2026-03-28T12:32:06.703Z</time></trkpt><trkpt lat="45.6902241" lon="10.664211"><ele>99.0</ele><time>2026-03-28T12:32:07.703Z</time></trkpt><trkpt lat="45.6903027" lon="10.6642377"><ele>99.0</ele><time>2026-03-28T12:32:09.703Z</time></trkpt><trkpt lat="45.6903769" lon="10.6642548"><ele>99.0</ele><time>2026-03-28T12:32:32.704Z</time></trkpt><trkpt lat="45.6904792" lon="10.6643098"><ele>99.0</ele><time>2026-03-28T12:32:34.703Z</time></trkpt><trkpt lat="45.6905985" lon="10.6643943"><ele>99.2</ele><time>2026-03-28T12:32:36.702Z</time></trkpt><trkpt lat="45.6906645" lon="10.6644504"><ele>99.4</ele><time>2026-03-28T12:32:37.703Z</time></trkpt><trkpt lat="45.6907314" lon="10.6645313"><ele>99.6</ele><time>2026-03-28T12:32:38.702Z</time></trkpt><trkpt lat="45.6907985" lon="10.6646258"><ele>99.8</ele><time>2026-03-28T12:32:39.702Z</time></trkpt><trkpt lat="45.6908712" lon="10.6647341"><ele>100.0</ele><time>2026-03-28T12:32:40.702Z</time></trkpt><trkpt lat="45.6909488" lon="10.6648573"><ele>100.0</ele><time>2026-03-28T12:32:41.702Z</time></trkpt><trkpt lat="45.6910226" lon="10.6649776"><ele>100.0</ele><time>2026-03-28T12:32:42.702Z</time></trkpt><trkpt lat="45.6910911" lon="10.6650907"><ele>100.0</ele><time>2026-03-28T12:32:43.703Z</time></trkpt><trkpt lat="45.6911588" lon="10.6652043"><ele>100.0</ele><time>2026-03-28T12:32:44.702Z</time></trkpt><trkpt lat="45.6912206" lon="10.6653091"><ele>100.0</ele><time>2026-03-28T12:32:45.704Z</time></trkpt><trkpt lat="45.6912821" lon="10.6654162"><ele>101.6</ele><time>2026-03-28T12:32:46.704Z</time></trkpt><trkpt lat="45.6913531" lon="10.6655296"><ele>103.2</ele><time>2026-03-28T12:32:47.703Z</time></trkpt><trkpt lat="45.691426" lon="10.6656389"><ele>104.80000000000001</ele><time>2026-03-28T12:32:48.703Z</time></trkpt><trkpt lat="45.6914949" lon="10.6657663"><ele>106.4</ele><time>2026-03-28T12:32:49.704Z</time></trkpt><trkpt lat="45.691568" lon="10.6658862"><ele>108.0</ele><time>2026-03-28T12:32:50.702Z</time></trkpt><trkpt lat="45.6916361" lon="10.6660119"><ele>109.25</ele><time>2026-03-28T12:32:51.702Z</time></trkpt><trkpt lat="45.6917151" lon="10.6661363"><ele>110.5</ele><time>2026-03-28T12:32:52.703Z</time></trkpt><trkpt lat="45.6917947" lon="10.6662605"><ele>111.75</ele><time>2026-03-28T12:32:53.704Z</time></trkpt><trkpt lat="45.691877" lon="10.6663903"><ele>113.0</ele><time>2026-03-28T12:32:54.702Z</time></trkpt><trkpt lat="45.6919594" lon="10.6665225"><ele>113.0</ele><time>2026-03-28T12:32:55.704Z</time></trkpt><trkpt lat="45.6920435" lon="10.6666582"><ele>113.0</ele><time>2026-03-28T12:32:56.702Z</time></trkpt><trkpt lat="45.6921232" lon="10.6667853"><ele>113.0</ele><time>2026-03-28T12:32:57.703Z</time></trkpt><trkpt lat="45.6922029" lon="10.6668968"><ele>113.0</ele><time>2026-03-28T12:32:58.703Z</time></trkpt><trkpt lat="45.6922865" lon="10.6669836"><ele>110.5</ele><time>2026-03-28T12:32:59.704Z</time></trkpt><trkpt lat="45.6923834" lon="10.6670576"><ele>108.0</ele><time>2026-03-28T12:33:00.702Z</time></trkpt><trkpt lat="45.6924914" lon="10.6671111"><ele>105.5</ele><time>2026-03-28T12:33:01.703Z</time></trkpt><trkpt lat="45.6926118" lon="10.6671429"><ele>103.0</ele><time>2026-03-28T12:33:02.703Z</time></trkpt><trkpt lat="45.6927367" lon="10.6671681"><ele>104.5</ele><time>2026-03-28T12:33:03.704Z</time></trkpt><trkpt lat="45.6928647" lon="10.6671855"><ele>106.0</ele><time>2026-03-28T12:33:04.704Z</time></trkpt><trkpt lat="45.6929919" lon="10.6672087"><ele>107.5</ele><time>2026-03-28T12:33:05.702Z</time></trkpt><trkpt lat="45.693117" lon="10.6672349"><ele>109.0</ele><time>2026-03-28T12:33:06.703Z</time></trkpt><trkpt lat="45.6932393" lon="10.6672639"><ele>109.0</ele><time>2026-03-28T12:33:07.703Z</time></trkpt><trkpt lat="45.6933537" lon="10.6673002"><ele>109.0</ele><time>2026-03-28T12:33:08.703Z</time></trkpt><trkpt lat="45.6934615" lon="10.6673472"><ele>109.0</ele><time>2026-03-28T12:33:09.702Z</time></trkpt><trkpt lat="45.6935647" lon="10.6674191"><ele>109.0</ele><time>2026-03-28T12:33:10.704Z</time></trkpt><trkpt lat="45.6936656" lon="10.6675107"><ele>108.25</ele><time>2026-03-28T12:33:11.704Z</time></trkpt><trkpt lat="45.6937572" lon="10.6676264"><ele>107.5</ele><time>2026-03-28T12:33:12.702Z</time></trkpt><trkpt lat="45.693848" lon="10.6677542"><ele>106.75</ele><time>2026-03-28T12:33:13.702Z</time></trkpt><trkpt lat="45.6939455" lon="10.6678618"><ele>106.0</ele><time>2026-03-28T12:33:14.702Z</time></trkpt><trkpt lat="45.694047" lon="10.6679543"><ele>106.0</ele><time>2026-03-28T12:33:15.702Z</time></trkpt><trkpt lat="45.6941621" lon="10.6680326"><ele>106.0</ele><time>2026-03-28T12:33:16.701Z</time></trkpt><trkpt lat="45.6942819" lon="10.6680889"><ele>106.0</ele><time>2026-03-28T12:33:17.703Z</time></trkpt><trkpt lat="45.6944002" lon="10.6681409"><ele>106.0</ele><time>2026-03-28T12:33:18.702Z</time></trkpt><trkpt lat="45.694512" lon="10.668196"><ele>111.75</ele><time>2026-03-28T12:33:19.703Z</time></trkpt><trkpt lat="45.6946232" lon="10.6682377"><ele>117.5</ele><time>2026-03-28T12:33:20.703Z</time></trkpt><trkpt lat="45.6947285" lon="10.6683001"><ele>123.25</ele><time>2026-03-28T12:33:21.704Z</time></trkpt><trkpt lat="45.6948259" lon="10.6683801"><ele>129.0</ele><time>2026-03-28T12:33:22.705Z</time></trkpt><trkpt lat="45.6949164" lon="10.6684749"><ele>129.0</ele><time>2026-03-28T12:33:23.703Z</time></trkpt><trkpt lat="45.6949943" lon="10.6685975"><ele>129.0</ele><time>2026-03-28T12:33:24.703Z</time></trkpt><trkpt lat="45.6950587" lon="10.6687377"><ele>129.0</ele><time>2026-03-28T12:33:25.704Z</time></trkpt><trkpt lat="45.695123" lon="10.6688855"><ele>129.0</ele><time>2026-03-28T12:33:26.702Z</time></trkpt><trkpt lat="45.6951885" lon="10.6690386"><ele>129.5</ele><time>2026-03-28T12:33:27.702Z</time></trkpt><trkpt lat="45.6952614" lon="10.6691947"><ele>130.0</ele><time>2026-03-28T12:33:28.702Z</time></trkpt><trkpt lat="45.695347" lon="10.6693701"><ele>130.5</ele><time>2026-03-28T12:33:29.702Z</time></trkpt><trkpt lat="45.6954266" lon="10.6695735"><ele>131.0</ele><time>2026-03-28T12:33:30.703Z</time></trkpt><trkpt lat="45.6955071" lon="10.6697679"><ele>131.0</ele><time>2026-03-28T12:33:31.702Z</time></trkpt><trkpt lat="45.6955786" lon="10.6699478"><ele>131.0</ele><time>2026-03-28T12:33:32.702Z</time></trkpt><trkpt lat="45.6956441" lon="10.6701224"><ele>131.0</ele><time>2026-03-28T12:33:33.703Z</time></trkpt><trkpt lat="45.6957059" lon="10.6702901"><ele>131.0</ele><time>2026-03-28T12:33:34.703Z</time></trkpt><trkpt lat="45.6957686" lon="10.6704472"><ele>129.0</ele><time>2026-03-28T12:33:35.702Z</time></trkpt><trkpt lat="45.6958271" lon="10.6706074"><ele>127.0</ele><time>2026-03-28T12:33:36.704Z</time></trkpt><trkpt lat="45.6958742" lon="10.6707707"><ele>125.0</ele><time>2026-03-28T12:33:37.702Z</time></trkpt><trkpt lat="45.6959217" lon="10.6709331"><ele>123.0</ele><time>2026-03-28T12:33:38.702Z</time></trkpt><trkpt lat="45.6959804" lon="10.6710914"><ele>120.5</ele><time>2026-03-28T12:33:39.702Z</time></trkpt><trkpt lat="45.6960579" lon="10.6712331"><ele>118.0</ele><time>2026-03-28T12:33:40.703Z</time></trkpt><trkpt lat="45.6961575" lon="10.671366"><ele>115.5</ele><time>2026-03-28T12:33:41.703Z</time></trkpt><trkpt lat="45.6962805" lon="10.6715011"><ele>113.0</ele><time>2026-03-28T12:33:42.702Z</time></trkpt><trkpt lat="45.6964069" lon="10.671643"><ele>115.33333333333333</ele><time>2026-03-28T12:33:43.702Z</time></trkpt><trkpt lat="45.6965394" lon="10.6718133"><ele>117.66666666666666</ele><time>2026-03-28T12:33:44.703Z</time></trkpt><trkpt lat="45.6966751" lon="10.6719891"><ele>120.0</ele><time>2026-03-28T12:33:45.702Z</time></trkpt><trkpt lat="45.6968091" lon="10.6721692"><ele>125.33333333333334</ele><time>2026-03-28T12:33:46.702Z</time></trkpt><trkpt lat="45.6969353" lon="10.6723404"><ele>130.66666666666669</ele><time>2026-03-28T12:33:47.704Z</time></trkpt><trkpt lat="45.6970515" lon="10.6724983"><ele>136.0</ele><time>2026-03-28T12:33:48.702Z</time></trkpt><trkpt lat="45.6971521" lon="10.6726618"><ele>134.33333333333334</ele><time>2026-03-28T12:33:49.703Z</time></trkpt><trkpt lat="45.6972552" lon="10.6728424"><ele>132.66666666666666</ele><time>2026-03-28T12:33:50.704Z</time></trkpt><trkpt lat="45.6973488" lon="10.6730446"><ele>131.0</ele><time>2026-03-28T12:33:51.702Z</time></trkpt><trkpt lat="45.6974518" lon="10.673255"><ele>131.0</ele><time>2026-03-28T12:33:52.702Z</time></trkpt><trkpt lat="45.6975541" lon="10.6734616"><ele>131.0</ele><time>2026-03-28T12:33:53.704Z</time></trkpt><trkpt lat="45.697654" lon="10.6736571"><ele>131.0</ele><time>2026-03-28T12:33:54.704Z</time></trkpt><trkpt lat="45.6977634" lon="10.6738394"><ele>135.33333333333331</ele><time>2026-03-28T12:33:55.703Z</time></trkpt><trkpt lat="45.6978816" lon="10.6740114"><ele>139.66666666666666</ele><time>2026-03-28T12:33:56.703Z</time></trkpt><trkpt lat="45.6979978" lon="10.6741793"><ele>144.0</ele><time>2026-03-28T12:33:57.703Z</time></trkpt><trkpt lat="45.6981201" lon="10.6743571"><ele>140.0</ele><time>2026-03-28T12:33:58.703Z</time></trkpt><trkpt lat="45.6982443" lon="10.6745399"><ele>136.0</ele><time>2026-03-28T12:33:59.703Z</time></trkpt><trkpt lat="45.698372" lon="10.674729"><ele>132.0</ele><time>2026-03-28T12:34:00.703Z</time></trkpt><trkpt lat="45.6985004" lon="10.6749074"><ele>135.66666666666666</ele><time>2026-03-28T12:34:01.703Z</time></trkpt><trkpt lat="45.6986178" lon="10.6750852"><ele>139.33333333333331</ele><time>2026-03-28T12:34:02.704Z</time></trkpt><trkpt lat="45.6987304" lon="10.6752497"><ele>143.0</ele><time>2026-03-28T12:34:03.702Z</time></trkpt><trkpt lat="45.6988409" lon="10.6754083"><ele>143.0</ele><time>2026-03-28T12:34:04.704Z</time></trkpt><trkpt lat="45.6989512" lon="10.675568"><ele>143.0</ele><time>2026-03-28T12:34:05.702Z</time></trkpt><trkpt lat="45.6990633" lon="10.6757258"><ele>143.0</ele><time>2026-03-28T12:34:06.704Z</time></trkpt><trkpt lat="45.6991714" lon="10.6759004"><ele>143.0</ele><time>2026-03-28T12:34:07.702Z</time></trkpt><trkpt lat="45.6992709" lon="10.676084"><ele>143.0</ele><time>2026-03-28T12:34:08.703Z</time></trkpt><trkpt lat="45.6993665" lon="10.6762822"><ele>143.0</ele><time>2026-03-28T12:34:09.703Z</time></trkpt><trkpt lat="45.699457" lon="10.6764883"><ele>142.66666666666666</ele><time>2026-03-28T12:34:10.704Z</time></trkpt><trkpt lat="45.6995472" lon="10.676687"><ele>142.33333333333334</ele><time>2026-03-28T12:34:11.703Z</time></trkpt><trkpt lat="45.6996468" lon="10.6768774"><ele>142.0</ele><time>2026-03-28T12:34:12.703Z</time></trkpt><trkpt lat="45.6997554" lon="10.6770608"><ele>142.0</ele><time>2026-03-28T12:34:13.702Z</time></trkpt><trkpt lat="45.699876" lon="10.6772324"><ele>142.0</ele><time>2026-03-28T12:34:14.703Z</time></trkpt><trkpt lat="45.7000109" lon="10.6773819"><ele>142.0</ele><time>2026-03-28T12:34:15.703Z</time></trkpt><trkpt lat="45.7001519" lon="10.6775322"><ele>144.66666666666669</ele><time>2026-03-28T12:34:16.703Z</time></trkpt><trkpt lat="45.7002928" lon="10.6776767"><ele>147.33333333333334</ele><time>2026-03-28T12:34:17.704Z</time></trkpt><trkpt lat="45.7004345" lon="10.6778183"><ele>150.0</ele><time>2026-03-28T12:34:18.703Z</time></trkpt><trkpt lat="45.7005768" lon="10.6779501"><ele>150.0</ele><time>2026-03-28T12:34:19.703Z</time></trkpt><trkpt lat="45.7007178" lon="10.6780834"><ele>150.0</ele><time>2026-03-28T12:34:20.702Z</time></trkpt><trkpt lat="45.7008527" lon="10.6782116"><ele>150.0</ele><time>2026-03-28T12:34:21.702Z</time></trkpt><trkpt lat="45.7009903" lon="10.6783381"><ele>155.33333333333334</ele><time>2026-03-28T12:34:22.702Z</time></trkpt><trkpt lat="45.7011219" lon="10.6784649"><ele>160.66666666666669</ele><time>2026-03-28T12:34:23.702Z</time></trkpt><trkpt lat="45.7012556" lon="10.6785958"><ele>166.0</ele><time>2026-03-28T12:34:24.703Z</time></trkpt><trkpt lat="45.7013858" lon="10.6787367"><ele>166.0</ele><time>2026-03-28T12:34:25.704Z</time></trkpt><trkpt lat="45.701508" lon="10.6788958"><ele>166.0</ele><time>2026-03-28T12:34:26.703Z</time></trkpt><trkpt lat="45.7016184" lon="10.6790692"><ele>166.0</ele><time>2026-03-28T12:34:27.703Z</time></trkpt><trkpt lat="45.7017215" lon="10.6792591"><ele>171.66666666666669</ele><time>2026-03-28T12:34:28.703Z</time></trkpt><trkpt lat="45.7018248" lon="10.6794568"><ele>177.33333333333334</ele><time>2026-03-28T12:34:29.704Z</time></trkpt><trkpt lat="45.7019212" lon="10.6796525"><ele>183.0</ele><time>2026-03-28T12:34:30.703Z</time></trkpt><trkpt lat="45.7020121" lon="10.6798375"><ele>183.0</ele><time>2026-03-28T12:34:31.703Z</time></trkpt><trkpt lat="45.7021" lon="10.6800098"><ele>183.0</ele><time>2026-03-28T12:34:32.704Z</time></trkpt><trkpt lat="45.7022028" lon="10.6801582"><ele>183.0</ele><time>2026-03-28T12:34:33.704Z</time></trkpt><trkpt lat="45.7023196" lon="10.6802824"><ele>183.0</ele><time>2026-03-28T12:34:34.703Z</time></trkpt><trkpt lat="45.7024504" lon="10.6803862"><ele>186.5</ele><time>2026-03-28T12:34:35.702Z</time></trkpt><trkpt lat="45.7025837" lon="10.6804767"><ele>190.0</ele><time>2026-03-28T12:34:36.703Z</time></trkpt><trkpt lat="45.7026958" lon="10.6805612"><ele>193.5</ele><time>2026-03-28T12:34:37.703Z</time></trkpt><trkpt lat="45.7027934" lon="10.680668"><ele>197.0</ele><time>2026-03-28T12:34:38.702Z</time></trkpt><trkpt lat="45.7028841" lon="10.6808094"><ele>197.0</ele><time>2026-03-28T12:34:39.703Z</time></trkpt><trkpt lat="45.7029666" lon="10.6809805"><ele>197.0</ele><time>2026-03-28T12:34:40.703Z</time></trkpt><trkpt lat="45.7030486" lon="10.6811591"><ele>197.0</ele><time>2026-03-28T12:34:41.702Z</time></trkpt><trkpt lat="45.7031247" lon="10.6813464"><ele>197.0</ele><time>2026-03-28T12:34:42.703Z</time></trkpt><trkpt lat="45.7031981" lon="10.6815436"><ele>185.33333333333334</ele><time>2026-03-28T12:34:43.702Z</time></trkpt><trkpt lat="45.7032587" lon="10.6817461"><ele>173.66666666666669</ele><time>2026-03-28T12:34:44.703Z</time></trkpt><trkpt lat="45.7033242" lon="10.6819509"><ele>162.0</ele><time>2026-03-28T12:34:45.702Z</time></trkpt><trkpt lat="45.703384" lon="10.682151"><ele>160.33333333333334</ele><time>2026-03-28T12:34:46.704Z</time></trkpt><trkpt lat="45.703445" lon="10.6823476"><ele>158.66666666666669</ele><time>2026-03-28T12:34:47.702Z</time></trkpt><trkpt lat="45.703504" lon="10.6825452"><ele>157.0</ele><time>2026-03-28T12:34:48.704Z</time></trkpt><trkpt lat="45.7082625" lon="10.6920371"><ele>171.25</ele><time>2026-03-28T12:35:42.704Z</time></trkpt><trkpt lat="45.7082994" lon="10.6922306"><ele>185.5</ele><time>2026-03-28T12:35:43.703Z</time></trkpt><trkpt lat="45.7083362" lon="10.6924287"><ele>199.75</ele><time>2026-03-28T12:35:44.704Z</time></trkpt><trkpt lat="45.7083807" lon="10.692618"><ele>214.0</ele><time>2026-03-28T12:35:45.704Z</time></trkpt><trkpt lat="45.7084202" lon="10.6928023"><ele>214.0</ele><time>2026-03-28T12:35:46.704Z</time></trkpt><trkpt lat="45.7084662" lon="10.6930079"><ele>214.0</ele><time>2026-03-28T12:35:47.703Z</time></trkpt><trkpt lat="45.708531" lon="10.6932658"><ele>214.0</ele><time>2026-03-28T12:35:48.703Z</time></trkpt><trkpt lat="45.7085694" lon="10.6934815"><ele>228.75</ele><time>2026-03-28T12:35:49.704Z</time></trkpt><trkpt lat="45.7086075" lon="10.693673"><ele>243.5</ele><time>2026-03-28T12:35:50.704Z</time></trkpt><trkpt lat="45.7086556" lon="10.6938539"><ele>258.25</ele><time>2026-03-28T12:35:51.703Z</time></trkpt><trkpt lat="45.7087189" lon="10.6940258"><ele>273.0</ele><time>2026-03-28T12:35:52.704Z</time></trkpt><trkpt lat="45.7087917" lon="10.6941823"><ele>273.0</ele><time>2026-03-28T12:35:53.704Z</time></trkpt><trkpt lat="45.7088669" lon="10.6943202"><ele>273.0</ele><time>2026-03-28T12:35:54.703Z</time></trkpt><trkpt lat="45.7089279" lon="10.6944504"><ele>273.0</ele><time>2026-03-28T12:35:55.704Z</time></trkpt><trkpt lat="45.7089972" lon="10.6945932"><ele>273.0</ele><time>2026-03-28T12:35:56.703Z</time></trkpt><trkpt lat="45.7124177" lon="10.7002969"><ele>254.2</ele><time>2026-03-28T12:36:32.703Z</time></trkpt><trkpt lat="45.7124755" lon="10.7003489"><ele>235.4</ele><time>2026-03-28T12:36:33.703Z</time></trkpt><trkpt lat="45.712532" lon="10.7003948"><ele>216.6</ele><time>2026-03-28T12:36:34.702Z</time></trkpt><trkpt lat="45.7126233" lon="10.7004534"><ele>197.79999999999998</ele><time>2026-03-28T12:36:35.704Z</time></trkpt><trkpt lat="45.7127235" lon="10.7005134"><ele>179.0</ele><time>2026-03-28T12:36:36.704Z</time></trkpt><trkpt lat="45.7128243" lon="10.7005791"><ele>179.0</ele><time>2026-03-28T12:36:37.704Z</time></trkpt><trkpt lat="45.7129185" lon="10.7006378"><ele>179.0</ele><time>2026-03-28T12:36:38.703Z</time></trkpt><trkpt lat="45.7130156" lon="10.7006986"><ele>179.0</ele><time>2026-03-28T12:36:39.703Z</time></trkpt><trkpt lat="45.7131176" lon="10.7007569"><ele>179.0</ele><time>2026-03-28T12:36:40.703Z</time></trkpt><trkpt lat="45.7132215" lon="10.700822"><ele>179.0</ele><time>2026-03-28T12:36:41.703Z</time></trkpt><trkpt lat="45.7133331" lon="10.7008913"><ele>179.0</ele><time>2026-03-28T12:36:42.704Z</time></trkpt><trkpt lat="45.7134531" lon="10.7009605"><ele>179.0</ele><time>2026-03-28T12:36:43.704Z</time></trkpt><trkpt lat="45.7135863" lon="10.7010377"><ele>179.0</ele><time>2026-03-28T12:36:44.704Z</time></trkpt><trkpt lat="45.7137232" lon="10.7011193"><ele>179.0</ele><time>2026-03-28T12:36:45.703Z</time></trkpt><trkpt lat="45.7138674" lon="10.7012064"><ele>176.0</ele><time>2026-03-28T12:36:46.704Z</time></trkpt><trkpt lat="45.7140046" lon="10.7012971"><ele>173.0</ele><time>2026-03-28T12:36:47.703Z</time></trkpt><trkpt lat="45.7141299" lon="10.7013973"><ele>170.0</ele><time>2026-03-28T12:36:48.703Z</time></trkpt><trkpt lat="45.7142452" lon="10.7015223"><ele>167.0</ele><time>2026-03-28T12:36:49.703Z</time></trkpt><trkpt lat="45.7143526" lon="10.7016601"><ele>166.25</ele><time>2026-03-28T12:36:50.703Z</time></trkpt><trkpt lat="45.7144517" lon="10.701793"><ele>165.5</ele><time>2026-03-28T12:36:51.703Z</time></trkpt><trkpt lat="45.7145418" lon="10.7019179"><ele>164.75</ele><time>2026-03-28T12:36:52.703Z</time></trkpt><trkpt lat="45.7146283" lon="10.7020356"><ele>164.0</ele><time>2026-03-28T12:36:53.704Z</time></trkpt><trkpt lat="45.7147142" lon="10.7021487"><ele>164.0</ele><time>2026-03-28T12:36:54.704Z</time></trkpt><trkpt lat="45.714803" lon="10.7022652"><ele>164.0</ele><time>2026-03-28T12:36:55.703Z</time></trkpt><trkpt lat="45.7149" lon="10.7023819"><ele>164.0</ele><time>2026-03-28T12:36:56.703Z</time></trkpt><trkpt lat="45.7150037" lon="10.7024978"><ele>164.0</ele><time>2026-03-28T12:36:57.704Z</time></trkpt><trkpt lat="45.715115" lon="10.7026129"><ele>164.0</ele><time>2026-03-28T12:36:58.703Z</time></trkpt><trkpt lat="45.7152309" lon="10.7027317"><ele>164.0</ele><time>2026-03-28T12:36:59.703Z</time></trkpt><trkpt lat="45.7153522" lon="10.7028537"><ele>164.0</ele><time>2026-03-28T12:37:00.703Z</time></trkpt><trkpt lat="45.7154756" lon="10.7029796"><ele>164.0</ele><time>2026-03-28T12:37:01.703Z</time></trkpt><trkpt lat="45.7156032" lon="10.7031092"><ele>163.66666666666666</ele><time>2026-03-28T12:37:02.703Z</time></trkpt><trkpt lat="45.7157354" lon="10.7032399"><ele>163.33333333333334</ele><time>2026-03-28T12:37:03.704Z</time></trkpt><trkpt lat="45.715869" lon="10.7033738"><ele>163.0</ele><time>2026-03-28T12:37:04.703Z</time></trkpt><trkpt lat="45.7160044" lon="10.7035129"><ele>162.66666666666669</ele><time>2026-03-28T12:37:05.703Z</time></trkpt><trkpt lat="45.7161427" lon="10.7036508"><ele>162.33333333333334</ele><time>2026-03-28T12:37:06.704Z</time></trkpt><trkpt lat="45.7162812" lon="10.7037926"><ele>162.0</ele><time>2026-03-28T12:37:07.704Z</time></trkpt><trkpt lat="45.7164162" lon="10.7039402"><ele>162.0</ele><time>2026-03-28T12:37:08.703Z</time></trkpt><trkpt lat="45.7165422" lon="10.7040932"><ele>162.0</ele><time>2026-03-28T12:37:09.704Z</time></trkpt><trkpt lat="45.7166569" lon="10.7042585"><ele>162.0</ele><time>2026-03-28T12:37:10.703Z</time></trkpt><trkpt lat="45.716766" lon="10.7044354"><ele>164.33333333333334</ele><time>2026-03-28T12:37:11.704Z</time></trkpt><trkpt lat="45.7168754" lon="10.7046194"><ele>166.66666666666669</ele><time>2026-03-28T12:37:12.703Z</time></trkpt><trkpt lat="45.7169855" lon="10.7048053"><ele>169.0</ele><time>2026-03-28T12:37:13.703Z</time></trkpt><trkpt lat="45.7170986" lon="10.7049909"><ele>169.0</ele><time>2026-03-28T12:37:14.704Z</time></trkpt><trkpt lat="45.7172141" lon="10.705176"><ele>169.0</ele><time>2026-03-28T12:37:15.703Z</time></trkpt><trkpt lat="45.7173321" lon="10.7053555"><ele>169.0</ele><time>2026-03-28T12:37:16.703Z</time></trkpt><trkpt lat="45.7174527" lon="10.7055348"><ele>172.66666666666669</ele><time>2026-03-28T12:37:17.704Z</time></trkpt><trkpt lat="45.717575" lon="10.7057083"><ele>176.33333333333334</ele><time>2026-03-28T12:37:18.703Z</time></trkpt><trkpt lat="45.7177009" lon="10.7058727"><ele>180.0</ele><time>2026-03-28T12:37:19.703Z</time></trkpt><trkpt lat="45.7178259" lon="10.7060248"><ele>174.0</ele><time>2026-03-28T12:37:20.704Z</time></trkpt><trkpt lat="45.7179579" lon="10.7061585"><ele>168.0</ele><time>2026-03-28T12:37:21.704Z</time></trkpt><trkpt lat="45.7180909" lon="10.7062915"><ele>162.0</ele><time>2026-03-28T12:37:22.704Z</time></trkpt><trkpt lat="45.7182277" lon="10.7064208"><ele>162.0</ele><time>2026-03-28T12:37:23.704Z</time></trkpt><trkpt lat="45.7183675" lon="10.7065509"><ele>162.0</ele><time>2026-03-28T12:37:24.703Z</time></trkpt><trkpt lat="45.7185101" lon="10.7066776"><ele>162.0</ele><time>2026-03-28T12:37:25.703Z</time></trkpt><trkpt lat="45.7186598" lon="10.7068012"><ele>166.66666666666666</ele><time>2026-03-28T12:37:26.703Z</time></trkpt><trkpt lat="45.7188118" lon="10.7069235"><ele>171.33333333333331</ele><time>2026-03-28T12:37:27.704Z</time></trkpt><trkpt lat="45.7189623" lon="10.7070313"><ele>176.0</ele><time>2026-03-28T12:37:28.703Z</time></trkpt><trkpt lat="45.7191071" lon="10.7071634"><ele>176.0</ele><time>2026-03-28T12:37:29.703Z</time></trkpt><trkpt lat="45.7192501" lon="10.707289"><ele>176.0</ele><time>2026-03-28T12:37:30.704Z</time></trkpt><trkpt lat="45.719392" lon="10.7074163"><ele>176.0</ele><time>2026-03-28T12:37:31.704Z</time></trkpt><trkpt lat="45.7195364" lon="10.7075312"><ele>184.25</ele><time>2026-03-28T12:37:32.703Z</time></trkpt><trkpt lat="45.7196654" lon="10.7076134"><ele>192.5</ele><time>2026-03-28T12:37:33.704Z</time></trkpt><trkpt lat="45.7198017" lon="10.7076995"><ele>200.75</ele><time>2026-03-28T12:37:34.703Z</time></trkpt><trkpt lat="45.7199392" lon="10.7077767"><ele>209.0</ele><time>2026-03-28T12:37:35.703Z</time></trkpt><trkpt lat="45.7200767" lon="10.7078579"><ele>209.0</ele><time>2026-03-28T12:37:36.703Z</time></trkpt><trkpt lat="45.7202126" lon="10.707937"><ele>209.0</ele><time>2026-03-28T12:37:37.704Z</time></trkpt><trkpt lat="45.7203669" lon="10.7080157"><ele>209.0</ele><time>2026-03-28T12:37:38.703Z</time></trkpt><trkpt lat="45.7205092" lon="10.7080987"><ele>210.0</ele><time>2026-03-28T12:37:39.703Z</time></trkpt><trkpt lat="45.7206527" lon="10.7081785"><ele>211.0</ele><time>2026-03-28T12:37:40.704Z</time></trkpt><trkpt lat="45.7278553" lon="10.718148"><ele>181.25</ele><time>2026-03-28T12:38:42.704Z</time></trkpt><trkpt lat="45.727886" lon="10.7183202"><ele>151.5</ele><time>2026-03-28T12:38:43.704Z</time></trkpt><trkpt lat="45.7279136" lon="10.7184871"><ele>121.75</ele><time>2026-03-28T12:38:44.704Z</time></trkpt><trkpt lat="45.727925" lon="10.7186597"><ele>92.0</ele><time>2026-03-28T12:38:45.704Z</time></trkpt><trkpt lat="45.7279281" lon="10.7188379"><ele>92.0</ele><time>2026-03-28T12:38:46.704Z</time></trkpt><trkpt lat="45.7279282" lon="10.7190071"><ele>92.0</ele><time>2026-03-28T12:38:47.704Z</time></trkpt><trkpt lat="45.7279299" lon="10.7191782"><ele>92.0</ele><time>2026-03-28T12:38:48.703Z</time></trkpt><trkpt lat="45.7279341" lon="10.7193533"><ele>92.0</ele><time>2026-03-28T12:38:49.704Z</time></trkpt><trkpt lat="45.7279536" lon="10.7195213"><ele>88.75</ele><time>2026-03-28T12:38:50.704Z</time></trkpt><trkpt lat="45.7279934" lon="10.7196754"><ele>85.5</ele><time>2026-03-28T12:38:51.703Z</time></trkpt><trkpt lat="45.7280491" lon="10.7198209"><ele>82.25</ele><time>2026-03-28T12:38:52.703Z</time></trkpt><trkpt lat="45.7281225" lon="10.7199539"><ele>79.0</ele><time>2026-03-28T12:38:53.703Z</time></trkpt><trkpt lat="45.7282114" lon="10.7200636"><ele>79.0</ele><time>2026-03-28T12:38:54.704Z</time></trkpt><trkpt lat="45.7283104" lon="10.7201528"><ele>79.0</ele><time>2026-03-28T12:38:55.703Z</time></trkpt><trkpt lat="45.7284199" lon="10.7202211"><ele>79.0</ele><time>2026-03-28T12:38:56.704Z</time></trkpt><trkpt lat="45.728542" lon="10.7202742"><ele>79.0</ele><time>2026-03-28T12:38:57.704Z</time></trkpt><trkpt lat="45.7286656" lon="10.720323"><ele>82.80000000000001</ele><time>2026-03-28T12:38:58.703Z</time></trkpt><trkpt lat="45.7287812" lon="10.720364"><ele>86.60000000000001</ele><time>2026-03-28T12:38:59.703Z</time></trkpt><trkpt lat="45.7288771" lon="10.7204063"><ele>90.4</ele><time>2026-03-28T12:39:00.704Z</time></trkpt><trkpt lat="45.7289622" lon="10.7204506"><ele>94.2</ele><time>2026-03-28T12:39:01.703Z</time></trkpt><trkpt lat="45.7290361" lon="10.7205044"><ele>98.0</ele><time>2026-03-28T12:39:02.703Z</time></trkpt><trkpt lat="45.7291037" lon="10.720564"><ele>98.0</ele><time>2026-03-28T12:39:03.703Z</time></trkpt><trkpt lat="45.7291715" lon="10.7206283"><ele>98.0</ele><time>2026-03-28T12:39:04.704Z</time></trkpt><trkpt lat="45.7292403" lon="10.7207071"><ele>98.0</ele><time>2026-03-28T12:39:05.703Z</time></trkpt><trkpt lat="45.7293067" lon="10.720797"><ele>98.0</ele><time>2026-03-28T12:39:06.703Z</time></trkpt><trkpt lat="45.7293874" lon="10.7209095"><ele>98.0</ele><time>2026-03-28T12:39:07.703Z</time></trkpt><trkpt lat="45.7294474" lon="10.7210058"><ele>106.75</ele><time>2026-03-28T12:39:08.703Z</time></trkpt><trkpt lat="45.7295108" lon="10.7211128"><ele>115.5</ele><time>2026-03-28T12:39:09.703Z</time></trkpt><trkpt lat="45.7295794" lon="10.7212204"><ele>124.25</ele><time>2026-03-28T12:39:10.703Z</time></trkpt><trkpt lat="45.7296539" lon="10.7213768"><ele>133.0</ele><time>2026-03-28T12:39:11.704Z</time></trkpt><trkpt lat="45.7297335" lon="10.7215724"><ele>133.0</ele><time>2026-03-28T12:39:12.703Z</time></trkpt><trkpt lat="45.7298193" lon="10.721733"><ele>133.0</ele><time>2026-03-28T12:39:13.704Z</time></trkpt><trkpt lat="45.7299084" lon="10.7219143"><ele>133.0</ele><time>2026-03-28T12:39:14.704Z</time></trkpt><trkpt lat="45.7300057" lon="10.7221046"><ele>113.33333333333334</ele><time>2026-03-28T12:39:15.703Z</time></trkpt><trkpt lat="45.7301041" lon="10.7222974"><ele>93.66666666666667</ele><time>2026-03-28T12:39:16.703Z</time></trkpt><trkpt lat="45.7301939" lon="10.7224802"><ele>74.0</ele><time>2026-03-28T12:39:17.703Z</time></trkpt><trkpt lat="45.730283" lon="10.7226507"><ele>75.25</ele><time>2026-03-28T12:39:18.703Z</time></trkpt><trkpt lat="45.7303699" lon="10.7228244"><ele>76.5</ele><time>2026-03-28T12:39:19.704Z</time></trkpt><trkpt lat="45.7304536" lon="10.7229911"><ele>77.75</ele><time>2026-03-28T12:39:20.703Z</time></trkpt><trkpt lat="45.7305347" lon="10.7231494"><ele>79.0</ele><time>2026-03-28T12:39:21.703Z</time></trkpt><trkpt lat="45.7306101" lon="10.72331"><ele>79.0</ele><time>2026-03-28T12:39:22.704Z</time></trkpt><trkpt lat="45.7306853" lon="10.7234743"><ele>79.0</ele><time>2026-03-28T12:39:23.704Z</time></trkpt><trkpt lat="45.7307626" lon="10.7236395"><ele>79.0</ele><time>2026-03-28T12:39:24.703Z</time></trkpt><trkpt lat="45.7308366" lon="10.7238117"><ele>79.0</ele><time>2026-03-28T12:39:25.703Z</time></trkpt><trkpt lat="45.7309081" lon="10.7239866"><ele>79.5</ele><time>2026-03-28T12:39:26.703Z</time></trkpt><trkpt lat="45.7309762" lon="10.7241649"><ele>80.0</ele><time>2026-03-28T12:39:27.704Z</time></trkpt><trkpt lat="45.7310423" lon="10.7243446"><ele>80.5</ele><time>2026-03-28T12:39:28.704Z</time></trkpt><trkpt lat="45.7311055" lon="10.724523"><ele>81.0</ele><time>2026-03-28T12:39:29.703Z</time></trkpt><trkpt lat="45.7311647" lon="10.7246975"><ele>84.5</ele><time>2026-03-28T12:39:30.703Z</time></trkpt><trkpt lat="45.73122" lon="10.7248732"><ele>88.0</ele><time>2026-03-28T12:39:31.703Z</time></trkpt><trkpt lat="45.7312732" lon="10.7250377"><ele>91.5</ele><time>2026-03-28T12:39:32.704Z</time></trkpt><trkpt lat="45.7313264" lon="10.7251999"><ele>95.0</ele><time>2026-03-28T12:39:33.703Z</time></trkpt><trkpt lat="45.7313852" lon="10.725364"><ele>95.0</ele><time>2026-03-28T12:39:34.704Z</time></trkpt><trkpt lat="45.7314525" lon="10.7255248"><ele>95.0</ele><time>2026-03-28T12:39:35.704Z</time></trkpt><trkpt lat="45.7315246" lon="10.7256877"><ele>95.0</ele><time>2026-03-28T12:39:36.703Z</time></trkpt><trkpt lat="45.7316032" lon="10.7258506"><ele>95.0</ele><time>2026-03-28T12:39:37.703Z</time></trkpt><trkpt lat="45.7316835" lon="10.7260184"><ele>91.75</ele><time>2026-03-28T12:39:38.704Z</time></trkpt><trkpt lat="45.7317662" lon="10.7261858"><ele>88.5</ele><time>2026-03-28T12:39:39.704Z</time></trkpt><trkpt lat="45.7318528" lon="10.7263523"><ele>85.25</ele><time>2026-03-28T12:39:40.703Z</time></trkpt><trkpt lat="45.7319413" lon="10.7265233"><ele>82.0</ele><time>2026-03-28T12:39:41.702Z</time></trkpt><trkpt lat="45.7320272" lon="10.726699"><ele>87.0</ele><time>2026-03-28T12:39:42.703Z</time></trkpt><trkpt lat="45.7321141" lon="10.7268785"><ele>92.0</ele><time>2026-03-28T12:39:43.703Z</time></trkpt><trkpt lat="45.7322008" lon="10.7270526"><ele>97.0</ele><time>2026-03-28T12:39:44.703Z</time></trkpt><trkpt lat="45.7322874" lon="10.7272315"><ele>97.0</ele><time>2026-03-28T12:39:45.704Z</time></trkpt><trkpt lat="45.7323774" lon="10.7274158"><ele>97.0</ele><time>2026-03-28T12:39:46.704Z</time></trkpt><trkpt lat="45.7324681" lon="10.7276013"><ele>97.0</ele><time>2026-03-28T12:39:47.703Z</time></trkpt><trkpt lat="45.7325723" lon="10.7277818"><ele>91.0</ele><time>2026-03-28T12:39:48.703Z</time></trkpt><trkpt lat="45.73269" lon="10.7279492"><ele>85.0</ele><time>2026-03-28T12:39:49.702Z</time></trkpt><trkpt lat="45.7328094" lon="10.7281201"><ele>79.0</ele><time>2026-03-28T12:39:50.704Z</time></trkpt><trkpt lat="45.7329223" lon="10.7282845"><ele>83.0</ele><time>2026-03-28T12:39:51.703Z</time></trkpt><trkpt lat="45.7330257" lon="10.7284523"><ele>87.0</ele><time>2026-03-28T12:39:52.704Z</time></trkpt><trkpt lat="45.7331266" lon="10.728607"><ele>91.0</ele><time>2026-03-28T12:39:53.704Z</time></trkpt><trkpt lat="45.7332205" lon="10.7287765"><ele>91.0</ele><time>2026-03-28T12:39:54.703Z</time></trkpt><trkpt lat="45.7333064" lon="10.7289635"><ele>91.0</ele><time>2026-03-28T12:39:55.703Z</time></trkpt><trkpt lat="45.7333889" lon="10.7291682"><ele>91.0</ele><time>2026-03-28T12:39:56.702Z</time></trkpt><trkpt lat="45.7334666" lon="10.7293903"><ele>88.33333333333333</ele><time>2026-03-28T12:39:57.703Z</time></trkpt><trkpt lat="45.733538" lon="10.7296132"><ele>85.66666666666667</ele><time>2026-03-28T12:39:58.704Z</time></trkpt><trkpt lat="45.7336129" lon="10.7298225"><ele>83.0</ele><time>2026-03-28T12:39:59.704Z</time></trkpt><trkpt lat="45.7336985" lon="10.730012"><ele>83.66666666666667</ele><time>2026-03-28T12:40:00.703Z</time></trkpt><trkpt lat="45.7338039" lon="10.7301825"><ele>84.33333333333333</ele><time>2026-03-28T12:40:01.704Z</time></trkpt><trkpt lat="45.7339142" lon="10.7303555"><ele>85.0</ele><time>2026-03-28T12:40:02.704Z</time></trkpt><trkpt lat="45.7340376" lon="10.730535"><ele>85.0</ele><time>2026-03-28T12:40:03.704Z</time></trkpt><trkpt lat="45.7341589" lon="10.7307033"><ele>85.0</ele><time>2026-03-28T12:40:04.704Z</time></trkpt><trkpt lat="45.7342773" lon="10.7308628"><ele>85.0</ele><time>2026-03-28T12:40:05.703Z</time></trkpt><trkpt lat="45.7343904" lon="10.7310157"><ele>88.25</ele><time>2026-03-28T12:40:06.704Z</time></trkpt><trkpt lat="45.7344945" lon="10.7311668"><ele>91.5</ele><time>2026-03-28T12:40:07.704Z</time></trkpt><trkpt lat="45.7346019" lon="10.7313181"><ele>94.75</ele><time>2026-03-28T12:40:08.704Z</time></trkpt><trkpt lat="45.7347079" lon="10.7314676"><ele>98.0</ele><time>2026-03-28T12:40:09.704Z</time></trkpt><trkpt lat="45.7348136" lon="10.7316239"><ele>98.0</ele><time>2026-03-28T12:40:10.704Z</time></trkpt><trkpt lat="45.7349198" lon="10.731779"><ele>98.0</ele><time>2026-03-28T12:40:11.704Z</time></trkpt><trkpt lat="45.7354576" lon="10.7325522"><ele>98.25</ele><time>2026-03-28T12:40:17.704Z</time></trkpt><trkpt lat="45.735535" lon="10.7326973"><ele>98.5</ele><time>2026-03-28T12:40:18.703Z</time></trkpt><trkpt lat="45.7355946" lon="10.7328598"><ele>98.75</ele><time>2026-03-28T12:40:19.703Z</time></trkpt><trkpt lat="45.7356273" lon="10.733047"><ele>99.0</ele><time>2026-03-28T12:40:20.703Z</time></trkpt><trkpt lat="45.7356443" lon="10.7332554"><ele>99.0</ele><time>2026-03-28T12:40:21.704Z</time></trkpt><trkpt lat="45.7356579" lon="10.7334609"><ele>99.0</ele><time>2026-03-28T12:40:22.704Z</time></trkpt><trkpt lat="45.7356715" lon="10.733647"><ele>99.0</ele><time>2026-03-28T12:40:23.703Z</time></trkpt><trkpt lat="45.7356928" lon="10.7338204"><ele>99.0</ele><time>2026-03-28T12:40:24.703Z</time></trkpt><trkpt lat="45.7357224" lon="10.7339836"><ele>96.75</ele><time>2026-03-28T12:40:25.704Z</time></trkpt><trkpt lat="45.7357591" lon="10.7341429"><ele>94.5</ele><time>2026-03-28T12:40:26.704Z</time></trkpt><trkpt lat="45.7358074" lon="10.7342895"><ele>92.25</ele><time>2026-03-28T12:40:27.704Z</time></trkpt><trkpt lat="45.7358638" lon="10.7344245"><ele>90.0</ele><time>2026-03-28T12:40:28.703Z</time></trkpt><trkpt lat="45.7359278" lon="10.734555"><ele>87.75</ele><time>2026-03-28T12:40:29.704Z</time></trkpt><trkpt lat="45.7360022" lon="10.7346791"><ele>85.5</ele><time>2026-03-28T12:40:30.703Z</time></trkpt><trkpt lat="45.7360833" lon="10.7347982"><ele>83.25</ele><time>2026-03-28T12:40:31.703Z</time></trkpt><trkpt lat="45.7361764" lon="10.7349085"><ele>81.0</ele><time>2026-03-28T12:40:32.703Z</time></trkpt><trkpt lat="45.736278" lon="10.7350113"><ele>81.25</ele><time>2026-03-28T12:40:33.704Z</time></trkpt><trkpt lat="45.7363813" lon="10.7351152"><ele>81.5</ele><time>2026-03-28T12:40:34.703Z</time></trkpt><trkpt lat="45.7364999" lon="10.7352171"><ele>81.75</ele><time>2026-03-28T12:40:35.703Z</time></trkpt><trkpt lat="45.7366194" lon="10.73531"><ele>82.0</ele><time>2026-03-28T12:40:36.704Z</time></trkpt><trkpt lat="45.7367498" lon="10.735396"><ele>82.0</ele><time>2026-03-28T12:40:37.704Z</time></trkpt><trkpt lat="45.7368801" lon="10.7354874"><ele>82.0</ele><time>2026-03-28T12:40:38.703Z</time></trkpt><trkpt lat="45.7370103" lon="10.735567"><ele>82.0</ele><time>2026-03-28T12:40:39.704Z</time></trkpt><trkpt lat="45.7371349" lon="10.7356316"><ele>82.0</ele><time>2026-03-28T12:40:40.704Z</time></trkpt><trkpt lat="45.7372617" lon="10.7356758"><ele>83.75</ele><time>2026-03-28T12:40:41.703Z</time></trkpt><trkpt lat="45.7373938" lon="10.735703"><ele>85.5</ele><time>2026-03-28T12:40:42.703Z</time></trkpt><trkpt lat="45.7375241" lon="10.7357292"><ele>87.25</ele><time>2026-03-28T12:40:43.703Z</time></trkpt><trkpt lat="45.7376491" lon="10.7357498"><ele>89.0</ele><time>2026-03-28T12:40:44.704Z</time></trkpt><trkpt lat="45.7377909" lon="10.7357656"><ele>94.5</ele><time>2026-03-28T12:40:45.703Z</time></trkpt><trkpt lat="45.7379232" lon="10.7357913"><ele>100.0</ele><time>2026-03-28T12:40:46.703Z</time></trkpt><trkpt lat="45.7380805" lon="10.7358254"><ele>105.5</ele><time>2026-03-28T12:40:47.703Z</time></trkpt><trkpt lat="45.7382275" lon="10.7358799"><ele>111.0</ele><time>2026-03-28T12:40:48.703Z</time></trkpt><trkpt lat="45.7383668" lon="10.7359396"><ele>109.0</ele><time>2026-03-28T12:40:49.703Z</time></trkpt><trkpt lat="45.7427958" lon="10.7404204"><ele>109.0</ele><time>2026-03-28T12:41:21.704Z</time></trkpt><trkpt lat="45.7429429" lon="10.7405737"><ele>109.0</ele><time>2026-03-28T12:41:22.703Z</time></trkpt><trkpt lat="45.7430412" lon="10.740712"><ele>109.0</ele><time>2026-03-28T12:41:23.704Z</time></trkpt><trkpt lat="45.743162" lon="10.7408753"><ele>109.0</ele><time>2026-03-28T12:41:24.703Z</time></trkpt><trkpt lat="45.743292" lon="10.7410195"><ele>109.0</ele><time>2026-03-28T12:41:25.703Z</time></trkpt><trkpt lat="45.7434264" lon="10.7411666"><ele>109.0</ele><time>2026-03-28T12:41:26.703Z</time></trkpt><trkpt lat="45.7435599" lon="10.7412966"><ele>118.5</ele><time>2026-03-28T12:41:27.703Z</time></trkpt><trkpt lat="45.7436934" lon="10.7414265"><ele>128.0</ele><time>2026-03-28T12:41:28.703Z</time></trkpt><trkpt lat="45.7620208" lon="10.7539321"><ele>128.0</ele><time>2026-03-28T12:43:35.704Z</time></trkpt><trkpt lat="45.7621299" lon="10.7540657"><ele>128.0</ele><time>2026-03-28T12:43:36.704Z</time></trkpt><trkpt lat="45.7622366" lon="10.7542035"><ele>128.0</ele><time>2026-03-28T12:43:37.703Z</time></trkpt><trkpt lat="45.7623384" lon="10.7543412"><ele>128.0</ele><time>2026-03-28T12:43:38.703Z</time></trkpt><trkpt lat="45.7624324" lon="10.7544798"><ele>189.0</ele><time>2026-03-28T12:43:39.703Z</time></trkpt><trkpt lat="45.7625179" lon="10.7546139"><ele>250.0</ele><time>2026-03-28T12:43:40.703Z</time></trkpt><trkpt lat="45.7625937" lon="10.7547481"><ele>311.0</ele><time>2026-03-28T12:43:41.704Z</time></trkpt><trkpt lat="45.7626598" lon="10.7548924"><ele>372.0</ele><time>2026-03-28T12:43:42.704Z</time></trkpt><trkpt lat="45.7627147" lon="10.7550478"><ele>377.5</ele><time>2026-03-28T12:43:43.704Z</time></trkpt><trkpt lat="45.7627719" lon="10.7552044"><ele>383.0</ele><time>2026-03-28T12:43:44.703Z</time></trkpt><trkpt lat="45.7628302" lon="10.7553746"><ele>388.5</ele><time>2026-03-28T12:43:45.703Z</time></trkpt><trkpt lat="45.7628945" lon="10.7555437"><ele>394.0</ele><time>2026-03-28T12:43:46.703Z</time></trkpt><trkpt lat="45.7629579" lon="10.7557123"><ele>394.0</ele><time>2026-03-28T12:43:47.703Z</time></trkpt><trkpt lat="45.7630291" lon="10.7558817"><ele>394.0</ele><time>2026-03-28T12:43:48.704Z</time></trkpt><trkpt lat="45.7631123" lon="10.7560494"><ele>394.0</ele><time>2026-03-28T12:43:49.703Z</time></trkpt><trkpt lat="45.7632074" lon="10.7562156"><ele>394.0</ele><time>2026-03-28T12:43:50.703Z</time></trkpt><trkpt lat="45.7633112" lon="10.756376"><ele>389.6666666666667</ele><time>2026-03-28T12:43:51.703Z</time></trkpt><trkpt lat="45.7634219" lon="10.7565353"><ele>385.33333333333337</ele><time>2026-03-28T12:43:52.703Z</time></trkpt><trkpt lat="45.763534" lon="10.756697"><ele>381.0</ele><time>2026-03-28T12:43:53.703Z</time></trkpt><trkpt lat="45.7636448" lon="10.7568565"><ele>386.25</ele><time>2026-03-28T12:43:54.703Z</time></trkpt><trkpt lat="45.7637482" lon="10.7570138"><ele>391.5</ele><time>2026-03-28T12:43:55.702Z</time></trkpt><trkpt lat="45.7638447" lon="10.7571589"><ele>396.75</ele><time>2026-03-28T12:43:56.703Z</time></trkpt><trkpt lat="45.7639363" lon="10.7573093"><ele>402.0</ele><time>2026-03-28T12:43:57.704Z</time></trkpt><trkpt lat="45.7640215" lon="10.7574681"><ele>402.0</ele><time>2026-03-28T12:43:58.704Z</time></trkpt><trkpt lat="45.7640986" lon="10.7576329"><ele>402.0</ele><time>2026-03-28T12:43:59.703Z</time></trkpt><trkpt lat="45.764172" lon="10.7577935"><ele>402.0</ele><time>2026-03-28T12:44:00.703Z</time></trkpt><trkpt lat="45.7642501" lon="10.7579434"><ele>402.0</ele><time>2026-03-28T12:44:01.703Z</time></trkpt><trkpt lat="45.7643396" lon="10.7580777"><ele>408.25</ele><time>2026-03-28T12:44:02.703Z</time></trkpt><trkpt lat="45.7644353" lon="10.7582028"><ele>414.5</ele><time>2026-03-28T12:44:03.703Z</time></trkpt><trkpt lat="45.7645356" lon="10.7583166"><ele>420.75</ele><time>2026-03-28T12:44:04.704Z</time></trkpt><trkpt lat="45.7646368" lon="10.7584278"><ele>427.0</ele><time>2026-03-28T12:44:05.704Z</time></trkpt><trkpt lat="45.7647417" lon="10.7585323"><ele>428.75</ele><time>2026-03-28T12:44:06.704Z</time></trkpt><trkpt lat="45.7648516" lon="10.7586242"><ele>430.5</ele><time>2026-03-28T12:44:07.703Z</time></trkpt><trkpt lat="45.7649664" lon="10.7586968"><ele>432.25</ele><time>2026-03-28T12:44:08.704Z</time></trkpt><trkpt lat="45.7650835" lon="10.7587535"><ele>434.0</ele><time>2026-03-28T12:44:09.703Z</time></trkpt><trkpt lat="45.7652" lon="10.758795"><ele>434.0</ele><time>2026-03-28T12:44:10.703Z</time></trkpt><trkpt lat="45.765311" lon="10.758837"><ele>434.0</ele><time>2026-03-28T12:44:11.704Z</time></trkpt><trkpt lat="45.7654175" lon="10.7589011"><ele>434.0</ele><time>2026-03-28T12:44:12.703Z</time></trkpt><trkpt lat="45.7655194" lon="10.7589902"><ele>434.0</ele><time>2026-03-28T12:44:13.703Z</time></trkpt><trkpt lat="45.7656143" lon="10.7591054"><ele>434.0</ele><time>2026-03-28T12:44:14.703Z</time></trkpt><trkpt lat="45.765705" lon="10.7592234"><ele>434.0</ele><time>2026-03-28T12:44:15.703Z</time></trkpt><trkpt lat="45.7657981" lon="10.7593286"><ele>434.0</ele><time>2026-03-28T12:44:16.703Z</time></trkpt><trkpt lat="45.7658995" lon="10.759417"><ele>434.0</ele><time>2026-03-28T12:44:17.703Z</time></trkpt><trkpt lat="45.7660052" lon="10.7594942"><ele>437.75</ele><time>2026-03-28T12:44:18.703Z</time></trkpt><trkpt lat="45.766108" lon="10.7595742"><ele>441.5</ele><time>2026-03-28T12:44:19.704Z</time></trkpt><trkpt lat="45.7662013" lon="10.7596683"><ele>445.25</ele><time>2026-03-28T12:44:20.704Z</time></trkpt><trkpt lat="45.7662869" lon="10.7597805"><ele>449.0</ele><time>2026-03-28T12:44:21.704Z</time></trkpt><trkpt lat="45.766365" lon="10.7598964"><ele>449.0</ele><time>2026-03-28T12:44:22.703Z</time></trkpt><trkpt lat="45.7664507" lon="10.7600022"><ele>449.0</ele><time>2026-03-28T12:44:23.704Z</time></trkpt><trkpt lat="45.7665496" lon="10.7600965"><ele>449.0</ele><time>2026-03-28T12:44:24.703Z</time></trkpt><trkpt lat="45.7666599" lon="10.7601762"><ele>449.0</ele><time>2026-03-28T12:44:25.703Z</time></trkpt><trkpt lat="45.7667748" lon="10.7602584"><ele>448.25</ele><time>2026-03-28T12:44:26.703Z</time></trkpt><trkpt lat="45.7668842" lon="10.7603585"><ele>447.5</ele><time>2026-03-28T12:44:27.703Z</time></trkpt><trkpt lat="45.7669909" lon="10.760464"><ele>446.75</ele><time>2026-03-28T12:44:28.703Z</time></trkpt><trkpt lat="45.7670973" lon="10.7605714"><ele>446.0</ele><time>2026-03-28T12:44:29.704Z</time></trkpt><trkpt lat="45.7672047" lon="10.760676"><ele>446.0</ele><time>2026-03-28T12:44:30.703Z</time></trkpt><trkpt lat="45.7673151" lon="10.7607717"><ele>446.0</ele><time>2026-03-28T12:44:31.703Z</time></trkpt><trkpt lat="45.767423" lon="10.7608636"><ele>446.0</ele><time>2026-03-28T12:44:32.704Z</time></trkpt><trkpt lat="45.7675327" lon="10.7609626"><ele>446.0</ele><time>2026-03-28T12:44:33.703Z</time></trkpt><trkpt lat="45.7676339" lon="10.7610697"><ele>446.0</ele><time>2026-03-28T12:44:34.704Z</time></trkpt><trkpt lat="45.7677251" lon="10.761189"><ele>446.0</ele><time>2026-03-28T12:44:35.704Z</time></trkpt><trkpt lat="45.7678056" lon="10.7613162"><ele>446.0</ele><time>2026-03-28T12:44:36.704Z</time></trkpt><trkpt lat="45.7678824" lon="10.7614394"><ele>446.0</ele><time>2026-03-28T12:44:37.706Z</time></trkpt><trkpt lat="45.7679605" lon="10.7615585"><ele>446.0</ele><time>2026-03-28T12:44:38.703Z</time></trkpt><trkpt lat="45.7680444" lon="10.7616643"><ele>446.0</ele><time>2026-03-28T12:44:39.704Z</time></trkpt><trkpt lat="45.7681309" lon="10.761755"><ele>446.0</ele><time>2026-03-28T12:44:40.704Z</time></trkpt><trkpt lat="45.7682237" lon="10.7618492"><ele>446.0</ele><time>2026-03-28T12:44:41.705Z</time></trkpt><trkpt lat="45.7683228" lon="10.7619412"><ele>446.0</ele><time>2026-03-28T12:44:42.704Z</time></trkpt><trkpt lat="45.7684185" lon="10.7620379"><ele>446.0</ele><time>2026-03-28T12:44:43.703Z</time></trkpt><trkpt lat="45.7685118" lon="10.762134"><ele>446.0</ele><time>2026-03-28T12:44:44.703Z</time></trkpt><trkpt lat="45.7686089" lon="10.762231"><ele>446.0</ele><time>2026-03-28T12:44:45.703Z</time></trkpt><trkpt lat="45.7687089" lon="10.762327"><ele>432.5</ele><time>2026-03-28T12:44:46.704Z</time></trkpt><trkpt lat="45.7688191" lon="10.7624385"><ele>419.0</ele><time>2026-03-28T12:44:47.703Z</time></trkpt><trkpt lat="45.768931" lon="10.7625578"><ele>405.5</ele><time>2026-03-28T12:44:48.703Z</time></trkpt><trkpt lat="45.7690521" lon="10.7626823"><ele>392.0</ele><time>2026-03-28T12:44:49.703Z</time></trkpt><trkpt lat="45.7691751" lon="10.7628086"><ele>392.0</ele><time>2026-03-28T12:44:50.704Z</time></trkpt><trkpt lat="45.7693027" lon="10.762938"><ele>392.0</ele><time>2026-03-28T12:44:51.704Z</time></trkpt><trkpt lat="45.7694286" lon="10.7630681"><ele>392.0</ele><time>2026-03-28T12:44:52.705Z</time></trkpt><trkpt lat="45.7695554" lon="10.7632022"><ele>389.66666666666663</ele><time>2026-03-28T12:44:53.704Z</time></trkpt><trkpt lat="45.769682" lon="10.7633323"><ele>387.33333333333337</ele><time>2026-03-28T12:44:54.704Z</time></trkpt><trkpt lat="45.7698132" lon="10.7634644"><ele>385.0</ele><time>2026-03-28T12:44:55.703Z</time></trkpt><trkpt lat="45.7699363" lon="10.7635958"><ele>385.0</ele><time>2026-03-28T12:44:56.705Z</time></trkpt><trkpt lat="45.7700651" lon="10.7637069"><ele>385.0</ele><time>2026-03-28T12:44:57.704Z</time></trkpt><trkpt lat="45.7702034" lon="10.7638276"><ele>385.0</ele><time>2026-03-28T12:44:58.704Z</time></trkpt><trkpt lat="45.7703454" lon="10.7639227"><ele>385.0</ele><time>2026-03-28T12:44:59.705Z</time></trkpt><trkpt lat="45.7704838" lon="10.7640198"><ele>385.0</ele><time>2026-03-28T12:45:00.704Z</time></trkpt><trkpt lat="45.7706239" lon="10.7641106"><ele>385.0</ele><time>2026-03-28T12:45:01.705Z</time></trkpt><trkpt lat="45.7764687" lon="10.7692806"><ele>385.0</ele><time>2026-03-28T12:45:47.704Z</time></trkpt><trkpt lat="45.7765896" lon="10.7694055"><ele>385.0</ele><time>2026-03-28T12:45:48.704Z</time></trkpt><trkpt lat="45.7767241" lon="10.7695287"><ele>385.0</ele><time>2026-03-28T12:45:49.704Z</time></trkpt><trkpt lat="45.7768679" lon="10.7696696"><ele>385.0</ele><time>2026-03-28T12:45:50.705Z</time></trkpt><trkpt lat="45.7769994" lon="10.7698047"><ele>385.0</ele><time>2026-03-28T12:45:51.704Z</time></trkpt><trkpt lat="45.7771207" lon="10.7699385"><ele>385.0</ele><time>2026-03-28T12:45:52.705Z</time></trkpt><trkpt lat="45.7772365" lon="10.7700606"><ele>385.0</ele><time>2026-03-28T12:45:53.704Z</time></trkpt><trkpt lat="45.7773547" lon="10.7702155"><ele>385.0</ele><time>2026-03-28T12:45:54.704Z</time></trkpt><trkpt lat="45.7774726" lon="10.7703385"><ele>385.0</ele><time>2026-03-28T12:45:55.705Z</time></trkpt><trkpt lat="45.7775921" lon="10.7704989"><ele>304.0</ele><time>2026-03-28T12:45:56.705Z</time></trkpt><trkpt lat="45.777711" lon="10.7706685"><ele>223.0</ele><time>2026-03-28T12:45:57.704Z</time></trkpt><trkpt lat="45.77783" lon="10.7708401"><ele>142.0</ele><time>2026-03-28T12:45:58.704Z</time></trkpt><trkpt lat="45.7779486" lon="10.770996"><ele>124.33333333333334</ele><time>2026-03-28T12:45:59.705Z</time></trkpt><trkpt lat="45.7780583" lon="10.7711871"><ele>106.66666666666667</ele><time>2026-03-28T12:46:00.704Z</time></trkpt><trkpt lat="45.7781831" lon="10.7713665"><ele>89.0</ele><time>2026-03-28T12:46:01.705Z</time></trkpt><trkpt lat="45.7783004" lon="10.7715383"><ele>89.0</ele><time>2026-03-28T12:46:02.704Z</time></trkpt><trkpt lat="45.7784186" lon="10.7716947"><ele>89.0</ele><time>2026-03-28T12:46:03.705Z</time></trkpt><trkpt lat="45.7785285" lon="10.7718573"><ele>89.0</ele><time>2026-03-28T12:46:04.705Z</time></trkpt><trkpt lat="45.7786401" lon="10.7720127"><ele>92.33333333333334</ele><time>2026-03-28T12:46:05.704Z</time></trkpt><trkpt lat="45.7787526" lon="10.7721737"><ele>95.66666666666667</ele><time>2026-03-28T12:46:06.704Z</time></trkpt><trkpt lat="45.7788758" lon="10.7723316"><ele>99.0</ele><time>2026-03-28T12:46:07.704Z</time></trkpt><trkpt lat="45.7789981" lon="10.7725006"><ele>99.0</ele><time>2026-03-28T12:46:08.704Z</time></trkpt><trkpt lat="45.7791408" lon="10.7726674"><ele>99.0</ele><time>2026-03-28T12:46:09.705Z</time></trkpt><trkpt lat="45.7792616" lon="10.7728349"><ele>99.0</ele><time>2026-03-28T12:46:10.705Z</time></trkpt><trkpt lat="45.7793611" lon="10.772991"><ele>102.66666666666666</ele><time>2026-03-28T12:46:11.705Z</time></trkpt><trkpt lat="45.7794965" lon="10.773159"><ele>106.33333333333333</ele><time>2026-03-28T12:46:12.703Z</time></trkpt><trkpt lat="45.779631" lon="10.7733173"><ele>110.0</ele><time>2026-03-28T12:46:13.705Z</time></trkpt><trkpt lat="45.7797617" lon="10.7734656"><ele>110.33333333333333</ele><time>2026-03-28T12:46:14.704Z</time></trkpt><trkpt lat="45.7799044" lon="10.7735986"><ele>110.66666666666666</ele><time>2026-03-28T12:46:15.705Z</time></trkpt><trkpt lat="45.7800622" lon="10.7737359"><ele>111.0</ele><time>2026-03-28T12:46:16.704Z</time></trkpt><trkpt lat="45.7802259" lon="10.7738751"><ele>111.0</ele><time>2026-03-28T12:46:17.704Z</time></trkpt><trkpt lat="45.7803793" lon="10.7740165"><ele>111.0</ele><time>2026-03-28T12:46:18.705Z</time></trkpt><trkpt lat="45.7805214" lon="10.7741513"><ele>111.0</ele><time>2026-03-28T12:46:19.704Z</time></trkpt><trkpt lat="45.7806385" lon="10.774281"><ele>110.0</ele><time>2026-03-28T12:46:20.704Z</time></trkpt><trkpt lat="45.7807432" lon="10.7744256"><ele>109.0</ele><time>2026-03-28T12:46:21.705Z</time></trkpt><trkpt lat="45.7808153" lon="10.7745521"><ele>108.0</ele><time>2026-03-28T12:46:22.704Z</time></trkpt><trkpt lat="45.7808942" lon="10.7747414"><ele>107.0</ele><time>2026-03-28T12:46:23.705Z</time></trkpt><trkpt lat="45.7809627" lon="10.7749138"><ele>111.0</ele><time>2026-03-28T12:46:24.704Z</time></trkpt><trkpt lat="45.7810331" lon="10.775128"><ele>115.0</ele><time>2026-03-28T12:46:25.704Z</time></trkpt><trkpt lat="45.7811071" lon="10.7753571"><ele>119.0</ele><time>2026-03-28T12:46:26.704Z</time></trkpt><trkpt lat="45.7811752" lon="10.7755766"><ele>119.0</ele><time>2026-03-28T12:46:27.704Z</time></trkpt><trkpt lat="45.7812322" lon="10.775772"><ele>119.0</ele><time>2026-03-28T12:46:28.705Z</time></trkpt><trkpt lat="45.781284" lon="10.7759597"><ele>119.0</ele><time>2026-03-28T12:46:29.705Z</time></trkpt><trkpt lat="45.7813426" lon="10.7761389"><ele>119.0</ele><time>2026-03-28T12:46:30.705Z</time></trkpt><trkpt lat="45.7814161" lon="10.7763113"><ele>112.75</ele><time>2026-03-28T12:46:31.705Z</time></trkpt><trkpt lat="45.7814953" lon="10.7764692"><ele>106.5</ele><time>2026-03-28T12:46:32.705Z</time></trkpt><trkpt lat="45.781552" lon="10.776604"><ele>100.25</ele><time>2026-03-28T12:46:33.705Z</time></trkpt><trkpt lat="45.7816357" lon="10.7767295"><ele>94.0</ele><time>2026-03-28T12:46:34.704Z</time></trkpt><trkpt lat="45.7817398" lon="10.7768699"><ele>91.0</ele><time>2026-03-28T12:46:35.705Z</time></trkpt><trkpt lat="45.7818584" lon="10.7769738"><ele>88.0</ele><time>2026-03-28T12:46:36.704Z</time></trkpt><trkpt lat="45.7819969" lon="10.7770642"><ele>85.0</ele><time>2026-03-28T12:46:37.705Z</time></trkpt><trkpt lat="45.7821516" lon="10.7771438"><ele>85.0</ele><time>2026-03-28T12:46:38.704Z</time></trkpt><trkpt lat="45.7822906" lon="10.7772917"><ele>85.0</ele><time>2026-03-28T12:46:39.705Z</time></trkpt><trkpt lat="45.7824522" lon="10.7774247"><ele>85.0</ele><time>2026-03-28T12:46:40.704Z</time></trkpt><trkpt lat="45.7826032" lon="10.7775438"><ele>86.33333333333333</ele><time>2026-03-28T12:46:41.705Z</time></trkpt><trkpt lat="45.7827643" lon="10.7776523"><ele>87.66666666666667</ele><time>2026-03-28T12:46:42.705Z</time></trkpt><trkpt lat="45.7829345" lon="10.7777213"><ele>89.0</ele><time>2026-03-28T12:46:43.705Z</time></trkpt><trkpt lat="45.7831106" lon="10.7777723"><ele>89.0</ele><time>2026-03-28T12:46:44.705Z</time></trkpt><trkpt lat="45.7832976" lon="10.7776721"><ele>89.0</ele><time>2026-03-28T12:46:45.705Z</time></trkpt><trkpt lat="45.7834687" lon="10.7776856"><ele>89.0</ele><time>2026-03-28T12:46:46.704Z</time></trkpt><trkpt lat="45.7836362" lon="10.7776929"><ele>91.0</ele><time>2026-03-28T12:46:47.704Z</time></trkpt><trkpt lat="45.783802" lon="10.7776936"><ele>93.0</ele><time>2026-03-28T12:46:48.705Z</time></trkpt><trkpt lat="45.7839647" lon="10.7776791"><ele>95.0</ele><time>2026-03-28T12:46:49.704Z</time></trkpt><trkpt lat="45.7841244" lon="10.7776379"><ele>95.0</ele><time>2026-03-28T12:46:50.704Z</time></trkpt><trkpt lat="45.7842823" lon="10.7775747"><ele>95.0</ele><time>2026-03-28T12:46:51.705Z</time></trkpt><trkpt lat="45.7844416" lon="10.7775"><ele>95.0</ele><time>2026-03-28T12:46:52.704Z</time></trkpt><trkpt lat="45.7846042" lon="10.7774282"><ele>95.0</ele><time>2026-03-28T12:46:53.704Z</time></trkpt><trkpt lat="45.7847681" lon="10.7773761"><ele>95.0</ele><time>2026-03-28T12:46:54.705Z</time></trkpt><trkpt lat="45.7849323" lon="10.7773261"><ele>95.0</ele><time>2026-03-28T12:46:55.704Z</time></trkpt><trkpt lat="45.7850967" lon="10.7772804"><ele>173.5</ele><time>2026-03-28T12:46:56.704Z</time></trkpt><trkpt lat="45.7852601" lon="10.7772243"><ele>252.0</ele><time>2026-03-28T12:46:57.704Z</time></trkpt><trkpt lat="45.7937197" lon="10.7800495"><ele>243.5</ele><time>2026-03-28T12:47:57.704Z</time></trkpt><trkpt lat="45.7938226" lon="10.7805805"><ele>235.0</ele><time>2026-03-28T12:47:58.704Z</time></trkpt><trkpt lat="45.7939167" lon="10.7812422"><ele>235.0</ele><time>2026-03-28T12:47:59.704Z</time></trkpt><trkpt lat="45.7940514" lon="10.7813656"><ele>235.0</ele><time>2026-03-28T12:48:00.704Z</time></trkpt><trkpt lat="45.7941759" lon="10.7815241"><ele>235.0</ele><time>2026-03-28T12:48:01.704Z</time></trkpt><trkpt lat="45.7942925" lon="10.7816399"><ele>221.25</ele><time>2026-03-28T12:48:02.704Z</time></trkpt><trkpt lat="45.7944062" lon="10.7817532"><ele>207.5</ele><time>2026-03-28T12:48:03.705Z</time></trkpt><trkpt lat="45.7945235" lon="10.7818741"><ele>193.75</ele><time>2026-03-28T12:48:04.705Z</time></trkpt><trkpt lat="45.7946388" lon="10.7819962"><ele>180.0</ele><time>2026-03-28T12:48:05.704Z</time></trkpt><trkpt lat="45.7947536" lon="10.7821004"><ele>180.0</ele><time>2026-03-28T12:48:06.705Z</time></trkpt><trkpt lat="45.7948762" lon="10.7821886"><ele>180.0</ele><time>2026-03-28T12:48:07.704Z</time></trkpt><trkpt lat="45.7950039" lon="10.7822635"><ele>180.0</ele><time>2026-03-28T12:48:08.704Z</time></trkpt><trkpt lat="45.7951376" lon="10.7823232"><ele>180.0</ele><time>2026-03-28T12:48:09.705Z</time></trkpt><trkpt lat="45.7952782" lon="10.782375"><ele>180.0</ele><time>2026-03-28T12:48:10.705Z</time></trkpt><trkpt lat="45.7954233" lon="10.7824259"><ele>180.0</ele><time>2026-03-28T12:48:11.705Z</time></trkpt><trkpt lat="45.7955669" lon="10.782483"><ele>180.0</ele><time>2026-03-28T12:48:12.705Z</time></trkpt><trkpt lat="45.7957146" lon="10.7825568"><ele>180.0</ele><time>2026-03-28T12:48:13.704Z</time></trkpt><trkpt lat="45.7958574" lon="10.7826345"><ele>180.0</ele><time>2026-03-28T12:48:14.704Z</time></trkpt><trkpt lat="45.7959861" lon="10.7827214"><ele>180.0</ele><time>2026-03-28T12:48:15.705Z</time></trkpt><trkpt lat="45.7961043" lon="10.7828041"><ele>180.0</ele><time>2026-03-28T12:48:16.704Z</time></trkpt><trkpt lat="45.7962244" lon="10.782864"><ele>180.0</ele><time>2026-03-28T12:48:17.705Z</time></trkpt><trkpt lat="45.796351" lon="10.7828873"><ele>180.0</ele><time>2026-03-28T12:48:18.705Z</time></trkpt><trkpt lat="45.7964818" lon="10.7828793"><ele>180.0</ele><time>2026-03-28T12:48:19.704Z</time></trkpt><trkpt lat="45.796605" lon="10.7828696"><ele>180.0</ele><time>2026-03-28T12:48:20.704Z</time></trkpt><trkpt lat="45.7967185" lon="10.7828575"><ele>180.0</ele><time>2026-03-28T12:48:21.705Z</time></trkpt><trkpt lat="45.7968203" lon="10.7828522"><ele>180.0</ele><time>2026-03-28T12:48:22.704Z</time></trkpt><trkpt lat="45.7969178" lon="10.7828423"><ele>180.0</ele><time>2026-03-28T12:48:23.705Z</time></trkpt><trkpt lat="45.7970172" lon="10.7828463"><ele>180.0</ele><time>2026-03-28T12:48:24.704Z</time></trkpt><trkpt lat="45.7971148" lon="10.7828618"><ele>180.0</ele><time>2026-03-28T12:48:25.705Z</time></trkpt><trkpt lat="45.797211" lon="10.7828837"><ele>154.5</ele><time>2026-03-28T12:48:26.705Z</time></trkpt><trkpt lat="45.7973202" lon="10.7829072"><ele>129.0</ele><time>2026-03-28T12:48:27.704Z</time></trkpt><trkpt lat="45.79747" lon="10.7829253"><ele>103.5</ele><time>2026-03-28T12:48:28.704Z</time></trkpt><trkpt lat="45.7975782" lon="10.7829224"><ele>78.0</ele><time>2026-03-28T12:48:29.704Z</time></trkpt><trkpt lat="45.7976805" lon="10.7829165"><ele>78.0</ele><time>2026-03-28T12:48:30.704Z</time></trkpt><trkpt lat="45.7977873" lon="10.7828953"><ele>78.0</ele><time>2026-03-28T12:48:31.705Z</time></trkpt><trkpt lat="45.7978916" lon="10.7828744"><ele>78.0</ele><time>2026-03-28T12:48:32.705Z</time></trkpt><trkpt lat="45.7979994" lon="10.7828631"><ele>78.0</ele><time>2026-03-28T12:48:33.704Z</time></trkpt><trkpt lat="45.7981113" lon="10.782873"><ele>78.0</ele><time>2026-03-28T12:48:34.704Z</time></trkpt><trkpt lat="45.7982222" lon="10.7829007"><ele>78.0</ele><time>2026-03-28T12:48:35.705Z</time></trkpt><trkpt lat="45.7983374" lon="10.7829444"><ele>78.0</ele><time>2026-03-28T12:48:36.704Z</time></trkpt><trkpt lat="45.7984542" lon="10.7830022"><ele>78.0</ele><time>2026-03-28T12:48:37.705Z</time></trkpt><trkpt lat="45.7985692" lon="10.7830647"><ele>78.0</ele><time>2026-03-28T12:48:38.705Z</time></trkpt><trkpt lat="45.7986828" lon="10.7831222"><ele>78.2</ele><time>2026-03-28T12:48:39.705Z</time></trkpt><trkpt lat="45.798791" lon="10.7831778"><ele>78.4</ele><time>2026-03-28T12:48:40.705Z</time></trkpt><trkpt lat="45.798893" lon="10.7832277"><ele>78.60000000000001</ele><time>2026-03-28T12:48:41.705Z</time></trkpt><trkpt lat="45.7989957" lon="10.7832637"><ele>78.8</ele><time>2026-03-28T12:48:42.704Z</time></trkpt><trkpt lat="45.7990899" lon="10.7832851"><ele>79.0</ele><time>2026-03-28T12:48:43.705Z</time></trkpt><trkpt lat="45.7991851" lon="10.7832945"><ele>79.0</ele><time>2026-03-28T12:48:44.704Z</time></trkpt><trkpt lat="45.7992841" lon="10.7832987"><ele>79.0</ele><time>2026-03-28T12:48:45.705Z</time></trkpt><trkpt lat="45.7993879" lon="10.7833028"><ele>79.0</ele><time>2026-03-28T12:48:46.705Z</time></trkpt><trkpt lat="45.7999484" lon="10.7833718"><ele>81.6</ele><time>2026-03-28T12:48:50.704Z</time></trkpt><trkpt lat="45.8000281" lon="10.7833776"><ele>84.2</ele><time>2026-03-28T12:48:51.704Z</time></trkpt><trkpt lat="45.8001385" lon="10.7834058"><ele>86.8</ele><time>2026-03-28T12:48:52.704Z</time></trkpt><trkpt lat="45.8002408" lon="10.7834745"><ele>89.39999999999999</ele><time>2026-03-28T12:48:53.704Z</time></trkpt><trkpt lat="45.8003274" lon="10.7835799"><ele>92.0</ele><time>2026-03-28T12:48:54.704Z</time></trkpt><trkpt lat="45.8003934" lon="10.7837226"><ele>92.0</ele><time>2026-03-28T12:48:55.705Z</time></trkpt><trkpt lat="45.8004433" lon="10.7838815"><ele>92.0</ele><time>2026-03-28T12:48:56.704Z</time></trkpt><trkpt lat="45.8004851" lon="10.7840424"><ele>92.0</ele><time>2026-03-28T12:48:57.705Z</time></trkpt><trkpt lat="45.8005207" lon="10.7841997"><ele>92.0</ele><time>2026-03-28T12:48:58.704Z</time></trkpt><trkpt lat="45.8005603" lon="10.7843433"><ele>90.0</ele><time>2026-03-28T12:48:59.705Z</time></trkpt><trkpt lat="45.8005947" lon="10.7844779"><ele>88.0</ele><time>2026-03-28T12:49:00.704Z</time></trkpt><trkpt lat="45.8006288" lon="10.7846092"><ele>86.0</ele><time>2026-03-28T12:49:01.705Z</time></trkpt><trkpt lat="45.800665" lon="10.7847414"><ele>84.0</ele><time>2026-03-28T12:49:02.705Z</time></trkpt><trkpt lat="45.8007017" lon="10.7848695"><ele>82.0</ele><time>2026-03-28T12:49:03.705Z</time></trkpt><trkpt lat="45.8007413" lon="10.7849877"><ele>82.0</ele><time>2026-03-28T12:49:04.705Z</time></trkpt><trkpt lat="45.8007799" lon="10.7850964"><ele>82.0</ele><time>2026-03-28T12:49:05.704Z</time></trkpt><trkpt lat="45.8008219" lon="10.7851991"><ele>82.0</ele><time>2026-03-28T12:49:06.705Z</time></trkpt><trkpt lat="45.8008714" lon="10.7852977"><ele>82.0</ele><time>2026-03-28T12:49:07.705Z</time></trkpt><trkpt lat="45.8009265" lon="10.7853945"><ele>82.0</ele><time>2026-03-28T12:49:08.704Z</time></trkpt><trkpt lat="45.8009912" lon="10.7854949"><ele>82.0</ele><time>2026-03-28T12:49:09.704Z</time></trkpt><trkpt lat="45.8010665" lon="10.7855955"><ele>82.6</ele><time>2026-03-28T12:49:10.704Z</time></trkpt><trkpt lat="45.8011491" lon="10.7856978"><ele>83.19999999999999</ele><time>2026-03-28T12:49:11.705Z</time></trkpt><trkpt lat="45.8012331" lon="10.7857909"><ele>83.8</ele><time>2026-03-28T12:49:12.705Z</time></trkpt><trkpt lat="45.8013147" lon="10.7858786"><ele>84.4</ele><time>2026-03-28T12:49:13.704Z</time></trkpt><trkpt lat="45.8013966" lon="10.7859717"><ele>85.0</ele><time>2026-03-28T12:49:14.705Z</time></trkpt><trkpt lat="45.8014813" lon="10.7860654"><ele>85.0</ele><time>2026-03-28T12:49:15.704Z</time></trkpt><trkpt lat="45.8015697" lon="10.7861618"><ele>85.0</ele><time>2026-03-28T12:49:16.704Z</time></trkpt><trkpt lat="45.801665" lon="10.7862585"><ele>85.0</ele><time>2026-03-28T12:49:17.704Z</time></trkpt><trkpt lat="45.8017682" lon="10.7863526"><ele>85.0</ele><time>2026-03-28T12:49:18.704Z</time></trkpt><trkpt lat="45.8018783" lon="10.7864481"><ele>85.0</ele><time>2026-03-28T12:49:19.705Z</time></trkpt><trkpt lat="45.8020113" lon="10.7865309"><ele>85.0</ele><time>2026-03-28T12:49:20.704Z</time></trkpt><trkpt lat="45.8021497" lon="10.7866122"><ele>85.0</ele><time>2026-03-28T12:49:21.705Z</time></trkpt><trkpt lat="45.8023118" lon="10.7866866"><ele>85.0</ele><time>2026-03-28T12:49:22.703Z</time></trkpt><trkpt lat="45.8024819" lon="10.7867695"><ele>85.0</ele><time>2026-03-28T12:49:23.703Z</time></trkpt><trkpt lat="45.802685" lon="10.7868392"><ele>85.0</ele><time>2026-03-28T12:49:24.704Z</time></trkpt><trkpt lat="45.8028881" lon="10.7869333"><ele>83.66666666666666</ele><time>2026-03-28T12:49:25.704Z</time></trkpt><trkpt lat="45.8030901" lon="10.7870356"><ele>82.33333333333333</ele><time>2026-03-28T12:49:26.704Z</time></trkpt><trkpt lat="45.8032796" lon="10.787127"><ele>81.0</ele><time>2026-03-28T12:49:27.703Z</time></trkpt><trkpt lat="45.8034565" lon="10.7872119"><ele>82.33333333333333</ele><time>2026-03-28T12:49:28.704Z</time></trkpt><trkpt lat="45.8036293" lon="10.787288"><ele>83.66666666666666</ele><time>2026-03-28T12:49:29.705Z</time></trkpt><trkpt lat="45.8037884" lon="10.787346"><ele>85.0</ele><time>2026-03-28T12:49:30.704Z</time></trkpt><trkpt lat="45.8039462" lon="10.7873913"><ele>85.0</ele><time>2026-03-28T12:49:31.705Z</time></trkpt><trkpt lat="45.8041048" lon="10.7874265"><ele>85.0</ele><time>2026-03-28T12:49:32.706Z</time></trkpt><trkpt lat="45.8042601" lon="10.787457"><ele>85.0</ele><time>2026-03-28T12:49:33.705Z</time></trkpt><trkpt lat="45.8044203" lon="10.787471"><ele>85.33333333333333</ele><time>2026-03-28T12:49:34.704Z</time></trkpt><trkpt lat="45.804586" lon="10.7874773"><ele>85.66666666666667</ele><time>2026-03-28T12:49:35.705Z</time></trkpt><trkpt lat="45.8047463" lon="10.7874736"><ele>86.0</ele><time>2026-03-28T12:49:36.704Z</time></trkpt><trkpt lat="45.8049059" lon="10.7874624"><ele>86.0</ele><time>2026-03-28T12:49:37.705Z</time></trkpt><trkpt lat="45.8050701" lon="10.787445"><ele>86.0</ele><time>2026-03-28T12:49:38.705Z</time></trkpt><trkpt lat="45.8052321" lon="10.7874242"><ele>86.0</ele><time>2026-03-28T12:49:39.704Z</time></trkpt><trkpt lat="45.8053863" lon="10.7874174"><ele>86.33333333333334</ele><time>2026-03-28T12:49:40.704Z</time></trkpt><trkpt lat="45.8055429" lon="10.7874057"><ele>86.66666666666667</ele><time>2026-03-28T12:49:41.705Z</time></trkpt><trkpt lat="45.8057031" lon="10.7873987"><ele>87.0</ele><time>2026-03-28T12:49:42.706Z</time></trkpt><trkpt lat="45.8058666" lon="10.787392"><ele>88.0</ele><time>2026-03-28T12:49:43.705Z</time></trkpt><trkpt lat="45.8060244" lon="10.7873946"><ele>89.0</ele><time>2026-03-28T12:49:44.704Z</time></trkpt><trkpt lat="45.8061837" lon="10.7874056"><ele>90.0</ele><time>2026-03-28T12:49:45.705Z</time></trkpt><trkpt lat="45.8063447" lon="10.7874225"><ele>90.0</ele><time>2026-03-28T12:49:46.706Z</time></trkpt><trkpt lat="45.806509" lon="10.7874514"><ele>90.0</ele><time>2026-03-28T12:49:47.704Z</time></trkpt><trkpt lat="45.8066675" lon="10.7874931"><ele>90.0</ele><time>2026-03-28T12:49:48.704Z</time></trkpt><trkpt lat="45.8068246" lon="10.7875431"><ele>91.66666666666667</ele><time>2026-03-28T12:49:49.705Z</time></trkpt><trkpt lat="45.8069853" lon="10.7875958"><ele>93.33333333333334</ele><time>2026-03-28T12:49:50.705Z</time></trkpt><trkpt lat="45.8071272" lon="10.7876455"><ele>95.0</ele><time>2026-03-28T12:49:51.705Z</time></trkpt><trkpt lat="45.8072633" lon="10.787707"><ele>94.5</ele><time>2026-03-28T12:49:52.705Z</time></trkpt><trkpt lat="45.8073932" lon="10.7877795"><ele>94.0</ele><time>2026-03-28T12:49:53.704Z</time></trkpt><trkpt lat="45.807519" lon="10.7878564"><ele>93.5</ele><time>2026-03-28T12:49:54.704Z</time></trkpt><trkpt lat="45.8076356" lon="10.7879395"><ele>93.0</ele><time>2026-03-28T12:49:55.705Z</time></trkpt><trkpt lat="45.8077346" lon="10.7880476"><ele>93.0</ele><time>2026-03-28T12:49:56.704Z</time></trkpt><trkpt lat="45.8078263" lon="10.788151"><ele>93.0</ele><time>2026-03-28T12:49:57.704Z</time></trkpt><trkpt lat="45.8079071" lon="10.7882525"><ele>93.0</ele><time>2026-03-28T12:49:58.704Z</time></trkpt><trkpt lat="45.8079741" lon="10.7883542"><ele>93.0</ele><time>2026-03-28T12:49:59.705Z</time></trkpt><trkpt lat="45.8080362" lon="10.7884582"><ele>93.0</ele><time>2026-03-28T12:50:00.706Z</time></trkpt><trkpt lat="45.8080943" lon="10.7885566"><ele>92.5</ele><time>2026-03-28T12:50:01.704Z</time></trkpt><trkpt lat="45.8081446" lon="10.7886575"><ele>92.0</ele><time>2026-03-28T12:50:02.704Z</time></trkpt><trkpt lat="45.8081935" lon="10.7887614"><ele>91.5</ele><time>2026-03-28T12:50:03.704Z</time></trkpt><trkpt lat="45.8082421" lon="10.7888651"><ele>91.0</ele><time>2026-03-28T12:50:04.703Z</time></trkpt><trkpt lat="45.808297" lon="10.7889671"><ele>90.5</ele><time>2026-03-28T12:50:05.705Z</time></trkpt><trkpt lat="45.8083394" lon="10.7890726"><ele>90.0</ele><time>2026-03-28T12:50:06.704Z</time></trkpt><trkpt lat="45.8083834" lon="10.7891704"><ele>90.0</ele><time>2026-03-28T12:50:07.704Z</time></trkpt><trkpt lat="45.8084265" lon="10.7892557"><ele>90.0</ele><time>2026-03-28T12:50:08.705Z</time></trkpt><trkpt lat="45.8084683" lon="10.7893431"><ele>90.0</ele><time>2026-03-28T12:50:09.703Z</time></trkpt><trkpt lat="45.8085161" lon="10.7894209"><ele>90.0</ele><time>2026-03-28T12:50:10.705Z</time></trkpt><trkpt lat="45.8085583" lon="10.7894998"><ele>90.0</ele><time>2026-03-28T12:50:11.705Z</time></trkpt><trkpt lat="45.8085982" lon="10.7895728"><ele>90.0</ele><time>2026-03-28T12:50:12.705Z</time></trkpt><trkpt lat="45.8086448" lon="10.7896531"><ele>90.0</ele><time>2026-03-28T12:50:13.705Z</time></trkpt><trkpt lat="45.8086982" lon="10.7897343"><ele>90.0</ele><time>2026-03-28T12:50:14.705Z</time></trkpt><trkpt lat="45.8087534" lon="10.7898111"><ele>90.0</ele><time>2026-03-28T12:50:15.704Z</time></trkpt><trkpt lat="45.8088039" lon="10.7898844"><ele>90.0</ele><time>2026-03-28T12:50:16.705Z</time></trkpt><trkpt lat="45.8088839" lon="10.789988"><ele>90.0</ele><time>2026-03-28T12:50:18.704Z</time></trkpt><trkpt lat="45.8089621" lon="10.7900856"><ele>90.0</ele><time>2026-03-28T12:50:20.704Z</time></trkpt><trkpt lat="45.8090176" lon="10.7901462"><ele>90.0</ele><time>2026-03-28T12:50:21.704Z</time></trkpt><trkpt lat="45.8090901" lon="10.7902135"><ele>90.0</ele><time>2026-03-28T12:50:22.704Z</time></trkpt><trkpt lat="45.8091756" lon="10.7902936"><ele>90.0</ele><time>2026-03-28T12:50:23.705Z</time></trkpt><trkpt lat="45.8092755" lon="10.7903806"><ele>90.0</ele><time>2026-03-28T12:50:24.704Z</time></trkpt><trkpt lat="45.8093811" lon="10.7904748"><ele>90.0</ele><time>2026-03-28T12:50:25.704Z</time></trkpt><trkpt lat="45.8095042" lon="10.7905809"><ele>91.0</ele><time>2026-03-28T12:50:26.704Z</time></trkpt><trkpt lat="45.8096192" lon="10.7906741"><ele>92.0</ele><time>2026-03-28T12:50:27.705Z</time></trkpt><trkpt lat="45.8097225" lon="10.790759"><ele>93.0</ele><time>2026-03-28T12:50:28.704Z</time></trkpt><trkpt lat="45.8098244" lon="10.7908356"><ele>94.0</ele><time>2026-03-28T12:50:29.704Z</time></trkpt><trkpt lat="45.8099267" lon="10.790919"><ele>94.0</ele><time>2026-03-28T12:50:30.704Z</time></trkpt><trkpt lat="45.810026" lon="10.7910073"><ele>94.0</ele><time>2026-03-28T12:50:31.705Z</time></trkpt><trkpt lat="45.8101263" lon="10.7910912"><ele>94.0</ele><time>2026-03-28T12:50:32.704Z</time></trkpt><trkpt lat="45.8102248" lon="10.7911769"><ele>94.0</ele><time>2026-03-28T12:50:33.705Z</time></trkpt><trkpt lat="45.8103225" lon="10.7912619"><ele>94.4</ele><time>2026-03-28T12:50:34.705Z</time></trkpt><trkpt lat="45.8104164" lon="10.7913472"><ele>94.80000000000001</ele><time>2026-03-28T12:50:35.704Z</time></trkpt><trkpt lat="45.8105024" lon="10.7914271"><ele>95.19999999999999</ele><time>2026-03-28T12:50:36.704Z</time></trkpt><trkpt lat="45.8105824" lon="10.7915111"><ele>95.6</ele><time>2026-03-28T12:50:37.704Z</time></trkpt><trkpt lat="45.8106503" lon="10.7915844"><ele>96.0</ele><time>2026-03-28T12:50:38.704Z</time></trkpt><trkpt lat="45.8107245" lon="10.7916562"><ele>96.0</ele><time>2026-03-28T12:50:39.704Z</time></trkpt><trkpt lat="45.8107973" lon="10.7917277"><ele>96.0</ele><time>2026-03-28T12:50:40.705Z</time></trkpt><trkpt lat="45.8108735" lon="10.7917951"><ele>96.0</ele><time>2026-03-28T12:50:41.704Z</time></trkpt><trkpt lat="45.8109556" lon="10.7918529"><ele>96.0</ele><time>2026-03-28T12:50:42.704Z</time></trkpt><trkpt lat="45.8110376" lon="10.7919058"><ele>96.0</ele><time>2026-03-28T12:50:43.705Z</time></trkpt><trkpt lat="45.8111235" lon="10.7919534"><ele>95.66666666666667</ele><time>2026-03-28T12:50:44.705Z</time></trkpt><trkpt lat="45.8112054" lon="10.7919955"><ele>95.33333333333333</ele><time>2026-03-28T12:50:45.705Z</time></trkpt><trkpt lat="45.811287" lon="10.7920328"><ele>95.0</ele><time>2026-03-28T12:50:46.704Z</time></trkpt><trkpt lat="45.8113723" lon="10.7920623"><ele>94.66666666666666</ele><time>2026-03-28T12:50:47.705Z</time></trkpt><trkpt lat="45.8114583" lon="10.7920902"><ele>94.33333333333333</ele><time>2026-03-28T12:50:48.705Z</time></trkpt><trkpt lat="45.8115542" lon="10.792116"><ele>94.0</ele><time>2026-03-28T12:50:49.704Z</time></trkpt><trkpt lat="45.8116536" lon="10.7921458"><ele>94.0</ele><time>2026-03-28T12:50:50.704Z</time></trkpt><trkpt lat="45.811757" lon="10.7921738"><ele>94.0</ele><time>2026-03-28T12:50:51.704Z</time></trkpt><trkpt lat="45.81187" lon="10.7922106"><ele>94.0</ele><time>2026-03-28T12:50:52.705Z</time></trkpt><trkpt lat="45.811984" lon="10.7922406"><ele>94.0</ele><time>2026-03-28T12:50:53.704Z</time></trkpt><trkpt lat="45.8120985" lon="10.7922675"><ele>94.5</ele><time>2026-03-28T12:50:54.704Z</time></trkpt><trkpt lat="45.8122166" lon="10.7922855"><ele>95.0</ele><time>2026-03-28T12:50:55.705Z</time></trkpt><trkpt lat="45.812342" lon="10.7922987"><ele>95.5</ele><time>2026-03-28T12:50:56.704Z</time></trkpt><trkpt lat="45.8124641" lon="10.7923059"><ele>96.0</ele><time>2026-03-28T12:50:57.704Z</time></trkpt><trkpt lat="45.8125786" lon="10.7923024"><ele>95.4</ele><time>2026-03-28T12:50:58.705Z</time></trkpt><trkpt lat="45.8126859" lon="10.7922914"><ele>94.8</ele><time>2026-03-28T12:50:59.704Z</time></trkpt><trkpt lat="45.8127908" lon="10.7922752"><ele>94.2</ele><time>2026-03-28T12:51:00.704Z</time></trkpt><trkpt lat="45.8128972" lon="10.7922535"><ele>93.60000000000001</ele><time>2026-03-28T12:51:01.704Z</time></trkpt><trkpt lat="45.8129995" lon="10.7922275"><ele>93.0</ele><time>2026-03-28T12:51:02.704Z</time></trkpt><trkpt lat="45.8131031" lon="10.7921963"><ele>93.0</ele><time>2026-03-28T12:51:03.705Z</time></trkpt><trkpt lat="45.8132047" lon="10.7921635"><ele>93.0</ele><time>2026-03-28T12:51:04.705Z</time></trkpt><trkpt lat="45.8133033" lon="10.7921273"><ele>93.0</ele><time>2026-03-28T12:51:05.704Z</time></trkpt><trkpt lat="45.8133908" lon="10.7920905"><ele>93.0</ele><time>2026-03-28T12:51:06.705Z</time></trkpt><trkpt lat="45.8134645" lon="10.7920511"><ele>93.0</ele><time>2026-03-28T12:51:07.705Z</time></trkpt><trkpt lat="45.8135316" lon="10.7920214"><ele>93.0</ele><time>2026-03-28T12:51:08.704Z</time></trkpt><trkpt lat="45.8135957" lon="10.7919873"><ele>92.0</ele><time>2026-03-28T12:51:09.704Z</time></trkpt><trkpt lat="45.8136634" lon="10.7919451"><ele>91.0</ele><time>2026-03-28T12:51:10.703Z</time></trkpt><trkpt lat="45.8137345" lon="10.7919119"><ele>90.0</ele><time>2026-03-28T12:51:11.704Z</time></trkpt><trkpt lat="45.8138005" lon="10.7918736"><ele>89.0</ele><time>2026-03-28T12:51:12.704Z</time></trkpt><trkpt lat="45.8138709" lon="10.7918342"><ele>88.0</ele><time>2026-03-28T12:51:13.704Z</time></trkpt><trkpt lat="45.8139557" lon="10.7917871"><ele>87.0</ele><time>2026-03-28T12:51:14.704Z</time></trkpt><trkpt lat="45.8140471" lon="10.7917382"><ele>90.0</ele><time>2026-03-28T12:51:15.704Z</time></trkpt><trkpt lat="45.814147" lon="10.7916906"><ele>93.0</ele><time>2026-03-28T12:51:16.704Z</time></trkpt><trkpt lat="45.8142513" lon="10.7916345"><ele>96.0</ele><time>2026-03-28T12:51:17.704Z</time></trkpt><trkpt lat="45.8143696" lon="10.7915793"><ele>99.0</ele><time>2026-03-28T12:51:18.704Z</time></trkpt><trkpt lat="45.8144862" lon="10.791535"><ele>99.25</ele><time>2026-03-28T12:51:19.705Z</time></trkpt><trkpt lat="45.8146079" lon="10.7914934"><ele>99.5</ele><time>2026-03-28T12:51:20.705Z</time></trkpt><trkpt lat="45.8147318" lon="10.7914647"><ele>99.75</ele><time>2026-03-28T12:51:21.704Z</time></trkpt><trkpt lat="45.8148565" lon="10.7914392"><ele>100.0</ele><time>2026-03-28T12:51:22.704Z</time></trkpt><trkpt lat="45.8149833" lon="10.7914332"><ele>100.0</ele><time>2026-03-28T12:51:23.704Z</time></trkpt><trkpt lat="45.8151151" lon="10.7914249"><ele>100.0</ele><time>2026-03-28T12:51:24.704Z</time></trkpt><trkpt lat="45.8152405" lon="10.7914214"><ele>100.0</ele><time>2026-03-28T12:51:25.704Z</time></trkpt><trkpt lat="45.8153625" lon="10.7914269"><ele>100.0</ele><time>2026-03-28T12:51:26.705Z</time></trkpt><trkpt lat="45.8154778" lon="10.7914478"><ele>104.6</ele><time>2026-03-28T12:51:27.705Z</time></trkpt><trkpt lat="45.815589" lon="10.7914575"><ele>109.2</ele><time>2026-03-28T12:51:28.705Z</time></trkpt><trkpt lat="45.8156954" lon="10.7914764"><ele>113.80000000000001</ele><time>2026-03-28T12:51:29.706Z</time></trkpt><trkpt lat="45.815799" lon="10.7915067"><ele>118.4</ele><time>2026-03-28T12:51:30.704Z</time></trkpt><trkpt lat="45.8158892" lon="10.7915439"><ele>123.0</ele><time>2026-03-28T12:51:31.705Z</time></trkpt><trkpt lat="45.8159876" lon="10.7915813"><ele>143.5</ele><time>2026-03-28T12:51:32.704Z</time></trkpt><trkpt lat="45.8160952" lon="10.7916263"><ele>164.0</ele><time>2026-03-28T12:51:33.704Z</time></trkpt><trkpt lat="45.8162123" lon="10.7916831"><ele>184.5</ele><time>2026-03-28T12:51:34.704Z</time></trkpt><trkpt lat="45.8163299" lon="10.7917612"><ele>205.0</ele><time>2026-03-28T12:51:35.704Z</time></trkpt><trkpt lat="45.8164337" lon="10.7918222"><ele>175.5</ele><time>2026-03-28T12:51:36.704Z</time></trkpt><trkpt lat="45.8165461" lon="10.7919144"><ele>146.0</ele><time>2026-03-28T12:51:37.705Z</time></trkpt><trkpt lat="45.8170683" lon="10.7929988"><ele>146.0</ele><time>2026-03-28T12:51:45.705Z</time></trkpt><trkpt lat="45.8170848" lon="10.7931736"><ele>146.0</ele><time>2026-03-28T12:51:46.704Z</time></trkpt><trkpt lat="45.8171067" lon="10.793268"><ele>146.0</ele><time>2026-03-28T12:51:47.705Z</time></trkpt><trkpt lat="45.8171277" lon="10.7933588"><ele>146.0</ele><time>2026-03-28T12:51:48.704Z</time></trkpt><trkpt lat="45.8171536" lon="10.7934523"><ele>146.0</ele><time>2026-03-28T12:51:49.705Z</time></trkpt><trkpt lat="45.8171954" lon="10.7935499"><ele>146.0</ele><time>2026-03-28T12:51:50.704Z</time></trkpt><trkpt lat="45.8172353" lon="10.7936691"><ele>140.0</ele><time>2026-03-28T12:51:51.705Z</time></trkpt><trkpt lat="45.8172856" lon="10.7938058"><ele>134.0</ele><time>2026-03-28T12:51:52.705Z</time></trkpt><trkpt lat="45.8173387" lon="10.793961"><ele>128.0</ele><time>2026-03-28T12:51:53.705Z</time></trkpt><trkpt lat="45.8173925" lon="10.7941389"><ele>122.0</ele><time>2026-03-28T12:51:54.705Z</time></trkpt><trkpt lat="45.8174516" lon="10.7943115"><ele>122.75</ele><time>2026-03-28T12:51:55.704Z</time></trkpt><trkpt lat="45.8175165" lon="10.7944695"><ele>123.5</ele><time>2026-03-28T12:51:56.704Z</time></trkpt><trkpt lat="45.8175902" lon="10.79462"><ele>124.25</ele><time>2026-03-28T12:51:57.704Z</time></trkpt><trkpt lat="45.8176761" lon="10.7947652"><ele>125.0</ele><time>2026-03-28T12:51:58.705Z</time></trkpt><trkpt lat="45.817765" lon="10.7949138"><ele>125.0</ele><time>2026-03-28T12:51:59.705Z</time></trkpt><trkpt lat="45.8178533" lon="10.7950616"><ele>125.0</ele><time>2026-03-28T12:52:00.705Z</time></trkpt><trkpt lat="45.8179398" lon="10.7952064"><ele>125.0</ele><time>2026-03-28T12:52:01.705Z</time></trkpt><trkpt lat="45.8180218" lon="10.7953402"><ele>125.0</ele><time>2026-03-28T12:52:02.705Z</time></trkpt><trkpt lat="45.8180982" lon="10.795466"><ele>119.0</ele><time>2026-03-28T12:52:03.704Z</time></trkpt><trkpt lat="45.8181723" lon="10.7955925"><ele>113.0</ele><time>2026-03-28T12:52:04.704Z</time></trkpt><trkpt lat="45.8182481" lon="10.7957163"><ele>107.0</ele><time>2026-03-28T12:52:05.704Z</time></trkpt><trkpt lat="45.8183325" lon="10.7958383"><ele>101.0</ele><time>2026-03-28T12:52:06.704Z</time></trkpt><trkpt lat="45.8184306" lon="10.7959551"><ele>104.5</ele><time>2026-03-28T12:52:07.705Z</time></trkpt><trkpt lat="45.818534" lon="10.7960586"><ele>108.0</ele><time>2026-03-28T12:52:08.704Z</time></trkpt><trkpt lat="45.8186333" lon="10.7961489"><ele>111.5</ele><time>2026-03-28T12:52:09.704Z</time></trkpt><trkpt lat="45.8187304" lon="10.7962381"><ele>115.0</ele><time>2026-03-28T12:52:10.705Z</time></trkpt><trkpt lat="45.8188303" lon="10.7963271"><ele>115.0</ele><time>2026-03-28T12:52:11.704Z</time></trkpt><trkpt lat="45.8189261" lon="10.7964122"><ele>115.0</ele><time>2026-03-28T12:52:12.704Z</time></trkpt><trkpt lat="45.8190207" lon="10.7965033"><ele>115.0</ele><time>2026-03-28T12:52:13.704Z</time></trkpt><trkpt lat="45.8191116" lon="10.7965961"><ele>115.0</ele><time>2026-03-28T12:52:14.704Z</time></trkpt><trkpt lat="45.8191992" lon="10.796699"><ele>115.0</ele><time>2026-03-28T12:52:15.704Z</time></trkpt><trkpt lat="45.819279" lon="10.796817"><ele>115.0</ele><time>2026-03-28T12:52:16.704Z</time></trkpt><trkpt lat="45.8193567" lon="10.7969536"><ele>115.0</ele><time>2026-03-28T12:52:17.705Z</time></trkpt><trkpt lat="45.8194408" lon="10.7971093"><ele>115.0</ele><time>2026-03-28T12:52:18.704Z</time></trkpt><trkpt lat="45.8195309" lon="10.7972811"><ele>115.33333333333334</ele><time>2026-03-28T12:52:19.704Z</time></trkpt><trkpt lat="45.819622" lon="10.7974645"><ele>115.66666666666666</ele><time>2026-03-28T12:52:20.704Z</time></trkpt><trkpt lat="45.81974" lon="10.7976851"><ele>116.0</ele><time>2026-03-28T12:52:21.705Z</time></trkpt><trkpt lat="45.8198505" lon="10.7979067"><ele>116.0</ele><time>2026-03-28T12:52:22.705Z</time></trkpt><trkpt lat="45.8199572" lon="10.7981342"><ele>116.0</ele><time>2026-03-28T12:52:23.704Z</time></trkpt><trkpt lat="45.8200669" lon="10.7983595"><ele>116.0</ele><time>2026-03-28T12:52:24.704Z</time></trkpt><trkpt lat="45.8201768" lon="10.7985841"><ele>97.0</ele><time>2026-03-28T12:52:25.705Z</time></trkpt><trkpt lat="45.820975" lon="10.7997636"><ele>101.0</ele><time>2026-03-28T12:52:32.705Z</time></trkpt><trkpt lat="45.8210837" lon="10.7998959"><ele>105.0</ele><time>2026-03-28T12:52:33.704Z</time></trkpt><trkpt lat="45.8212057" lon="10.8000126"><ele>109.0</ele><time>2026-03-28T12:52:34.704Z</time></trkpt><trkpt lat="45.8213044" lon="10.8001477"><ele>113.0</ele><time>2026-03-28T12:52:35.705Z</time></trkpt><trkpt lat="45.8213981" lon="10.8003046"><ele>113.0</ele><time>2026-03-28T12:52:36.705Z</time></trkpt><trkpt lat="45.821479" lon="10.8004867"><ele>113.0</ele><time>2026-03-28T12:52:37.705Z</time></trkpt><trkpt lat="45.8215502" lon="10.8006825"><ele>113.0</ele><time>2026-03-28T12:52:38.704Z</time></trkpt><trkpt lat="45.8216053" lon="10.8008707"><ele>113.0</ele><time>2026-03-28T12:52:39.704Z</time></trkpt><trkpt lat="45.8216477" lon="10.8010575"><ele>113.0</ele><time>2026-03-28T12:52:40.704Z</time></trkpt><trkpt lat="45.8216758" lon="10.8012567"><ele>113.0</ele><time>2026-03-28T12:52:41.704Z</time></trkpt><trkpt lat="45.8216919" lon="10.801465"><ele>113.0</ele><time>2026-03-28T12:52:42.705Z</time></trkpt><trkpt lat="45.8216954" lon="10.8016823"><ele>113.0</ele><time>2026-03-28T12:52:43.704Z</time></trkpt><trkpt lat="45.821684" lon="10.8019018"><ele>113.33333333333333</ele><time>2026-03-28T12:52:44.704Z</time></trkpt><trkpt lat="45.8216709" lon="10.8021301"><ele>113.66666666666666</ele><time>2026-03-28T12:52:45.705Z</time></trkpt><trkpt lat="45.8216632" lon="10.8023486"><ele>114.0</ele><time>2026-03-28T12:52:46.705Z</time></trkpt><trkpt lat="45.8216698" lon="10.8025485"><ele>113.0</ele><time>2026-03-28T12:52:47.705Z</time></trkpt><trkpt lat="45.8216892" lon="10.8027269"><ele>112.0</ele><time>2026-03-28T12:52:48.705Z</time></trkpt><trkpt lat="45.8217188" lon="10.802898"><ele>111.0</ele><time>2026-03-28T12:52:49.704Z</time></trkpt><trkpt lat="45.8217626" lon="10.803065"><ele>110.0</ele><time>2026-03-28T12:52:50.704Z</time></trkpt><trkpt lat="45.8218194" lon="10.8032353"><ele>116.75</ele><time>2026-03-28T12:52:51.704Z</time></trkpt><trkpt lat="45.821885" lon="10.803415"><ele>123.5</ele><time>2026-03-28T12:52:52.704Z</time></trkpt><trkpt lat="45.8219545" lon="10.8036025"><ele>130.25</ele><time>2026-03-28T12:52:53.704Z</time></trkpt><trkpt lat="45.8220259" lon="10.8037929"><ele>137.0</ele><time>2026-03-28T12:52:54.705Z</time></trkpt><trkpt lat="45.8220932" lon="10.8039711"><ele>137.0</ele><time>2026-03-28T12:52:55.705Z</time></trkpt><trkpt lat="45.8221549" lon="10.804138"><ele>137.0</ele><time>2026-03-28T12:52:56.704Z</time></trkpt><trkpt lat="45.8222148" lon="10.8042884"><ele>137.0</ele><time>2026-03-28T12:52:57.704Z</time></trkpt><trkpt lat="45.8222872" lon="10.8044339"><ele>137.0</ele><time>2026-03-28T12:52:58.705Z</time></trkpt><trkpt lat="45.8223709" lon="10.8045783"><ele>132.75</ele><time>2026-03-28T12:52:59.705Z</time></trkpt><trkpt lat="45.8224407" lon="10.8047119"><ele>128.5</ele><time>2026-03-28T12:53:00.705Z</time></trkpt><trkpt lat="45.8225144" lon="10.8048711"><ele>124.25</ele><time>2026-03-28T12:53:01.704Z</time></trkpt><trkpt lat="45.822582" lon="10.8050368"><ele>120.0</ele><time>2026-03-28T12:53:02.705Z</time></trkpt><trkpt lat="45.8226525" lon="10.805201"><ele>137.75</ele><time>2026-03-28T12:53:03.704Z</time></trkpt><trkpt lat="45.8227147" lon="10.8053693"><ele>155.5</ele><time>2026-03-28T12:53:04.705Z</time></trkpt><trkpt lat="45.8227751" lon="10.8055449"><ele>173.25</ele><time>2026-03-28T12:53:05.705Z</time></trkpt><trkpt lat="45.8228206" lon="10.8057294"><ele>191.0</ele><time>2026-03-28T12:53:06.705Z</time></trkpt><trkpt lat="45.8228634" lon="10.805917"><ele>185.75</ele><time>2026-03-28T12:53:07.704Z</time></trkpt><trkpt lat="45.8229091" lon="10.8061032"><ele>180.5</ele><time>2026-03-28T12:53:08.704Z</time></trkpt><trkpt lat="45.8229546" lon="10.8062899"><ele>175.25</ele><time>2026-03-28T12:53:09.705Z</time></trkpt><trkpt lat="45.823003" lon="10.8064747"><ele>170.0</ele><time>2026-03-28T12:53:10.704Z</time></trkpt><trkpt lat="45.823215" lon="10.8074436"><ele>161.25</ele><time>2026-03-28T12:53:15.704Z</time></trkpt><trkpt lat="45.8232508" lon="10.807629"><ele>152.5</ele><time>2026-03-28T12:53:16.705Z</time></trkpt><trkpt lat="45.8233017" lon="10.8078018"><ele>143.75</ele><time>2026-03-28T12:53:17.705Z</time></trkpt><trkpt lat="45.8233573" lon="10.8079674"><ele>135.0</ele><time>2026-03-28T12:53:18.704Z</time></trkpt><trkpt lat="45.8234157" lon="10.8081052"><ele>132.25</ele><time>2026-03-28T12:53:19.704Z</time></trkpt><trkpt lat="45.8234841" lon="10.8082517"><ele>129.5</ele><time>2026-03-28T12:53:20.704Z</time></trkpt><trkpt lat="45.8235493" lon="10.8083702"><ele>126.75</ele><time>2026-03-28T12:53:21.705Z</time></trkpt><trkpt lat="45.8236402" lon="10.8084895"><ele>124.0</ele><time>2026-03-28T12:53:22.704Z</time></trkpt><trkpt lat="45.8237298" lon="10.8085943"><ele>124.0</ele><time>2026-03-28T12:53:23.705Z</time></trkpt><trkpt lat="45.8238154" lon="10.8087043"><ele>124.0</ele><time>2026-03-28T12:53:24.704Z</time></trkpt><trkpt lat="45.8239025" lon="10.8088255"><ele>124.0</ele><time>2026-03-28T12:53:25.705Z</time></trkpt><trkpt lat="45.8240086" lon="10.8089254"><ele>124.0</ele><time>2026-03-28T12:53:26.705Z</time></trkpt><trkpt lat="45.8240915" lon="10.809051"><ele>124.0</ele><time>2026-03-28T12:53:27.705Z</time></trkpt><trkpt lat="45.8241607" lon="10.8091847"><ele>124.0</ele><time>2026-03-28T12:53:28.704Z</time></trkpt><trkpt lat="45.8242126" lon="10.8093324"><ele>124.0</ele><time>2026-03-28T12:53:29.704Z</time></trkpt><trkpt lat="45.8242405" lon="10.8094877"><ele>124.0</ele><time>2026-03-28T12:53:30.705Z</time></trkpt><trkpt lat="45.8242478" lon="10.8096503"><ele>121.33333333333334</ele><time>2026-03-28T12:53:31.705Z</time></trkpt><trkpt lat="45.8242448" lon="10.8097936"><ele>118.66666666666667</ele><time>2026-03-28T12:53:32.704Z</time></trkpt><trkpt lat="45.8242355" lon="10.8099029"><ele>116.0</ele><time>2026-03-28T12:53:33.705Z</time></trkpt><trkpt lat="45.8242253" lon="10.8099949"><ele>113.33333333333334</ele><time>2026-03-28T12:53:34.705Z</time></trkpt><trkpt lat="45.8242206" lon="10.8100867"><ele>110.66666666666667</ele><time>2026-03-28T12:53:35.704Z</time></trkpt><trkpt lat="45.8242175" lon="10.8101927"><ele>108.0</ele><time>2026-03-28T12:53:36.705Z</time></trkpt><trkpt lat="45.8242177" lon="10.8103135"><ele>107.80000000000001</ele><time>2026-03-28T12:53:37.704Z</time></trkpt><trkpt lat="45.8242255" lon="10.8104496"><ele>107.60000000000001</ele><time>2026-03-28T12:53:38.705Z</time></trkpt><trkpt lat="45.8242371" lon="10.8105987"><ele>107.39999999999999</ele><time>2026-03-28T12:53:39.704Z</time></trkpt><trkpt lat="45.8242538" lon="10.8107607"><ele>107.19999999999999</ele><time>2026-03-28T12:53:40.704Z</time></trkpt><trkpt lat="45.8242783" lon="10.8109237"><ele>107.0</ele><time>2026-03-28T12:53:41.706Z</time></trkpt><trkpt lat="45.8243132" lon="10.8110949"><ele>114.0</ele><time>2026-03-28T12:53:42.706Z</time></trkpt><trkpt lat="45.8243533" lon="10.8112744"><ele>121.0</ele><time>2026-03-28T12:53:43.704Z</time></trkpt><trkpt lat="45.8243884" lon="10.8114556"><ele>128.0</ele><time>2026-03-28T12:53:44.705Z</time></trkpt><trkpt lat="45.8244235" lon="10.8116201"><ele>135.0</ele><time>2026-03-28T12:53:45.705Z</time></trkpt><trkpt lat="45.8244588" lon="10.8117778"><ele>133.8</ele><time>2026-03-28T12:53:46.704Z</time></trkpt><trkpt lat="45.8244892" lon="10.8119306"><ele>132.6</ele><time>2026-03-28T12:53:47.704Z</time></trkpt><trkpt lat="45.8245222" lon="10.8120805"><ele>131.4</ele><time>2026-03-28T12:53:48.705Z</time></trkpt><trkpt lat="45.8245627" lon="10.8122307"><ele>130.2</ele><time>2026-03-28T12:53:49.704Z</time></trkpt><trkpt lat="45.8245996" lon="10.812386"><ele>129.0</ele><time>2026-03-28T12:53:50.704Z</time></trkpt><trkpt lat="45.8246404" lon="10.8125435"><ele>127.0</ele><time>2026-03-28T12:53:51.705Z</time></trkpt><trkpt lat="45.8246801" lon="10.8127081"><ele>125.0</ele><time>2026-03-28T12:53:52.704Z</time></trkpt><trkpt lat="45.8247267" lon="10.8128683"><ele>123.0</ele><time>2026-03-28T12:53:53.705Z</time></trkpt><trkpt lat="45.8247796" lon="10.813021"><ele>121.0</ele><time>2026-03-28T12:53:54.704Z</time></trkpt><trkpt lat="45.8248409" lon="10.813155"><ele>121.0</ele><time>2026-03-28T12:53:55.706Z</time></trkpt><trkpt lat="45.8249087" lon="10.8132686"><ele>121.0</ele><time>2026-03-28T12:53:56.705Z</time></trkpt><trkpt lat="45.8249742" lon="10.8133733"><ele>121.0</ele><time>2026-03-28T12:53:57.704Z</time></trkpt><trkpt lat="45.8250439" lon="10.8134712"><ele>121.0</ele><time>2026-03-28T12:53:58.704Z</time></trkpt><trkpt lat="45.8251177" lon="10.8135693"><ele>121.0</ele><time>2026-03-28T12:53:59.705Z</time></trkpt><trkpt lat="45.8251972" lon="10.8136615"><ele>122.75</ele><time>2026-03-28T12:54:00.705Z</time></trkpt><trkpt lat="45.8252803" lon="10.8137609"><ele>124.5</ele><time>2026-03-28T12:54:01.704Z</time></trkpt><trkpt lat="45.825369" lon="10.813863"><ele>126.25</ele><time>2026-03-28T12:54:02.705Z</time></trkpt><trkpt lat="45.8254582" lon="10.8139813"><ele>128.0</ele><time>2026-03-28T12:54:03.705Z</time></trkpt><trkpt lat="45.8255468" lon="10.8141039"><ele>128.0</ele><time>2026-03-28T12:54:04.704Z</time></trkpt><trkpt lat="45.8256354" lon="10.8142425"><ele>128.0</ele><time>2026-03-28T12:54:05.705Z</time></trkpt><trkpt lat="45.8257193" lon="10.8143874"><ele>128.0</ele><time>2026-03-28T12:54:06.703Z</time></trkpt><trkpt lat="45.8257985" lon="10.8145419"><ele>128.0</ele><time>2026-03-28T12:54:07.704Z</time></trkpt><trkpt lat="45.8258709" lon="10.8147009"><ele>131.25</ele><time>2026-03-28T12:54:08.705Z</time></trkpt><trkpt lat="45.8259371" lon="10.814864"><ele>134.5</ele><time>2026-03-28T12:54:09.704Z</time></trkpt><trkpt lat="45.8260017" lon="10.8150295"><ele>137.75</ele><time>2026-03-28T12:54:10.705Z</time></trkpt><trkpt lat="45.8260761" lon="10.8151839"><ele>141.0</ele><time>2026-03-28T12:54:11.706Z</time></trkpt><trkpt lat="45.8261541" lon="10.815324"><ele>134.5</ele><time>2026-03-28T12:54:12.705Z</time></trkpt><trkpt lat="45.8262396" lon="10.8154477"><ele>128.0</ele><time>2026-03-28T12:54:13.706Z</time></trkpt><trkpt lat="45.826341" lon="10.8155644"><ele>121.5</ele><time>2026-03-28T12:54:14.704Z</time></trkpt><trkpt lat="45.8264498" lon="10.8156756"><ele>115.0</ele><time>2026-03-28T12:54:15.705Z</time></trkpt><trkpt lat="45.826569" lon="10.815783"><ele>115.0</ele><time>2026-03-28T12:54:16.705Z</time></trkpt><trkpt lat="45.8267001" lon="10.8158924"><ele>115.0</ele><time>2026-03-28T12:54:17.704Z</time></trkpt><trkpt lat="45.8268361" lon="10.8160063"><ele>115.0</ele><time>2026-03-28T12:54:18.704Z</time></trkpt><trkpt lat="45.8269714" lon="10.8161275"><ele>119.66666666666667</ele><time>2026-03-28T12:54:19.704Z</time></trkpt><trkpt lat="45.8270989" lon="10.8162705"><ele>124.33333333333334</ele><time>2026-03-28T12:54:20.704Z</time></trkpt><trkpt lat="45.8272172" lon="10.8164184"><ele>129.0</ele><time>2026-03-28T12:54:21.704Z</time></trkpt><trkpt lat="45.8273194" lon="10.8165692"><ele>129.0</ele><time>2026-03-28T12:54:22.705Z</time></trkpt><trkpt lat="45.827416" lon="10.8167358"><ele>129.0</ele><time>2026-03-28T12:54:23.704Z</time></trkpt><trkpt lat="45.8275026" lon="10.816911"><ele>129.0</ele><time>2026-03-28T12:54:24.704Z</time></trkpt><trkpt lat="45.8275746" lon="10.8170943"><ele>129.0</ele><time>2026-03-28T12:54:25.706Z</time></trkpt><trkpt lat="45.8276395" lon="10.8172769"><ele>132.25</ele><time>2026-03-28T12:54:26.705Z</time></trkpt><trkpt lat="45.8276859" lon="10.8174729"><ele>135.5</ele><time>2026-03-28T12:54:27.705Z</time></trkpt><trkpt lat="45.8277185" lon="10.8176733"><ele>138.75</ele><time>2026-03-28T12:54:28.704Z</time></trkpt><trkpt lat="45.8277443" lon="10.8178791"><ele>142.0</ele><time>2026-03-28T12:54:29.704Z</time></trkpt><trkpt lat="45.8277451" lon="10.8180975"><ele>142.0</ele><time>2026-03-28T12:54:30.705Z</time></trkpt><trkpt lat="45.8277395" lon="10.8183167"><ele>142.0</ele><time>2026-03-28T12:54:31.706Z</time></trkpt><trkpt lat="45.8277276" lon="10.8185469"><ele>142.0</ele><time>2026-03-28T12:54:32.705Z</time></trkpt><trkpt lat="45.8277239" lon="10.8187756"><ele>140.5</ele><time>2026-03-28T12:54:33.704Z</time></trkpt><trkpt lat="45.8277176" lon="10.8190012"><ele>139.0</ele><time>2026-03-28T12:54:34.706Z</time></trkpt><trkpt lat="45.8277227" lon="10.8192069"><ele>137.5</ele><time>2026-03-28T12:54:35.706Z</time></trkpt><trkpt lat="45.827733" lon="10.8194089"><ele>136.0</ele><time>2026-03-28T12:54:36.704Z</time></trkpt><trkpt lat="45.8277578" lon="10.8196068"><ele>133.25</ele><time>2026-03-28T12:54:37.705Z</time></trkpt><trkpt lat="45.8277939" lon="10.8198043"><ele>130.5</ele><time>2026-03-28T12:54:38.706Z</time></trkpt><trkpt lat="45.8278396" lon="10.8199926"><ele>127.75</ele><time>2026-03-28T12:54:39.705Z</time></trkpt><trkpt lat="45.8278991" lon="10.8201789"><ele>125.0</ele><time>2026-03-28T12:54:40.704Z</time></trkpt><trkpt lat="45.8279653" lon="10.8203569"><ele>119.0</ele><time>2026-03-28T12:54:41.705Z</time></trkpt><trkpt lat="45.8280411" lon="10.8205264"><ele>113.0</ele><time>2026-03-28T12:54:42.705Z</time></trkpt><trkpt lat="45.8281333" lon="10.820688"><ele>107.0</ele><time>2026-03-28T12:54:43.704Z</time></trkpt><trkpt lat="45.8282332" lon="10.8208484"><ele>101.0</ele><time>2026-03-28T12:54:44.706Z</time></trkpt><trkpt lat="45.8283472" lon="10.820996"><ele>104.66666666666666</ele><time>2026-03-28T12:54:45.704Z</time></trkpt><trkpt lat="45.8284718" lon="10.8211408"><ele>108.33333333333334</ele><time>2026-03-28T12:54:46.705Z</time></trkpt><trkpt lat="45.8286059" lon="10.8212809"><ele>112.0</ele><time>2026-03-28T12:54:47.704Z</time></trkpt><trkpt lat="45.82874" lon="10.8214255"><ele>112.0</ele><time>2026-03-28T12:54:48.704Z</time></trkpt><trkpt lat="45.8288664" lon="10.8215809"><ele>112.0</ele><time>2026-03-28T12:54:49.705Z</time></trkpt><trkpt lat="45.8289819" lon="10.8217325"><ele>112.0</ele><time>2026-03-28T12:54:50.704Z</time></trkpt><trkpt lat="45.8290919" lon="10.8218931"><ele>110.75</ele><time>2026-03-28T12:54:51.705Z</time></trkpt><trkpt lat="45.829199" lon="10.8220564"><ele>109.5</ele><time>2026-03-28T12:54:52.706Z</time></trkpt><trkpt lat="45.8293078" lon="10.8222246"><ele>108.25</ele><time>2026-03-28T12:54:53.706Z</time></trkpt><trkpt lat="45.8294116" lon="10.8223322"><ele>107.0</ele><time>2026-03-28T12:54:54.705Z</time></trkpt><trkpt lat="45.8295335" lon="10.8224275"><ele>107.0</ele><time>2026-03-28T12:54:55.706Z</time></trkpt><trkpt lat="45.8296609" lon="10.822498"><ele>107.0</ele><time>2026-03-28T12:54:56.705Z</time></trkpt><trkpt lat="45.829818" lon="10.8225648"><ele>107.0</ele><time>2026-03-28T12:54:57.704Z</time></trkpt><trkpt lat="45.8299886" lon="10.8226486"><ele>101.0</ele><time>2026-03-28T12:54:58.706Z</time></trkpt><trkpt lat="45.8301681" lon="10.8227311"><ele>95.0</ele><time>2026-03-28T12:54:59.706Z</time></trkpt><trkpt lat="45.8303356" lon="10.8228195"><ele>89.0</ele><time>2026-03-28T12:55:00.704Z</time></trkpt><trkpt lat="45.8304929" lon="10.8229078"><ele>89.0</ele><time>2026-03-28T12:55:01.705Z</time></trkpt><trkpt lat="45.8306456" lon="10.8229794"><ele>89.0</ele><time>2026-03-28T12:55:02.706Z</time></trkpt><trkpt lat="45.8307915" lon="10.823065"><ele>89.0</ele><time>2026-03-28T12:55:03.704Z</time></trkpt><trkpt lat="45.8309299" lon="10.8231432"><ele>89.33333333333334</ele><time>2026-03-28T12:55:04.705Z</time></trkpt><trkpt lat="45.8310627" lon="10.8232479"><ele>89.66666666666667</ele><time>2026-03-28T12:55:05.704Z</time></trkpt><trkpt lat="45.8311867" lon="10.8233663"><ele>90.0</ele><time>2026-03-28T12:55:06.704Z</time></trkpt><trkpt lat="45.8312991" lon="10.8235141"><ele>90.0</ele><time>2026-03-28T12:55:07.706Z</time></trkpt><trkpt lat="45.8314142" lon="10.8236738"><ele>90.0</ele><time>2026-03-28T12:55:08.705Z</time></trkpt><trkpt lat="45.831536" lon="10.823834"><ele>90.0</ele><time>2026-03-28T12:55:09.704Z</time></trkpt><trkpt lat="45.8316442" lon="10.8240147"><ele>90.0</ele><time>2026-03-28T12:55:10.704Z</time></trkpt><trkpt lat="45.8317514" lon="10.8241802"><ele>90.0</ele><time>2026-03-28T12:55:11.704Z</time></trkpt><trkpt lat="45.8318601" lon="10.8243422"><ele>90.0</ele><time>2026-03-28T12:55:12.704Z</time></trkpt><trkpt lat="45.8319584" lon="10.8244938"><ele>89.75</ele><time>2026-03-28T12:55:13.705Z</time></trkpt><trkpt lat="45.8320606" lon="10.8246189"><ele>89.5</ele><time>2026-03-28T12:55:14.705Z</time></trkpt><trkpt lat="45.8321654" lon="10.8247129"><ele>89.25</ele><time>2026-03-28T12:55:15.704Z</time></trkpt><trkpt lat="45.8322665" lon="10.8247923"><ele>89.0</ele><time>2026-03-28T12:55:16.706Z</time></trkpt><trkpt lat="45.8323763" lon="10.8248601"><ele>89.0</ele><time>2026-03-28T12:55:17.704Z</time></trkpt><trkpt lat="45.8324868" lon="10.8249257"><ele>89.0</ele><time>2026-03-28T12:55:18.705Z</time></trkpt><trkpt lat="45.8326097" lon="10.8250107"><ele>89.0</ele><time>2026-03-28T12:55:19.704Z</time></trkpt><trkpt lat="45.8327338" lon="10.825091"><ele>89.0</ele><time>2026-03-28T12:55:20.705Z</time></trkpt><trkpt lat="45.8328628" lon="10.8251622"><ele>83.0</ele><time>2026-03-28T12:55:21.703Z</time></trkpt><trkpt lat="45.8329819" lon="10.8252244"><ele>77.0</ele><time>2026-03-28T12:55:22.704Z</time></trkpt><trkpt lat="45.833109" lon="10.8252786"><ele>71.0</ele><time>2026-03-28T12:55:23.705Z</time></trkpt><trkpt lat="45.8332391" lon="10.8253209"><ele>65.0</ele><time>2026-03-28T12:55:24.705Z</time></trkpt><trkpt lat="45.8333745" lon="10.8253644"><ele>64.25</ele><time>2026-03-28T12:55:25.705Z</time></trkpt><trkpt lat="45.833515" lon="10.8254154"><ele>63.5</ele><time>2026-03-28T12:55:26.705Z</time></trkpt><trkpt lat="45.8336547" lon="10.8254625"><ele>62.75</ele><time>2026-03-28T12:55:27.704Z</time></trkpt><trkpt lat="45.8337942" lon="10.825494"><ele>62.0</ele><time>2026-03-28T12:55:28.706Z</time></trkpt><trkpt lat="45.8339258" lon="10.8255057"><ele>62.0</ele><time>2026-03-28T12:55:29.705Z</time></trkpt><trkpt lat="45.8340666" lon="10.8255027"><ele>62.0</ele><time>2026-03-28T12:55:30.704Z</time></trkpt><trkpt lat="45.8342109" lon="10.8254915"><ele>62.0</ele><time>2026-03-28T12:55:31.703Z</time></trkpt><trkpt lat="45.8343305" lon="10.8254445"><ele>62.0</ele><time>2026-03-28T12:55:32.704Z</time></trkpt><trkpt lat="45.8344505" lon="10.8254314"><ele>62.0</ele><time>2026-03-28T12:55:33.707Z</time></trkpt><trkpt lat="45.8345766" lon="10.8254248"><ele>62.0</ele><time>2026-03-28T12:55:34.705Z</time></trkpt><trkpt lat="45.8346976" lon="10.8254168"><ele>62.0</ele><time>2026-03-28T12:55:35.706Z</time></trkpt><trkpt lat="45.8348132" lon="10.8254033"><ele>62.0</ele><time>2026-03-28T12:55:36.704Z</time></trkpt><trkpt lat="45.8349281" lon="10.8253845"><ele>62.0</ele><time>2026-03-28T12:55:37.705Z</time></trkpt><trkpt lat="45.835967" lon="10.8252534"><ele>62.0</ele><time>2026-03-28T12:55:43.706Z</time></trkpt><trkpt lat="45.8361039" lon="10.8252408"><ele>62.0</ele><time>2026-03-28T12:55:44.706Z</time></trkpt><trkpt lat="45.8362527" lon="10.8252358"><ele>62.0</ele><time>2026-03-28T12:55:45.705Z</time></trkpt><trkpt lat="45.8363998" lon="10.8252432"><ele>62.0</ele><time>2026-03-28T12:55:46.706Z</time></trkpt><trkpt lat="45.8374201" lon="10.8253829"><ele>62.0</ele><time>2026-03-28T12:55:53.706Z</time></trkpt><trkpt lat="45.8375923" lon="10.8255705"><ele>62.0</ele><time>2026-03-28T12:55:54.705Z</time></trkpt><trkpt lat="45.8377278" lon="10.8256556"><ele>62.0</ele><time>2026-03-28T12:55:55.705Z</time></trkpt><trkpt lat="45.8378662" lon="10.8257018"><ele>62.0</ele><time>2026-03-28T12:55:56.706Z</time></trkpt><trkpt lat="45.8380097" lon="10.8257381"><ele>62.0</ele><time>2026-03-28T12:55:57.705Z</time></trkpt><trkpt lat="45.8381586" lon="10.8257673"><ele>62.0</ele><time>2026-03-28T12:55:58.706Z</time></trkpt><trkpt lat="45.8383027" lon="10.8258006"><ele>62.0</ele><time>2026-03-28T12:55:59.706Z</time></trkpt><trkpt lat="45.8384419" lon="10.8258296"><ele>70.25</ele><time>2026-03-28T12:56:00.706Z</time></trkpt><trkpt lat="45.8385765" lon="10.8258629"><ele>78.5</ele><time>2026-03-28T12:56:01.705Z</time></trkpt><trkpt lat="45.83871" lon="10.8258942"><ele>86.75</ele><time>2026-03-28T12:56:02.706Z</time></trkpt><trkpt lat="45.8388456" lon="10.8259208"><ele>95.0</ele><time>2026-03-28T12:56:03.706Z</time></trkpt><trkpt lat="45.8389802" lon="10.8259507"><ele>95.0</ele><time>2026-03-28T12:56:04.706Z</time></trkpt><trkpt lat="45.8391116" lon="10.8259742"><ele>95.0</ele><time>2026-03-28T12:56:05.706Z</time></trkpt><trkpt lat="45.8392517" lon="10.8260024"><ele>95.0</ele><time>2026-03-28T12:56:06.705Z</time></trkpt><trkpt lat="45.8393902" lon="10.826023"><ele>95.0</ele><time>2026-03-28T12:56:07.705Z</time></trkpt><trkpt lat="45.8395224" lon="10.8260426"><ele>86.75</ele><time>2026-03-28T12:56:08.706Z</time></trkpt><trkpt lat="45.8396612" lon="10.8260468"><ele>78.5</ele><time>2026-03-28T12:56:09.706Z</time></trkpt><trkpt lat="45.8398046" lon="10.8260385"><ele>70.25</ele><time>2026-03-28T12:56:10.705Z</time></trkpt><trkpt lat="45.8399534" lon="10.8260166"><ele>62.0</ele><time>2026-03-28T12:56:11.705Z</time></trkpt><trkpt lat="45.8400949" lon="10.8259868"><ele>67.25</ele><time>2026-03-28T12:56:12.705Z</time></trkpt><trkpt lat="45.8402369" lon="10.8259448"><ele>72.5</ele><time>2026-03-28T12:56:13.706Z</time></trkpt><trkpt lat="45.8403756" lon="10.8258991"><ele>77.75</ele><time>2026-03-28T12:56:14.705Z</time></trkpt><trkpt lat="45.8405046" lon="10.8258524"><ele>83.0</ele><time>2026-03-28T12:56:15.706Z</time></trkpt><trkpt lat="45.840627" lon="10.8258116"><ele>83.0</ele><time>2026-03-28T12:56:16.705Z</time></trkpt><trkpt lat="45.8407475" lon="10.8257795"><ele>83.0</ele><time>2026-03-28T12:56:17.705Z</time></trkpt><trkpt lat="45.8408672" lon="10.8257663"><ele>83.0</ele><time>2026-03-28T12:56:18.706Z</time></trkpt><trkpt lat="45.8409917" lon="10.8257684"><ele>83.0</ele><time>2026-03-28T12:56:19.706Z</time></trkpt><trkpt lat="45.841125" lon="10.8257823"><ele>86.0</ele><time>2026-03-28T12:56:20.706Z</time></trkpt><trkpt lat="45.8412785" lon="10.8258137"><ele>89.0</ele><time>2026-03-28T12:56:21.706Z</time></trkpt><trkpt lat="45.8414427" lon="10.8258475"><ele>92.0</ele><time>2026-03-28T12:56:22.706Z</time></trkpt><trkpt lat="45.8415982" lon="10.8258802"><ele>92.0</ele><time>2026-03-28T12:56:23.705Z</time></trkpt><trkpt lat="45.84174" lon="10.8259298"><ele>92.0</ele><time>2026-03-28T12:56:24.705Z</time></trkpt><trkpt lat="45.8418744" lon="10.8260023"><ele>92.0</ele><time>2026-03-28T12:56:25.705Z</time></trkpt><trkpt lat="45.8420014" lon="10.8260907"><ele>92.0</ele><time>2026-03-28T12:56:26.705Z</time></trkpt><trkpt lat="45.8421211" lon="10.8261886"><ele>87.0</ele><time>2026-03-28T12:56:27.705Z</time></trkpt><trkpt lat="45.8422395" lon="10.8262688"><ele>82.0</ele><time>2026-03-28T12:56:28.705Z</time></trkpt><trkpt lat="45.8423648" lon="10.8263111"><ele>77.0</ele><time>2026-03-28T12:56:29.705Z</time></trkpt><trkpt lat="45.8424939" lon="10.8263462"><ele>72.0</ele><time>2026-03-28T12:56:30.705Z</time></trkpt><trkpt lat="45.8426198" lon="10.8263879"><ele>77.25</ele><time>2026-03-28T12:56:31.706Z</time></trkpt><trkpt lat="45.8427516" lon="10.8264601"><ele>82.5</ele><time>2026-03-28T12:56:32.706Z</time></trkpt><trkpt lat="45.8428795" lon="10.8265337"><ele>87.75</ele><time>2026-03-28T12:56:33.705Z</time></trkpt><trkpt lat="45.8430032" lon="10.8266156"><ele>93.0</ele><time>2026-03-28T12:56:34.705Z</time></trkpt><trkpt lat="45.8431284" lon="10.8266831"><ele>93.0</ele><time>2026-03-28T12:56:35.704Z</time></trkpt><trkpt lat="45.8432546" lon="10.8267588"><ele>93.0</ele><time>2026-03-28T12:56:36.705Z</time></trkpt><trkpt lat="45.8433818" lon="10.8268376"><ele>93.0</ele><time>2026-03-28T12:56:37.706Z</time></trkpt><trkpt lat="45.8435053" lon="10.8269245"><ele>93.0</ele><time>2026-03-28T12:56:38.706Z</time></trkpt><trkpt lat="45.8436312" lon="10.8270121"><ele>91.0</ele><time>2026-03-28T12:56:39.704Z</time></trkpt><trkpt lat="45.8437505" lon="10.8271138"><ele>89.0</ele><time>2026-03-28T12:56:40.705Z</time></trkpt><trkpt lat="45.8438637" lon="10.8272428"><ele>87.0</ele><time>2026-03-28T12:56:41.704Z</time></trkpt><trkpt lat="45.8439763" lon="10.8273759"><ele>85.0</ele><time>2026-03-28T12:56:42.704Z</time></trkpt><trkpt lat="45.8440829" lon="10.8275172"><ele>84.75</ele><time>2026-03-28T12:56:43.706Z</time></trkpt><trkpt lat="45.844182" lon="10.827678"><ele>84.5</ele><time>2026-03-28T12:56:44.705Z</time></trkpt><trkpt lat="45.8442816" lon="10.827836"><ele>84.25</ele><time>2026-03-28T12:56:45.705Z</time></trkpt><trkpt lat="45.8443784" lon="10.8279777"><ele>84.0</ele><time>2026-03-28T12:56:46.705Z</time></trkpt><trkpt lat="45.8444789" lon="10.8281095"><ele>84.0</ele><time>2026-03-28T12:56:47.705Z</time></trkpt><trkpt lat="45.8445893" lon="10.8282284"><ele>84.0</ele><time>2026-03-28T12:56:48.704Z</time></trkpt><trkpt lat="45.8447018" lon="10.8283375"><ele>84.0</ele><time>2026-03-28T12:56:49.705Z</time></trkpt><trkpt lat="45.8448241" lon="10.8284427"><ele>84.0</ele><time>2026-03-28T12:56:50.705Z</time></trkpt><trkpt lat="45.84495" lon="10.8285512"><ele>80.5</ele><time>2026-03-28T12:56:51.706Z</time></trkpt><trkpt lat="45.8450701" lon="10.8286552"><ele>77.0</ele><time>2026-03-28T12:56:52.704Z</time></trkpt><trkpt lat="45.8451877" lon="10.8287623"><ele>73.5</ele><time>2026-03-28T12:56:53.705Z</time></trkpt><trkpt lat="45.8452925" lon="10.8288719"><ele>70.0</ele><time>2026-03-28T12:56:54.704Z</time></trkpt><trkpt lat="45.8453931" lon="10.8290006"><ele>71.75</ele><time>2026-03-28T12:56:55.704Z</time></trkpt><trkpt lat="45.8454919" lon="10.8291531"><ele>73.5</ele><time>2026-03-28T12:56:56.709Z</time></trkpt><trkpt lat="45.8455878" lon="10.8293222"><ele>75.25</ele><time>2026-03-28T12:56:57.706Z</time></trkpt><trkpt lat="45.8456792" lon="10.8294837"><ele>77.0</ele><time>2026-03-28T12:56:58.704Z</time></trkpt><trkpt lat="45.845757" lon="10.8296406"><ele>77.0</ele><time>2026-03-28T12:56:59.706Z</time></trkpt><trkpt lat="45.8458378" lon="10.829785"><ele>77.0</ele><time>2026-03-28T12:57:00.704Z</time></trkpt><trkpt lat="45.8459305" lon="10.8299124"><ele>77.0</ele><time>2026-03-28T12:57:01.704Z</time></trkpt><trkpt lat="45.8460319" lon="10.8300189"><ele>77.0</ele><time>2026-03-28T12:57:02.706Z</time></trkpt><trkpt lat="45.8461466" lon="10.8301137"><ele>74.0</ele><time>2026-03-28T12:57:03.708Z</time></trkpt><trkpt lat="45.8462638" lon="10.8301884"><ele>71.0</ele><time>2026-03-28T12:57:04.704Z</time></trkpt><trkpt lat="45.8464081" lon="10.8302412"><ele>68.0</ele><time>2026-03-28T12:57:05.705Z</time></trkpt><trkpt lat="45.8465593" lon="10.8302972"><ele>65.0</ele><time>2026-03-28T12:57:06.706Z</time></trkpt><trkpt lat="45.8467196" lon="10.830348"><ele>65.33333333333334</ele><time>2026-03-28T12:57:07.705Z</time></trkpt><trkpt lat="45.8468867" lon="10.8303998"><ele>65.66666666666667</ele><time>2026-03-28T12:57:08.705Z</time></trkpt><trkpt lat="45.8470565" lon="10.8304422"><ele>66.0</ele><time>2026-03-28T12:57:09.705Z</time></trkpt><trkpt lat="45.8472247" lon="10.8304898"><ele>66.0</ele><time>2026-03-28T12:57:10.705Z</time></trkpt><trkpt lat="45.8473847" lon="10.8305379"><ele>66.0</ele><time>2026-03-28T12:57:11.703Z</time></trkpt><trkpt lat="45.8475433" lon="10.8305729"><ele>66.0</ele><time>2026-03-28T12:57:12.705Z</time></trkpt><trkpt lat="45.8477058" lon="10.8305714"><ele>68.0</ele><time>2026-03-28T12:57:13.704Z</time></trkpt><trkpt lat="45.8478583" lon="10.8305726"><ele>70.0</ele><time>2026-03-28T12:57:14.705Z</time></trkpt><trkpt lat="45.8479954" lon="10.8305908"><ele>72.0</ele><time>2026-03-28T12:57:15.704Z</time></trkpt><trkpt lat="45.8481406" lon="10.8306065"><ele>74.0</ele><time>2026-03-28T12:57:16.705Z</time></trkpt><trkpt lat="45.8482802" lon="10.8306616"><ele>74.0</ele><time>2026-03-28T12:57:17.706Z</time></trkpt><trkpt lat="45.8484171" lon="10.8307252"><ele>74.0</ele><time>2026-03-28T12:57:18.706Z</time></trkpt><trkpt lat="45.8485589" lon="10.8307902"><ele>74.0</ele><time>2026-03-28T12:57:19.704Z</time></trkpt><trkpt lat="45.8487093" lon="10.8308547"><ele>70.33333333333334</ele><time>2026-03-28T12:57:20.705Z</time></trkpt><trkpt lat="45.8488496" lon="10.8309238"><ele>66.66666666666667</ele><time>2026-03-28T12:57:21.706Z</time></trkpt><trkpt lat="45.8489959" lon="10.8309953"><ele>63.0</ele><time>2026-03-28T12:57:22.705Z</time></trkpt><trkpt lat="45.8491453" lon="10.831064"><ele>66.66666666666667</ele><time>2026-03-28T12:57:23.704Z</time></trkpt><trkpt lat="45.849298" lon="10.8311341"><ele>70.33333333333334</ele><time>2026-03-28T12:57:24.705Z</time></trkpt><trkpt lat="45.8494453" lon="10.8312258"><ele>74.0</ele><time>2026-03-28T12:57:25.704Z</time></trkpt><trkpt lat="45.849591" lon="10.8313264"><ele>74.0</ele><time>2026-03-28T12:57:26.706Z</time></trkpt><trkpt lat="45.8497462" lon="10.8314267"><ele>74.0</ele><time>2026-03-28T12:57:27.704Z</time></trkpt><trkpt lat="45.8499037" lon="10.8315245"><ele>74.0</ele><time>2026-03-28T12:57:28.704Z</time></trkpt><trkpt lat="45.8500453" lon="10.8316204"><ele>74.66666666666667</ele><time>2026-03-28T12:57:29.705Z</time></trkpt><trkpt lat="45.8501851" lon="10.8317099"><ele>75.33333333333333</ele><time>2026-03-28T12:57:30.711Z</time></trkpt><trkpt lat="45.8503323" lon="10.8317745"><ele>76.0</ele><time>2026-03-28T12:57:31.706Z</time></trkpt><trkpt lat="45.8504802" lon="10.8318095"><ele>76.0</ele><time>2026-03-28T12:57:32.706Z</time></trkpt><trkpt lat="45.8506321" lon="10.8318642"><ele>76.0</ele><time>2026-03-28T12:57:33.706Z</time></trkpt><trkpt lat="45.850777" lon="10.831914"><ele>76.0</ele><time>2026-03-28T12:57:34.706Z</time></trkpt><trkpt lat="45.8509209" lon="10.8319561"><ele>77.66666666666666</ele><time>2026-03-28T12:57:35.706Z</time></trkpt><trkpt lat="45.8510627" lon="10.8320014"><ele>79.33333333333333</ele><time>2026-03-28T12:57:36.705Z</time></trkpt><trkpt lat="45.8512095" lon="10.8320379"><ele>81.0</ele><time>2026-03-28T12:57:37.704Z</time></trkpt><trkpt lat="45.8513653" lon="10.8320869"><ele>81.0</ele><time>2026-03-28T12:57:38.705Z</time></trkpt><trkpt lat="45.8515191" lon="10.8321276"><ele>81.0</ele><time>2026-03-28T12:57:39.706Z</time></trkpt><trkpt lat="45.8516739" lon="10.8321694"><ele>81.0</ele><time>2026-03-28T12:57:40.705Z</time></trkpt><trkpt lat="45.8518335" lon="10.83221"><ele>87.66666666666666</ele><time>2026-03-28T12:57:41.706Z</time></trkpt><trkpt lat="45.8519719" lon="10.8323082"><ele>94.33333333333333</ele><time>2026-03-28T12:57:42.705Z</time></trkpt><trkpt lat="45.8521107" lon="10.8323788"><ele>101.0</ele><time>2026-03-28T12:57:43.705Z</time></trkpt><trkpt lat="45.852249" lon="10.8324548"><ele>101.0</ele><time>2026-03-28T12:57:44.705Z</time></trkpt><trkpt lat="45.8523865" lon="10.8325337"><ele>101.0</ele><time>2026-03-28T12:57:45.704Z</time></trkpt><trkpt lat="45.853426" lon="10.8331248"><ele>101.33333333333333</ele><time>2026-03-28T12:57:52.706Z</time></trkpt><trkpt lat="45.8535672" lon="10.8332511"><ele>101.66666666666666</ele><time>2026-03-28T12:57:53.706Z</time></trkpt><trkpt lat="45.8537085" lon="10.8333792"><ele>102.0</ele><time>2026-03-28T12:57:54.705Z</time></trkpt><trkpt lat="45.8538481" lon="10.8334732"><ele>96.33333333333333</ele><time>2026-03-28T12:57:55.705Z</time></trkpt><trkpt lat="45.8539907" lon="10.833569"><ele>90.66666666666666</ele><time>2026-03-28T12:57:56.705Z</time></trkpt><trkpt lat="45.8541368" lon="10.8336684"><ele>85.0</ele><time>2026-03-28T12:57:57.705Z</time></trkpt><trkpt lat="45.8542766" lon="10.8337708"><ele>84.33333333333333</ele><time>2026-03-28T12:57:58.705Z</time></trkpt><trkpt lat="45.8544197" lon="10.8338547"><ele>83.66666666666667</ele><time>2026-03-28T12:57:59.705Z</time></trkpt><trkpt lat="45.8545631" lon="10.8339214"><ele>83.0</ele><time>2026-03-28T12:58:00.705Z</time></trkpt><trkpt lat="45.8547103" lon="10.8339737"><ele>83.0</ele><time>2026-03-28T12:58:01.705Z</time></trkpt><trkpt lat="45.8548606" lon="10.8340318"><ele>83.0</ele><time>2026-03-28T12:58:02.705Z</time></trkpt><trkpt lat="45.8550164" lon="10.8340681"><ele>83.0</ele><time>2026-03-28T12:58:03.705Z</time></trkpt><trkpt lat="45.8551768" lon="10.8340811"><ele>79.0</ele><time>2026-03-28T12:58:04.705Z</time></trkpt><trkpt lat="45.8553394" lon="10.8340854"><ele>75.0</ele><time>2026-03-28T12:58:05.705Z</time></trkpt><trkpt lat="45.8554946" lon="10.8340647"><ele>71.0</ele><time>2026-03-28T12:58:06.706Z</time></trkpt><trkpt lat="45.8556472" lon="10.834037"><ele>71.0</ele><time>2026-03-28T12:58:07.705Z</time></trkpt><trkpt lat="45.8557995" lon="10.833986"><ele>71.0</ele><time>2026-03-28T12:58:08.706Z</time></trkpt><trkpt lat="45.8559649" lon="10.8339299"><ele>71.0</ele><time>2026-03-28T12:58:09.705Z</time></trkpt><trkpt lat="45.8561284" lon="10.8338804"><ele>68.0</ele><time>2026-03-28T12:58:10.705Z</time></trkpt><trkpt lat="45.8562883" lon="10.8338222"><ele>65.0</ele><time>2026-03-28T12:58:11.706Z</time></trkpt><trkpt lat="45.8564476" lon="10.8337828"><ele>62.0</ele><time>2026-03-28T12:58:12.706Z</time></trkpt><trkpt lat="45.8566063" lon="10.8337388"><ele>62.0</ele><time>2026-03-28T12:58:13.705Z</time></trkpt><trkpt lat="45.8576104" lon="10.8332294"><ele>62.0</ele><time>2026-03-28T12:58:21.706Z</time></trkpt><trkpt lat="45.8577617" lon="10.8331386"><ele>62.0</ele><time>2026-03-28T12:58:22.705Z</time></trkpt><trkpt lat="45.8578947" lon="10.8330977"><ele>62.0</ele><time>2026-03-28T12:58:23.706Z</time></trkpt><trkpt lat="45.858027" lon="10.8330573"><ele>62.0</ele><time>2026-03-28T12:58:24.705Z</time></trkpt><trkpt lat="45.8581635" lon="10.8330072"><ele>62.0</ele><time>2026-03-28T12:58:25.706Z</time></trkpt><trkpt lat="45.8582433" lon="10.8329457"><ele>62.0</ele><time>2026-03-28T12:58:26.704Z</time></trkpt><trkpt lat="45.8583799" lon="10.8328337"><ele>62.0</ele><time>2026-03-28T12:58:27.705Z</time></trkpt><trkpt lat="45.8585073" lon="10.8327672"><ele>62.0</ele><time>2026-03-28T12:58:28.705Z</time></trkpt><trkpt lat="45.8586343" lon="10.8327047"><ele>62.0</ele><time>2026-03-28T12:58:29.705Z</time></trkpt><trkpt lat="45.8587527" lon="10.8326467"><ele>62.0</ele><time>2026-03-28T12:58:30.706Z</time></trkpt><trkpt lat="45.8588655" lon="10.8325987"><ele>62.0</ele><time>2026-03-28T12:58:31.706Z</time></trkpt><trkpt lat="45.8589838" lon="10.8325872"><ele>62.0</ele><time>2026-03-28T12:58:32.706Z</time></trkpt><trkpt lat="45.8591117" lon="10.8326026"><ele>62.0</ele><time>2026-03-28T12:58:33.705Z</time></trkpt><trkpt lat="45.8592517" lon="10.8326434"><ele>62.0</ele><time>2026-03-28T12:58:34.706Z</time></trkpt><trkpt lat="45.8593913" lon="10.8326837"><ele>62.0</ele><time>2026-03-28T12:58:35.705Z</time></trkpt><trkpt lat="45.8595261" lon="10.8327065"><ele>62.0</ele><time>2026-03-28T12:58:36.705Z</time></trkpt><trkpt lat="45.8596565" lon="10.8326974"><ele>62.0</ele><time>2026-03-28T12:58:37.705Z</time></trkpt><trkpt lat="45.859815" lon="10.8326922"><ele>62.0</ele><time>2026-03-28T12:58:38.705Z</time></trkpt><trkpt lat="45.8599629" lon="10.8326694"><ele>62.0</ele><time>2026-03-28T12:58:39.706Z</time></trkpt><trkpt lat="45.8601222" lon="10.8326505"><ele>62.0</ele><time>2026-03-28T12:58:40.705Z</time></trkpt><trkpt lat="45.8602752" lon="10.8326256"><ele>62.0</ele><time>2026-03-28T12:58:41.706Z</time></trkpt><trkpt lat="45.8612397" lon="10.8326943"><ele>62.0</ele><time>2026-03-28T12:58:49.706Z</time></trkpt><trkpt lat="45.8613447" lon="10.8327196"><ele>62.0</ele><time>2026-03-28T12:58:50.706Z</time></trkpt><trkpt lat="45.8614488" lon="10.8327613"><ele>62.0</ele><time>2026-03-28T12:58:51.706Z</time></trkpt><trkpt lat="45.8615601" lon="10.8328034"><ele>62.0</ele><time>2026-03-28T12:58:52.705Z</time></trkpt><trkpt lat="45.8616748" lon="10.832833"><ele>62.0</ele><time>2026-03-28T12:58:53.706Z</time></trkpt><trkpt lat="45.8617902" lon="10.8328532"><ele>62.0</ele><time>2026-03-28T12:58:54.706Z</time></trkpt><trkpt lat="45.8699726" lon="10.8349355"><ele>62.0</ele><time>2026-03-28T12:59:53.706Z</time></trkpt><trkpt lat="45.8700857" lon="10.8350317"><ele>62.0</ele><time>2026-03-28T12:59:54.705Z</time></trkpt><trkpt lat="45.8701986" lon="10.8351282"><ele>62.0</ele><time>2026-03-28T12:59:55.706Z</time></trkpt><trkpt lat="45.870315" lon="10.8352194"><ele>62.0</ele><time>2026-03-28T12:59:56.705Z</time></trkpt><trkpt lat="45.8704362" lon="10.8352966"><ele>62.0</ele><time>2026-03-28T12:59:57.706Z</time></trkpt><trkpt lat="45.8705611" lon="10.8353617"><ele>62.0</ele><time>2026-03-28T12:59:58.706Z</time></trkpt><trkpt lat="45.8706827" lon="10.8354331"><ele>62.0</ele><time>2026-03-28T12:59:59.705Z</time></trkpt><trkpt lat="45.8708057" lon="10.8354946"><ele>62.0</ele><time>2026-03-28T13:00:00.706Z</time></trkpt><trkpt lat="45.8798469" lon="10.8377945"><ele>63.25</ele><time>2026-03-28T13:01:00.705Z</time></trkpt><trkpt lat="45.8799653" lon="10.8378227"><ele>64.5</ele><time>2026-03-28T13:01:01.705Z</time></trkpt><trkpt lat="45.880089" lon="10.8378578"><ele>65.75</ele><time>2026-03-28T13:01:02.706Z</time></trkpt><trkpt lat="45.8802112" lon="10.8378846"><ele>67.0</ele><time>2026-03-28T13:01:03.705Z</time></trkpt><trkpt lat="45.8803369" lon="10.8379111"><ele>67.5</ele><time>2026-03-28T13:01:04.705Z</time></trkpt><trkpt lat="45.8804587" lon="10.8379374"><ele>68.0</ele><time>2026-03-28T13:01:05.706Z</time></trkpt><trkpt lat="45.8805781" lon="10.8379514"><ele>68.5</ele><time>2026-03-28T13:01:06.706Z</time></trkpt><trkpt lat="45.8806903" lon="10.8379682"><ele>69.0</ele><time>2026-03-28T13:01:07.705Z</time></trkpt><trkpt lat="45.8807926" lon="10.8379867"><ele>69.0</ele><time>2026-03-28T13:01:08.706Z</time></trkpt><trkpt lat="45.8808852" lon="10.8380063"><ele>69.0</ele><time>2026-03-28T13:01:09.706Z</time></trkpt><trkpt lat="45.8809774" lon="10.8380249"><ele>69.0</ele><time>2026-03-28T13:01:10.706Z</time></trkpt><trkpt lat="45.8810669" lon="10.8380385"><ele>69.0</ele><time>2026-03-28T13:01:11.705Z</time></trkpt><trkpt lat="45.88116" lon="10.8380498"><ele>69.0</ele><time>2026-03-28T13:01:12.706Z</time></trkpt><trkpt lat="45.8812536" lon="10.8380615"><ele>70.8</ele><time>2026-03-28T13:01:13.705Z</time></trkpt><trkpt lat="45.8813384" lon="10.838078"><ele>72.60000000000001</ele><time>2026-03-28T13:01:14.706Z</time></trkpt><trkpt lat="45.881425" lon="10.8380915"><ele>74.4</ele><time>2026-03-28T13:01:15.705Z</time></trkpt><trkpt lat="45.8815189" lon="10.838103"><ele>76.2</ele><time>2026-03-28T13:01:16.706Z</time></trkpt><trkpt lat="45.8816224" lon="10.8381146"><ele>78.0</ele><time>2026-03-28T13:01:17.705Z</time></trkpt><trkpt lat="45.8817266" lon="10.8381246"><ele>77.0</ele><time>2026-03-28T13:01:18.706Z</time></trkpt><trkpt lat="45.8818263" lon="10.8381368"><ele>76.0</ele><time>2026-03-28T13:01:19.705Z</time></trkpt><trkpt lat="45.8819171" lon="10.8381502"><ele>75.0</ele><time>2026-03-28T13:01:20.706Z</time></trkpt><trkpt lat="45.8820128" lon="10.838157"><ele>74.0</ele><time>2026-03-28T13:01:21.705Z</time></trkpt><trkpt lat="45.8821093" lon="10.8381726"><ele>73.0</ele><time>2026-03-28T13:01:22.706Z</time></trkpt><trkpt lat="45.8821993" lon="10.8381911"><ele>73.0</ele><time>2026-03-28T13:01:23.705Z</time></trkpt><trkpt lat="45.8822873" lon="10.8382124"><ele>73.0</ele><time>2026-03-28T13:01:24.705Z</time></trkpt><trkpt lat="45.8823776" lon="10.8382343"><ele>73.0</ele><time>2026-03-28T13:01:25.706Z</time></trkpt><trkpt lat="45.8824677" lon="10.8382604"><ele>73.0</ele><time>2026-03-28T13:01:26.705Z</time></trkpt><trkpt lat="45.8825621" lon="10.8382844"><ele>73.0</ele><time>2026-03-28T13:01:27.706Z</time></trkpt><trkpt lat="45.8826512" lon="10.8383122"><ele>73.33333333333333</ele><time>2026-03-28T13:01:28.706Z</time></trkpt><trkpt lat="45.8827334" lon="10.8383422"><ele>73.66666666666666</ele><time>2026-03-28T13:01:29.705Z</time></trkpt><trkpt lat="45.8828172" lon="10.838364"><ele>74.0</ele><time>2026-03-28T13:01:30.706Z</time></trkpt><trkpt lat="45.8828929" lon="10.8383895"><ele>74.33333333333333</ele><time>2026-03-28T13:01:31.705Z</time></trkpt><trkpt lat="45.8829674" lon="10.8384168"><ele>74.66666666666667</ele><time>2026-03-28T13:01:32.705Z</time></trkpt><trkpt lat="45.8830496" lon="10.8384458"><ele>75.0</ele><time>2026-03-28T13:01:33.705Z</time></trkpt><trkpt lat="45.8831288" lon="10.8384754"><ele>74.0</ele><time>2026-03-28T13:01:34.705Z</time></trkpt><trkpt lat="45.8832085" lon="10.8385083"><ele>73.0</ele><time>2026-03-28T13:01:35.706Z</time></trkpt><trkpt lat="45.8832895" lon="10.838537"><ele>72.0</ele><time>2026-03-28T13:01:36.706Z</time></trkpt><trkpt lat="45.8833739" lon="10.8385667"><ele>71.0</ele><time>2026-03-28T13:01:37.705Z</time></trkpt><trkpt lat="45.8834528" lon="10.8385898"><ele>70.0</ele><time>2026-03-28T13:01:38.705Z</time></trkpt><trkpt lat="45.8835193" lon="10.8386084"><ele>69.0</ele><time>2026-03-28T13:01:39.706Z</time></trkpt><trkpt lat="45.883595" lon="10.83863"><ele>69.0</ele><time>2026-03-28T13:01:41.705Z</time></trkpt><trkpt lat="45.8836769" lon="10.8386435"><ele>69.0</ele><time>2026-03-28T13:01:49.706Z</time></trkpt><trkpt lat="45.8837857" lon="10.8386266"><ele>69.0</ele><time>2026-03-28T13:01:51.705Z</time></trkpt><trkpt lat="45.8839049" lon="10.8385698"><ele>69.0</ele><time>2026-03-28T13:01:53.705Z</time></trkpt><trkpt lat="45.8839778" lon="10.8385149"><ele>69.0</ele><time>2026-03-28T13:01:54.705Z</time></trkpt><trkpt lat="45.8840622" lon="10.8384416"><ele>70.4</ele><time>2026-03-28T13:01:55.706Z</time></trkpt><trkpt lat="45.8841572" lon="10.8383606"><ele>71.80000000000001</ele><time>2026-03-28T13:01:56.706Z</time></trkpt><trkpt lat="45.8842548" lon="10.8382884"><ele>73.19999999999999</ele><time>2026-03-28T13:01:57.705Z</time></trkpt><trkpt lat="45.8843442" lon="10.8382213"><ele>74.6</ele><time>2026-03-28T13:01:58.705Z</time></trkpt><trkpt lat="45.8844365" lon="10.8381533"><ele>76.0</ele><time>2026-03-28T13:01:59.706Z</time></trkpt><trkpt lat="45.8845188" lon="10.8380941"><ele>76.33333333333333</ele><time>2026-03-28T13:02:00.706Z</time></trkpt><trkpt lat="45.8845962" lon="10.8380399"><ele>76.66666666666666</ele><time>2026-03-28T13:02:01.706Z</time></trkpt><trkpt lat="45.8846693" lon="10.8379971"><ele>77.0</ele><time>2026-03-28T13:02:02.706Z</time></trkpt><trkpt lat="45.8847464" lon="10.8379598"><ele>77.33333333333333</ele><time>2026-03-28T13:02:03.705Z</time></trkpt><trkpt lat="45.8848194" lon="10.837937"><ele>77.66666666666667</ele><time>2026-03-28T13:02:04.705Z</time></trkpt><trkpt lat="45.8848903" lon="10.8379182"><ele>78.0</ele><time>2026-03-28T13:02:05.706Z</time></trkpt><trkpt lat="45.8849549" lon="10.8379145"><ele>78.0</ele><time>2026-03-28T13:02:06.707Z</time></trkpt><trkpt lat="45.8850216" lon="10.8379154"><ele>78.0</ele><time>2026-03-28T13:02:07.706Z</time></trkpt><trkpt lat="45.8851477" lon="10.8379113"><ele>78.0</ele><time>2026-03-28T13:02:09.707Z</time></trkpt><trkpt lat="45.8852116" lon="10.8379124"><ele>78.0</ele><time>2026-03-28T13:02:10.705Z</time></trkpt><trkpt lat="45.8852748" lon="10.8379116"><ele>78.0</ele><time>2026-03-28T13:02:11.705Z</time></trkpt><trkpt lat="45.8853435" lon="10.8379045"><ele>78.0</ele><time>2026-03-28T13:02:12.705Z</time></trkpt><trkpt lat="45.8854084" lon="10.8379004"><ele>78.83333333333333</ele><time>2026-03-28T13:02:13.705Z</time></trkpt><trkpt lat="45.8854802" lon="10.837898"><ele>79.66666666666667</ele><time>2026-03-28T13:02:14.706Z</time></trkpt><trkpt lat="45.8855544" lon="10.8378959"><ele>80.5</ele><time>2026-03-28T13:02:15.705Z</time></trkpt><trkpt lat="45.8856352" lon="10.8378974"><ele>81.33333333333334</ele><time>2026-03-28T13:02:16.705Z</time></trkpt><trkpt lat="45.8857131" lon="10.8378932"><ele>82.16666666666667</ele><time>2026-03-28T13:02:17.705Z</time></trkpt><trkpt lat="45.8857882" lon="10.8378833"><ele>83.0</ele><time>2026-03-28T13:02:18.705Z</time></trkpt><trkpt lat="45.8858676" lon="10.8378821"><ele>83.5</ele><time>2026-03-28T13:02:19.705Z</time></trkpt><trkpt lat="45.8859434" lon="10.8378823"><ele>84.0</ele><time>2026-03-28T13:02:20.705Z</time></trkpt><trkpt lat="45.886028" lon="10.8378719"><ele>84.5</ele><time>2026-03-28T13:02:21.706Z</time></trkpt><trkpt lat="45.8861122" lon="10.8378709"><ele>85.0</ele><time>2026-03-28T13:02:22.706Z</time></trkpt><trkpt lat="45.8861953" lon="10.8378683"><ele>85.5</ele><time>2026-03-28T13:02:23.705Z</time></trkpt><trkpt lat="45.8862814" lon="10.8378625"><ele>86.0</ele><time>2026-03-28T13:02:24.704Z</time></trkpt><trkpt lat="45.8863704" lon="10.8378625"><ele>86.0</ele><time>2026-03-28T13:02:25.705Z</time></trkpt><trkpt lat="45.8864603" lon="10.8378579"><ele>86.0</ele><time>2026-03-28T13:02:26.705Z</time></trkpt><trkpt lat="45.8865389" lon="10.8378517"><ele>86.0</ele><time>2026-03-28T13:02:27.705Z</time></trkpt><trkpt lat="45.8866155" lon="10.8378466"><ele>86.0</ele><time>2026-03-28T13:02:28.706Z</time></trkpt><trkpt lat="45.8866903" lon="10.8378509"><ele>86.0</ele><time>2026-03-28T13:02:29.705Z</time></trkpt><trkpt lat="45.8867596" lon="10.837849"><ele>86.0</ele><time>2026-03-28T13:02:30.705Z</time></trkpt><trkpt lat="45.8868758" lon="10.8378771"><ele>86.0</ele><time>2026-03-28T13:02:32.705Z</time></trkpt><trkpt lat="45.8869699" lon="10.8379132"><ele>86.0</ele><time>2026-03-28T13:02:34.706Z</time></trkpt><trkpt lat="45.8870496" lon="10.8379547"><ele>86.0</ele><time>2026-03-28T13:02:36.706Z</time></trkpt><trkpt lat="45.8871248" lon="10.8379935"><ele>86.0</ele><time>2026-03-28T13:02:38.705Z</time></trkpt><trkpt lat="45.8872198" lon="10.8380637"><ele>86.0</ele><time>2026-03-28T13:02:40.705Z</time></trkpt><trkpt lat="45.8873273" lon="10.83809"><ele>86.0</ele><time>2026-03-28T13:02:42.705Z</time></trkpt><trkpt lat="45.8874002" lon="10.8379886"><ele>86.0</ele><time>2026-03-28T13:02:44.705Z</time></trkpt><trkpt lat="45.8874677" lon="10.8378262"><ele>86.0</ele><time>2026-03-28T13:02:46.706Z</time></trkpt><trkpt lat="45.8875074" lon="10.8377401"><ele>86.0</ele><time>2026-03-28T13:02:47.705Z</time></trkpt><trkpt lat="45.8875498" lon="10.8376593"><ele>86.0</ele><time>2026-03-28T13:02:48.706Z</time></trkpt><trkpt lat="45.8875935" lon="10.8375858"><ele>86.0</ele><time>2026-03-28T13:02:49.706Z</time></trkpt><trkpt lat="45.8876408" lon="10.8375042"><ele>87.6</ele><time>2026-03-28T13:02:50.705Z</time></trkpt><trkpt lat="45.8876878" lon="10.8374257"><ele>89.19999999999999</ele><time>2026-03-28T13:02:51.706Z</time></trkpt><trkpt lat="45.8877528" lon="10.837363"><ele>90.80000000000001</ele><time>2026-03-28T13:02:53.706Z</time></trkpt><trkpt lat="45.8878359" lon="10.8372521"><ele>92.4</ele><time>2026-03-28T13:02:55.706Z</time></trkpt><trkpt lat="45.8879179" lon="10.8371456"><ele>94.0</ele><time>2026-03-28T13:02:57.705Z</time></trkpt><trkpt lat="45.8925024" lon="10.8370195"><ele>97.0</ele><time>2026-03-28T13:03:29.706Z</time></trkpt><trkpt lat="45.892651" lon="10.8371668"><ele>100.0</ele><time>2026-03-28T13:03:30.706Z</time></trkpt><trkpt lat="45.8927927" lon="10.8372985"><ele>103.0</ele><time>2026-03-28T13:03:31.705Z</time></trkpt><trkpt lat="45.8929306" lon="10.8374294"><ele>103.0</ele><time>2026-03-28T13:03:32.705Z</time></trkpt><trkpt lat="45.8930691" lon="10.8375583"><ele>103.0</ele><time>2026-03-28T13:03:33.705Z</time></trkpt><trkpt lat="45.8942411" lon="10.8382803"><ele>102.33333333333334</ele><time>2026-03-28T13:03:41.705Z</time></trkpt><trkpt lat="45.894416" lon="10.8383137"><ele>101.66666666666666</ele><time>2026-03-28T13:03:42.705Z</time></trkpt><trkpt lat="45.8945793" lon="10.8383432"><ele>101.0</ele><time>2026-03-28T13:03:43.706Z</time></trkpt><trkpt lat="45.8947366" lon="10.8383778"><ele>101.0</ele><time>2026-03-28T13:03:44.705Z</time></trkpt><trkpt lat="45.8948909" lon="10.838408"><ele>101.0</ele><time>2026-03-28T13:03:45.705Z</time></trkpt><trkpt lat="45.8950391" lon="10.8384223"><ele>101.0</ele><time>2026-03-28T13:03:46.706Z</time></trkpt><trkpt lat="45.8951805" lon="10.8384225"><ele>101.0</ele><time>2026-03-28T13:03:47.706Z</time></trkpt><trkpt lat="45.8953149" lon="10.8384123"><ele>101.5</ele><time>2026-03-28T13:03:48.705Z</time></trkpt><trkpt lat="45.8954478" lon="10.8383884"><ele>102.0</ele><time>2026-03-28T13:03:49.705Z</time></trkpt><trkpt lat="45.895574" lon="10.8383578"><ele>102.5</ele><time>2026-03-28T13:03:50.705Z</time></trkpt><trkpt lat="45.8957" lon="10.8383188"><ele>103.0</ele><time>2026-03-28T13:03:51.706Z</time></trkpt><trkpt lat="45.895821" lon="10.8382751"><ele>102.83333333333334</ele><time>2026-03-28T13:03:52.705Z</time></trkpt><trkpt lat="45.8959274" lon="10.8382341"><ele>102.66666666666667</ele><time>2026-03-28T13:03:53.705Z</time></trkpt><trkpt lat="45.8960087" lon="10.8382008"><ele>102.5</ele><time>2026-03-28T13:03:54.705Z</time></trkpt><trkpt lat="45.89607" lon="10.8381783"><ele>102.33333333333334</ele><time>2026-03-28T13:03:55.706Z</time></trkpt><trkpt lat="45.8961358" lon="10.8381627"><ele>102.16666666666667</ele><time>2026-03-28T13:03:57.705Z</time></trkpt><trkpt lat="45.8962084" lon="10.8381737"><ele>102.0</ele><time>2026-03-28T13:04:04.706Z</time></trkpt><trkpt lat="45.8962788" lon="10.8382341"><ele>102.0</ele><time>2026-03-28T13:04:06.706Z</time></trkpt><trkpt lat="45.8963636" lon="10.8383547"><ele>102.0</ele><time>2026-03-28T13:04:08.706Z</time></trkpt><trkpt lat="45.8964229" lon="10.8383895"><ele>102.0</ele><time>2026-03-28T13:04:09.706Z</time></trkpt><trkpt lat="45.8964938" lon="10.8383995"><ele>102.0</ele><time>2026-03-28T13:04:10.706Z</time></trkpt><trkpt lat="45.8965749" lon="10.838381"><ele>102.0</ele><time>2026-03-28T13:04:11.705Z</time></trkpt><trkpt lat="45.8966662" lon="10.8383501"><ele>102.0</ele><time>2026-03-28T13:04:12.706Z</time></trkpt><trkpt lat="45.8967695" lon="10.8383239"><ele>101.25</ele><time>2026-03-28T13:04:13.705Z</time></trkpt><trkpt lat="45.8968851" lon="10.8382986"><ele>100.5</ele><time>2026-03-28T13:04:14.705Z</time></trkpt><trkpt lat="45.8970154" lon="10.8382669"><ele>99.75</ele><time>2026-03-28T13:04:15.706Z</time></trkpt><trkpt lat="45.8971568" lon="10.8382348"><ele>99.0</ele><time>2026-03-28T13:04:16.706Z</time></trkpt><trkpt lat="45.8972982" lon="10.8382083"><ele>99.0</ele><time>2026-03-28T13:04:17.704Z</time></trkpt><trkpt lat="45.8974308" lon="10.8381815"><ele>99.0</ele><time>2026-03-28T13:04:18.705Z</time></trkpt><trkpt lat="45.8975672" lon="10.8381584"><ele>99.0</ele><time>2026-03-28T13:04:19.705Z</time></trkpt><trkpt lat="45.8977044" lon="10.8381388"><ele>99.0</ele><time>2026-03-28T13:04:20.706Z</time></trkpt><trkpt lat="45.8978456" lon="10.8381188"><ele>99.0</ele><time>2026-03-28T13:04:21.706Z</time></trkpt><trkpt lat="45.8979879" lon="10.8380966"><ele>99.0</ele><time>2026-03-28T13:04:22.705Z</time></trkpt><trkpt lat="45.8981319" lon="10.8380763"><ele>99.0</ele><time>2026-03-28T13:04:23.706Z</time></trkpt><trkpt lat="45.898278" lon="10.8380596"><ele>99.0</ele><time>2026-03-28T13:04:24.705Z</time></trkpt><trkpt lat="45.8984225" lon="10.8380391"><ele>99.0</ele><time>2026-03-28T13:04:25.704Z</time></trkpt><trkpt lat="45.8985655" lon="10.8380174"><ele>99.0</ele><time>2026-03-28T13:04:26.706Z</time></trkpt><trkpt lat="45.8987038" lon="10.837996"><ele>99.0</ele><time>2026-03-28T13:04:27.705Z</time></trkpt><trkpt lat="45.8988368" lon="10.8379761"><ele>99.0</ele><time>2026-03-28T13:04:28.705Z</time></trkpt><trkpt lat="45.8989587" lon="10.8379581"><ele>99.0</ele><time>2026-03-28T13:04:29.705Z</time></trkpt><trkpt lat="45.8990675" lon="10.8379409"><ele>99.0</ele><time>2026-03-28T13:04:30.705Z</time></trkpt><trkpt lat="45.8991576" lon="10.8379322"><ele>99.0</ele><time>2026-03-28T13:04:31.706Z</time></trkpt><trkpt lat="45.899234" lon="10.8379388"><ele>99.0</ele><time>2026-03-28T13:04:32.705Z</time></trkpt><trkpt lat="45.8993351" lon="10.8380315"><ele>99.0</ele><time>2026-03-28T13:04:34.706Z</time></trkpt><trkpt lat="45.8993706" lon="10.8381202"><ele>99.0</ele><time>2026-03-28T13:04:35.706Z</time></trkpt><trkpt lat="45.8994163" lon="10.8382172"><ele>99.0</ele><time>2026-03-28T13:04:36.706Z</time></trkpt><trkpt lat="45.8994861" lon="10.8383117"><ele>99.0</ele><time>2026-03-28T13:04:37.705Z</time></trkpt><trkpt lat="45.8995682" lon="10.838399"><ele>99.0</ele><time>2026-03-28T13:04:38.705Z</time></trkpt><trkpt lat="45.8996421" lon="10.8384976"><ele>99.0</ele><time>2026-03-28T13:04:39.706Z</time></trkpt><trkpt lat="45.8997122" lon="10.8386154"><ele>99.0</ele><time>2026-03-28T13:04:40.706Z</time></trkpt><trkpt lat="45.8997595" lon="10.8387607"><ele>99.0</ele><time>2026-03-28T13:04:41.706Z</time></trkpt><trkpt lat="45.8998037" lon="10.8389219"><ele>99.0</ele><time>2026-03-28T13:04:42.705Z</time></trkpt><trkpt lat="45.8998653" lon="10.8390911"><ele>99.0</ele><time>2026-03-28T13:04:43.705Z</time></trkpt><trkpt lat="45.8999541" lon="10.8392499"><ele>99.0</ele><time>2026-03-28T13:04:44.706Z</time></trkpt><trkpt lat="45.9000542" lon="10.8393989"><ele>99.0</ele><time>2026-03-28T13:04:45.705Z</time></trkpt><trkpt lat="45.9001785" lon="10.8395387"><ele>99.0</ele><time>2026-03-28T13:04:46.705Z</time></trkpt><trkpt lat="45.9003082" lon="10.8396798"><ele>99.0</ele><time>2026-03-28T13:04:47.706Z</time></trkpt><trkpt lat="45.9004382" lon="10.8398155"><ele>99.0</ele><time>2026-03-28T13:04:48.706Z</time></trkpt><trkpt lat="45.900565" lon="10.8399498"><ele>99.0</ele><time>2026-03-28T13:04:49.706Z</time></trkpt><trkpt lat="45.9006883" lon="10.8400791"><ele>99.33333333333334</ele><time>2026-03-28T13:04:50.707Z</time></trkpt><trkpt lat="45.9008142" lon="10.8402032"><ele>99.66666666666667</ele><time>2026-03-28T13:04:51.706Z</time></trkpt><trkpt lat="45.9009379" lon="10.8403284"><ele>100.0</ele><time>2026-03-28T13:04:52.705Z</time></trkpt><trkpt lat="45.9010646" lon="10.8404591"><ele>101.66666666666667</ele><time>2026-03-28T13:04:53.706Z</time></trkpt><trkpt lat="45.9011836" lon="10.8406106"><ele>103.33333333333334</ele><time>2026-03-28T13:04:54.706Z</time></trkpt><trkpt lat="45.9013026" lon="10.8407477"><ele>105.0</ele><time>2026-03-28T13:04:55.705Z</time></trkpt><trkpt lat="45.9014251" lon="10.8408929"><ele>104.66666666666666</ele><time>2026-03-28T13:04:56.705Z</time></trkpt><trkpt lat="45.9015476" lon="10.8410438"><ele>104.33333333333333</ele><time>2026-03-28T13:04:57.706Z</time></trkpt><trkpt lat="45.9016675" lon="10.8412022"><ele>104.0</ele><time>2026-03-28T13:04:58.706Z</time></trkpt><trkpt lat="45.9017933" lon="10.8413573"><ele>104.0</ele><time>2026-03-28T13:04:59.706Z</time></trkpt><trkpt lat="45.9019158" lon="10.8415177"><ele>104.0</ele><time>2026-03-28T13:05:00.706Z</time></trkpt><trkpt lat="45.9020389" lon="10.841676"><ele>104.0</ele><time>2026-03-28T13:05:01.705Z</time></trkpt><trkpt lat="45.9021552" lon="10.8418303"><ele>104.33333333333333</ele><time>2026-03-28T13:05:02.706Z</time></trkpt><trkpt lat="45.9022554" lon="10.8419933"><ele>104.66666666666666</ele><time>2026-03-28T13:05:03.705Z</time></trkpt><trkpt lat="45.9023487" lon="10.8421732"><ele>105.0</ele><time>2026-03-28T13:05:04.705Z</time></trkpt><trkpt lat="45.9024336" lon="10.8423607"><ele>105.0</ele><time>2026-03-28T13:05:05.705Z</time></trkpt><trkpt lat="45.902514" lon="10.8425579"><ele>105.0</ele><time>2026-03-28T13:05:06.705Z</time></trkpt><trkpt lat="45.9025867" lon="10.8427617"><ele>105.0</ele><time>2026-03-28T13:05:07.706Z</time></trkpt><trkpt lat="45.9026547" lon="10.8429689"><ele>106.5</ele><time>2026-03-28T13:05:08.706Z</time></trkpt><trkpt lat="45.9027102" lon="10.8431744"><ele>108.0</ele><time>2026-03-28T13:05:09.706Z</time></trkpt><trkpt lat="45.9027638" lon="10.8433734"><ele>109.5</ele><time>2026-03-28T13:05:10.707Z</time></trkpt><trkpt lat="45.9028155" lon="10.8435689"><ele>111.0</ele><time>2026-03-28T13:05:11.705Z</time></trkpt><trkpt lat="45.9028672" lon="10.8437646"><ele>105.0</ele><time>2026-03-28T13:05:12.707Z</time></trkpt><trkpt lat="45.904035" lon="10.8461426"><ele>105.0</ele><time>2026-03-28T13:05:24.705Z</time></trkpt><trkpt lat="45.9041523" lon="10.8463299"><ele>105.0</ele><time>2026-03-28T13:05:25.705Z</time></trkpt><trkpt lat="45.9042731" lon="10.8465286"><ele>105.0</ele><time>2026-03-28T13:05:26.706Z</time></trkpt><trkpt lat="45.9044022" lon="10.8467409"><ele>104.33333333333334</ele><time>2026-03-28T13:05:27.706Z</time></trkpt><trkpt lat="45.9045135" lon="10.8469362"><ele>103.66666666666667</ele><time>2026-03-28T13:05:28.706Z</time></trkpt><trkpt lat="45.9046319" lon="10.847125"><ele>103.0</ele><time>2026-03-28T13:05:29.706Z</time></trkpt><trkpt lat="45.9047713" lon="10.8473015"><ele>103.0</ele><time>2026-03-28T13:05:30.706Z</time></trkpt><trkpt lat="45.9049091" lon="10.847545"><ele>103.0</ele><time>2026-03-28T13:05:31.705Z</time></trkpt><trkpt lat="45.9050224" lon="10.8477176"><ele>103.0</ele><time>2026-03-28T13:05:32.705Z</time></trkpt><trkpt lat="45.9051608" lon="10.8478825"><ele>102.0</ele><time>2026-03-28T13:05:33.705Z</time></trkpt><trkpt lat="45.905287" lon="10.8480729"><ele>101.0</ele><time>2026-03-28T13:05:34.706Z</time></trkpt><trkpt lat="45.9054029" lon="10.8482765"><ele>100.0</ele><time>2026-03-28T13:05:35.705Z</time></trkpt><trkpt lat="45.905519" lon="10.848475"><ele>99.0</ele><time>2026-03-28T13:05:36.705Z</time></trkpt><trkpt lat="45.9056317" lon="10.8486785"><ele>98.0</ele><time>2026-03-28T13:05:37.706Z</time></trkpt><trkpt lat="45.9057464" lon="10.8488829"><ele>97.0</ele><time>2026-03-28T13:05:38.706Z</time></trkpt><trkpt lat="45.9058578" lon="10.8490793"><ele>97.33333333333334</ele><time>2026-03-28T13:05:39.705Z</time></trkpt><trkpt lat="45.9059735" lon="10.8492828"><ele>97.66666666666666</ele><time>2026-03-28T13:05:40.705Z</time></trkpt><trkpt lat="45.906089" lon="10.849486"><ele>98.0</ele><time>2026-03-28T13:05:41.706Z</time></trkpt><trkpt lat="45.9061972" lon="10.8496937"><ele>96.66666666666666</ele><time>2026-03-28T13:05:42.704Z</time></trkpt><trkpt lat="45.9062904" lon="10.8499483"><ele>95.33333333333333</ele><time>2026-03-28T13:05:43.705Z</time></trkpt><trkpt lat="45.9063733" lon="10.8501392"><ele>94.0</ele><time>2026-03-28T13:05:44.706Z</time></trkpt><trkpt lat="45.9064804" lon="10.8503489"><ele>93.33333333333333</ele><time>2026-03-28T13:05:45.706Z</time></trkpt><trkpt lat="45.9065624" lon="10.8505754"><ele>92.66666666666667</ele><time>2026-03-28T13:05:46.705Z</time></trkpt><trkpt lat="45.9066518" lon="10.8508018"><ele>92.0</ele><time>2026-03-28T13:05:47.706Z</time></trkpt><trkpt lat="45.9067351" lon="10.8510301"><ele>90.33333333333334</ele><time>2026-03-28T13:05:48.705Z</time></trkpt><trkpt lat="45.906821" lon="10.8512534"><ele>88.66666666666667</ele><time>2026-03-28T13:05:49.706Z</time></trkpt><trkpt lat="45.9069028" lon="10.8514694"><ele>87.0</ele><time>2026-03-28T13:05:50.706Z</time></trkpt><trkpt lat="45.9069739" lon="10.8516701"><ele>86.25</ele><time>2026-03-28T13:05:51.705Z</time></trkpt><trkpt lat="45.9070372" lon="10.8518478"><ele>85.5</ele><time>2026-03-28T13:05:52.706Z</time></trkpt><trkpt lat="45.9070908" lon="10.8520098"><ele>84.75</ele><time>2026-03-28T13:05:53.706Z</time></trkpt><trkpt lat="45.9071326" lon="10.8521566"><ele>84.0</ele><time>2026-03-28T13:05:54.705Z</time></trkpt><trkpt lat="45.9071623" lon="10.8522877"><ele>84.0</ele><time>2026-03-28T13:05:55.706Z</time></trkpt><trkpt lat="45.907175" lon="10.8524069"><ele>84.0</ele><time>2026-03-28T13:05:56.704Z</time></trkpt><trkpt lat="45.9071648" lon="10.8525116"><ele>84.0</ele><time>2026-03-28T13:05:57.706Z</time></trkpt><trkpt lat="45.9071378" lon="10.8526011"><ele>84.0</ele><time>2026-03-28T13:05:58.705Z</time></trkpt><trkpt lat="45.9070953" lon="10.8526842"><ele>84.0</ele><time>2026-03-28T13:05:59.705Z</time></trkpt><trkpt lat="45.9070688" lon="10.8527807"><ele>84.0</ele><time>2026-03-28T13:06:00.705Z</time></trkpt><trkpt lat="45.9070714" lon="10.8528926"><ele>84.0</ele><time>2026-03-28T13:06:01.706Z</time></trkpt><trkpt lat="45.9071046" lon="10.8529963"><ele>84.6</ele><time>2026-03-28T13:06:02.705Z</time></trkpt><trkpt lat="45.9071719" lon="10.8530741"><ele>85.2</ele><time>2026-03-28T13:06:03.705Z</time></trkpt><trkpt lat="45.9072637" lon="10.8531241"><ele>85.8</ele><time>2026-03-28T13:06:04.705Z</time></trkpt><trkpt lat="45.9073609" lon="10.853195"><ele>86.39999999999999</ele><time>2026-03-28T13:06:05.705Z</time></trkpt><trkpt lat="45.9074561" lon="10.8533041"><ele>87.0</ele><time>2026-03-28T13:06:06.705Z</time></trkpt><trkpt lat="45.9075585" lon="10.8534374"><ele>88.33333333333333</ele><time>2026-03-28T13:06:07.705Z</time></trkpt><trkpt lat="45.9076681" lon="10.8535864"><ele>89.66666666666666</ele><time>2026-03-28T13:06:08.706Z</time></trkpt><trkpt lat="45.9077833" lon="10.8537459"><ele>91.0</ele><time>2026-03-28T13:06:09.706Z</time></trkpt><trkpt lat="45.9079073" lon="10.853909"><ele>91.0</ele><time>2026-03-28T13:06:10.706Z</time></trkpt><trkpt lat="45.9080396" lon="10.8540737"><ele>91.0</ele><time>2026-03-28T13:06:11.706Z</time></trkpt><trkpt lat="45.9081767" lon="10.8542336"><ele>91.0</ele><time>2026-03-28T13:06:12.705Z</time></trkpt><trkpt lat="45.9083115" lon="10.8543747"><ele>88.33333333333333</ele><time>2026-03-28T13:06:13.705Z</time></trkpt><trkpt lat="45.9084463" lon="10.8544996"><ele>85.66666666666667</ele><time>2026-03-28T13:06:14.706Z</time></trkpt><trkpt lat="45.9085826" lon="10.854614"><ele>83.0</ele><time>2026-03-28T13:06:15.705Z</time></trkpt><trkpt lat="45.9087227" lon="10.8547272"><ele>83.0</ele><time>2026-03-28T13:06:16.705Z</time></trkpt><trkpt lat="45.908864" lon="10.8548393"><ele>83.0</ele><time>2026-03-28T13:06:17.705Z</time></trkpt><trkpt lat="45.909004" lon="10.8549494"><ele>83.0</ele><time>2026-03-28T13:06:18.706Z</time></trkpt><trkpt lat="45.9091436" lon="10.8550597"><ele>81.33333333333334</ele><time>2026-03-28T13:06:19.706Z</time></trkpt><trkpt lat="45.9092825" lon="10.8551691"><ele>79.66666666666667</ele><time>2026-03-28T13:06:20.705Z</time></trkpt><trkpt lat="45.9094214" lon="10.8552785"><ele>78.0</ele><time>2026-03-28T13:06:21.705Z</time></trkpt><trkpt lat="45.9095598" lon="10.8553897"><ele>78.0</ele><time>2026-03-28T13:06:22.706Z</time></trkpt><trkpt lat="45.9096965" lon="10.8555021"><ele>78.0</ele><time>2026-03-28T13:06:23.706Z</time></trkpt><trkpt lat="45.9098336" lon="10.8556149"><ele>78.0</ele><time>2026-03-28T13:06:24.705Z</time></trkpt><trkpt lat="45.9099694" lon="10.8557304"><ele>78.33333333333333</ele><time>2026-03-28T13:06:25.705Z</time></trkpt><trkpt lat="45.9101037" lon="10.8558477"><ele>78.66666666666666</ele><time>2026-03-28T13:06:26.705Z</time></trkpt><trkpt lat="45.9102377" lon="10.855965"><ele>79.0</ele><time>2026-03-28T13:06:27.706Z</time></trkpt><trkpt lat="45.9103692" lon="10.8560845"><ele>79.33333333333333</ele><time>2026-03-28T13:06:28.705Z</time></trkpt><trkpt lat="45.9105009" lon="10.8562117"><ele>79.66666666666667</ele><time>2026-03-28T13:06:29.705Z</time></trkpt><trkpt lat="45.9106303" lon="10.8563452"><ele>80.0</ele><time>2026-03-28T13:06:30.706Z</time></trkpt><trkpt lat="45.9107626" lon="10.8564819"><ele>80.0</ele><time>2026-03-28T13:06:31.705Z</time></trkpt><trkpt lat="45.910889" lon="10.8566101"><ele>80.0</ele><time>2026-03-28T13:06:32.706Z</time></trkpt><trkpt lat="45.9110183" lon="10.8567425"><ele>80.0</ele><time>2026-03-28T13:06:33.705Z</time></trkpt><trkpt lat="45.9111451" lon="10.8568698"><ele>80.0</ele><time>2026-03-28T13:06:34.706Z</time></trkpt><trkpt lat="45.9112622" lon="10.8569912"><ele>80.0</ele><time>2026-03-28T13:06:35.705Z</time></trkpt><trkpt lat="45.9113668" lon="10.8570993"><ele>80.0</ele><time>2026-03-28T13:06:36.706Z</time></trkpt><trkpt lat="45.911459" lon="10.8571974"><ele>80.0</ele><time>2026-03-28T13:06:37.706Z</time></trkpt><trkpt lat="45.9115398" lon="10.8572775"><ele>80.0</ele><time>2026-03-28T13:06:38.706Z</time></trkpt><trkpt lat="45.9116106" lon="10.8573476"><ele>80.0</ele><time>2026-03-28T13:06:39.706Z</time></trkpt><trkpt lat="45.9116734" lon="10.857415"><ele>80.0</ele><time>2026-03-28T13:06:40.707Z</time></trkpt><trkpt lat="45.9117289" lon="10.8574997"><ele>80.0</ele><time>2026-03-28T13:06:42.706Z</time></trkpt><trkpt lat="45.9117638" lon="10.8576057"><ele>80.0</ele><time>2026-03-28T13:06:44.705Z</time></trkpt><trkpt lat="45.9118105" lon="10.8577668"><ele>80.0</ele><time>2026-03-28T13:06:46.707Z</time></trkpt><trkpt lat="45.9118604" lon="10.8578638"><ele>80.0</ele><time>2026-03-28T13:06:47.707Z</time></trkpt><trkpt lat="45.911925" lon="10.8579535"><ele>80.0</ele><time>2026-03-28T13:06:48.705Z</time></trkpt><trkpt lat="45.9119779" lon="10.8580587"><ele>80.0</ele><time>2026-03-28T13:06:49.707Z</time></trkpt><trkpt lat="45.9120082" lon="10.8581766"><ele>80.0</ele><time>2026-03-28T13:06:50.706Z</time></trkpt><trkpt lat="45.9120163" lon="10.8583222"><ele>80.0</ele><time>2026-03-28T13:06:51.705Z</time></trkpt><trkpt lat="45.9120075" lon="10.8584846"><ele>79.75</ele><time>2026-03-28T13:06:52.706Z</time></trkpt><trkpt lat="45.9119766" lon="10.8586575"><ele>79.5</ele><time>2026-03-28T13:06:53.707Z</time></trkpt><trkpt lat="45.9119225" lon="10.8588443"><ele>79.25</ele><time>2026-03-28T13:06:54.707Z</time></trkpt><trkpt lat="45.9118504" lon="10.8590406"><ele>79.0</ele><time>2026-03-28T13:06:55.705Z</time></trkpt><trkpt lat="45.9117568" lon="10.8592358"><ele>79.0</ele><time>2026-03-28T13:06:56.706Z</time></trkpt><trkpt lat="45.9116568" lon="10.8594418"><ele>79.0</ele><time>2026-03-28T13:06:57.706Z</time></trkpt><trkpt lat="45.9115461" lon="10.8596574"><ele>79.0</ele><time>2026-03-28T13:06:58.706Z</time></trkpt><trkpt lat="45.9114404" lon="10.8598537"><ele>79.0</ele><time>2026-03-28T13:06:59.706Z</time></trkpt><trkpt lat="45.9113419" lon="10.8600425"><ele>79.0</ele><time>2026-03-28T13:07:00.706Z</time></trkpt><trkpt lat="45.9112462" lon="10.860229"><ele>79.0</ele><time>2026-03-28T13:07:01.705Z</time></trkpt><trkpt lat="45.9111503" lon="10.8604127"><ele>79.33333333333333</ele><time>2026-03-28T13:07:02.706Z</time></trkpt><trkpt lat="45.9110582" lon="10.860595"><ele>79.66666666666667</ele><time>2026-03-28T13:07:03.706Z</time></trkpt><trkpt lat="45.9109672" lon="10.860777"><ele>80.0</ele><time>2026-03-28T13:07:04.707Z</time></trkpt><trkpt lat="45.910875" lon="10.8609628"><ele>80.0</ele><time>2026-03-28T13:07:05.706Z</time></trkpt><trkpt lat="45.9107887" lon="10.8611492"><ele>80.0</ele><time>2026-03-28T13:07:06.706Z</time></trkpt><trkpt lat="45.9107075" lon="10.8613315"><ele>80.0</ele><time>2026-03-28T13:07:07.706Z</time></trkpt><trkpt lat="45.9106223" lon="10.8615167"><ele>80.0</ele><time>2026-03-28T13:07:08.705Z</time></trkpt><trkpt lat="45.9105371" lon="10.8617009"><ele>80.0</ele><time>2026-03-28T13:07:09.707Z</time></trkpt><trkpt lat="45.9104566" lon="10.8618796"><ele>80.0</ele><time>2026-03-28T13:07:10.706Z</time></trkpt><trkpt lat="45.9103699" lon="10.8620551"><ele>79.5</ele><time>2026-03-28T13:07:11.705Z</time></trkpt><trkpt lat="45.9102803" lon="10.8622201"><ele>79.0</ele><time>2026-03-28T13:07:12.706Z</time></trkpt><trkpt lat="45.9101955" lon="10.862376"><ele>78.5</ele><time>2026-03-28T13:07:13.707Z</time></trkpt><trkpt lat="45.9101061" lon="10.8625346"><ele>78.0</ele><time>2026-03-28T13:07:14.706Z</time></trkpt><trkpt lat="45.9100118" lon="10.8626885"><ele>77.75</ele><time>2026-03-28T13:07:15.705Z</time></trkpt><trkpt lat="45.9099209" lon="10.8628453"><ele>77.5</ele><time>2026-03-28T13:07:16.705Z</time></trkpt><trkpt lat="45.9098302" lon="10.8629904"><ele>77.25</ele><time>2026-03-28T13:07:17.707Z</time></trkpt><trkpt lat="45.9097384" lon="10.8631331"><ele>77.0</ele><time>2026-03-28T13:07:18.705Z</time></trkpt><trkpt lat="45.9096412" lon="10.863276"><ele>77.0</ele><time>2026-03-28T13:07:19.705Z</time></trkpt><trkpt lat="45.9095513" lon="10.863431"><ele>77.0</ele><time>2026-03-28T13:07:20.705Z</time></trkpt><trkpt lat="45.9094641" lon="10.8635839"><ele>77.0</ele><time>2026-03-28T13:07:21.706Z</time></trkpt><trkpt lat="45.9093816" lon="10.863736"><ele>77.0</ele><time>2026-03-28T13:07:22.706Z</time></trkpt><trkpt lat="45.9092988" lon="10.8638776"><ele>77.5</ele><time>2026-03-28T13:07:23.706Z</time></trkpt><trkpt lat="45.909218" lon="10.8640169"><ele>78.0</ele><time>2026-03-28T13:07:24.707Z</time></trkpt><trkpt lat="45.9091436" lon="10.8641534"><ele>78.5</ele><time>2026-03-28T13:07:25.707Z</time></trkpt><trkpt lat="45.9090687" lon="10.8642898"><ele>79.0</ele><time>2026-03-28T13:07:26.706Z</time></trkpt><trkpt lat="45.9089931" lon="10.8644125"><ele>79.0</ele><time>2026-03-28T13:07:27.705Z</time></trkpt><trkpt lat="45.9089202" lon="10.8645424"><ele>79.0</ele><time>2026-03-28T13:07:28.706Z</time></trkpt><trkpt lat="45.9088528" lon="10.8646633"><ele>79.0</ele><time>2026-03-28T13:07:29.706Z</time></trkpt><trkpt lat="45.9087816" lon="10.864786"><ele>79.0</ele><time>2026-03-28T13:07:30.706Z</time></trkpt><trkpt lat="45.9087111" lon="10.8649024"><ele>79.0</ele><time>2026-03-28T13:07:31.705Z</time></trkpt><trkpt lat="45.9086453" lon="10.8650267"><ele>78.5</ele><time>2026-03-28T13:07:32.706Z</time></trkpt><trkpt lat="45.9085737" lon="10.8651557"><ele>78.0</ele><time>2026-03-28T13:07:33.705Z</time></trkpt><trkpt lat="45.9085036" lon="10.8652855"><ele>77.5</ele><time>2026-03-28T13:07:34.707Z</time></trkpt><trkpt lat="45.9084315" lon="10.865407"><ele>77.0</ele><time>2026-03-28T13:07:35.707Z</time></trkpt><trkpt lat="45.9083594" lon="10.8655322"><ele>76.8</ele><time>2026-03-28T13:07:36.705Z</time></trkpt><trkpt lat="45.9082926" lon="10.8656469"><ele>76.6</ele><time>2026-03-28T13:07:37.707Z</time></trkpt><trkpt lat="45.9082276" lon="10.8657593"><ele>76.39999999999999</ele><time>2026-03-28T13:07:38.705Z</time></trkpt><trkpt lat="45.9081677" lon="10.8658633"><ele>76.2</ele><time>2026-03-28T13:07:39.706Z</time></trkpt><trkpt lat="45.9081115" lon="10.8659662"><ele>76.0</ele><time>2026-03-28T13:07:40.706Z</time></trkpt><trkpt lat="45.9080572" lon="10.8660645"><ele>76.0</ele><time>2026-03-28T13:07:41.706Z</time></trkpt><trkpt lat="45.9080059" lon="10.8661577"><ele>76.0</ele><time>2026-03-28T13:07:42.706Z</time></trkpt><trkpt lat="45.9079566" lon="10.8662501"><ele>76.0</ele><time>2026-03-28T13:07:43.706Z</time></trkpt><trkpt lat="45.9079118" lon="10.8663262"><ele>76.0</ele><time>2026-03-28T13:07:44.707Z</time></trkpt><trkpt lat="45.9078407" lon="10.8664511"><ele>76.0</ele><time>2026-03-28T13:07:46.707Z</time></trkpt><trkpt lat="45.9077704" lon="10.8665701"><ele>76.0</ele><time>2026-03-28T13:07:48.707Z</time></trkpt><trkpt lat="45.907708" lon="10.8666788"><ele>76.0</ele><time>2026-03-28T13:07:50.706Z</time></trkpt><trkpt lat="45.9076642" lon="10.8667586"><ele>76.0</ele><time>2026-03-28T13:07:52.706Z</time></trkpt><trkpt lat="45.9076065" lon="10.8668542"><ele>76.0</ele><time>2026-03-28T13:07:59.707Z</time></trkpt><trkpt lat="45.9075599" lon="10.8669158"><ele>76.0</ele><time>2026-03-28T13:08:01.706Z</time></trkpt><trkpt lat="45.9074816" lon="10.8669831"><ele>76.0</ele><time>2026-03-28T13:08:03.707Z</time></trkpt><trkpt lat="45.9073571" lon="10.8670445"><ele>76.0</ele><time>2026-03-28T13:08:05.706Z</time></trkpt><trkpt lat="45.9072907" lon="10.8670971"><ele>76.0</ele><time>2026-03-28T13:08:06.706Z</time></trkpt><trkpt lat="45.9072306" lon="10.8671627"><ele>76.0</ele><time>2026-03-28T13:08:07.705Z</time></trkpt><trkpt lat="45.9071955" lon="10.8672651"><ele>76.0</ele><time>2026-03-28T13:08:08.706Z</time></trkpt><trkpt lat="45.9071675" lon="10.8673767"><ele>76.0</ele><time>2026-03-28T13:08:09.706Z</time></trkpt><trkpt lat="45.9071354" lon="10.8674992"><ele>76.0</ele><time>2026-03-28T13:08:10.706Z</time></trkpt><trkpt lat="45.9070905" lon="10.867625"><ele>76.25</ele><time>2026-03-28T13:08:11.706Z</time></trkpt><trkpt lat="45.9070301" lon="10.8677424"><ele>76.5</ele><time>2026-03-28T13:08:12.707Z</time></trkpt><trkpt lat="45.9069523" lon="10.8678638"><ele>76.75</ele><time>2026-03-28T13:08:13.706Z</time></trkpt><trkpt lat="45.9068649" lon="10.8679929"><ele>77.0</ele><time>2026-03-28T13:08:14.706Z</time></trkpt><trkpt lat="45.9067724" lon="10.8681334"><ele>77.0</ele><time>2026-03-28T13:08:15.706Z</time></trkpt><trkpt lat="45.9066784" lon="10.8682958"><ele>77.0</ele><time>2026-03-28T13:08:16.706Z</time></trkpt><trkpt lat="45.906583" lon="10.8684636"><ele>77.0</ele><time>2026-03-28T13:08:17.706Z</time></trkpt><trkpt lat="45.9064834" lon="10.868642"><ele>77.0</ele><time>2026-03-28T13:08:18.705Z</time></trkpt><trkpt lat="45.9063807" lon="10.8688248"><ele>77.0</ele><time>2026-03-28T13:08:19.707Z</time></trkpt><trkpt lat="45.9062827" lon="10.8690223"><ele>77.0</ele><time>2026-03-28T13:08:20.705Z</time></trkpt><trkpt lat="45.9061851" lon="10.8692209"><ele>77.0</ele><time>2026-03-28T13:08:21.706Z</time></trkpt><trkpt lat="45.9060888" lon="10.8694309"><ele>77.0</ele><time>2026-03-28T13:08:22.706Z</time></trkpt><trkpt lat="45.9059903" lon="10.8696406"><ele>77.0</ele><time>2026-03-28T13:08:23.707Z</time></trkpt><trkpt lat="45.905886" lon="10.8698473"><ele>77.33333333333334</ele><time>2026-03-28T13:08:24.705Z</time></trkpt><trkpt lat="45.9057909" lon="10.8700398"><ele>77.66666666666667</ele><time>2026-03-28T13:08:25.706Z</time></trkpt><trkpt lat="45.9056988" lon="10.8702256"><ele>78.0</ele><time>2026-03-28T13:08:26.706Z</time></trkpt><trkpt lat="45.9056069" lon="10.8704101"><ele>78.33333333333333</ele><time>2026-03-28T13:08:27.706Z</time></trkpt><trkpt lat="45.9055157" lon="10.8705981"><ele>78.66666666666666</ele><time>2026-03-28T13:08:28.705Z</time></trkpt><trkpt lat="45.9054256" lon="10.8707812"><ele>79.0</ele><time>2026-03-28T13:08:29.707Z</time></trkpt><trkpt lat="45.9053349" lon="10.8709719"><ele>79.0</ele><time>2026-03-28T13:08:30.707Z</time></trkpt><trkpt lat="45.9052468" lon="10.8711766"><ele>79.0</ele><time>2026-03-28T13:08:31.705Z</time></trkpt><trkpt lat="45.905161" lon="10.8713845"><ele>79.0</ele><time>2026-03-28T13:08:32.706Z</time></trkpt><trkpt lat="45.9050732" lon="10.8715978"><ele>79.0</ele><time>2026-03-28T13:08:33.707Z</time></trkpt><trkpt lat="45.9049964" lon="10.8718134"><ele>79.0</ele><time>2026-03-28T13:08:34.705Z</time></trkpt><trkpt lat="45.9049167" lon="10.8720301"><ele>79.0</ele><time>2026-03-28T13:08:35.706Z</time></trkpt><trkpt lat="45.9048419" lon="10.8722416"><ele>79.0</ele><time>2026-03-28T13:08:36.706Z</time></trkpt><trkpt lat="45.904772" lon="10.8724385"><ele>79.0</ele><time>2026-03-28T13:08:37.705Z</time></trkpt><trkpt lat="45.9047067" lon="10.8726254"><ele>79.0</ele><time>2026-03-28T13:08:38.706Z</time></trkpt><trkpt lat="45.9046463" lon="10.8727951"><ele>79.0</ele><time>2026-03-28T13:08:39.705Z</time></trkpt><trkpt lat="45.9045908" lon="10.8729512"><ele>78.83333333333333</ele><time>2026-03-28T13:08:40.706Z</time></trkpt><trkpt lat="45.9045414" lon="10.8730896"><ele>78.66666666666666</ele><time>2026-03-28T13:08:41.706Z</time></trkpt><trkpt lat="45.9044993" lon="10.8732166"><ele>78.5</ele><time>2026-03-28T13:08:42.707Z</time></trkpt><trkpt lat="45.9044585" lon="10.8733287"><ele>78.33333333333333</ele><time>2026-03-28T13:08:43.707Z</time></trkpt><trkpt lat="45.904418" lon="10.8734249"><ele>78.16666666666667</ele><time>2026-03-28T13:08:44.706Z</time></trkpt><trkpt lat="45.9043826" lon="10.8735103"><ele>78.0</ele><time>2026-03-28T13:08:45.706Z</time></trkpt><trkpt lat="45.9043053" lon="10.8736352"><ele>78.0</ele><time>2026-03-28T13:08:47.706Z</time></trkpt><trkpt lat="45.904217" lon="10.8737239"><ele>78.0</ele><time>2026-03-28T13:08:49.706Z</time></trkpt><trkpt lat="45.9041663" lon="10.8737814"><ele>78.0</ele><time>2026-03-28T13:08:50.707Z</time></trkpt><trkpt lat="45.904129" lon="10.8738585"><ele>78.0</ele><time>2026-03-28T13:08:51.707Z</time></trkpt><trkpt lat="45.9041141" lon="10.8739496"><ele>78.0</ele><time>2026-03-28T13:08:52.707Z</time></trkpt><trkpt lat="45.9041236" lon="10.874042"><ele>78.0</ele><time>2026-03-28T13:08:53.707Z</time></trkpt><trkpt lat="45.9041603" lon="10.874121"><ele>78.0</ele><time>2026-03-28T13:08:54.706Z</time></trkpt><trkpt lat="45.9042294" lon="10.8741909"><ele>78.0</ele><time>2026-03-28T13:08:55.706Z</time></trkpt><trkpt lat="45.9043201" lon="10.8742578"><ele>78.0</ele><time>2026-03-28T13:08:56.707Z</time></trkpt><trkpt lat="45.9044129" lon="10.8743389"><ele>78.0</ele><time>2026-03-28T13:08:57.706Z</time></trkpt><trkpt lat="45.9045194" lon="10.8744557"><ele>78.0</ele><time>2026-03-28T13:08:58.705Z</time></trkpt><trkpt lat="45.9046308" lon="10.8745807"><ele>78.66666666666667</ele><time>2026-03-28T13:08:59.707Z</time></trkpt><trkpt lat="45.9047508" lon="10.874715"><ele>79.33333333333334</ele><time>2026-03-28T13:09:00.707Z</time></trkpt><trkpt lat="45.9048871" lon="10.8748492"><ele>80.0</ele><time>2026-03-28T13:09:01.705Z</time></trkpt><trkpt lat="45.9050161" lon="10.8749724"><ele>79.33333333333334</ele><time>2026-03-28T13:09:02.707Z</time></trkpt><trkpt lat="45.9051458" lon="10.875086"><ele>78.66666666666667</ele><time>2026-03-28T13:09:03.706Z</time></trkpt><trkpt lat="45.9052717" lon="10.8751921"><ele>78.0</ele><time>2026-03-28T13:09:04.707Z</time></trkpt><trkpt lat="45.9054041" lon="10.8753006"><ele>78.0</ele><time>2026-03-28T13:09:05.707Z</time></trkpt><trkpt lat="45.9055421" lon="10.8754141"><ele>78.0</ele><time>2026-03-28T13:09:06.705Z</time></trkpt><trkpt lat="45.9056842" lon="10.8755255"><ele>78.0</ele><time>2026-03-28T13:09:07.706Z</time></trkpt><trkpt lat="45.9058241" lon="10.8756463"><ele>77.66666666666667</ele><time>2026-03-28T13:09:08.707Z</time></trkpt><trkpt lat="45.9059673" lon="10.8757679"><ele>77.33333333333334</ele><time>2026-03-28T13:09:09.706Z</time></trkpt><trkpt lat="45.9061063" lon="10.8758882"><ele>77.0</ele><time>2026-03-28T13:09:10.706Z</time></trkpt><trkpt lat="45.9062498" lon="10.8760128"><ele>77.0</ele><time>2026-03-28T13:09:11.705Z</time></trkpt><trkpt lat="45.9063853" lon="10.8761323"><ele>77.0</ele><time>2026-03-28T13:09:12.706Z</time></trkpt><trkpt lat="45.9065234" lon="10.8762551"><ele>77.0</ele><time>2026-03-28T13:09:13.705Z</time></trkpt><trkpt lat="45.9066577" lon="10.8763802"><ele>77.0</ele><time>2026-03-28T13:09:14.705Z</time></trkpt><trkpt lat="45.906791" lon="10.8765099"><ele>77.0</ele><time>2026-03-28T13:09:15.705Z</time></trkpt><trkpt lat="45.9069242" lon="10.8766347"><ele>77.0</ele><time>2026-03-28T13:09:16.705Z</time></trkpt><trkpt lat="45.9070536" lon="10.8767626"><ele>77.66666666666667</ele><time>2026-03-28T13:09:17.707Z</time></trkpt><trkpt lat="45.9071865" lon="10.8768825"><ele>78.33333333333333</ele><time>2026-03-28T13:09:18.707Z</time></trkpt><trkpt lat="45.9073177" lon="10.8770074"><ele>79.0</ele><time>2026-03-28T13:09:19.707Z</time></trkpt><trkpt lat="45.9074406" lon="10.8771254"><ele>79.0</ele><time>2026-03-28T13:09:20.706Z</time></trkpt><trkpt lat="45.9075644" lon="10.8772458"><ele>79.0</ele><time>2026-03-28T13:09:21.706Z</time></trkpt><trkpt lat="45.9076843" lon="10.8773693"><ele>79.0</ele><time>2026-03-28T13:09:22.705Z</time></trkpt><trkpt lat="45.9078042" lon="10.8774966"><ele>79.0</ele><time>2026-03-28T13:09:23.706Z</time></trkpt><trkpt lat="45.9079154" lon="10.8776354"><ele>79.0</ele><time>2026-03-28T13:09:24.705Z</time></trkpt><trkpt lat="45.9080306" lon="10.8777748"><ele>79.0</ele><time>2026-03-28T13:09:25.707Z</time></trkpt><trkpt lat="45.908148" lon="10.8779261"><ele>79.0</ele><time>2026-03-28T13:09:26.707Z</time></trkpt><trkpt lat="45.908257" lon="10.8780723"><ele>79.0</ele><time>2026-03-28T13:09:27.707Z</time></trkpt><trkpt lat="45.9083592" lon="10.8782123"><ele>79.0</ele><time>2026-03-28T13:09:28.707Z</time></trkpt><trkpt lat="45.908456" lon="10.8783418"><ele>79.0</ele><time>2026-03-28T13:09:29.706Z</time></trkpt><trkpt lat="45.9085432" lon="10.8784581"><ele>79.0</ele><time>2026-03-28T13:09:30.707Z</time></trkpt><trkpt lat="45.9086141" lon="10.8785785"><ele>79.16666666666666</ele><time>2026-03-28T13:09:31.706Z</time></trkpt><trkpt lat="45.9086669" lon="10.878694"><ele>79.33333333333333</ele><time>2026-03-28T13:09:32.706Z</time></trkpt><trkpt lat="45.9086999" lon="10.878811"><ele>79.5</ele><time>2026-03-28T13:09:33.706Z</time></trkpt><trkpt lat="45.9087177" lon="10.8789236"><ele>79.66666666666667</ele><time>2026-03-28T13:09:34.705Z</time></trkpt><trkpt lat="45.9087275" lon="10.8790265"><ele>79.83333333333334</ele><time>2026-03-28T13:09:35.705Z</time></trkpt><trkpt lat="45.9087243" lon="10.8791313"><ele>80.0</ele><time>2026-03-28T13:09:36.706Z</time></trkpt><trkpt lat="45.9087107" lon="10.8792415"><ele>79.8</ele><time>2026-03-28T13:09:37.707Z</time></trkpt><trkpt lat="45.9086916" lon="10.8793723"><ele>79.6</ele><time>2026-03-28T13:09:38.705Z</time></trkpt><trkpt lat="45.9086629" lon="10.8795153"><ele>79.4</ele><time>2026-03-28T13:09:39.707Z</time></trkpt><trkpt lat="45.9086281" lon="10.8796398"><ele>79.2</ele><time>2026-03-28T13:09:40.706Z</time></trkpt><trkpt lat="45.9085836" lon="10.8797537"><ele>79.0</ele><time>2026-03-28T13:09:41.706Z</time></trkpt><trkpt lat="45.9085271" lon="10.8798454"><ele>79.0</ele><time>2026-03-28T13:09:42.705Z</time></trkpt><trkpt lat="45.9084566" lon="10.8799198"><ele>79.0</ele><time>2026-03-28T13:09:43.706Z</time></trkpt><trkpt lat="45.9083741" lon="10.8799679"><ele>79.0</ele><time>2026-03-28T13:09:44.707Z</time></trkpt><trkpt lat="45.9082766" lon="10.8799918"><ele>79.0</ele><time>2026-03-28T13:09:45.704Z</time></trkpt><trkpt lat="45.9081689" lon="10.8799895"><ele>79.0</ele><time>2026-03-28T13:09:46.707Z</time></trkpt><trkpt lat="45.9080446" lon="10.8799407"><ele>79.25</ele><time>2026-03-28T13:09:47.707Z</time></trkpt><trkpt lat="45.9079125" lon="10.8798802"><ele>79.5</ele><time>2026-03-28T13:09:48.706Z</time></trkpt><trkpt lat="45.9077757" lon="10.8798175"><ele>79.75</ele><time>2026-03-28T13:09:49.707Z</time></trkpt><trkpt lat="45.9076308" lon="10.8797465"><ele>80.0</ele><time>2026-03-28T13:09:50.706Z</time></trkpt><trkpt lat="45.9074724" lon="10.8796778"><ele>80.0</ele><time>2026-03-28T13:09:51.706Z</time></trkpt><trkpt lat="45.9073183" lon="10.8796127"><ele>80.0</ele><time>2026-03-28T13:09:52.706Z</time></trkpt><trkpt lat="45.9071756" lon="10.8795491"><ele>80.0</ele><time>2026-03-28T13:09:53.706Z</time></trkpt><trkpt lat="45.9070444" lon="10.8794916"><ele>80.0</ele><time>2026-03-28T13:09:54.705Z</time></trkpt><trkpt lat="45.9069222" lon="10.8794341"><ele>80.0</ele><time>2026-03-28T13:09:55.706Z</time></trkpt><trkpt lat="45.9068092" lon="10.8793777"><ele>80.0</ele><time>2026-03-28T13:09:56.706Z</time></trkpt><trkpt lat="45.9067011" lon="10.8793266"><ele>80.0</ele><time>2026-03-28T13:09:57.705Z</time></trkpt><trkpt lat="45.9066024" lon="10.8792779"><ele>80.0</ele><time>2026-03-28T13:09:58.707Z</time></trkpt><trkpt lat="45.9065122" lon="10.8792273"><ele>80.0</ele><time>2026-03-28T13:09:59.707Z</time></trkpt><trkpt lat="45.9064267" lon="10.8791725"><ele>80.4</ele><time>2026-03-28T13:10:00.707Z</time></trkpt><trkpt lat="45.9063388" lon="10.8791157"><ele>80.8</ele><time>2026-03-28T13:10:01.707Z</time></trkpt><trkpt lat="45.9062506" lon="10.8790622"><ele>81.19999999999999</ele><time>2026-03-28T13:10:02.706Z</time></trkpt><trkpt lat="45.9061611" lon="10.879013"><ele>81.6</ele><time>2026-03-28T13:10:03.707Z</time></trkpt><trkpt lat="45.906069" lon="10.8789709"><ele>82.0</ele><time>2026-03-28T13:10:04.705Z</time></trkpt><trkpt lat="45.9059721" lon="10.8789334"><ele>81.8</ele><time>2026-03-28T13:10:05.705Z</time></trkpt><trkpt lat="45.9058734" lon="10.8788995"><ele>81.6</ele><time>2026-03-28T13:10:06.706Z</time></trkpt><trkpt lat="45.9057716" lon="10.8788707"><ele>81.39999999999999</ele><time>2026-03-28T13:10:07.707Z</time></trkpt><trkpt lat="45.905668" lon="10.8788439"><ele>81.19999999999999</ele><time>2026-03-28T13:10:08.706Z</time></trkpt><trkpt lat="45.9055642" lon="10.8788212"><ele>81.0</ele><time>2026-03-28T13:10:09.705Z</time></trkpt><trkpt lat="45.9054563" lon="10.8787976"><ele>81.0</ele><time>2026-03-28T13:10:10.706Z</time></trkpt><trkpt lat="45.9053555" lon="10.8787701"><ele>81.0</ele><time>2026-03-28T13:10:11.707Z</time></trkpt><trkpt lat="45.9052513" lon="10.878744"><ele>81.0</ele><time>2026-03-28T13:10:12.705Z</time></trkpt><trkpt lat="45.9051502" lon="10.8787166"><ele>81.0</ele><time>2026-03-28T13:10:13.705Z</time></trkpt><trkpt lat="45.9050443" lon="10.8786905"><ele>81.0</ele><time>2026-03-28T13:10:14.705Z</time></trkpt><trkpt lat="45.9049362" lon="10.8786734"><ele>81.19999999999999</ele><time>2026-03-28T13:10:15.706Z</time></trkpt><trkpt lat="45.9048332" lon="10.8786678"><ele>81.39999999999999</ele><time>2026-03-28T13:10:16.707Z</time></trkpt><trkpt lat="45.9047293" lon="10.878679"><ele>81.6</ele><time>2026-03-28T13:10:17.705Z</time></trkpt><trkpt lat="45.9046254" lon="10.8787143"><ele>81.8</ele><time>2026-03-28T13:10:18.707Z</time></trkpt><trkpt lat="45.9045228" lon="10.8787545"><ele>82.0</ele><time>2026-03-28T13:10:19.706Z</time></trkpt><trkpt lat="45.9044206" lon="10.8788014"><ele>82.0</ele><time>2026-03-28T13:10:20.706Z</time></trkpt><trkpt lat="45.9043214" lon="10.8788522"><ele>82.0</ele><time>2026-03-28T13:10:21.705Z</time></trkpt><trkpt lat="45.9042211" lon="10.8789041"><ele>82.0</ele><time>2026-03-28T13:10:22.706Z</time></trkpt><trkpt lat="45.904118" lon="10.8789561"><ele>82.0</ele><time>2026-03-28T13:10:23.707Z</time></trkpt><trkpt lat="45.9040119" lon="10.8790094"><ele>82.0</ele><time>2026-03-28T13:10:24.707Z</time></trkpt><trkpt lat="45.9038952" lon="10.879064"><ele>82.0</ele><time>2026-03-28T13:10:25.706Z</time></trkpt><trkpt lat="45.9037826" lon="10.8791212"><ele>82.0</ele><time>2026-03-28T13:10:26.707Z</time></trkpt><trkpt lat="45.9036658" lon="10.8791786"><ele>82.0</ele><time>2026-03-28T13:10:27.705Z</time></trkpt><trkpt lat="45.9035506" lon="10.8792319"><ele>82.0</ele><time>2026-03-28T13:10:28.706Z</time></trkpt><trkpt lat="45.90343" lon="10.8792871"><ele>81.5</ele><time>2026-03-28T13:10:29.706Z</time></trkpt><trkpt lat="45.9033079" lon="10.8793461"><ele>81.0</ele><time>2026-03-28T13:10:30.705Z</time></trkpt><trkpt lat="45.9031831" lon="10.8794081"><ele>80.5</ele><time>2026-03-28T13:10:31.706Z</time></trkpt><trkpt lat="45.9030584" lon="10.87947"><ele>80.0</ele><time>2026-03-28T13:10:32.705Z</time></trkpt><trkpt lat="45.9029275" lon="10.8795317"><ele>80.0</ele><time>2026-03-28T13:10:33.707Z</time></trkpt><trkpt lat="45.9027966" lon="10.8795929"><ele>80.0</ele><time>2026-03-28T13:10:34.706Z</time></trkpt><trkpt lat="45.9026647" lon="10.8796587"><ele>80.0</ele><time>2026-03-28T13:10:35.707Z</time></trkpt><trkpt lat="45.9025332" lon="10.8797218"><ele>80.0</ele><time>2026-03-28T13:10:36.705Z</time></trkpt><trkpt lat="45.9023978" lon="10.8797947"><ele>79.5</ele><time>2026-03-28T13:10:37.707Z</time></trkpt><trkpt lat="45.9022666" lon="10.8798612"><ele>79.0</ele><time>2026-03-28T13:10:38.705Z</time></trkpt><trkpt lat="45.9021344" lon="10.8799279"><ele>78.5</ele><time>2026-03-28T13:10:39.707Z</time></trkpt><trkpt lat="45.902004" lon="10.8799926"><ele>78.0</ele><time>2026-03-28T13:10:40.705Z</time></trkpt><trkpt lat="45.9018746" lon="10.8800584"><ele>78.25</ele><time>2026-03-28T13:10:41.705Z</time></trkpt><trkpt lat="45.9017503" lon="10.8801221"><ele>78.5</ele><time>2026-03-28T13:10:42.706Z</time></trkpt><trkpt lat="45.9016234" lon="10.8801857"><ele>78.75</ele><time>2026-03-28T13:10:43.706Z</time></trkpt><trkpt lat="45.9014978" lon="10.8802475"><ele>79.0</ele><time>2026-03-28T13:10:44.706Z</time></trkpt><trkpt lat="45.9013721" lon="10.8803071"><ele>79.0</ele><time>2026-03-28T13:10:45.706Z</time></trkpt><trkpt lat="45.9012442" lon="10.8803554"><ele>79.0</ele><time>2026-03-28T13:10:46.706Z</time></trkpt><trkpt lat="45.9011145" lon="10.8803962"><ele>79.0</ele><time>2026-03-28T13:10:47.707Z</time></trkpt><trkpt lat="45.9009859" lon="10.8804155"><ele>79.0</ele><time>2026-03-28T13:10:48.705Z</time></trkpt><trkpt lat="45.9008532" lon="10.8804175"><ele>78.25</ele><time>2026-03-28T13:10:49.707Z</time></trkpt><trkpt lat="45.9007215" lon="10.8804056"><ele>77.5</ele><time>2026-03-28T13:10:50.706Z</time></trkpt><trkpt lat="45.9005895" lon="10.8803802"><ele>76.75</ele><time>2026-03-28T13:10:51.705Z</time></trkpt><trkpt lat="45.9004554" lon="10.8803417"><ele>76.0</ele><time>2026-03-28T13:10:52.705Z</time></trkpt><trkpt lat="45.9003307" lon="10.880296"><ele>76.0</ele><time>2026-03-28T13:10:53.707Z</time></trkpt><trkpt lat="45.900197" lon="10.8802447"><ele>76.0</ele><time>2026-03-28T13:10:54.707Z</time></trkpt><trkpt lat="45.9000675" lon="10.8801904"><ele>76.0</ele><time>2026-03-28T13:10:55.706Z</time></trkpt><trkpt lat="45.8999321" lon="10.880138"><ele>76.0</ele><time>2026-03-28T13:10:56.706Z</time></trkpt><trkpt lat="45.8997987" lon="10.88009"><ele>76.0</ele><time>2026-03-28T13:10:57.706Z</time></trkpt><trkpt lat="45.8996546" lon="10.8800546"><ele>76.0</ele><time>2026-03-28T13:10:58.706Z</time></trkpt><trkpt lat="45.8995151" lon="10.880028"><ele>76.0</ele><time>2026-03-28T13:10:59.706Z</time></trkpt><trkpt lat="45.8993609" lon="10.8800281"><ele>76.0</ele><time>2026-03-28T13:11:00.706Z</time></trkpt><trkpt lat="45.8992152" lon="10.8800375"><ele>76.0</ele><time>2026-03-28T13:11:01.707Z</time></trkpt><trkpt lat="45.8990741" lon="10.880054"><ele>76.0</ele><time>2026-03-28T13:11:02.706Z</time></trkpt><trkpt lat="45.8989308" lon="10.8800782"><ele>76.0</ele><time>2026-03-28T13:11:03.706Z</time></trkpt><trkpt lat="45.8987887" lon="10.880108"><ele>76.0</ele><time>2026-03-28T13:11:04.707Z</time></trkpt><trkpt lat="45.8986479" lon="10.8801365"><ele>76.0</ele><time>2026-03-28T13:11:05.706Z</time></trkpt><trkpt lat="45.8985037" lon="10.8801735"><ele>76.0</ele><time>2026-03-28T13:11:06.705Z</time></trkpt><trkpt lat="45.8983589" lon="10.8802113"><ele>76.0</ele><time>2026-03-28T13:11:07.706Z</time></trkpt><trkpt lat="45.8982131" lon="10.8802523"><ele>76.0</ele><time>2026-03-28T13:11:08.707Z</time></trkpt><trkpt lat="45.8980706" lon="10.8802822"><ele>76.0</ele><time>2026-03-28T13:11:09.706Z</time></trkpt><trkpt lat="45.8979259" lon="10.8803213"><ele>76.0</ele><time>2026-03-28T13:11:10.706Z</time></trkpt><trkpt lat="45.8977793" lon="10.8803577"><ele>76.0</ele><time>2026-03-28T13:11:11.707Z</time></trkpt><trkpt lat="45.8976365" lon="10.8804023"><ele>76.0</ele><time>2026-03-28T13:11:12.706Z</time></trkpt><trkpt lat="45.8974936" lon="10.8804545"><ele>75.75</ele><time>2026-03-28T13:11:13.706Z</time></trkpt><trkpt lat="45.8973528" lon="10.8805118"><ele>75.5</ele><time>2026-03-28T13:11:14.707Z</time></trkpt><trkpt lat="45.8972118" lon="10.880578"><ele>75.25</ele><time>2026-03-28T13:11:15.706Z</time></trkpt><trkpt lat="45.8970707" lon="10.880644"><ele>75.0</ele><time>2026-03-28T13:11:16.707Z</time></trkpt><trkpt lat="45.8969258" lon="10.880709"><ele>75.0</ele><time>2026-03-28T13:11:17.706Z</time></trkpt><trkpt lat="45.8967859" lon="10.8807735"><ele>75.0</ele><time>2026-03-28T13:11:18.706Z</time></trkpt><trkpt lat="45.8966533" lon="10.8808342"><ele>75.0</ele><time>2026-03-28T13:11:19.705Z</time></trkpt><trkpt lat="45.8965239" lon="10.8808792"><ele>75.0</ele><time>2026-03-28T13:11:20.706Z</time></trkpt><trkpt lat="45.8963935" lon="10.8808996"><ele>75.0</ele><time>2026-03-28T13:11:21.707Z</time></trkpt><trkpt lat="45.8962576" lon="10.8808776"><ele>75.0</ele><time>2026-03-28T13:11:22.706Z</time></trkpt><trkpt lat="45.8961179" lon="10.8808263"><ele>75.0</ele><time>2026-03-28T13:11:23.707Z</time></trkpt><trkpt lat="45.8959734" lon="10.8807344"><ele>75.0</ele><time>2026-03-28T13:11:24.706Z</time></trkpt><trkpt lat="45.8958285" lon="10.8806239"><ele>75.0</ele><time>2026-03-28T13:11:25.707Z</time></trkpt><trkpt lat="45.8956762" lon="10.8804997"><ele>75.0</ele><time>2026-03-28T13:11:26.706Z</time></trkpt><trkpt lat="45.8955186" lon="10.8803677"><ele>75.0</ele><time>2026-03-28T13:11:27.706Z</time></trkpt><trkpt lat="45.8953541" lon="10.8802417"><ele>75.0</ele><time>2026-03-28T13:11:28.705Z</time></trkpt><trkpt lat="45.8952068" lon="10.8801199"><ele>75.0</ele><time>2026-03-28T13:11:29.707Z</time></trkpt><trkpt lat="45.8950656" lon="10.8800029"><ele>75.0</ele><time>2026-03-28T13:11:30.705Z</time></trkpt><trkpt lat="45.8949312" lon="10.8798969"><ele>74.33333333333333</ele><time>2026-03-28T13:11:31.706Z</time></trkpt><trkpt lat="45.8947954" lon="10.8798008"><ele>73.66666666666666</ele><time>2026-03-28T13:11:32.707Z</time></trkpt><trkpt lat="45.894653" lon="10.8797207"><ele>73.0</ele><time>2026-03-28T13:11:33.706Z</time></trkpt><trkpt lat="45.8945002" lon="10.8796707"><ele>73.0</ele><time>2026-03-28T13:11:34.706Z</time></trkpt><trkpt lat="45.8943389" lon="10.8796416"><ele>73.0</ele><time>2026-03-28T13:11:35.707Z</time></trkpt><trkpt lat="45.8941715" lon="10.8796226"><ele>73.0</ele><time>2026-03-28T13:11:36.707Z</time></trkpt><trkpt lat="45.8939936" lon="10.8796057"><ele>72.66666666666666</ele><time>2026-03-28T13:11:37.706Z</time></trkpt><trkpt lat="45.8938099" lon="10.8795871"><ele>72.33333333333333</ele><time>2026-03-28T13:11:38.706Z</time></trkpt><trkpt lat="45.8936166" lon="10.8795709"><ele>72.0</ele><time>2026-03-28T13:11:39.705Z</time></trkpt><trkpt lat="45.8934225" lon="10.8795513"><ele>72.0</ele><time>2026-03-28T13:11:40.706Z</time></trkpt><trkpt lat="45.893229" lon="10.8795297"><ele>72.0</ele><time>2026-03-28T13:11:41.706Z</time></trkpt><trkpt lat="45.8930476" lon="10.8795114"><ele>72.0</ele><time>2026-03-28T13:11:42.706Z</time></trkpt><trkpt lat="45.8928721" lon="10.8794914"><ele>72.0</ele><time>2026-03-28T13:11:43.707Z</time></trkpt><trkpt lat="45.8926963" lon="10.8794748"><ele>72.0</ele><time>2026-03-28T13:11:44.706Z</time></trkpt><trkpt lat="45.8925213" lon="10.8794566"><ele>72.0</ele><time>2026-03-28T13:11:45.705Z</time></trkpt><trkpt lat="45.8923442" lon="10.8794445"><ele>73.0</ele><time>2026-03-28T13:11:46.706Z</time></trkpt><trkpt lat="45.8921645" lon="10.8794265"><ele>74.0</ele><time>2026-03-28T13:11:47.707Z</time></trkpt><trkpt lat="45.8919867" lon="10.8794147"><ele>75.0</ele><time>2026-03-28T13:11:48.705Z</time></trkpt><trkpt lat="45.8918134" lon="10.8793959"><ele>74.66666666666667</ele><time>2026-03-28T13:11:49.706Z</time></trkpt><trkpt lat="45.8916437" lon="10.879379"><ele>74.33333333333334</ele><time>2026-03-28T13:11:50.705Z</time></trkpt><trkpt lat="45.8914748" lon="10.8793656"><ele>74.0</ele><time>2026-03-28T13:11:51.706Z</time></trkpt><trkpt lat="45.8913095" lon="10.8793507"><ele>74.0</ele><time>2026-03-28T13:11:52.707Z</time></trkpt><trkpt lat="45.8911421" lon="10.8793361"><ele>74.0</ele><time>2026-03-28T13:11:53.707Z</time></trkpt><trkpt lat="45.890975" lon="10.8793232"><ele>74.0</ele><time>2026-03-28T13:11:54.707Z</time></trkpt><trkpt lat="45.8908148" lon="10.8793094"><ele>73.66666666666667</ele><time>2026-03-28T13:11:55.706Z</time></trkpt><trkpt lat="45.8906507" lon="10.8792938"><ele>73.33333333333333</ele><time>2026-03-28T13:11:56.706Z</time></trkpt><trkpt lat="45.8904882" lon="10.8792819"><ele>73.0</ele><time>2026-03-28T13:11:57.706Z</time></trkpt><trkpt lat="45.8903305" lon="10.8792679"><ele>73.33333333333333</ele><time>2026-03-28T13:11:58.706Z</time></trkpt><trkpt lat="45.8901731" lon="10.8792587"><ele>73.66666666666667</ele><time>2026-03-28T13:11:59.707Z</time></trkpt><trkpt lat="45.8900157" lon="10.8792475"><ele>74.0</ele><time>2026-03-28T13:12:00.707Z</time></trkpt><trkpt lat="45.8898602" lon="10.8792317"><ele>73.0</ele><time>2026-03-28T13:12:01.706Z</time></trkpt><trkpt lat="45.8896999" lon="10.8792186"><ele>72.0</ele><time>2026-03-28T13:12:02.706Z</time></trkpt><trkpt lat="45.8895384" lon="10.8792064"><ele>71.0</ele><time>2026-03-28T13:12:03.707Z</time></trkpt><trkpt lat="45.8893798" lon="10.8791861"><ele>70.66666666666667</ele><time>2026-03-28T13:12:04.707Z</time></trkpt><trkpt lat="45.8892169" lon="10.8791601"><ele>70.33333333333333</ele><time>2026-03-28T13:12:05.705Z</time></trkpt><trkpt lat="45.8890582" lon="10.8791266"><ele>70.0</ele><time>2026-03-28T13:12:06.707Z</time></trkpt><trkpt lat="45.8888963" lon="10.879091"><ele>70.0</ele><time>2026-03-28T13:12:07.706Z</time></trkpt><trkpt lat="45.8887348" lon="10.8790592"><ele>70.0</ele><time>2026-03-28T13:12:08.706Z</time></trkpt><trkpt lat="45.8885736" lon="10.8790282"><ele>70.0</ele><time>2026-03-28T13:12:09.707Z</time></trkpt><trkpt lat="45.8884156" lon="10.8789956"><ele>70.33333333333333</ele><time>2026-03-28T13:12:10.706Z</time></trkpt><trkpt lat="45.888257" lon="10.8789679"><ele>70.66666666666667</ele><time>2026-03-28T13:12:11.706Z</time></trkpt><trkpt lat="45.8880926" lon="10.8789399"><ele>71.0</ele><time>2026-03-28T13:12:12.705Z</time></trkpt><trkpt lat="45.887928" lon="10.8789161"><ele>71.0</ele><time>2026-03-28T13:12:13.707Z</time></trkpt><trkpt lat="45.8877615" lon="10.8788895"><ele>71.0</ele><time>2026-03-28T13:12:14.705Z</time></trkpt><trkpt lat="45.8875971" lon="10.878861"><ele>71.0</ele><time>2026-03-28T13:12:15.707Z</time></trkpt><trkpt lat="45.887431" lon="10.8788318"><ele>70.66666666666667</ele><time>2026-03-28T13:12:16.707Z</time></trkpt><trkpt lat="45.8872726" lon="10.8787974"><ele>70.33333333333333</ele><time>2026-03-28T13:12:17.707Z</time></trkpt><trkpt lat="45.8871086" lon="10.8787729"><ele>70.0</ele><time>2026-03-28T13:12:18.707Z</time></trkpt><trkpt lat="45.8869407" lon="10.8787474"><ele>70.0</ele><time>2026-03-28T13:12:19.707Z</time></trkpt><trkpt lat="45.8867777" lon="10.8787237"><ele>70.0</ele><time>2026-03-28T13:12:20.706Z</time></trkpt><trkpt lat="45.8866121" lon="10.8787003"><ele>70.0</ele><time>2026-03-28T13:12:21.706Z</time></trkpt><trkpt lat="45.886446" lon="10.8786721"><ele>70.33333333333333</ele><time>2026-03-28T13:12:22.707Z</time></trkpt><trkpt lat="45.8862772" lon="10.8786459"><ele>70.66666666666667</ele><time>2026-03-28T13:12:23.706Z</time></trkpt><trkpt lat="45.886103" lon="10.8786173"><ele>71.0</ele><time>2026-03-28T13:12:24.707Z</time></trkpt><trkpt lat="45.8859364" lon="10.8785857"><ele>71.0</ele><time>2026-03-28T13:12:25.707Z</time></trkpt><trkpt lat="45.8857641" lon="10.8785577"><ele>71.0</ele><time>2026-03-28T13:12:26.705Z</time></trkpt><trkpt lat="45.8856033" lon="10.8785214"><ele>71.0</ele><time>2026-03-28T13:12:27.707Z</time></trkpt><trkpt lat="45.8854399" lon="10.8784688"><ele>71.0</ele><time>2026-03-28T13:12:28.707Z</time></trkpt><trkpt lat="45.8852859" lon="10.8783969"><ele>71.0</ele><time>2026-03-28T13:12:29.706Z</time></trkpt><trkpt lat="45.8851344" lon="10.8783129"><ele>71.0</ele><time>2026-03-28T13:12:30.707Z</time></trkpt><trkpt lat="45.8849794" lon="10.8782255"><ele>71.0</ele><time>2026-03-28T13:12:31.706Z</time></trkpt><trkpt lat="45.8848257" lon="10.8781366"><ele>71.0</ele><time>2026-03-28T13:12:32.707Z</time></trkpt><trkpt lat="45.884668" lon="10.8780468"><ele>71.0</ele><time>2026-03-28T13:12:33.707Z</time></trkpt><trkpt lat="45.8845139" lon="10.8779527"><ele>71.0</ele><time>2026-03-28T13:12:34.706Z</time></trkpt><trkpt lat="45.8843575" lon="10.8778595"><ele>71.0</ele><time>2026-03-28T13:12:35.706Z</time></trkpt><trkpt lat="45.8842024" lon="10.8777643"><ele>71.0</ele><time>2026-03-28T13:12:36.707Z</time></trkpt><trkpt lat="45.8840491" lon="10.8776756"><ele>73.33333333333334</ele><time>2026-03-28T13:12:37.707Z</time></trkpt><trkpt lat="45.8838991" lon="10.8775839"><ele>75.66666666666667</ele><time>2026-03-28T13:12:38.707Z</time></trkpt><trkpt lat="45.8837485" lon="10.8775061"><ele>78.0</ele><time>2026-03-28T13:12:39.706Z</time></trkpt><trkpt lat="45.8835945" lon="10.8774294"><ele>78.0</ele><time>2026-03-28T13:12:40.707Z</time></trkpt><trkpt lat="45.8834441" lon="10.8773574"><ele>78.0</ele><time>2026-03-28T13:12:41.706Z</time></trkpt><trkpt lat="45.8832885" lon="10.8772805"><ele>78.0</ele><time>2026-03-28T13:12:42.707Z</time></trkpt><trkpt lat="45.8831289" lon="10.8772076"><ele>76.33333333333333</ele><time>2026-03-28T13:12:43.707Z</time></trkpt><trkpt lat="45.88297" lon="10.8771372"><ele>74.66666666666666</ele><time>2026-03-28T13:12:44.706Z</time></trkpt><trkpt lat="45.882813" lon="10.8770622"><ele>73.0</ele><time>2026-03-28T13:12:45.707Z</time></trkpt><trkpt lat="45.8826554" lon="10.8769926"><ele>72.0</ele><time>2026-03-28T13:12:46.706Z</time></trkpt><trkpt lat="45.8824921" lon="10.8769177"><ele>71.0</ele><time>2026-03-28T13:12:47.707Z</time></trkpt><trkpt lat="45.8823382" lon="10.8768401"><ele>70.0</ele><time>2026-03-28T13:12:48.707Z</time></trkpt><trkpt lat="45.8821887" lon="10.8767531"><ele>70.75</ele><time>2026-03-28T13:12:49.708Z</time></trkpt><trkpt lat="45.8820536" lon="10.8766563"><ele>71.5</ele><time>2026-03-28T13:12:50.706Z</time></trkpt><trkpt lat="45.8819353" lon="10.8765517"><ele>72.25</ele><time>2026-03-28T13:12:51.706Z</time></trkpt><trkpt lat="45.8818224" lon="10.8764355"><ele>73.0</ele><time>2026-03-28T13:12:52.707Z</time></trkpt><trkpt lat="45.8817103" lon="10.8763217"><ele>73.0</ele><time>2026-03-28T13:12:53.706Z</time></trkpt><trkpt lat="45.8815991" lon="10.8762068"><ele>73.0</ele><time>2026-03-28T13:12:54.707Z</time></trkpt><trkpt lat="45.88149" lon="10.8760845"><ele>73.0</ele><time>2026-03-28T13:12:55.707Z</time></trkpt><trkpt lat="45.8813814" lon="10.8759613"><ele>73.0</ele><time>2026-03-28T13:12:56.706Z</time></trkpt><trkpt lat="45.8812775" lon="10.875835"><ele>72.5</ele><time>2026-03-28T13:12:57.707Z</time></trkpt><trkpt lat="45.881177" lon="10.8757097"><ele>72.0</ele><time>2026-03-28T13:12:58.707Z</time></trkpt><trkpt lat="45.8810807" lon="10.8755734"><ele>71.5</ele><time>2026-03-28T13:12:59.705Z</time></trkpt><trkpt lat="45.88099" lon="10.8754337"><ele>71.0</ele><time>2026-03-28T13:13:00.706Z</time></trkpt><trkpt lat="45.8808999" lon="10.8752883"><ele>71.0</ele><time>2026-03-28T13:13:01.707Z</time></trkpt><trkpt lat="45.8808051" lon="10.8751416"><ele>71.0</ele><time>2026-03-28T13:13:02.707Z</time></trkpt><trkpt lat="45.8807112" lon="10.8749997"><ele>71.0</ele><time>2026-03-28T13:13:03.706Z</time></trkpt><trkpt lat="45.8806152" lon="10.8748588"><ele>71.0</ele><time>2026-03-28T13:13:04.706Z</time></trkpt><trkpt lat="45.8805162" lon="10.8747211"><ele>71.75</ele><time>2026-03-28T13:13:05.706Z</time></trkpt><trkpt lat="45.8804198" lon="10.8745951"><ele>72.5</ele><time>2026-03-28T13:13:06.706Z</time></trkpt><trkpt lat="45.880326" lon="10.8744763"><ele>73.25</ele><time>2026-03-28T13:13:07.706Z</time></trkpt><trkpt lat="45.8802255" lon="10.8743654"><ele>74.0</ele><time>2026-03-28T13:13:08.706Z</time></trkpt><trkpt lat="45.8801181" lon="10.8742689"><ele>73.5</ele><time>2026-03-28T13:13:09.705Z</time></trkpt><trkpt lat="45.880002" lon="10.8741909"><ele>73.0</ele><time>2026-03-28T13:13:10.706Z</time></trkpt><trkpt lat="45.879875" lon="10.8741366"><ele>72.5</ele><time>2026-03-28T13:13:11.706Z</time></trkpt><trkpt lat="45.8797442" lon="10.8740971"><ele>72.0</ele><time>2026-03-28T13:13:12.707Z</time></trkpt><trkpt lat="45.879619" lon="10.8740617"><ele>72.0</ele><time>2026-03-28T13:13:13.705Z</time></trkpt><trkpt lat="45.8794819" lon="10.8740314"><ele>72.0</ele><time>2026-03-28T13:13:14.706Z</time></trkpt><trkpt lat="45.8793438" lon="10.8740071"><ele>72.0</ele><time>2026-03-28T13:13:15.707Z</time></trkpt><trkpt lat="45.8792083" lon="10.8739818"><ele>72.0</ele><time>2026-03-28T13:13:16.707Z</time></trkpt><trkpt lat="45.8790701" lon="10.8739587"><ele>72.0</ele><time>2026-03-28T13:13:17.706Z</time></trkpt><trkpt lat="45.8789318" lon="10.873927"><ele>72.0</ele><time>2026-03-28T13:13:18.706Z</time></trkpt><trkpt lat="45.8787934" lon="10.8738969"><ele>72.0</ele><time>2026-03-28T13:13:19.706Z</time></trkpt><trkpt lat="45.8786585" lon="10.8738683"><ele>72.0</ele><time>2026-03-28T13:13:20.706Z</time></trkpt><trkpt lat="45.8785259" lon="10.873839"><ele>70.75</ele><time>2026-03-28T13:13:21.707Z</time></trkpt><trkpt lat="45.878395" lon="10.8738181"><ele>69.5</ele><time>2026-03-28T13:13:22.706Z</time></trkpt><trkpt lat="45.8782544" lon="10.8737923"><ele>68.25</ele><time>2026-03-28T13:13:23.706Z</time></trkpt><trkpt lat="45.8781229" lon="10.8737611"><ele>67.0</ele><time>2026-03-28T13:13:24.706Z</time></trkpt><trkpt lat="45.8780022" lon="10.8737262"><ele>67.0</ele><time>2026-03-28T13:13:25.707Z</time></trkpt><trkpt lat="45.8778838" lon="10.8736819"><ele>67.0</ele><time>2026-03-28T13:13:26.706Z</time></trkpt><trkpt lat="45.8777702" lon="10.8736258"><ele>67.0</ele><time>2026-03-28T13:13:27.707Z</time></trkpt><trkpt lat="45.8776714" lon="10.873523"><ele>67.0</ele><time>2026-03-28T13:13:28.707Z</time></trkpt><trkpt lat="45.8775789" lon="10.8734025"><ele>67.5</ele><time>2026-03-28T13:13:29.705Z</time></trkpt><trkpt lat="45.877488" lon="10.8732693"><ele>68.0</ele><time>2026-03-28T13:13:30.706Z</time></trkpt><trkpt lat="45.8774057" lon="10.8731195"><ele>68.5</ele><time>2026-03-28T13:13:31.706Z</time></trkpt><trkpt lat="45.8773214" lon="10.8729587"><ele>69.0</ele><time>2026-03-28T13:13:32.706Z</time></trkpt><trkpt lat="45.8772486" lon="10.872797"><ele>69.0</ele><time>2026-03-28T13:13:33.707Z</time></trkpt><trkpt lat="45.8771756" lon="10.8726303"><ele>69.0</ele><time>2026-03-28T13:13:34.707Z</time></trkpt><trkpt lat="45.8771035" lon="10.8724603"><ele>69.0</ele><time>2026-03-28T13:13:35.706Z</time></trkpt><trkpt lat="45.8770352" lon="10.8722885"><ele>69.0</ele><time>2026-03-28T13:13:36.707Z</time></trkpt><trkpt lat="45.8769771" lon="10.872117"><ele>68.5</ele><time>2026-03-28T13:13:37.707Z</time></trkpt><trkpt lat="45.8769098" lon="10.8719516"><ele>68.0</ele><time>2026-03-28T13:13:38.706Z</time></trkpt><trkpt lat="45.8768463" lon="10.8717998"><ele>67.5</ele><time>2026-03-28T13:13:39.707Z</time></trkpt><trkpt lat="45.8767919" lon="10.8716503"><ele>67.0</ele><time>2026-03-28T13:13:40.706Z</time></trkpt><trkpt lat="45.8767436" lon="10.8715157"><ele>66.66666666666666</ele><time>2026-03-28T13:13:41.706Z</time></trkpt><trkpt lat="45.8767038" lon="10.8714035"><ele>66.33333333333333</ele><time>2026-03-28T13:13:42.707Z</time></trkpt><trkpt lat="45.8766682" lon="10.8712968"><ele>66.0</ele><time>2026-03-28T13:13:43.707Z</time></trkpt><trkpt lat="45.8766441" lon="10.8712117"><ele>65.66666666666667</ele><time>2026-03-28T13:13:44.707Z</time></trkpt><trkpt lat="45.8766177" lon="10.8710978"><ele>65.33333333333334</ele><time>2026-03-28T13:13:46.707Z</time></trkpt><trkpt lat="45.8766015" lon="10.8710042"><ele>65.0</ele><time>2026-03-28T13:13:52.706Z</time></trkpt><trkpt lat="45.8766163" lon="10.8708817"><ele>65.0</ele><time>2026-03-28T13:13:54.706Z</time></trkpt><trkpt lat="45.8766263" lon="10.8707922"><ele>65.0</ele><time>2026-03-28T13:13:55.706Z</time></trkpt><trkpt lat="45.8766183" lon="10.8706949"><ele>65.0</ele><time>2026-03-28T13:13:56.706Z</time></trkpt><trkpt lat="45.8765849" lon="10.8706136"><ele>65.0</ele><time>2026-03-28T13:13:57.706Z</time></trkpt><trkpt lat="45.8764698" lon="10.8705435"><ele>65.0</ele><time>2026-03-28T13:13:59.706Z</time></trkpt><trkpt lat="45.8764056" lon="10.870561"><ele>65.0</ele><time>2026-03-28T13:14:00.706Z</time></trkpt><trkpt lat="45.8763512" lon="10.8706174"><ele>65.0</ele><time>2026-03-28T13:14:01.706Z</time></trkpt><trkpt lat="45.8762948" lon="10.8707009"><ele>65.0</ele><time>2026-03-28T13:14:02.706Z</time></trkpt><trkpt lat="45.8762204" lon="10.8707919"><ele>65.0</ele><time>2026-03-28T13:14:03.707Z</time></trkpt><trkpt lat="45.8761316" lon="10.8708864"><ele>65.0</ele><time>2026-03-28T13:14:04.707Z</time></trkpt><trkpt lat="45.8760367" lon="10.8709885"><ele>65.0</ele><time>2026-03-28T13:14:05.706Z</time></trkpt><trkpt lat="45.8759412" lon="10.8711132"><ele>65.25</ele><time>2026-03-28T13:14:06.705Z</time></trkpt><trkpt lat="45.8758482" lon="10.8712465"><ele>65.5</ele><time>2026-03-28T13:14:07.707Z</time></trkpt><trkpt lat="45.8757577" lon="10.8713882"><ele>65.75</ele><time>2026-03-28T13:14:08.706Z</time></trkpt><trkpt lat="45.8756724" lon="10.8715356"><ele>66.0</ele><time>2026-03-28T13:14:09.707Z</time></trkpt><trkpt lat="45.8755924" lon="10.8716802"><ele>66.0</ele><time>2026-03-28T13:14:10.706Z</time></trkpt><trkpt lat="45.8755166" lon="10.8718283"><ele>66.0</ele><time>2026-03-28T13:14:11.707Z</time></trkpt><trkpt lat="45.8754405" lon="10.8719681"><ele>66.0</ele><time>2026-03-28T13:14:12.707Z</time></trkpt><trkpt lat="45.87536" lon="10.8721115"><ele>66.0</ele><time>2026-03-28T13:14:13.706Z</time></trkpt><trkpt lat="45.8752784" lon="10.8722509"><ele>66.0</ele><time>2026-03-28T13:14:14.707Z</time></trkpt><trkpt lat="45.8751913" lon="10.8723908"><ele>66.0</ele><time>2026-03-28T13:14:15.706Z</time></trkpt><trkpt lat="45.875102" lon="10.8725182"><ele>66.0</ele><time>2026-03-28T13:14:16.706Z</time></trkpt><trkpt lat="45.8750118" lon="10.8726343"><ele>66.0</ele><time>2026-03-28T13:14:17.706Z</time></trkpt><trkpt lat="45.8749157" lon="10.8727508"><ele>66.25</ele><time>2026-03-28T13:14:18.706Z</time></trkpt><trkpt lat="45.874815" lon="10.8728608"><ele>66.5</ele><time>2026-03-28T13:14:19.708Z</time></trkpt><trkpt lat="45.8747119" lon="10.8729747"><ele>66.75</ele><time>2026-03-28T13:14:20.705Z</time></trkpt><trkpt lat="45.8746121" lon="10.8730891"><ele>67.0</ele><time>2026-03-28T13:14:21.706Z</time></trkpt><trkpt lat="45.8745083" lon="10.8731977"><ele>67.0</ele><time>2026-03-28T13:14:22.707Z</time></trkpt><trkpt lat="45.874407" lon="10.8733017"><ele>67.0</ele><time>2026-03-28T13:14:23.706Z</time></trkpt><trkpt lat="45.8743089" lon="10.8734068"><ele>67.0</ele><time>2026-03-28T13:14:24.707Z</time></trkpt><trkpt lat="45.8742044" lon="10.8735025"><ele>67.0</ele><time>2026-03-28T13:14:25.706Z</time></trkpt><trkpt lat="45.8740889" lon="10.8735859"><ele>67.0</ele><time>2026-03-28T13:14:26.707Z</time></trkpt><trkpt lat="45.8739691" lon="10.8736727"><ele>67.0</ele><time>2026-03-28T13:14:27.707Z</time></trkpt><trkpt lat="45.8738584" lon="10.8737387"><ele>67.0</ele><time>2026-03-28T13:14:28.707Z</time></trkpt><trkpt lat="45.8737515" lon="10.8738061"><ele>67.0</ele><time>2026-03-28T13:14:29.706Z</time></trkpt><trkpt lat="45.8736527" lon="10.8738627"><ele>67.0</ele><time>2026-03-28T13:14:30.706Z</time></trkpt><trkpt lat="45.8735702" lon="10.8739137"><ele>67.0</ele><time>2026-03-28T13:14:31.706Z</time></trkpt><trkpt lat="45.8734986" lon="10.8739525"><ele>67.0</ele><time>2026-03-28T13:14:32.706Z</time></trkpt><trkpt lat="45.8734326" lon="10.8739883"><ele>67.0</ele><time>2026-03-28T13:14:33.706Z</time></trkpt><trkpt lat="45.8733303" lon="10.8740421"><ele>67.0</ele><time>2026-03-28T13:14:35.707Z</time></trkpt><trkpt lat="45.8732232" lon="10.8740921"><ele>67.0</ele><time>2026-03-28T13:14:37.707Z</time></trkpt><trkpt lat="45.8731512" lon="10.8741255"><ele>67.0</ele><time>2026-03-28T13:14:38.706Z</time></trkpt><trkpt lat="45.8730667" lon="10.8741709"><ele>67.0</ele><time>2026-03-28T13:14:39.706Z</time></trkpt><trkpt lat="45.8729728" lon="10.8742363"><ele>67.0</ele><time>2026-03-28T13:14:40.706Z</time></trkpt><trkpt lat="45.8728723" lon="10.8743138"><ele>67.0</ele><time>2026-03-28T13:14:41.706Z</time></trkpt><trkpt lat="45.8727699" lon="10.8743855"><ele>67.0</ele><time>2026-03-28T13:14:42.707Z</time></trkpt><trkpt lat="45.8726693" lon="10.874459"><ele>67.0</ele><time>2026-03-28T13:14:43.706Z</time></trkpt><trkpt lat="45.8725821" lon="10.8745241"><ele>67.0</ele><time>2026-03-28T13:14:44.706Z</time></trkpt><trkpt lat="45.8725002" lon="10.8745847"><ele>67.0</ele><time>2026-03-28T13:14:45.707Z</time></trkpt><trkpt lat="45.8724294" lon="10.8746422"><ele>67.0</ele><time>2026-03-28T13:14:46.706Z</time></trkpt><trkpt lat="45.8723672" lon="10.8746904"><ele>66.83333333333333</ele><time>2026-03-28T13:14:47.706Z</time></trkpt><trkpt lat="45.8723077" lon="10.8747323"><ele>66.66666666666666</ele><time>2026-03-28T13:14:48.707Z</time></trkpt><trkpt lat="45.872248" lon="10.8747774"><ele>66.5</ele><time>2026-03-28T13:14:49.707Z</time></trkpt><trkpt lat="45.8721757" lon="10.8748352"><ele>66.33333333333333</ele><time>2026-03-28T13:14:50.707Z</time></trkpt><trkpt lat="45.8720975" lon="10.8749003"><ele>66.16666666666667</ele><time>2026-03-28T13:14:51.707Z</time></trkpt><trkpt lat="45.8720086" lon="10.8749589"><ele>66.0</ele><time>2026-03-28T13:14:52.706Z</time></trkpt><trkpt lat="45.8719149" lon="10.8750055"><ele>66.0</ele><time>2026-03-28T13:14:53.706Z</time></trkpt><trkpt lat="45.8718118" lon="10.8750524"><ele>66.0</ele><time>2026-03-28T13:14:54.706Z</time></trkpt><trkpt lat="45.8717073" lon="10.8750962"><ele>66.0</ele><time>2026-03-28T13:14:55.707Z</time></trkpt><trkpt lat="45.8716024" lon="10.8751357"><ele>66.0</ele><time>2026-03-28T13:14:56.706Z</time></trkpt><trkpt lat="45.8715043" lon="10.8751736"><ele>66.0</ele><time>2026-03-28T13:14:57.707Z</time></trkpt><trkpt lat="45.8714155" lon="10.8752186"><ele>66.2</ele><time>2026-03-28T13:14:58.706Z</time></trkpt><trkpt lat="45.8713294" lon="10.8752803"><ele>66.39999999999999</ele><time>2026-03-28T13:14:59.706Z</time></trkpt><trkpt lat="45.8712506" lon="10.8753632"><ele>66.6</ele><time>2026-03-28T13:15:00.707Z</time></trkpt><trkpt lat="45.8711806" lon="10.8754528"><ele>66.8</ele><time>2026-03-28T13:15:01.706Z</time></trkpt><trkpt lat="45.8711192" lon="10.8755472"><ele>67.0</ele><time>2026-03-28T13:15:02.706Z</time></trkpt><trkpt lat="45.8710649" lon="10.8756347"><ele>67.0</ele><time>2026-03-28T13:15:03.707Z</time></trkpt><trkpt lat="45.8710194" lon="10.8757153"><ele>67.0</ele><time>2026-03-28T13:15:04.706Z</time></trkpt><trkpt lat="45.8709659" lon="10.8757927"><ele>67.0</ele><time>2026-03-28T13:15:05.707Z</time></trkpt><trkpt lat="45.8709233" lon="10.875865"><ele>67.0</ele><time>2026-03-28T13:15:06.707Z</time></trkpt><trkpt lat="45.8708258" lon="10.8759646"><ele>67.0</ele><time>2026-03-28T13:15:08.706Z</time></trkpt><trkpt lat="45.8706893" lon="10.8759969"><ele>67.28571428571429</ele><time>2026-03-28T13:15:10.706Z</time></trkpt><trkpt lat="45.8706122" lon="10.8759856"><ele>67.57142857142857</ele><time>2026-03-28T13:15:11.706Z</time></trkpt><trkpt lat="45.8705377" lon="10.8759614"><ele>67.85714285714286</ele><time>2026-03-28T13:15:12.706Z</time></trkpt><trkpt lat="45.8704732" lon="10.8759354"><ele>68.14285714285714</ele><time>2026-03-28T13:15:13.708Z</time></trkpt><trkpt lat="45.8704075" lon="10.875905"><ele>68.42857142857143</ele><time>2026-03-28T13:15:14.706Z</time></trkpt><trkpt lat="45.8703404" lon="10.8758761"><ele>68.71428571428572</ele><time>2026-03-28T13:15:15.706Z</time></trkpt><trkpt lat="45.8702623" lon="10.8758491"><ele>69.0</ele><time>2026-03-28T13:15:16.708Z</time></trkpt><trkpt lat="45.8701833" lon="10.8758229"><ele>69.33333333333333</ele><time>2026-03-28T13:15:17.706Z</time></trkpt><trkpt lat="45.8700996" lon="10.8757983"><ele>69.66666666666667</ele><time>2026-03-28T13:15:18.706Z</time></trkpt><trkpt lat="45.8700111" lon="10.8757774"><ele>70.0</ele><time>2026-03-28T13:15:19.707Z</time></trkpt><trkpt lat="45.8699285" lon="10.875761"><ele>70.33333333333334</ele><time>2026-03-28T13:15:20.707Z</time></trkpt><trkpt lat="45.8698425" lon="10.8757625"><ele>70.66666666666667</ele><time>2026-03-28T13:15:21.707Z</time></trkpt><trkpt lat="45.8697543" lon="10.8757894"><ele>71.0</ele><time>2026-03-28T13:15:22.706Z</time></trkpt><trkpt lat="45.8696701" lon="10.8758305"><ele>71.0</ele><time>2026-03-28T13:15:23.707Z</time></trkpt><trkpt lat="45.869587" lon="10.8758656"><ele>71.0</ele><time>2026-03-28T13:15:24.706Z</time></trkpt><trkpt lat="45.8695156" lon="10.8759129"><ele>71.0</ele><time>2026-03-28T13:15:25.706Z</time></trkpt><trkpt lat="45.8694476" lon="10.875964"><ele>71.0</ele><time>2026-03-28T13:15:26.707Z</time></trkpt><trkpt lat="45.8693896" lon="10.876007"><ele>71.0</ele><time>2026-03-28T13:15:27.707Z</time></trkpt><trkpt lat="45.8693078" lon="10.876075"><ele>71.0</ele><time>2026-03-28T13:15:29.707Z</time></trkpt><trkpt lat="45.8692338" lon="10.8761341"><ele>70.6</ele><time>2026-03-28T13:15:31.707Z</time></trkpt><trkpt lat="45.869142" lon="10.8762082"><ele>70.19999999999999</ele><time>2026-03-28T13:15:33.706Z</time></trkpt><trkpt lat="45.8690512" lon="10.8762798"><ele>69.80000000000001</ele><time>2026-03-28T13:15:35.707Z</time></trkpt><trkpt lat="45.8689444" lon="10.8763772"><ele>69.4</ele><time>2026-03-28T13:15:37.707Z</time></trkpt><trkpt lat="45.8688838" lon="10.8764251"><ele>69.0</ele><time>2026-03-28T13:15:38.707Z</time></trkpt><trkpt lat="45.8687752" lon="10.8765119"><ele>69.0</ele><time>2026-03-28T13:15:40.707Z</time></trkpt><trkpt lat="45.868688" lon="10.8765788"><ele>69.0</ele><time>2026-03-28T13:15:42.706Z</time></trkpt><trkpt lat="45.8685832" lon="10.87666"><ele>69.0</ele><time>2026-03-28T13:15:44.706Z</time></trkpt><trkpt lat="45.8685196" lon="10.876706"><ele>69.0</ele><time>2026-03-28T13:15:45.706Z</time></trkpt><trkpt lat="45.8684465" lon="10.8767546"><ele>69.0</ele><time>2026-03-28T13:15:46.706Z</time></trkpt><trkpt lat="45.8683687" lon="10.8768065"><ele>69.4</ele><time>2026-03-28T13:15:47.707Z</time></trkpt><trkpt lat="45.8682871" lon="10.8768627"><ele>69.80000000000001</ele><time>2026-03-28T13:15:48.706Z</time></trkpt><trkpt lat="45.8681919" lon="10.8769188"><ele>70.19999999999999</ele><time>2026-03-28T13:15:49.707Z</time></trkpt><trkpt lat="45.8681046" lon="10.8769745"><ele>70.6</ele><time>2026-03-28T13:15:50.706Z</time></trkpt><trkpt lat="45.8680264" lon="10.8770144"><ele>71.0</ele><time>2026-03-28T13:15:51.707Z</time></trkpt><trkpt lat="45.8679489" lon="10.8770505"><ele>71.0</ele><time>2026-03-28T13:15:52.706Z</time></trkpt><trkpt lat="45.8678639" lon="10.8770694"><ele>71.0</ele><time>2026-03-28T13:15:53.707Z</time></trkpt><trkpt lat="45.8677764" lon="10.8770902"><ele>71.0</ele><time>2026-03-28T13:15:54.708Z</time></trkpt><trkpt lat="45.8676863" lon="10.8771006"><ele>71.0</ele><time>2026-03-28T13:15:55.706Z</time></trkpt><trkpt lat="45.8676063" lon="10.8771013"><ele>71.0</ele><time>2026-03-28T13:15:56.707Z</time></trkpt><trkpt lat="45.8675331" lon="10.8770935"><ele>71.0</ele><time>2026-03-28T13:15:57.706Z</time></trkpt><trkpt lat="45.8674593" lon="10.8770853"><ele>70.8</ele><time>2026-03-28T13:15:58.708Z</time></trkpt><trkpt lat="45.8673956" lon="10.8770751"><ele>70.6</ele><time>2026-03-28T13:15:59.706Z</time></trkpt><trkpt lat="45.867287" lon="10.8770467"><ele>70.4</ele><time>2026-03-28T13:16:01.706Z</time></trkpt><trkpt lat="45.867168" lon="10.877009"><ele>70.2</ele><time>2026-03-28T13:16:03.707Z</time></trkpt><trkpt lat="45.86704" lon="10.8769437"><ele>70.0</ele><time>2026-03-28T13:16:05.707Z</time></trkpt><trkpt lat="45.8669682" lon="10.8768986"><ele>70.0</ele><time>2026-03-28T13:16:06.706Z</time></trkpt><trkpt lat="45.8668912" lon="10.8768499"><ele>70.0</ele><time>2026-03-28T13:16:07.707Z</time></trkpt><trkpt lat="45.8668084" lon="10.8767886"><ele>70.0</ele><time>2026-03-28T13:16:08.707Z</time></trkpt><trkpt lat="45.8667235" lon="10.8767225"><ele>70.0</ele><time>2026-03-28T13:16:09.706Z</time></trkpt><trkpt lat="45.8666298" lon="10.8766519"><ele>70.0</ele><time>2026-03-28T13:16:10.706Z</time></trkpt><trkpt lat="45.8665322" lon="10.8765704"><ele>69.0</ele><time>2026-03-28T13:16:11.706Z</time></trkpt><trkpt lat="45.86643" lon="10.8764867"><ele>68.0</ele><time>2026-03-28T13:16:12.707Z</time></trkpt><trkpt lat="45.8663234" lon="10.8764007"><ele>67.0</ele><time>2026-03-28T13:16:13.707Z</time></trkpt><trkpt lat="45.8662087" lon="10.876317"><ele>66.0</ele><time>2026-03-28T13:16:14.707Z</time></trkpt><trkpt lat="45.8661129" lon="10.8762337"><ele>66.0</ele><time>2026-03-28T13:16:15.707Z</time></trkpt><trkpt lat="45.866018" lon="10.8761559"><ele>66.0</ele><time>2026-03-28T13:16:16.706Z</time></trkpt><trkpt lat="45.8659268" lon="10.8760817"><ele>66.0</ele><time>2026-03-28T13:16:17.706Z</time></trkpt><trkpt lat="45.8658366" lon="10.8760035"><ele>66.0</ele><time>2026-03-28T13:16:18.706Z</time></trkpt><trkpt lat="45.8657429" lon="10.8759241"><ele>66.0</ele><time>2026-03-28T13:16:19.707Z</time></trkpt><trkpt lat="45.8656462" lon="10.8758439"><ele>65.75</ele><time>2026-03-28T13:16:20.706Z</time></trkpt><trkpt lat="45.8655464" lon="10.8757618"><ele>65.5</ele><time>2026-03-28T13:16:21.706Z</time></trkpt><trkpt lat="45.8654462" lon="10.8756836"><ele>65.25</ele><time>2026-03-28T13:16:22.706Z</time></trkpt><trkpt lat="45.865348" lon="10.8756038"><ele>65.0</ele><time>2026-03-28T13:16:23.708Z</time></trkpt><trkpt lat="45.8652394" lon="10.8755283"><ele>65.0</ele><time>2026-03-28T13:16:24.706Z</time></trkpt><trkpt lat="45.8651346" lon="10.875465"><ele>65.0</ele><time>2026-03-28T13:16:25.706Z</time></trkpt><trkpt lat="45.8650301" lon="10.8754048"><ele>65.0</ele><time>2026-03-28T13:16:26.707Z</time></trkpt><trkpt lat="45.8649302" lon="10.8753475"><ele>65.0</ele><time>2026-03-28T13:16:27.706Z</time></trkpt><trkpt lat="45.8648264" lon="10.875292"><ele>65.0</ele><time>2026-03-28T13:16:28.707Z</time></trkpt><trkpt lat="45.8647242" lon="10.8752438"><ele>68.2</ele><time>2026-03-28T13:16:29.706Z</time></trkpt><trkpt lat="45.8646186" lon="10.8752116"><ele>71.4</ele><time>2026-03-28T13:16:30.707Z</time></trkpt><trkpt lat="45.8645123" lon="10.875195"><ele>74.6</ele><time>2026-03-28T13:16:31.706Z</time></trkpt><trkpt lat="45.8644051" lon="10.8752019"><ele>77.8</ele><time>2026-03-28T13:16:32.706Z</time></trkpt><trkpt lat="45.8642948" lon="10.8752306"><ele>81.0</ele><time>2026-03-28T13:16:33.707Z</time></trkpt><trkpt lat="45.8641856" lon="10.8752714"><ele>81.0</ele><time>2026-03-28T13:16:34.706Z</time></trkpt><trkpt lat="45.8640891" lon="10.8753268"><ele>81.0</ele><time>2026-03-28T13:16:35.707Z</time></trkpt><trkpt lat="45.8639928" lon="10.8754023"><ele>81.0</ele><time>2026-03-28T13:16:36.706Z</time></trkpt><trkpt lat="45.8639034" lon="10.8754913"><ele>81.0</ele><time>2026-03-28T13:16:37.707Z</time></trkpt><trkpt lat="45.8638165" lon="10.8755961"><ele>81.0</ele><time>2026-03-28T13:16:38.707Z</time></trkpt><trkpt lat="45.8637324" lon="10.8757123"><ele>81.0</ele><time>2026-03-28T13:16:39.707Z</time></trkpt><trkpt lat="45.8636536" lon="10.8758271"><ele>81.0</ele><time>2026-03-28T13:16:40.706Z</time></trkpt><trkpt lat="45.8635769" lon="10.8759359"><ele>81.0</ele><time>2026-03-28T13:16:41.706Z</time></trkpt><trkpt lat="45.8635031" lon="10.8760437"><ele>81.0</ele><time>2026-03-28T13:16:42.706Z</time></trkpt><trkpt lat="45.863419" lon="10.8761424"><ele>81.0</ele><time>2026-03-28T13:16:43.707Z</time></trkpt><trkpt lat="45.8633302" lon="10.8762355"><ele>82.75</ele><time>2026-03-28T13:16:44.707Z</time></trkpt><trkpt lat="45.863234" lon="10.8763192"><ele>84.5</ele><time>2026-03-28T13:16:45.707Z</time></trkpt><trkpt lat="45.863126" lon="10.8764087"><ele>86.25</ele><time>2026-03-28T13:16:46.706Z</time></trkpt><trkpt lat="45.8630134" lon="10.8764754"><ele>88.0</ele><time>2026-03-28T13:16:47.707Z</time></trkpt><trkpt lat="45.8628949" lon="10.8765362"><ele>88.0</ele><time>2026-03-28T13:16:48.708Z</time></trkpt><trkpt lat="45.8627684" lon="10.8765821"><ele>88.0</ele><time>2026-03-28T13:16:49.708Z</time></trkpt><trkpt lat="45.8626394" lon="10.8766167"><ele>88.0</ele><time>2026-03-28T13:16:50.707Z</time></trkpt><trkpt lat="45.8625157" lon="10.8766304"><ele>88.0</ele><time>2026-03-28T13:16:51.707Z</time></trkpt><trkpt lat="45.862395" lon="10.8766329"><ele>84.25</ele><time>2026-03-28T13:16:52.707Z</time></trkpt><trkpt lat="45.8622787" lon="10.8766262"><ele>80.5</ele><time>2026-03-28T13:16:53.706Z</time></trkpt><trkpt lat="45.8621637" lon="10.8766084"><ele>76.75</ele><time>2026-03-28T13:16:54.706Z</time></trkpt><trkpt lat="45.8620488" lon="10.8765726"><ele>73.0</ele><time>2026-03-28T13:16:55.706Z</time></trkpt><trkpt lat="45.8619363" lon="10.8765266"><ele>73.0</ele><time>2026-03-28T13:16:56.706Z</time></trkpt><trkpt lat="45.8618197" lon="10.8764659"><ele>73.0</ele><time>2026-03-28T13:16:57.708Z</time></trkpt><trkpt lat="45.8617064" lon="10.8763908"><ele>73.0</ele><time>2026-03-28T13:16:58.707Z</time></trkpt><trkpt lat="45.8615946" lon="10.8763032"><ele>73.0</ele><time>2026-03-28T13:16:59.707Z</time></trkpt><trkpt lat="45.861484" lon="10.8762031"><ele>71.25</ele><time>2026-03-28T13:17:00.707Z</time></trkpt><trkpt lat="45.8613696" lon="10.8760994"><ele>69.5</ele><time>2026-03-28T13:17:01.706Z</time></trkpt><trkpt lat="45.861261" lon="10.8759888"><ele>67.75</ele><time>2026-03-28T13:17:02.707Z</time></trkpt><trkpt lat="45.8611559" lon="10.8758512"><ele>66.0</ele><time>2026-03-28T13:17:03.706Z</time></trkpt><trkpt lat="45.8610648" lon="10.8757086"><ele>66.0</ele><time>2026-03-28T13:17:04.706Z</time></trkpt><trkpt lat="45.8609841" lon="10.8755666"><ele>66.0</ele><time>2026-03-28T13:17:05.707Z</time></trkpt><trkpt lat="45.8609178" lon="10.875443"><ele>66.0</ele><time>2026-03-28T13:17:06.707Z</time></trkpt><trkpt lat="45.8608712" lon="10.8753465"><ele>66.0</ele><time>2026-03-28T13:17:07.707Z</time></trkpt><trkpt lat="45.8608287" lon="10.8752333"><ele>66.0</ele><time>2026-03-28T13:17:09.707Z</time></trkpt><trkpt lat="45.8607909" lon="10.8751472"><ele>67.39999999999999</ele><time>2026-03-28T13:21:48.708Z</time></trkpt><trkpt lat="45.8607093" lon="10.8750561"><ele>68.8</ele><time>2026-03-28T13:21:50.707Z</time></trkpt><trkpt lat="45.8606571" lon="10.874988"><ele>70.19999999999999</ele><time>2026-03-28T13:21:51.708Z</time></trkpt><trkpt lat="45.8605921" lon="10.8749022"><ele>71.6</ele><time>2026-03-28T13:21:52.708Z</time></trkpt><trkpt lat="45.8605087" lon="10.8748057"><ele>73.0</ele><time>2026-03-28T13:21:53.708Z</time></trkpt><trkpt lat="45.8604147" lon="10.8747038"><ele>73.0</ele><time>2026-03-28T13:21:54.708Z</time></trkpt><trkpt lat="45.8603098" lon="10.8745885"><ele>73.0</ele><time>2026-03-28T13:21:55.708Z</time></trkpt><trkpt lat="45.8601948" lon="10.8744655"><ele>73.0</ele><time>2026-03-28T13:21:56.707Z</time></trkpt><trkpt lat="45.8600727" lon="10.8743342"><ele>73.0</ele><time>2026-03-28T13:21:57.707Z</time></trkpt><trkpt lat="45.8599447" lon="10.8741939"><ele>73.0</ele><time>2026-03-28T13:21:58.708Z</time></trkpt><trkpt lat="45.8598309" lon="10.8740585"><ele>73.0</ele><time>2026-03-28T13:21:59.708Z</time></trkpt><trkpt lat="45.8597313" lon="10.8739279"><ele>73.0</ele><time>2026-03-28T13:22:00.707Z</time></trkpt><trkpt lat="45.8596452" lon="10.8738012"><ele>73.0</ele><time>2026-03-28T13:22:01.708Z</time></trkpt><trkpt lat="45.859566" lon="10.8736784"><ele>73.0</ele><time>2026-03-28T13:22:02.707Z</time></trkpt><trkpt lat="45.8594882" lon="10.8735535"><ele>73.0</ele><time>2026-03-28T13:22:03.708Z</time></trkpt><trkpt lat="45.8594114" lon="10.8734238"><ele>73.0</ele><time>2026-03-28T13:22:04.707Z</time></trkpt><trkpt lat="45.8593363" lon="10.873288"><ele>73.0</ele><time>2026-03-28T13:22:05.707Z</time></trkpt><trkpt lat="45.8592568" lon="10.8731511"><ele>74.75</ele><time>2026-03-28T13:22:06.708Z</time></trkpt><trkpt lat="45.8591752" lon="10.8730136"><ele>76.5</ele><time>2026-03-28T13:22:07.708Z</time></trkpt><trkpt lat="45.8590904" lon="10.8728788"><ele>78.25</ele><time>2026-03-28T13:22:08.707Z</time></trkpt><trkpt lat="45.8590018" lon="10.8727433"><ele>80.0</ele><time>2026-03-28T13:22:09.708Z</time></trkpt><trkpt lat="45.8589152" lon="10.8726172"><ele>76.8</ele><time>2026-03-28T13:22:10.708Z</time></trkpt><trkpt lat="45.8588316" lon="10.8725076"><ele>73.6</ele><time>2026-03-28T13:22:11.707Z</time></trkpt><trkpt lat="45.8587509" lon="10.872404"><ele>70.4</ele><time>2026-03-28T13:22:12.708Z</time></trkpt><trkpt lat="45.8586685" lon="10.8722981"><ele>67.2</ele><time>2026-03-28T13:22:13.707Z</time></trkpt><trkpt lat="45.8585862" lon="10.8721898"><ele>64.0</ele><time>2026-03-28T13:22:14.708Z</time></trkpt><trkpt lat="45.858503" lon="10.8720771"><ele>64.75</ele><time>2026-03-28T13:22:15.707Z</time></trkpt><trkpt lat="45.8584172" lon="10.8719605"><ele>65.5</ele><time>2026-03-28T13:22:16.708Z</time></trkpt><trkpt lat="45.8583343" lon="10.8718491"><ele>66.25</ele><time>2026-03-28T13:22:17.707Z</time></trkpt><trkpt lat="45.8582512" lon="10.8717436"><ele>67.0</ele><time>2026-03-28T13:22:18.707Z</time></trkpt><trkpt lat="45.858165" lon="10.8716485"><ele>67.0</ele><time>2026-03-28T13:22:19.707Z</time></trkpt><trkpt lat="45.8580751" lon="10.8715595"><ele>67.0</ele><time>2026-03-28T13:22:20.708Z</time></trkpt><trkpt lat="45.8579789" lon="10.8714796"><ele>67.0</ele><time>2026-03-28T13:22:21.707Z</time></trkpt><trkpt lat="45.8578775" lon="10.8714069"><ele>67.0</ele><time>2026-03-28T13:22:22.707Z</time></trkpt><trkpt lat="45.8577705" lon="10.8713398"><ele>67.0</ele><time>2026-03-28T13:22:23.707Z</time></trkpt><trkpt lat="45.8576649" lon="10.871274"><ele>67.0</ele><time>2026-03-28T13:22:24.708Z</time></trkpt><trkpt lat="45.8575578" lon="10.8712122"><ele>67.0</ele><time>2026-03-28T13:22:25.708Z</time></trkpt><trkpt lat="45.8574492" lon="10.871152"><ele>67.0</ele><time>2026-03-28T13:22:26.707Z</time></trkpt><trkpt lat="45.8566898" lon="10.8705167"><ele>66.33333333333333</ele><time>2026-03-28T13:22:33.708Z</time></trkpt><trkpt lat="45.8565427" lon="10.8703404"><ele>65.66666666666667</ele><time>2026-03-28T13:22:34.707Z</time></trkpt><trkpt lat="45.856436" lon="10.8702142"><ele>65.0</ele><time>2026-03-28T13:22:35.708Z</time></trkpt><trkpt lat="45.8563153" lon="10.8700784"><ele>65.0</ele><time>2026-03-28T13:22:36.707Z</time></trkpt><trkpt lat="45.8562004" lon="10.8699466"><ele>65.0</ele><time>2026-03-28T13:22:37.708Z</time></trkpt><trkpt lat="45.8560975" lon="10.8698246"><ele>65.0</ele><time>2026-03-28T13:22:38.707Z</time></trkpt><trkpt lat="45.8559942" lon="10.8697085"><ele>65.0</ele><time>2026-03-28T13:22:39.708Z</time></trkpt><trkpt lat="45.8558834" lon="10.8695927"><ele>66.5</ele><time>2026-03-28T13:22:40.707Z</time></trkpt><trkpt lat="45.8557722" lon="10.8694776"><ele>68.0</ele><time>2026-03-28T13:22:41.707Z</time></trkpt><trkpt lat="45.8556608" lon="10.8693609"><ele>69.5</ele><time>2026-03-28T13:22:42.708Z</time></trkpt><trkpt lat="45.855544" lon="10.869246"><ele>71.0</ele><time>2026-03-28T13:22:43.707Z</time></trkpt><trkpt lat="45.8554271" lon="10.8691266"><ele>71.0</ele><time>2026-03-28T13:22:44.707Z</time></trkpt><trkpt lat="45.8553089" lon="10.8690073"><ele>71.0</ele><time>2026-03-28T13:22:45.708Z</time></trkpt><trkpt lat="45.8551895" lon="10.8688912"><ele>71.0</ele><time>2026-03-28T13:22:46.707Z</time></trkpt><trkpt lat="45.8550743" lon="10.8687833"><ele>71.0</ele><time>2026-03-28T13:22:47.707Z</time></trkpt><trkpt lat="45.854965" lon="10.8686786"><ele>70.75</ele><time>2026-03-28T13:22:48.707Z</time></trkpt><trkpt lat="45.854857" lon="10.8685751"><ele>70.5</ele><time>2026-03-28T13:22:49.707Z</time></trkpt><trkpt lat="45.8547525" lon="10.8684693"><ele>70.25</ele><time>2026-03-28T13:22:50.708Z</time></trkpt><trkpt lat="45.8546474" lon="10.8683672"><ele>70.0</ele><time>2026-03-28T13:22:51.708Z</time></trkpt><trkpt lat="45.8545417" lon="10.8682653"><ele>70.0</ele><time>2026-03-28T13:22:52.708Z</time></trkpt><trkpt lat="45.8544357" lon="10.868162"><ele>70.0</ele><time>2026-03-28T13:22:53.708Z</time></trkpt><trkpt lat="45.8543289" lon="10.868057"><ele>70.0</ele><time>2026-03-28T13:22:54.707Z</time></trkpt><trkpt lat="45.8542225" lon="10.8679506"><ele>70.0</ele><time>2026-03-28T13:22:55.708Z</time></trkpt><trkpt lat="45.8541152" lon="10.8678426"><ele>70.75</ele><time>2026-03-28T13:22:56.708Z</time></trkpt><trkpt lat="45.8540066" lon="10.8677322"><ele>71.5</ele><time>2026-03-28T13:22:57.708Z</time></trkpt><trkpt lat="45.8538941" lon="10.8676184"><ele>72.25</ele><time>2026-03-28T13:22:58.707Z</time></trkpt><trkpt lat="45.8537756" lon="10.8675017"><ele>73.0</ele><time>2026-03-28T13:22:59.707Z</time></trkpt><trkpt lat="45.8536511" lon="10.8673797"><ele>73.0</ele><time>2026-03-28T13:23:00.708Z</time></trkpt><trkpt lat="45.8535312" lon="10.8672588"><ele>73.0</ele><time>2026-03-28T13:23:01.708Z</time></trkpt><trkpt lat="45.85342" lon="10.867142"><ele>73.0</ele><time>2026-03-28T13:23:02.707Z</time></trkpt><trkpt lat="45.8533126" lon="10.8670132"><ele>73.0</ele><time>2026-03-28T13:23:03.708Z</time></trkpt><trkpt lat="45.8532079" lon="10.8668703"><ele>72.75</ele><time>2026-03-28T13:23:04.707Z</time></trkpt><trkpt lat="45.8531059" lon="10.8667162"><ele>72.5</ele><time>2026-03-28T13:23:05.708Z</time></trkpt><trkpt lat="45.8530121" lon="10.8665517"><ele>72.25</ele><time>2026-03-28T13:23:06.708Z</time></trkpt><trkpt lat="45.8529235" lon="10.8663891"><ele>72.0</ele><time>2026-03-28T13:23:07.707Z</time></trkpt><trkpt lat="45.8528424" lon="10.8662363"><ele>72.0</ele><time>2026-03-28T13:23:08.708Z</time></trkpt><trkpt lat="45.8527675" lon="10.8660916"><ele>72.0</ele><time>2026-03-28T13:23:09.707Z</time></trkpt><trkpt lat="45.8526938" lon="10.8659467"><ele>72.0</ele><time>2026-03-28T13:23:10.707Z</time></trkpt><trkpt lat="45.8526213" lon="10.865803"><ele>72.0</ele><time>2026-03-28T13:23:11.707Z</time></trkpt><trkpt lat="45.8525402" lon="10.8656537"><ele>71.25</ele><time>2026-03-28T13:23:12.708Z</time></trkpt><trkpt lat="45.8524497" lon="10.8654949"><ele>70.5</ele><time>2026-03-28T13:23:13.707Z</time></trkpt><trkpt lat="45.8523506" lon="10.8653336"><ele>69.75</ele><time>2026-03-28T13:23:14.707Z</time></trkpt><trkpt lat="45.8522457" lon="10.8651755"><ele>69.0</ele><time>2026-03-28T13:23:15.706Z</time></trkpt><trkpt lat="45.8521387" lon="10.8650214"><ele>69.0</ele><time>2026-03-28T13:23:16.707Z</time></trkpt><trkpt lat="45.852025" lon="10.8648779"><ele>69.0</ele><time>2026-03-28T13:23:17.706Z</time></trkpt><trkpt lat="45.8518991" lon="10.8647343"><ele>69.0</ele><time>2026-03-28T13:23:18.708Z</time></trkpt><trkpt lat="45.8517599" lon="10.8645895"><ele>71.33333333333333</ele><time>2026-03-28T13:23:19.707Z</time></trkpt><trkpt lat="45.8516084" lon="10.8644362"><ele>73.66666666666666</ele><time>2026-03-28T13:23:20.707Z</time></trkpt><trkpt lat="45.8514407" lon="10.8642682"><ele>76.0</ele><time>2026-03-28T13:23:21.707Z</time></trkpt><trkpt lat="45.8512548" lon="10.8640914"><ele>76.0</ele><time>2026-03-28T13:23:22.707Z</time></trkpt><trkpt lat="45.8510737" lon="10.8639114"><ele>76.0</ele><time>2026-03-28T13:23:23.707Z</time></trkpt><trkpt lat="45.8509158" lon="10.863741"><ele>76.0</ele><time>2026-03-28T13:23:24.707Z</time></trkpt><trkpt lat="45.8507636" lon="10.8635831"><ele>73.0</ele><time>2026-03-28T13:23:25.708Z</time></trkpt><trkpt lat="45.8506141" lon="10.8634425"><ele>70.0</ele><time>2026-03-28T13:23:26.707Z</time></trkpt><trkpt lat="45.8504612" lon="10.8633234"><ele>67.0</ele><time>2026-03-28T13:23:27.707Z</time></trkpt><trkpt lat="45.8503132" lon="10.8632215"><ele>67.0</ele><time>2026-03-28T13:23:28.707Z</time></trkpt><trkpt lat="45.8501723" lon="10.8631423"><ele>67.0</ele><time>2026-03-28T13:23:29.708Z</time></trkpt><trkpt lat="45.8500368" lon="10.8630915"><ele>67.0</ele><time>2026-03-28T13:23:30.707Z</time></trkpt><trkpt lat="45.8499049" lon="10.863064"><ele>67.0</ele><time>2026-03-28T13:23:31.708Z</time></trkpt><trkpt lat="45.8497755" lon="10.8630635"><ele>73.0</ele><time>2026-03-28T13:23:32.707Z</time></trkpt><trkpt lat="45.8496438" lon="10.8630938"><ele>79.0</ele><time>2026-03-28T13:23:33.707Z</time></trkpt><trkpt lat="45.849515" lon="10.8631512"><ele>85.0</ele><time>2026-03-28T13:23:34.707Z</time></trkpt><trkpt lat="45.8493878" lon="10.8632158"><ele>91.0</ele><time>2026-03-28T13:23:35.707Z</time></trkpt><trkpt lat="45.8492644" lon="10.8632881"><ele>139.0</ele><time>2026-03-28T13:23:36.708Z</time></trkpt><trkpt lat="45.8483165" lon="10.8637305"><ele>139.0</ele><time>2026-03-28T13:23:42.707Z</time></trkpt><trkpt lat="45.8481523" lon="10.863754"><ele>139.0</ele><time>2026-03-28T13:23:43.708Z</time></trkpt><trkpt lat="45.8480016" lon="10.8637672"><ele>139.0</ele><time>2026-03-28T13:23:44.708Z</time></trkpt><trkpt lat="45.847844" lon="10.8637442"><ele>139.0</ele><time>2026-03-28T13:23:45.707Z</time></trkpt><trkpt lat="45.8476814" lon="10.8636946"><ele>139.0</ele><time>2026-03-28T13:23:46.708Z</time></trkpt><trkpt lat="45.8475118" lon="10.8636261"><ele>139.0</ele><time>2026-03-28T13:23:47.707Z</time></trkpt><trkpt lat="45.8473321" lon="10.8635549"><ele>129.33333333333334</ele><time>2026-03-28T13:23:48.707Z</time></trkpt><trkpt lat="45.8471495" lon="10.8634927"><ele>119.66666666666666</ele><time>2026-03-28T13:23:49.707Z</time></trkpt><trkpt lat="45.8469619" lon="10.8634168"><ele>110.0</ele><time>2026-03-28T13:23:50.708Z</time></trkpt><trkpt lat="45.8467815" lon="10.8633313"><ele>103.66666666666666</ele><time>2026-03-28T13:23:51.708Z</time></trkpt><trkpt lat="45.8466143" lon="10.8632623"><ele>97.33333333333333</ele><time>2026-03-28T13:23:52.707Z</time></trkpt><trkpt lat="45.8464633" lon="10.8632047"><ele>91.0</ele><time>2026-03-28T13:23:53.708Z</time></trkpt><trkpt lat="45.8463176" lon="10.8631731"><ele>91.0</ele><time>2026-03-28T13:23:54.708Z</time></trkpt><trkpt lat="45.846173" lon="10.8631764"><ele>91.0</ele><time>2026-03-28T13:23:55.708Z</time></trkpt><trkpt lat="45.8460271" lon="10.8631989"><ele>91.0</ele><time>2026-03-28T13:23:56.706Z</time></trkpt><trkpt lat="45.8458834" lon="10.8632368"><ele>91.0</ele><time>2026-03-28T13:23:57.707Z</time></trkpt><trkpt lat="45.84574" lon="10.8632694"><ele>118.0</ele><time>2026-03-28T13:23:58.708Z</time></trkpt><trkpt lat="45.8449038" lon="10.8635404"><ele>118.0</ele><time>2026-03-28T13:24:03.708Z</time></trkpt><trkpt lat="45.8447661" lon="10.8635831"><ele>118.0</ele><time>2026-03-28T13:24:04.708Z</time></trkpt><trkpt lat="45.8446185" lon="10.863608"><ele>118.0</ele><time>2026-03-28T13:24:05.707Z</time></trkpt><trkpt lat="45.8444747" lon="10.8636014"><ele>118.0</ele><time>2026-03-28T13:24:06.708Z</time></trkpt><trkpt lat="45.8443246" lon="10.8635571"><ele>115.0</ele><time>2026-03-28T13:24:07.707Z</time></trkpt><trkpt lat="45.8441723" lon="10.8634787"><ele>112.0</ele><time>2026-03-28T13:24:08.707Z</time></trkpt><trkpt lat="45.8440158" lon="10.8633729"><ele>109.0</ele><time>2026-03-28T13:24:09.708Z</time></trkpt><trkpt lat="45.8438509" lon="10.8632618"><ele>104.66666666666667</ele><time>2026-03-28T13:24:10.707Z</time></trkpt><trkpt lat="45.843687" lon="10.863151"><ele>100.33333333333334</ele><time>2026-03-28T13:24:11.707Z</time></trkpt><trkpt lat="45.8435329" lon="10.8630487"><ele>96.0</ele><time>2026-03-28T13:24:12.708Z</time></trkpt><trkpt lat="45.8433838" lon="10.8629582"><ele>96.0</ele><time>2026-03-28T13:24:13.708Z</time></trkpt><trkpt lat="45.8432315" lon="10.8628771"><ele>96.0</ele><time>2026-03-28T13:24:14.708Z</time></trkpt><trkpt lat="45.8430767" lon="10.8628026"><ele>96.0</ele><time>2026-03-28T13:24:15.708Z</time></trkpt><trkpt lat="45.8429174" lon="10.8627276"><ele>96.0</ele><time>2026-03-28T13:24:16.708Z</time></trkpt><trkpt lat="45.8427563" lon="10.8626477"><ele>96.0</ele><time>2026-03-28T13:24:17.708Z</time></trkpt><trkpt lat="45.8425949" lon="10.8625574"><ele>96.0</ele><time>2026-03-28T13:24:18.708Z</time></trkpt><trkpt lat="45.842436" lon="10.8624539"><ele>90.66666666666667</ele><time>2026-03-28T13:24:19.708Z</time></trkpt><trkpt lat="45.8422749" lon="10.8623361"><ele>85.33333333333334</ele><time>2026-03-28T13:24:20.708Z</time></trkpt><trkpt lat="45.8421121" lon="10.8622168"><ele>80.0</ele><time>2026-03-28T13:24:21.707Z</time></trkpt><trkpt lat="45.8419495" lon="10.862094"><ele>80.33333333333334</ele><time>2026-03-28T13:24:22.707Z</time></trkpt><trkpt lat="45.8417879" lon="10.8619696"><ele>80.66666666666667</ele><time>2026-03-28T13:24:23.707Z</time></trkpt><trkpt lat="45.8416262" lon="10.8618448"><ele>81.0</ele><time>2026-03-28T13:24:24.708Z</time></trkpt><trkpt lat="45.8414645" lon="10.8617208"><ele>81.0</ele><time>2026-03-28T13:24:25.708Z</time></trkpt><trkpt lat="45.8412994" lon="10.8616"><ele>81.0</ele><time>2026-03-28T13:24:26.707Z</time></trkpt><trkpt lat="45.8411339" lon="10.8614781"><ele>81.0</ele><time>2026-03-28T13:24:27.707Z</time></trkpt><trkpt lat="45.8409714" lon="10.8613564"><ele>86.33333333333334</ele><time>2026-03-28T13:24:28.708Z</time></trkpt><trkpt lat="45.8408137" lon="10.8612344"><ele>91.66666666666667</ele><time>2026-03-28T13:24:29.708Z</time></trkpt><trkpt lat="45.8406674" lon="10.8611222"><ele>97.0</ele><time>2026-03-28T13:24:30.707Z</time></trkpt><trkpt lat="45.840528" lon="10.8610241"><ele>97.0</ele><time>2026-03-28T13:24:31.708Z</time></trkpt><trkpt lat="45.8403874" lon="10.8609521"><ele>97.0</ele><time>2026-03-28T13:24:32.708Z</time></trkpt><trkpt lat="45.8402377" lon="10.8609052"><ele>97.0</ele><time>2026-03-28T13:24:33.707Z</time></trkpt><trkpt lat="45.8400812" lon="10.8608722"><ele>91.33333333333334</ele><time>2026-03-28T13:24:34.708Z</time></trkpt><trkpt lat="45.8399161" lon="10.8608469"><ele>85.66666666666667</ele><time>2026-03-28T13:24:35.707Z</time></trkpt><trkpt lat="45.8397447" lon="10.8608254"><ele>80.0</ele><time>2026-03-28T13:24:36.707Z</time></trkpt><trkpt lat="45.8395677" lon="10.8608031"><ele>80.0</ele><time>2026-03-28T13:24:37.708Z</time></trkpt><trkpt lat="45.839389" lon="10.8607795"><ele>80.0</ele><time>2026-03-28T13:24:38.707Z</time></trkpt><trkpt lat="45.8392222" lon="10.86076"><ele>80.0</ele><time>2026-03-28T13:24:39.707Z</time></trkpt><trkpt lat="45.8390622" lon="10.8607391"><ele>83.66666666666667</ele><time>2026-03-28T13:24:40.708Z</time></trkpt><trkpt lat="45.8389044" lon="10.8607165"><ele>87.33333333333333</ele><time>2026-03-28T13:24:41.708Z</time></trkpt><trkpt lat="45.8387473" lon="10.8606874"><ele>91.0</ele><time>2026-03-28T13:24:42.708Z</time></trkpt><trkpt lat="45.8385922" lon="10.8606488"><ele>93.0</ele><time>2026-03-28T13:24:43.708Z</time></trkpt><trkpt lat="45.8384387" lon="10.8605946"><ele>95.0</ele><time>2026-03-28T13:24:44.708Z</time></trkpt><trkpt lat="45.8382848" lon="10.8605268"><ele>97.0</ele><time>2026-03-28T13:24:45.708Z</time></trkpt><trkpt lat="45.8381322" lon="10.8604454"><ele>97.0</ele><time>2026-03-28T13:24:46.708Z</time></trkpt><trkpt lat="45.8379757" lon="10.8603551"><ele>97.0</ele><time>2026-03-28T13:24:47.708Z</time></trkpt><trkpt lat="45.8378164" lon="10.8602619"><ele>97.0</ele><time>2026-03-28T13:24:48.708Z</time></trkpt><trkpt lat="45.8376546" lon="10.8601642"><ele>90.33333333333334</ele><time>2026-03-28T13:24:49.707Z</time></trkpt><trkpt lat="45.8374915" lon="10.8600635"><ele>83.66666666666667</ele><time>2026-03-28T13:24:50.708Z</time></trkpt><trkpt lat="45.8373276" lon="10.8599638"><ele>77.0</ele><time>2026-03-28T13:24:51.707Z</time></trkpt><trkpt lat="45.8371629" lon="10.8598657"><ele>77.0</ele><time>2026-03-28T13:24:52.708Z</time></trkpt><trkpt lat="45.8370043" lon="10.8597658"><ele>77.0</ele><time>2026-03-28T13:24:53.707Z</time></trkpt><trkpt lat="45.8368512" lon="10.8596669"><ele>77.0</ele><time>2026-03-28T13:24:54.708Z</time></trkpt><trkpt lat="45.836702" lon="10.8595762"><ele>81.33333333333334</ele><time>2026-03-28T13:24:55.707Z</time></trkpt><trkpt lat="45.8365629" lon="10.8594901"><ele>85.66666666666667</ele><time>2026-03-28T13:24:56.707Z</time></trkpt><trkpt lat="45.8364208" lon="10.859416"><ele>90.0</ele><time>2026-03-28T13:24:57.708Z</time></trkpt><trkpt lat="45.8362764" lon="10.8593614"><ele>90.0</ele><time>2026-03-28T13:24:58.707Z</time></trkpt><trkpt lat="45.8361239" lon="10.8593399"><ele>90.0</ele><time>2026-03-28T13:24:59.707Z</time></trkpt><trkpt lat="45.8359697" lon="10.8593418"><ele>90.0</ele><time>2026-03-28T13:25:00.708Z</time></trkpt><trkpt lat="45.8358163" lon="10.859373"><ele>90.66666666666667</ele><time>2026-03-28T13:25:01.708Z</time></trkpt><trkpt lat="45.8356628" lon="10.8594336"><ele>91.33333333333334</ele><time>2026-03-28T13:25:02.707Z</time></trkpt><trkpt lat="45.8355077" lon="10.8595128"><ele>92.0</ele><time>2026-03-28T13:25:03.707Z</time></trkpt><trkpt lat="45.8353503" lon="10.8596022"><ele>92.0</ele><time>2026-03-28T13:25:04.707Z</time></trkpt><trkpt lat="45.8351904" lon="10.8596991"><ele>92.0</ele><time>2026-03-28T13:25:05.708Z</time></trkpt><trkpt lat="45.8350312" lon="10.859797"><ele>92.0</ele><time>2026-03-28T13:25:06.708Z</time></trkpt><trkpt lat="45.8348726" lon="10.8598953"><ele>90.33333333333334</ele><time>2026-03-28T13:25:07.707Z</time></trkpt><trkpt lat="45.8347158" lon="10.8599931"><ele>88.66666666666667</ele><time>2026-03-28T13:25:08.708Z</time></trkpt><trkpt lat="45.8345609" lon="10.86009"><ele>87.0</ele><time>2026-03-28T13:25:09.707Z</time></trkpt><trkpt lat="45.8344082" lon="10.8601765"><ele>94.25</ele><time>2026-03-28T13:25:10.708Z</time></trkpt><trkpt lat="45.834264" lon="10.8602385"><ele>101.5</ele><time>2026-03-28T13:25:11.707Z</time></trkpt><trkpt lat="45.8341192" lon="10.8602788"><ele>108.75</ele><time>2026-03-28T13:25:12.707Z</time></trkpt><trkpt lat="45.8339715" lon="10.8602913"><ele>116.0</ele><time>2026-03-28T13:25:13.707Z</time></trkpt><trkpt lat="45.8338238" lon="10.8602762"><ele>116.0</ele><time>2026-03-28T13:25:14.707Z</time></trkpt><trkpt lat="45.8336761" lon="10.8602336"><ele>116.0</ele><time>2026-03-28T13:25:15.708Z</time></trkpt><trkpt lat="45.8335248" lon="10.8601694"><ele>116.0</ele><time>2026-03-28T13:25:16.707Z</time></trkpt><trkpt lat="45.8333693" lon="10.8600879"><ele>105.66666666666666</ele><time>2026-03-28T13:25:17.707Z</time></trkpt><trkpt lat="45.8332175" lon="10.8599998"><ele>95.33333333333333</ele><time>2026-03-28T13:25:18.707Z</time></trkpt><trkpt lat="45.8330643" lon="10.8599238"><ele>85.0</ele><time>2026-03-28T13:25:19.707Z</time></trkpt><trkpt lat="45.8329081" lon="10.8598583"><ele>85.0</ele><time>2026-03-28T13:25:20.707Z</time></trkpt><trkpt lat="45.8327473" lon="10.859809"><ele>85.0</ele><time>2026-03-28T13:25:21.707Z</time></trkpt><trkpt lat="45.8325818" lon="10.8597668"><ele>85.0</ele><time>2026-03-28T13:25:22.708Z</time></trkpt><trkpt lat="45.8324132" lon="10.8597296"><ele>90.66666666666666</ele><time>2026-03-28T13:25:23.708Z</time></trkpt><trkpt lat="45.8322416" lon="10.8596861"><ele>96.33333333333333</ele><time>2026-03-28T13:25:24.707Z</time></trkpt><trkpt lat="45.832073" lon="10.8596314"><ele>102.0</ele><time>2026-03-28T13:25:25.707Z</time></trkpt><trkpt lat="45.8319081" lon="10.8595578"><ele>108.0</ele><time>2026-03-28T13:25:26.707Z</time></trkpt><trkpt lat="45.8317524" lon="10.8594732"><ele>114.0</ele><time>2026-03-28T13:25:27.707Z</time></trkpt><trkpt lat="45.8316095" lon="10.8593734"><ele>120.0</ele><time>2026-03-28T13:25:28.708Z</time></trkpt><trkpt lat="45.8314759" lon="10.8592537"><ele>105.33333333333333</ele><time>2026-03-28T13:25:29.707Z</time></trkpt><trkpt lat="45.8313518" lon="10.8591234"><ele>90.66666666666666</ele><time>2026-03-28T13:25:30.707Z</time></trkpt><trkpt lat="45.8312345" lon="10.8589893"><ele>76.0</ele><time>2026-03-28T13:25:31.707Z</time></trkpt><trkpt lat="45.8311027" lon="10.8588755"><ele>86.0</ele><time>2026-03-28T13:25:32.707Z</time></trkpt><trkpt lat="45.8309592" lon="10.8587696"><ele>96.0</ele><time>2026-03-28T13:25:33.708Z</time></trkpt><trkpt lat="45.8308087" lon="10.8586692"><ele>106.0</ele><time>2026-03-28T13:25:34.707Z</time></trkpt><trkpt lat="45.8306526" lon="10.8585701"><ele>106.0</ele><time>2026-03-28T13:25:35.707Z</time></trkpt><trkpt lat="45.8304921" lon="10.8584709"><ele>106.0</ele><time>2026-03-28T13:25:36.707Z</time></trkpt><trkpt lat="45.8303296" lon="10.8583712"><ele>106.0</ele><time>2026-03-28T13:25:37.708Z</time></trkpt><trkpt lat="45.8301619" lon="10.8582721"><ele>102.66666666666667</ele><time>2026-03-28T13:25:38.708Z</time></trkpt><trkpt lat="45.8299919" lon="10.8581717"><ele>99.33333333333334</ele><time>2026-03-28T13:25:39.708Z</time></trkpt><trkpt lat="45.8298226" lon="10.8580764"><ele>96.0</ele><time>2026-03-28T13:25:40.707Z</time></trkpt><trkpt lat="45.829656" lon="10.8579844"><ele>96.0</ele><time>2026-03-28T13:25:41.708Z</time></trkpt><trkpt lat="45.8294908" lon="10.8578921"><ele>96.0</ele><time>2026-03-28T13:25:42.707Z</time></trkpt><trkpt lat="45.8293282" lon="10.8577987"><ele>96.0</ele><time>2026-03-28T13:25:43.708Z</time></trkpt><trkpt lat="45.8291639" lon="10.8577033"><ele>89.33333333333333</ele><time>2026-03-28T13:25:44.708Z</time></trkpt><trkpt lat="45.8289984" lon="10.8576114"><ele>82.66666666666666</ele><time>2026-03-28T13:25:45.708Z</time></trkpt><trkpt lat="45.8288345" lon="10.8575197"><ele>76.0</ele><time>2026-03-28T13:25:46.707Z</time></trkpt><trkpt lat="45.8286762" lon="10.8574302"><ele>76.0</ele><time>2026-03-28T13:25:47.708Z</time></trkpt><trkpt lat="45.8285262" lon="10.8573512"><ele>76.0</ele><time>2026-03-28T13:25:48.708Z</time></trkpt><trkpt lat="45.8283831" lon="10.8572854"><ele>76.0</ele><time>2026-03-28T13:25:49.707Z</time></trkpt><trkpt lat="45.8282362" lon="10.857238"><ele>81.25</ele><time>2026-03-28T13:25:50.708Z</time></trkpt><trkpt lat="45.8280876" lon="10.8572176"><ele>86.5</ele><time>2026-03-28T13:25:51.708Z</time></trkpt><trkpt lat="45.8279399" lon="10.8572172"><ele>91.75</ele><time>2026-03-28T13:25:52.708Z</time></trkpt><trkpt lat="45.8277976" lon="10.857238"><ele>97.0</ele><time>2026-03-28T13:25:53.708Z</time></trkpt><trkpt lat="45.8276508" lon="10.8572683"><ele>95.0</ele><time>2026-03-28T13:25:54.707Z</time></trkpt><trkpt lat="45.8275041" lon="10.857298"><ele>93.0</ele><time>2026-03-28T13:25:55.708Z</time></trkpt><trkpt lat="45.827357" lon="10.8573292"><ele>91.0</ele><time>2026-03-28T13:25:56.707Z</time></trkpt><trkpt lat="45.8263912" lon="10.857532"><ele>91.0</ele><time>2026-03-28T13:26:02.708Z</time></trkpt><trkpt lat="45.8262243" lon="10.8575151"><ele>91.0</ele><time>2026-03-28T13:26:03.708Z</time></trkpt><trkpt lat="45.8260886" lon="10.8576797"><ele>91.0</ele><time>2026-03-28T13:26:04.707Z</time></trkpt><trkpt lat="45.82592" lon="10.857707"><ele>103.5</ele><time>2026-03-28T13:26:05.708Z</time></trkpt><trkpt lat="45.8257528" lon="10.8577314"><ele>116.0</ele><time>2026-03-28T13:26:06.707Z</time></trkpt><trkpt lat="45.8250422" lon="10.8577939"><ele>116.0</ele><time>2026-03-28T13:26:10.707Z</time></trkpt><trkpt lat="45.8248858" lon="10.8577682"><ele>116.0</ele><time>2026-03-28T13:26:11.707Z</time></trkpt><trkpt lat="45.8247448" lon="10.8577605"><ele>116.0</ele><time>2026-03-28T13:26:12.708Z</time></trkpt><trkpt lat="45.8245991" lon="10.8577616"><ele>116.0</ele><time>2026-03-28T13:26:13.708Z</time></trkpt><trkpt lat="45.8244545" lon="10.857759"><ele>116.66666666666666</ele><time>2026-03-28T13:26:14.708Z</time></trkpt><trkpt lat="45.8243027" lon="10.8577502"><ele>117.33333333333334</ele><time>2026-03-28T13:26:15.707Z</time></trkpt><trkpt lat="45.8241042" lon="10.8576991"><ele>118.0</ele><time>2026-03-28T13:26:16.707Z</time></trkpt><trkpt lat="45.8239295" lon="10.8576743"><ele>118.0</ele><time>2026-03-28T13:26:17.707Z</time></trkpt><trkpt lat="45.8237658" lon="10.8576852"><ele>118.0</ele><time>2026-03-28T13:26:18.707Z</time></trkpt><trkpt lat="45.8235948" lon="10.8576698"><ele>118.0</ele><time>2026-03-28T13:26:19.708Z</time></trkpt><trkpt lat="45.8233896" lon="10.857638"><ele>107.66666666666667</ele><time>2026-03-28T13:26:20.707Z</time></trkpt><trkpt lat="45.8231748" lon="10.8575893"><ele>97.33333333333334</ele><time>2026-03-28T13:26:21.708Z</time></trkpt><trkpt lat="45.8229593" lon="10.8574738"><ele>87.0</ele><time>2026-03-28T13:26:22.708Z</time></trkpt><trkpt lat="45.822771" lon="10.8573319"><ele>92.33333333333334</ele><time>2026-03-28T13:26:23.708Z</time></trkpt><trkpt lat="45.8225782" lon="10.8571999"><ele>97.66666666666667</ele><time>2026-03-28T13:26:24.708Z</time></trkpt><trkpt lat="45.8223676" lon="10.8570531"><ele>103.0</ele><time>2026-03-28T13:26:25.707Z</time></trkpt><trkpt lat="45.8221517" lon="10.8569744"><ele>103.0</ele><time>2026-03-28T13:26:26.708Z</time></trkpt><trkpt lat="45.8219458" lon="10.856921"><ele>103.0</ele><time>2026-03-28T13:26:27.707Z</time></trkpt><trkpt lat="45.8217459" lon="10.8568937"><ele>103.0</ele><time>2026-03-28T13:26:28.708Z</time></trkpt><trkpt lat="45.8215546" lon="10.8567929"><ele>94.33333333333334</ele><time>2026-03-28T13:26:29.708Z</time></trkpt><trkpt lat="45.8213546" lon="10.8567386"><ele>85.66666666666667</ele><time>2026-03-28T13:26:30.707Z</time></trkpt><trkpt lat="45.8211709" lon="10.8565931"><ele>77.0</ele><time>2026-03-28T13:26:31.708Z</time></trkpt><trkpt lat="45.8209851" lon="10.8565242"><ele>81.33333333333334</ele><time>2026-03-28T13:26:32.707Z</time></trkpt><trkpt lat="45.8208161" lon="10.8564635"><ele>85.66666666666667</ele><time>2026-03-28T13:26:33.707Z</time></trkpt><trkpt lat="45.8206138" lon="10.8564359"><ele>90.0</ele><time>2026-03-28T13:26:34.708Z</time></trkpt><trkpt lat="45.820432" lon="10.856373"><ele>90.0</ele><time>2026-03-28T13:26:35.707Z</time></trkpt><trkpt lat="45.820248" lon="10.8562596"><ele>90.0</ele><time>2026-03-28T13:26:36.708Z</time></trkpt><trkpt lat="45.820061" lon="10.8561741"><ele>90.0</ele><time>2026-03-28T13:26:37.707Z</time></trkpt><trkpt lat="45.8198645" lon="10.8561535"><ele>86.33333333333333</ele><time>2026-03-28T13:26:38.707Z</time></trkpt><trkpt lat="45.8196823" lon="10.8560143"><ele>82.66666666666666</ele><time>2026-03-28T13:26:39.708Z</time></trkpt><trkpt lat="45.8194869" lon="10.8559466"><ele>79.0</ele><time>2026-03-28T13:26:40.707Z</time></trkpt><trkpt lat="45.8192936" lon="10.8558862"><ele>79.0</ele><time>2026-03-28T13:26:41.707Z</time></trkpt><trkpt lat="45.8191061" lon="10.8558063"><ele>79.0</ele><time>2026-03-28T13:26:42.708Z</time></trkpt><trkpt lat="45.8189242" lon="10.8557205"><ele>79.0</ele><time>2026-03-28T13:26:43.707Z</time></trkpt><trkpt lat="45.81872" lon="10.8556527"><ele>79.0</ele><time>2026-03-28T13:26:44.707Z</time></trkpt><trkpt lat="45.818537" lon="10.8555134"><ele>79.0</ele><time>2026-03-28T13:26:45.708Z</time></trkpt><trkpt lat="45.8183397" lon="10.8554404"><ele>79.0</ele><time>2026-03-28T13:26:46.707Z</time></trkpt><trkpt lat="45.8181447" lon="10.8553736"><ele>77.33333333333333</ele><time>2026-03-28T13:26:47.707Z</time></trkpt><trkpt lat="45.8179466" lon="10.8552962"><ele>75.66666666666667</ele><time>2026-03-28T13:26:48.707Z</time></trkpt><trkpt lat="45.8177523" lon="10.8552469"><ele>74.0</ele><time>2026-03-28T13:26:49.707Z</time></trkpt><trkpt lat="45.8175833" lon="10.8550791"><ele>74.0</ele><time>2026-03-28T13:26:50.707Z</time></trkpt><trkpt lat="45.8173963" lon="10.8550367"><ele>74.0</ele><time>2026-03-28T13:26:51.707Z</time></trkpt><trkpt lat="45.8172173" lon="10.8550204"><ele>74.0</ele><time>2026-03-28T13:26:52.707Z</time></trkpt><trkpt lat="45.817048" lon="10.8549777"><ele>74.0</ele><time>2026-03-28T13:26:53.707Z</time></trkpt><trkpt lat="45.8168946" lon="10.8549314"><ele>74.0</ele><time>2026-03-28T13:26:54.707Z</time></trkpt><trkpt lat="45.8167362" lon="10.8548541"><ele>74.0</ele><time>2026-03-28T13:26:55.708Z</time></trkpt><trkpt lat="45.8166172" lon="10.854581"><ele>81.66666666666667</ele><time>2026-03-28T13:26:56.707Z</time></trkpt><trkpt lat="45.8164453" lon="10.8545806"><ele>89.33333333333334</ele><time>2026-03-28T13:26:57.707Z</time></trkpt><trkpt lat="45.8162829" lon="10.8544844"><ele>97.0</ele><time>2026-03-28T13:26:58.707Z</time></trkpt><trkpt lat="45.8161303" lon="10.8543566"><ele>90.33333333333334</ele><time>2026-03-28T13:26:59.708Z</time></trkpt><trkpt lat="45.8159572" lon="10.8542454"><ele>83.66666666666667</ele><time>2026-03-28T13:27:00.707Z</time></trkpt><trkpt lat="45.8157912" lon="10.8541272"><ele>77.0</ele><time>2026-03-28T13:27:01.708Z</time></trkpt><trkpt lat="45.8156239" lon="10.8539901"><ele>77.0</ele><time>2026-03-28T13:27:02.707Z</time></trkpt><trkpt lat="45.8154538" lon="10.8538701"><ele>77.0</ele><time>2026-03-28T13:27:03.707Z</time></trkpt><trkpt lat="45.8152827" lon="10.853752"><ele>77.0</ele><time>2026-03-28T13:27:04.708Z</time></trkpt><trkpt lat="45.8151027" lon="10.8536954"><ele>74.33333333333334</ele><time>2026-03-28T13:27:05.707Z</time></trkpt><trkpt lat="45.8149288" lon="10.8536117"><ele>71.66666666666667</ele><time>2026-03-28T13:27:06.708Z</time></trkpt><trkpt lat="45.8147541" lon="10.8535297"><ele>69.0</ele><time>2026-03-28T13:27:07.707Z</time></trkpt><trkpt lat="45.8145782" lon="10.8534333"><ele>69.0</ele><time>2026-03-28T13:27:08.708Z</time></trkpt><trkpt lat="45.8143994" lon="10.8533607"><ele>69.0</ele><time>2026-03-28T13:27:09.707Z</time></trkpt><trkpt lat="45.8142246" lon="10.85329"><ele>69.0</ele><time>2026-03-28T13:27:10.707Z</time></trkpt><trkpt lat="45.8140469" lon="10.8532064"><ele>144.0</ele><time>2026-03-28T13:27:11.708Z</time></trkpt><trkpt lat="45.8120159" lon="10.8526485"><ele>123.0</ele><time>2026-03-28T13:27:22.708Z</time></trkpt><trkpt lat="45.8118333" lon="10.8525721"><ele>102.0</ele><time>2026-03-28T13:27:23.707Z</time></trkpt><trkpt lat="45.8116757" lon="10.8525221"><ele>81.0</ele><time>2026-03-28T13:27:24.707Z</time></trkpt><trkpt lat="45.8115112" lon="10.8524637"><ele>77.66666666666667</ele><time>2026-03-28T13:27:25.708Z</time></trkpt><trkpt lat="45.8113487" lon="10.8524156"><ele>74.33333333333334</ele><time>2026-03-28T13:27:26.708Z</time></trkpt><trkpt lat="45.8111867" lon="10.8523579"><ele>71.0</ele><time>2026-03-28T13:27:27.707Z</time></trkpt><trkpt lat="45.8110223" lon="10.852301"><ele>76.0</ele><time>2026-03-28T13:27:28.708Z</time></trkpt><trkpt lat="45.8108569" lon="10.8522431"><ele>81.0</ele><time>2026-03-28T13:27:29.708Z</time></trkpt><trkpt lat="45.810693" lon="10.8521838"><ele>86.0</ele><time>2026-03-28T13:27:30.707Z</time></trkpt><trkpt lat="45.8105367" lon="10.8521221"><ele>86.0</ele><time>2026-03-28T13:27:31.707Z</time></trkpt><trkpt lat="45.8103791" lon="10.852063"><ele>86.0</ele><time>2026-03-28T13:27:32.707Z</time></trkpt><trkpt lat="45.8102257" lon="10.8519906"><ele>86.0</ele><time>2026-03-28T13:27:33.707Z</time></trkpt><trkpt lat="45.8100775" lon="10.8519021"><ele>82.66666666666667</ele><time>2026-03-28T13:27:34.707Z</time></trkpt><trkpt lat="45.8099384" lon="10.8517944"><ele>79.33333333333333</ele><time>2026-03-28T13:27:35.707Z</time></trkpt><trkpt lat="45.8098065" lon="10.8516707"><ele>76.0</ele><time>2026-03-28T13:27:36.707Z</time></trkpt><trkpt lat="45.8096823" lon="10.8515326"><ele>76.0</ele><time>2026-03-28T13:27:37.707Z</time></trkpt><trkpt lat="45.8095643" lon="10.8513801"><ele>76.0</ele><time>2026-03-28T13:27:38.707Z</time></trkpt><trkpt lat="45.809455" lon="10.8512105"><ele>76.0</ele><time>2026-03-28T13:27:39.707Z</time></trkpt><trkpt lat="45.8093576" lon="10.8510215"><ele>77.33333333333333</ele><time>2026-03-28T13:27:40.708Z</time></trkpt><trkpt lat="45.809271" lon="10.8508205"><ele>78.66666666666667</ele><time>2026-03-28T13:27:41.707Z</time></trkpt><trkpt lat="45.8091899" lon="10.8506082"><ele>80.0</ele><time>2026-03-28T13:27:42.708Z</time></trkpt><trkpt lat="45.8091132" lon="10.8503841"><ele>80.0</ele><time>2026-03-28T13:27:43.708Z</time></trkpt><trkpt lat="45.8090373" lon="10.8501598"><ele>80.0</ele><time>2026-03-28T13:27:44.707Z</time></trkpt><trkpt lat="45.808959" lon="10.8499254"><ele>80.0</ele><time>2026-03-28T13:27:45.707Z</time></trkpt><trkpt lat="45.8088843" lon="10.8496913"><ele>78.66666666666667</ele><time>2026-03-28T13:27:46.707Z</time></trkpt><trkpt lat="45.8088127" lon="10.8494632"><ele>77.33333333333333</ele><time>2026-03-28T13:27:47.707Z</time></trkpt><trkpt lat="45.8087401" lon="10.8492477"><ele>76.0</ele><time>2026-03-28T13:27:48.707Z</time></trkpt><trkpt lat="45.8086635" lon="10.8490443"><ele>73.0</ele><time>2026-03-28T13:27:49.707Z</time></trkpt><trkpt lat="45.8085771" lon="10.8488521"><ele>70.0</ele><time>2026-03-28T13:27:50.708Z</time></trkpt><trkpt lat="45.8084793" lon="10.8486722"><ele>67.0</ele><time>2026-03-28T13:27:51.708Z</time></trkpt><trkpt lat="45.8083709" lon="10.8485141"><ele>70.0</ele><time>2026-03-28T13:27:52.707Z</time></trkpt><trkpt lat="45.8082528" lon="10.848374"><ele>73.0</ele><time>2026-03-28T13:27:53.708Z</time></trkpt><trkpt lat="45.8081225" lon="10.8482508"><ele>76.0</ele><time>2026-03-28T13:27:54.707Z</time></trkpt><trkpt lat="45.8079816" lon="10.8481318"><ele>76.0</ele><time>2026-03-28T13:27:55.707Z</time></trkpt><trkpt lat="45.8078339" lon="10.8480123"><ele>76.0</ele><time>2026-03-28T13:27:56.707Z</time></trkpt><trkpt lat="45.8076832" lon="10.8478917"><ele>76.0</ele><time>2026-03-28T13:27:57.707Z</time></trkpt><trkpt lat="45.8075355" lon="10.8477725"><ele>75.33333333333333</ele><time>2026-03-28T13:27:58.707Z</time></trkpt><trkpt lat="45.807389" lon="10.847654"><ele>74.66666666666667</ele><time>2026-03-28T13:27:59.707Z</time></trkpt><trkpt lat="45.807247" lon="10.847536"><ele>74.0</ele><time>2026-03-28T13:28:00.707Z</time></trkpt><trkpt lat="45.8071059" lon="10.8474225"><ele>74.0</ele><time>2026-03-28T13:28:01.707Z</time></trkpt><trkpt lat="45.8069623" lon="10.8473097"><ele>74.0</ele><time>2026-03-28T13:28:02.708Z</time></trkpt><trkpt lat="45.8068228" lon="10.8471976"><ele>74.0</ele><time>2026-03-28T13:28:03.707Z</time></trkpt><trkpt lat="45.8066853" lon="10.8470835"><ele>72.33333333333334</ele><time>2026-03-28T13:28:04.707Z</time></trkpt><trkpt lat="45.8065514" lon="10.8469744"><ele>70.66666666666667</ele><time>2026-03-28T13:28:05.708Z</time></trkpt><trkpt lat="45.8064177" lon="10.8468597"><ele>69.0</ele><time>2026-03-28T13:28:06.707Z</time></trkpt><trkpt lat="45.806283" lon="10.8467391"><ele>69.0</ele><time>2026-03-28T13:28:07.708Z</time></trkpt><trkpt lat="45.8061475" lon="10.8466093"><ele>69.0</ele><time>2026-03-28T13:28:08.708Z</time></trkpt><trkpt lat="45.8060168" lon="10.8464709"><ele>69.0</ele><time>2026-03-28T13:28:09.708Z</time></trkpt><trkpt lat="45.8058921" lon="10.8463294"><ele>68.66666666666667</ele><time>2026-03-28T13:28:10.707Z</time></trkpt><trkpt lat="45.8057702" lon="10.846183"><ele>68.33333333333334</ele><time>2026-03-28T13:28:11.707Z</time></trkpt><trkpt lat="45.8056534" lon="10.8460269"><ele>68.0</ele><time>2026-03-28T13:28:12.707Z</time></trkpt><trkpt lat="45.8055457" lon="10.8458596"><ele>68.0</ele><time>2026-03-28T13:28:13.708Z</time></trkpt><trkpt lat="45.8054428" lon="10.8456806"><ele>68.0</ele><time>2026-03-28T13:28:14.708Z</time></trkpt><trkpt lat="45.8053476" lon="10.8454942"><ele>68.0</ele><time>2026-03-28T13:28:15.707Z</time></trkpt><trkpt lat="45.8052544" lon="10.8453034"><ele>70.66666666666667</ele><time>2026-03-28T13:28:16.708Z</time></trkpt><trkpt lat="45.805162" lon="10.8451112"><ele>73.33333333333333</ele><time>2026-03-28T13:28:17.708Z</time></trkpt><trkpt lat="45.8050713" lon="10.8449189"><ele>76.0</ele><time>2026-03-28T13:28:18.707Z</time></trkpt><trkpt lat="45.8049825" lon="10.8447239"><ele>76.0</ele><time>2026-03-28T13:28:19.707Z</time></trkpt><trkpt lat="45.8048938" lon="10.8445302"><ele>76.0</ele><time>2026-03-28T13:28:20.708Z</time></trkpt><trkpt lat="45.804806" lon="10.8443368"><ele>76.0</ele><time>2026-03-28T13:28:21.707Z</time></trkpt><trkpt lat="45.8047161" lon="10.8441453"><ele>72.33333333333333</ele><time>2026-03-28T13:28:22.707Z</time></trkpt><trkpt lat="45.8046237" lon="10.8439543"><ele>68.66666666666667</ele><time>2026-03-28T13:28:23.708Z</time></trkpt><trkpt lat="45.8045304" lon="10.8437644"><ele>65.0</ele><time>2026-03-28T13:28:24.707Z</time></trkpt><trkpt lat="45.8044357" lon="10.8435784"><ele>64.33333333333334</ele><time>2026-03-28T13:28:25.708Z</time></trkpt><trkpt lat="45.8043377" lon="10.8433938"><ele>63.66666666666667</ele><time>2026-03-28T13:28:26.708Z</time></trkpt><trkpt lat="45.8042386" lon="10.84321"><ele>63.0</ele><time>2026-03-28T13:28:27.707Z</time></trkpt><trkpt lat="45.8041412" lon="10.8430366"><ele>65.0</ele><time>2026-03-28T13:28:28.708Z</time></trkpt><trkpt lat="45.8040421" lon="10.8428709"><ele>67.0</ele><time>2026-03-28T13:28:29.707Z</time></trkpt><trkpt lat="45.8039419" lon="10.842703"><ele>69.0</ele><time>2026-03-28T13:28:30.708Z</time></trkpt><trkpt lat="45.8038394" lon="10.8425332"><ele>69.0</ele><time>2026-03-28T13:28:31.707Z</time></trkpt><trkpt lat="45.803733" lon="10.8423596"><ele>69.0</ele><time>2026-03-28T13:28:32.708Z</time></trkpt><trkpt lat="45.8036193" lon="10.8421843"><ele>69.0</ele><time>2026-03-28T13:28:33.707Z</time></trkpt><trkpt lat="45.8035044" lon="10.8420112"><ele>69.33333333333333</ele><time>2026-03-28T13:28:34.707Z</time></trkpt><trkpt lat="45.8033842" lon="10.8418385"><ele>69.66666666666666</ele><time>2026-03-28T13:28:35.707Z</time></trkpt><trkpt lat="45.8032664" lon="10.8416646"><ele>70.0</ele><time>2026-03-28T13:28:36.708Z</time></trkpt><trkpt lat="45.8031448" lon="10.8414958"><ele>70.0</ele><time>2026-03-28T13:28:37.708Z</time></trkpt><trkpt lat="45.8030208" lon="10.8413304"><ele>70.0</ele><time>2026-03-28T13:28:38.707Z</time></trkpt><trkpt lat="45.8028977" lon="10.8411738"><ele>70.0</ele><time>2026-03-28T13:28:39.707Z</time></trkpt><trkpt lat="45.8027728" lon="10.8410225"><ele>71.66666666666666</ele><time>2026-03-28T13:28:40.708Z</time></trkpt><trkpt lat="45.8026479" lon="10.8408763"><ele>73.33333333333333</ele><time>2026-03-28T13:28:41.708Z</time></trkpt><trkpt lat="45.802524" lon="10.8407337"><ele>75.0</ele><time>2026-03-28T13:28:42.708Z</time></trkpt><trkpt lat="45.8024006" lon="10.8405933"><ele>75.0</ele><time>2026-03-28T13:28:43.707Z</time></trkpt><trkpt lat="45.8022764" lon="10.8404576"><ele>75.0</ele><time>2026-03-28T13:28:44.707Z</time></trkpt><trkpt lat="45.8021551" lon="10.8403275"><ele>75.0</ele><time>2026-03-28T13:28:45.707Z</time></trkpt><trkpt lat="45.8020375" lon="10.8401911"><ele>77.0</ele><time>2026-03-28T13:28:46.707Z</time></trkpt><trkpt lat="45.8019206" lon="10.8400505"><ele>79.0</ele><time>2026-03-28T13:28:47.707Z</time></trkpt><trkpt lat="45.8018092" lon="10.8398974"><ele>81.0</ele><time>2026-03-28T13:28:48.708Z</time></trkpt><trkpt lat="45.801703" lon="10.8397357"><ele>81.0</ele><time>2026-03-28T13:28:49.707Z</time></trkpt><trkpt lat="45.8016036" lon="10.8395673"><ele>81.0</ele><time>2026-03-28T13:28:50.708Z</time></trkpt><trkpt lat="45.8015113" lon="10.839393"><ele>81.0</ele><time>2026-03-28T13:28:51.708Z</time></trkpt><trkpt lat="45.8014285" lon="10.8392078"><ele>77.0</ele><time>2026-03-28T13:28:52.708Z</time></trkpt><trkpt lat="45.8013439" lon="10.8390219"><ele>73.0</ele><time>2026-03-28T13:28:53.707Z</time></trkpt><trkpt lat="45.8012572" lon="10.8388377"><ele>69.0</ele><time>2026-03-28T13:28:54.707Z</time></trkpt><trkpt lat="45.8011714" lon="10.8386575"><ele>69.0</ele><time>2026-03-28T13:28:55.707Z</time></trkpt><trkpt lat="45.8010869" lon="10.8384807"><ele>69.0</ele><time>2026-03-28T13:28:56.708Z</time></trkpt><trkpt lat="45.8009959" lon="10.8383143"><ele>69.0</ele><time>2026-03-28T13:28:57.708Z</time></trkpt><trkpt lat="45.8008992" lon="10.8381626"><ele>69.0</ele><time>2026-03-28T13:28:58.708Z</time></trkpt><trkpt lat="45.8007989" lon="10.8380265"><ele>70.5</ele><time>2026-03-28T13:28:59.708Z</time></trkpt><trkpt lat="45.8006961" lon="10.8379064"><ele>72.0</ele><time>2026-03-28T13:29:00.708Z</time></trkpt><trkpt lat="45.800594" lon="10.8377985"><ele>73.5</ele><time>2026-03-28T13:29:01.707Z</time></trkpt><trkpt lat="45.8004849" lon="10.8377032"><ele>75.0</ele><time>2026-03-28T13:29:02.708Z</time></trkpt><trkpt lat="45.8003721" lon="10.8376172"><ele>73.0</ele><time>2026-03-28T13:29:03.707Z</time></trkpt><trkpt lat="45.8002556" lon="10.8375426"><ele>71.0</ele><time>2026-03-28T13:29:04.707Z</time></trkpt><trkpt lat="45.8001429" lon="10.8374852"><ele>69.0</ele><time>2026-03-28T13:29:05.707Z</time></trkpt><trkpt lat="45.8000345" lon="10.8374399"><ele>67.0</ele><time>2026-03-28T13:29:06.707Z</time></trkpt><trkpt lat="45.7999299" lon="10.8374062"><ele>67.0</ele><time>2026-03-28T13:29:07.707Z</time></trkpt><trkpt lat="45.7998254" lon="10.8373779"><ele>67.0</ele><time>2026-03-28T13:29:08.708Z</time></trkpt><trkpt lat="45.7997197" lon="10.8373631"><ele>67.0</ele><time>2026-03-28T13:29:09.707Z</time></trkpt><trkpt lat="45.799616" lon="10.8373601"><ele>67.0</ele><time>2026-03-28T13:29:10.707Z</time></trkpt><trkpt lat="45.7995103" lon="10.8373702"><ele>67.0</ele><time>2026-03-28T13:29:11.708Z</time></trkpt><trkpt lat="45.7994078" lon="10.8373891"><ele>67.8</ele><time>2026-03-28T13:29:12.708Z</time></trkpt><trkpt lat="45.799305" lon="10.8374108"><ele>68.6</ele><time>2026-03-28T13:29:13.707Z</time></trkpt><trkpt lat="45.7992033" lon="10.8374374"><ele>69.39999999999999</ele><time>2026-03-28T13:29:14.707Z</time></trkpt><trkpt lat="45.7990978" lon="10.8374605"><ele>70.2</ele><time>2026-03-28T13:29:15.708Z</time></trkpt><trkpt lat="45.7989925" lon="10.8374809"><ele>71.0</ele><time>2026-03-28T13:29:16.707Z</time></trkpt><trkpt lat="45.7988847" lon="10.8375041"><ele>71.0</ele><time>2026-03-28T13:29:17.708Z</time></trkpt><trkpt lat="45.7987758" lon="10.837527"><ele>71.0</ele><time>2026-03-28T13:29:18.708Z</time></trkpt><trkpt lat="45.7986684" lon="10.8375512"><ele>71.0</ele><time>2026-03-28T13:29:19.707Z</time></trkpt><trkpt lat="45.7985703" lon="10.8375708"><ele>71.0</ele><time>2026-03-28T13:29:20.707Z</time></trkpt><trkpt lat="45.7984927" lon="10.8375847"><ele>71.0</ele><time>2026-03-28T13:29:21.708Z</time></trkpt><trkpt lat="45.7984198" lon="10.8375985"><ele>70.39999999999999</ele><time>2026-03-28T13:29:22.707Z</time></trkpt><trkpt lat="45.7983518" lon="10.837609"><ele>69.8</ele><time>2026-03-28T13:29:23.707Z</time></trkpt><trkpt lat="45.7982306" lon="10.837622"><ele>69.19999999999999</ele><time>2026-03-28T13:29:25.707Z</time></trkpt><trkpt lat="45.7981145" lon="10.8376281"><ele>68.6</ele><time>2026-03-28T13:29:27.707Z</time></trkpt><trkpt lat="45.7979936" lon="10.837618"><ele>68.0</ele><time>2026-03-28T13:29:29.707Z</time></trkpt><trkpt lat="45.7979186" lon="10.8376077"><ele>68.0</ele><time>2026-03-28T13:29:30.708Z</time></trkpt><trkpt lat="45.7978322" lon="10.8375855"><ele>68.0</ele><time>2026-03-28T13:29:31.707Z</time></trkpt><trkpt lat="45.7977355" lon="10.8375583"><ele>68.0</ele><time>2026-03-28T13:29:32.707Z</time></trkpt><trkpt lat="45.7976294" lon="10.8375195"><ele>68.0</ele><time>2026-03-28T13:29:33.708Z</time></trkpt><trkpt lat="45.7975157" lon="10.8374647"><ele>68.0</ele><time>2026-03-28T13:29:34.708Z</time></trkpt><trkpt lat="45.7974015" lon="10.8373928"><ele>70.2</ele><time>2026-03-28T13:29:35.707Z</time></trkpt><trkpt lat="45.7973013" lon="10.8373195"><ele>72.4</ele><time>2026-03-28T13:29:36.707Z</time></trkpt><trkpt lat="45.7972128" lon="10.8372468"><ele>74.60000000000001</ele><time>2026-03-28T13:29:37.708Z</time></trkpt><trkpt lat="45.7971325" lon="10.8371702"><ele>76.8</ele><time>2026-03-28T13:29:38.708Z</time></trkpt><trkpt lat="45.7970507" lon="10.837088"><ele>79.0</ele><time>2026-03-28T13:29:39.708Z</time></trkpt><trkpt lat="45.7969709" lon="10.8370043"><ele>79.0</ele><time>2026-03-28T13:29:40.707Z</time></trkpt><trkpt lat="45.7968876" lon="10.8369173"><ele>79.0</ele><time>2026-03-28T13:29:41.707Z</time></trkpt><trkpt lat="45.7967991" lon="10.8368268"><ele>79.0</ele><time>2026-03-28T13:29:42.708Z</time></trkpt><trkpt lat="45.7967131" lon="10.8367362"><ele>79.0</ele><time>2026-03-28T13:29:43.708Z</time></trkpt><trkpt lat="45.796632" lon="10.8366554"><ele>79.0</ele><time>2026-03-28T13:29:44.708Z</time></trkpt><trkpt lat="45.7965604" lon="10.8365765"><ele>78.5</ele><time>2026-03-28T13:29:45.707Z</time></trkpt><trkpt lat="45.7964927" lon="10.8365009"><ele>78.0</ele><time>2026-03-28T13:29:46.707Z</time></trkpt><trkpt lat="45.7964216" lon="10.8364269"><ele>77.5</ele><time>2026-03-28T13:29:47.708Z</time></trkpt><trkpt lat="45.7963495" lon="10.8363518"><ele>77.0</ele><time>2026-03-28T13:29:48.707Z</time></trkpt><trkpt lat="45.796277" lon="10.8362769"><ele>76.5</ele><time>2026-03-28T13:29:49.707Z</time></trkpt><trkpt lat="45.796198" lon="10.8361991"><ele>76.0</ele><time>2026-03-28T13:29:50.708Z</time></trkpt><trkpt lat="45.7961174" lon="10.8361148"><ele>76.0</ele><time>2026-03-28T13:29:51.708Z</time></trkpt><trkpt lat="45.796037" lon="10.8360229"><ele>76.0</ele><time>2026-03-28T13:29:52.707Z</time></trkpt><trkpt lat="45.7959498" lon="10.8359284"><ele>76.0</ele><time>2026-03-28T13:29:53.708Z</time></trkpt><trkpt lat="45.7958611" lon="10.8358287"><ele>76.0</ele><time>2026-03-28T13:29:54.707Z</time></trkpt><trkpt lat="45.7957694" lon="10.8357299"><ele>76.0</ele><time>2026-03-28T13:29:55.707Z</time></trkpt><trkpt lat="45.7956737" lon="10.8356302"><ele>75.6</ele><time>2026-03-28T13:29:56.708Z</time></trkpt><trkpt lat="45.7955778" lon="10.8355303"><ele>75.19999999999999</ele><time>2026-03-28T13:29:57.707Z</time></trkpt><trkpt lat="45.795488" lon="10.8354349"><ele>74.80000000000001</ele><time>2026-03-28T13:29:58.708Z</time></trkpt><trkpt lat="45.7954014" lon="10.8353418"><ele>74.4</ele><time>2026-03-28T13:29:59.707Z</time></trkpt><trkpt lat="45.7953153" lon="10.8352497"><ele>74.0</ele><time>2026-03-28T13:30:00.707Z</time></trkpt><trkpt lat="45.795226" lon="10.8351587"><ele>74.4</ele><time>2026-03-28T13:30:01.708Z</time></trkpt><trkpt lat="45.7951393" lon="10.8350653"><ele>74.80000000000001</ele><time>2026-03-28T13:30:02.707Z</time></trkpt><trkpt lat="45.795051" lon="10.8349704"><ele>75.19999999999999</ele><time>2026-03-28T13:30:03.707Z</time></trkpt><trkpt lat="45.7949613" lon="10.8348772"><ele>75.6</ele><time>2026-03-28T13:30:04.707Z</time></trkpt><trkpt lat="45.7948697" lon="10.8347856"><ele>76.0</ele><time>2026-03-28T13:30:05.708Z</time></trkpt><trkpt lat="45.7947818" lon="10.8346911"><ele>76.0</ele><time>2026-03-28T13:30:06.707Z</time></trkpt><trkpt lat="45.7946879" lon="10.8346008"><ele>76.0</ele><time>2026-03-28T13:30:07.708Z</time></trkpt><trkpt lat="45.7945946" lon="10.834507"><ele>76.0</ele><time>2026-03-28T13:30:08.708Z</time></trkpt><trkpt lat="45.7944985" lon="10.8344096"><ele>76.0</ele><time>2026-03-28T13:30:09.707Z</time></trkpt><trkpt lat="45.7944" lon="10.8343054"><ele>77.75</ele><time>2026-03-28T13:30:10.707Z</time></trkpt><trkpt lat="45.7942999" lon="10.8341978"><ele>79.5</ele><time>2026-03-28T13:30:11.707Z</time></trkpt><trkpt lat="45.7941946" lon="10.8340865"><ele>81.25</ele><time>2026-03-28T13:30:12.707Z</time></trkpt><trkpt lat="45.7940829" lon="10.8339682"><ele>83.0</ele><time>2026-03-28T13:30:13.707Z</time></trkpt><trkpt lat="45.793967" lon="10.833848"><ele>83.0</ele><time>2026-03-28T13:30:14.707Z</time></trkpt><trkpt lat="45.7938461" lon="10.8337216"><ele>83.0</ele><time>2026-03-28T13:30:15.708Z</time></trkpt><trkpt lat="45.7937344" lon="10.8336"><ele>83.0</ele><time>2026-03-28T13:30:16.707Z</time></trkpt><trkpt lat="45.7936317" lon="10.8334794"><ele>83.0</ele><time>2026-03-28T13:30:17.708Z</time></trkpt><trkpt lat="45.7935305" lon="10.8333616"><ele>84.0</ele><time>2026-03-28T13:30:18.708Z</time></trkpt><trkpt lat="45.7934316" lon="10.8332447"><ele>85.0</ele><time>2026-03-28T13:30:19.707Z</time></trkpt><trkpt lat="45.793341" lon="10.8331327"><ele>86.0</ele><time>2026-03-28T13:30:20.708Z</time></trkpt><trkpt lat="45.7932543" lon="10.8330216"><ele>87.0</ele><time>2026-03-28T13:30:21.708Z</time></trkpt><trkpt lat="45.7931683" lon="10.8329135"><ele>87.0</ele><time>2026-03-28T13:30:22.708Z</time></trkpt><trkpt lat="45.7930894" lon="10.832812"><ele>87.0</ele><time>2026-03-28T13:30:23.707Z</time></trkpt><trkpt lat="45.7930137" lon="10.8327174"><ele>87.0</ele><time>2026-03-28T13:30:24.708Z</time></trkpt><trkpt lat="45.7929474" lon="10.8326304"><ele>87.0</ele><time>2026-03-28T13:30:25.707Z</time></trkpt><trkpt lat="45.7928803" lon="10.8325443"><ele>87.0</ele><time>2026-03-28T13:30:26.707Z</time></trkpt><trkpt lat="45.7928143" lon="10.8324525"><ele>90.6</ele><time>2026-03-28T13:30:27.708Z</time></trkpt><trkpt lat="45.7927503" lon="10.8323601"><ele>94.19999999999999</ele><time>2026-03-28T13:30:28.709Z</time></trkpt><trkpt lat="45.7926914" lon="10.8322654"><ele>97.8</ele><time>2026-03-28T13:30:29.707Z</time></trkpt><trkpt lat="45.7926305" lon="10.8321694"><ele>101.4</ele><time>2026-03-28T13:30:30.707Z</time></trkpt><trkpt lat="45.7925699" lon="10.8320698"><ele>105.0</ele><time>2026-03-28T13:30:31.707Z</time></trkpt><trkpt lat="45.7925054" lon="10.8319591"><ele>105.0</ele><time>2026-03-28T13:30:32.707Z</time></trkpt><trkpt lat="45.7924349" lon="10.8318417"><ele>105.0</ele><time>2026-03-28T13:30:33.707Z</time></trkpt><trkpt lat="45.7923631" lon="10.8317183"><ele>105.0</ele><time>2026-03-28T13:30:34.708Z</time></trkpt><trkpt lat="45.7922878" lon="10.8315806"><ele>105.0</ele><time>2026-03-28T13:30:35.708Z</time></trkpt><trkpt lat="45.7922118" lon="10.8314335"><ele>97.5</ele><time>2026-03-28T13:30:36.707Z</time></trkpt><trkpt lat="45.792134" lon="10.8312798"><ele>90.0</ele><time>2026-03-28T13:30:37.708Z</time></trkpt><trkpt lat="45.7920573" lon="10.8311194"><ele>82.5</ele><time>2026-03-28T13:30:38.708Z</time></trkpt><trkpt lat="45.7919786" lon="10.8309524"><ele>75.0</ele><time>2026-03-28T13:30:39.708Z</time></trkpt><trkpt lat="45.7918991" lon="10.8307824"><ele>74.5</ele><time>2026-03-28T13:30:40.708Z</time></trkpt><trkpt lat="45.7918226" lon="10.8306096"><ele>74.0</ele><time>2026-03-28T13:30:41.707Z</time></trkpt><trkpt lat="45.791747" lon="10.8304317"><ele>73.5</ele><time>2026-03-28T13:30:42.707Z</time></trkpt><trkpt lat="45.7916722" lon="10.8302568"><ele>73.0</ele><time>2026-03-28T13:30:43.707Z</time></trkpt><trkpt lat="45.7915999" lon="10.8300835"><ele>73.0</ele><time>2026-03-28T13:30:44.708Z</time></trkpt><trkpt lat="45.7915271" lon="10.8299167"><ele>73.0</ele><time>2026-03-28T13:30:45.708Z</time></trkpt><trkpt lat="45.7914541" lon="10.8297554"><ele>73.0</ele><time>2026-03-28T13:30:46.707Z</time></trkpt><trkpt lat="45.7913853" lon="10.8295994"><ele>73.0</ele><time>2026-03-28T13:30:47.708Z</time></trkpt><trkpt lat="45.7913189" lon="10.8294433"><ele>71.5</ele><time>2026-03-28T13:30:48.708Z</time></trkpt><trkpt lat="45.7912522" lon="10.829288"><ele>70.0</ele><time>2026-03-28T13:30:49.708Z</time></trkpt><trkpt lat="45.7911905" lon="10.8291388"><ele>68.5</ele><time>2026-03-28T13:30:50.708Z</time></trkpt><trkpt lat="45.791134" lon="10.8290005"><ele>67.0</ele><time>2026-03-28T13:30:51.708Z</time></trkpt><trkpt lat="45.7910838" lon="10.8288715"><ele>67.0</ele><time>2026-03-28T13:30:52.707Z</time></trkpt><trkpt lat="45.7910374" lon="10.8287455"><ele>67.0</ele><time>2026-03-28T13:30:53.707Z</time></trkpt><trkpt lat="45.7909976" lon="10.8286149"><ele>67.0</ele><time>2026-03-28T13:30:54.707Z</time></trkpt><trkpt lat="45.7909589" lon="10.8284766"><ele>67.0</ele><time>2026-03-28T13:30:55.708Z</time></trkpt><trkpt lat="45.7909236" lon="10.828336"><ele>67.0</ele><time>2026-03-28T13:30:56.707Z</time></trkpt><trkpt lat="45.7908947" lon="10.8282083"><ele>66.83333333333333</ele><time>2026-03-28T13:30:57.707Z</time></trkpt><trkpt lat="45.7908677" lon="10.8280913"><ele>66.66666666666666</ele><time>2026-03-28T13:30:58.707Z</time></trkpt><trkpt lat="45.7908401" lon="10.8279724"><ele>66.5</ele><time>2026-03-28T13:30:59.707Z</time></trkpt><trkpt lat="45.7908127" lon="10.8278561"><ele>66.33333333333333</ele><time>2026-03-28T13:31:00.707Z</time></trkpt><trkpt lat="45.7907849" lon="10.8277464"><ele>66.16666666666667</ele><time>2026-03-28T13:31:01.707Z</time></trkpt><trkpt lat="45.7907526" lon="10.8276395"><ele>66.0</ele><time>2026-03-28T13:31:02.707Z</time></trkpt><trkpt lat="45.790716" lon="10.8275293"><ele>66.0</ele><time>2026-03-28T13:31:03.707Z</time></trkpt><trkpt lat="45.7906754" lon="10.8274148"><ele>66.0</ele><time>2026-03-28T13:31:04.708Z</time></trkpt><trkpt lat="45.7906357" lon="10.8272996"><ele>66.0</ele><time>2026-03-28T13:31:05.707Z</time></trkpt><trkpt lat="45.7905919" lon="10.8271822"><ele>66.0</ele><time>2026-03-28T13:31:06.707Z</time></trkpt><trkpt lat="45.7905464" lon="10.8270656"><ele>66.0</ele><time>2026-03-28T13:31:07.707Z</time></trkpt><trkpt lat="45.7904981" lon="10.8269476"><ele>66.0</ele><time>2026-03-28T13:31:08.709Z</time></trkpt><trkpt lat="45.790451" lon="10.8268293"><ele>66.0</ele><time>2026-03-28T13:31:09.708Z</time></trkpt><trkpt lat="45.7904005" lon="10.8267139"><ele>66.0</ele><time>2026-03-28T13:31:10.708Z</time></trkpt><trkpt lat="45.7903477" lon="10.8266031"><ele>66.0</ele><time>2026-03-28T13:31:11.707Z</time></trkpt><trkpt lat="45.7902936" lon="10.8264963"><ele>66.0</ele><time>2026-03-28T13:31:12.707Z</time></trkpt><trkpt lat="45.7902365" lon="10.8263888"><ele>65.83333333333333</ele><time>2026-03-28T13:31:13.707Z</time></trkpt><trkpt lat="45.7901811" lon="10.8262872"><ele>65.66666666666667</ele><time>2026-03-28T13:31:14.708Z</time></trkpt><trkpt lat="45.7901279" lon="10.826187"><ele>65.5</ele><time>2026-03-28T13:31:15.707Z</time></trkpt><trkpt lat="45.7900744" lon="10.826092"><ele>65.33333333333334</ele><time>2026-03-28T13:31:16.707Z</time></trkpt><trkpt lat="45.7900201" lon="10.8259975"><ele>65.16666666666667</ele><time>2026-03-28T13:31:17.708Z</time></trkpt><trkpt lat="45.7899681" lon="10.8259024"><ele>65.0</ele><time>2026-03-28T13:31:18.707Z</time></trkpt><trkpt lat="45.7899149" lon="10.8258062"><ele>65.0</ele><time>2026-03-28T13:31:19.708Z</time></trkpt><trkpt lat="45.7898605" lon="10.8257124"><ele>65.0</ele><time>2026-03-28T13:31:20.708Z</time></trkpt><trkpt lat="45.7898064" lon="10.8256214"><ele>65.0</ele><time>2026-03-28T13:31:21.708Z</time></trkpt><trkpt lat="45.7897591" lon="10.8255384"><ele>65.0</ele><time>2026-03-28T13:31:22.708Z</time></trkpt><trkpt lat="45.7896896" lon="10.8254063"><ele>65.0</ele><time>2026-03-28T13:31:24.708Z</time></trkpt><trkpt lat="45.7896358" lon="10.8253044"><ele>65.0</ele><time>2026-03-28T13:31:26.707Z</time></trkpt><trkpt lat="45.7895874" lon="10.8252249"><ele>65.0</ele><time>2026-03-28T13:31:28.707Z</time></trkpt><trkpt lat="45.789547" lon="10.825149"><ele>65.0</ele><time>2026-03-28T13:31:30.708Z</time></trkpt><trkpt lat="45.7894974" lon="10.8250584"><ele>65.0</ele><time>2026-03-28T13:31:32.708Z</time></trkpt><trkpt lat="45.7894307" lon="10.8249461"><ele>65.0</ele><time>2026-03-28T13:31:34.707Z</time></trkpt><trkpt lat="45.7893447" lon="10.8248014"><ele>65.0</ele><time>2026-03-28T13:31:36.708Z</time></trkpt><trkpt lat="45.7892905" lon="10.8247096"><ele>65.0</ele><time>2026-03-28T13:31:37.707Z</time></trkpt><trkpt lat="45.78923" lon="10.8246017"><ele>65.0</ele><time>2026-03-28T13:31:38.708Z</time></trkpt><trkpt lat="45.7891679" lon="10.8244843"><ele>65.0</ele><time>2026-03-28T13:31:39.707Z</time></trkpt><trkpt lat="45.7891074" lon="10.8243739"><ele>65.0</ele><time>2026-03-28T13:31:40.708Z</time></trkpt><trkpt lat="45.789053" lon="10.8242733"><ele>65.0</ele><time>2026-03-28T13:31:41.707Z</time></trkpt><trkpt lat="45.7890004" lon="10.8241733"><ele>65.0</ele><time>2026-03-28T13:31:42.708Z</time></trkpt><trkpt lat="45.7889474" lon="10.8240687"><ele>65.0</ele><time>2026-03-28T13:31:43.708Z</time></trkpt><trkpt lat="45.7888909" lon="10.8239576"><ele>65.0</ele><time>2026-03-28T13:31:44.707Z</time></trkpt><trkpt lat="45.7888324" lon="10.8238402"><ele>65.0</ele><time>2026-03-28T13:31:45.708Z</time></trkpt><trkpt lat="45.7887716" lon="10.8237215"><ele>65.0</ele><time>2026-03-28T13:31:46.707Z</time></trkpt><trkpt lat="45.7887113" lon="10.823606"><ele>65.0</ele><time>2026-03-28T13:31:47.708Z</time></trkpt><trkpt lat="45.7886522" lon="10.8234905"><ele>65.0</ele><time>2026-03-28T13:31:48.707Z</time></trkpt><trkpt lat="45.7885932" lon="10.8233723"><ele>65.0</ele><time>2026-03-28T13:31:49.707Z</time></trkpt><trkpt lat="45.7885313" lon="10.8232536"><ele>65.0</ele><time>2026-03-28T13:31:50.708Z</time></trkpt><trkpt lat="45.7884655" lon="10.8231347"><ele>65.0</ele><time>2026-03-28T13:31:51.707Z</time></trkpt><trkpt lat="45.7883958" lon="10.8230146"><ele>65.8</ele><time>2026-03-28T13:31:52.708Z</time></trkpt><trkpt lat="45.7883248" lon="10.8229045"><ele>66.6</ele><time>2026-03-28T13:31:53.708Z</time></trkpt><trkpt lat="45.788253" lon="10.822804"><ele>67.4</ele><time>2026-03-28T13:31:54.708Z</time></trkpt><trkpt lat="45.7881728" lon="10.8227064"><ele>68.2</ele><time>2026-03-28T13:31:55.707Z</time></trkpt><trkpt lat="45.7880841" lon="10.8226127"><ele>69.0</ele><time>2026-03-28T13:31:56.707Z</time></trkpt><trkpt lat="45.7879897" lon="10.8225226"><ele>69.0</ele><time>2026-03-28T13:31:57.707Z</time></trkpt><trkpt lat="45.7878903" lon="10.8224296"><ele>69.0</ele><time>2026-03-28T13:31:58.707Z</time></trkpt><trkpt lat="45.7877883" lon="10.8223344"><ele>69.0</ele><time>2026-03-28T13:31:59.708Z</time></trkpt><trkpt lat="45.7876807" lon="10.8222385"><ele>69.0</ele><time>2026-03-28T13:32:00.707Z</time></trkpt><trkpt lat="45.7875696" lon="10.8221388"><ele>69.25</ele><time>2026-03-28T13:32:01.707Z</time></trkpt><trkpt lat="45.7874512" lon="10.8220378"><ele>69.5</ele><time>2026-03-28T13:32:02.707Z</time></trkpt><trkpt lat="45.7873283" lon="10.8219339"><ele>69.75</ele><time>2026-03-28T13:32:03.707Z</time></trkpt><trkpt lat="45.7872016" lon="10.8218244"><ele>70.0</ele><time>2026-03-28T13:32:04.707Z</time></trkpt><trkpt lat="45.7870827" lon="10.8217209"><ele>69.5</ele><time>2026-03-28T13:32:05.707Z</time></trkpt><trkpt lat="45.7869731" lon="10.8216278"><ele>69.0</ele><time>2026-03-28T13:32:06.707Z</time></trkpt><trkpt lat="45.7868693" lon="10.8215382"><ele>68.5</ele><time>2026-03-28T13:32:07.708Z</time></trkpt><trkpt lat="45.7867684" lon="10.8214525"><ele>68.0</ele><time>2026-03-28T13:32:08.708Z</time></trkpt><trkpt lat="45.7866665" lon="10.8213631"><ele>68.0</ele><time>2026-03-28T13:32:09.707Z</time></trkpt><trkpt lat="45.7865632" lon="10.8212718"><ele>68.0</ele><time>2026-03-28T13:32:10.707Z</time></trkpt><trkpt lat="45.7864594" lon="10.8211745"><ele>68.0</ele><time>2026-03-28T13:32:11.707Z</time></trkpt><trkpt lat="45.7863537" lon="10.8210758"><ele>68.0</ele><time>2026-03-28T13:32:12.707Z</time></trkpt><trkpt lat="45.7862504" lon="10.8209695"><ele>67.5</ele><time>2026-03-28T13:32:13.707Z</time></trkpt><trkpt lat="45.7861466" lon="10.8208536"><ele>67.0</ele><time>2026-03-28T13:32:14.708Z</time></trkpt><trkpt lat="45.7860429" lon="10.8207311"><ele>66.5</ele><time>2026-03-28T13:32:15.708Z</time></trkpt><trkpt lat="45.7859364" lon="10.8206048"><ele>66.0</ele><time>2026-03-28T13:32:16.708Z</time></trkpt><trkpt lat="45.7858293" lon="10.8204722"><ele>66.25</ele><time>2026-03-28T13:32:17.707Z</time></trkpt><trkpt lat="45.7857241" lon="10.8203426"><ele>66.5</ele><time>2026-03-28T13:32:18.707Z</time></trkpt><trkpt lat="45.7856219" lon="10.820215"><ele>66.75</ele><time>2026-03-28T13:32:19.707Z</time></trkpt><trkpt lat="45.7855209" lon="10.82009"><ele>67.0</ele><time>2026-03-28T13:32:20.707Z</time></trkpt><trkpt lat="45.785419" lon="10.8199677"><ele>67.0</ele><time>2026-03-28T13:32:21.707Z</time></trkpt><trkpt lat="45.7853194" lon="10.8198436"><ele>67.0</ele><time>2026-03-28T13:32:22.708Z</time></trkpt><trkpt lat="45.7852207" lon="10.8197197"><ele>67.0</ele><time>2026-03-28T13:32:23.708Z</time></trkpt><trkpt lat="45.7851193" lon="10.8195946"><ele>67.0</ele><time>2026-03-28T13:32:24.707Z</time></trkpt><trkpt lat="45.7850143" lon="10.8194739"><ele>67.0</ele><time>2026-03-28T13:32:25.707Z</time></trkpt><trkpt lat="45.7849065" lon="10.819361"><ele>67.0</ele><time>2026-03-28T13:32:26.707Z</time></trkpt><trkpt lat="45.7847937" lon="10.8192595"><ele>67.0</ele><time>2026-03-28T13:32:27.708Z</time></trkpt><trkpt lat="45.7846792" lon="10.8191725"><ele>67.0</ele><time>2026-03-28T13:32:28.708Z</time></trkpt><trkpt lat="45.7845573" lon="10.819095"><ele>67.0</ele><time>2026-03-28T13:32:29.707Z</time></trkpt><trkpt lat="45.7844308" lon="10.8190278"><ele>67.0</ele><time>2026-03-28T13:32:30.708Z</time></trkpt><trkpt lat="45.784298" lon="10.818967"><ele>67.0</ele><time>2026-03-28T13:32:31.708Z</time></trkpt><trkpt lat="45.7841642" lon="10.818907"><ele>67.0</ele><time>2026-03-28T13:32:32.707Z</time></trkpt><trkpt lat="45.7840267" lon="10.8188479"><ele>69.25</ele><time>2026-03-28T13:32:33.708Z</time></trkpt><trkpt lat="45.7838855" lon="10.8187942"><ele>71.5</ele><time>2026-03-28T13:32:34.708Z</time></trkpt><trkpt lat="45.7837438" lon="10.8187462"><ele>73.75</ele><time>2026-03-28T13:32:35.708Z</time></trkpt><trkpt lat="45.7836008" lon="10.8187052"><ele>76.0</ele><time>2026-03-28T13:32:36.707Z</time></trkpt><trkpt lat="45.7834556" lon="10.8186653"><ele>78.33333333333333</ele><time>2026-03-28T13:32:37.707Z</time></trkpt><trkpt lat="45.7833078" lon="10.8186123"><ele>80.66666666666667</ele><time>2026-03-28T13:32:38.707Z</time></trkpt><trkpt lat="45.783157" lon="10.8185512"><ele>83.0</ele><time>2026-03-28T13:32:39.708Z</time></trkpt><trkpt lat="45.783004" lon="10.8184821"><ele>80.75</ele><time>2026-03-28T13:32:40.707Z</time></trkpt><trkpt lat="45.7828552" lon="10.8184161"><ele>78.5</ele><time>2026-03-28T13:32:41.708Z</time></trkpt><trkpt lat="45.7827164" lon="10.8183545"><ele>76.25</ele><time>2026-03-28T13:32:42.708Z</time></trkpt><trkpt lat="45.7825828" lon="10.8182919"><ele>74.0</ele><time>2026-03-28T13:32:43.708Z</time></trkpt><trkpt lat="45.7824514" lon="10.818231"><ele>74.0</ele><time>2026-03-28T13:32:44.707Z</time></trkpt><trkpt lat="45.7823198" lon="10.8181691"><ele>74.0</ele><time>2026-03-28T13:32:45.708Z</time></trkpt><trkpt lat="45.7821858" lon="10.8181041"><ele>74.0</ele><time>2026-03-28T13:32:46.708Z</time></trkpt><trkpt lat="45.7820495" lon="10.8180421"><ele>74.0</ele><time>2026-03-28T13:32:47.707Z</time></trkpt><trkpt lat="45.781913" lon="10.8179726"><ele>76.75</ele><time>2026-03-28T13:32:48.707Z</time></trkpt><trkpt lat="45.7817767" lon="10.8179013"><ele>79.5</ele><time>2026-03-28T13:32:49.707Z</time></trkpt><trkpt lat="45.7816379" lon="10.8178378"><ele>82.25</ele><time>2026-03-28T13:32:50.707Z</time></trkpt><trkpt lat="45.7814999" lon="10.8177726"><ele>85.0</ele><time>2026-03-28T13:32:51.708Z</time></trkpt><trkpt lat="45.7813606" lon="10.8177131"><ele>85.0</ele><time>2026-03-28T13:32:52.707Z</time></trkpt><trkpt lat="45.7812202" lon="10.817654"><ele>85.0</ele><time>2026-03-28T13:32:53.708Z</time></trkpt><trkpt lat="45.7810805" lon="10.817588"><ele>85.0</ele><time>2026-03-28T13:32:54.708Z</time></trkpt><trkpt lat="45.7809399" lon="10.8175218"><ele>85.0</ele><time>2026-03-28T13:32:55.708Z</time></trkpt><trkpt lat="45.7807982" lon="10.8174553"><ele>82.25</ele><time>2026-03-28T13:32:56.707Z</time></trkpt><trkpt lat="45.7806549" lon="10.8173896"><ele>79.5</ele><time>2026-03-28T13:32:57.707Z</time></trkpt><trkpt lat="45.7805133" lon="10.8173214"><ele>76.75</ele><time>2026-03-28T13:32:58.708Z</time></trkpt><trkpt lat="45.7803717" lon="10.8172552"><ele>74.0</ele><time>2026-03-28T13:32:59.707Z</time></trkpt><trkpt lat="45.7802331" lon="10.8171919"><ele>76.5</ele><time>2026-03-28T13:33:00.708Z</time></trkpt><trkpt lat="45.7800989" lon="10.8171272"><ele>79.0</ele><time>2026-03-28T13:33:01.707Z</time></trkpt><trkpt lat="45.7799671" lon="10.8170674"><ele>81.5</ele><time>2026-03-28T13:33:02.708Z</time></trkpt><trkpt lat="45.7798426" lon="10.8170107"><ele>84.0</ele><time>2026-03-28T13:33:03.708Z</time></trkpt><trkpt lat="45.7797203" lon="10.8169528"><ele>84.0</ele><time>2026-03-28T13:33:04.708Z</time></trkpt><trkpt lat="45.7796023" lon="10.816896"><ele>84.0</ele><time>2026-03-28T13:33:05.707Z</time></trkpt><trkpt lat="45.7794867" lon="10.8168443"><ele>84.0</ele><time>2026-03-28T13:33:06.708Z</time></trkpt><trkpt lat="45.7793731" lon="10.816788"><ele>84.0</ele><time>2026-03-28T13:33:07.707Z</time></trkpt><trkpt lat="45.7792582" lon="10.8167375"><ele>81.25</ele><time>2026-03-28T13:33:08.707Z</time></trkpt><trkpt lat="45.7791464" lon="10.8166849"><ele>78.5</ele><time>2026-03-28T13:33:09.708Z</time></trkpt><trkpt lat="45.7790339" lon="10.8166303"><ele>75.75</ele><time>2026-03-28T13:33:10.707Z</time></trkpt><trkpt lat="45.7789238" lon="10.8165756"><ele>73.0</ele><time>2026-03-28T13:33:11.708Z</time></trkpt><trkpt lat="45.778812" lon="10.8165239"><ele>73.0</ele><time>2026-03-28T13:33:12.708Z</time></trkpt><trkpt lat="45.7787001" lon="10.8164752"><ele>73.0</ele><time>2026-03-28T13:33:13.708Z</time></trkpt><trkpt lat="45.7785923" lon="10.8164211"><ele>73.0</ele><time>2026-03-28T13:33:14.707Z</time></trkpt><trkpt lat="45.7784906" lon="10.8163659"><ele>73.0</ele><time>2026-03-28T13:33:15.707Z</time></trkpt><trkpt lat="45.7783913" lon="10.8163119"><ele>73.0</ele><time>2026-03-28T13:33:16.708Z</time></trkpt><trkpt lat="45.778295" lon="10.8162545"><ele>74.2</ele><time>2026-03-28T13:33:17.708Z</time></trkpt><trkpt lat="45.7781992" lon="10.8161984"><ele>75.4</ele><time>2026-03-28T13:33:18.708Z</time></trkpt><trkpt lat="45.7781014" lon="10.8161423"><ele>76.60000000000001</ele><time>2026-03-28T13:33:19.707Z</time></trkpt><trkpt lat="45.7780023" lon="10.816085"><ele>77.8</ele><time>2026-03-28T13:33:20.708Z</time></trkpt><trkpt lat="45.7779058" lon="10.8160248"><ele>79.0</ele><time>2026-03-28T13:33:21.707Z</time></trkpt><trkpt lat="45.7778047" lon="10.8159653"><ele>78.0</ele><time>2026-03-28T13:33:22.708Z</time></trkpt><trkpt lat="45.7777018" lon="10.8159068"><ele>77.0</ele><time>2026-03-28T13:33:23.708Z</time></trkpt><trkpt lat="45.7775968" lon="10.8158467"><ele>76.0</ele><time>2026-03-28T13:33:24.707Z</time></trkpt><trkpt lat="45.7774893" lon="10.8157866"><ele>75.0</ele><time>2026-03-28T13:33:25.708Z</time></trkpt><trkpt lat="45.7773802" lon="10.8157223"><ele>75.0</ele><time>2026-03-28T13:33:26.708Z</time></trkpt><trkpt lat="45.7772667" lon="10.8156563"><ele>75.0</ele><time>2026-03-28T13:33:27.707Z</time></trkpt><trkpt lat="45.7771509" lon="10.8155907"><ele>75.0</ele><time>2026-03-28T13:33:28.708Z</time></trkpt><trkpt lat="45.7770344" lon="10.8155222"><ele>75.0</ele><time>2026-03-28T13:33:29.708Z</time></trkpt><trkpt lat="45.7769129" lon="10.8154612"><ele>77.5</ele><time>2026-03-28T13:33:30.707Z</time></trkpt><trkpt lat="45.7767884" lon="10.8154065"><ele>80.0</ele><time>2026-03-28T13:33:31.707Z</time></trkpt><trkpt lat="45.7766616" lon="10.8153537"><ele>82.5</ele><time>2026-03-28T13:33:32.709Z</time></trkpt><trkpt lat="45.7765436" lon="10.8152976"><ele>85.0</ele><time>2026-03-28T13:33:33.707Z</time></trkpt><trkpt lat="45.7764246" lon="10.8152427"><ele>85.0</ele><time>2026-03-28T13:33:34.707Z</time></trkpt><trkpt lat="45.7763006" lon="10.8151849"><ele>85.0</ele><time>2026-03-28T13:33:35.708Z</time></trkpt><trkpt lat="45.7761768" lon="10.8151238"><ele>85.0</ele><time>2026-03-28T13:33:36.708Z</time></trkpt><trkpt lat="45.776049" lon="10.8150602"><ele>85.0</ele><time>2026-03-28T13:33:37.707Z</time></trkpt><trkpt lat="45.7759187" lon="10.8149926"><ele>82.0</ele><time>2026-03-28T13:33:38.707Z</time></trkpt><trkpt lat="45.7757873" lon="10.8149183"><ele>79.0</ele><time>2026-03-28T13:33:39.707Z</time></trkpt><trkpt lat="45.7756627" lon="10.8148399"><ele>76.0</ele><time>2026-03-28T13:33:40.707Z</time></trkpt><trkpt lat="45.7755439" lon="10.8147592"><ele>73.0</ele><time>2026-03-28T13:33:41.707Z</time></trkpt><trkpt lat="45.7754289" lon="10.8146733"><ele>73.0</ele><time>2026-03-28T13:33:42.708Z</time></trkpt><trkpt lat="45.7753126" lon="10.8145847"><ele>73.0</ele><time>2026-03-28T13:33:43.708Z</time></trkpt><trkpt lat="45.7751938" lon="10.8144947"><ele>73.0</ele><time>2026-03-28T13:33:44.708Z</time></trkpt><trkpt lat="45.7750743" lon="10.8144075"><ele>73.0</ele><time>2026-03-28T13:33:45.708Z</time></trkpt><trkpt lat="45.7749559" lon="10.8143203"><ele>72.75</ele><time>2026-03-28T13:33:46.707Z</time></trkpt><trkpt lat="45.7748379" lon="10.8142321"><ele>72.5</ele><time>2026-03-28T13:33:47.707Z</time></trkpt><trkpt lat="45.7747188" lon="10.8141421"><ele>72.25</ele><time>2026-03-28T13:33:48.707Z</time></trkpt><trkpt lat="45.7745978" lon="10.8140555"><ele>72.0</ele><time>2026-03-28T13:33:49.708Z</time></trkpt><trkpt lat="45.7744737" lon="10.8139692"><ele>74.5</ele><time>2026-03-28T13:33:50.708Z</time></trkpt><trkpt lat="45.7743477" lon="10.8138879"><ele>77.0</ele><time>2026-03-28T13:33:51.709Z</time></trkpt><trkpt lat="45.774225" lon="10.8138186"><ele>79.5</ele><time>2026-03-28T13:33:52.708Z</time></trkpt><trkpt lat="45.7741035" lon="10.8137539"><ele>82.0</ele><time>2026-03-28T13:33:53.708Z</time></trkpt><trkpt lat="45.773985" lon="10.8136924"><ele>82.0</ele><time>2026-03-28T13:33:54.707Z</time></trkpt><trkpt lat="45.7738702" lon="10.8136349"><ele>82.0</ele><time>2026-03-28T13:33:55.708Z</time></trkpt><trkpt lat="45.773765" lon="10.8135782"><ele>82.0</ele><time>2026-03-28T13:33:56.708Z</time></trkpt><trkpt lat="45.7736672" lon="10.8135296"><ele>82.0</ele><time>2026-03-28T13:33:57.708Z</time></trkpt><trkpt lat="45.7735679" lon="10.8134806"><ele>82.0</ele><time>2026-03-28T13:33:58.708Z</time></trkpt><trkpt lat="45.773464" lon="10.8134292"><ele>80.75</ele><time>2026-03-28T13:33:59.707Z</time></trkpt><trkpt lat="45.7733548" lon="10.8133762"><ele>79.5</ele><time>2026-03-28T13:34:00.708Z</time></trkpt><trkpt lat="45.773244" lon="10.8133248"><ele>78.25</ele><time>2026-03-28T13:34:01.707Z</time></trkpt><trkpt lat="45.7731313" lon="10.8132711"><ele>77.0</ele><time>2026-03-28T13:34:02.708Z</time></trkpt><trkpt lat="45.7730167" lon="10.8132183"><ele>77.0</ele><time>2026-03-28T13:34:03.707Z</time></trkpt><trkpt lat="45.7729059" lon="10.8131636"><ele>77.0</ele><time>2026-03-28T13:34:04.707Z</time></trkpt><trkpt lat="45.772789" lon="10.8131114"><ele>77.0</ele><time>2026-03-28T13:34:05.708Z</time></trkpt><trkpt lat="45.7726709" lon="10.8130492"><ele>77.0</ele><time>2026-03-28T13:34:06.707Z</time></trkpt><trkpt lat="45.7725494" lon="10.8129897"><ele>78.0</ele><time>2026-03-28T13:34:07.707Z</time></trkpt><trkpt lat="45.7724284" lon="10.8129294"><ele>79.0</ele><time>2026-03-28T13:34:08.707Z</time></trkpt><trkpt lat="45.7723121" lon="10.8128727"><ele>80.0</ele><time>2026-03-28T13:34:09.708Z</time></trkpt><trkpt lat="45.7721986" lon="10.8128183"><ele>81.0</ele><time>2026-03-28T13:34:10.707Z</time></trkpt><trkpt lat="45.772085" lon="10.8127639"><ele>81.0</ele><time>2026-03-28T13:34:11.708Z</time></trkpt><trkpt lat="45.7719717" lon="10.8127052"><ele>81.0</ele><time>2026-03-28T13:34:12.708Z</time></trkpt><trkpt lat="45.7718566" lon="10.8126488"><ele>81.0</ele><time>2026-03-28T13:34:13.708Z</time></trkpt><trkpt lat="45.7717408" lon="10.8125908"><ele>81.0</ele><time>2026-03-28T13:34:14.707Z</time></trkpt><trkpt lat="45.7716225" lon="10.8125314"><ele>80.25</ele><time>2026-03-28T13:34:15.708Z</time></trkpt><trkpt lat="45.7715056" lon="10.812475"><ele>79.5</ele><time>2026-03-28T13:34:16.707Z</time></trkpt><trkpt lat="45.771389" lon="10.8124189"><ele>78.75</ele><time>2026-03-28T13:34:17.707Z</time></trkpt><trkpt lat="45.7712751" lon="10.8123625"><ele>78.0</ele><time>2026-03-28T13:34:18.707Z</time></trkpt><trkpt lat="45.7711583" lon="10.8123077"><ele>78.0</ele><time>2026-03-28T13:34:19.708Z</time></trkpt><trkpt lat="45.7710391" lon="10.8122517"><ele>78.0</ele><time>2026-03-28T13:34:20.707Z</time></trkpt><trkpt lat="45.7709142" lon="10.8121983"><ele>78.0</ele><time>2026-03-28T13:34:21.708Z</time></trkpt><trkpt lat="45.7707873" lon="10.8121476"><ele>78.0</ele><time>2026-03-28T13:34:22.708Z</time></trkpt><trkpt lat="45.7706595" lon="10.8120961"><ele>81.0</ele><time>2026-03-28T13:34:23.708Z</time></trkpt><trkpt lat="45.7705313" lon="10.8120506"><ele>84.0</ele><time>2026-03-28T13:34:24.708Z</time></trkpt><trkpt lat="45.7704028" lon="10.8120164"><ele>87.0</ele><time>2026-03-28T13:34:25.708Z</time></trkpt><trkpt lat="45.7702723" lon="10.8119933"><ele>90.0</ele><time>2026-03-28T13:34:26.707Z</time></trkpt><trkpt lat="45.7701389" lon="10.8119882"><ele>90.0</ele><time>2026-03-28T13:34:27.707Z</time></trkpt><trkpt lat="45.7700005" lon="10.8119955"><ele>90.0</ele><time>2026-03-28T13:34:28.708Z</time></trkpt><trkpt lat="45.7698615" lon="10.8120115"><ele>90.0</ele><time>2026-03-28T13:34:29.707Z</time></trkpt><trkpt lat="45.769734" lon="10.8120321"><ele>90.0</ele><time>2026-03-28T13:34:30.708Z</time></trkpt><trkpt lat="45.7696179" lon="10.8120503"><ele>90.0</ele><time>2026-03-28T13:34:31.707Z</time></trkpt><trkpt lat="45.7695097" lon="10.8120654"><ele>90.0</ele><time>2026-03-28T13:34:32.707Z</time></trkpt><trkpt lat="45.7694115" lon="10.8120737"><ele>90.0</ele><time>2026-03-28T13:34:33.707Z</time></trkpt><trkpt lat="45.7693187" lon="10.8120785"><ele>90.0</ele><time>2026-03-28T13:34:34.707Z</time></trkpt><trkpt lat="45.7692239" lon="10.8120736"><ele>90.0</ele><time>2026-03-28T13:34:35.708Z</time></trkpt><trkpt lat="45.7691228" lon="10.8120587"><ele>89.2</ele><time>2026-03-28T13:34:36.707Z</time></trkpt><trkpt lat="45.7690194" lon="10.8120376"><ele>88.4</ele><time>2026-03-28T13:34:37.707Z</time></trkpt><trkpt lat="45.7689121" lon="10.8120084"><ele>87.6</ele><time>2026-03-28T13:34:38.707Z</time></trkpt><trkpt lat="45.768806" lon="10.8119751"><ele>86.8</ele><time>2026-03-28T13:34:39.708Z</time></trkpt><trkpt lat="45.7687005" lon="10.8119418"><ele>86.0</ele><time>2026-03-28T13:34:40.707Z</time></trkpt><trkpt lat="45.7686004" lon="10.8119076"><ele>86.6</ele><time>2026-03-28T13:34:41.707Z</time></trkpt><trkpt lat="45.7685026" lon="10.8118762"><ele>87.19999999999999</ele><time>2026-03-28T13:34:42.707Z</time></trkpt><trkpt lat="45.768407" lon="10.8118455"><ele>87.80000000000001</ele><time>2026-03-28T13:34:43.707Z</time></trkpt><trkpt lat="45.7683141" lon="10.8118149"><ele>88.4</ele><time>2026-03-28T13:34:44.708Z</time></trkpt><trkpt lat="45.7682211" lon="10.8117846"><ele>89.0</ele><time>2026-03-28T13:34:45.707Z</time></trkpt><trkpt lat="45.7681245" lon="10.8117571"><ele>87.4</ele><time>2026-03-28T13:34:46.708Z</time></trkpt><trkpt lat="45.7680263" lon="10.8117285"><ele>85.80000000000001</ele><time>2026-03-28T13:34:47.708Z</time></trkpt><trkpt lat="45.7679295" lon="10.8116953"><ele>84.19999999999999</ele><time>2026-03-28T13:34:48.707Z</time></trkpt><trkpt lat="45.7678345" lon="10.8116657"><ele>82.6</ele><time>2026-03-28T13:34:49.707Z</time></trkpt><trkpt lat="45.7677435" lon="10.8116353"><ele>81.0</ele><time>2026-03-28T13:34:50.708Z</time></trkpt><trkpt lat="45.7676547" lon="10.8116067"><ele>81.0</ele><time>2026-03-28T13:34:51.709Z</time></trkpt><trkpt lat="45.7675681" lon="10.8115803"><ele>81.0</ele><time>2026-03-28T13:34:52.707Z</time></trkpt><trkpt lat="45.7674828" lon="10.8115558"><ele>81.0</ele><time>2026-03-28T13:34:53.708Z</time></trkpt><trkpt lat="45.7674008" lon="10.8115281"><ele>81.0</ele><time>2026-03-28T13:34:54.707Z</time></trkpt><trkpt lat="45.7673216" lon="10.811502"><ele>81.0</ele><time>2026-03-28T13:34:55.707Z</time></trkpt><trkpt lat="45.7672443" lon="10.8114767"><ele>81.0</ele><time>2026-03-28T13:34:56.707Z</time></trkpt><trkpt lat="45.7671698" lon="10.8114509"><ele>81.0</ele><time>2026-03-28T13:34:57.708Z</time></trkpt><trkpt lat="45.767102" lon="10.8114272"><ele>81.0</ele><time>2026-03-28T13:34:58.708Z</time></trkpt><trkpt lat="45.7670377" lon="10.8114059"><ele>81.0</ele><time>2026-03-28T13:34:59.707Z</time></trkpt><trkpt lat="45.7669248" lon="10.8113715"><ele>81.0</ele><time>2026-03-28T13:35:01.708Z</time></trkpt><trkpt lat="45.7668448" lon="10.8113437"><ele>81.0</ele><time>2026-03-28T13:35:03.708Z</time></trkpt><trkpt lat="45.76678" lon="10.8113244"><ele>81.0</ele><time>2026-03-28T13:35:05.707Z</time></trkpt><trkpt lat="45.7666919" lon="10.8113007"><ele>81.33333333333333</ele><time>2026-03-28T13:35:08.707Z</time></trkpt><trkpt lat="45.766599" lon="10.8112743"><ele>81.66666666666667</ele><time>2026-03-28T13:35:11.708Z</time></trkpt><trkpt lat="45.7665074" lon="10.8112486"><ele>82.0</ele><time>2026-03-28T13:35:13.707Z</time></trkpt><trkpt lat="45.7664029" lon="10.811217"><ele>82.33333333333334</ele><time>2026-03-28T13:35:15.708Z</time></trkpt><trkpt lat="45.7663233" lon="10.8111878"><ele>82.66666666666667</ele><time>2026-03-28T13:35:17.707Z</time></trkpt><trkpt lat="45.7662585" lon="10.8111675"><ele>83.0</ele><time>2026-03-28T13:35:20.707Z</time></trkpt><trkpt lat="45.7661934" lon="10.8111444"><ele>83.0</ele><time>2026-03-28T13:35:23.707Z</time></trkpt><trkpt lat="45.7661058" lon="10.8111167"><ele>83.0</ele><time>2026-03-28T13:35:25.707Z</time></trkpt><trkpt lat="45.7660143" lon="10.8110872"><ele>83.0</ele><time>2026-03-28T13:35:27.707Z</time></trkpt><trkpt lat="45.765938" lon="10.8110609"><ele>83.0</ele><time>2026-03-28T13:35:29.707Z</time></trkpt><trkpt lat="45.765876" lon="10.8110374"><ele>83.0</ele><time>2026-03-28T13:35:31.707Z</time></trkpt><trkpt lat="45.7658085" lon="10.8110087"><ele>83.0</ele><time>2026-03-28T13:35:33.707Z</time></trkpt><trkpt lat="45.7657427" lon="10.8109816"><ele>83.0</ele><time>2026-03-28T13:35:35.708Z</time></trkpt><trkpt lat="45.7656566" lon="10.8109492"><ele>83.0</ele><time>2026-03-28T13:35:37.707Z</time></trkpt><trkpt lat="45.7655658" lon="10.8109108"><ele>83.0</ele><time>2026-03-28T13:35:39.708Z</time></trkpt><trkpt lat="45.7654783" lon="10.8108738"><ele>83.0</ele><time>2026-03-28T13:35:41.707Z</time></trkpt><trkpt lat="45.7653955" lon="10.8108331"><ele>83.0</ele><time>2026-03-28T13:35:43.707Z</time></trkpt><trkpt lat="45.7653098" lon="10.8107974"><ele>83.0</ele><time>2026-03-28T13:35:45.707Z</time></trkpt><trkpt lat="45.7652297" lon="10.8107541"><ele>83.0</ele><time>2026-03-28T13:35:47.707Z</time></trkpt><trkpt lat="45.7651432" lon="10.8107175"><ele>83.0</ele><time>2026-03-28T13:35:49.708Z</time></trkpt><trkpt lat="45.7650595" lon="10.8106745"><ele>83.0</ele><time>2026-03-28T13:35:51.708Z</time></trkpt><trkpt lat="45.7649768" lon="10.8106204"><ele>83.0</ele><time>2026-03-28T13:35:53.708Z</time></trkpt><trkpt lat="45.7648896" lon="10.8105603"><ele>84.0</ele><time>2026-03-28T13:35:55.708Z</time></trkpt><trkpt lat="45.764797" lon="10.8105034"><ele>85.0</ele><time>2026-03-28T13:35:57.708Z</time></trkpt><trkpt lat="45.7647034" lon="10.8104387"><ele>86.0</ele><time>2026-03-28T13:35:59.707Z</time></trkpt><trkpt lat="45.7645959" lon="10.8103616"><ele>87.0</ele><time>2026-03-28T13:36:01.707Z</time></trkpt><trkpt lat="45.7644901" lon="10.8102877"><ele>88.0</ele><time>2026-03-28T13:36:03.707Z</time></trkpt><trkpt lat="45.7644127" lon="10.8102288"><ele>87.80000000000001</ele><time>2026-03-28T13:36:05.707Z</time></trkpt><trkpt lat="45.7643533" lon="10.8101729"><ele>87.6</ele><time>2026-03-28T13:36:09.708Z</time></trkpt><trkpt lat="45.7642886" lon="10.8100925"><ele>87.4</ele><time>2026-03-28T13:36:12.707Z</time></trkpt><trkpt lat="45.7642177" lon="10.8099843"><ele>87.19999999999999</ele><time>2026-03-28T13:36:14.706Z</time></trkpt><trkpt lat="45.7641249" lon="10.8099106"><ele>87.0</ele><time>2026-03-28T13:36:16.707Z</time></trkpt><trkpt lat="45.764011" lon="10.8099205"><ele>87.0</ele><time>2026-03-28T13:36:18.708Z</time></trkpt><trkpt lat="45.7638968" lon="10.809893"><ele>87.0</ele><time>2026-03-28T13:36:20.707Z</time></trkpt><trkpt lat="45.7637848" lon="10.8098379"><ele>87.0</ele><time>2026-03-28T13:36:22.707Z</time></trkpt><trkpt lat="45.7636717" lon="10.8097676"><ele>87.0</ele><time>2026-03-28T13:36:24.708Z</time></trkpt><trkpt lat="45.7636134" lon="10.809732"><ele>87.0</ele><time>2026-03-28T13:36:25.707Z</time></trkpt><trkpt lat="45.7635005" lon="10.8096674"><ele>87.8</ele><time>2026-03-28T13:36:27.707Z</time></trkpt><trkpt lat="45.7633974" lon="10.8096074"><ele>88.6</ele><time>2026-03-28T13:36:29.707Z</time></trkpt><trkpt lat="45.7633043" lon="10.809553"><ele>89.39999999999999</ele><time>2026-03-28T13:36:31.708Z</time></trkpt><trkpt lat="45.7632038" lon="10.8094932"><ele>90.19999999999999</ele><time>2026-03-28T13:36:33.708Z</time></trkpt><trkpt lat="45.763098" lon="10.80943"><ele>91.0</ele><time>2026-03-28T13:36:35.708Z</time></trkpt><trkpt lat="45.7629839" lon="10.8093672"><ele>90.5</ele><time>2026-03-28T13:36:37.708Z</time></trkpt><trkpt lat="45.7628606" lon="10.8093107"><ele>90.0</ele><time>2026-03-28T13:36:39.707Z</time></trkpt><trkpt lat="45.7627928" lon="10.8092835"><ele>89.5</ele><time>2026-03-28T13:36:40.708Z</time></trkpt><trkpt lat="45.7627205" lon="10.8092506"><ele>89.0</ele><time>2026-03-28T13:36:41.708Z</time></trkpt><trkpt lat="45.7626433" lon="10.8092238"><ele>88.5</ele><time>2026-03-28T13:36:42.708Z</time></trkpt><trkpt lat="45.7625614" lon="10.8091972"><ele>88.0</ele><time>2026-03-28T13:36:43.708Z</time></trkpt><trkpt lat="45.7624755" lon="10.8091669"><ele>89.2</ele><time>2026-03-28T13:36:44.707Z</time></trkpt><trkpt lat="45.7623849" lon="10.8091329"><ele>90.4</ele><time>2026-03-28T13:36:45.707Z</time></trkpt><trkpt lat="45.762287" lon="10.8090969"><ele>91.60000000000001</ele><time>2026-03-28T13:36:46.708Z</time></trkpt><trkpt lat="45.7621831" lon="10.8090631"><ele>92.80000000000001</ele><time>2026-03-28T13:36:47.707Z</time></trkpt><trkpt lat="45.7620764" lon="10.8090249"><ele>94.0</ele><time>2026-03-28T13:36:48.707Z</time></trkpt><trkpt lat="45.761973" lon="10.80899"><ele>94.0</ele><time>2026-03-28T13:36:49.707Z</time></trkpt><trkpt lat="45.7618795" lon="10.8089569"><ele>94.0</ele><time>2026-03-28T13:36:50.707Z</time></trkpt><trkpt lat="45.761796" lon="10.8089281"><ele>94.0</ele><time>2026-03-28T13:36:51.707Z</time></trkpt><trkpt lat="45.7617175" lon="10.8089023"><ele>94.0</ele><time>2026-03-28T13:36:52.708Z</time></trkpt><trkpt lat="45.7616308" lon="10.8088746"><ele>94.0</ele><time>2026-03-28T13:36:53.707Z</time></trkpt><trkpt lat="45.761541" lon="10.808843"><ele>94.0</ele><time>2026-03-28T13:36:54.707Z</time></trkpt><trkpt lat="45.7614455" lon="10.8088078"><ele>94.2</ele><time>2026-03-28T13:36:55.708Z</time></trkpt><trkpt lat="45.7613451" lon="10.8087683"><ele>94.4</ele><time>2026-03-28T13:36:56.708Z</time></trkpt><trkpt lat="45.7612432" lon="10.808722"><ele>94.6</ele><time>2026-03-28T13:36:57.707Z</time></trkpt><trkpt lat="45.7611371" lon="10.8086753"><ele>94.8</ele><time>2026-03-28T13:36:58.707Z</time></trkpt><trkpt lat="45.7610269" lon="10.8086194"><ele>95.0</ele><time>2026-03-28T13:36:59.708Z</time></trkpt><trkpt lat="45.7609115" lon="10.8085623"><ele>95.75</ele><time>2026-03-28T13:37:00.708Z</time></trkpt><trkpt lat="45.7607923" lon="10.8085031"><ele>96.5</ele><time>2026-03-28T13:37:01.708Z</time></trkpt><trkpt lat="45.7606703" lon="10.8084537"><ele>97.25</ele><time>2026-03-28T13:37:02.707Z</time></trkpt><trkpt lat="45.7605458" lon="10.8084135"><ele>98.0</ele><time>2026-03-28T13:37:03.708Z</time></trkpt><trkpt lat="45.7604116" lon="10.8083779"><ele>96.0</ele><time>2026-03-28T13:37:04.707Z</time></trkpt><trkpt lat="45.7602687" lon="10.8083445"><ele>94.0</ele><time>2026-03-28T13:37:05.707Z</time></trkpt><trkpt lat="45.7601207" lon="10.8083176"><ele>92.0</ele><time>2026-03-28T13:37:06.707Z</time></trkpt><trkpt lat="45.7599772" lon="10.8082927"><ele>90.0</ele><time>2026-03-28T13:37:07.707Z</time></trkpt><trkpt lat="45.7598389" lon="10.8082729"><ele>89.25</ele><time>2026-03-28T13:37:08.708Z</time></trkpt><trkpt lat="45.7597044" lon="10.8082528"><ele>88.5</ele><time>2026-03-28T13:37:09.708Z</time></trkpt><trkpt lat="45.7595686" lon="10.8082353"><ele>87.75</ele><time>2026-03-28T13:37:10.708Z</time></trkpt><trkpt lat="45.759431" lon="10.8082165"><ele>87.0</ele><time>2026-03-28T13:37:11.707Z</time></trkpt><trkpt lat="45.7592913" lon="10.808199"><ele>87.0</ele><time>2026-03-28T13:37:12.708Z</time></trkpt><trkpt lat="45.7591482" lon="10.8081802"><ele>87.0</ele><time>2026-03-28T13:37:13.707Z</time></trkpt><trkpt lat="45.7590066" lon="10.8081605"><ele>87.0</ele><time>2026-03-28T13:37:14.707Z</time></trkpt><trkpt lat="45.7588741" lon="10.8081413"><ele>87.0</ele><time>2026-03-28T13:37:15.708Z</time></trkpt><trkpt lat="45.7587409" lon="10.8081207"><ele>87.0</ele><time>2026-03-28T13:37:16.708Z</time></trkpt><trkpt lat="45.7586097" lon="10.8080949"><ele>87.0</ele><time>2026-03-28T13:37:17.708Z</time></trkpt><trkpt lat="45.7584787" lon="10.8080628"><ele>87.0</ele><time>2026-03-28T13:37:18.708Z</time></trkpt><trkpt lat="45.7583479" lon="10.8080202"><ele>87.0</ele><time>2026-03-28T13:37:19.708Z</time></trkpt><trkpt lat="45.7582174" lon="10.8079729"><ele>87.75</ele><time>2026-03-28T13:37:20.708Z</time></trkpt><trkpt lat="45.7580861" lon="10.8079142"><ele>88.5</ele><time>2026-03-28T13:37:21.707Z</time></trkpt><trkpt lat="45.7579551" lon="10.8078415"><ele>89.25</ele><time>2026-03-28T13:37:22.707Z</time></trkpt><trkpt lat="45.7578244" lon="10.8077587"><ele>90.0</ele><time>2026-03-28T13:37:23.707Z</time></trkpt><trkpt lat="45.7576982" lon="10.8076697"><ele>87.75</ele><time>2026-03-28T13:37:24.707Z</time></trkpt><trkpt lat="45.7575779" lon="10.807574"><ele>85.5</ele><time>2026-03-28T13:37:25.707Z</time></trkpt><trkpt lat="45.757463" lon="10.8074644"><ele>83.25</ele><time>2026-03-28T13:37:26.708Z</time></trkpt><trkpt lat="45.7573536" lon="10.8073428"><ele>81.0</ele><time>2026-03-28T13:37:27.708Z</time></trkpt><trkpt lat="45.7572472" lon="10.8072106"><ele>81.0</ele><time>2026-03-28T13:37:28.707Z</time></trkpt><trkpt lat="45.757144" lon="10.8070642"><ele>81.0</ele><time>2026-03-28T13:37:29.707Z</time></trkpt><trkpt lat="45.7570414" lon="10.8069066"><ele>81.0</ele><time>2026-03-28T13:37:30.707Z</time></trkpt><trkpt lat="45.7569385" lon="10.8067431"><ele>81.0</ele><time>2026-03-28T13:37:31.708Z</time></trkpt><trkpt lat="45.7568384" lon="10.8065866"><ele>81.25</ele><time>2026-03-28T13:37:32.707Z</time></trkpt><trkpt lat="45.7567445" lon="10.806443"><ele>81.5</ele><time>2026-03-28T13:37:33.707Z</time></trkpt><trkpt lat="45.7566456" lon="10.8063062"><ele>81.75</ele><time>2026-03-28T13:37:34.707Z</time></trkpt><trkpt lat="45.7565372" lon="10.806172"><ele>82.0</ele><time>2026-03-28T13:37:35.708Z</time></trkpt><trkpt lat="45.7564216" lon="10.8060418"><ele>83.0</ele><time>2026-03-28T13:37:36.708Z</time></trkpt><trkpt lat="45.7563025" lon="10.8059143"><ele>84.0</ele><time>2026-03-28T13:37:37.708Z</time></trkpt><trkpt lat="45.7561812" lon="10.8057932"><ele>85.0</ele><time>2026-03-28T13:37:38.707Z</time></trkpt><trkpt lat="45.7560613" lon="10.8056694"><ele>86.0</ele><time>2026-03-28T13:37:39.708Z</time></trkpt><trkpt lat="45.7559451" lon="10.8055443"><ele>86.0</ele><time>2026-03-28T13:37:40.708Z</time></trkpt><trkpt lat="45.7558317" lon="10.8054231"><ele>86.0</ele><time>2026-03-28T13:37:41.707Z</time></trkpt><trkpt lat="45.7557218" lon="10.8053102"><ele>86.0</ele><time>2026-03-28T13:37:42.707Z</time></trkpt><trkpt lat="45.7556137" lon="10.8051995"><ele>86.0</ele><time>2026-03-28T13:37:43.707Z</time></trkpt><trkpt lat="45.7555031" lon="10.8050839"><ele>86.0</ele><time>2026-03-28T13:37:44.707Z</time></trkpt><trkpt lat="45.7553853" lon="10.8049667"><ele>86.0</ele><time>2026-03-28T13:37:45.707Z</time></trkpt><trkpt lat="45.755266" lon="10.8048515"><ele>86.0</ele><time>2026-03-28T13:37:46.708Z</time></trkpt><trkpt lat="45.7551519" lon="10.8047484"><ele>86.0</ele><time>2026-03-28T13:37:47.707Z</time></trkpt><trkpt lat="45.7550424" lon="10.8046546"><ele>86.0</ele><time>2026-03-28T13:37:48.707Z</time></trkpt><trkpt lat="45.7549334" lon="10.8045702"><ele>86.0</ele><time>2026-03-28T13:37:49.708Z</time></trkpt><trkpt lat="45.7548243" lon="10.8044861"><ele>86.0</ele><time>2026-03-28T13:37:50.708Z</time></trkpt><trkpt lat="45.7547167" lon="10.8044019"><ele>86.0</ele><time>2026-03-28T13:37:51.707Z</time></trkpt><trkpt lat="45.7546119" lon="10.8043068"><ele>86.0</ele><time>2026-03-28T13:37:52.708Z</time></trkpt><trkpt lat="45.754512" lon="10.8041986"><ele>86.0</ele><time>2026-03-28T13:37:53.707Z</time></trkpt><trkpt lat="45.7544188" lon="10.8040716"><ele>86.0</ele><time>2026-03-28T13:37:54.707Z</time></trkpt><trkpt lat="45.7543359" lon="10.8039236"><ele>86.0</ele><time>2026-03-28T13:37:55.707Z</time></trkpt><trkpt lat="45.7542659" lon="10.8037596"><ele>86.0</ele><time>2026-03-28T13:37:56.708Z</time></trkpt><trkpt lat="45.7542122" lon="10.8035842"><ele>86.0</ele><time>2026-03-28T13:37:57.707Z</time></trkpt><trkpt lat="45.7541789" lon="10.8033936"><ele>86.0</ele><time>2026-03-28T13:37:58.707Z</time></trkpt><trkpt lat="45.7541479" lon="10.8031977"><ele>86.0</ele><time>2026-03-28T13:37:59.707Z</time></trkpt><trkpt lat="45.7541207" lon="10.8029995"><ele>85.25</ele><time>2026-03-28T13:38:00.707Z</time></trkpt><trkpt lat="45.7540957" lon="10.8027968"><ele>84.5</ele><time>2026-03-28T13:38:01.708Z</time></trkpt><trkpt lat="45.7540712" lon="10.8025975"><ele>83.75</ele><time>2026-03-28T13:38:02.707Z</time></trkpt><trkpt lat="45.7540466" lon="10.8024124"><ele>83.0</ele><time>2026-03-28T13:38:03.708Z</time></trkpt><trkpt lat="45.7540241" lon="10.8022336"><ele>83.0</ele><time>2026-03-28T13:38:04.708Z</time></trkpt><trkpt lat="45.7540038" lon="10.8020543"><ele>83.0</ele><time>2026-03-28T13:38:05.708Z</time></trkpt><trkpt lat="45.7539915" lon="10.8018709"><ele>83.0</ele><time>2026-03-28T13:38:06.708Z</time></trkpt><trkpt lat="45.7539904" lon="10.801692"><ele>83.0</ele><time>2026-03-28T13:38:07.708Z</time></trkpt><trkpt lat="45.7539992" lon="10.8015118"><ele>83.25</ele><time>2026-03-28T13:38:08.708Z</time></trkpt><trkpt lat="45.7540215" lon="10.8013304"><ele>83.5</ele><time>2026-03-28T13:38:09.708Z</time></trkpt><trkpt lat="45.7540561" lon="10.8011557"><ele>83.75</ele><time>2026-03-28T13:38:10.708Z</time></trkpt><trkpt lat="45.754097" lon="10.8009838"><ele>84.0</ele><time>2026-03-28T13:38:11.707Z</time></trkpt><trkpt lat="45.7541327" lon="10.8008131"><ele>83.80000000000001</ele><time>2026-03-28T13:38:12.708Z</time></trkpt><trkpt lat="45.7541568" lon="10.8006548"><ele>83.60000000000001</ele><time>2026-03-28T13:38:13.708Z</time></trkpt><trkpt lat="45.754167" lon="10.8005069"><ele>83.4</ele><time>2026-03-28T13:38:14.708Z</time></trkpt><trkpt lat="45.7541667" lon="10.8003705"><ele>83.2</ele><time>2026-03-28T13:38:15.708Z</time></trkpt><trkpt lat="45.7541572" lon="10.8002509"><ele>83.0</ele><time>2026-03-28T13:38:16.707Z</time></trkpt><trkpt lat="45.7541401" lon="10.8001508"><ele>83.0</ele><time>2026-03-28T13:38:17.707Z</time></trkpt><trkpt lat="45.7541074" lon="10.8000075"><ele>83.0</ele><time>2026-03-28T13:38:19.708Z</time></trkpt><trkpt lat="45.7540696" lon="10.799895"><ele>83.0</ele><time>2026-03-28T13:38:21.707Z</time></trkpt><trkpt lat="45.7540323" lon="10.7998111"><ele>83.0</ele><time>2026-03-28T13:38:23.708Z</time></trkpt><trkpt lat="45.7539903" lon="10.799736"><ele>83.0</ele><time>2026-03-28T13:38:25.707Z</time></trkpt><trkpt lat="45.7539365" lon="10.7996299"><ele>83.0</ele><time>2026-03-28T13:38:27.708Z</time></trkpt><trkpt lat="45.7538687" lon="10.7995039"><ele>83.0</ele><time>2026-03-28T13:38:29.708Z</time></trkpt><trkpt lat="45.75383" lon="10.7994262"><ele>83.0</ele><time>2026-03-28T13:38:30.708Z</time></trkpt><trkpt lat="45.7537842" lon="10.7993452"><ele>83.0</ele><time>2026-03-28T13:38:31.708Z</time></trkpt><trkpt lat="45.7537349" lon="10.7992625"><ele>83.0</ele><time>2026-03-28T13:38:32.707Z</time></trkpt><trkpt lat="45.7536772" lon="10.7991707"><ele>83.0</ele><time>2026-03-28T13:38:33.707Z</time></trkpt><trkpt lat="45.7536127" lon="10.7990755"><ele>83.0</ele><time>2026-03-28T13:38:34.708Z</time></trkpt><trkpt lat="45.7535392" lon="10.7989829"><ele>85.33333333333334</ele><time>2026-03-28T13:38:35.707Z</time></trkpt><trkpt lat="45.753462" lon="10.7989027"><ele>87.66666666666667</ele><time>2026-03-28T13:38:36.708Z</time></trkpt><trkpt lat="45.7533864" lon="10.798841"><ele>90.0</ele><time>2026-03-28T13:38:37.707Z</time></trkpt><trkpt lat="45.7533094" lon="10.7987887"><ele>92.33333333333334</ele><time>2026-03-28T13:38:38.707Z</time></trkpt><trkpt lat="45.7532305" lon="10.798742"><ele>94.66666666666667</ele><time>2026-03-28T13:38:39.707Z</time></trkpt><trkpt lat="45.7531475" lon="10.7987064"><ele>97.0</ele><time>2026-03-28T13:38:40.707Z</time></trkpt><trkpt lat="45.753065" lon="10.7986848"><ele>97.0</ele><time>2026-03-28T13:38:41.707Z</time></trkpt><trkpt lat="45.7529842" lon="10.7986734"><ele>97.0</ele><time>2026-03-28T13:38:42.707Z</time></trkpt><trkpt lat="45.7529073" lon="10.7986655"><ele>97.0</ele><time>2026-03-28T13:38:43.707Z</time></trkpt><trkpt lat="45.752835" lon="10.7986601"><ele>97.0</ele><time>2026-03-28T13:38:44.708Z</time></trkpt><trkpt lat="45.7527645" lon="10.7986573"><ele>97.0</ele><time>2026-03-28T13:38:45.707Z</time></trkpt><trkpt lat="45.7526974" lon="10.7986564"><ele>97.0</ele><time>2026-03-28T13:38:46.707Z</time></trkpt><trkpt lat="45.7526294" lon="10.7986546"><ele>97.0</ele><time>2026-03-28T13:38:47.707Z</time></trkpt><trkpt lat="45.7525621" lon="10.7986511"><ele>97.00000000000001</ele><time>2026-03-28T13:38:48.708Z</time></trkpt><trkpt lat="45.7524943" lon="10.7986471"><ele>97.0</ele><time>2026-03-28T13:38:49.707Z</time></trkpt><trkpt lat="45.7524252" lon="10.7986453"><ele>97.0</ele><time>2026-03-28T13:38:50.708Z</time></trkpt><trkpt lat="45.7523599" lon="10.7986422"><ele>97.0</ele><time>2026-03-28T13:38:51.707Z</time></trkpt><trkpt lat="45.7522376" lon="10.798638"><ele>97.00000000000001</ele><time>2026-03-28T13:38:53.707Z</time></trkpt><trkpt lat="45.752115" lon="10.7986345"><ele>97.0</ele><time>2026-03-28T13:38:55.707Z</time></trkpt><trkpt lat="45.7520503" lon="10.7986297"><ele>97.0</ele><time>2026-03-28T13:38:56.708Z</time></trkpt><trkpt lat="45.751985" lon="10.7986291"><ele>97.0</ele><time>2026-03-28T13:38:57.707Z</time></trkpt><trkpt lat="45.7518654" lon="10.7986193"><ele>97.0</ele><time>2026-03-28T13:38:59.708Z</time></trkpt><trkpt lat="45.7517518" lon="10.7986103"><ele>97.0</ele><time>2026-03-28T13:39:01.707Z</time></trkpt><trkpt lat="45.7516466" lon="10.7985981"><ele>97.0</ele><time>2026-03-28T13:39:03.708Z</time></trkpt><trkpt lat="45.7515378" lon="10.798592"><ele>95.8</ele><time>2026-03-28T13:39:05.707Z</time></trkpt><trkpt lat="45.7514279" lon="10.7985833"><ele>94.6</ele><time>2026-03-28T13:39:07.707Z</time></trkpt><trkpt lat="45.7513218" lon="10.7985675"><ele>93.39999999999999</ele><time>2026-03-28T13:39:09.708Z</time></trkpt><trkpt lat="45.751218" lon="10.7985518"><ele>92.19999999999999</ele><time>2026-03-28T13:39:11.707Z</time></trkpt><trkpt lat="45.7511238" lon="10.7985401"><ele>91.0</ele><time>2026-03-28T13:39:13.707Z</time></trkpt><trkpt lat="45.7510345" lon="10.7985229"><ele>90.19999999999999</ele><time>2026-03-28T13:39:15.707Z</time></trkpt><trkpt lat="45.7509488" lon="10.7984897"><ele>89.39999999999999</ele><time>2026-03-28T13:39:17.707Z</time></trkpt><trkpt lat="45.7508605" lon="10.7984258"><ele>88.6</ele><time>2026-03-28T13:39:19.707Z</time></trkpt><trkpt lat="45.7507366" lon="10.7983833"><ele>87.8</ele><time>2026-03-28T13:39:21.708Z</time></trkpt><trkpt lat="45.7506609" lon="10.7983745"><ele>87.0</ele><time>2026-03-28T13:39:22.707Z</time></trkpt><trkpt lat="45.7505776" lon="10.7983824"><ele>87.0</ele><time>2026-03-28T13:39:23.708Z</time></trkpt><trkpt lat="45.7504917" lon="10.7984074"><ele>87.0</ele><time>2026-03-28T13:39:24.707Z</time></trkpt><trkpt lat="45.7504054" lon="10.7984375"><ele>87.0</ele><time>2026-03-28T13:39:25.707Z</time></trkpt><trkpt lat="45.75032" lon="10.7984611"><ele>87.0</ele><time>2026-03-28T13:39:26.708Z</time></trkpt><trkpt lat="45.7502316" lon="10.7984807"><ele>87.0</ele><time>2026-03-28T13:39:27.708Z</time></trkpt><trkpt lat="45.7501405" lon="10.7985026"><ele>87.0</ele><time>2026-03-28T13:39:28.708Z</time></trkpt><trkpt lat="45.7500455" lon="10.7985284"><ele>86.6</ele><time>2026-03-28T13:39:29.707Z</time></trkpt><trkpt lat="45.7499481" lon="10.7985658"><ele>86.19999999999999</ele><time>2026-03-28T13:39:30.707Z</time></trkpt><trkpt lat="45.7498528" lon="10.7986098"><ele>85.8</ele><time>2026-03-28T13:39:31.708Z</time></trkpt><trkpt lat="45.7497573" lon="10.7986597"><ele>85.4</ele><time>2026-03-28T13:39:32.708Z</time></trkpt><trkpt lat="45.749662" lon="10.7987146"><ele>85.0</ele><time>2026-03-28T13:39:33.708Z</time></trkpt><trkpt lat="45.7495664" lon="10.7987751"><ele>85.0</ele><time>2026-03-28T13:39:34.707Z</time></trkpt><trkpt lat="45.7494755" lon="10.7988346"><ele>85.0</ele><time>2026-03-28T13:39:35.708Z</time></trkpt><trkpt lat="45.7493845" lon="10.7988927"><ele>85.0</ele><time>2026-03-28T13:39:36.707Z</time></trkpt><trkpt lat="45.7492944" lon="10.7989518"><ele>85.0</ele><time>2026-03-28T13:39:37.706Z</time></trkpt><trkpt lat="45.7492048" lon="10.7990163"><ele>85.0</ele><time>2026-03-28T13:39:38.707Z</time></trkpt><trkpt lat="45.7491073" lon="10.7990905"><ele>84.75</ele><time>2026-03-28T13:39:39.707Z</time></trkpt><trkpt lat="45.7489964" lon="10.7991697"><ele>84.5</ele><time>2026-03-28T13:39:40.708Z</time></trkpt><trkpt lat="45.7488718" lon="10.7992508"><ele>84.25</ele><time>2026-03-28T13:39:41.708Z</time></trkpt><trkpt lat="45.748738" lon="10.7993317"><ele>84.0</ele><time>2026-03-28T13:39:42.707Z</time></trkpt><trkpt lat="45.7486054" lon="10.7994145"><ele>83.5</ele><time>2026-03-28T13:39:43.707Z</time></trkpt><trkpt lat="45.7484835" lon="10.7994893"><ele>83.0</ele><time>2026-03-28T13:39:44.708Z</time></trkpt><trkpt lat="45.7483709" lon="10.7995609"><ele>82.5</ele><time>2026-03-28T13:39:45.707Z</time></trkpt><trkpt lat="45.74826" lon="10.7996355"><ele>82.0</ele><time>2026-03-28T13:39:46.707Z</time></trkpt><trkpt lat="45.7481473" lon="10.7997065"><ele>82.0</ele><time>2026-03-28T13:39:47.707Z</time></trkpt><trkpt lat="45.7480299" lon="10.7997829"><ele>82.0</ele><time>2026-03-28T13:39:48.708Z</time></trkpt><trkpt lat="45.7479101" lon="10.7998565"><ele>82.0</ele><time>2026-03-28T13:39:49.707Z</time></trkpt><trkpt lat="45.7477908" lon="10.7999237"><ele>82.0</ele><time>2026-03-28T13:39:50.707Z</time></trkpt><trkpt lat="45.7476796" lon="10.7999848"><ele>83.25</ele><time>2026-03-28T13:39:51.708Z</time></trkpt><trkpt lat="45.74756" lon="10.8000417"><ele>84.5</ele><time>2026-03-28T13:39:52.708Z</time></trkpt><trkpt lat="45.7474276" lon="10.8001044"><ele>85.75</ele><time>2026-03-28T13:39:53.707Z</time></trkpt><trkpt lat="45.747283" lon="10.8001674"><ele>87.0</ele><time>2026-03-28T13:39:54.707Z</time></trkpt><trkpt lat="45.7471353" lon="10.8002258"><ele>87.0</ele><time>2026-03-28T13:39:55.708Z</time></trkpt><trkpt lat="45.746993" lon="10.8002761"><ele>87.0</ele><time>2026-03-28T13:39:56.707Z</time></trkpt><trkpt lat="45.746856" lon="10.8003212"><ele>87.0</ele><time>2026-03-28T13:39:57.708Z</time></trkpt><trkpt lat="45.7467279" lon="10.800352"><ele>87.0</ele><time>2026-03-28T13:39:58.708Z</time></trkpt><trkpt lat="45.7466072" lon="10.8003682"><ele>87.0</ele><time>2026-03-28T13:39:59.708Z</time></trkpt><trkpt lat="45.7464879" lon="10.8003675"><ele>87.0</ele><time>2026-03-28T13:40:00.708Z</time></trkpt><trkpt lat="45.7463614" lon="10.8003529"><ele>87.0</ele><time>2026-03-28T13:40:01.707Z</time></trkpt><trkpt lat="45.7462357" lon="10.8003229"><ele>87.0</ele><time>2026-03-28T13:40:02.707Z</time></trkpt><trkpt lat="45.7461131" lon="10.8002768"><ele>89.5</ele><time>2026-03-28T13:40:03.708Z</time></trkpt><trkpt lat="45.7459963" lon="10.8002147"><ele>92.0</ele><time>2026-03-28T13:40:04.708Z</time></trkpt><trkpt lat="45.7458867" lon="10.8001433"><ele>94.5</ele><time>2026-03-28T13:40:05.708Z</time></trkpt><trkpt lat="45.7457837" lon="10.8000542"><ele>97.0</ele><time>2026-03-28T13:40:06.707Z</time></trkpt><trkpt lat="45.7456818" lon="10.7999538"><ele>95.75</ele><time>2026-03-28T13:40:07.707Z</time></trkpt><trkpt lat="45.7455729" lon="10.7998389"><ele>94.5</ele><time>2026-03-28T13:40:08.708Z</time></trkpt><trkpt lat="45.7454578" lon="10.799716"><ele>93.25</ele><time>2026-03-28T13:40:09.708Z</time></trkpt><trkpt lat="45.7453366" lon="10.7995871"><ele>92.0</ele><time>2026-03-28T13:40:10.707Z</time></trkpt><trkpt lat="45.7452094" lon="10.7994439"><ele>86.66666666666667</ele><time>2026-03-28T13:40:11.708Z</time></trkpt><trkpt lat="45.7450722" lon="10.7992898"><ele>81.33333333333333</ele><time>2026-03-28T13:40:12.708Z</time></trkpt><trkpt lat="45.7449378" lon="10.7991371"><ele>76.0</ele><time>2026-03-28T13:40:13.707Z</time></trkpt><trkpt lat="45.7448168" lon="10.799"><ele>76.0</ele><time>2026-03-28T13:40:14.707Z</time></trkpt><trkpt lat="45.7447064" lon="10.7988733"><ele>76.0</ele><time>2026-03-28T13:40:15.708Z</time></trkpt><trkpt lat="45.7446023" lon="10.7987576"><ele>76.0</ele><time>2026-03-28T13:40:16.708Z</time></trkpt><trkpt lat="45.7445042" lon="10.7986478"><ele>76.0</ele><time>2026-03-28T13:40:17.708Z</time></trkpt><trkpt lat="45.7444113" lon="10.7985463"><ele>75.25</ele><time>2026-03-28T13:40:18.707Z</time></trkpt><trkpt lat="45.7443187" lon="10.7984544"><ele>74.5</ele><time>2026-03-28T13:40:19.708Z</time></trkpt><trkpt lat="45.7442245" lon="10.7983715"><ele>73.75</ele><time>2026-03-28T13:40:20.708Z</time></trkpt><trkpt lat="45.7441233" lon="10.7982993"><ele>73.0</ele><time>2026-03-28T13:40:21.707Z</time></trkpt><trkpt lat="45.7440129" lon="10.7982348"><ele>73.0</ele><time>2026-03-28T13:40:22.707Z</time></trkpt><trkpt lat="45.7438918" lon="10.798176"><ele>73.0</ele><time>2026-03-28T13:40:23.707Z</time></trkpt><trkpt lat="45.74376" lon="10.7981241"><ele>73.0</ele><time>2026-03-28T13:40:24.708Z</time></trkpt><trkpt lat="45.7436148" lon="10.7980627"><ele>73.0</ele><time>2026-03-28T13:40:25.707Z</time></trkpt><trkpt lat="45.7434589" lon="10.7979839"><ele>75.33333333333333</ele><time>2026-03-28T13:40:26.707Z</time></trkpt><trkpt lat="45.743302" lon="10.7978902"><ele>77.66666666666667</ele><time>2026-03-28T13:40:27.707Z</time></trkpt><trkpt lat="45.7431506" lon="10.7977831"><ele>80.0</ele><time>2026-03-28T13:40:28.708Z</time></trkpt><trkpt lat="45.7430105" lon="10.7976792"><ele>79.5</ele><time>2026-03-28T13:40:29.708Z</time></trkpt><trkpt lat="45.7428796" lon="10.7975819"><ele>79.0</ele><time>2026-03-28T13:40:30.707Z</time></trkpt><trkpt lat="45.7427562" lon="10.7974904"><ele>78.5</ele><time>2026-03-28T13:40:31.707Z</time></trkpt><trkpt lat="45.7426323" lon="10.7973976"><ele>78.0</ele><time>2026-03-28T13:40:32.708Z</time></trkpt><trkpt lat="45.7425061" lon="10.7973061"><ele>78.0</ele><time>2026-03-28T13:40:33.707Z</time></trkpt><trkpt lat="45.7423776" lon="10.7972118"><ele>78.0</ele><time>2026-03-28T13:40:34.707Z</time></trkpt><trkpt lat="45.7422496" lon="10.79712"><ele>78.0</ele><time>2026-03-28T13:40:35.707Z</time></trkpt><trkpt lat="45.7421261" lon="10.7970321"><ele>78.0</ele><time>2026-03-28T13:40:36.707Z</time></trkpt><trkpt lat="45.7420056" lon="10.7969469"><ele>78.0</ele><time>2026-03-28T13:40:37.706Z</time></trkpt><trkpt lat="45.7418827" lon="10.796859"><ele>78.0</ele><time>2026-03-28T13:40:38.707Z</time></trkpt><trkpt lat="45.7417654" lon="10.7967734"><ele>78.0</ele><time>2026-03-28T13:40:39.707Z</time></trkpt><trkpt lat="45.7416491" lon="10.7966841"><ele>78.0</ele><time>2026-03-28T13:40:40.708Z</time></trkpt><trkpt lat="45.7415306" lon="10.796596"><ele>76.25</ele><time>2026-03-28T13:40:41.708Z</time></trkpt><trkpt lat="45.7414129" lon="10.7965088"><ele>74.5</ele><time>2026-03-28T13:40:42.707Z</time></trkpt><trkpt lat="45.7413004" lon="10.7964202"><ele>72.75</ele><time>2026-03-28T13:40:43.707Z</time></trkpt><trkpt lat="45.7411927" lon="10.7963347"><ele>71.0</ele><time>2026-03-28T13:40:44.707Z</time></trkpt><trkpt lat="45.7410873" lon="10.7962513"><ele>70.5</ele><time>2026-03-28T13:40:45.708Z</time></trkpt><trkpt lat="45.7409806" lon="10.7961664"><ele>70.0</ele><time>2026-03-28T13:40:46.708Z</time></trkpt><trkpt lat="45.7408706" lon="10.7960769"><ele>69.5</ele><time>2026-03-28T13:40:47.708Z</time></trkpt><trkpt lat="45.7407538" lon="10.7959895"><ele>69.0</ele><time>2026-03-28T13:40:48.707Z</time></trkpt><trkpt lat="45.7406338" lon="10.7959055"><ele>69.0</ele><time>2026-03-28T13:40:49.708Z</time></trkpt><trkpt lat="45.7405076" lon="10.7958312"><ele>69.0</ele><time>2026-03-28T13:40:50.707Z</time></trkpt><trkpt lat="45.7403839" lon="10.7957794"><ele>69.0</ele><time>2026-03-28T13:40:51.708Z</time></trkpt><trkpt lat="45.7402648" lon="10.795743"><ele>69.0</ele><time>2026-03-28T13:40:52.707Z</time></trkpt><trkpt lat="45.7401462" lon="10.7957161"><ele>71.5</ele><time>2026-03-28T13:40:53.707Z</time></trkpt><trkpt lat="45.7400235" lon="10.7956939"><ele>74.0</ele><time>2026-03-28T13:40:54.708Z</time></trkpt><trkpt lat="45.7399031" lon="10.7956667"><ele>76.5</ele><time>2026-03-28T13:40:55.707Z</time></trkpt><trkpt lat="45.7397838" lon="10.7956285"><ele>79.0</ele><time>2026-03-28T13:40:56.707Z</time></trkpt><trkpt lat="45.7396684" lon="10.7955812"><ele>79.0</ele><time>2026-03-28T13:40:57.708Z</time></trkpt><trkpt lat="45.7394443" lon="10.7954458"><ele>79.0</ele><time>2026-03-28T13:40:59.707Z</time></trkpt><trkpt lat="45.7393359" lon="10.7953542"><ele>79.0</ele><time>2026-03-28T13:41:00.708Z</time></trkpt><trkpt lat="45.7392323" lon="10.7952429"><ele>77.75</ele><time>2026-03-28T13:41:01.708Z</time></trkpt><trkpt lat="45.7391334" lon="10.7951152"><ele>76.5</ele><time>2026-03-28T13:41:02.708Z</time></trkpt><trkpt lat="45.7390409" lon="10.7949681"><ele>75.25</ele><time>2026-03-28T13:41:03.707Z</time></trkpt><trkpt lat="45.7389538" lon="10.7948015"><ele>74.0</ele><time>2026-03-28T13:41:04.708Z</time></trkpt><trkpt lat="45.7388672" lon="10.7946233"><ele>74.0</ele><time>2026-03-28T13:41:05.708Z</time></trkpt><trkpt lat="45.7387818" lon="10.7944405"><ele>74.0</ele><time>2026-03-28T13:41:06.707Z</time></trkpt><trkpt lat="45.7386949" lon="10.7942491"><ele>74.0</ele><time>2026-03-28T13:41:07.707Z</time></trkpt><trkpt lat="45.7386088" lon="10.7940635"><ele>73.0</ele><time>2026-03-28T13:41:08.707Z</time></trkpt><trkpt lat="45.7385254" lon="10.7938912"><ele>72.0</ele><time>2026-03-28T13:41:09.707Z</time></trkpt><trkpt lat="45.7384311" lon="10.7937352"><ele>71.0</ele><time>2026-03-28T13:41:10.707Z</time></trkpt><trkpt lat="45.7383278" lon="10.7935877"><ele>70.0</ele><time>2026-03-28T13:41:11.707Z</time></trkpt><trkpt lat="45.7382135" lon="10.7934552"><ele>70.0</ele><time>2026-03-28T13:41:12.708Z</time></trkpt><trkpt lat="45.7380907" lon="10.7933405"><ele>70.0</ele><time>2026-03-28T13:41:13.707Z</time></trkpt><trkpt lat="45.7379629" lon="10.7932419"><ele>70.0</ele><time>2026-03-28T13:41:14.708Z</time></trkpt><trkpt lat="45.7378352" lon="10.7931603"><ele>70.0</ele><time>2026-03-28T13:41:15.709Z</time></trkpt><trkpt lat="45.7377097" lon="10.7930919"><ele>73.25</ele><time>2026-03-28T13:41:16.709Z</time></trkpt><trkpt lat="45.7375845" lon="10.7930372"><ele>76.5</ele><time>2026-03-28T13:41:17.708Z</time></trkpt><trkpt lat="45.7374646" lon="10.7929918"><ele>79.75</ele><time>2026-03-28T13:41:18.709Z</time></trkpt><trkpt lat="45.7373471" lon="10.7929487"><ele>83.0</ele><time>2026-03-28T13:41:19.708Z</time></trkpt><trkpt lat="45.7372311" lon="10.7928962"><ele>83.0</ele><time>2026-03-28T13:41:20.708Z</time></trkpt><trkpt lat="45.7371154" lon="10.7928276"><ele>83.0</ele><time>2026-03-28T13:41:21.708Z</time></trkpt><trkpt lat="45.7370037" lon="10.7927406"><ele>83.0</ele><time>2026-03-28T13:41:22.708Z</time></trkpt><trkpt lat="45.7368956" lon="10.7926405"><ele>83.0</ele><time>2026-03-28T13:41:23.709Z</time></trkpt><trkpt lat="45.73679" lon="10.792537"><ele>80.5</ele><time>2026-03-28T13:41:24.708Z</time></trkpt><trkpt lat="45.7366851" lon="10.7924275"><ele>78.0</ele><time>2026-03-28T13:41:25.708Z</time></trkpt><trkpt lat="45.7365797" lon="10.7923223"><ele>75.5</ele><time>2026-03-28T13:41:26.708Z</time></trkpt><trkpt lat="45.7364783" lon="10.7922132"><ele>73.0</ele><time>2026-03-28T13:41:27.709Z</time></trkpt><trkpt lat="45.7363756" lon="10.7921044"><ele>73.0</ele><time>2026-03-28T13:41:28.708Z</time></trkpt><trkpt lat="45.7362713" lon="10.7919941"><ele>73.0</ele><time>2026-03-28T13:41:29.708Z</time></trkpt><trkpt lat="45.7361671" lon="10.7918862"><ele>73.0</ele><time>2026-03-28T13:41:30.708Z</time></trkpt><trkpt lat="45.7360606" lon="10.7917811"><ele>73.0</ele><time>2026-03-28T13:41:31.709Z</time></trkpt><trkpt lat="45.7359584" lon="10.7916871"><ele>73.2</ele><time>2026-03-28T13:41:32.708Z</time></trkpt><trkpt lat="45.7358579" lon="10.7916"><ele>73.4</ele><time>2026-03-28T13:41:33.709Z</time></trkpt><trkpt lat="45.7357635" lon="10.791517"><ele>73.60000000000001</ele><time>2026-03-28T13:41:34.708Z</time></trkpt><trkpt lat="45.7356712" lon="10.7914396"><ele>73.8</ele><time>2026-03-28T13:41:35.709Z</time></trkpt><trkpt lat="45.7355798" lon="10.7913609"><ele>74.0</ele><time>2026-03-28T13:41:36.708Z</time></trkpt><trkpt lat="45.735492" lon="10.7912847"><ele>74.0</ele><time>2026-03-28T13:41:37.708Z</time></trkpt><trkpt lat="45.7354015" lon="10.7912119"><ele>74.0</ele><time>2026-03-28T13:41:38.708Z</time></trkpt><trkpt lat="45.7353189" lon="10.7911375"><ele>74.0</ele><time>2026-03-28T13:41:39.709Z</time></trkpt><trkpt lat="45.7352433" lon="10.7910658"><ele>74.0</ele><time>2026-03-28T13:41:40.708Z</time></trkpt><trkpt lat="45.7351753" lon="10.7909927"><ele>74.0</ele><time>2026-03-28T13:41:41.708Z</time></trkpt><trkpt lat="45.7351086" lon="10.7909212"><ele>74.0</ele><time>2026-03-28T13:41:42.708Z</time></trkpt><trkpt lat="45.735041" lon="10.7908474"><ele>74.0</ele><time>2026-03-28T13:41:43.709Z</time></trkpt><trkpt lat="45.7349721" lon="10.7907671"><ele>74.0</ele><time>2026-03-28T13:41:44.708Z</time></trkpt><trkpt lat="45.7349036" lon="10.7906813"><ele>74.0</ele><time>2026-03-28T13:41:45.708Z</time></trkpt><trkpt lat="45.7348338" lon="10.7905917"><ele>74.0</ele><time>2026-03-28T13:41:46.709Z</time></trkpt><trkpt lat="45.7347677" lon="10.790505"><ele>74.0</ele><time>2026-03-28T13:41:47.709Z</time></trkpt><trkpt lat="45.7347077" lon="10.790415"><ele>74.0</ele><time>2026-03-28T13:41:48.709Z</time></trkpt><trkpt lat="45.734653" lon="10.7903295"><ele>74.0</ele><time>2026-03-28T13:41:49.709Z</time></trkpt><trkpt lat="45.7346022" lon="10.7902496"><ele>74.0</ele><time>2026-03-28T13:41:50.708Z</time></trkpt><trkpt lat="45.7345514" lon="10.7901686"><ele>74.0</ele><time>2026-03-28T13:41:51.707Z</time></trkpt><trkpt lat="45.7345034" lon="10.790086"><ele>74.0</ele><time>2026-03-28T13:41:52.709Z</time></trkpt><trkpt lat="45.7344542" lon="10.7900053"><ele>74.0</ele><time>2026-03-28T13:41:53.708Z</time></trkpt><trkpt lat="45.7344057" lon="10.7899304"><ele>74.16666666666667</ele><time>2026-03-28T13:41:54.709Z</time></trkpt><trkpt lat="45.7343592" lon="10.7898521"><ele>74.33333333333334</ele><time>2026-03-28T13:41:55.709Z</time></trkpt><trkpt lat="45.7343133" lon="10.7897751"><ele>74.5</ele><time>2026-03-28T13:41:56.709Z</time></trkpt><trkpt lat="45.7342667" lon="10.7896921"><ele>74.66666666666667</ele><time>2026-03-28T13:41:57.708Z</time></trkpt><trkpt lat="45.734212" lon="10.7896084"><ele>74.83333333333333</ele><time>2026-03-28T13:41:58.709Z</time></trkpt><trkpt lat="45.7341563" lon="10.7895263"><ele>75.0</ele><time>2026-03-28T13:41:59.708Z</time></trkpt><trkpt lat="45.7340964" lon="10.7894402"><ele>75.0</ele><time>2026-03-28T13:42:00.708Z</time></trkpt><trkpt lat="45.7340437" lon="10.7893437"><ele>75.0</ele><time>2026-03-28T13:42:01.709Z</time></trkpt><trkpt lat="45.7339898" lon="10.7892426"><ele>75.0</ele><time>2026-03-28T13:42:02.709Z</time></trkpt><trkpt lat="45.733942" lon="10.7891328"><ele>75.0</ele><time>2026-03-28T13:42:03.708Z</time></trkpt><trkpt lat="45.7338908" lon="10.7890264"><ele>75.0</ele><time>2026-03-28T13:42:04.708Z</time></trkpt><trkpt lat="45.7338363" lon="10.7889229"><ele>75.0</ele><time>2026-03-28T13:42:05.708Z</time></trkpt><trkpt lat="45.733778" lon="10.7888126"><ele>74.6</ele><time>2026-03-28T13:42:06.708Z</time></trkpt><trkpt lat="45.7337168" lon="10.7886964"><ele>74.2</ele><time>2026-03-28T13:42:07.708Z</time></trkpt><trkpt lat="45.7336534" lon="10.7885808"><ele>73.8</ele><time>2026-03-28T13:42:08.708Z</time></trkpt><trkpt lat="45.7335838" lon="10.7884646"><ele>73.4</ele><time>2026-03-28T13:42:09.709Z</time></trkpt><trkpt lat="45.7335089" lon="10.7883501"><ele>73.0</ele><time>2026-03-28T13:42:10.708Z</time></trkpt><trkpt lat="45.7334297" lon="10.7882386"><ele>73.0</ele><time>2026-03-28T13:42:11.709Z</time></trkpt><trkpt lat="45.7333465" lon="10.7881341"><ele>73.0</ele><time>2026-03-28T13:42:12.709Z</time></trkpt><trkpt lat="45.7332641" lon="10.7880417"><ele>73.0</ele><time>2026-03-28T13:42:13.709Z</time></trkpt><trkpt lat="45.7331831" lon="10.7879585"><ele>73.0</ele><time>2026-03-28T13:42:14.708Z</time></trkpt><trkpt lat="45.7330989" lon="10.7878812"><ele>73.0</ele><time>2026-03-28T13:42:15.709Z</time></trkpt><trkpt lat="45.7330173" lon="10.7878141"><ele>73.0</ele><time>2026-03-28T13:42:16.709Z</time></trkpt><trkpt lat="45.7329393" lon="10.7877517"><ele>73.0</ele><time>2026-03-28T13:42:17.708Z</time></trkpt><trkpt lat="45.7328591" lon="10.7876955"><ele>73.0</ele><time>2026-03-28T13:42:18.708Z</time></trkpt><trkpt lat="45.7327777" lon="10.7876438"><ele>73.0</ele><time>2026-03-28T13:42:19.709Z</time></trkpt><trkpt lat="45.7326945" lon="10.7875907"><ele>73.0</ele><time>2026-03-28T13:42:20.709Z</time></trkpt><trkpt lat="45.7326085" lon="10.7875383"><ele>73.0</ele><time>2026-03-28T13:42:21.708Z</time></trkpt><trkpt lat="45.7325173" lon="10.7874838"><ele>73.0</ele><time>2026-03-28T13:42:22.709Z</time></trkpt><trkpt lat="45.7324212" lon="10.7874249"><ele>73.0</ele><time>2026-03-28T13:42:23.708Z</time></trkpt><trkpt lat="45.7323211" lon="10.7873627"><ele>73.0</ele><time>2026-03-28T13:42:24.708Z</time></trkpt><trkpt lat="45.7322185" lon="10.7872973"><ele>73.0</ele><time>2026-03-28T13:42:25.709Z</time></trkpt><trkpt lat="45.7321146" lon="10.7872336"><ele>73.0</ele><time>2026-03-28T13:42:26.709Z</time></trkpt><trkpt lat="45.7320121" lon="10.787163"><ele>73.0</ele><time>2026-03-28T13:42:27.709Z</time></trkpt><trkpt lat="45.7319094" lon="10.7870844"><ele>73.0</ele><time>2026-03-28T13:42:28.708Z</time></trkpt><trkpt lat="45.7318105" lon="10.7869924"><ele>73.0</ele><time>2026-03-28T13:42:29.708Z</time></trkpt><trkpt lat="45.7317159" lon="10.7868899"><ele>72.5</ele><time>2026-03-28T13:42:30.708Z</time></trkpt><trkpt lat="45.7316261" lon="10.7867709"><ele>72.0</ele><time>2026-03-28T13:42:31.708Z</time></trkpt><trkpt lat="45.7315467" lon="10.7866363"><ele>71.5</ele><time>2026-03-28T13:42:32.708Z</time></trkpt><trkpt lat="45.7314757" lon="10.7864894"><ele>71.0</ele><time>2026-03-28T13:42:33.708Z</time></trkpt><trkpt lat="45.7314157" lon="10.7863287"><ele>71.0</ele><time>2026-03-28T13:42:34.709Z</time></trkpt><trkpt lat="45.7313609" lon="10.7861582"><ele>71.0</ele><time>2026-03-28T13:42:35.709Z</time></trkpt><trkpt lat="45.7313151" lon="10.7859774"><ele>71.0</ele><time>2026-03-28T13:42:36.708Z</time></trkpt><trkpt lat="45.731276" lon="10.7857905"><ele>71.0</ele><time>2026-03-28T13:42:37.708Z</time></trkpt><trkpt lat="45.7312402" lon="10.7855978"><ele>69.0</ele><time>2026-03-28T13:42:38.708Z</time></trkpt><trkpt lat="45.7312022" lon="10.7854096"><ele>67.0</ele><time>2026-03-28T13:42:39.709Z</time></trkpt><trkpt lat="45.7311681" lon="10.7852271"><ele>65.0</ele><time>2026-03-28T13:42:40.708Z</time></trkpt><trkpt lat="45.7311358" lon="10.7850455"><ele>63.0</ele><time>2026-03-28T13:42:41.709Z</time></trkpt><trkpt lat="45.7310967" lon="10.7848768"><ele>65.25</ele><time>2026-03-28T13:42:42.708Z</time></trkpt><trkpt lat="45.7310557" lon="10.7847237"><ele>67.5</ele><time>2026-03-28T13:42:43.708Z</time></trkpt><trkpt lat="45.7310056" lon="10.7845698"><ele>69.75</ele><time>2026-03-28T13:42:44.709Z</time></trkpt><trkpt lat="45.7309469" lon="10.7844143"><ele>72.0</ele><time>2026-03-28T13:42:45.709Z</time></trkpt><trkpt lat="45.730887" lon="10.7842713"><ele>72.0</ele><time>2026-03-28T13:42:46.708Z</time></trkpt><trkpt lat="45.7308262" lon="10.7841315"><ele>72.0</ele><time>2026-03-28T13:42:47.708Z</time></trkpt><trkpt lat="45.7307646" lon="10.7839919"><ele>72.0</ele><time>2026-03-28T13:42:48.709Z</time></trkpt><trkpt lat="45.7306981" lon="10.7838492"><ele>72.0</ele><time>2026-03-28T13:42:49.709Z</time></trkpt><trkpt lat="45.7306333" lon="10.7837045"><ele>72.0</ele><time>2026-03-28T13:42:50.709Z</time></trkpt><trkpt lat="45.7305705" lon="10.7835604"><ele>72.0</ele><time>2026-03-28T13:42:51.709Z</time></trkpt><trkpt lat="45.7305087" lon="10.7834184"><ele>72.0</ele><time>2026-03-28T13:42:52.708Z</time></trkpt><trkpt lat="45.7304476" lon="10.7832761"><ele>72.0</ele><time>2026-03-28T13:42:53.708Z</time></trkpt><trkpt lat="45.7303886" lon="10.7831421"><ele>71.8</ele><time>2026-03-28T13:42:54.709Z</time></trkpt><trkpt lat="45.7303317" lon="10.783011"><ele>71.6</ele><time>2026-03-28T13:42:55.709Z</time></trkpt><trkpt lat="45.7302733" lon="10.7828775"><ele>71.39999999999999</ele><time>2026-03-28T13:42:56.709Z</time></trkpt><trkpt lat="45.7302162" lon="10.7827487"><ele>71.2</ele><time>2026-03-28T13:42:57.708Z</time></trkpt><trkpt lat="45.7301612" lon="10.7826237"><ele>71.0</ele><time>2026-03-28T13:42:58.708Z</time></trkpt><trkpt lat="45.7301082" lon="10.7825035"><ele>71.0</ele><time>2026-03-28T13:42:59.709Z</time></trkpt><trkpt lat="45.7300549" lon="10.782382"><ele>71.0</ele><time>2026-03-28T13:43:00.708Z</time></trkpt><trkpt lat="45.7300025" lon="10.782263"><ele>71.0</ele><time>2026-03-28T13:43:01.708Z</time></trkpt><trkpt lat="45.7299497" lon="10.7821452"><ele>71.0</ele><time>2026-03-28T13:43:02.708Z</time></trkpt><trkpt lat="45.7298916" lon="10.7820264"><ele>71.0</ele><time>2026-03-28T13:43:03.709Z</time></trkpt><trkpt lat="45.7298271" lon="10.7819118"><ele>69.8</ele><time>2026-03-28T13:43:04.709Z</time></trkpt><trkpt lat="45.7297546" lon="10.7818026"><ele>68.6</ele><time>2026-03-28T13:43:05.708Z</time></trkpt><trkpt lat="45.7296769" lon="10.7817035"><ele>67.4</ele><time>2026-03-28T13:43:06.709Z</time></trkpt><trkpt lat="45.729598" lon="10.781615"><ele>66.2</ele><time>2026-03-28T13:43:07.708Z</time></trkpt><trkpt lat="45.7295164" lon="10.7815363"><ele>65.0</ele><time>2026-03-28T13:43:08.708Z</time></trkpt><trkpt lat="45.729436" lon="10.7814701"><ele>66.16666666666667</ele><time>2026-03-28T13:43:09.708Z</time></trkpt><trkpt lat="45.7293596" lon="10.7814173"><ele>67.33333333333334</ele><time>2026-03-28T13:43:10.709Z</time></trkpt><trkpt lat="45.7292875" lon="10.7813713"><ele>68.5</ele><time>2026-03-28T13:43:11.708Z</time></trkpt><trkpt lat="45.729219" lon="10.7813337"><ele>69.66666666666667</ele><time>2026-03-28T13:43:12.708Z</time></trkpt><trkpt lat="45.7291513" lon="10.7813046"><ele>70.83333333333333</ele><time>2026-03-28T13:43:13.709Z</time></trkpt><trkpt lat="45.7290887" lon="10.7812827"><ele>72.0</ele><time>2026-03-28T13:43:14.708Z</time></trkpt><trkpt lat="45.7289796" lon="10.7812467"><ele>72.0</ele><time>2026-03-28T13:43:16.708Z</time></trkpt><trkpt lat="45.7288766" lon="10.781228"><ele>72.0</ele><time>2026-03-28T13:43:18.709Z</time></trkpt><trkpt lat="45.7287758" lon="10.7812134"><ele>72.0</ele><time>2026-03-28T13:43:20.709Z</time></trkpt><trkpt lat="45.7286742" lon="10.7811874"><ele>72.0</ele><time>2026-03-28T13:43:22.709Z</time></trkpt><trkpt lat="45.7285568" lon="10.7811499"><ele>72.0</ele><time>2026-03-28T13:43:24.708Z</time></trkpt><trkpt lat="45.7284897" lon="10.7811429"><ele>72.33333333333333</ele><time>2026-03-28T13:43:25.708Z</time></trkpt><trkpt lat="45.7284153" lon="10.7811398"><ele>72.66666666666667</ele><time>2026-03-28T13:43:26.709Z</time></trkpt><trkpt lat="45.7283355" lon="10.7811393"><ele>73.0</ele><time>2026-03-28T13:43:27.708Z</time></trkpt><trkpt lat="45.7282559" lon="10.7811345"><ele>73.33333333333334</ele><time>2026-03-28T13:43:28.709Z</time></trkpt><trkpt lat="45.7281777" lon="10.7811288"><ele>73.66666666666667</ele><time>2026-03-28T13:43:29.709Z</time></trkpt><trkpt lat="45.728097" lon="10.7811223"><ele>74.0</ele><time>2026-03-28T13:43:30.708Z</time></trkpt><trkpt lat="45.7280146" lon="10.7811147"><ele>74.0</ele><time>2026-03-28T13:43:31.708Z</time></trkpt><trkpt lat="45.7279298" lon="10.7811063"><ele>74.0</ele><time>2026-03-28T13:43:32.709Z</time></trkpt><trkpt lat="45.7278416" lon="10.781097"><ele>74.0</ele><time>2026-03-28T13:43:33.709Z</time></trkpt><trkpt lat="45.7277492" lon="10.781085"><ele>74.0</ele><time>2026-03-28T13:43:34.709Z</time></trkpt><trkpt lat="45.7276543" lon="10.7810742"><ele>74.0</ele><time>2026-03-28T13:43:35.708Z</time></trkpt><trkpt lat="45.7275645" lon="10.7810618"><ele>73.66666666666667</ele><time>2026-03-28T13:43:36.708Z</time></trkpt><trkpt lat="45.7274828" lon="10.7810535"><ele>73.33333333333334</ele><time>2026-03-28T13:43:37.709Z</time></trkpt><trkpt lat="45.7273967" lon="10.7810437"><ele>73.0</ele><time>2026-03-28T13:43:38.709Z</time></trkpt><trkpt lat="45.7273101" lon="10.7810331"><ele>72.66666666666667</ele><time>2026-03-28T13:43:39.708Z</time></trkpt><trkpt lat="45.7272258" lon="10.7810273"><ele>72.33333333333333</ele><time>2026-03-28T13:43:40.708Z</time></trkpt><trkpt lat="45.7271438" lon="10.7810215"><ele>72.0</ele><time>2026-03-28T13:43:41.708Z</time></trkpt><trkpt lat="45.7270667" lon="10.7810184"><ele>72.00000000000001</ele><time>2026-03-28T13:43:42.709Z</time></trkpt><trkpt lat="45.7269913" lon="10.7810158"><ele>72.0</ele><time>2026-03-28T13:43:43.709Z</time></trkpt><trkpt lat="45.7269173" lon="10.7810155"><ele>72.0</ele><time>2026-03-28T13:43:44.708Z</time></trkpt><trkpt lat="45.7268419" lon="10.7810158"><ele>72.0</ele><time>2026-03-28T13:43:45.708Z</time></trkpt><trkpt lat="45.7267653" lon="10.7810137"><ele>72.0</ele><time>2026-03-28T13:43:46.708Z</time></trkpt><trkpt lat="45.7266902" lon="10.7810129"><ele>72.00000000000001</ele><time>2026-03-28T13:43:47.708Z</time></trkpt><trkpt lat="45.7266177" lon="10.7810137"><ele>72.0</ele><time>2026-03-28T13:43:48.708Z</time></trkpt><trkpt lat="45.726544" lon="10.7810163"><ele>72.00000000000001</ele><time>2026-03-28T13:43:49.708Z</time></trkpt><trkpt lat="45.726468" lon="10.7810201"><ele>72.0</ele><time>2026-03-28T13:43:50.709Z</time></trkpt><trkpt lat="45.7263919" lon="10.7810246"><ele>72.0</ele><time>2026-03-28T13:43:51.708Z</time></trkpt><trkpt lat="45.7263151" lon="10.7810281"><ele>72.0</ele><time>2026-03-28T13:43:52.708Z</time></trkpt><trkpt lat="45.7262456" lon="10.7810329"><ele>72.0</ele><time>2026-03-28T13:43:53.708Z</time></trkpt><trkpt lat="45.7261738" lon="10.7810361"><ele>72.00000000000001</ele><time>2026-03-28T13:43:56.708Z</time></trkpt><trkpt lat="45.7261029" lon="10.7810371"><ele>72.0</ele><time>2026-03-28T13:44:00.708Z</time></trkpt><trkpt lat="45.7260192" lon="10.7810428"><ele>72.2</ele><time>2026-03-28T13:44:02.709Z</time></trkpt><trkpt lat="45.7259045" lon="10.7810483"><ele>72.4</ele><time>2026-03-28T13:44:04.709Z</time></trkpt><trkpt lat="45.7258353" lon="10.7810509"><ele>72.6</ele><time>2026-03-28T13:44:05.709Z</time></trkpt><trkpt lat="45.7257537" lon="10.7810553"><ele>72.8</ele><time>2026-03-28T13:44:06.708Z</time></trkpt><trkpt lat="45.7256599" lon="10.7810633"><ele>73.0</ele><time>2026-03-28T13:44:07.709Z</time></trkpt><trkpt lat="45.7255573" lon="10.7810711"><ele>73.0</ele><time>2026-03-28T13:44:08.708Z</time></trkpt><trkpt lat="45.7254455" lon="10.7810797"><ele>73.0</ele><time>2026-03-28T13:44:09.708Z</time></trkpt><trkpt lat="45.7253452" lon="10.781091"><ele>73.0</ele><time>2026-03-28T13:44:10.707Z</time></trkpt><trkpt lat="45.7252557" lon="10.7810985"><ele>73.0</ele><time>2026-03-28T13:44:11.709Z</time></trkpt><trkpt lat="45.7251662" lon="10.7811091"><ele>73.0</ele><time>2026-03-28T13:44:12.708Z</time></trkpt><trkpt lat="45.7250774" lon="10.781118"><ele>73.33333333333333</ele><time>2026-03-28T13:44:13.709Z</time></trkpt><trkpt lat="45.724991" lon="10.7811241"><ele>73.66666666666666</ele><time>2026-03-28T13:44:14.708Z</time></trkpt><trkpt lat="45.7249059" lon="10.7811312"><ele>74.0</ele><time>2026-03-28T13:44:15.709Z</time></trkpt><trkpt lat="45.7248178" lon="10.7811411"><ele>74.33333333333333</ele><time>2026-03-28T13:44:16.709Z</time></trkpt><trkpt lat="45.7247255" lon="10.7811529"><ele>74.66666666666667</ele><time>2026-03-28T13:44:17.708Z</time></trkpt><trkpt lat="45.7246295" lon="10.7811669"><ele>75.0</ele><time>2026-03-28T13:44:18.709Z</time></trkpt><trkpt lat="45.7245296" lon="10.7811881"><ele>75.0</ele><time>2026-03-28T13:44:19.708Z</time></trkpt><trkpt lat="45.7244253" lon="10.7812121"><ele>75.0</ele><time>2026-03-28T13:44:20.709Z</time></trkpt><trkpt lat="45.72432" lon="10.781239"><ele>75.0</ele><time>2026-03-28T13:44:21.708Z</time></trkpt><trkpt lat="45.724221" lon="10.7812646"><ele>75.0</ele><time>2026-03-28T13:44:22.708Z</time></trkpt><trkpt lat="45.7241271" lon="10.7812859"><ele>75.0</ele><time>2026-03-28T13:44:23.708Z</time></trkpt><trkpt lat="45.7240337" lon="10.7813042"><ele>75.4</ele><time>2026-03-28T13:44:24.708Z</time></trkpt><trkpt lat="45.7239365" lon="10.781315"><ele>75.8</ele><time>2026-03-28T13:44:25.708Z</time></trkpt><trkpt lat="45.7238328" lon="10.7813188"><ele>76.2</ele><time>2026-03-28T13:44:26.709Z</time></trkpt><trkpt lat="45.7237264" lon="10.7813143"><ele>76.6</ele><time>2026-03-28T13:44:27.708Z</time></trkpt><trkpt lat="45.723618" lon="10.7812967"><ele>77.0</ele><time>2026-03-28T13:44:28.708Z</time></trkpt><trkpt lat="45.7235095" lon="10.7812599"><ele>78.0</ele><time>2026-03-28T13:44:29.708Z</time></trkpt><trkpt lat="45.7234008" lon="10.7812086"><ele>79.0</ele><time>2026-03-28T13:44:30.708Z</time></trkpt><trkpt lat="45.7232925" lon="10.7811467"><ele>80.0</ele><time>2026-03-28T13:44:31.709Z</time></trkpt><trkpt lat="45.7231856" lon="10.781066"><ele>81.0</ele><time>2026-03-28T13:44:32.709Z</time></trkpt><trkpt lat="45.7230788" lon="10.7809752"><ele>80.25</ele><time>2026-03-28T13:44:33.708Z</time></trkpt><trkpt lat="45.7229704" lon="10.7808763"><ele>79.5</ele><time>2026-03-28T13:44:34.708Z</time></trkpt><trkpt lat="45.7228682" lon="10.780782"><ele>78.75</ele><time>2026-03-28T13:44:35.709Z</time></trkpt><trkpt lat="45.7227744" lon="10.7806951"><ele>78.0</ele><time>2026-03-28T13:44:36.708Z</time></trkpt><trkpt lat="45.7226882" lon="10.780619"><ele>78.0</ele><time>2026-03-28T13:44:37.709Z</time></trkpt><trkpt lat="45.7226108" lon="10.7805509"><ele>78.0</ele><time>2026-03-28T13:44:38.709Z</time></trkpt><trkpt lat="45.722537" lon="10.780484"><ele>78.0</ele><time>2026-03-28T13:44:39.708Z</time></trkpt><trkpt lat="45.7224607" lon="10.7804149"><ele>78.0</ele><time>2026-03-28T13:44:40.709Z</time></trkpt><trkpt lat="45.7223809" lon="10.7803414"><ele>78.0</ele><time>2026-03-28T13:44:41.708Z</time></trkpt><trkpt lat="45.722298" lon="10.7802597"><ele>78.4</ele><time>2026-03-28T13:44:42.708Z</time></trkpt><trkpt lat="45.7222125" lon="10.7801787"><ele>78.8</ele><time>2026-03-28T13:44:43.709Z</time></trkpt><trkpt lat="45.7221252" lon="10.7800986"><ele>79.2</ele><time>2026-03-28T13:44:44.708Z</time></trkpt><trkpt lat="45.7220384" lon="10.780021"><ele>79.6</ele><time>2026-03-28T13:44:45.709Z</time></trkpt><trkpt lat="45.7219522" lon="10.7799397"><ele>80.0</ele><time>2026-03-28T13:44:46.709Z</time></trkpt><trkpt lat="45.7218644" lon="10.7798617"><ele>80.0</ele><time>2026-03-28T13:44:47.708Z</time></trkpt><trkpt lat="45.7217767" lon="10.7797805"><ele>80.0</ele><time>2026-03-28T13:44:48.708Z</time></trkpt><trkpt lat="45.7216892" lon="10.7796978"><ele>80.0</ele><time>2026-03-28T13:44:49.709Z</time></trkpt><trkpt lat="45.7216049" lon="10.7796185"><ele>80.0</ele><time>2026-03-28T13:44:50.708Z</time></trkpt><trkpt lat="45.72152" lon="10.7795401"><ele>80.0</ele><time>2026-03-28T13:44:51.708Z</time></trkpt><trkpt lat="45.7214367" lon="10.7794601"><ele>80.0</ele><time>2026-03-28T13:44:52.709Z</time></trkpt><trkpt lat="45.7213552" lon="10.7793835"><ele>80.0</ele><time>2026-03-28T13:44:53.709Z</time></trkpt><trkpt lat="45.7212754" lon="10.7793052"><ele>80.0</ele><time>2026-03-28T13:44:54.708Z</time></trkpt><trkpt lat="45.7211989" lon="10.7792223"><ele>80.0</ele><time>2026-03-28T13:44:55.707Z</time></trkpt><trkpt lat="45.7211256" lon="10.7791431"><ele>80.0</ele><time>2026-03-28T13:44:56.708Z</time></trkpt><trkpt lat="45.7210545" lon="10.7790612"><ele>79.83333333333334</ele><time>2026-03-28T13:44:57.708Z</time></trkpt><trkpt lat="45.7209839" lon="10.7789829"><ele>79.66666666666667</ele><time>2026-03-28T13:44:58.709Z</time></trkpt><trkpt lat="45.7209141" lon="10.7789062"><ele>79.5</ele><time>2026-03-28T13:44:59.707Z</time></trkpt><trkpt lat="45.7208457" lon="10.778825"><ele>79.33333333333333</ele><time>2026-03-28T13:45:00.709Z</time></trkpt><trkpt lat="45.720776" lon="10.7787439"><ele>79.16666666666666</ele><time>2026-03-28T13:45:01.708Z</time></trkpt><trkpt lat="45.7207075" lon="10.7786568"><ele>79.0</ele><time>2026-03-28T13:45:02.708Z</time></trkpt><trkpt lat="45.7206404" lon="10.778565"><ele>77.0</ele><time>2026-03-28T13:45:03.708Z</time></trkpt><trkpt lat="45.7205738" lon="10.7784646"><ele>75.0</ele><time>2026-03-28T13:45:04.708Z</time></trkpt><trkpt lat="45.7205051" lon="10.7783574"><ele>73.0</ele><time>2026-03-28T13:45:05.708Z</time></trkpt><trkpt lat="45.7204357" lon="10.778242"><ele>71.0</ele><time>2026-03-28T13:45:06.709Z</time></trkpt><trkpt lat="45.7203647" lon="10.7781241"><ele>69.0</ele><time>2026-03-28T13:45:07.708Z</time></trkpt><trkpt lat="45.7202976" lon="10.77801"><ele>69.4</ele><time>2026-03-28T13:45:08.708Z</time></trkpt><trkpt lat="45.7202293" lon="10.7778932"><ele>69.80000000000001</ele><time>2026-03-28T13:45:09.709Z</time></trkpt><trkpt lat="45.7201598" lon="10.7777755"><ele>70.19999999999999</ele><time>2026-03-28T13:45:10.709Z</time></trkpt><trkpt lat="45.7200903" lon="10.7776562"><ele>70.6</ele><time>2026-03-28T13:45:11.709Z</time></trkpt><trkpt lat="45.7200258" lon="10.7775426"><ele>71.0</ele><time>2026-03-28T13:45:12.709Z</time></trkpt><trkpt lat="45.7199614" lon="10.7774358"><ele>71.0</ele><time>2026-03-28T13:45:13.708Z</time></trkpt><trkpt lat="45.7198973" lon="10.777329"><ele>71.0</ele><time>2026-03-28T13:45:14.708Z</time></trkpt><trkpt lat="45.7198326" lon="10.7772198"><ele>71.0</ele><time>2026-03-28T13:45:15.709Z</time></trkpt><trkpt lat="45.7197679" lon="10.7771127"><ele>71.0</ele><time>2026-03-28T13:45:16.708Z</time></trkpt><trkpt lat="45.7196993" lon="10.7770009"><ele>71.0</ele><time>2026-03-28T13:45:17.709Z</time></trkpt><trkpt lat="45.7196304" lon="10.7768957"><ele>71.8</ele><time>2026-03-28T13:45:18.708Z</time></trkpt><trkpt lat="45.7195657" lon="10.7767967"><ele>72.6</ele><time>2026-03-28T13:45:19.708Z</time></trkpt><trkpt lat="45.7195001" lon="10.7767001"><ele>73.4</ele><time>2026-03-28T13:45:20.708Z</time></trkpt><trkpt lat="45.7194382" lon="10.7766054"><ele>74.2</ele><time>2026-03-28T13:45:21.708Z</time></trkpt><trkpt lat="45.7193745" lon="10.7765119"><ele>75.0</ele><time>2026-03-28T13:45:22.708Z</time></trkpt><trkpt lat="45.7193128" lon="10.7764207"><ele>75.0</ele><time>2026-03-28T13:45:23.708Z</time></trkpt><trkpt lat="45.7192502" lon="10.7763329"><ele>75.0</ele><time>2026-03-28T13:45:24.708Z</time></trkpt><trkpt lat="45.719188" lon="10.7762452"><ele>75.0</ele><time>2026-03-28T13:45:25.709Z</time></trkpt><trkpt lat="45.719128" lon="10.7761577"><ele>75.0</ele><time>2026-03-28T13:45:26.708Z</time></trkpt><trkpt lat="45.7190659" lon="10.7760688"><ele>75.0</ele><time>2026-03-28T13:45:27.709Z</time></trkpt><trkpt lat="45.7190049" lon="10.7759852"><ele>75.0</ele><time>2026-03-28T13:45:28.709Z</time></trkpt><trkpt lat="45.718944" lon="10.7758961"><ele>73.66666666666667</ele><time>2026-03-28T13:45:29.708Z</time></trkpt><trkpt lat="45.7188825" lon="10.775808"><ele>72.33333333333333</ele><time>2026-03-28T13:45:30.708Z</time></trkpt><trkpt lat="45.7188237" lon="10.7757199"><ele>71.0</ele><time>2026-03-28T13:45:31.708Z</time></trkpt><trkpt lat="45.7187657" lon="10.7756352"><ele>69.66666666666666</ele><time>2026-03-28T13:45:32.709Z</time></trkpt><trkpt lat="45.7187083" lon="10.7755554"><ele>68.33333333333333</ele><time>2026-03-28T13:45:33.709Z</time></trkpt><trkpt lat="45.7186485" lon="10.7754744"><ele>67.0</ele><time>2026-03-28T13:45:34.708Z</time></trkpt><trkpt lat="45.7185913" lon="10.7753907"><ele>67.66666666666666</ele><time>2026-03-28T13:45:35.709Z</time></trkpt><trkpt lat="45.7185294" lon="10.775301"><ele>68.33333333333333</ele><time>2026-03-28T13:45:36.708Z</time></trkpt><trkpt lat="45.7184674" lon="10.7752118"><ele>69.0</ele><time>2026-03-28T13:45:37.708Z</time></trkpt><trkpt lat="45.7184039" lon="10.7751197"><ele>69.66666666666667</ele><time>2026-03-28T13:45:38.709Z</time></trkpt><trkpt lat="45.7183444" lon="10.7750363"><ele>70.33333333333334</ele><time>2026-03-28T13:45:39.709Z</time></trkpt><trkpt lat="45.718284" lon="10.7749539"><ele>71.0</ele><time>2026-03-28T13:45:40.708Z</time></trkpt><trkpt lat="45.7182254" lon="10.7748797"><ele>71.0</ele><time>2026-03-28T13:45:41.709Z</time></trkpt><trkpt lat="45.7181689" lon="10.7748145"><ele>71.0</ele><time>2026-03-28T13:45:42.708Z</time></trkpt><trkpt lat="45.7181123" lon="10.7747523"><ele>71.0</ele><time>2026-03-28T13:45:43.708Z</time></trkpt><trkpt lat="45.7180572" lon="10.7746908"><ele>71.0</ele><time>2026-03-28T13:45:44.709Z</time></trkpt><trkpt lat="45.7180022" lon="10.7746326"><ele>71.0</ele><time>2026-03-28T13:45:45.709Z</time></trkpt><trkpt lat="45.717949" lon="10.7745732"><ele>71.0</ele><time>2026-03-28T13:45:46.708Z</time></trkpt><trkpt lat="45.717891" lon="10.7745151"><ele>71.0</ele><time>2026-03-28T13:45:47.708Z</time></trkpt><trkpt lat="45.7178338" lon="10.7744499"><ele>71.0</ele><time>2026-03-28T13:45:48.708Z</time></trkpt><trkpt lat="45.7177757" lon="10.7743803"><ele>71.0</ele><time>2026-03-28T13:45:49.708Z</time></trkpt><trkpt lat="45.7177157" lon="10.7743093"><ele>71.0</ele><time>2026-03-28T13:45:50.709Z</time></trkpt><trkpt lat="45.7176507" lon="10.7742329"><ele>71.0</ele><time>2026-03-28T13:45:51.708Z</time></trkpt><trkpt lat="45.7175884" lon="10.7741455"><ele>71.0</ele><time>2026-03-28T13:45:52.708Z</time></trkpt><trkpt lat="45.7175197" lon="10.7740488"><ele>71.0</ele><time>2026-03-28T13:45:53.708Z</time></trkpt><trkpt lat="45.7174456" lon="10.7739478"><ele>71.75</ele><time>2026-03-28T13:45:54.708Z</time></trkpt><trkpt lat="45.7173664" lon="10.7738401"><ele>72.5</ele><time>2026-03-28T13:45:55.709Z</time></trkpt><trkpt lat="45.7172793" lon="10.7737324"><ele>73.25</ele><time>2026-03-28T13:45:56.709Z</time></trkpt><trkpt lat="45.7171876" lon="10.7736199"><ele>74.0</ele><time>2026-03-28T13:45:57.709Z</time></trkpt><trkpt lat="45.7170899" lon="10.7735052"><ele>75.25</ele><time>2026-03-28T13:45:58.708Z</time></trkpt><trkpt lat="45.7169907" lon="10.7733926"><ele>76.5</ele><time>2026-03-28T13:45:59.708Z</time></trkpt><trkpt lat="45.7168985" lon="10.7732928"><ele>77.75</ele><time>2026-03-28T13:46:00.709Z</time></trkpt><trkpt lat="45.7168079" lon="10.7731976"><ele>79.0</ele><time>2026-03-28T13:46:01.707Z</time></trkpt><trkpt lat="45.7167142" lon="10.7731085"><ele>79.0</ele><time>2026-03-28T13:46:02.708Z</time></trkpt><trkpt lat="45.7166181" lon="10.7730208"><ele>79.0</ele><time>2026-03-28T13:46:03.709Z</time></trkpt><trkpt lat="45.716528" lon="10.7729376"><ele>79.0</ele><time>2026-03-28T13:46:04.709Z</time></trkpt><trkpt lat="45.7164475" lon="10.7728605"><ele>79.0</ele><time>2026-03-28T13:46:05.708Z</time></trkpt><trkpt lat="45.716373" lon="10.7727968"><ele>79.0</ele><time>2026-03-28T13:46:06.709Z</time></trkpt><trkpt lat="45.7163024" lon="10.772734"><ele>79.0</ele><time>2026-03-28T13:46:07.709Z</time></trkpt><trkpt lat="45.7162353" lon="10.7726732"><ele>79.0</ele><time>2026-03-28T13:46:08.709Z</time></trkpt><trkpt lat="45.7161652" lon="10.7726136"><ele>79.0</ele><time>2026-03-28T13:46:09.709Z</time></trkpt><trkpt lat="45.7160898" lon="10.7725448"><ele>79.0</ele><time>2026-03-28T13:46:10.709Z</time></trkpt><trkpt lat="45.7160081" lon="10.7724724"><ele>79.0</ele><time>2026-03-28T13:46:11.708Z</time></trkpt><trkpt lat="45.715921" lon="10.7723947"><ele>79.0</ele><time>2026-03-28T13:46:12.708Z</time></trkpt><trkpt lat="45.7158266" lon="10.7723122"><ele>79.0</ele><time>2026-03-28T13:46:13.708Z</time></trkpt><trkpt lat="45.7157244" lon="10.7722272"><ele>79.0</ele><time>2026-03-28T13:46:14.709Z</time></trkpt><trkpt lat="45.7156107" lon="10.7721327"><ele>79.0</ele><time>2026-03-28T13:46:15.709Z</time></trkpt><trkpt lat="45.7154891" lon="10.7720275"><ele>79.0</ele><time>2026-03-28T13:46:16.708Z</time></trkpt><trkpt lat="45.7153546" lon="10.7719176"><ele>78.66666666666666</ele><time>2026-03-28T13:46:17.708Z</time></trkpt><trkpt lat="45.7152102" lon="10.7717955"><ele>78.33333333333333</ele><time>2026-03-28T13:46:18.708Z</time></trkpt><trkpt lat="45.7150574" lon="10.7716651"><ele>78.0</ele><time>2026-03-28T13:46:19.709Z</time></trkpt><trkpt lat="45.7149009" lon="10.77152"><ele>78.0</ele><time>2026-03-28T13:46:20.709Z</time></trkpt><trkpt lat="45.7147436" lon="10.7713684"><ele>78.0</ele><time>2026-03-28T13:46:21.709Z</time></trkpt><trkpt lat="45.7145926" lon="10.7712228"><ele>78.0</ele><time>2026-03-28T13:46:22.709Z</time></trkpt><trkpt lat="45.7144408" lon="10.7710824"><ele>78.0</ele><time>2026-03-28T13:46:23.708Z</time></trkpt><trkpt lat="45.7142877" lon="10.7709437"><ele>78.0</ele><time>2026-03-28T13:46:24.708Z</time></trkpt><trkpt lat="45.7141354" lon="10.7708027"><ele>78.0</ele><time>2026-03-28T13:46:25.708Z</time></trkpt><trkpt lat="45.7139823" lon="10.7706625"><ele>78.0</ele><time>2026-03-28T13:46:26.708Z</time></trkpt><trkpt lat="45.7138279" lon="10.7705251"><ele>78.0</ele><time>2026-03-28T13:46:27.708Z</time></trkpt><trkpt lat="45.7136743" lon="10.770392"><ele>78.0</ele><time>2026-03-28T13:46:28.708Z</time></trkpt><trkpt lat="45.7135192" lon="10.7702584"><ele>76.33333333333333</ele><time>2026-03-28T13:46:29.708Z</time></trkpt><trkpt lat="45.7133623" lon="10.7701222"><ele>74.66666666666666</ele><time>2026-03-28T13:46:30.708Z</time></trkpt><trkpt lat="45.7132081" lon="10.7699845"><ele>73.0</ele><time>2026-03-28T13:46:31.709Z</time></trkpt><trkpt lat="45.713058" lon="10.7698455"><ele>73.0</ele><time>2026-03-28T13:46:32.708Z</time></trkpt><trkpt lat="45.7129117" lon="10.7697085"><ele>73.0</ele><time>2026-03-28T13:46:33.708Z</time></trkpt><trkpt lat="45.7127644" lon="10.7695745"><ele>73.0</ele><time>2026-03-28T13:46:34.708Z</time></trkpt><trkpt lat="45.7126174" lon="10.7694418"><ele>73.66666666666666</ele><time>2026-03-28T13:46:35.709Z</time></trkpt><trkpt lat="45.7124689" lon="10.7693078"><ele>74.33333333333333</ele><time>2026-03-28T13:46:36.708Z</time></trkpt><trkpt lat="45.7123274" lon="10.7691819"><ele>75.0</ele><time>2026-03-28T13:46:37.709Z</time></trkpt><trkpt lat="45.7121903" lon="10.7690648"><ele>75.0</ele><time>2026-03-28T13:46:38.708Z</time></trkpt><trkpt lat="45.7120527" lon="10.7689538"><ele>75.0</ele><time>2026-03-28T13:46:39.709Z</time></trkpt><trkpt lat="45.7119114" lon="10.7688489"><ele>75.0</ele><time>2026-03-28T13:46:40.708Z</time></trkpt><trkpt lat="45.7117669" lon="10.768757"><ele>74.0</ele><time>2026-03-28T13:46:41.708Z</time></trkpt><trkpt lat="45.7116261" lon="10.7686736"><ele>73.0</ele><time>2026-03-28T13:46:42.709Z</time></trkpt><trkpt lat="45.7114885" lon="10.7686014"><ele>72.0</ele><time>2026-03-28T13:46:43.709Z</time></trkpt><trkpt lat="45.7113504" lon="10.7685361"><ele>71.0</ele><time>2026-03-28T13:46:44.708Z</time></trkpt><trkpt lat="45.711211" lon="10.7684786"><ele>73.0</ele><time>2026-03-28T13:46:45.708Z</time></trkpt><trkpt lat="45.7110716" lon="10.7684267"><ele>75.0</ele><time>2026-03-28T13:46:46.709Z</time></trkpt><trkpt lat="45.7109397" lon="10.7683783"><ele>77.0</ele><time>2026-03-28T13:46:47.708Z</time></trkpt><trkpt lat="45.710817" lon="10.7683392"><ele>79.0</ele><time>2026-03-28T13:46:48.708Z</time></trkpt><trkpt lat="45.7106975" lon="10.7682987"><ele>79.0</ele><time>2026-03-28T13:46:49.709Z</time></trkpt><trkpt lat="45.7105773" lon="10.7682556"><ele>79.0</ele><time>2026-03-28T13:46:50.708Z</time></trkpt><trkpt lat="45.7104547" lon="10.7682149"><ele>79.0</ele><time>2026-03-28T13:46:51.708Z</time></trkpt><trkpt lat="45.7103321" lon="10.7681774"><ele>79.0</ele><time>2026-03-28T13:46:52.708Z</time></trkpt><trkpt lat="45.7102099" lon="10.7681406"><ele>80.5</ele><time>2026-03-28T13:46:53.708Z</time></trkpt><trkpt lat="45.7100891" lon="10.7681037"><ele>82.0</ele><time>2026-03-28T13:46:54.709Z</time></trkpt><trkpt lat="45.7099735" lon="10.7680637"><ele>83.5</ele><time>2026-03-28T13:46:55.708Z</time></trkpt><trkpt lat="45.7098587" lon="10.7680223"><ele>85.0</ele><time>2026-03-28T13:46:56.709Z</time></trkpt><trkpt lat="45.7097503" lon="10.76798"><ele>85.0</ele><time>2026-03-28T13:46:57.709Z</time></trkpt><trkpt lat="45.7096496" lon="10.7679392"><ele>85.0</ele><time>2026-03-28T13:46:58.708Z</time></trkpt><trkpt lat="45.7095604" lon="10.7679053"><ele>85.0</ele><time>2026-03-28T13:46:59.708Z</time></trkpt><trkpt lat="45.7094802" lon="10.7678749"><ele>85.0</ele><time>2026-03-28T13:47:00.708Z</time></trkpt><trkpt lat="45.7094057" lon="10.7678514"><ele>85.0</ele><time>2026-03-28T13:47:01.708Z</time></trkpt><trkpt lat="45.7093438" lon="10.7678286"><ele>85.0</ele><time>2026-03-28T13:47:02.708Z</time></trkpt><trkpt lat="45.7092547" lon="10.7677913"><ele>86.16666666666666</ele><time>2026-03-28T13:47:04.709Z</time></trkpt><trkpt lat="45.7091936" lon="10.7677646"><ele>87.33333333333333</ele><time>2026-03-28T13:47:06.708Z</time></trkpt><trkpt lat="45.7091106" lon="10.7677414"><ele>88.5</ele><time>2026-03-28T13:47:08.708Z</time></trkpt><trkpt lat="45.7090468" lon="10.7677308"><ele>89.66666666666667</ele><time>2026-03-28T13:47:09.708Z</time></trkpt><trkpt lat="45.7089647" lon="10.7677152"><ele>90.83333333333334</ele><time>2026-03-28T13:47:10.709Z</time></trkpt><trkpt lat="45.7088654" lon="10.7676886"><ele>92.0</ele><time>2026-03-28T13:47:11.708Z</time></trkpt><trkpt lat="45.7087523" lon="10.7676545"><ele>89.5</ele><time>2026-03-28T13:47:12.709Z</time></trkpt><trkpt lat="45.7086442" lon="10.7676172"><ele>87.0</ele><time>2026-03-28T13:47:13.709Z</time></trkpt><trkpt lat="45.7085348" lon="10.7675833"><ele>84.5</ele><time>2026-03-28T13:47:14.709Z</time></trkpt><trkpt lat="45.708419" lon="10.7675454"><ele>82.0</ele><time>2026-03-28T13:47:15.709Z</time></trkpt><trkpt lat="45.7082955" lon="10.7674996"><ele>82.0</ele><time>2026-03-28T13:47:16.708Z</time></trkpt><trkpt lat="45.7081679" lon="10.7674423"><ele>82.0</ele><time>2026-03-28T13:47:17.709Z</time></trkpt><trkpt lat="45.7080343" lon="10.7673707"><ele>82.0</ele><time>2026-03-28T13:47:18.709Z</time></trkpt><trkpt lat="45.7078894" lon="10.7672756"><ele>82.0</ele><time>2026-03-28T13:47:19.708Z</time></trkpt><trkpt lat="45.7077557" lon="10.7671748"><ele>81.0</ele><time>2026-03-28T13:47:20.708Z</time></trkpt><trkpt lat="45.7076385" lon="10.767079"><ele>80.0</ele><time>2026-03-28T13:47:21.709Z</time></trkpt><trkpt lat="45.7075359" lon="10.7669884"><ele>79.0</ele><time>2026-03-28T13:47:22.709Z</time></trkpt><trkpt lat="45.707445" lon="10.7669039"><ele>78.0</ele><time>2026-03-28T13:47:23.709Z</time></trkpt><trkpt lat="45.7073637" lon="10.7668265"><ele>78.0</ele><time>2026-03-28T13:47:24.708Z</time></trkpt><trkpt lat="45.7072837" lon="10.7667496"><ele>78.0</ele><time>2026-03-28T13:47:25.709Z</time></trkpt><trkpt lat="45.7072033" lon="10.7666741"><ele>78.0</ele><time>2026-03-28T13:47:26.708Z</time></trkpt><trkpt lat="45.7071236" lon="10.7665948"><ele>78.0</ele><time>2026-03-28T13:47:27.708Z</time></trkpt><trkpt lat="45.7070402" lon="10.7665116"><ele>78.0</ele><time>2026-03-28T13:47:28.709Z</time></trkpt><trkpt lat="45.7069492" lon="10.7664281"><ele>80.5</ele><time>2026-03-28T13:47:29.709Z</time></trkpt><trkpt lat="45.7068515" lon="10.7663338"><ele>83.0</ele><time>2026-03-28T13:47:30.709Z</time></trkpt><trkpt lat="45.7067501" lon="10.766234"><ele>85.5</ele><time>2026-03-28T13:47:31.708Z</time></trkpt><trkpt lat="45.7066513" lon="10.7661389"><ele>88.0</ele><time>2026-03-28T13:47:32.709Z</time></trkpt><trkpt lat="45.7065529" lon="10.7660437"><ele>83.75</ele><time>2026-03-28T13:47:33.709Z</time></trkpt><trkpt lat="45.7064532" lon="10.765948"><ele>79.5</ele><time>2026-03-28T13:47:34.708Z</time></trkpt><trkpt lat="45.7063542" lon="10.7658513"><ele>75.25</ele><time>2026-03-28T13:47:35.709Z</time></trkpt><trkpt lat="45.7062578" lon="10.7657398"><ele>71.0</ele><time>2026-03-28T13:47:36.708Z</time></trkpt><trkpt lat="45.7061611" lon="10.7656164"><ele>71.5</ele><time>2026-03-28T13:47:37.709Z</time></trkpt><trkpt lat="45.7060633" lon="10.7654811"><ele>72.0</ele><time>2026-03-28T13:47:38.709Z</time></trkpt><trkpt lat="45.7059689" lon="10.7653335"><ele>72.5</ele><time>2026-03-28T13:47:39.709Z</time></trkpt><trkpt lat="45.7058743" lon="10.765178"><ele>73.0</ele><time>2026-03-28T13:47:40.709Z</time></trkpt><trkpt lat="45.7057799" lon="10.7650314"><ele>73.0</ele><time>2026-03-28T13:47:41.709Z</time></trkpt><trkpt lat="45.7056898" lon="10.7648871"><ele>73.0</ele><time>2026-03-28T13:47:42.708Z</time></trkpt><trkpt lat="45.7056048" lon="10.7647493"><ele>73.0</ele><time>2026-03-28T13:47:43.708Z</time></trkpt><trkpt lat="45.7055206" lon="10.7646163"><ele>73.0</ele><time>2026-03-28T13:47:44.709Z</time></trkpt><trkpt lat="45.7054423" lon="10.7644889"><ele>73.0</ele><time>2026-03-28T13:47:45.708Z</time></trkpt><trkpt lat="45.705363" lon="10.7643676"><ele>73.0</ele><time>2026-03-28T13:47:46.709Z</time></trkpt><trkpt lat="45.7052811" lon="10.7642522"><ele>73.0</ele><time>2026-03-28T13:47:47.709Z</time></trkpt><trkpt lat="45.7051995" lon="10.7641474"><ele>73.0</ele><time>2026-03-28T13:47:48.708Z</time></trkpt><trkpt lat="45.7051194" lon="10.7640576"><ele>73.0</ele><time>2026-03-28T13:47:49.709Z</time></trkpt><trkpt lat="45.7050426" lon="10.7639812"><ele>73.83333333333333</ele><time>2026-03-28T13:47:50.709Z</time></trkpt><trkpt lat="45.704966" lon="10.763911"><ele>74.66666666666666</ele><time>2026-03-28T13:47:51.707Z</time></trkpt><trkpt lat="45.7048888" lon="10.7638475"><ele>75.5</ele><time>2026-03-28T13:47:52.708Z</time></trkpt><trkpt lat="45.7048153" lon="10.7637883"><ele>76.33333333333333</ele><time>2026-03-28T13:47:53.708Z</time></trkpt><trkpt lat="45.7047395" lon="10.7637364"><ele>77.16666666666667</ele><time>2026-03-28T13:47:54.708Z</time></trkpt><trkpt lat="45.7046613" lon="10.7636895"><ele>78.0</ele><time>2026-03-28T13:47:55.708Z</time></trkpt><trkpt lat="45.7045809" lon="10.7636458"><ele>78.0</ele><time>2026-03-28T13:47:56.708Z</time></trkpt><trkpt lat="45.7044919" lon="10.7636044"><ele>78.0</ele><time>2026-03-28T13:47:57.708Z</time></trkpt><trkpt lat="45.7043884" lon="10.7635577"><ele>78.0</ele><time>2026-03-28T13:47:58.709Z</time></trkpt><trkpt lat="45.7042724" lon="10.7635063"><ele>78.0</ele><time>2026-03-28T13:47:59.708Z</time></trkpt><trkpt lat="45.7041431" lon="10.7634461"><ele>74.66666666666667</ele><time>2026-03-28T13:48:00.708Z</time></trkpt><trkpt lat="45.703999" lon="10.7633802"><ele>71.33333333333334</ele><time>2026-03-28T13:48:01.709Z</time></trkpt><trkpt lat="45.7038376" lon="10.7632998"><ele>68.0</ele><time>2026-03-28T13:48:02.708Z</time></trkpt><trkpt lat="45.7036576" lon="10.7632014"><ele>70.66666666666667</ele><time>2026-03-28T13:48:03.709Z</time></trkpt><trkpt lat="45.703468" lon="10.763078"><ele>73.33333333333333</ele><time>2026-03-28T13:48:04.708Z</time></trkpt><trkpt lat="45.7032873" lon="10.7629484"><ele>76.0</ele><time>2026-03-28T13:48:05.708Z</time></trkpt><trkpt lat="45.7031198" lon="10.7628254"><ele>76.0</ele><time>2026-03-28T13:48:06.708Z</time></trkpt><trkpt lat="45.7029646" lon="10.7627096"><ele>76.0</ele><time>2026-03-28T13:48:07.708Z</time></trkpt><trkpt lat="45.7028165" lon="10.7625997"><ele>76.0</ele><time>2026-03-28T13:48:08.708Z</time></trkpt><trkpt lat="45.7026697" lon="10.7624949"><ele>76.33333333333333</ele><time>2026-03-28T13:48:09.709Z</time></trkpt><trkpt lat="45.7025255" lon="10.7623911"><ele>76.66666666666667</ele><time>2026-03-28T13:48:10.707Z</time></trkpt><trkpt lat="45.7023835" lon="10.762287"><ele>77.0</ele><time>2026-03-28T13:48:11.708Z</time></trkpt><trkpt lat="45.7022423" lon="10.7621834"><ele>77.0</ele><time>2026-03-28T13:48:12.709Z</time></trkpt><trkpt lat="45.7021024" lon="10.7620796"><ele>77.0</ele><time>2026-03-28T13:48:13.709Z</time></trkpt><trkpt lat="45.7019635" lon="10.7619737"><ele>77.0</ele><time>2026-03-28T13:48:14.709Z</time></trkpt><trkpt lat="45.7018244" lon="10.7618685"><ele>75.33333333333334</ele><time>2026-03-28T13:48:15.708Z</time></trkpt><trkpt lat="45.701685" lon="10.7617624"><ele>73.66666666666667</ele><time>2026-03-28T13:48:16.708Z</time></trkpt><trkpt lat="45.7015464" lon="10.7616605"><ele>72.0</ele><time>2026-03-28T13:48:17.708Z</time></trkpt><trkpt lat="45.7014065" lon="10.7615612"><ele>72.0</ele><time>2026-03-28T13:48:18.707Z</time></trkpt><trkpt lat="45.7012658" lon="10.7614595"><ele>72.0</ele><time>2026-03-28T13:48:19.708Z</time></trkpt><trkpt lat="45.7011253" lon="10.7613535"><ele>72.0</ele><time>2026-03-28T13:48:20.708Z</time></trkpt><trkpt lat="45.7009838" lon="10.7612458"><ele>70.33333333333333</ele><time>2026-03-28T13:48:21.709Z</time></trkpt><trkpt lat="45.7008413" lon="10.7611386"><ele>68.66666666666666</ele><time>2026-03-28T13:48:22.708Z</time></trkpt><trkpt lat="45.7006998" lon="10.7610275"><ele>67.0</ele><time>2026-03-28T13:48:23.709Z</time></trkpt><trkpt lat="45.7005567" lon="10.760918"><ele>67.0</ele><time>2026-03-28T13:48:24.709Z</time></trkpt><trkpt lat="45.7004146" lon="10.7607997"><ele>67.0</ele><time>2026-03-28T13:48:25.708Z</time></trkpt><trkpt lat="45.7002729" lon="10.760678"><ele>67.0</ele><time>2026-03-28T13:48:26.708Z</time></trkpt><trkpt lat="45.7001301" lon="10.7605537"><ele>67.33333333333333</ele><time>2026-03-28T13:48:27.709Z</time></trkpt><trkpt lat="45.6999884" lon="10.7604247"><ele>67.66666666666667</ele><time>2026-03-28T13:48:28.709Z</time></trkpt><trkpt lat="45.6998497" lon="10.7603012"><ele>68.0</ele><time>2026-03-28T13:48:29.708Z</time></trkpt><trkpt lat="45.6997143" lon="10.7601801"><ele>68.0</ele><time>2026-03-28T13:48:30.709Z</time></trkpt><trkpt lat="45.6995789" lon="10.7600575"><ele>68.0</ele><time>2026-03-28T13:48:31.709Z</time></trkpt><trkpt lat="45.6994426" lon="10.7599342"><ele>68.0</ele><time>2026-03-28T13:48:32.709Z</time></trkpt><trkpt lat="45.6993071" lon="10.7598117"><ele>71.33333333333334</ele><time>2026-03-28T13:48:33.709Z</time></trkpt><trkpt lat="45.6991692" lon="10.7596895"><ele>74.66666666666667</ele><time>2026-03-28T13:48:34.709Z</time></trkpt><trkpt lat="45.6990315" lon="10.7595661"><ele>78.0</ele><time>2026-03-28T13:48:35.708Z</time></trkpt><trkpt lat="45.6988963" lon="10.7594421"><ele>78.66666666666667</ele><time>2026-03-28T13:48:36.708Z</time></trkpt><trkpt lat="45.6987638" lon="10.7593207"><ele>79.33333333333334</ele><time>2026-03-28T13:48:37.708Z</time></trkpt><trkpt lat="45.6986341" lon="10.7592048"><ele>80.0</ele><time>2026-03-28T13:48:38.708Z</time></trkpt><trkpt lat="45.6985046" lon="10.7590917"><ele>80.0</ele><time>2026-03-28T13:48:39.709Z</time></trkpt><trkpt lat="45.698375" lon="10.7589767"><ele>80.0</ele><time>2026-03-28T13:48:40.709Z</time></trkpt><trkpt lat="45.698247" lon="10.7588534"><ele>80.0</ele><time>2026-03-28T13:48:41.708Z</time></trkpt><trkpt lat="45.6981154" lon="10.7587364"><ele>80.0</ele><time>2026-03-28T13:48:42.709Z</time></trkpt><trkpt lat="45.6979831" lon="10.7586179"><ele>80.0</ele><time>2026-03-28T13:48:43.709Z</time></trkpt><trkpt lat="45.6978505" lon="10.7584979"><ele>80.0</ele><time>2026-03-28T13:48:44.708Z</time></trkpt><trkpt lat="45.6977171" lon="10.7583776"><ele>79.33333333333334</ele><time>2026-03-28T13:48:45.708Z</time></trkpt><trkpt lat="45.6975827" lon="10.7582591"><ele>78.66666666666667</ele><time>2026-03-28T13:48:46.709Z</time></trkpt><trkpt lat="45.6974481" lon="10.7581402"><ele>78.0</ele><time>2026-03-28T13:48:47.708Z</time></trkpt><trkpt lat="45.6973153" lon="10.7580217"><ele>78.0</ele><time>2026-03-28T13:48:48.709Z</time></trkpt><trkpt lat="45.697184" lon="10.7579013"><ele>78.0</ele><time>2026-03-28T13:48:49.709Z</time></trkpt><trkpt lat="45.6970583" lon="10.7577781"><ele>78.0</ele><time>2026-03-28T13:48:50.709Z</time></trkpt><trkpt lat="45.6969371" lon="10.7576467"><ele>76.66666666666667</ele><time>2026-03-28T13:48:51.708Z</time></trkpt><trkpt lat="45.6968188" lon="10.7575067"><ele>75.33333333333334</ele><time>2026-03-28T13:48:52.709Z</time></trkpt><trkpt lat="45.6967027" lon="10.7573607"><ele>74.0</ele><time>2026-03-28T13:48:53.708Z</time></trkpt><trkpt lat="45.6965874" lon="10.7572105"><ele>74.0</ele><time>2026-03-28T13:48:54.709Z</time></trkpt><trkpt lat="45.6964727" lon="10.7570564"><ele>74.0</ele><time>2026-03-28T13:48:55.708Z</time></trkpt><trkpt lat="45.6963543" lon="10.7569001"><ele>74.0</ele><time>2026-03-28T13:48:56.709Z</time></trkpt><trkpt lat="45.696239" lon="10.7567453"><ele>72.66666666666667</ele><time>2026-03-28T13:48:57.709Z</time></trkpt><trkpt lat="45.6961262" lon="10.7566"><ele>71.33333333333333</ele><time>2026-03-28T13:48:58.708Z</time></trkpt><trkpt lat="45.6960094" lon="10.7564607"><ele>70.0</ele><time>2026-03-28T13:48:59.709Z</time></trkpt><trkpt lat="45.6958847" lon="10.7563299"><ele>70.0</ele><time>2026-03-28T13:49:00.708Z</time></trkpt><trkpt lat="45.6957526" lon="10.75621"><ele>70.0</ele><time>2026-03-28T13:49:01.707Z</time></trkpt><trkpt lat="45.6956138" lon="10.7561055"><ele>70.0</ele><time>2026-03-28T13:49:02.708Z</time></trkpt><trkpt lat="45.6954661" lon="10.7560127"><ele>70.0</ele><time>2026-03-28T13:49:03.708Z</time></trkpt><trkpt lat="45.6953152" lon="10.7559322"><ele>70.0</ele><time>2026-03-28T13:49:04.709Z</time></trkpt><trkpt lat="45.6951607" lon="10.7558538"><ele>70.0</ele><time>2026-03-28T13:49:05.709Z</time></trkpt><trkpt lat="45.6950035" lon="10.7557748"><ele>70.0</ele><time>2026-03-28T13:49:06.709Z</time></trkpt><trkpt lat="45.6948453" lon="10.7556929"><ele>70.0</ele><time>2026-03-28T13:49:07.709Z</time></trkpt><trkpt lat="45.6946917" lon="10.7556126"><ele>70.0</ele><time>2026-03-28T13:49:08.708Z</time></trkpt><trkpt lat="45.6945391" lon="10.755534"><ele>72.66666666666666</ele><time>2026-03-28T13:49:09.708Z</time></trkpt><trkpt lat="45.6943894" lon="10.7554593"><ele>75.33333333333333</ele><time>2026-03-28T13:49:10.709Z</time></trkpt><trkpt lat="45.6942383" lon="10.7553817"><ele>78.0</ele><time>2026-03-28T13:49:11.708Z</time></trkpt><trkpt lat="45.6940854" lon="10.7552959"><ele>73.66666666666667</ele><time>2026-03-28T13:49:12.708Z</time></trkpt><trkpt lat="45.6939326" lon="10.7552004"><ele>69.33333333333334</ele><time>2026-03-28T13:49:13.708Z</time></trkpt><trkpt lat="45.6937816" lon="10.7550997"><ele>65.0</ele><time>2026-03-28T13:49:14.708Z</time></trkpt><trkpt lat="45.6936327" lon="10.7549862"><ele>69.66666666666667</ele><time>2026-03-28T13:49:15.709Z</time></trkpt><trkpt lat="45.6934833" lon="10.7548632"><ele>74.33333333333333</ele><time>2026-03-28T13:49:16.707Z</time></trkpt><trkpt lat="45.6933314" lon="10.7547378"><ele>79.0</ele><time>2026-03-28T13:49:17.708Z</time></trkpt><trkpt lat="45.6931784" lon="10.7546093"><ele>79.0</ele><time>2026-03-28T13:49:18.709Z</time></trkpt><trkpt lat="45.6930217" lon="10.7544765"><ele>79.0</ele><time>2026-03-28T13:49:19.709Z</time></trkpt><trkpt lat="45.6928625" lon="10.7543389"><ele>79.0</ele><time>2026-03-28T13:49:20.708Z</time></trkpt><trkpt lat="45.6927006" lon="10.7542026"><ele>77.0</ele><time>2026-03-28T13:49:21.708Z</time></trkpt><trkpt lat="45.6925359" lon="10.75406"><ele>75.0</ele><time>2026-03-28T13:49:22.708Z</time></trkpt><trkpt lat="45.6923692" lon="10.7539186"><ele>73.0</ele><time>2026-03-28T13:49:23.709Z</time></trkpt><trkpt lat="45.6922067" lon="10.7537829"><ele>73.0</ele><time>2026-03-28T13:49:24.708Z</time></trkpt><trkpt lat="45.6920521" lon="10.7536495"><ele>73.0</ele><time>2026-03-28T13:49:25.709Z</time></trkpt><trkpt lat="45.6919002" lon="10.7535201"><ele>73.0</ele><time>2026-03-28T13:49:26.709Z</time></trkpt><trkpt lat="45.6917483" lon="10.7533907"><ele>73.0</ele><time>2026-03-28T13:49:27.708Z</time></trkpt><trkpt lat="45.6915976" lon="10.7532633"><ele>73.0</ele><time>2026-03-28T13:49:28.708Z</time></trkpt><trkpt lat="45.6914507" lon="10.7531357"><ele>73.0</ele><time>2026-03-28T13:49:29.708Z</time></trkpt><trkpt lat="45.6913045" lon="10.7530124"><ele>73.0</ele><time>2026-03-28T13:49:30.709Z</time></trkpt><trkpt lat="45.6911599" lon="10.7528875"><ele>73.0</ele><time>2026-03-28T13:49:31.708Z</time></trkpt><trkpt lat="45.6910205" lon="10.7527692"><ele>73.0</ele><time>2026-03-28T13:49:32.709Z</time></trkpt><trkpt lat="45.6908834" lon="10.7526555"><ele>72.0</ele><time>2026-03-28T13:49:33.708Z</time></trkpt><trkpt lat="45.690745" lon="10.7525446"><ele>71.0</ele><time>2026-03-28T13:49:34.709Z</time></trkpt><trkpt lat="45.6906049" lon="10.7524363"><ele>70.0</ele><time>2026-03-28T13:49:35.708Z</time></trkpt><trkpt lat="45.6904611" lon="10.7523335"><ele>70.0</ele><time>2026-03-28T13:49:36.709Z</time></trkpt><trkpt lat="45.6903176" lon="10.7522331"><ele>70.0</ele><time>2026-03-28T13:49:37.709Z</time></trkpt><trkpt lat="45.6901782" lon="10.7521337"><ele>70.0</ele><time>2026-03-28T13:49:38.708Z</time></trkpt><trkpt lat="45.6900369" lon="10.752039"><ele>69.25</ele><time>2026-03-28T13:49:39.708Z</time></trkpt><trkpt lat="45.6899022" lon="10.7519462"><ele>68.5</ele><time>2026-03-28T13:49:40.708Z</time></trkpt><trkpt lat="45.6897714" lon="10.7518553"><ele>67.75</ele><time>2026-03-28T13:49:41.709Z</time></trkpt><trkpt lat="45.6896432" lon="10.7517633"><ele>67.0</ele><time>2026-03-28T13:49:42.708Z</time></trkpt><trkpt lat="45.6895152" lon="10.7516744"><ele>68.0</ele><time>2026-03-28T13:49:43.708Z</time></trkpt><trkpt lat="45.6893893" lon="10.7515906"><ele>69.0</ele><time>2026-03-28T13:49:44.709Z</time></trkpt><trkpt lat="45.6892642" lon="10.7515101"><ele>70.0</ele><time>2026-03-28T13:49:45.708Z</time></trkpt><trkpt lat="45.6891418" lon="10.7514364"><ele>71.0</ele><time>2026-03-28T13:49:46.708Z</time></trkpt><trkpt lat="45.6890228" lon="10.751364"><ele>71.0</ele><time>2026-03-28T13:49:47.709Z</time></trkpt><trkpt lat="45.6889056" lon="10.7512916"><ele>71.0</ele><time>2026-03-28T13:49:48.708Z</time></trkpt><trkpt lat="45.6887913" lon="10.7512216"><ele>71.0</ele><time>2026-03-28T13:49:49.708Z</time></trkpt><trkpt lat="45.6886762" lon="10.7511559"><ele>71.0</ele><time>2026-03-28T13:49:50.709Z</time></trkpt><trkpt lat="45.6885635" lon="10.7510909"><ele>70.75</ele><time>2026-03-28T13:49:51.708Z</time></trkpt><trkpt lat="45.6884522" lon="10.7510205"><ele>70.5</ele><time>2026-03-28T13:49:52.708Z</time></trkpt><trkpt lat="45.6883453" lon="10.7509451"><ele>70.25</ele><time>2026-03-28T13:49:53.709Z</time></trkpt><trkpt lat="45.6882384" lon="10.7508721"><ele>70.0</ele><time>2026-03-28T13:49:54.708Z</time></trkpt><trkpt lat="45.6881322" lon="10.7508058"><ele>70.0</ele><time>2026-03-28T13:49:55.708Z</time></trkpt><trkpt lat="45.6880255" lon="10.7507391"><ele>70.0</ele><time>2026-03-28T13:49:56.708Z</time></trkpt><trkpt lat="45.6879174" lon="10.7506761"><ele>70.0</ele><time>2026-03-28T13:49:57.709Z</time></trkpt><trkpt lat="45.6878099" lon="10.7506138"><ele>70.0</ele><time>2026-03-28T13:49:58.708Z</time></trkpt><trkpt lat="45.6877029" lon="10.7505549"><ele>71.75</ele><time>2026-03-28T13:49:59.709Z</time></trkpt><trkpt lat="45.6876015" lon="10.7504767"><ele>73.5</ele><time>2026-03-28T13:50:00.708Z</time></trkpt><trkpt lat="45.6875026" lon="10.7503937"><ele>75.25</ele><time>2026-03-28T13:50:01.708Z</time></trkpt><trkpt lat="45.6874069" lon="10.7503041"><ele>77.0</ele><time>2026-03-28T13:50:02.709Z</time></trkpt><trkpt lat="45.6873124" lon="10.7502133"><ele>76.8</ele><time>2026-03-28T13:50:03.708Z</time></trkpt><trkpt lat="45.6872201" lon="10.7501327"><ele>76.6</ele><time>2026-03-28T13:50:04.708Z</time></trkpt><trkpt lat="45.6871301" lon="10.7500613"><ele>76.39999999999999</ele><time>2026-03-28T13:50:05.709Z</time></trkpt><trkpt lat="45.6870435" lon="10.749994"><ele>76.2</ele><time>2026-03-28T13:50:06.709Z</time></trkpt><trkpt lat="45.6869642" lon="10.7499284"><ele>76.0</ele><time>2026-03-28T13:50:07.709Z</time></trkpt><trkpt lat="45.686895" lon="10.7498612"><ele>76.0</ele><time>2026-03-28T13:50:08.708Z</time></trkpt><trkpt lat="45.6868315" lon="10.749788"><ele>76.0</ele><time>2026-03-28T13:50:09.708Z</time></trkpt><trkpt lat="45.6867709" lon="10.749711"><ele>76.0</ele><time>2026-03-28T13:50:10.709Z</time></trkpt><trkpt lat="45.6867074" lon="10.7496301"><ele>76.0</ele><time>2026-03-28T13:50:11.709Z</time></trkpt><trkpt lat="45.6866421" lon="10.7495537"><ele>76.0</ele><time>2026-03-28T13:50:12.708Z</time></trkpt><trkpt lat="45.6865738" lon="10.7494874"><ele>76.0</ele><time>2026-03-28T13:50:13.708Z</time></trkpt><trkpt lat="45.6865065" lon="10.749429"><ele>75.2</ele><time>2026-03-28T13:50:14.708Z</time></trkpt><trkpt lat="45.6864127" lon="10.7493586"><ele>74.39999999999999</ele><time>2026-03-28T13:50:16.708Z</time></trkpt><trkpt lat="45.6863446" lon="10.749308"><ele>73.6</ele><time>2026-03-28T13:50:19.708Z</time></trkpt><trkpt lat="45.6862563" lon="10.7492535"><ele>72.8</ele><time>2026-03-28T13:50:22.708Z</time></trkpt><trkpt lat="45.686172" lon="10.7492011"><ele>72.0</ele><time>2026-03-28T13:50:24.709Z</time></trkpt><trkpt lat="45.6860447" lon="10.749133"><ele>72.0</ele><time>2026-03-28T13:50:26.709Z</time></trkpt><trkpt lat="45.685959" lon="10.7490817"><ele>72.0</ele><time>2026-03-28T13:50:27.708Z</time></trkpt><trkpt lat="45.6858583" lon="10.7490256"><ele>72.0</ele><time>2026-03-28T13:50:28.709Z</time></trkpt><trkpt lat="45.6857489" lon="10.7489602"><ele>72.0</ele><time>2026-03-28T13:50:29.708Z</time></trkpt><trkpt lat="45.6856499" lon="10.7489022"><ele>72.0</ele><time>2026-03-28T13:50:30.708Z</time></trkpt><trkpt lat="45.685553" lon="10.7488461"><ele>72.0</ele><time>2026-03-28T13:50:31.708Z</time></trkpt><trkpt lat="45.6854531" lon="10.748789"><ele>72.0</ele><time>2026-03-28T13:50:32.709Z</time></trkpt><trkpt lat="45.6853499" lon="10.7487324"><ele>72.0</ele><time>2026-03-28T13:50:33.709Z</time></trkpt><trkpt lat="45.6852448" lon="10.7486715"><ele>72.0</ele><time>2026-03-28T13:50:34.708Z</time></trkpt><trkpt lat="45.6851378" lon="10.7486071"><ele>72.0</ele><time>2026-03-28T13:50:35.708Z</time></trkpt><trkpt lat="45.6850289" lon="10.7485384"><ele>71.25</ele><time>2026-03-28T13:50:36.709Z</time></trkpt><trkpt lat="45.6849147" lon="10.74847"><ele>70.5</ele><time>2026-03-28T13:50:37.708Z</time></trkpt><trkpt lat="45.6847971" lon="10.7483906"><ele>69.75</ele><time>2026-03-28T13:50:38.708Z</time></trkpt><trkpt lat="45.6846877" lon="10.7483116"><ele>69.0</ele><time>2026-03-28T13:50:39.709Z</time></trkpt><trkpt lat="45.6845875" lon="10.7482377"><ele>69.0</ele><time>2026-03-28T13:50:40.708Z</time></trkpt><trkpt lat="45.6844877" lon="10.7481548"><ele>69.0</ele><time>2026-03-28T13:50:41.708Z</time></trkpt><trkpt lat="45.6843881" lon="10.7480637"><ele>69.0</ele><time>2026-03-28T13:50:42.708Z</time></trkpt><trkpt lat="45.6842895" lon="10.7479669"><ele>69.0</ele><time>2026-03-28T13:50:43.708Z</time></trkpt><trkpt lat="45.6841881" lon="10.7478681"><ele>68.75</ele><time>2026-03-28T13:50:44.709Z</time></trkpt><trkpt lat="45.6840855" lon="10.7477668"><ele>68.5</ele><time>2026-03-28T13:50:45.709Z</time></trkpt><trkpt lat="45.6839834" lon="10.747669"><ele>68.25</ele><time>2026-03-28T13:50:46.709Z</time></trkpt><trkpt lat="45.6838831" lon="10.7475687"><ele>68.0</ele><time>2026-03-28T13:50:47.709Z</time></trkpt><trkpt lat="45.6837852" lon="10.7474707"><ele>68.0</ele><time>2026-03-28T13:50:48.709Z</time></trkpt><trkpt lat="45.6836878" lon="10.7473734"><ele>68.0</ele><time>2026-03-28T13:50:49.708Z</time></trkpt><trkpt lat="45.6835871" lon="10.7472752"><ele>68.0</ele><time>2026-03-28T13:50:50.708Z</time></trkpt><trkpt lat="45.683482" lon="10.7471725"><ele>68.0</ele><time>2026-03-28T13:50:51.709Z</time></trkpt><trkpt lat="45.6833733" lon="10.7470675"><ele>69.0</ele><time>2026-03-28T13:50:52.708Z</time></trkpt><trkpt lat="45.6832593" lon="10.7469603"><ele>70.0</ele><time>2026-03-28T13:50:53.709Z</time></trkpt><trkpt lat="45.6831365" lon="10.7468456"><ele>71.0</ele><time>2026-03-28T13:50:54.708Z</time></trkpt><trkpt lat="45.6830095" lon="10.7467216"><ele>72.0</ele><time>2026-03-28T13:50:55.709Z</time></trkpt><trkpt lat="45.6828753" lon="10.7465946"><ele>77.33333333333333</ele><time>2026-03-28T13:50:56.709Z</time></trkpt><trkpt lat="45.6827373" lon="10.7464531"><ele>82.66666666666666</ele><time>2026-03-28T13:50:57.709Z</time></trkpt><trkpt lat="45.6826044" lon="10.7463198"><ele>88.0</ele><time>2026-03-28T13:50:58.709Z</time></trkpt><trkpt lat="45.6824754" lon="10.746191"><ele>88.0</ele><time>2026-03-28T13:50:59.708Z</time></trkpt><trkpt lat="45.6823451" lon="10.7460647"><ele>88.0</ele><time>2026-03-28T13:51:00.708Z</time></trkpt><trkpt lat="45.6822069" lon="10.7459327"><ele>88.0</ele><time>2026-03-28T13:51:01.708Z</time></trkpt><trkpt lat="45.6820702" lon="10.7457982"><ele>87.0</ele><time>2026-03-28T13:51:02.709Z</time></trkpt><trkpt lat="45.6819387" lon="10.7456688"><ele>86.0</ele><time>2026-03-28T13:51:03.709Z</time></trkpt><trkpt lat="45.6818124" lon="10.7455421"><ele>85.0</ele><time>2026-03-28T13:51:04.708Z</time></trkpt><trkpt lat="45.6816889" lon="10.745421"><ele>85.0</ele><time>2026-03-28T13:51:05.708Z</time></trkpt><trkpt lat="45.6815677" lon="10.7453023"><ele>85.0</ele><time>2026-03-28T13:51:06.708Z</time></trkpt><trkpt lat="45.681446" lon="10.7451816"><ele>85.0</ele><time>2026-03-28T13:51:07.708Z</time></trkpt><trkpt lat="45.681319" lon="10.7450621"><ele>85.0</ele><time>2026-03-28T13:51:08.708Z</time></trkpt><trkpt lat="45.6811854" lon="10.7449348"><ele>83.33333333333333</ele><time>2026-03-28T13:51:09.708Z</time></trkpt><trkpt lat="45.6810492" lon="10.7447972"><ele>81.66666666666667</ele><time>2026-03-28T13:51:10.709Z</time></trkpt><trkpt lat="45.6809155" lon="10.7446589"><ele>80.0</ele><time>2026-03-28T13:51:11.709Z</time></trkpt><trkpt lat="45.6807905" lon="10.7445263"><ele>80.0</ele><time>2026-03-28T13:51:12.709Z</time></trkpt><trkpt lat="45.6806755" lon="10.744398"><ele>80.0</ele><time>2026-03-28T13:51:13.709Z</time></trkpt><trkpt lat="45.6805675" lon="10.744272"><ele>80.0</ele><time>2026-03-28T13:51:14.709Z</time></trkpt><trkpt lat="45.680463" lon="10.7441362"><ele>80.0</ele><time>2026-03-28T13:51:15.708Z</time></trkpt><trkpt lat="45.6803603" lon="10.7439904"><ele>81.0</ele><time>2026-03-28T13:51:16.709Z</time></trkpt><trkpt lat="45.6802581" lon="10.743834"><ele>82.0</ele><time>2026-03-28T13:51:17.709Z</time></trkpt><trkpt lat="45.6801591" lon="10.7436682"><ele>83.0</ele><time>2026-03-28T13:51:18.709Z</time></trkpt><trkpt lat="45.6800596" lon="10.743493"><ele>79.33333333333334</ele><time>2026-03-28T13:51:19.709Z</time></trkpt><trkpt lat="45.6799626" lon="10.743317"><ele>75.66666666666667</ele><time>2026-03-28T13:51:20.708Z</time></trkpt><trkpt lat="45.6798716" lon="10.7431483"><ele>72.0</ele><time>2026-03-28T13:51:21.709Z</time></trkpt><trkpt lat="45.6797831" lon="10.7429854"><ele>72.0</ele><time>2026-03-28T13:51:22.709Z</time></trkpt><trkpt lat="45.6797" lon="10.7428315"><ele>72.0</ele><time>2026-03-28T13:51:23.708Z</time></trkpt><trkpt lat="45.6796208" lon="10.7426849"><ele>72.0</ele><time>2026-03-28T13:51:24.708Z</time></trkpt><trkpt lat="45.6795385" lon="10.7425302"><ele>72.0</ele><time>2026-03-28T13:51:25.709Z</time></trkpt><trkpt lat="45.6794526" lon="10.7423712"><ele>72.75</ele><time>2026-03-28T13:51:26.708Z</time></trkpt><trkpt lat="45.6793626" lon="10.7422109"><ele>73.5</ele><time>2026-03-28T13:51:27.709Z</time></trkpt><trkpt lat="45.6792751" lon="10.7420519"><ele>74.25</ele><time>2026-03-28T13:51:28.708Z</time></trkpt><trkpt lat="45.6791797" lon="10.7418937"><ele>75.0</ele><time>2026-03-28T13:51:29.708Z</time></trkpt><trkpt lat="45.6790793" lon="10.7417399"><ele>73.25</ele><time>2026-03-28T13:51:30.709Z</time></trkpt><trkpt lat="45.6789764" lon="10.7415911"><ele>71.5</ele><time>2026-03-28T13:51:31.708Z</time></trkpt><trkpt lat="45.6788668" lon="10.7414497"><ele>69.75</ele><time>2026-03-28T13:51:32.708Z</time></trkpt><trkpt lat="45.6787513" lon="10.7413148"><ele>68.0</ele><time>2026-03-28T13:51:33.708Z</time></trkpt><trkpt lat="45.6786364" lon="10.741191"><ele>67.75</ele><time>2026-03-28T13:51:34.709Z</time></trkpt><trkpt lat="45.678526" lon="10.7410815"><ele>67.5</ele><time>2026-03-28T13:51:35.709Z</time></trkpt><trkpt lat="45.6784225" lon="10.7409834"><ele>67.25</ele><time>2026-03-28T13:51:36.709Z</time></trkpt><trkpt lat="45.6783237" lon="10.7408964"><ele>67.0</ele><time>2026-03-28T13:51:37.709Z</time></trkpt><trkpt lat="45.6782242" lon="10.7408154"><ele>67.0</ele><time>2026-03-28T13:51:38.709Z</time></trkpt><trkpt lat="45.6781267" lon="10.7407428"><ele>67.0</ele><time>2026-03-28T13:51:39.708Z</time></trkpt><trkpt lat="45.6780307" lon="10.7406726"><ele>67.0</ele><time>2026-03-28T13:51:40.708Z</time></trkpt><trkpt lat="45.6779342" lon="10.7406091"><ele>67.0</ele><time>2026-03-28T13:51:41.709Z</time></trkpt><trkpt lat="45.6778386" lon="10.7405495"><ele>67.0</ele><time>2026-03-28T13:51:42.709Z</time></trkpt><trkpt lat="45.6777455" lon="10.7404883"><ele>68.2</ele><time>2026-03-28T13:51:43.708Z</time></trkpt><trkpt lat="45.6776576" lon="10.7404328"><ele>69.4</ele><time>2026-03-28T13:51:44.708Z</time></trkpt><trkpt lat="45.6775702" lon="10.7403789"><ele>70.6</ele><time>2026-03-28T13:51:45.708Z</time></trkpt><trkpt lat="45.6774846" lon="10.740327"><ele>71.8</ele><time>2026-03-28T13:51:46.708Z</time></trkpt><trkpt lat="45.6774017" lon="10.7402735"><ele>73.0</ele><time>2026-03-28T13:51:47.707Z</time></trkpt><trkpt lat="45.6773215" lon="10.7402224"><ele>73.2</ele><time>2026-03-28T13:51:48.708Z</time></trkpt><trkpt lat="45.6772412" lon="10.7401695"><ele>73.4</ele><time>2026-03-28T13:51:49.709Z</time></trkpt><trkpt lat="45.6771601" lon="10.740118"><ele>73.60000000000001</ele><time>2026-03-28T13:51:50.708Z</time></trkpt><trkpt lat="45.6770769" lon="10.7400644"><ele>73.8</ele><time>2026-03-28T13:51:51.708Z</time></trkpt><trkpt lat="45.6769922" lon="10.740011"><ele>74.0</ele><time>2026-03-28T13:51:52.709Z</time></trkpt><trkpt lat="45.6769049" lon="10.7399531"><ele>74.0</ele><time>2026-03-28T13:51:53.709Z</time></trkpt><trkpt lat="45.6768142" lon="10.7398957"><ele>74.0</ele><time>2026-03-28T13:51:54.708Z</time></trkpt><trkpt lat="45.6767175" lon="10.739831"><ele>74.0</ele><time>2026-03-28T13:51:55.709Z</time></trkpt><trkpt lat="45.6766162" lon="10.7397668"><ele>74.0</ele><time>2026-03-28T13:51:56.708Z</time></trkpt><trkpt lat="45.6765089" lon="10.7396989"><ele>74.0</ele><time>2026-03-28T13:51:57.708Z</time></trkpt><trkpt lat="45.6764059" lon="10.7396279"><ele>74.0</ele><time>2026-03-28T13:51:58.708Z</time></trkpt><trkpt lat="45.6763054" lon="10.7395608"><ele>74.0</ele><time>2026-03-28T13:51:59.709Z</time></trkpt><trkpt lat="45.6762051" lon="10.7394927"><ele>74.0</ele><time>2026-03-28T13:52:00.709Z</time></trkpt><trkpt lat="45.6761044" lon="10.7394271"><ele>74.0</ele><time>2026-03-28T13:52:01.708Z</time></trkpt><trkpt lat="45.6760074" lon="10.7393657"><ele>74.0</ele><time>2026-03-28T13:52:02.708Z</time></trkpt><trkpt lat="45.6759165" lon="10.7393075"><ele>72.83333333333334</ele><time>2026-03-28T13:52:03.708Z</time></trkpt><trkpt lat="45.675833" lon="10.7392534"><ele>71.66666666666667</ele><time>2026-03-28T13:52:04.708Z</time></trkpt><trkpt lat="45.6757534" lon="10.7392016"><ele>70.5</ele><time>2026-03-28T13:52:05.709Z</time></trkpt><trkpt lat="45.6756735" lon="10.7391511"><ele>69.33333333333333</ele><time>2026-03-28T13:52:06.708Z</time></trkpt><trkpt lat="45.6755947" lon="10.7391033"><ele>68.16666666666666</ele><time>2026-03-28T13:52:07.708Z</time></trkpt><trkpt lat="45.675521" lon="10.7390587"><ele>67.0</ele><time>2026-03-28T13:52:08.709Z</time></trkpt><trkpt lat="45.6754461" lon="10.739011"><ele>67.0</ele><time>2026-03-28T13:52:09.709Z</time></trkpt><trkpt lat="45.6753664" lon="10.7389614"><ele>67.0</ele><time>2026-03-28T13:52:10.709Z</time></trkpt><trkpt lat="45.6752819" lon="10.7389079"><ele>67.0</ele><time>2026-03-28T13:52:11.709Z</time></trkpt><trkpt lat="45.6751921" lon="10.7388507"><ele>67.0</ele><time>2026-03-28T13:52:12.708Z</time></trkpt><trkpt lat="45.6750969" lon="10.7387871"><ele>67.0</ele><time>2026-03-28T13:52:13.708Z</time></trkpt><trkpt lat="45.6749973" lon="10.7387233"><ele>67.0</ele><time>2026-03-28T13:52:14.708Z</time></trkpt><trkpt lat="45.6748962" lon="10.7386618"><ele>67.0</ele><time>2026-03-28T13:52:15.709Z</time></trkpt><trkpt lat="45.6748014" lon="10.7386032"><ele>67.0</ele><time>2026-03-28T13:52:16.708Z</time></trkpt><trkpt lat="45.6747103" lon="10.7385442"><ele>67.0</ele><time>2026-03-28T13:52:17.709Z</time></trkpt><trkpt lat="45.6746231" lon="10.7384849"><ele>67.0</ele><time>2026-03-28T13:52:18.709Z</time></trkpt><trkpt lat="45.6745328" lon="10.7384261"><ele>69.2</ele><time>2026-03-28T13:52:19.709Z</time></trkpt><trkpt lat="45.6744371" lon="10.7383662"><ele>71.4</ele><time>2026-03-28T13:52:20.709Z</time></trkpt><trkpt lat="45.6743384" lon="10.7383019"><ele>73.6</ele><time>2026-03-28T13:52:21.709Z</time></trkpt><trkpt lat="45.6742419" lon="10.7382361"><ele>75.8</ele><time>2026-03-28T13:52:22.709Z</time></trkpt><trkpt lat="45.6741482" lon="10.7381799"><ele>78.0</ele><time>2026-03-28T13:52:23.708Z</time></trkpt><trkpt lat="45.6740556" lon="10.7381162"><ele>78.0</ele><time>2026-03-28T13:52:24.709Z</time></trkpt><trkpt lat="45.6739602" lon="10.7380434"><ele>78.0</ele><time>2026-03-28T13:52:25.709Z</time></trkpt><trkpt lat="45.6738614" lon="10.7379666"><ele>78.0</ele><time>2026-03-28T13:52:26.709Z</time></trkpt><trkpt lat="45.6737585" lon="10.737874"><ele>78.0</ele><time>2026-03-28T13:52:27.709Z</time></trkpt><trkpt lat="45.6736536" lon="10.7377783"><ele>76.0</ele><time>2026-03-28T13:52:28.708Z</time></trkpt><trkpt lat="45.6735473" lon="10.7376785"><ele>74.0</ele><time>2026-03-28T13:52:29.709Z</time></trkpt><trkpt lat="45.6734379" lon="10.7375743"><ele>72.0</ele><time>2026-03-28T13:52:30.709Z</time></trkpt><trkpt lat="45.6733287" lon="10.7374677"><ele>70.0</ele><time>2026-03-28T13:52:31.708Z</time></trkpt><trkpt lat="45.6732226" lon="10.7373633"><ele>70.0</ele><time>2026-03-28T13:52:32.709Z</time></trkpt><trkpt lat="45.6731207" lon="10.7372583"><ele>70.0</ele><time>2026-03-28T13:52:33.708Z</time></trkpt><trkpt lat="45.6730177" lon="10.7371506"><ele>70.0</ele><time>2026-03-28T13:52:34.709Z</time></trkpt><trkpt lat="45.6729182" lon="10.7370418"><ele>70.0</ele><time>2026-03-28T13:52:35.709Z</time></trkpt><trkpt lat="45.6728181" lon="10.7369347"><ele>71.0</ele><time>2026-03-28T13:52:36.709Z</time></trkpt><trkpt lat="45.6727131" lon="10.7368255"><ele>72.0</ele><time>2026-03-28T13:52:37.708Z</time></trkpt><trkpt lat="45.6726023" lon="10.7367189"><ele>73.0</ele><time>2026-03-28T13:52:38.709Z</time></trkpt><trkpt lat="45.6724868" lon="10.7366135"><ele>74.0</ele><time>2026-03-28T13:52:39.709Z</time></trkpt><trkpt lat="45.672365" lon="10.736504"><ele>74.0</ele><time>2026-03-28T13:52:40.709Z</time></trkpt><trkpt lat="45.6722372" lon="10.7363923"><ele>74.0</ele><time>2026-03-28T13:52:41.708Z</time></trkpt><trkpt lat="45.6721076" lon="10.736278"><ele>74.0</ele><time>2026-03-28T13:52:42.708Z</time></trkpt><trkpt lat="45.671978" lon="10.7361609"><ele>74.0</ele><time>2026-03-28T13:52:43.708Z</time></trkpt><trkpt lat="45.6718534" lon="10.7360461"><ele>74.0</ele><time>2026-03-28T13:52:44.708Z</time></trkpt><trkpt lat="45.6717315" lon="10.7359381"><ele>74.0</ele><time>2026-03-28T13:52:45.708Z</time></trkpt><trkpt lat="45.671607" lon="10.7358212"><ele>74.0</ele><time>2026-03-28T13:52:46.708Z</time></trkpt><trkpt lat="45.6714734" lon="10.7357028"><ele>74.0</ele><time>2026-03-28T13:52:47.709Z</time></trkpt><trkpt lat="45.6713306" lon="10.7355741"><ele>74.0</ele><time>2026-03-28T13:52:48.708Z</time></trkpt><trkpt lat="45.6711812" lon="10.7354339"><ele>74.0</ele><time>2026-03-28T13:52:49.708Z</time></trkpt><trkpt lat="45.6710269" lon="10.7352828"><ele>74.66666666666667</ele><time>2026-03-28T13:52:50.709Z</time></trkpt><trkpt lat="45.670867" lon="10.7351229"><ele>75.33333333333333</ele><time>2026-03-28T13:52:51.708Z</time></trkpt><trkpt lat="45.6707033" lon="10.7349564"><ele>76.0</ele><time>2026-03-28T13:52:52.709Z</time></trkpt><trkpt lat="45.6705423" lon="10.7347935"><ele>76.0</ele><time>2026-03-28T13:52:53.708Z</time></trkpt><trkpt lat="45.6703904" lon="10.7346454"><ele>76.0</ele><time>2026-03-28T13:52:54.709Z</time></trkpt><trkpt lat="45.6702418" lon="10.7345009"><ele>76.0</ele><time>2026-03-28T13:52:55.708Z</time></trkpt><trkpt lat="45.670097" lon="10.7343611"><ele>75.0</ele><time>2026-03-28T13:52:56.709Z</time></trkpt><trkpt lat="45.6699522" lon="10.7342222"><ele>74.0</ele><time>2026-03-28T13:52:57.709Z</time></trkpt><trkpt lat="45.669805" lon="10.7340808"><ele>73.0</ele><time>2026-03-28T13:52:58.709Z</time></trkpt><trkpt lat="45.6696557" lon="10.7339381"><ele>73.0</ele><time>2026-03-28T13:52:59.708Z</time></trkpt><trkpt lat="45.6695038" lon="10.7337933"><ele>73.0</ele><time>2026-03-28T13:53:00.708Z</time></trkpt><trkpt lat="45.6693493" lon="10.7336447"><ele>73.0</ele><time>2026-03-28T13:53:01.709Z</time></trkpt><trkpt lat="45.6691947" lon="10.7334988"><ele>71.0</ele><time>2026-03-28T13:53:02.708Z</time></trkpt><trkpt lat="45.6690401" lon="10.7333502"><ele>69.0</ele><time>2026-03-28T13:53:03.708Z</time></trkpt><trkpt lat="45.6688843" lon="10.7332"><ele>67.0</ele><time>2026-03-28T13:53:04.708Z</time></trkpt><trkpt lat="45.6687368" lon="10.7330573"><ele>67.33333333333333</ele><time>2026-03-28T13:53:05.708Z</time></trkpt><trkpt lat="45.6685938" lon="10.7329228"><ele>67.66666666666667</ele><time>2026-03-28T13:53:06.708Z</time></trkpt><trkpt lat="45.6684491" lon="10.7327896"><ele>68.0</ele><time>2026-03-28T13:53:07.709Z</time></trkpt><trkpt lat="45.6683046" lon="10.7326563"><ele>68.0</ele><time>2026-03-28T13:53:08.709Z</time></trkpt><trkpt lat="45.6681523" lon="10.7325281"><ele>68.0</ele><time>2026-03-28T13:53:09.709Z</time></trkpt><trkpt lat="45.6679913" lon="10.732404"><ele>68.0</ele><time>2026-03-28T13:53:10.708Z</time></trkpt><trkpt lat="45.6678247" lon="10.7322851"><ele>73.33333333333334</ele><time>2026-03-28T13:53:11.709Z</time></trkpt><trkpt lat="45.6676521" lon="10.7321712"><ele>78.66666666666667</ele><time>2026-03-28T13:53:12.708Z</time></trkpt><trkpt lat="45.6674751" lon="10.7320559"><ele>84.0</ele><time>2026-03-28T13:53:13.708Z</time></trkpt><trkpt lat="45.6672968" lon="10.7319438"><ele>81.0</ele><time>2026-03-28T13:53:14.708Z</time></trkpt><trkpt lat="45.6671255" lon="10.7318351"><ele>78.0</ele><time>2026-03-28T13:53:15.709Z</time></trkpt><trkpt lat="45.666964" lon="10.7317329"><ele>75.0</ele><time>2026-03-28T13:53:16.709Z</time></trkpt><trkpt lat="45.6668043" lon="10.7316301"><ele>75.0</ele><time>2026-03-28T13:53:17.708Z</time></trkpt><trkpt lat="45.6666442" lon="10.7315265"><ele>75.0</ele><time>2026-03-28T13:53:18.709Z</time></trkpt><trkpt lat="45.6664832" lon="10.7314188"><ele>75.0</ele><time>2026-03-28T13:53:19.709Z</time></trkpt><trkpt lat="45.6663306" lon="10.7313116"><ele>75.0</ele><time>2026-03-28T13:53:20.708Z</time></trkpt><trkpt lat="45.6661842" lon="10.7312056"><ele>75.0</ele><time>2026-03-28T13:53:21.708Z</time></trkpt><trkpt lat="45.6660402" lon="10.7310899"><ele>75.0</ele><time>2026-03-28T13:53:22.708Z</time></trkpt><trkpt lat="45.6658967" lon="10.7309686"><ele>74.33333333333333</ele><time>2026-03-28T13:53:23.708Z</time></trkpt><trkpt lat="45.6657579" lon="10.7308466"><ele>73.66666666666666</ele><time>2026-03-28T13:53:24.708Z</time></trkpt><trkpt lat="45.6656185" lon="10.7307234"><ele>73.0</ele><time>2026-03-28T13:53:25.708Z</time></trkpt><trkpt lat="45.6654739" lon="10.7305989"><ele>73.0</ele><time>2026-03-28T13:53:26.709Z</time></trkpt><trkpt lat="45.6653287" lon="10.7304732"><ele>73.0</ele><time>2026-03-28T13:53:27.708Z</time></trkpt><trkpt lat="45.6651872" lon="10.7303492"><ele>73.0</ele><time>2026-03-28T13:53:28.709Z</time></trkpt><trkpt lat="45.6650431" lon="10.7302229"><ele>71.66666666666666</ele><time>2026-03-28T13:53:29.709Z</time></trkpt><trkpt lat="45.6648976" lon="10.7300935"><ele>70.33333333333333</ele><time>2026-03-28T13:53:30.709Z</time></trkpt><trkpt lat="45.6647519" lon="10.729966"><ele>69.0</ele><time>2026-03-28T13:53:31.708Z</time></trkpt><trkpt lat="45.6646112" lon="10.7298445"><ele>69.0</ele><time>2026-03-28T13:53:32.709Z</time></trkpt><trkpt lat="45.664471" lon="10.7297242"><ele>69.0</ele><time>2026-03-28T13:53:33.708Z</time></trkpt><trkpt lat="45.6643312" lon="10.7296005"><ele>69.0</ele><time>2026-03-28T13:53:34.708Z</time></trkpt><trkpt lat="45.6641865" lon="10.7294722"><ele>68.33333333333333</ele><time>2026-03-28T13:53:35.708Z</time></trkpt><trkpt lat="45.6640391" lon="10.7293415"><ele>67.66666666666666</ele><time>2026-03-28T13:53:36.708Z</time></trkpt><trkpt lat="45.6638986" lon="10.7292161"><ele>67.0</ele><time>2026-03-28T13:53:37.709Z</time></trkpt><trkpt lat="45.6637665" lon="10.7291006"><ele>67.0</ele><time>2026-03-28T13:53:38.708Z</time></trkpt><trkpt lat="45.6636378" lon="10.7289899"><ele>67.0</ele><time>2026-03-28T13:53:39.709Z</time></trkpt><trkpt lat="45.6635079" lon="10.7288766"><ele>67.0</ele><time>2026-03-28T13:53:40.709Z</time></trkpt><trkpt lat="45.6633805" lon="10.7287658"><ele>66.5</ele><time>2026-03-28T13:53:41.708Z</time></trkpt><trkpt lat="45.6632612" lon="10.728661"><ele>66.0</ele><time>2026-03-28T13:53:42.708Z</time></trkpt><trkpt lat="45.6631425" lon="10.7285594"><ele>65.5</ele><time>2026-03-28T13:53:43.708Z</time></trkpt><trkpt lat="45.6630221" lon="10.7284588"><ele>65.0</ele><time>2026-03-28T13:53:44.708Z</time></trkpt><trkpt lat="45.6629005" lon="10.728367"><ele>68.75</ele><time>2026-03-28T13:53:45.709Z</time></trkpt><trkpt lat="45.6627767" lon="10.7282777"><ele>72.5</ele><time>2026-03-28T13:53:46.708Z</time></trkpt><trkpt lat="45.6626399" lon="10.7281885"><ele>76.25</ele><time>2026-03-28T13:53:47.708Z</time></trkpt><trkpt lat="45.6624921" lon="10.7281081"><ele>80.0</ele><time>2026-03-28T13:53:48.708Z</time></trkpt><trkpt lat="45.6623267" lon="10.7280205"><ele>80.0</ele><time>2026-03-28T13:53:49.708Z</time></trkpt><trkpt lat="45.6621421" lon="10.7279192"><ele>80.0</ele><time>2026-03-28T13:53:50.708Z</time></trkpt><trkpt lat="45.6619606" lon="10.7278078"><ele>80.0</ele><time>2026-03-28T13:53:51.709Z</time></trkpt><trkpt lat="45.6617995" lon="10.7276847"><ele>76.33333333333334</ele><time>2026-03-28T13:53:52.708Z</time></trkpt><trkpt lat="45.6616524" lon="10.7275355"><ele>72.66666666666667</ele><time>2026-03-28T13:53:53.709Z</time></trkpt><trkpt lat="45.6615089" lon="10.7273665"><ele>69.0</ele><time>2026-03-28T13:53:54.709Z</time></trkpt><trkpt lat="45.6613733" lon="10.7271866"><ele>69.0</ele><time>2026-03-28T13:53:55.709Z</time></trkpt><trkpt lat="45.6612471" lon="10.7270166"><ele>69.0</ele><time>2026-03-28T13:53:56.708Z</time></trkpt><trkpt lat="45.6611191" lon="10.7268614"><ele>69.0</ele><time>2026-03-28T13:53:57.709Z</time></trkpt><trkpt lat="45.6609781" lon="10.7267312"><ele>71.0</ele><time>2026-03-28T13:53:58.708Z</time></trkpt><trkpt lat="45.6608215" lon="10.7266126"><ele>73.0</ele><time>2026-03-28T13:53:59.709Z</time></trkpt><trkpt lat="45.6606546" lon="10.7265062"><ele>75.0</ele><time>2026-03-28T13:54:00.709Z</time></trkpt><trkpt lat="45.660476" lon="10.7264036"><ele>75.0</ele><time>2026-03-28T13:54:01.709Z</time></trkpt><trkpt lat="45.660291" lon="10.7263011"><ele>75.0</ele><time>2026-03-28T13:54:02.709Z</time></trkpt><trkpt lat="45.660104" lon="10.7261962"><ele>75.0</ele><time>2026-03-28T13:54:03.708Z</time></trkpt><trkpt lat="45.659926" lon="10.7260956"><ele>75.0</ele><time>2026-03-28T13:54:04.708Z</time></trkpt><trkpt lat="45.6597566" lon="10.7260003"><ele>75.0</ele><time>2026-03-28T13:54:05.708Z</time></trkpt><trkpt lat="45.6595915" lon="10.7259058"><ele>75.0</ele><time>2026-03-28T13:54:06.708Z</time></trkpt><trkpt lat="45.6594286" lon="10.7258154"><ele>75.0</ele><time>2026-03-28T13:54:07.708Z</time></trkpt><trkpt lat="45.659269" lon="10.7257259"><ele>75.0</ele><time>2026-03-28T13:54:08.709Z</time></trkpt><trkpt lat="45.6591111" lon="10.7256395"><ele>75.0</ele><time>2026-03-28T13:54:09.708Z</time></trkpt><trkpt lat="45.6589568" lon="10.7255507"><ele>75.0</ele><time>2026-03-28T13:54:10.708Z</time></trkpt><trkpt lat="45.658809" lon="10.7254598"><ele>75.0</ele><time>2026-03-28T13:54:11.708Z</time></trkpt><trkpt lat="45.6586713" lon="10.7253687"><ele>75.0</ele><time>2026-03-28T13:54:12.709Z</time></trkpt><trkpt lat="45.6585435" lon="10.7252757"><ele>72.75</ele><time>2026-03-28T13:54:13.708Z</time></trkpt><trkpt lat="45.6584214" lon="10.7251737"><ele>70.5</ele><time>2026-03-28T13:54:14.708Z</time></trkpt><trkpt lat="45.6583021" lon="10.7250596"><ele>68.25</ele><time>2026-03-28T13:54:15.709Z</time></trkpt><trkpt lat="45.6581835" lon="10.724936"><ele>66.0</ele><time>2026-03-28T13:54:16.708Z</time></trkpt><trkpt lat="45.6580649" lon="10.7248068"><ele>66.0</ele><time>2026-03-28T13:54:17.708Z</time></trkpt><trkpt lat="45.6579507" lon="10.724676"><ele>66.0</ele><time>2026-03-28T13:54:18.708Z</time></trkpt><trkpt lat="45.6578388" lon="10.7245515"><ele>66.0</ele><time>2026-03-28T13:54:19.708Z</time></trkpt><trkpt lat="45.657728" lon="10.7244262"><ele>66.0</ele><time>2026-03-28T13:54:20.708Z</time></trkpt><trkpt lat="45.657618" lon="10.7243082"><ele>66.0</ele><time>2026-03-28T13:54:21.709Z</time></trkpt><trkpt lat="45.6575106" lon="10.7241961"><ele>66.0</ele><time>2026-03-28T13:54:22.709Z</time></trkpt><trkpt lat="45.6574018" lon="10.724089"><ele>66.0</ele><time>2026-03-28T13:54:23.708Z</time></trkpt><trkpt lat="45.6572914" lon="10.7239836"><ele>66.0</ele><time>2026-03-28T13:54:24.709Z</time></trkpt><trkpt lat="45.6571771" lon="10.7238803"><ele>66.0</ele><time>2026-03-28T13:54:25.709Z</time></trkpt><trkpt lat="45.6570588" lon="10.7237815"><ele>66.0</ele><time>2026-03-28T13:54:26.708Z</time></trkpt><trkpt lat="45.6569371" lon="10.7236873"><ele>66.0</ele><time>2026-03-28T13:54:27.708Z</time></trkpt><trkpt lat="45.6568136" lon="10.7235988"><ele>66.0</ele><time>2026-03-28T13:54:28.708Z</time></trkpt><trkpt lat="45.6566881" lon="10.7235177"><ele>65.5</ele><time>2026-03-28T13:54:29.709Z</time></trkpt><trkpt lat="45.6565627" lon="10.7234397"><ele>65.0</ele><time>2026-03-28T13:54:30.708Z</time></trkpt><trkpt lat="45.6564343" lon="10.7233647"><ele>64.5</ele><time>2026-03-28T13:54:31.708Z</time></trkpt><trkpt lat="45.6563049" lon="10.7232921"><ele>64.0</ele><time>2026-03-28T13:54:32.708Z</time></trkpt><trkpt lat="45.656176" lon="10.723225"><ele>65.25</ele><time>2026-03-28T13:54:33.709Z</time></trkpt><trkpt lat="45.6560468" lon="10.7231568"><ele>66.5</ele><time>2026-03-28T13:54:34.708Z</time></trkpt><trkpt lat="45.6559227" lon="10.7230926"><ele>67.75</ele><time>2026-03-28T13:54:35.708Z</time></trkpt><trkpt lat="45.6558041" lon="10.7230297"><ele>69.0</ele><time>2026-03-28T13:54:36.709Z</time></trkpt><trkpt lat="45.6556889" lon="10.7229717"><ele>69.0</ele><time>2026-03-28T13:54:37.708Z</time></trkpt><trkpt lat="45.6555736" lon="10.7229141"><ele>69.0</ele><time>2026-03-28T13:54:38.709Z</time></trkpt><trkpt lat="45.6554606" lon="10.7228636"><ele>69.0</ele><time>2026-03-28T13:54:39.708Z</time></trkpt><trkpt lat="45.6553491" lon="10.7228209"><ele>69.0</ele><time>2026-03-28T13:54:40.709Z</time></trkpt><trkpt lat="45.6552373" lon="10.7227831"><ele>68.60000000000001</ele><time>2026-03-28T13:54:41.709Z</time></trkpt><trkpt lat="45.6551291" lon="10.7227508"><ele>68.2</ele><time>2026-03-28T13:54:42.708Z</time></trkpt><trkpt lat="45.6550256" lon="10.7227205"><ele>67.80000000000001</ele><time>2026-03-28T13:54:43.708Z</time></trkpt><trkpt lat="45.6549279" lon="10.7226932"><ele>67.4</ele><time>2026-03-28T13:54:44.709Z</time></trkpt><trkpt lat="45.6548337" lon="10.7226713"><ele>67.0</ele><time>2026-03-28T13:54:45.708Z</time></trkpt><trkpt lat="45.6547386" lon="10.7226446"><ele>67.0</ele><time>2026-03-28T13:54:46.709Z</time></trkpt><trkpt lat="45.6546423" lon="10.7226231"><ele>67.0</ele><time>2026-03-28T13:54:47.709Z</time></trkpt><trkpt lat="45.6545444" lon="10.7226034"><ele>67.0</ele><time>2026-03-28T13:54:48.709Z</time></trkpt><trkpt lat="45.6544451" lon="10.7225812"><ele>67.0</ele><time>2026-03-28T13:54:49.708Z</time></trkpt><trkpt lat="45.6543427" lon="10.7225603"><ele>67.0</ele><time>2026-03-28T13:54:50.709Z</time></trkpt><trkpt lat="45.654234" lon="10.7225371"><ele>68.25</ele><time>2026-03-28T13:54:51.708Z</time></trkpt><trkpt lat="45.6541243" lon="10.7225128"><ele>69.5</ele><time>2026-03-28T13:54:52.709Z</time></trkpt><trkpt lat="45.6540102" lon="10.7224886"><ele>70.75</ele><time>2026-03-28T13:54:53.708Z</time></trkpt><trkpt lat="45.6538923" lon="10.7224618"><ele>72.0</ele><time>2026-03-28T13:54:54.709Z</time></trkpt><trkpt lat="45.6537724" lon="10.7224275"><ele>72.0</ele><time>2026-03-28T13:54:55.708Z</time></trkpt><trkpt lat="45.6536497" lon="10.722382"><ele>72.0</ele><time>2026-03-28T13:54:56.708Z</time></trkpt><trkpt lat="45.6535253" lon="10.7223222"><ele>72.0</ele><time>2026-03-28T13:54:57.708Z</time></trkpt><trkpt lat="45.6534059" lon="10.7222557"><ele>72.0</ele><time>2026-03-28T13:54:58.709Z</time></trkpt><trkpt lat="45.6532872" lon="10.7221831"><ele>72.5</ele><time>2026-03-28T13:54:59.708Z</time></trkpt><trkpt lat="45.6531689" lon="10.7221011"><ele>73.0</ele><time>2026-03-28T13:55:00.708Z</time></trkpt><trkpt lat="45.6530463" lon="10.7220165"><ele>73.5</ele><time>2026-03-28T13:55:01.709Z</time></trkpt><trkpt lat="45.6529171" lon="10.7219335"><ele>74.0</ele><time>2026-03-28T13:55:02.709Z</time></trkpt><trkpt lat="45.6527815" lon="10.7218489"><ele>72.0</ele><time>2026-03-28T13:55:03.708Z</time></trkpt><trkpt lat="45.6526369" lon="10.7217674"><ele>70.0</ele><time>2026-03-28T13:55:04.709Z</time></trkpt><trkpt lat="45.6524911" lon="10.7216882"><ele>68.0</ele><time>2026-03-28T13:55:05.708Z</time></trkpt><trkpt lat="45.6523506" lon="10.7216186"><ele>68.0</ele><time>2026-03-28T13:55:06.709Z</time></trkpt><trkpt lat="45.6522168" lon="10.7215528"><ele>68.0</ele><time>2026-03-28T13:55:07.708Z</time></trkpt><trkpt lat="45.6520882" lon="10.7214905"><ele>68.0</ele><time>2026-03-28T13:55:08.708Z</time></trkpt><trkpt lat="45.651962" lon="10.7214305"><ele>68.0</ele><time>2026-03-28T13:55:09.708Z</time></trkpt><trkpt lat="45.6518361" lon="10.7213657"><ele>70.25</ele><time>2026-03-28T13:55:10.709Z</time></trkpt><trkpt lat="45.6517093" lon="10.7212994"><ele>72.5</ele><time>2026-03-28T13:55:11.708Z</time></trkpt><trkpt lat="45.6515797" lon="10.721224"><ele>74.75</ele><time>2026-03-28T13:55:12.709Z</time></trkpt><trkpt lat="45.6514494" lon="10.7211488"><ele>77.0</ele><time>2026-03-28T13:55:13.709Z</time></trkpt><trkpt lat="45.6513208" lon="10.7210714"><ele>76.25</ele><time>2026-03-28T13:55:14.708Z</time></trkpt><trkpt lat="45.6511956" lon="10.7209915"><ele>75.5</ele><time>2026-03-28T13:55:15.709Z</time></trkpt><trkpt lat="45.6510714" lon="10.7209079"><ele>74.75</ele><time>2026-03-28T13:55:16.708Z</time></trkpt><trkpt lat="45.650947" lon="10.7208191"><ele>74.0</ele><time>2026-03-28T13:55:17.708Z</time></trkpt><trkpt lat="45.6508294" lon="10.7207249"><ele>74.0</ele><time>2026-03-28T13:55:18.708Z</time></trkpt><trkpt lat="45.6507133" lon="10.7206334"><ele>74.0</ele><time>2026-03-28T13:55:19.709Z</time></trkpt><trkpt lat="45.6505998" lon="10.7205351"><ele>74.0</ele><time>2026-03-28T13:55:20.708Z</time></trkpt><trkpt lat="45.6504879" lon="10.720429"><ele>74.0</ele><time>2026-03-28T13:55:21.708Z</time></trkpt><trkpt lat="45.650377" lon="10.7203162"><ele>73.5</ele><time>2026-03-28T13:55:22.708Z</time></trkpt><trkpt lat="45.6502688" lon="10.7202"><ele>73.0</ele><time>2026-03-28T13:55:23.709Z</time></trkpt><trkpt lat="45.6501596" lon="10.7200823"><ele>72.5</ele><time>2026-03-28T13:55:24.709Z</time></trkpt><trkpt lat="45.6500516" lon="10.7199624"><ele>72.0</ele><time>2026-03-28T13:55:25.709Z</time></trkpt><trkpt lat="45.6499415" lon="10.7198383"><ele>72.0</ele><time>2026-03-28T13:55:26.709Z</time></trkpt><trkpt lat="45.649831" lon="10.7197178"><ele>72.0</ele><time>2026-03-28T13:55:27.708Z</time></trkpt><trkpt lat="45.6497199" lon="10.7195988"><ele>72.0</ele><time>2026-03-28T13:55:28.708Z</time></trkpt><trkpt lat="45.6496073" lon="10.7194773"><ele>72.0</ele><time>2026-03-28T13:55:29.708Z</time></trkpt><trkpt lat="45.6494977" lon="10.7193611"><ele>72.5</ele><time>2026-03-28T13:55:30.708Z</time></trkpt><trkpt lat="45.6493948" lon="10.7192488"><ele>73.0</ele><time>2026-03-28T13:55:31.708Z</time></trkpt><trkpt lat="45.6492981" lon="10.7191431"><ele>73.5</ele><time>2026-03-28T13:55:32.709Z</time></trkpt><trkpt lat="45.6492041" lon="10.7190416"><ele>74.0</ele><time>2026-03-28T13:55:33.708Z</time></trkpt><trkpt lat="45.6491143" lon="10.7189426"><ele>74.0</ele><time>2026-03-28T13:55:34.708Z</time></trkpt><trkpt lat="45.6490233" lon="10.7188399"><ele>74.0</ele><time>2026-03-28T13:55:35.708Z</time></trkpt><trkpt lat="45.6489324" lon="10.7187364"><ele>74.0</ele><time>2026-03-28T13:55:36.708Z</time></trkpt><trkpt lat="45.6488455" lon="10.7186254"><ele>74.0</ele><time>2026-03-28T13:55:37.709Z</time></trkpt><trkpt lat="45.6487602" lon="10.7185099"><ele>75.0</ele><time>2026-03-28T13:55:38.708Z</time></trkpt><trkpt lat="45.648679" lon="10.7183894"><ele>76.0</ele><time>2026-03-28T13:55:39.708Z</time></trkpt><trkpt lat="45.6486046" lon="10.7182575"><ele>77.0</ele><time>2026-03-28T13:55:40.708Z</time></trkpt><trkpt lat="45.648532" lon="10.7181153"><ele>78.0</ele><time>2026-03-28T13:55:41.708Z</time></trkpt><trkpt lat="45.6484632" lon="10.7179653"><ele>78.0</ele><time>2026-03-28T13:55:42.708Z</time></trkpt><trkpt lat="45.6483961" lon="10.7178084"><ele>78.0</ele><time>2026-03-28T13:55:43.708Z</time></trkpt><trkpt lat="45.6483311" lon="10.71765"><ele>78.0</ele><time>2026-03-28T13:55:44.708Z</time></trkpt><trkpt lat="45.6482686" lon="10.7174921"><ele>78.0</ele><time>2026-03-28T13:55:45.708Z</time></trkpt><trkpt lat="45.648208" lon="10.7173359"><ele>75.75</ele><time>2026-03-28T13:55:46.708Z</time></trkpt><trkpt lat="45.6481494" lon="10.7171825"><ele>73.5</ele><time>2026-03-28T13:55:47.708Z</time></trkpt><trkpt lat="45.648086" lon="10.7170268"><ele>71.25</ele><time>2026-03-28T13:55:48.708Z</time></trkpt><trkpt lat="45.6480248" lon="10.7168708"><ele>69.0</ele><time>2026-03-28T13:55:49.709Z</time></trkpt><trkpt lat="45.6479629" lon="10.7167113"><ele>68.25</ele><time>2026-03-28T13:55:50.708Z</time></trkpt><trkpt lat="45.6478949" lon="10.7165496"><ele>67.5</ele><time>2026-03-28T13:55:51.708Z</time></trkpt><trkpt lat="45.6478231" lon="10.71639"><ele>66.75</ele><time>2026-03-28T13:55:52.708Z</time></trkpt><trkpt lat="45.6477458" lon="10.7162347"><ele>66.0</ele><time>2026-03-28T13:55:53.708Z</time></trkpt><trkpt lat="45.6476579" lon="10.7160846"><ele>67.25</ele><time>2026-03-28T13:55:54.708Z</time></trkpt><trkpt lat="45.6475624" lon="10.7159429"><ele>68.5</ele><time>2026-03-28T13:55:55.709Z</time></trkpt><trkpt lat="45.6474583" lon="10.7158119"><ele>69.75</ele><time>2026-03-28T13:55:56.709Z</time></trkpt><trkpt lat="45.6473469" lon="10.7156956"><ele>71.0</ele><time>2026-03-28T13:55:57.709Z</time></trkpt><trkpt lat="45.6472231" lon="10.7155944"><ele>71.0</ele><time>2026-03-28T13:55:58.709Z</time></trkpt><trkpt lat="45.6470929" lon="10.715502"><ele>71.0</ele><time>2026-03-28T13:55:59.709Z</time></trkpt><trkpt lat="45.6469593" lon="10.715415"><ele>71.0</ele><time>2026-03-28T13:56:00.708Z</time></trkpt><trkpt lat="45.6468303" lon="10.715334"><ele>71.0</ele><time>2026-03-28T13:56:01.709Z</time></trkpt><trkpt lat="45.6467068" lon="10.7152586"><ele>69.5</ele><time>2026-03-28T13:56:02.708Z</time></trkpt><trkpt lat="45.6465863" lon="10.7151875"><ele>68.0</ele><time>2026-03-28T13:56:03.708Z</time></trkpt><trkpt lat="45.6464652" lon="10.7151128"><ele>66.5</ele><time>2026-03-28T13:56:04.708Z</time></trkpt><trkpt lat="45.6463403" lon="10.7150373"><ele>65.0</ele><time>2026-03-28T13:56:05.709Z</time></trkpt><trkpt lat="45.6462121" lon="10.7149588"><ele>66.5</ele><time>2026-03-28T13:56:06.709Z</time></trkpt><trkpt lat="45.6460836" lon="10.7148804"><ele>68.0</ele><time>2026-03-28T13:56:07.708Z</time></trkpt><trkpt lat="45.6459523" lon="10.7148002"><ele>69.5</ele><time>2026-03-28T13:56:08.709Z</time></trkpt><trkpt lat="45.6458184" lon="10.7147209"><ele>71.0</ele><time>2026-03-28T13:56:09.709Z</time></trkpt><trkpt lat="45.6456847" lon="10.7146356"><ele>71.0</ele><time>2026-03-28T13:56:10.708Z</time></trkpt><trkpt lat="45.645552" lon="10.7145361"><ele>71.0</ele><time>2026-03-28T13:56:11.708Z</time></trkpt><trkpt lat="45.6454208" lon="10.7144283"><ele>71.0</ele><time>2026-03-28T13:56:12.708Z</time></trkpt><trkpt lat="45.6452912" lon="10.7143102"><ele>71.66666666666667</ele><time>2026-03-28T13:56:13.709Z</time></trkpt><trkpt lat="45.6451595" lon="10.7141855"><ele>72.33333333333333</ele><time>2026-03-28T13:56:14.708Z</time></trkpt><trkpt lat="45.6450249" lon="10.7140578"><ele>73.0</ele><time>2026-03-28T13:56:15.708Z</time></trkpt><trkpt lat="45.6448932" lon="10.7139319"><ele>73.0</ele><time>2026-03-28T13:56:16.709Z</time></trkpt><trkpt lat="45.6447683" lon="10.7138103"><ele>73.0</ele><time>2026-03-28T13:56:17.709Z</time></trkpt><trkpt lat="45.6446443" lon="10.7136888"><ele>73.0</ele><time>2026-03-28T13:56:18.709Z</time></trkpt><trkpt lat="45.6445218" lon="10.7135712"><ele>73.0</ele><time>2026-03-28T13:56:19.708Z</time></trkpt><trkpt lat="45.644404" lon="10.7134477"><ele>74.25</ele><time>2026-03-28T13:56:20.708Z</time></trkpt><trkpt lat="45.64429" lon="10.7133141"><ele>75.5</ele><time>2026-03-28T13:56:21.709Z</time></trkpt><trkpt lat="45.6441846" lon="10.7131641"><ele>76.75</ele><time>2026-03-28T13:56:22.708Z</time></trkpt><trkpt lat="45.6440892" lon="10.712996"><ele>78.0</ele><time>2026-03-28T13:56:23.708Z</time></trkpt><trkpt lat="45.6440083" lon="10.7128239"><ele>74.75</ele><time>2026-03-28T13:56:24.709Z</time></trkpt><trkpt lat="45.643937" lon="10.7126503"><ele>71.5</ele><time>2026-03-28T13:56:25.708Z</time></trkpt><trkpt lat="45.6438668" lon="10.7124756"><ele>68.25</ele><time>2026-03-28T13:56:26.708Z</time></trkpt><trkpt lat="45.6437889" lon="10.7123017"><ele>65.0</ele><time>2026-03-28T13:56:27.709Z</time></trkpt><trkpt lat="45.6436996" lon="10.7121243"><ele>70.66666666666667</ele><time>2026-03-28T13:56:28.709Z</time></trkpt><trkpt lat="45.643601" lon="10.7119435"><ele>76.33333333333333</ele><time>2026-03-28T13:56:29.708Z</time></trkpt><trkpt lat="45.6434934" lon="10.7117594"><ele>82.0</ele><time>2026-03-28T13:56:30.708Z</time></trkpt><trkpt lat="45.6433899" lon="10.7115864"><ele>82.0</ele><time>2026-03-28T13:56:31.708Z</time></trkpt><trkpt lat="45.6432877" lon="10.7114155"><ele>82.0</ele><time>2026-03-28T13:56:32.709Z</time></trkpt><trkpt lat="45.6431858" lon="10.7112471"><ele>82.0</ele><time>2026-03-28T13:56:33.708Z</time></trkpt><trkpt lat="45.6430817" lon="10.7110787"><ele>82.0</ele><time>2026-03-28T13:56:34.709Z</time></trkpt><trkpt lat="45.6429788" lon="10.7109166"><ele>82.0</ele><time>2026-03-28T13:56:35.708Z</time></trkpt><trkpt lat="45.6428754" lon="10.7107742"><ele>82.0</ele><time>2026-03-28T13:56:36.708Z</time></trkpt><trkpt lat="45.6427678" lon="10.7106426"><ele>82.0</ele><time>2026-03-28T13:56:37.708Z</time></trkpt><trkpt lat="45.6426576" lon="10.7105228"><ele>82.0</ele><time>2026-03-28T13:56:38.709Z</time></trkpt><trkpt lat="45.6425374" lon="10.7104074"><ele>82.0</ele><time>2026-03-28T13:56:39.709Z</time></trkpt><trkpt lat="45.6424119" lon="10.7102943"><ele>82.0</ele><time>2026-03-28T13:56:40.707Z</time></trkpt><trkpt lat="45.6422899" lon="10.7101795"><ele>82.0</ele><time>2026-03-28T13:56:41.709Z</time></trkpt><trkpt lat="45.6421772" lon="10.7100554"><ele>84.33333333333333</ele><time>2026-03-28T13:56:42.708Z</time></trkpt><trkpt lat="45.642069" lon="10.70991"><ele>86.66666666666667</ele><time>2026-03-28T13:56:43.708Z</time></trkpt><trkpt lat="45.6419702" lon="10.7097426"><ele>89.0</ele><time>2026-03-28T13:56:44.709Z</time></trkpt><trkpt lat="45.641881" lon="10.7095585"><ele>84.66666666666667</ele><time>2026-03-28T13:56:45.708Z</time></trkpt><trkpt lat="45.6417974" lon="10.7093605"><ele>80.33333333333333</ele><time>2026-03-28T13:56:46.708Z</time></trkpt><trkpt lat="45.6417181" lon="10.7091629"><ele>76.0</ele><time>2026-03-28T13:56:47.708Z</time></trkpt><trkpt lat="45.6416377" lon="10.7089752"><ele>76.0</ele><time>2026-03-28T13:56:48.709Z</time></trkpt><trkpt lat="45.6415502" lon="10.7088055"><ele>76.0</ele><time>2026-03-28T13:56:49.709Z</time></trkpt><trkpt lat="45.6414577" lon="10.7086513"><ele>76.0</ele><time>2026-03-28T13:56:50.709Z</time></trkpt><trkpt lat="45.6413545" lon="10.7085146"><ele>76.0</ele><time>2026-03-28T13:56:51.709Z</time></trkpt><trkpt lat="45.6412375" lon="10.7083949"><ele>77.75</ele><time>2026-03-28T13:56:52.708Z</time></trkpt><trkpt lat="45.6411167" lon="10.7082899"><ele>79.5</ele><time>2026-03-28T13:56:53.708Z</time></trkpt><trkpt lat="45.6409964" lon="10.7082048"><ele>81.25</ele><time>2026-03-28T13:56:54.708Z</time></trkpt><trkpt lat="45.6408733" lon="10.7081229"><ele>83.0</ele><time>2026-03-28T13:56:55.709Z</time></trkpt><trkpt lat="45.6407462" lon="10.7080408"><ele>83.0</ele><time>2026-03-28T13:56:56.708Z</time></trkpt><trkpt lat="45.6406137" lon="10.7079586"><ele>83.0</ele><time>2026-03-28T13:56:57.708Z</time></trkpt><trkpt lat="45.6404735" lon="10.7078731"><ele>83.0</ele><time>2026-03-28T13:56:58.708Z</time></trkpt><trkpt lat="45.6403294" lon="10.7077839"><ele>79.66666666666667</ele><time>2026-03-28T13:56:59.709Z</time></trkpt><trkpt lat="45.6401792" lon="10.7076921"><ele>76.33333333333333</ele><time>2026-03-28T13:57:00.709Z</time></trkpt><trkpt lat="45.6400199" lon="10.7075947"><ele>73.0</ele><time>2026-03-28T13:57:01.708Z</time></trkpt><trkpt lat="45.6398509" lon="10.7074879"><ele>73.0</ele><time>2026-03-28T13:57:02.708Z</time></trkpt><trkpt lat="45.639669" lon="10.7073647"><ele>73.0</ele><time>2026-03-28T13:57:03.708Z</time></trkpt><trkpt lat="45.6394798" lon="10.7072287"><ele>73.0</ele><time>2026-03-28T13:57:04.708Z</time></trkpt><trkpt lat="45.6392986" lon="10.7070893"><ele>70.33333333333333</ele><time>2026-03-28T13:57:05.708Z</time></trkpt><trkpt lat="45.6391282" lon="10.7069537"><ele>67.66666666666667</ele><time>2026-03-28T13:57:06.709Z</time></trkpt><trkpt lat="45.6389637" lon="10.7068188"><ele>65.0</ele><time>2026-03-28T13:57:07.709Z</time></trkpt><trkpt lat="45.6388056" lon="10.7066775"><ele>65.0</ele><time>2026-03-28T13:57:08.708Z</time></trkpt><trkpt lat="45.6386615" lon="10.7065266"><ele>65.0</ele><time>2026-03-28T13:57:09.709Z</time></trkpt><trkpt lat="45.6385261" lon="10.7063688"><ele>65.0</ele><time>2026-03-28T13:57:10.708Z</time></trkpt><trkpt lat="45.6383941" lon="10.7061936"><ele>65.66666666666667</ele><time>2026-03-28T13:57:11.707Z</time></trkpt><trkpt lat="45.6382631" lon="10.7060105"><ele>66.33333333333333</ele><time>2026-03-28T13:57:12.709Z</time></trkpt><trkpt lat="45.6381324" lon="10.7058219"><ele>67.0</ele><time>2026-03-28T13:57:13.708Z</time></trkpt><trkpt lat="45.6380055" lon="10.7056428"><ele>67.0</ele><time>2026-03-28T13:57:14.709Z</time></trkpt><trkpt lat="45.6378758" lon="10.7054842"><ele>67.0</ele><time>2026-03-28T13:57:15.708Z</time></trkpt><trkpt lat="45.6377337" lon="10.7053314"><ele>67.0</ele><time>2026-03-28T13:57:16.708Z</time></trkpt><trkpt lat="45.637585" lon="10.7051834"><ele>68.0</ele><time>2026-03-28T13:57:17.708Z</time></trkpt><trkpt lat="45.6374286" lon="10.7050375"><ele>69.0</ele><time>2026-03-28T13:57:18.709Z</time></trkpt><trkpt lat="45.6372668" lon="10.7048951"><ele>70.0</ele><time>2026-03-28T13:57:19.708Z</time></trkpt><trkpt lat="45.6371039" lon="10.7047512"><ele>69.33333333333333</ele><time>2026-03-28T13:57:20.708Z</time></trkpt><trkpt lat="45.6369472" lon="10.7046156"><ele>68.66666666666667</ele><time>2026-03-28T13:57:21.709Z</time></trkpt><trkpt lat="45.636798" lon="10.7044877"><ele>68.0</ele><time>2026-03-28T13:57:22.708Z</time></trkpt><trkpt lat="45.6366576" lon="10.7043704"><ele>68.0</ele><time>2026-03-28T13:57:23.709Z</time></trkpt><trkpt lat="45.6365178" lon="10.7042582"><ele>68.0</ele><time>2026-03-28T13:57:24.708Z</time></trkpt><trkpt lat="45.6363694" lon="10.7041465"><ele>68.0</ele><time>2026-03-28T13:57:25.709Z</time></trkpt><trkpt lat="45.6362193" lon="10.7040411"><ele>71.33333333333334</ele><time>2026-03-28T13:57:26.709Z</time></trkpt><trkpt lat="45.6360722" lon="10.7039437"><ele>74.66666666666667</ele><time>2026-03-28T13:57:27.708Z</time></trkpt><trkpt lat="45.6359278" lon="10.7038526"><ele>78.0</ele><time>2026-03-28T13:57:28.709Z</time></trkpt><trkpt lat="45.6357798" lon="10.7037585"><ele>78.0</ele><time>2026-03-28T13:57:29.709Z</time></trkpt><trkpt lat="45.635636" lon="10.7036702"><ele>78.0</ele><time>2026-03-28T13:57:30.709Z</time></trkpt><trkpt lat="45.6354924" lon="10.7035819"><ele>78.0</ele><time>2026-03-28T13:57:31.708Z</time></trkpt><trkpt lat="45.6353506" lon="10.7034945"><ele>75.75</ele><time>2026-03-28T13:57:32.709Z</time></trkpt><trkpt lat="45.6352142" lon="10.7034064"><ele>73.5</ele><time>2026-03-28T13:57:33.708Z</time></trkpt><trkpt lat="45.6350792" lon="10.703318"><ele>71.25</ele><time>2026-03-28T13:57:34.708Z</time></trkpt><trkpt lat="45.6349434" lon="10.7032272"><ele>69.0</ele><time>2026-03-28T13:57:35.708Z</time></trkpt><trkpt lat="45.6348025" lon="10.7031326"><ele>69.0</ele><time>2026-03-28T13:57:36.708Z</time></trkpt><trkpt lat="45.6346596" lon="10.7030326"><ele>69.0</ele><time>2026-03-28T13:57:37.708Z</time></trkpt><trkpt lat="45.6345208" lon="10.7029348"><ele>69.0</ele><time>2026-03-28T13:57:38.708Z</time></trkpt><trkpt lat="45.634386" lon="10.7028419"><ele>68.0</ele><time>2026-03-28T13:57:39.708Z</time></trkpt><trkpt lat="45.634252" lon="10.7027486"><ele>67.0</ele><time>2026-03-28T13:57:40.709Z</time></trkpt><trkpt lat="45.6341185" lon="10.7026572"><ele>66.0</ele><time>2026-03-28T13:57:41.709Z</time></trkpt><trkpt lat="45.6339857" lon="10.7025678"><ele>65.0</ele><time>2026-03-28T13:57:42.708Z</time></trkpt><trkpt lat="45.6338543" lon="10.7024837"><ele>65.0</ele><time>2026-03-28T13:57:43.708Z</time></trkpt><trkpt lat="45.6337224" lon="10.7024014"><ele>65.0</ele><time>2026-03-28T13:57:44.708Z</time></trkpt><trkpt lat="45.6335932" lon="10.7023207"><ele>65.0</ele><time>2026-03-28T13:57:45.709Z</time></trkpt><trkpt lat="45.6334636" lon="10.7022414"><ele>65.0</ele><time>2026-03-28T13:57:46.708Z</time></trkpt><trkpt lat="45.6333343" lon="10.7021665"><ele>64.75</ele><time>2026-03-28T13:57:47.709Z</time></trkpt><trkpt lat="45.6332045" lon="10.702092"><ele>64.5</ele><time>2026-03-28T13:57:48.709Z</time></trkpt><trkpt lat="45.6330733" lon="10.7020155"><ele>64.25</ele><time>2026-03-28T13:57:49.708Z</time></trkpt><trkpt lat="45.6329404" lon="10.7019386"><ele>64.0</ele><time>2026-03-28T13:57:50.708Z</time></trkpt><trkpt lat="45.6328086" lon="10.7018601"><ele>65.0</ele><time>2026-03-28T13:57:51.708Z</time></trkpt><trkpt lat="45.6326803" lon="10.7017843"><ele>66.0</ele><time>2026-03-28T13:57:52.708Z</time></trkpt><trkpt lat="45.6325631" lon="10.7017129"><ele>67.0</ele><time>2026-03-28T13:57:53.708Z</time></trkpt><trkpt lat="45.6324776" lon="10.7016625"><ele>68.0</ele><time>2026-03-28T13:57:54.709Z</time></trkpt><trkpt lat="45.6324189" lon="10.7016278"><ele>69.0</ele><time>2026-03-28T13:57:55.708Z</time></trkpt><trkpt lat="45.6323531" lon="10.7015943"><ele>69.0</ele><time>2026-03-28T13:57:57.708Z</time></trkpt><trkpt lat="45.6322711" lon="10.7015529"><ele>69.0</ele><time>2026-03-28T13:58:08.708Z</time></trkpt><trkpt lat="45.6321697" lon="10.7014884"><ele>69.0</ele><time>2026-03-28T13:58:10.708Z</time></trkpt><trkpt lat="45.6320975" lon="10.701445"><ele>69.0</ele><time>2026-03-28T13:58:11.708Z</time></trkpt><trkpt lat="45.632004" lon="10.7013904"><ele>69.0</ele><time>2026-03-28T13:58:12.709Z</time></trkpt><trkpt lat="45.631895" lon="10.701328"><ele>70.25</ele><time>2026-03-28T13:58:13.708Z</time></trkpt><trkpt lat="45.6317741" lon="10.7012547"><ele>71.5</ele><time>2026-03-28T13:58:14.709Z</time></trkpt><trkpt lat="45.6316422" lon="10.7011786"><ele>72.75</ele><time>2026-03-28T13:58:15.708Z</time></trkpt><trkpt lat="45.6315005" lon="10.701096"><ele>74.0</ele><time>2026-03-28T13:58:16.708Z</time></trkpt><trkpt lat="45.6313486" lon="10.701018"><ele>72.33333333333334</ele><time>2026-03-28T13:58:17.708Z</time></trkpt><trkpt lat="45.6311873" lon="10.7009484"><ele>70.66666666666667</ele><time>2026-03-28T13:58:18.708Z</time></trkpt><trkpt lat="45.6310314" lon="10.7008861"><ele>69.0</ele><time>2026-03-28T13:58:19.709Z</time></trkpt><trkpt lat="45.6308794" lon="10.7008368"><ele>69.0</ele><time>2026-03-28T13:58:20.708Z</time></trkpt><trkpt lat="45.6307309" lon="10.7007899"><ele>69.0</ele><time>2026-03-28T13:58:21.709Z</time></trkpt><trkpt lat="45.6305829" lon="10.7007433"><ele>69.0</ele><time>2026-03-28T13:58:22.708Z</time></trkpt><trkpt lat="45.6304342" lon="10.7006966"><ele>70.33333333333333</ele><time>2026-03-28T13:58:23.709Z</time></trkpt><trkpt lat="45.6302871" lon="10.7006488"><ele>71.66666666666666</ele><time>2026-03-28T13:58:24.709Z</time></trkpt><trkpt lat="45.6301425" lon="10.7005903"><ele>73.0</ele><time>2026-03-28T13:58:25.708Z</time></trkpt><trkpt lat="45.6299995" lon="10.7005238"><ele>73.0</ele><time>2026-03-28T13:58:26.708Z</time></trkpt><trkpt lat="45.6298579" lon="10.7004449"><ele>73.0</ele><time>2026-03-28T13:58:27.708Z</time></trkpt><trkpt lat="45.6297167" lon="10.7003563"><ele>73.0</ele><time>2026-03-28T13:58:28.708Z</time></trkpt><trkpt lat="45.6295769" lon="10.7002661"><ele>71.0</ele><time>2026-03-28T13:58:29.708Z</time></trkpt><trkpt lat="45.6294357" lon="10.7001768"><ele>69.0</ele><time>2026-03-28T13:58:30.709Z</time></trkpt><trkpt lat="45.629299" lon="10.7000869"><ele>67.0</ele><time>2026-03-28T13:58:31.708Z</time></trkpt><trkpt lat="45.6291645" lon="10.6999995"><ele>67.0</ele><time>2026-03-28T13:58:32.709Z</time></trkpt><trkpt lat="45.6290274" lon="10.6999125"><ele>67.0</ele><time>2026-03-28T13:58:33.709Z</time></trkpt><trkpt lat="45.6288897" lon="10.6998217"><ele>67.0</ele><time>2026-03-28T13:58:34.709Z</time></trkpt><trkpt lat="45.6287488" lon="10.6997287"><ele>70.0</ele><time>2026-03-28T13:58:35.708Z</time></trkpt><trkpt lat="45.6286061" lon="10.6996361"><ele>73.0</ele><time>2026-03-28T13:58:36.708Z</time></trkpt><trkpt lat="45.6284611" lon="10.6995456"><ele>76.0</ele><time>2026-03-28T13:58:37.709Z</time></trkpt><trkpt lat="45.6283163" lon="10.6994563"><ele>72.33333333333333</ele><time>2026-03-28T13:58:38.708Z</time></trkpt><trkpt lat="45.6281679" lon="10.6993675"><ele>68.66666666666667</ele><time>2026-03-28T13:58:39.708Z</time></trkpt><trkpt lat="45.6280221" lon="10.6992878"><ele>65.0</ele><time>2026-03-28T13:58:40.708Z</time></trkpt><trkpt lat="45.6278837" lon="10.6992194"><ele>66.25</ele><time>2026-03-28T13:58:41.709Z</time></trkpt><trkpt lat="45.6277497" lon="10.6991596"><ele>67.5</ele><time>2026-03-28T13:58:42.708Z</time></trkpt><trkpt lat="45.6276178" lon="10.6991057"><ele>68.75</ele><time>2026-03-28T13:58:43.709Z</time></trkpt><trkpt lat="45.6274832" lon="10.6990598"><ele>70.0</ele><time>2026-03-28T13:58:44.708Z</time></trkpt><trkpt lat="45.6273427" lon="10.6990154"><ele>70.0</ele><time>2026-03-28T13:58:45.708Z</time></trkpt><trkpt lat="45.6271971" lon="10.6989698"><ele>70.0</ele><time>2026-03-28T13:58:46.709Z</time></trkpt><trkpt lat="45.6270457" lon="10.6989187"><ele>70.0</ele><time>2026-03-28T13:58:47.709Z</time></trkpt><trkpt lat="45.6268927" lon="10.6988686"><ele>71.66666666666666</ele><time>2026-03-28T13:58:48.709Z</time></trkpt><trkpt lat="45.6267432" lon="10.6988187"><ele>73.33333333333333</ele><time>2026-03-28T13:58:49.708Z</time></trkpt><trkpt lat="45.6265962" lon="10.6987619"><ele>75.0</ele><time>2026-03-28T13:58:50.708Z</time></trkpt><trkpt lat="45.6264544" lon="10.698699"><ele>75.0</ele><time>2026-03-28T13:58:51.708Z</time></trkpt><trkpt lat="45.6263159" lon="10.6986266"><ele>75.0</ele><time>2026-03-28T13:58:52.709Z</time></trkpt><trkpt lat="45.626183" lon="10.69854"><ele>75.0</ele><time>2026-03-28T13:58:53.708Z</time></trkpt><trkpt lat="45.6260534" lon="10.6984369"><ele>75.0</ele><time>2026-03-28T13:58:54.709Z</time></trkpt><trkpt lat="45.6259238" lon="10.6983253"><ele>73.33333333333333</ele><time>2026-03-28T13:58:55.708Z</time></trkpt><trkpt lat="45.6257947" lon="10.6982094"><ele>71.66666666666666</ele><time>2026-03-28T13:58:56.708Z</time></trkpt><trkpt lat="45.6256595" lon="10.6980975"><ele>70.0</ele><time>2026-03-28T13:58:57.708Z</time></trkpt><trkpt lat="45.6255228" lon="10.6979957"><ele>70.0</ele><time>2026-03-28T13:58:58.708Z</time></trkpt><trkpt lat="45.6253845" lon="10.6979079"><ele>70.0</ele><time>2026-03-28T13:58:59.709Z</time></trkpt><trkpt lat="45.6252451" lon="10.6978312"><ele>70.0</ele><time>2026-03-28T13:59:00.709Z</time></trkpt><trkpt lat="45.625101" lon="10.6977653"><ele>68.0</ele><time>2026-03-28T13:59:01.709Z</time></trkpt><trkpt lat="45.6249507" lon="10.6977045"><ele>66.0</ele><time>2026-03-28T13:59:02.709Z</time></trkpt><trkpt lat="45.6247968" lon="10.6976496"><ele>64.0</ele><time>2026-03-28T13:59:03.708Z</time></trkpt><trkpt lat="45.6246408" lon="10.6975963"><ele>64.0</ele><time>2026-03-28T13:59:04.709Z</time></trkpt><trkpt lat="45.6244836" lon="10.6975421"><ele>64.0</ele><time>2026-03-28T13:59:05.708Z</time></trkpt><trkpt lat="45.6243253" lon="10.6974869"><ele>64.0</ele><time>2026-03-28T13:59:06.708Z</time></trkpt><trkpt lat="45.6241668" lon="10.6974321"><ele>66.0</ele><time>2026-03-28T13:59:07.709Z</time></trkpt><trkpt lat="45.6240081" lon="10.6973751"><ele>68.0</ele><time>2026-03-28T13:59:08.708Z</time></trkpt><trkpt lat="45.6238499" lon="10.6973197"><ele>70.0</ele><time>2026-03-28T13:59:09.709Z</time></trkpt><trkpt lat="45.6236903" lon="10.6972651"><ele>71.0</ele><time>2026-03-28T13:59:10.708Z</time></trkpt><trkpt lat="45.6235281" lon="10.6972088"><ele>72.0</ele><time>2026-03-28T13:59:11.708Z</time></trkpt><trkpt lat="45.6233644" lon="10.6971507"><ele>73.0</ele><time>2026-03-28T13:59:12.709Z</time></trkpt><trkpt lat="45.6231982" lon="10.6970953"><ele>73.0</ele><time>2026-03-28T13:59:13.709Z</time></trkpt><trkpt lat="45.6230309" lon="10.6970389"><ele>73.0</ele><time>2026-03-28T13:59:14.708Z</time></trkpt><trkpt lat="45.6228621" lon="10.6969809"><ele>73.0</ele><time>2026-03-28T13:59:15.708Z</time></trkpt><trkpt lat="45.6226965" lon="10.6969184"><ele>70.66666666666666</ele><time>2026-03-28T13:59:16.708Z</time></trkpt><trkpt lat="45.6225329" lon="10.6968512"><ele>68.33333333333333</ele><time>2026-03-28T13:59:17.709Z</time></trkpt><trkpt lat="45.622369" lon="10.696769"><ele>66.0</ele><time>2026-03-28T13:59:18.709Z</time></trkpt><trkpt lat="45.622207" lon="10.6966723"><ele>66.0</ele><time>2026-03-28T13:59:19.708Z</time></trkpt><trkpt lat="45.6220461" lon="10.6965576"><ele>66.0</ele><time>2026-03-28T13:59:20.708Z</time></trkpt><trkpt lat="45.6218818" lon="10.6964225"><ele>66.0</ele><time>2026-03-28T13:59:21.708Z</time></trkpt><trkpt lat="45.6217126" lon="10.6962681"><ele>66.0</ele><time>2026-03-28T13:59:22.708Z</time></trkpt><trkpt lat="45.6215389" lon="10.6961046"><ele>66.0</ele><time>2026-03-28T13:59:23.708Z</time></trkpt><trkpt lat="45.6213758" lon="10.6959576"><ele>66.0</ele><time>2026-03-28T13:59:24.709Z</time></trkpt><trkpt lat="45.6212205" lon="10.6958227"><ele>69.33333333333333</ele><time>2026-03-28T13:59:25.709Z</time></trkpt><trkpt lat="45.6210699" lon="10.6957005"><ele>72.66666666666666</ele><time>2026-03-28T13:59:26.708Z</time></trkpt><trkpt lat="45.6209156" lon="10.6955938"><ele>76.0</ele><time>2026-03-28T13:59:27.708Z</time></trkpt><trkpt lat="45.6207554" lon="10.6954982"><ele>76.0</ele><time>2026-03-28T13:59:28.708Z</time></trkpt><trkpt lat="45.6205922" lon="10.6954149"><ele>76.0</ele><time>2026-03-28T13:59:29.708Z</time></trkpt><trkpt lat="45.6204277" lon="10.6953393"><ele>76.0</ele><time>2026-03-28T13:59:30.708Z</time></trkpt><trkpt lat="45.6202594" lon="10.6952656"><ele>73.33333333333333</ele><time>2026-03-28T13:59:31.709Z</time></trkpt><trkpt lat="45.6200912" lon="10.6951888"><ele>70.66666666666667</ele><time>2026-03-28T13:59:32.709Z</time></trkpt><trkpt lat="45.6199332" lon="10.6951141"><ele>68.0</ele><time>2026-03-28T13:59:33.708Z</time></trkpt><trkpt lat="45.6197878" lon="10.6950339"><ele>68.0</ele><time>2026-03-28T13:59:34.708Z</time></trkpt><trkpt lat="45.6196527" lon="10.694957"><ele>68.0</ele><time>2026-03-28T13:59:35.708Z</time></trkpt><trkpt lat="45.6195286" lon="10.6948738"><ele>68.0</ele><time>2026-03-28T13:59:36.708Z</time></trkpt><trkpt lat="45.6194185" lon="10.6947893"><ele>68.0</ele><time>2026-03-28T13:59:37.708Z</time></trkpt><trkpt lat="45.6193138" lon="10.694706"><ele>67.75</ele><time>2026-03-28T13:59:38.708Z</time></trkpt><trkpt lat="45.6192138" lon="10.6946238"><ele>67.5</ele><time>2026-03-28T13:59:39.709Z</time></trkpt><trkpt lat="45.6191178" lon="10.6945383"><ele>67.25</ele><time>2026-03-28T13:59:40.708Z</time></trkpt><trkpt lat="45.6190214" lon="10.6944529"><ele>67.0</ele><time>2026-03-28T13:59:41.709Z</time></trkpt><trkpt lat="45.6189217" lon="10.694371"><ele>67.0</ele><time>2026-03-28T13:59:42.708Z</time></trkpt><trkpt lat="45.6188139" lon="10.6942993"><ele>67.0</ele><time>2026-03-28T13:59:43.708Z</time></trkpt><trkpt lat="45.618701" lon="10.6942304"><ele>67.0</ele><time>2026-03-28T13:59:44.708Z</time></trkpt><trkpt lat="45.6185826" lon="10.6941672"><ele>67.0</ele><time>2026-03-28T13:59:45.708Z</time></trkpt><trkpt lat="45.6184606" lon="10.6941054"><ele>68.25</ele><time>2026-03-28T13:59:46.708Z</time></trkpt><trkpt lat="45.6183455" lon="10.6940501"><ele>69.5</ele><time>2026-03-28T13:59:47.709Z</time></trkpt><trkpt lat="45.6182372" lon="10.6939992"><ele>70.75</ele><time>2026-03-28T13:59:48.709Z</time></trkpt><trkpt lat="45.6181263" lon="10.6939519"><ele>72.0</ele><time>2026-03-28T13:59:49.708Z</time></trkpt><trkpt lat="45.6180172" lon="10.6939036"><ele>72.0</ele><time>2026-03-28T13:59:50.709Z</time></trkpt><trkpt lat="45.6179071" lon="10.6938525"><ele>72.0</ele><time>2026-03-28T13:59:51.709Z</time></trkpt><trkpt lat="45.6177947" lon="10.6937995"><ele>72.0</ele><time>2026-03-28T13:59:52.708Z</time></trkpt><trkpt lat="45.6176837" lon="10.6937452"><ele>72.0</ele><time>2026-03-28T13:59:53.709Z</time></trkpt><trkpt lat="45.6175722" lon="10.6936911"><ele>72.0</ele><time>2026-03-28T13:59:54.708Z</time></trkpt><trkpt lat="45.6174557" lon="10.6936347"><ele>72.0</ele><time>2026-03-28T13:59:55.709Z</time></trkpt><trkpt lat="45.617337" lon="10.6935787"><ele>72.0</ele><time>2026-03-28T13:59:56.708Z</time></trkpt><trkpt lat="45.6172142" lon="10.6935228"><ele>72.0</ele><time>2026-03-28T13:59:57.709Z</time></trkpt><trkpt lat="45.6170892" lon="10.6934631"><ele>72.5</ele><time>2026-03-28T13:59:58.709Z</time></trkpt><trkpt lat="45.6169645" lon="10.6933937"><ele>73.0</ele><time>2026-03-28T13:59:59.708Z</time></trkpt><trkpt lat="45.6168397" lon="10.6933255"><ele>73.5</ele><time>2026-03-28T14:00:00.708Z</time></trkpt><trkpt lat="45.6167159" lon="10.6932565"><ele>74.0</ele><time>2026-03-28T14:00:01.709Z</time></trkpt><trkpt lat="45.6165989" lon="10.6931887"><ele>74.0</ele><time>2026-03-28T14:00:02.707Z</time></trkpt><trkpt lat="45.6164891" lon="10.6931218"><ele>74.0</ele><time>2026-03-28T14:00:03.708Z</time></trkpt><trkpt lat="45.6163894" lon="10.693066"><ele>74.0</ele><time>2026-03-28T14:00:04.709Z</time></trkpt><trkpt lat="45.616296" lon="10.6930125"><ele>74.0</ele><time>2026-03-28T14:00:05.708Z</time></trkpt><trkpt lat="45.6162106" lon="10.6929616"><ele>74.0</ele><time>2026-03-28T14:00:06.708Z</time></trkpt><trkpt lat="45.6161274" lon="10.6929124"><ele>75.2</ele><time>2026-03-28T14:00:07.708Z</time></trkpt><trkpt lat="45.6160416" lon="10.6928621"><ele>76.4</ele><time>2026-03-28T14:00:08.709Z</time></trkpt><trkpt lat="45.6159585" lon="10.6928144"><ele>77.6</ele><time>2026-03-28T14:00:09.709Z</time></trkpt><trkpt lat="45.6158745" lon="10.6927644"><ele>78.8</ele><time>2026-03-28T14:00:10.707Z</time></trkpt><trkpt lat="45.6157842" lon="10.6927109"><ele>80.0</ele><time>2026-03-28T14:00:11.708Z</time></trkpt><trkpt lat="45.6156872" lon="10.6926568"><ele>78.6</ele><time>2026-03-28T14:00:12.708Z</time></trkpt><trkpt lat="45.6155868" lon="10.6925985"><ele>77.2</ele><time>2026-03-28T14:00:13.709Z</time></trkpt><trkpt lat="45.6154891" lon="10.6925412"><ele>75.8</ele><time>2026-03-28T14:00:14.709Z</time></trkpt><trkpt lat="45.615392" lon="10.6924876"><ele>74.4</ele><time>2026-03-28T14:00:15.708Z</time></trkpt><trkpt lat="45.6152932" lon="10.6924306"><ele>73.0</ele><time>2026-03-28T14:00:16.708Z</time></trkpt><trkpt lat="45.6151902" lon="10.6923697"><ele>73.0</ele><time>2026-03-28T14:00:17.709Z</time></trkpt><trkpt lat="45.6150855" lon="10.6923084"><ele>73.0</ele><time>2026-03-28T14:00:18.708Z</time></trkpt><trkpt lat="45.6149885" lon="10.6922524"><ele>73.0</ele><time>2026-03-28T14:00:19.709Z</time></trkpt><trkpt lat="45.6148975" lon="10.692199"><ele>73.0</ele><time>2026-03-28T14:00:20.709Z</time></trkpt><trkpt lat="45.614803" lon="10.6921426"><ele>73.0</ele><time>2026-03-28T14:00:21.708Z</time></trkpt><trkpt lat="45.6147056" lon="10.6920842"><ele>73.0</ele><time>2026-03-28T14:00:22.709Z</time></trkpt><trkpt lat="45.6146171" lon="10.6920343"><ele>73.0</ele><time>2026-03-28T14:00:23.707Z</time></trkpt><trkpt lat="45.6145383" lon="10.6919891"><ele>73.0</ele><time>2026-03-28T14:00:24.709Z</time></trkpt><trkpt lat="45.6144646" lon="10.6919445"><ele>73.0</ele><time>2026-03-28T14:00:25.709Z</time></trkpt><trkpt lat="45.6143895" lon="10.6919003"><ele>73.0</ele><time>2026-03-28T14:00:26.709Z</time></trkpt><trkpt lat="45.6143137" lon="10.691854"><ele>73.0</ele><time>2026-03-28T14:00:27.708Z</time></trkpt><trkpt lat="45.6142452" lon="10.6918113"><ele>72.28571428571428</ele><time>2026-03-28T14:00:28.708Z</time></trkpt><trkpt lat="45.6141854" lon="10.6917698"><ele>71.57142857142857</ele><time>2026-03-28T14:00:29.708Z</time></trkpt><trkpt lat="45.6141267" lon="10.6917273"><ele>70.85714285714286</ele><time>2026-03-28T14:00:30.709Z</time></trkpt><trkpt lat="45.6140665" lon="10.691675"><ele>70.14285714285714</ele><time>2026-03-28T14:00:31.708Z</time></trkpt><trkpt lat="45.6140055" lon="10.6916182"><ele>69.42857142857143</ele><time>2026-03-28T14:00:32.709Z</time></trkpt><trkpt lat="45.6139491" lon="10.6915566"><ele>68.71428571428571</ele><time>2026-03-28T14:00:33.709Z</time></trkpt><trkpt lat="45.6138942" lon="10.691495"><ele>68.0</ele><time>2026-03-28T14:00:34.708Z</time></trkpt><trkpt lat="45.6138464" lon="10.6914315"><ele>68.0</ele><time>2026-03-28T14:00:35.709Z</time></trkpt><trkpt lat="45.613769" lon="10.6913064"><ele>68.0</ele><time>2026-03-28T14:00:37.71Z</time></trkpt><trkpt lat="45.6137056" lon="10.6911842"><ele>68.0</ele><time>2026-03-28T14:00:39.709Z</time></trkpt><trkpt lat="45.6136376" lon="10.6910315"><ele>68.0</ele><time>2026-03-28T14:00:41.71Z</time></trkpt><trkpt lat="45.6135748" lon="10.6908785"><ele>69.0</ele><time>2026-03-28T14:00:43.709Z</time></trkpt><trkpt lat="45.6135457" lon="10.6907926"><ele>70.0</ele><time>2026-03-28T14:00:44.71Z</time></trkpt><trkpt lat="45.6135171" lon="10.690699"><ele>71.0</ele><time>2026-03-28T14:00:45.709Z</time></trkpt><trkpt lat="45.6134814" lon="10.6905784"><ele>72.0</ele><time>2026-03-28T14:00:46.71Z</time></trkpt><trkpt lat="45.6134435" lon="10.6904308"><ele>73.0</ele><time>2026-03-28T14:00:47.709Z</time></trkpt><trkpt lat="45.6134009" lon="10.6902622"><ele>72.6</ele><time>2026-03-28T14:00:48.709Z</time></trkpt><trkpt lat="45.6133636" lon="10.6901017"><ele>72.19999999999999</ele><time>2026-03-28T14:00:49.71Z</time></trkpt><trkpt lat="45.6133328" lon="10.6899579"><ele>71.8</ele><time>2026-03-28T14:00:50.709Z</time></trkpt><trkpt lat="45.6133022" lon="10.689819"><ele>71.39999999999999</ele><time>2026-03-28T14:00:51.709Z</time></trkpt><trkpt lat="45.61327" lon="10.6896873"><ele>71.0</ele><time>2026-03-28T14:00:52.709Z</time></trkpt><trkpt lat="45.6132365" lon="10.6895517"><ele>71.39999999999999</ele><time>2026-03-28T14:00:53.709Z</time></trkpt><trkpt lat="45.6132003" lon="10.6894127"><ele>71.8</ele><time>2026-03-28T14:00:54.709Z</time></trkpt><trkpt lat="45.613162" lon="10.6892714"><ele>72.19999999999999</ele><time>2026-03-28T14:00:55.71Z</time></trkpt><trkpt lat="45.6131243" lon="10.6891218"><ele>72.6</ele><time>2026-03-28T14:00:56.71Z</time></trkpt><trkpt lat="45.6130828" lon="10.6889762"><ele>73.0</ele><time>2026-03-28T14:00:57.71Z</time></trkpt><trkpt lat="45.6130354" lon="10.6888368"><ele>73.0</ele><time>2026-03-28T14:00:58.71Z</time></trkpt><trkpt lat="45.6129832" lon="10.6887032"><ele>73.0</ele><time>2026-03-28T14:00:59.71Z</time></trkpt><trkpt lat="45.6129186" lon="10.6885818"><ele>73.0</ele><time>2026-03-28T14:01:00.709Z</time></trkpt><trkpt lat="45.6128445" lon="10.6884636"><ele>73.0</ele><time>2026-03-28T14:01:01.71Z</time></trkpt><trkpt lat="45.6127592" lon="10.6883572"><ele>73.0</ele><time>2026-03-28T14:01:02.71Z</time></trkpt><trkpt lat="45.612668" lon="10.6882564"><ele>72.4</ele><time>2026-03-28T14:01:03.71Z</time></trkpt><trkpt lat="45.6125772" lon="10.6881649"><ele>71.8</ele><time>2026-03-28T14:01:04.709Z</time></trkpt><trkpt lat="45.612488" lon="10.6880821"><ele>71.2</ele><time>2026-03-28T14:01:05.71Z</time></trkpt><trkpt lat="45.6124065" lon="10.6880118"><ele>70.6</ele><time>2026-03-28T14:01:06.71Z</time></trkpt><trkpt lat="45.6123342" lon="10.6879488"><ele>70.0</ele><time>2026-03-28T14:01:07.709Z</time></trkpt><trkpt lat="45.6122649" lon="10.6878889"><ele>70.0</ele><time>2026-03-28T14:01:08.709Z</time></trkpt><trkpt lat="45.6121983" lon="10.6878327"><ele>70.0</ele><time>2026-03-28T14:01:09.709Z</time></trkpt><trkpt lat="45.6121348" lon="10.6877777"><ele>70.0</ele><time>2026-03-28T14:01:10.71Z</time></trkpt><trkpt lat="45.6120699" lon="10.6877268"><ele>70.0</ele><time>2026-03-28T14:01:11.709Z</time></trkpt><trkpt lat="45.6120081" lon="10.6876774"><ele>70.0</ele><time>2026-03-28T14:01:12.71Z</time></trkpt><trkpt lat="45.6119502" lon="10.6876309"><ele>70.0</ele><time>2026-03-28T14:01:13.71Z</time></trkpt><trkpt lat="45.6118914" lon="10.6875846"><ele>70.0</ele><time>2026-03-28T14:01:14.71Z</time></trkpt><trkpt lat="45.6118316" lon="10.6875394"><ele>70.0</ele><time>2026-03-28T14:01:15.71Z</time></trkpt><trkpt lat="45.6117665" lon="10.6874921"><ele>70.0</ele><time>2026-03-28T14:01:16.709Z</time></trkpt><trkpt lat="45.6116943" lon="10.6874472"><ele>70.0</ele><time>2026-03-28T14:01:17.709Z</time></trkpt><trkpt lat="45.6116165" lon="10.6874039"><ele>70.0</ele><time>2026-03-28T14:01:18.709Z</time></trkpt><trkpt lat="45.6115373" lon="10.6873633"><ele>70.0</ele><time>2026-03-28T14:01:19.71Z</time></trkpt><trkpt lat="45.611457" lon="10.6873254"><ele>70.0</ele><time>2026-03-28T14:01:20.71Z</time></trkpt><trkpt lat="45.6113762" lon="10.6872909"><ele>70.0</ele><time>2026-03-28T14:01:21.709Z</time></trkpt><trkpt lat="45.6112969" lon="10.6872604"><ele>70.0</ele><time>2026-03-28T14:01:22.71Z</time></trkpt><trkpt lat="45.6112193" lon="10.6872309"><ele>70.0</ele><time>2026-03-28T14:01:23.71Z</time></trkpt><trkpt lat="45.6111418" lon="10.6872069"><ele>70.0</ele><time>2026-03-28T14:01:24.71Z</time></trkpt><trkpt lat="45.6110707" lon="10.6871838"><ele>70.0</ele><time>2026-03-28T14:01:25.71Z</time></trkpt><trkpt lat="45.6109933" lon="10.6871658"><ele>70.0</ele><time>2026-03-28T14:01:26.709Z</time></trkpt><trkpt lat="45.6109168" lon="10.6871479"><ele>69.83333333333333</ele><time>2026-03-28T14:01:27.71Z</time></trkpt><trkpt lat="45.6108417" lon="10.6871307"><ele>69.66666666666666</ele><time>2026-03-28T14:01:28.71Z</time></trkpt><trkpt lat="45.6107659" lon="10.6871126"><ele>69.5</ele><time>2026-03-28T14:01:29.71Z</time></trkpt><trkpt lat="45.6106872" lon="10.6870963"><ele>69.33333333333333</ele><time>2026-03-28T14:01:30.71Z</time></trkpt><trkpt lat="45.6106076" lon="10.6870764"><ele>69.16666666666667</ele><time>2026-03-28T14:01:31.71Z</time></trkpt><trkpt lat="45.6105301" lon="10.6870554"><ele>69.0</ele><time>2026-03-28T14:01:32.709Z</time></trkpt><trkpt lat="45.6104474" lon="10.6870403"><ele>69.0</ele><time>2026-03-28T14:01:33.709Z</time></trkpt><trkpt lat="45.6103649" lon="10.6870248"><ele>69.0</ele><time>2026-03-28T14:01:34.71Z</time></trkpt><trkpt lat="45.6102826" lon="10.6870038"><ele>69.0</ele><time>2026-03-28T14:01:35.709Z</time></trkpt><trkpt lat="45.6102017" lon="10.686986"><ele>69.0</ele><time>2026-03-28T14:01:36.71Z</time></trkpt><trkpt lat="45.6101246" lon="10.686966"><ele>69.0</ele><time>2026-03-28T14:01:37.709Z</time></trkpt><trkpt lat="45.6100466" lon="10.6869474"><ele>69.0</ele><time>2026-03-28T14:01:38.71Z</time></trkpt><trkpt lat="45.6099727" lon="10.6869306"><ele>69.42857142857143</ele><time>2026-03-28T14:01:39.71Z</time></trkpt><trkpt lat="45.6099039" lon="10.6869162"><ele>69.85714285714286</ele><time>2026-03-28T14:01:40.709Z</time></trkpt><trkpt lat="45.6098345" lon="10.6869042"><ele>70.28571428571429</ele><time>2026-03-28T14:01:41.71Z</time></trkpt><trkpt lat="45.6097647" lon="10.686892"><ele>70.71428571428572</ele><time>2026-03-28T14:01:42.71Z</time></trkpt><trkpt lat="45.609691" lon="10.6868778"><ele>71.14285714285714</ele><time>2026-03-28T14:01:43.71Z</time></trkpt><trkpt lat="45.6096175" lon="10.6868617"><ele>71.57142857142858</ele><time>2026-03-28T14:01:44.71Z</time></trkpt><trkpt lat="45.6095441" lon="10.6868468"><ele>72.0</ele><time>2026-03-28T14:01:45.71Z</time></trkpt><trkpt lat="45.6094703" lon="10.6868279"><ele>72.0</ele><time>2026-03-28T14:01:46.71Z</time></trkpt><trkpt lat="45.6093961" lon="10.6868108"><ele>72.0</ele><time>2026-03-28T14:01:47.71Z</time></trkpt><trkpt lat="45.609322" lon="10.6867941"><ele>72.0</ele><time>2026-03-28T14:01:48.709Z</time></trkpt><trkpt lat="45.6092496" lon="10.6867768"><ele>72.0</ele><time>2026-03-28T14:01:49.709Z</time></trkpt><trkpt lat="45.6091762" lon="10.68676"><ele>72.0</ele><time>2026-03-28T14:01:50.71Z</time></trkpt><trkpt lat="45.6091" lon="10.6867407"><ele>72.0</ele><time>2026-03-28T14:01:51.709Z</time></trkpt><trkpt lat="45.609023" lon="10.6867203"><ele>72.0</ele><time>2026-03-28T14:01:52.709Z</time></trkpt><trkpt lat="45.6089433" lon="10.6866982"><ele>72.0</ele><time>2026-03-28T14:01:53.709Z</time></trkpt><trkpt lat="45.6088586" lon="10.6866789"><ele>72.0</ele><time>2026-03-28T14:01:54.71Z</time></trkpt><trkpt lat="45.6087696" lon="10.6866588"><ele>72.0</ele><time>2026-03-28T14:01:55.709Z</time></trkpt><trkpt lat="45.6086775" lon="10.6866367"><ele>72.0</ele><time>2026-03-28T14:01:56.71Z</time></trkpt><trkpt lat="45.6085809" lon="10.6866148"><ele>72.0</ele><time>2026-03-28T14:01:57.709Z</time></trkpt><trkpt lat="45.6084877" lon="10.6865941"><ele>72.0</ele><time>2026-03-28T14:01:58.709Z</time></trkpt><trkpt lat="45.6084049" lon="10.6865751"><ele>72.0</ele><time>2026-03-28T14:01:59.709Z</time></trkpt><trkpt lat="45.608328" lon="10.6865578"><ele>72.0</ele><time>2026-03-28T14:02:00.709Z</time></trkpt><trkpt lat="45.6082529" lon="10.6865413"><ele>72.0</ele><time>2026-03-28T14:02:01.71Z</time></trkpt><trkpt lat="45.6081787" lon="10.686525"><ele>72.0</ele><time>2026-03-28T14:02:02.709Z</time></trkpt><trkpt lat="45.6081009" lon="10.6865072"><ele>72.0</ele><time>2026-03-28T14:02:03.709Z</time></trkpt><trkpt lat="45.6080215" lon="10.6864879"><ele>72.0</ele><time>2026-03-28T14:02:04.71Z</time></trkpt><trkpt lat="45.6079355" lon="10.6864678"><ele>72.0</ele><time>2026-03-28T14:02:05.71Z</time></trkpt><trkpt lat="45.6078434" lon="10.6864448"><ele>72.0</ele><time>2026-03-28T14:02:06.709Z</time></trkpt><trkpt lat="45.6077467" lon="10.6864236"><ele>72.0</ele><time>2026-03-28T14:02:07.709Z</time></trkpt><trkpt lat="45.6076483" lon="10.6864011"><ele>72.0</ele><time>2026-03-28T14:02:08.709Z</time></trkpt><trkpt lat="45.6075451" lon="10.6863787"><ele>72.0</ele><time>2026-03-28T14:02:09.709Z</time></trkpt><trkpt lat="45.6074397" lon="10.6863536"><ele>72.0</ele><time>2026-03-28T14:02:10.71Z</time></trkpt><trkpt lat="45.6073331" lon="10.6863289"><ele>72.0</ele><time>2026-03-28T14:02:11.709Z</time></trkpt><trkpt lat="45.6072224" lon="10.6863014"><ele>72.0</ele><time>2026-03-28T14:02:12.71Z</time></trkpt><trkpt lat="45.6071111" lon="10.6862712"><ele>72.0</ele><time>2026-03-28T14:02:13.709Z</time></trkpt><trkpt lat="45.6070073" lon="10.6862389"><ele>71.75</ele><time>2026-03-28T14:02:14.71Z</time></trkpt><trkpt lat="45.6069031" lon="10.6862098"><ele>71.5</ele><time>2026-03-28T14:02:15.71Z</time></trkpt><trkpt lat="45.6067926" lon="10.6861772"><ele>71.25</ele><time>2026-03-28T14:02:16.71Z</time></trkpt><trkpt lat="45.6066784" lon="10.6861517"><ele>71.0</ele><time>2026-03-28T14:02:17.709Z</time></trkpt><trkpt lat="45.6065618" lon="10.6861219"><ele>71.0</ele><time>2026-03-28T14:02:18.709Z</time></trkpt><trkpt lat="45.6064419" lon="10.6860973"><ele>71.0</ele><time>2026-03-28T14:02:19.709Z</time></trkpt><trkpt lat="45.6063227" lon="10.6860737"><ele>71.0</ele><time>2026-03-28T14:02:20.71Z</time></trkpt><trkpt lat="45.6062071" lon="10.6860585"><ele>71.0</ele><time>2026-03-28T14:02:21.709Z</time></trkpt><trkpt lat="45.6060957" lon="10.6860491"><ele>70.39999999999999</ele><time>2026-03-28T14:02:22.71Z</time></trkpt><trkpt lat="45.6059868" lon="10.6860429"><ele>69.8</ele><time>2026-03-28T14:02:23.709Z</time></trkpt><trkpt lat="45.6058824" lon="10.6860392"><ele>69.19999999999999</ele><time>2026-03-28T14:02:24.709Z</time></trkpt><trkpt lat="45.6057791" lon="10.6860379"><ele>68.6</ele><time>2026-03-28T14:02:25.709Z</time></trkpt><trkpt lat="45.6056685" lon="10.6860369"><ele>68.0</ele><time>2026-03-28T14:02:26.71Z</time></trkpt><trkpt lat="45.6055575" lon="10.6860382"><ele>68.0</ele><time>2026-03-28T14:02:27.709Z</time></trkpt><trkpt lat="45.6054495" lon="10.6860416"><ele>68.0</ele><time>2026-03-28T14:02:28.71Z</time></trkpt><trkpt lat="45.605341" lon="10.6860449"><ele>68.0</ele><time>2026-03-28T14:02:29.71Z</time></trkpt><trkpt lat="45.6052313" lon="10.6860455"><ele>68.0</ele><time>2026-03-28T14:02:30.709Z</time></trkpt><trkpt lat="45.6051174" lon="10.6860474"><ele>68.0</ele><time>2026-03-28T14:02:31.709Z</time></trkpt><trkpt lat="45.6049992" lon="10.6860471"><ele>68.0</ele><time>2026-03-28T14:02:32.709Z</time></trkpt><trkpt lat="45.6048751" lon="10.6860474"><ele>68.0</ele><time>2026-03-28T14:02:33.71Z</time></trkpt><trkpt lat="45.6047524" lon="10.6860458"><ele>68.0</ele><time>2026-03-28T14:02:34.709Z</time></trkpt><trkpt lat="45.6046394" lon="10.6860448"><ele>68.0</ele><time>2026-03-28T14:02:35.709Z</time></trkpt><trkpt lat="45.6045274" lon="10.6860434"><ele>68.2</ele><time>2026-03-28T14:02:36.709Z</time></trkpt><trkpt lat="45.6044154" lon="10.6860413"><ele>68.4</ele><time>2026-03-28T14:02:37.709Z</time></trkpt><trkpt lat="45.6043036" lon="10.6860363"><ele>68.60000000000001</ele><time>2026-03-28T14:02:38.71Z</time></trkpt><trkpt lat="45.6041954" lon="10.6860279"><ele>68.8</ele><time>2026-03-28T14:02:39.709Z</time></trkpt><trkpt lat="45.6040942" lon="10.6860171"><ele>69.0</ele><time>2026-03-28T14:02:40.709Z</time></trkpt><trkpt lat="45.6040008" lon="10.6860045"><ele>69.0</ele><time>2026-03-28T14:02:41.71Z</time></trkpt><trkpt lat="45.6039165" lon="10.6859923"><ele>69.0</ele><time>2026-03-28T14:02:42.709Z</time></trkpt><trkpt lat="45.6038355" lon="10.6859802"><ele>69.0</ele><time>2026-03-28T14:02:43.709Z</time></trkpt><trkpt lat="45.6037515" lon="10.6859628"><ele>69.0</ele><time>2026-03-28T14:02:44.71Z</time></trkpt><trkpt lat="45.6036639" lon="10.6859449"><ele>69.0</ele><time>2026-03-28T14:02:45.709Z</time></trkpt><trkpt lat="45.6035694" lon="10.6859238"><ele>69.0</ele><time>2026-03-28T14:02:46.709Z</time></trkpt><trkpt lat="45.6034685" lon="10.6858987"><ele>69.60000000000001</ele><time>2026-03-28T14:02:47.709Z</time></trkpt><trkpt lat="45.6033679" lon="10.6858718"><ele>70.2</ele><time>2026-03-28T14:02:48.71Z</time></trkpt><trkpt lat="45.6032706" lon="10.6858437"><ele>70.80000000000001</ele><time>2026-03-28T14:02:49.709Z</time></trkpt><trkpt lat="45.603177" lon="10.6858158"><ele>71.4</ele><time>2026-03-28T14:02:50.709Z</time></trkpt><trkpt lat="45.6030797" lon="10.685788"><ele>72.0</ele><time>2026-03-28T14:02:51.709Z</time></trkpt><trkpt lat="45.6029776" lon="10.685758"><ele>72.0</ele><time>2026-03-28T14:02:52.709Z</time></trkpt><trkpt lat="45.6028716" lon="10.6857307"><ele>72.0</ele><time>2026-03-28T14:02:53.71Z</time></trkpt><trkpt lat="45.6027641" lon="10.685699"><ele>72.0</ele><time>2026-03-28T14:02:54.709Z</time></trkpt><trkpt lat="45.6026626" lon="10.6856677"><ele>72.0</ele><time>2026-03-28T14:02:55.71Z</time></trkpt><trkpt lat="45.6025651" lon="10.6856406"><ele>72.0</ele><time>2026-03-28T14:02:56.709Z</time></trkpt><trkpt lat="45.6024671" lon="10.6856149"><ele>71.8</ele><time>2026-03-28T14:02:57.709Z</time></trkpt><trkpt lat="45.6023664" lon="10.6855859"><ele>71.6</ele><time>2026-03-28T14:02:58.709Z</time></trkpt><trkpt lat="45.6022618" lon="10.6855569"><ele>71.39999999999999</ele><time>2026-03-28T14:02:59.709Z</time></trkpt><trkpt lat="45.6021497" lon="10.6855269"><ele>71.2</ele><time>2026-03-28T14:03:00.71Z</time></trkpt><trkpt lat="45.6020319" lon="10.6855038"><ele>71.0</ele><time>2026-03-28T14:03:01.71Z</time></trkpt><trkpt lat="45.6019081" lon="10.6854787"><ele>71.66666666666667</ele><time>2026-03-28T14:03:02.708Z</time></trkpt><trkpt lat="45.601769" lon="10.6854636"><ele>72.33333333333333</ele><time>2026-03-28T14:03:03.709Z</time></trkpt><trkpt lat="45.6016195" lon="10.6854522"><ele>73.0</ele><time>2026-03-28T14:03:04.71Z</time></trkpt><trkpt lat="45.6014586" lon="10.6854446"><ele>73.0</ele><time>2026-03-28T14:03:05.71Z</time></trkpt><trkpt lat="45.6012883" lon="10.6854337"><ele>73.0</ele><time>2026-03-28T14:03:06.709Z</time></trkpt><trkpt lat="45.6011164" lon="10.6854236"><ele>73.0</ele><time>2026-03-28T14:03:07.71Z</time></trkpt><trkpt lat="45.6009546" lon="10.6854157"><ele>72.33333333333333</ele><time>2026-03-28T14:03:08.71Z</time></trkpt><trkpt lat="45.6007969" lon="10.6854093"><ele>71.66666666666667</ele><time>2026-03-28T14:03:09.71Z</time></trkpt><trkpt lat="45.6006359" lon="10.6854032"><ele>71.0</ele><time>2026-03-28T14:03:10.709Z</time></trkpt><trkpt lat="45.6004754" lon="10.6854029"><ele>71.75</ele><time>2026-03-28T14:03:11.71Z</time></trkpt><trkpt lat="45.6003194" lon="10.6854012"><ele>72.5</ele><time>2026-03-28T14:03:12.709Z</time></trkpt><trkpt lat="45.6001743" lon="10.685397"><ele>73.25</ele><time>2026-03-28T14:03:13.71Z</time></trkpt><trkpt lat="45.6000411" lon="10.6853909"><ele>74.0</ele><time>2026-03-28T14:03:14.709Z</time></trkpt><trkpt lat="45.5999193" lon="10.6853863"><ele>74.0</ele><time>2026-03-28T14:03:15.709Z</time></trkpt><trkpt lat="45.5998004" lon="10.6853767"><ele>74.0</ele><time>2026-03-28T14:03:16.709Z</time></trkpt><trkpt lat="45.5996813" lon="10.6853643"><ele>74.0</ele><time>2026-03-28T14:03:17.71Z</time></trkpt><trkpt lat="45.5995592" lon="10.6853416"><ele>74.0</ele><time>2026-03-28T14:03:18.71Z</time></trkpt><trkpt lat="45.599439" lon="10.6852998"><ele>73.5</ele><time>2026-03-28T14:03:19.71Z</time></trkpt><trkpt lat="45.5993202" lon="10.6852445"><ele>73.0</ele><time>2026-03-28T14:03:20.71Z</time></trkpt><trkpt lat="45.599207" lon="10.6851749"><ele>72.5</ele><time>2026-03-28T14:03:21.709Z</time></trkpt><trkpt lat="45.5990986" lon="10.6850911"><ele>72.0</ele><time>2026-03-28T14:03:22.71Z</time></trkpt><trkpt lat="45.5989976" lon="10.6849989"><ele>72.0</ele><time>2026-03-28T14:03:23.71Z</time></trkpt><trkpt lat="45.5988994" lon="10.6849016"><ele>72.0</ele><time>2026-03-28T14:03:24.709Z</time></trkpt><trkpt lat="45.5988005" lon="10.6848002"><ele>72.0</ele><time>2026-03-28T14:03:25.71Z</time></trkpt><trkpt lat="45.598703" lon="10.6847"><ele>72.0</ele><time>2026-03-28T14:03:26.709Z</time></trkpt><trkpt lat="45.5986051" lon="10.6846006"><ele>71.0</ele><time>2026-03-28T14:03:27.71Z</time></trkpt><trkpt lat="45.5985055" lon="10.6845025"><ele>70.0</ele><time>2026-03-28T14:03:28.709Z</time></trkpt><trkpt lat="45.5984084" lon="10.6844116"><ele>69.0</ele><time>2026-03-28T14:03:29.709Z</time></trkpt><trkpt lat="45.5983131" lon="10.6843329"><ele>68.0</ele><time>2026-03-28T14:03:30.709Z</time></trkpt><trkpt lat="45.5982212" lon="10.6842642"><ele>68.0</ele><time>2026-03-28T14:03:31.709Z</time></trkpt><trkpt lat="45.5981351" lon="10.6842014"><ele>68.0</ele><time>2026-03-28T14:03:32.71Z</time></trkpt><trkpt lat="45.5980518" lon="10.6841425"><ele>68.0</ele><time>2026-03-28T14:03:33.71Z</time></trkpt><trkpt lat="45.5979745" lon="10.684087"><ele>68.0</ele><time>2026-03-28T14:03:34.709Z</time></trkpt><trkpt lat="45.5979006" lon="10.6840344"><ele>68.0</ele><time>2026-03-28T14:03:35.71Z</time></trkpt><trkpt lat="45.597828" lon="10.6839845"><ele>68.0</ele><time>2026-03-28T14:03:36.709Z</time></trkpt><trkpt lat="45.5977527" lon="10.68393"><ele>71.6</ele><time>2026-03-28T14:03:37.71Z</time></trkpt><trkpt lat="45.5976758" lon="10.6838743"><ele>75.19999999999999</ele><time>2026-03-28T14:03:38.71Z</time></trkpt><trkpt lat="45.5975955" lon="10.6838147"><ele>78.8</ele><time>2026-03-28T14:03:39.709Z</time></trkpt><trkpt lat="45.5975125" lon="10.6837552"><ele>82.39999999999999</ele><time>2026-03-28T14:03:40.71Z</time></trkpt><trkpt lat="45.5974133" lon="10.6836861"><ele>86.0</ele><time>2026-03-28T14:03:41.71Z</time></trkpt><trkpt lat="45.5972962" lon="10.6836041"><ele>85.0</ele><time>2026-03-28T14:03:42.709Z</time></trkpt><trkpt lat="45.5971689" lon="10.6835142"><ele>84.0</ele><time>2026-03-28T14:03:43.709Z</time></trkpt><trkpt lat="45.5970499" lon="10.6834266"><ele>83.0</ele><time>2026-03-28T14:03:44.709Z</time></trkpt><trkpt lat="45.5969461" lon="10.6833515"><ele>82.0</ele><time>2026-03-28T14:03:45.709Z</time></trkpt><trkpt lat="45.5968613" lon="10.683286"><ele>82.0</ele><time>2026-03-28T14:03:46.71Z</time></trkpt><trkpt lat="45.5967834" lon="10.6832281"><ele>82.0</ele><time>2026-03-28T14:03:47.709Z</time></trkpt><trkpt lat="45.5967141" lon="10.6831796"><ele>82.0</ele><time>2026-03-28T14:03:48.71Z</time></trkpt><trkpt lat="45.5966472" lon="10.6831301"><ele>82.0</ele><time>2026-03-28T14:03:49.709Z</time></trkpt><trkpt lat="45.5965819" lon="10.6830812"><ele>82.0</ele><time>2026-03-28T14:03:50.71Z</time></trkpt><trkpt lat="45.5965085" lon="10.6830272"><ele>82.0</ele><time>2026-03-28T14:03:51.709Z</time></trkpt><trkpt lat="45.5964266" lon="10.6829671"><ele>82.0</ele><time>2026-03-28T14:03:52.71Z</time></trkpt><trkpt lat="45.5963398" lon="10.6829066"><ele>82.0</ele><time>2026-03-28T14:03:53.709Z</time></trkpt><trkpt lat="45.5962541" lon="10.682845"><ele>82.0</ele><time>2026-03-28T14:03:54.709Z</time></trkpt><trkpt lat="45.5961674" lon="10.6827898"><ele>82.0</ele><time>2026-03-28T14:03:55.71Z</time></trkpt><trkpt lat="45.5960793" lon="10.6827353"><ele>82.0</ele><time>2026-03-28T14:03:56.709Z</time></trkpt><trkpt lat="45.5959815" lon="10.6826794"><ele>79.25</ele><time>2026-03-28T14:03:57.71Z</time></trkpt><trkpt lat="45.5958787" lon="10.6826223"><ele>76.5</ele><time>2026-03-28T14:03:58.71Z</time></trkpt><trkpt lat="45.5957667" lon="10.682565"><ele>73.75</ele><time>2026-03-28T14:03:59.709Z</time></trkpt><trkpt lat="45.5956455" lon="10.6825034"><ele>71.0</ele><time>2026-03-28T14:04:00.71Z</time></trkpt><trkpt lat="45.5955206" lon="10.6824346"><ele>71.0</ele><time>2026-03-28T14:04:01.709Z</time></trkpt><trkpt lat="45.5953857" lon="10.682357"><ele>71.0</ele><time>2026-03-28T14:04:02.71Z</time></trkpt><trkpt lat="45.595242" lon="10.6822732"><ele>71.0</ele><time>2026-03-28T14:04:03.709Z</time></trkpt><trkpt lat="45.5950918" lon="10.682184"><ele>70.0</ele><time>2026-03-28T14:04:04.709Z</time></trkpt><trkpt lat="45.5949345" lon="10.6820903"><ele>69.0</ele><time>2026-03-28T14:04:05.71Z</time></trkpt><trkpt lat="45.5947778" lon="10.6819951"><ele>68.0</ele><time>2026-03-28T14:04:06.709Z</time></trkpt><trkpt lat="45.5946285" lon="10.6819039"><ele>73.0</ele><time>2026-03-28T14:04:07.71Z</time></trkpt><trkpt lat="45.5944832" lon="10.6818105"><ele>78.0</ele><time>2026-03-28T14:04:08.71Z</time></trkpt><trkpt lat="45.5943432" lon="10.6817067"><ele>83.0</ele><time>2026-03-28T14:04:09.709Z</time></trkpt><trkpt lat="45.5942053" lon="10.6815879"><ele>83.0</ele><time>2026-03-28T14:04:10.71Z</time></trkpt><trkpt lat="45.5940716" lon="10.681452"><ele>83.0</ele><time>2026-03-28T14:04:11.71Z</time></trkpt><trkpt lat="45.593941" lon="10.6813049"><ele>83.0</ele><time>2026-03-28T14:04:12.709Z</time></trkpt><trkpt lat="45.5938153" lon="10.6811437"><ele>83.0</ele><time>2026-03-28T14:04:13.71Z</time></trkpt><trkpt lat="45.5936937" lon="10.6809712"><ele>83.0</ele><time>2026-03-28T14:04:14.709Z</time></trkpt><trkpt lat="45.5935736" lon="10.6807913"><ele>83.0</ele><time>2026-03-28T14:04:15.709Z</time></trkpt><trkpt lat="45.5934546" lon="10.6806022"><ele>83.0</ele><time>2026-03-28T14:04:16.709Z</time></trkpt><trkpt lat="45.5933338" lon="10.6804076"><ele>83.0</ele><time>2026-03-28T14:04:17.71Z</time></trkpt><trkpt lat="45.5932103" lon="10.6802088"><ele>83.0</ele><time>2026-03-28T14:04:18.71Z</time></trkpt><trkpt lat="45.593084" lon="10.6800095"><ele>78.33333333333334</ele><time>2026-03-28T14:04:19.709Z</time></trkpt><trkpt lat="45.5929655" lon="10.6798176"><ele>73.66666666666667</ele><time>2026-03-28T14:04:20.71Z</time></trkpt><trkpt lat="45.5928524" lon="10.6796351"><ele>69.0</ele><time>2026-03-28T14:04:21.709Z</time></trkpt><trkpt lat="45.5927412" lon="10.6794646"><ele>69.66666666666667</ele><time>2026-03-28T14:04:22.709Z</time></trkpt><trkpt lat="45.5926206" lon="10.6793063"><ele>70.33333333333334</ele><time>2026-03-28T14:04:23.71Z</time></trkpt><trkpt lat="45.5924956" lon="10.6791523"><ele>71.0</ele><time>2026-03-28T14:04:24.71Z</time></trkpt><trkpt lat="45.5923606" lon="10.6790048"><ele>71.0</ele><time>2026-03-28T14:04:25.71Z</time></trkpt><trkpt lat="45.5922185" lon="10.6788576"><ele>71.0</ele><time>2026-03-28T14:04:26.709Z</time></trkpt><trkpt lat="45.5920679" lon="10.6787141"><ele>71.0</ele><time>2026-03-28T14:04:27.71Z</time></trkpt><trkpt lat="45.5919132" lon="10.6785669"><ele>72.0</ele><time>2026-03-28T14:04:28.71Z</time></trkpt><trkpt lat="45.5917545" lon="10.6784156"><ele>73.0</ele><time>2026-03-28T14:04:29.709Z</time></trkpt><trkpt lat="45.5916008" lon="10.6782708"><ele>74.0</ele><time>2026-03-28T14:04:30.71Z</time></trkpt><trkpt lat="45.5914539" lon="10.6781378"><ele>74.0</ele><time>2026-03-28T14:04:31.709Z</time></trkpt><trkpt lat="45.5913037" lon="10.6780074"><ele>74.0</ele><time>2026-03-28T14:04:32.71Z</time></trkpt><trkpt lat="45.5911499" lon="10.6778866"><ele>74.0</ele><time>2026-03-28T14:04:33.709Z</time></trkpt><trkpt lat="45.5909883" lon="10.6777786"><ele>72.0</ele><time>2026-03-28T14:04:34.71Z</time></trkpt><trkpt lat="45.5908234" lon="10.6776729"><ele>70.0</ele><time>2026-03-28T14:04:35.709Z</time></trkpt><trkpt lat="45.5906527" lon="10.6775735"><ele>68.0</ele><time>2026-03-28T14:04:36.71Z</time></trkpt><trkpt lat="45.5904792" lon="10.6774725"><ele>73.0</ele><time>2026-03-28T14:04:37.71Z</time></trkpt><trkpt lat="45.5903015" lon="10.6773652"><ele>78.0</ele><time>2026-03-28T14:04:38.709Z</time></trkpt><trkpt lat="45.5901192" lon="10.6772572"><ele>83.0</ele><time>2026-03-28T14:04:39.709Z</time></trkpt><trkpt lat="45.5899387" lon="10.6771539"><ele>83.0</ele><time>2026-03-28T14:04:40.71Z</time></trkpt><trkpt lat="45.5897704" lon="10.6770574"><ele>83.0</ele><time>2026-03-28T14:04:41.709Z</time></trkpt><trkpt lat="45.5896137" lon="10.6769569"><ele>83.0</ele><time>2026-03-28T14:04:42.709Z</time></trkpt><trkpt lat="45.5894627" lon="10.6768525"><ele>81.0</ele><time>2026-03-28T14:04:43.709Z</time></trkpt><trkpt lat="45.5893111" lon="10.6767389"><ele>79.0</ele><time>2026-03-28T14:04:44.709Z</time></trkpt><trkpt lat="45.5891585" lon="10.6766217"><ele>77.0</ele><time>2026-03-28T14:04:45.709Z</time></trkpt><trkpt lat="45.5890028" lon="10.6765036"><ele>77.0</ele><time>2026-03-28T14:04:46.709Z</time></trkpt><trkpt lat="45.5888471" lon="10.676383"><ele>77.0</ele><time>2026-03-28T14:04:47.709Z</time></trkpt><trkpt lat="45.5886968" lon="10.676269"><ele>77.0</ele><time>2026-03-28T14:04:48.71Z</time></trkpt><trkpt lat="45.5885548" lon="10.6761594"><ele>74.0</ele><time>2026-03-28T14:04:49.71Z</time></trkpt><trkpt lat="45.5884153" lon="10.6760537"><ele>71.0</ele><time>2026-03-28T14:04:50.71Z</time></trkpt><trkpt lat="45.5882742" lon="10.6759467"><ele>68.0</ele><time>2026-03-28T14:04:51.709Z</time></trkpt><trkpt lat="45.5881408" lon="10.675845"><ele>68.0</ele><time>2026-03-28T14:04:52.71Z</time></trkpt><trkpt lat="45.5880092" lon="10.6757481"><ele>68.0</ele><time>2026-03-28T14:04:53.71Z</time></trkpt><trkpt lat="45.5878714" lon="10.6756493"><ele>68.0</ele><time>2026-03-28T14:04:54.71Z</time></trkpt><trkpt lat="45.5877253" lon="10.6755507"><ele>73.33333333333334</ele><time>2026-03-28T14:04:55.71Z</time></trkpt><trkpt lat="45.5875707" lon="10.6754544"><ele>78.66666666666667</ele><time>2026-03-28T14:04:56.71Z</time></trkpt><trkpt lat="45.5874129" lon="10.6753662"><ele>84.0</ele><time>2026-03-28T14:04:57.71Z</time></trkpt><trkpt lat="45.58725" lon="10.6752855"><ele>79.66666666666667</ele><time>2026-03-28T14:04:58.709Z</time></trkpt><trkpt lat="45.5870843" lon="10.6752089"><ele>75.33333333333334</ele><time>2026-03-28T14:04:59.71Z</time></trkpt><trkpt lat="45.5869198" lon="10.6751348"><ele>71.0</ele><time>2026-03-28T14:05:00.709Z</time></trkpt><trkpt lat="45.586763" lon="10.6750633"><ele>71.0</ele><time>2026-03-28T14:05:01.71Z</time></trkpt><trkpt lat="45.5866083" lon="10.6749944"><ele>71.0</ele><time>2026-03-28T14:05:02.71Z</time></trkpt><trkpt lat="45.5864537" lon="10.674926"><ele>71.0</ele><time>2026-03-28T14:05:03.71Z</time></trkpt><trkpt lat="45.5863041" lon="10.67486"><ele>72.25</ele><time>2026-03-28T14:05:04.71Z</time></trkpt><trkpt lat="45.5861584" lon="10.6747963"><ele>73.5</ele><time>2026-03-28T14:05:05.71Z</time></trkpt><trkpt lat="45.5860208" lon="10.6747337"><ele>74.75</ele><time>2026-03-28T14:05:06.71Z</time></trkpt><trkpt lat="45.5858866" lon="10.6746761"><ele>76.0</ele><time>2026-03-28T14:05:07.71Z</time></trkpt><trkpt lat="45.5857513" lon="10.6746157"><ele>76.0</ele><time>2026-03-28T14:05:08.71Z</time></trkpt><trkpt lat="45.5856161" lon="10.6745559"><ele>76.0</ele><time>2026-03-28T14:05:09.709Z</time></trkpt><trkpt lat="45.585479" lon="10.6744968"><ele>76.0</ele><time>2026-03-28T14:05:10.709Z</time></trkpt><trkpt lat="45.5853417" lon="10.6744349"><ele>76.0</ele><time>2026-03-28T14:05:11.71Z</time></trkpt><trkpt lat="45.5852103" lon="10.6743751"><ele>74.5</ele><time>2026-03-28T14:05:12.708Z</time></trkpt><trkpt lat="45.5850869" lon="10.6743181"><ele>73.0</ele><time>2026-03-28T14:05:13.71Z</time></trkpt><trkpt lat="45.5849661" lon="10.6742664"><ele>71.5</ele><time>2026-03-28T14:05:14.709Z</time></trkpt><trkpt lat="45.5848368" lon="10.6742161"><ele>70.0</ele><time>2026-03-28T14:05:15.709Z</time></trkpt><trkpt lat="45.5846983" lon="10.6741721"><ele>70.0</ele><time>2026-03-28T14:05:16.709Z</time></trkpt><trkpt lat="45.5845527" lon="10.6741382"><ele>70.0</ele><time>2026-03-28T14:05:17.708Z</time></trkpt><trkpt lat="45.5843997" lon="10.674119"><ele>70.0</ele><time>2026-03-28T14:05:18.71Z</time></trkpt><trkpt lat="45.5842464" lon="10.6741134"><ele>70.5</ele><time>2026-03-28T14:05:19.71Z</time></trkpt><trkpt lat="45.584092" lon="10.6741221"><ele>71.0</ele><time>2026-03-28T14:05:20.709Z</time></trkpt><trkpt lat="45.5839484" lon="10.6741433"><ele>71.5</ele><time>2026-03-28T14:05:21.709Z</time></trkpt><trkpt lat="45.5838175" lon="10.6741694"><ele>72.0</ele><time>2026-03-28T14:05:22.71Z</time></trkpt><trkpt lat="45.5836996" lon="10.6741999"><ele>71.8</ele><time>2026-03-28T14:05:23.709Z</time></trkpt><trkpt lat="45.5835907" lon="10.674227"><ele>71.6</ele><time>2026-03-28T14:05:24.709Z</time></trkpt><trkpt lat="45.5834852" lon="10.6742536"><ele>71.39999999999999</ele><time>2026-03-28T14:05:25.709Z</time></trkpt><trkpt lat="45.5833781" lon="10.6742824"><ele>71.2</ele><time>2026-03-28T14:05:26.709Z</time></trkpt><trkpt lat="45.5832695" lon="10.6743086"><ele>71.0</ele><time>2026-03-28T14:05:27.709Z</time></trkpt><trkpt lat="45.5831558" lon="10.6743368"><ele>71.0</ele><time>2026-03-28T14:05:28.709Z</time></trkpt><trkpt lat="45.5830352" lon="10.6743693"><ele>71.0</ele><time>2026-03-28T14:05:29.71Z</time></trkpt><trkpt lat="45.5829118" lon="10.6744026"><ele>71.0</ele><time>2026-03-28T14:05:30.709Z</time></trkpt><trkpt lat="45.5827843" lon="10.6744315"><ele>71.0</ele><time>2026-03-28T14:05:31.71Z</time></trkpt><trkpt lat="45.5826537" lon="10.6744495"><ele>70.75</ele><time>2026-03-28T14:05:32.709Z</time></trkpt><trkpt lat="45.582523" lon="10.6744561"><ele>70.5</ele><time>2026-03-28T14:05:33.71Z</time></trkpt><trkpt lat="45.5823866" lon="10.6744488"><ele>70.25</ele><time>2026-03-28T14:05:34.709Z</time></trkpt><trkpt lat="45.5822491" lon="10.6744248"><ele>70.0</ele><time>2026-03-28T14:05:35.71Z</time></trkpt><trkpt lat="45.5821077" lon="10.6743869"><ele>72.25</ele><time>2026-03-28T14:05:36.709Z</time></trkpt><trkpt lat="45.581964" lon="10.6743385"><ele>74.5</ele><time>2026-03-28T14:05:37.709Z</time></trkpt><trkpt lat="45.5818226" lon="10.6742783"><ele>76.75</ele><time>2026-03-28T14:05:38.71Z</time></trkpt><trkpt lat="45.5816835" lon="10.6742183"><ele>79.0</ele><time>2026-03-28T14:05:39.71Z</time></trkpt><trkpt lat="45.5815496" lon="10.6741562"><ele>79.0</ele><time>2026-03-28T14:05:40.709Z</time></trkpt><trkpt lat="45.5814126" lon="10.6740892"><ele>79.0</ele><time>2026-03-28T14:05:41.71Z</time></trkpt><trkpt lat="45.5812799" lon="10.6740209"><ele>79.0</ele><time>2026-03-28T14:05:42.709Z</time></trkpt><trkpt lat="45.5811567" lon="10.673958"><ele>79.0</ele><time>2026-03-28T14:05:43.709Z</time></trkpt><trkpt lat="45.5810347" lon="10.6738962"><ele>82.75</ele><time>2026-03-28T14:05:44.71Z</time></trkpt><trkpt lat="45.580913" lon="10.6738341"><ele>86.5</ele><time>2026-03-28T14:05:45.71Z</time></trkpt><trkpt lat="45.58079" lon="10.6737736"><ele>90.25</ele><time>2026-03-28T14:05:46.71Z</time></trkpt><trkpt lat="45.5806671" lon="10.6737137"><ele>94.0</ele><time>2026-03-28T14:05:47.71Z</time></trkpt><trkpt lat="45.5805442" lon="10.6736555"><ele>89.5</ele><time>2026-03-28T14:05:48.709Z</time></trkpt><trkpt lat="45.5804215" lon="10.6736013"><ele>85.0</ele><time>2026-03-28T14:05:49.709Z</time></trkpt><trkpt lat="45.5802975" lon="10.6735538"><ele>80.5</ele><time>2026-03-28T14:05:50.71Z</time></trkpt><trkpt lat="45.5801688" lon="10.6735273"><ele>76.0</ele><time>2026-03-28T14:05:51.709Z</time></trkpt><trkpt lat="45.5800376" lon="10.6735179"><ele>76.0</ele><time>2026-03-28T14:05:52.709Z</time></trkpt><trkpt lat="45.5799045" lon="10.67353"><ele>76.0</ele><time>2026-03-28T14:05:53.709Z</time></trkpt><trkpt lat="45.5797723" lon="10.6735569"><ele>76.0</ele><time>2026-03-28T14:05:54.709Z</time></trkpt><trkpt lat="45.5796417" lon="10.6735972"><ele>76.0</ele><time>2026-03-28T14:05:55.71Z</time></trkpt><trkpt lat="45.5795122" lon="10.6736497"><ele>82.25</ele><time>2026-03-28T14:05:56.71Z</time></trkpt><trkpt lat="45.5793813" lon="10.6737052"><ele>88.5</ele><time>2026-03-28T14:05:57.709Z</time></trkpt><trkpt lat="45.5792512" lon="10.6737614"><ele>94.75</ele><time>2026-03-28T14:05:58.709Z</time></trkpt><trkpt lat="45.5791223" lon="10.673814"><ele>101.0</ele><time>2026-03-28T14:05:59.71Z</time></trkpt><trkpt lat="45.5789924" lon="10.6738544"><ele>101.0</ele><time>2026-03-28T14:06:00.709Z</time></trkpt><trkpt lat="45.5788599" lon="10.6738861"><ele>101.0</ele><time>2026-03-28T14:06:01.709Z</time></trkpt><trkpt lat="45.5787226" lon="10.6739052"><ele>101.0</ele><time>2026-03-28T14:06:02.709Z</time></trkpt><trkpt lat="45.5785852" lon="10.6739112"><ele>101.0</ele><time>2026-03-28T14:06:03.71Z</time></trkpt><trkpt lat="45.5784574" lon="10.6739124"><ele>100.5</ele><time>2026-03-28T14:06:04.709Z</time></trkpt><trkpt lat="45.578338" lon="10.6739082"><ele>100.0</ele><time>2026-03-28T14:06:05.71Z</time></trkpt><trkpt lat="45.5782165" lon="10.6739056"><ele>99.5</ele><time>2026-03-28T14:06:06.709Z</time></trkpt><trkpt lat="45.5780934" lon="10.6739039"><ele>99.0</ele><time>2026-03-28T14:06:07.709Z</time></trkpt><trkpt lat="45.5779714" lon="10.6739011"><ele>99.0</ele><time>2026-03-28T14:06:08.709Z</time></trkpt><trkpt lat="45.5778593" lon="10.6739021"><ele>99.0</ele><time>2026-03-28T14:06:09.71Z</time></trkpt><trkpt lat="45.5777598" lon="10.6739045"><ele>99.0</ele><time>2026-03-28T14:06:10.71Z</time></trkpt><trkpt lat="45.5776793" lon="10.6739116"><ele>99.0</ele><time>2026-03-28T14:06:11.71Z</time></trkpt><trkpt lat="45.5776124" lon="10.6739224"><ele>99.0</ele><time>2026-03-28T14:06:12.709Z</time></trkpt><trkpt lat="45.5774977" lon="10.6739391"><ele>99.2</ele><time>2026-03-28T14:06:14.709Z</time></trkpt><trkpt lat="45.5773964" lon="10.6739564"><ele>99.4</ele><time>2026-03-28T14:06:16.709Z</time></trkpt><trkpt lat="45.5773055" lon="10.6739748"><ele>99.6</ele><time>2026-03-28T14:06:18.71Z</time></trkpt><trkpt lat="45.5771931" lon="10.6740041"><ele>99.8</ele><time>2026-03-28T14:06:20.71Z</time></trkpt><trkpt lat="45.5771225" lon="10.6740189"><ele>100.0</ele><time>2026-03-28T14:06:21.71Z</time></trkpt><trkpt lat="45.5770478" lon="10.6740382"><ele>98.83333333333334</ele><time>2026-03-28T14:06:22.709Z</time></trkpt><trkpt lat="45.5769731" lon="10.6740546"><ele>97.66666666666667</ele><time>2026-03-28T14:06:23.709Z</time></trkpt><trkpt lat="45.576897" lon="10.6740716"><ele>96.5</ele><time>2026-03-28T14:06:24.71Z</time></trkpt><trkpt lat="45.5768127" lon="10.6740889"><ele>95.33333333333334</ele><time>2026-03-28T14:06:25.709Z</time></trkpt><trkpt lat="45.5767229" lon="10.674109"><ele>94.16666666666667</ele><time>2026-03-28T14:06:26.71Z</time></trkpt><trkpt lat="45.5766277" lon="10.6741279"><ele>93.0</ele><time>2026-03-28T14:06:27.71Z</time></trkpt><trkpt lat="45.5765259" lon="10.6741489"><ele>93.0</ele><time>2026-03-28T14:06:28.71Z</time></trkpt><trkpt lat="45.5764185" lon="10.6741687"><ele>93.0</ele><time>2026-03-28T14:06:29.71Z</time></trkpt><trkpt lat="45.5763029" lon="10.6741917"><ele>93.0</ele><time>2026-03-28T14:06:30.71Z</time></trkpt><trkpt lat="45.5761812" lon="10.6742168"><ele>93.0</ele><time>2026-03-28T14:06:31.71Z</time></trkpt><trkpt lat="45.5760565" lon="10.6742425"><ele>90.5</ele><time>2026-03-28T14:06:32.709Z</time></trkpt><trkpt lat="45.5759262" lon="10.6742686"><ele>88.0</ele><time>2026-03-28T14:06:33.709Z</time></trkpt><trkpt lat="45.575799" lon="10.674295"><ele>85.5</ele><time>2026-03-28T14:06:34.71Z</time></trkpt><trkpt lat="45.5756818" lon="10.6743205"><ele>83.0</ele><time>2026-03-28T14:06:35.709Z</time></trkpt><trkpt lat="45.5755699" lon="10.6743446"><ele>83.0</ele><time>2026-03-28T14:06:36.709Z</time></trkpt><trkpt lat="45.5754558" lon="10.6743674"><ele>83.0</ele><time>2026-03-28T14:06:37.709Z</time></trkpt><trkpt lat="45.5753418" lon="10.6743941"><ele>83.0</ele><time>2026-03-28T14:06:38.71Z</time></trkpt><trkpt lat="45.5752346" lon="10.6744167"><ele>83.0</ele><time>2026-03-28T14:06:39.709Z</time></trkpt><trkpt lat="45.575133" lon="10.6744363"><ele>83.0</ele><time>2026-03-28T14:06:40.709Z</time></trkpt><trkpt lat="45.5750368" lon="10.6744547"><ele>85.4</ele><time>2026-03-28T14:06:41.709Z</time></trkpt><trkpt lat="45.5749483" lon="10.6744688"><ele>87.80000000000001</ele><time>2026-03-28T14:06:42.71Z</time></trkpt><trkpt lat="45.5748615" lon="10.6744853"><ele>90.2</ele><time>2026-03-28T14:06:43.709Z</time></trkpt><trkpt lat="45.5747724" lon="10.6745026"><ele>92.6</ele><time>2026-03-28T14:06:44.71Z</time></trkpt><trkpt lat="45.5746808" lon="10.6745277"><ele>95.0</ele><time>2026-03-28T14:06:45.71Z</time></trkpt><trkpt lat="45.5745854" lon="10.6745636"><ele>93.2</ele><time>2026-03-28T14:06:46.709Z</time></trkpt><trkpt lat="45.5744905" lon="10.6746124"><ele>91.4</ele><time>2026-03-28T14:06:47.71Z</time></trkpt><trkpt lat="45.5744002" lon="10.6746687"><ele>89.6</ele><time>2026-03-28T14:06:48.71Z</time></trkpt><trkpt lat="45.5743142" lon="10.6747333"><ele>87.8</ele><time>2026-03-28T14:06:49.709Z</time></trkpt><trkpt lat="45.5742344" lon="10.6748051"><ele>86.0</ele><time>2026-03-28T14:06:50.709Z</time></trkpt><trkpt lat="45.5741588" lon="10.6748844"><ele>86.0</ele><time>2026-03-28T14:06:51.709Z</time></trkpt><trkpt lat="45.5740891" lon="10.6749671"><ele>86.0</ele><time>2026-03-28T14:06:52.709Z</time></trkpt><trkpt lat="45.5740232" lon="10.6750548"><ele>86.0</ele><time>2026-03-28T14:06:53.709Z</time></trkpt><trkpt lat="45.5739623" lon="10.6751469"><ele>86.0</ele><time>2026-03-28T14:06:54.709Z</time></trkpt><trkpt lat="45.5739098" lon="10.675237"><ele>86.0</ele><time>2026-03-28T14:06:55.709Z</time></trkpt><trkpt lat="45.5738617" lon="10.6753258"><ele>86.0</ele><time>2026-03-28T14:06:56.709Z</time></trkpt><trkpt lat="45.5738212" lon="10.6754134"><ele>85.16666666666667</ele><time>2026-03-28T14:06:57.71Z</time></trkpt><trkpt lat="45.5737869" lon="10.6754981"><ele>84.33333333333334</ele><time>2026-03-28T14:06:58.71Z</time></trkpt><trkpt lat="45.5737299" lon="10.6756666"><ele>83.5</ele><time>2026-03-28T14:07:00.71Z</time></trkpt><trkpt lat="45.573703" lon="10.6757592"><ele>82.66666666666667</ele><time>2026-03-28T14:07:01.71Z</time></trkpt><trkpt lat="45.5736792" lon="10.6758549"><ele>81.83333333333333</ele><time>2026-03-28T14:07:02.71Z</time></trkpt><trkpt lat="45.5736579" lon="10.6759488"><ele>81.0</ele><time>2026-03-28T14:07:03.709Z</time></trkpt><trkpt lat="45.5736396" lon="10.6760503"><ele>81.4</ele><time>2026-03-28T14:07:04.71Z</time></trkpt><trkpt lat="45.5736245" lon="10.6761622"><ele>81.8</ele><time>2026-03-28T14:07:05.709Z</time></trkpt><trkpt lat="45.5736151" lon="10.6762864"><ele>82.2</ele><time>2026-03-28T14:07:06.709Z</time></trkpt><trkpt lat="45.5736144" lon="10.6764224"><ele>82.60000000000001</ele><time>2026-03-28T14:07:07.709Z</time></trkpt><trkpt lat="45.5736208" lon="10.6765659"><ele>83.0</ele><time>2026-03-28T14:07:08.709Z</time></trkpt><trkpt lat="45.5736327" lon="10.6767187"><ele>83.0</ele><time>2026-03-28T14:07:09.71Z</time></trkpt><trkpt lat="45.573654" lon="10.6768724"><ele>83.0</ele><time>2026-03-28T14:07:10.709Z</time></trkpt><trkpt lat="45.573683" lon="10.6770282"><ele>83.0</ele><time>2026-03-28T14:07:11.709Z</time></trkpt><trkpt lat="45.5737203" lon="10.6771752"><ele>83.0</ele><time>2026-03-28T14:07:12.709Z</time></trkpt><trkpt lat="45.5737612" lon="10.6773042"><ele>83.0</ele><time>2026-03-28T14:07:13.71Z</time></trkpt><trkpt lat="45.5738073" lon="10.6774257"><ele>82.60000000000001</ele><time>2026-03-28T14:07:14.709Z</time></trkpt><trkpt lat="45.573858" lon="10.6775388"><ele>82.2</ele><time>2026-03-28T14:07:15.71Z</time></trkpt><trkpt lat="45.5739142" lon="10.6776451"><ele>81.8</ele><time>2026-03-28T14:07:16.709Z</time></trkpt><trkpt lat="45.5739763" lon="10.6777505"><ele>81.4</ele><time>2026-03-28T14:07:17.71Z</time></trkpt><trkpt lat="45.5740487" lon="10.6778518"><ele>81.0</ele><time>2026-03-28T14:07:18.71Z</time></trkpt><trkpt lat="45.5741313" lon="10.6779536"><ele>81.0</ele><time>2026-03-28T14:07:19.709Z</time></trkpt><trkpt lat="45.5742261" lon="10.6780497"><ele>81.0</ele><time>2026-03-28T14:07:20.71Z</time></trkpt><trkpt lat="45.5743285" lon="10.6781489"><ele>81.0</ele><time>2026-03-28T14:07:21.71Z</time></trkpt><trkpt lat="45.5744294" lon="10.6782406"><ele>81.0</ele><time>2026-03-28T14:07:22.709Z</time></trkpt><trkpt lat="45.5745262" lon="10.6783267"><ele>81.75</ele><time>2026-03-28T14:07:23.71Z</time></trkpt><trkpt lat="45.5746241" lon="10.6784187"><ele>82.5</ele><time>2026-03-28T14:07:24.71Z</time></trkpt><trkpt lat="45.5747273" lon="10.6785131"><ele>83.25</ele><time>2026-03-28T14:07:25.71Z</time></trkpt><trkpt lat="45.5748376" lon="10.6786156"><ele>84.0</ele><time>2026-03-28T14:07:26.709Z</time></trkpt><trkpt lat="45.5749519" lon="10.6787215"><ele>84.0</ele><time>2026-03-28T14:07:27.71Z</time></trkpt><trkpt lat="45.5750662" lon="10.6788267"><ele>84.0</ele><time>2026-03-28T14:07:28.71Z</time></trkpt><trkpt lat="45.5751797" lon="10.6789319"><ele>84.0</ele><time>2026-03-28T14:07:29.709Z</time></trkpt><trkpt lat="45.5752875" lon="10.6790324"><ele>84.0</ele><time>2026-03-28T14:07:30.709Z</time></trkpt><trkpt lat="45.5753881" lon="10.6791279"><ele>84.75</ele><time>2026-03-28T14:07:31.71Z</time></trkpt><trkpt lat="45.5754853" lon="10.6792213"><ele>85.5</ele><time>2026-03-28T14:07:32.71Z</time></trkpt><trkpt lat="45.5755803" lon="10.679314"><ele>86.25</ele><time>2026-03-28T14:07:33.71Z</time></trkpt><trkpt lat="45.5756749" lon="10.6794106"><ele>87.0</ele><time>2026-03-28T14:07:34.709Z</time></trkpt><trkpt lat="45.5757656" lon="10.6795172"><ele>87.0</ele><time>2026-03-28T14:07:35.71Z</time></trkpt><trkpt lat="45.57585" lon="10.679632"><ele>87.0</ele><time>2026-03-28T14:07:36.709Z</time></trkpt><trkpt lat="45.5759291" lon="10.6797604"><ele>87.0</ele><time>2026-03-28T14:07:37.709Z</time></trkpt><trkpt lat="45.5760021" lon="10.679902"><ele>87.0</ele><time>2026-03-28T14:07:38.709Z</time></trkpt><trkpt lat="45.5760692" lon="10.6800539"><ele>87.0</ele><time>2026-03-28T14:07:39.709Z</time></trkpt><trkpt lat="45.5761302" lon="10.6802163"><ele>87.0</ele><time>2026-03-28T14:07:40.709Z</time></trkpt><trkpt lat="45.5761844" lon="10.6803897"><ele>87.0</ele><time>2026-03-28T14:07:41.709Z</time></trkpt><trkpt lat="45.5762323" lon="10.6805728"><ele>87.0</ele><time>2026-03-28T14:07:42.71Z</time></trkpt><trkpt lat="45.5762783" lon="10.6807597"><ele>90.0</ele><time>2026-03-28T14:07:43.71Z</time></trkpt><trkpt lat="45.5763254" lon="10.6809535"><ele>93.0</ele><time>2026-03-28T14:07:44.709Z</time></trkpt><trkpt lat="45.5763712" lon="10.6811496"><ele>96.0</ele><time>2026-03-28T14:07:45.709Z</time></trkpt><trkpt lat="45.5764167" lon="10.6813509"><ele>99.0</ele><time>2026-03-28T14:07:46.709Z</time></trkpt><trkpt lat="45.5764609" lon="10.6815379"><ele>99.0</ele><time>2026-03-28T14:07:47.71Z</time></trkpt><trkpt lat="45.5765035" lon="10.681712"><ele>99.0</ele><time>2026-03-28T14:07:48.71Z</time></trkpt><trkpt lat="45.5765444" lon="10.6818833"><ele>99.0</ele><time>2026-03-28T14:07:49.71Z</time></trkpt><trkpt lat="45.5765842" lon="10.6820562"><ele>99.0</ele><time>2026-03-28T14:07:50.709Z</time></trkpt><trkpt lat="45.5766242" lon="10.6822355"><ele>97.5</ele><time>2026-03-28T14:07:51.709Z</time></trkpt><trkpt lat="45.5766689" lon="10.6824162"><ele>96.0</ele><time>2026-03-28T14:07:52.71Z</time></trkpt><trkpt lat="45.5767197" lon="10.6825907"><ele>94.5</ele><time>2026-03-28T14:07:53.71Z</time></trkpt><trkpt lat="45.5767784" lon="10.6827561"><ele>93.0</ele><time>2026-03-28T14:07:54.709Z</time></trkpt><trkpt lat="45.5768468" lon="10.6829141"><ele>93.25</ele><time>2026-03-28T14:07:55.71Z</time></trkpt><trkpt lat="45.5769279" lon="10.6830672"><ele>93.5</ele><time>2026-03-28T14:07:56.709Z</time></trkpt><trkpt lat="45.5770265" lon="10.6832121"><ele>93.75</ele><time>2026-03-28T14:07:57.709Z</time></trkpt><trkpt lat="45.5771364" lon="10.6833451"><ele>94.0</ele><time>2026-03-28T14:07:58.709Z</time></trkpt><trkpt lat="45.5772498" lon="10.6834589"><ele>94.0</ele><time>2026-03-28T14:07:59.71Z</time></trkpt><trkpt lat="45.5773651" lon="10.6835542"><ele>94.0</ele><time>2026-03-28T14:08:00.709Z</time></trkpt><trkpt lat="45.5774744" lon="10.6836349"><ele>94.0</ele><time>2026-03-28T14:08:01.71Z</time></trkpt><trkpt lat="45.577582" lon="10.683709"><ele>94.0</ele><time>2026-03-28T14:08:02.709Z</time></trkpt><trkpt lat="45.577683" lon="10.6837772"><ele>94.25</ele><time>2026-03-28T14:08:03.71Z</time></trkpt><trkpt lat="45.5778738" lon="10.6839303"><ele>94.5</ele><time>2026-03-28T14:08:05.709Z</time></trkpt><trkpt lat="45.5779584" lon="10.6840169"><ele>94.75</ele><time>2026-03-28T14:08:06.71Z</time></trkpt><trkpt lat="45.578039" lon="10.6841117"><ele>95.0</ele><time>2026-03-28T14:08:07.71Z</time></trkpt><trkpt lat="45.5781152" lon="10.6842133"><ele>95.0</ele><time>2026-03-28T14:08:08.709Z</time></trkpt><trkpt lat="45.5781844" lon="10.6843281"><ele>95.0</ele><time>2026-03-28T14:08:09.709Z</time></trkpt><trkpt lat="45.5782494" lon="10.6844519"><ele>95.0</ele><time>2026-03-28T14:08:10.709Z</time></trkpt><trkpt lat="45.5783114" lon="10.6845872"><ele>95.0</ele><time>2026-03-28T14:08:11.709Z</time></trkpt><trkpt lat="45.5783668" lon="10.6847283"><ele>95.0</ele><time>2026-03-28T14:08:12.71Z</time></trkpt><trkpt lat="45.578421" lon="10.6848723"><ele>93.75</ele><time>2026-03-28T14:08:13.71Z</time></trkpt><trkpt lat="45.5784782" lon="10.6850201"><ele>92.5</ele><time>2026-03-28T14:08:14.709Z</time></trkpt><trkpt lat="45.5785346" lon="10.6851699"><ele>91.25</ele><time>2026-03-28T14:08:15.709Z</time></trkpt><trkpt lat="45.5785923" lon="10.6853207"><ele>90.0</ele><time>2026-03-28T14:08:16.71Z</time></trkpt><trkpt lat="45.5786492" lon="10.6854732"><ele>93.25</ele><time>2026-03-28T14:08:17.709Z</time></trkpt><trkpt lat="45.5787063" lon="10.6856289"><ele>96.5</ele><time>2026-03-28T14:08:18.71Z</time></trkpt><trkpt lat="45.5787609" lon="10.6857772"><ele>99.75</ele><time>2026-03-28T14:08:19.71Z</time></trkpt><trkpt lat="45.5788143" lon="10.6859203"><ele>103.0</ele><time>2026-03-28T14:08:20.71Z</time></trkpt><trkpt lat="45.5788718" lon="10.6860732"><ele>101.5</ele><time>2026-03-28T14:08:21.71Z</time></trkpt><trkpt lat="45.5789355" lon="10.6862288"><ele>100.0</ele><time>2026-03-28T14:08:22.71Z</time></trkpt><trkpt lat="45.579002" lon="10.6863841"><ele>98.5</ele><time>2026-03-28T14:08:23.709Z</time></trkpt><trkpt lat="45.5790738" lon="10.686536"><ele>97.0</ele><time>2026-03-28T14:08:24.709Z</time></trkpt><trkpt lat="45.579153" lon="10.6866827"><ele>97.0</ele><time>2026-03-28T14:08:25.71Z</time></trkpt><trkpt lat="45.5792382" lon="10.6868293"><ele>97.0</ele><time>2026-03-28T14:08:26.709Z</time></trkpt><trkpt lat="45.579324" lon="10.6869742"><ele>97.0</ele><time>2026-03-28T14:08:27.71Z</time></trkpt><trkpt lat="45.5794045" lon="10.6871099"><ele>97.0</ele><time>2026-03-28T14:08:28.709Z</time></trkpt><trkpt lat="45.5794819" lon="10.6872456"><ele>97.19999999999999</ele><time>2026-03-28T14:08:29.709Z</time></trkpt><trkpt lat="45.5795509" lon="10.6873731"><ele>97.4</ele><time>2026-03-28T14:08:30.709Z</time></trkpt><trkpt lat="45.5796106" lon="10.6875074"><ele>97.6</ele><time>2026-03-28T14:08:31.709Z</time></trkpt><trkpt lat="45.5796613" lon="10.6876491"><ele>97.80000000000001</ele><time>2026-03-28T14:08:32.709Z</time></trkpt><trkpt lat="45.5797027" lon="10.687797"><ele>98.0</ele><time>2026-03-28T14:08:33.71Z</time></trkpt><trkpt lat="45.5797346" lon="10.6879515"><ele>98.0</ele><time>2026-03-28T14:08:34.71Z</time></trkpt><trkpt lat="45.5797582" lon="10.6881228"><ele>98.0</ele><time>2026-03-28T14:08:35.709Z</time></trkpt><trkpt lat="45.5797777" lon="10.6883"><ele>98.0</ele><time>2026-03-28T14:08:36.71Z</time></trkpt><trkpt lat="45.579794" lon="10.688482"><ele>98.0</ele><time>2026-03-28T14:08:37.71Z</time></trkpt><trkpt lat="45.5798116" lon="10.6886662"><ele>96.0</ele><time>2026-03-28T14:08:38.71Z</time></trkpt><trkpt lat="45.5798309" lon="10.6888527"><ele>94.0</ele><time>2026-03-28T14:08:39.709Z</time></trkpt><trkpt lat="45.5798504" lon="10.6890399"><ele>92.0</ele><time>2026-03-28T14:08:40.709Z</time></trkpt><trkpt lat="45.5798691" lon="10.689223"><ele>90.0</ele><time>2026-03-28T14:08:41.709Z</time></trkpt><trkpt lat="45.5798889" lon="10.689408"><ele>88.25</ele><time>2026-03-28T14:08:42.709Z</time></trkpt><trkpt lat="45.5799079" lon="10.6895955"><ele>86.5</ele><time>2026-03-28T14:08:43.709Z</time></trkpt><trkpt lat="45.5799275" lon="10.6897868"><ele>84.75</ele><time>2026-03-28T14:08:44.709Z</time></trkpt><trkpt lat="45.5799465" lon="10.6899834"><ele>83.0</ele><time>2026-03-28T14:08:45.71Z</time></trkpt><trkpt lat="45.5799652" lon="10.6901783"><ele>83.75</ele><time>2026-03-28T14:08:46.71Z</time></trkpt><trkpt lat="45.5799833" lon="10.6903616"><ele>84.5</ele><time>2026-03-28T14:08:47.71Z</time></trkpt><trkpt lat="45.5799987" lon="10.6905423"><ele>85.25</ele><time>2026-03-28T14:08:48.71Z</time></trkpt><trkpt lat="45.5800067" lon="10.6907206"><ele>86.0</ele><time>2026-03-28T14:08:49.71Z</time></trkpt><trkpt lat="45.5800041" lon="10.6909018"><ele>86.0</ele><time>2026-03-28T14:08:50.71Z</time></trkpt><trkpt lat="45.5799908" lon="10.6910798"><ele>86.0</ele><time>2026-03-28T14:08:51.71Z</time></trkpt><trkpt lat="45.5799668" lon="10.6912514"><ele>86.0</ele><time>2026-03-28T14:08:52.709Z</time></trkpt><trkpt lat="45.5799341" lon="10.6914163"><ele>86.0</ele><time>2026-03-28T14:08:53.709Z</time></trkpt><trkpt lat="45.5798881" lon="10.6915754"><ele>86.75</ele><time>2026-03-28T14:08:54.71Z</time></trkpt><trkpt lat="45.5798328" lon="10.6917287"><ele>87.5</ele><time>2026-03-28T14:08:55.71Z</time></trkpt><trkpt lat="45.579769" lon="10.691878"><ele>88.25</ele><time>2026-03-28T14:08:56.71Z</time></trkpt><trkpt lat="45.5797007" lon="10.6920246"><ele>89.0</ele><time>2026-03-28T14:08:57.709Z</time></trkpt><trkpt lat="45.5796304" lon="10.6921677"><ele>90.25</ele><time>2026-03-28T14:08:58.709Z</time></trkpt><trkpt lat="45.5795574" lon="10.6923074"><ele>91.5</ele><time>2026-03-28T14:08:59.709Z</time></trkpt><trkpt lat="45.5794857" lon="10.6924511"><ele>92.75</ele><time>2026-03-28T14:09:00.71Z</time></trkpt><trkpt lat="45.5794155" lon="10.6925973"><ele>94.0</ele><time>2026-03-28T14:09:01.71Z</time></trkpt><trkpt lat="45.5793459" lon="10.6927435"><ele>90.5</ele><time>2026-03-28T14:09:02.709Z</time></trkpt><trkpt lat="45.5792782" lon="10.692894"><ele>87.0</ele><time>2026-03-28T14:09:03.71Z</time></trkpt><trkpt lat="45.5792088" lon="10.6930461"><ele>83.5</ele><time>2026-03-28T14:09:04.709Z</time></trkpt><trkpt lat="45.5791424" lon="10.6932007"><ele>80.0</ele><time>2026-03-28T14:09:05.709Z</time></trkpt><trkpt lat="45.5790761" lon="10.6933607"><ele>80.0</ele><time>2026-03-28T14:09:06.709Z</time></trkpt><trkpt lat="45.5790115" lon="10.6935261"><ele>80.0</ele><time>2026-03-28T14:09:07.709Z</time></trkpt><trkpt lat="45.5789463" lon="10.6936918"><ele>80.0</ele><time>2026-03-28T14:09:08.709Z</time></trkpt><trkpt lat="45.5788822" lon="10.6938612"><ele>80.0</ele><time>2026-03-28T14:09:09.71Z</time></trkpt><trkpt lat="45.5788193" lon="10.6940339"><ele>81.0</ele><time>2026-03-28T14:09:10.709Z</time></trkpt><trkpt lat="45.5787545" lon="10.6942128"><ele>82.0</ele><time>2026-03-28T14:09:11.708Z</time></trkpt><trkpt lat="45.57869" lon="10.6943944"><ele>83.0</ele><time>2026-03-28T14:09:12.709Z</time></trkpt><trkpt lat="45.5786327" lon="10.6945714"><ele>84.0</ele><time>2026-03-28T14:09:13.71Z</time></trkpt><trkpt lat="45.5785807" lon="10.6947395"><ele>82.5</ele><time>2026-03-28T14:09:14.709Z</time></trkpt><trkpt lat="45.5785348" lon="10.6948958"><ele>81.0</ele><time>2026-03-28T14:09:15.709Z</time></trkpt><trkpt lat="45.578491" lon="10.6950508"><ele>79.5</ele><time>2026-03-28T14:09:16.709Z</time></trkpt><trkpt lat="45.5784504" lon="10.6952004"><ele>78.0</ele><time>2026-03-28T14:09:17.71Z</time></trkpt><trkpt lat="45.578414" lon="10.6953388"><ele>78.0</ele><time>2026-03-28T14:09:18.71Z</time></trkpt><trkpt lat="45.5783789" lon="10.6954727"><ele>78.0</ele><time>2026-03-28T14:09:19.71Z</time></trkpt><trkpt lat="45.5783477" lon="10.6955971"><ele>78.0</ele><time>2026-03-28T14:09:20.71Z</time></trkpt><trkpt lat="45.5783172" lon="10.6957113"><ele>78.0</ele><time>2026-03-28T14:09:21.709Z</time></trkpt><trkpt lat="45.5782903" lon="10.6958235"><ele>78.0</ele><time>2026-03-28T14:09:22.71Z</time></trkpt><trkpt lat="45.5782621" lon="10.6959337"><ele>78.0</ele><time>2026-03-28T14:09:23.709Z</time></trkpt><trkpt lat="45.5782335" lon="10.6960436"><ele>78.66666666666667</ele><time>2026-03-28T14:09:24.709Z</time></trkpt><trkpt lat="45.5782084" lon="10.6961491"><ele>79.33333333333333</ele><time>2026-03-28T14:09:25.71Z</time></trkpt><trkpt lat="45.5781848" lon="10.6962475"><ele>80.0</ele><time>2026-03-28T14:09:26.71Z</time></trkpt><trkpt lat="45.578159" lon="10.6963526"><ele>80.66666666666666</ele><time>2026-03-28T14:09:27.71Z</time></trkpt><trkpt lat="45.5781328" lon="10.6964602"><ele>81.33333333333333</ele><time>2026-03-28T14:09:28.709Z</time></trkpt><trkpt lat="45.5781079" lon="10.6965688"><ele>82.0</ele><time>2026-03-28T14:09:29.71Z</time></trkpt><trkpt lat="45.5780799" lon="10.6966793"><ele>82.0</ele><time>2026-03-28T14:09:30.709Z</time></trkpt><trkpt lat="45.5780534" lon="10.696793"><ele>82.0</ele><time>2026-03-28T14:09:31.71Z</time></trkpt><trkpt lat="45.5780265" lon="10.6969079"><ele>82.0</ele><time>2026-03-28T14:09:32.71Z</time></trkpt><trkpt lat="45.5779971" lon="10.6970293"><ele>82.0</ele><time>2026-03-28T14:09:33.709Z</time></trkpt><trkpt lat="45.5779681" lon="10.6971595"><ele>82.0</ele><time>2026-03-28T14:09:34.709Z</time></trkpt><trkpt lat="45.5779355" lon="10.6972994"><ele>82.8</ele><time>2026-03-28T14:09:35.71Z</time></trkpt><trkpt lat="45.5779035" lon="10.6974448"><ele>83.6</ele><time>2026-03-28T14:09:36.71Z</time></trkpt><trkpt lat="45.5778735" lon="10.697595"><ele>84.39999999999999</ele><time>2026-03-28T14:09:37.71Z</time></trkpt><trkpt lat="45.577849" lon="10.6977351"><ele>85.19999999999999</ele><time>2026-03-28T14:09:38.71Z</time></trkpt><trkpt lat="45.5778321" lon="10.6978666"><ele>86.0</ele><time>2026-03-28T14:09:39.709Z</time></trkpt><trkpt lat="45.5778191" lon="10.6980107"><ele>83.2</ele><time>2026-03-28T14:09:40.71Z</time></trkpt><trkpt lat="45.577811" lon="10.6981537"><ele>80.39999999999999</ele><time>2026-03-28T14:09:41.709Z</time></trkpt><trkpt lat="45.5778037" lon="10.6982909"><ele>77.6</ele><time>2026-03-28T14:09:42.71Z</time></trkpt><trkpt lat="45.5777997" lon="10.6984309"><ele>74.8</ele><time>2026-03-28T14:09:43.71Z</time></trkpt><trkpt lat="45.5777969" lon="10.6985663"><ele>72.0</ele><time>2026-03-28T14:09:44.709Z</time></trkpt><trkpt lat="45.5777952" lon="10.6987003"><ele>71.4</ele><time>2026-03-28T14:09:45.71Z</time></trkpt><trkpt lat="45.5777953" lon="10.6988467"><ele>70.80000000000001</ele><time>2026-03-28T14:09:46.71Z</time></trkpt><trkpt lat="45.5777985" lon="10.6990002"><ele>70.2</ele><time>2026-03-28T14:09:47.71Z</time></trkpt><trkpt lat="45.5778051" lon="10.6991471"><ele>69.60000000000001</ele><time>2026-03-28T14:09:48.709Z</time></trkpt><trkpt lat="45.5778135" lon="10.6992844"><ele>69.0</ele><time>2026-03-28T14:09:49.709Z</time></trkpt><trkpt lat="45.5778221" lon="10.6994017"><ele>68.8</ele><time>2026-03-28T14:09:50.709Z</time></trkpt><trkpt lat="45.5778294" lon="10.6995059"><ele>68.60000000000001</ele><time>2026-03-28T14:09:51.709Z</time></trkpt><trkpt lat="45.5778368" lon="10.6995998"><ele>68.4</ele><time>2026-03-28T14:09:52.71Z</time></trkpt><trkpt lat="45.5778494" lon="10.6997714"><ele>68.2</ele><time>2026-03-28T14:09:54.709Z</time></trkpt><trkpt lat="45.5778593" lon="10.6999447"><ele>68.0</ele><time>2026-03-28T14:09:56.709Z</time></trkpt><trkpt lat="45.577867" lon="10.7001217"><ele>71.16666666666667</ele><time>2026-03-28T14:09:58.709Z</time></trkpt><trkpt lat="45.5778682" lon="10.7002215"><ele>74.33333333333334</ele><time>2026-03-28T14:09:59.709Z</time></trkpt><trkpt lat="45.5778699" lon="10.7003331"><ele>77.5</ele><time>2026-03-28T14:10:00.71Z</time></trkpt><trkpt lat="45.5778692" lon="10.7004527"><ele>80.66666666666667</ele><time>2026-03-28T14:10:01.709Z</time></trkpt><trkpt lat="45.5778682" lon="10.7005687"><ele>83.83333333333333</ele><time>2026-03-28T14:10:02.71Z</time></trkpt><trkpt lat="45.5778662" lon="10.7006773"><ele>87.0</ele><time>2026-03-28T14:10:03.71Z</time></trkpt><trkpt lat="45.577863" lon="10.7007751"><ele>87.0</ele><time>2026-03-28T14:10:04.709Z</time></trkpt><trkpt lat="45.5778571" lon="10.7008671"><ele>87.0</ele><time>2026-03-28T14:10:05.709Z</time></trkpt><trkpt lat="45.5778522" lon="10.7009573"><ele>87.0</ele><time>2026-03-28T14:10:06.709Z</time></trkpt><trkpt lat="45.5778415" lon="10.7011357"><ele>87.0</ele><time>2026-03-28T14:10:08.709Z</time></trkpt><trkpt lat="45.5778349" lon="10.7012312"><ele>87.0</ele><time>2026-03-28T14:10:09.709Z</time></trkpt><trkpt lat="45.5778288" lon="10.7013292"><ele>87.0</ele><time>2026-03-28T14:10:10.71Z</time></trkpt><trkpt lat="45.5778192" lon="10.7014287"><ele>83.6</ele><time>2026-03-28T14:10:11.709Z</time></trkpt><trkpt lat="45.5778095" lon="10.7015289"><ele>80.19999999999999</ele><time>2026-03-28T14:10:12.709Z</time></trkpt><trkpt lat="45.5777992" lon="10.7016214"><ele>76.8</ele><time>2026-03-28T14:10:13.709Z</time></trkpt><trkpt lat="45.5777797" lon="10.7017877"><ele>73.4</ele><time>2026-03-28T14:10:15.71Z</time></trkpt><trkpt lat="45.5777544" lon="10.7019498"><ele>70.0</ele><time>2026-03-28T14:10:17.71Z</time></trkpt><trkpt lat="45.5777241" lon="10.7021234"><ele>69.71428571428571</ele><time>2026-03-28T14:10:19.709Z</time></trkpt><trkpt lat="45.5777062" lon="10.702216"><ele>69.42857142857143</ele><time>2026-03-28T14:10:20.709Z</time></trkpt><trkpt lat="45.5776889" lon="10.70231"><ele>69.14285714285714</ele><time>2026-03-28T14:10:21.709Z</time></trkpt><trkpt lat="45.5776723" lon="10.7023977"><ele>68.85714285714286</ele><time>2026-03-28T14:10:22.709Z</time></trkpt><trkpt lat="45.5776557" lon="10.7024846"><ele>68.57142857142857</ele><time>2026-03-28T14:10:23.709Z</time></trkpt><trkpt lat="45.5776375" lon="10.7025726"><ele>68.28571428571428</ele><time>2026-03-28T14:10:24.709Z</time></trkpt><trkpt lat="45.5776209" lon="10.7026613"><ele>68.0</ele><time>2026-03-28T14:10:25.709Z</time></trkpt><trkpt lat="45.5776025" lon="10.7027539"><ele>67.57142857142857</ele><time>2026-03-28T14:10:26.71Z</time></trkpt><trkpt lat="45.5775832" lon="10.7028483"><ele>67.14285714285714</ele><time>2026-03-28T14:10:27.709Z</time></trkpt><trkpt lat="45.5775661" lon="10.7029488"><ele>66.71428571428572</ele><time>2026-03-28T14:10:28.71Z</time></trkpt><trkpt lat="45.5775496" lon="10.7030429"><ele>66.28571428571428</ele><time>2026-03-28T14:10:29.71Z</time></trkpt><trkpt lat="45.5775337" lon="10.7031337"><ele>65.85714285714286</ele><time>2026-03-28T14:10:30.71Z</time></trkpt><trkpt lat="45.5775193" lon="10.7032243"><ele>65.42857142857143</ele><time>2026-03-28T14:10:31.71Z</time></trkpt><trkpt lat="45.5775048" lon="10.7033123"><ele>65.0</ele><time>2026-03-28T14:10:32.71Z</time></trkpt><trkpt lat="45.5774696" lon="10.703482"><ele>65.66666666666667</ele><time>2026-03-28T14:10:34.709Z</time></trkpt><trkpt lat="45.5774273" lon="10.7036542"><ele>66.33333333333334</ele><time>2026-03-28T14:10:36.709Z</time></trkpt><trkpt lat="45.5774075" lon="10.7037433"><ele>67.0</ele><time>2026-03-28T14:10:37.71Z</time></trkpt><trkpt lat="45.5773859" lon="10.7038338"><ele>67.66666666666667</ele><time>2026-03-28T14:10:38.71Z</time></trkpt><trkpt lat="45.5773622" lon="10.7039239"><ele>68.33333333333333</ele><time>2026-03-28T14:10:39.709Z</time></trkpt><trkpt lat="45.5773382" lon="10.7040206"><ele>69.0</ele><time>2026-03-28T14:10:40.709Z</time></trkpt><trkpt lat="45.5773118" lon="10.704122"><ele>69.0</ele><time>2026-03-28T14:10:41.71Z</time></trkpt><trkpt lat="45.5772833" lon="10.7042257"><ele>69.0</ele><time>2026-03-28T14:10:42.71Z</time></trkpt><trkpt lat="45.5772521" lon="10.7043301"><ele>69.0</ele><time>2026-03-28T14:10:43.709Z</time></trkpt><trkpt lat="45.5772229" lon="10.7044357"><ele>69.0</ele><time>2026-03-28T14:10:44.709Z</time></trkpt><trkpt lat="45.577191" lon="10.7045379"><ele>69.0</ele><time>2026-03-28T14:10:45.709Z</time></trkpt><trkpt lat="45.5771587" lon="10.7046427"><ele>69.0</ele><time>2026-03-28T14:10:46.709Z</time></trkpt><trkpt lat="45.5771253" lon="10.7047503"><ele>69.16666666666667</ele><time>2026-03-28T14:10:47.709Z</time></trkpt><trkpt lat="45.5770929" lon="10.7048555"><ele>69.33333333333333</ele><time>2026-03-28T14:10:48.709Z</time></trkpt><trkpt lat="45.5770696" lon="10.7049585"><ele>69.5</ele><time>2026-03-28T14:10:49.71Z</time></trkpt><trkpt lat="45.5770489" lon="10.7050537"><ele>69.66666666666666</ele><time>2026-03-28T14:10:50.709Z</time></trkpt><trkpt lat="45.5770362" lon="10.7051488"><ele>69.83333333333333</ele><time>2026-03-28T14:10:51.709Z</time></trkpt><trkpt lat="45.5770237" lon="10.7053283"><ele>70.0</ele><time>2026-03-28T14:10:53.709Z</time></trkpt><trkpt lat="45.5770211" lon="10.7054234"><ele>70.0</ele><time>2026-03-28T14:10:54.71Z</time></trkpt><trkpt lat="45.5770198" lon="10.7055211"><ele>70.0</ele><time>2026-03-28T14:10:55.709Z</time></trkpt><trkpt lat="45.5770198" lon="10.7056201"><ele>70.0</ele><time>2026-03-28T14:10:56.709Z</time></trkpt><trkpt lat="45.5770164" lon="10.7057193"><ele>70.0</ele><time>2026-03-28T14:10:57.71Z</time></trkpt><trkpt lat="45.5770071" lon="10.7058184"><ele>70.0</ele><time>2026-03-28T14:10:58.71Z</time></trkpt><trkpt lat="45.5769913" lon="10.7059193"><ele>70.0</ele><time>2026-03-28T14:10:59.709Z</time></trkpt><trkpt lat="45.5769692" lon="10.7060208"><ele>70.0</ele><time>2026-03-28T14:11:00.709Z</time></trkpt><trkpt lat="45.5769416" lon="10.7061156"><ele>70.33333333333333</ele><time>2026-03-28T14:11:01.71Z</time></trkpt><trkpt lat="45.5769147" lon="10.7062102"><ele>70.66666666666666</ele><time>2026-03-28T14:11:02.709Z</time></trkpt><trkpt lat="45.5768798" lon="10.7063017"><ele>71.0</ele><time>2026-03-28T14:11:03.71Z</time></trkpt><trkpt lat="45.5768457" lon="10.7063824"><ele>71.33333333333333</ele><time>2026-03-28T14:11:04.71Z</time></trkpt><trkpt lat="45.576778" lon="10.7065154"><ele>71.66666666666667</ele><time>2026-03-28T14:11:06.709Z</time></trkpt><trkpt lat="45.5767046" lon="10.7066504"><ele>72.0</ele><time>2026-03-28T14:11:08.71Z</time></trkpt><trkpt lat="45.5766257" lon="10.706775"><ele>72.0</ele><time>2026-03-28T14:11:10.71Z</time></trkpt><trkpt lat="45.5765618" lon="10.7068882"><ele>72.0</ele><time>2026-03-28T14:11:12.709Z</time></trkpt><trkpt lat="45.57651" lon="10.7069537"><ele>72.0</ele><time>2026-03-28T14:11:14.709Z</time></trkpt><trkpt lat="45.5764431" lon="10.7070588"><ele>72.0</ele><time>2026-03-28T14:11:16.709Z</time></trkpt><trkpt lat="45.5763997" lon="10.7071352"><ele>72.0</ele><time>2026-03-28T14:11:17.71Z</time></trkpt><trkpt lat="45.576348" lon="10.7072245"><ele>72.0</ele><time>2026-03-28T14:11:18.709Z</time></trkpt><trkpt lat="45.5762866" lon="10.7073286"><ele>71.8</ele><time>2026-03-28T14:11:19.71Z</time></trkpt><trkpt lat="45.576216" lon="10.7074487"><ele>71.6</ele><time>2026-03-28T14:11:20.71Z</time></trkpt><trkpt lat="45.5761394" lon="10.7075765"><ele>71.39999999999999</ele><time>2026-03-28T14:11:21.71Z</time></trkpt><trkpt lat="45.5760681" lon="10.7076945"><ele>71.2</ele><time>2026-03-28T14:11:22.71Z</time></trkpt><trkpt lat="45.576003" lon="10.7078055"><ele>71.0</ele><time>2026-03-28T14:11:23.709Z</time></trkpt><trkpt lat="45.5759394" lon="10.7079122"><ele>71.0</ele><time>2026-03-28T14:11:24.71Z</time></trkpt><trkpt lat="45.5758753" lon="10.7080191"><ele>71.0</ele><time>2026-03-28T14:11:25.709Z</time></trkpt><trkpt lat="45.5758163" lon="10.7081195"><ele>71.0</ele><time>2026-03-28T14:11:26.709Z</time></trkpt><trkpt lat="45.5757639" lon="10.7082083"><ele>71.0</ele><time>2026-03-28T14:11:27.709Z</time></trkpt><trkpt lat="45.5756933" lon="10.708326"><ele>71.0</ele><time>2026-03-28T14:11:29.709Z</time></trkpt><trkpt lat="45.5756528" lon="10.7084009"><ele>71.0</ele><time>2026-03-28T14:11:32.71Z</time></trkpt><trkpt lat="45.5756019" lon="10.7084908"><ele>71.0</ele><time>2026-03-28T14:11:35.709Z</time></trkpt><trkpt lat="45.5755437" lon="10.7085865"><ele>71.0</ele><time>2026-03-28T14:11:37.71Z</time></trkpt><trkpt lat="45.5754998" lon="10.7086571"><ele>71.0</ele><time>2026-03-28T14:11:38.709Z</time></trkpt><trkpt lat="45.5754452" lon="10.7087464"><ele>71.0</ele><time>2026-03-28T14:11:39.709Z</time></trkpt><trkpt lat="45.5753895" lon="10.708847"><ele>71.0</ele><time>2026-03-28T14:11:40.71Z</time></trkpt><trkpt lat="45.5753349" lon="10.7089399"><ele>71.0</ele><time>2026-03-28T14:11:41.709Z</time></trkpt><trkpt lat="45.5752859" lon="10.709022"><ele>70.39999999999999</ele><time>2026-03-28T14:11:42.709Z</time></trkpt><trkpt lat="45.57524" lon="10.7090944"><ele>69.8</ele><time>2026-03-28T14:11:43.709Z</time></trkpt><trkpt lat="45.5751526" lon="10.7092244"><ele>69.19999999999999</ele><time>2026-03-28T14:11:45.709Z</time></trkpt><trkpt lat="45.575068" lon="10.7093295"><ele>68.6</ele><time>2026-03-28T14:11:47.709Z</time></trkpt><trkpt lat="45.5749998" lon="10.7093971"><ele>68.0</ele><time>2026-03-28T14:11:49.71Z</time></trkpt><trkpt lat="45.5749476" lon="10.7094516"><ele>67.99999999999999</ele><time>2026-03-28T14:11:52.71Z</time></trkpt><trkpt lat="45.5748903" lon="10.709502"><ele>68.0</ele><time>2026-03-28T14:12:00.71Z</time></trkpt><trkpt lat="45.5748325" lon="10.7095488"><ele>68.0</ele><time>2026-03-28T14:12:13.71Z</time></trkpt><trkpt lat="45.5747738" lon="10.7095869"><ele>68.0</ele><time>2026-03-28T14:12:22.71Z</time></trkpt><trkpt lat="45.5747138" lon="10.7096182"><ele>68.0</ele><time>2026-03-28T14:12:24.709Z</time></trkpt><trkpt lat="45.5746441" lon="10.7096396"><ele>67.99999999999999</ele><time>2026-03-28T14:12:26.709Z</time></trkpt><trkpt lat="45.5745574" lon="10.7096828"><ele>68.0</ele><time>2026-03-28T14:12:28.709Z</time></trkpt><trkpt lat="45.5744206" lon="10.7097079"><ele>68.2</ele><time>2026-03-28T14:12:30.709Z</time></trkpt><trkpt lat="45.5743303" lon="10.7097152"><ele>68.4</ele><time>2026-03-28T14:12:31.71Z</time></trkpt><trkpt lat="45.5742278" lon="10.709727"><ele>68.60000000000001</ele><time>2026-03-28T14:12:32.709Z</time></trkpt><trkpt lat="45.5741184" lon="10.7097406"><ele>68.8</ele><time>2026-03-28T14:12:33.71Z</time></trkpt><trkpt lat="45.5740178" lon="10.7097618"><ele>69.0</ele><time>2026-03-28T14:12:34.709Z</time></trkpt><trkpt lat="45.5739191" lon="10.7097888"><ele>69.0</ele><time>2026-03-28T14:12:35.709Z</time></trkpt><trkpt lat="45.5738194" lon="10.7098283"><ele>69.0</ele><time>2026-03-28T14:12:36.71Z</time></trkpt><trkpt lat="45.5737153" lon="10.709881"><ele>69.0</ele><time>2026-03-28T14:12:37.71Z</time></trkpt><trkpt lat="45.5736128" lon="10.7099438"><ele>69.0</ele><time>2026-03-28T14:12:38.71Z</time></trkpt><trkpt lat="45.5735241" lon="10.7100135"><ele>69.0</ele><time>2026-03-28T14:12:39.709Z</time></trkpt><trkpt lat="45.5734431" lon="10.7100926"><ele>69.2</ele><time>2026-03-28T14:12:40.709Z</time></trkpt><trkpt lat="45.5733605" lon="10.7101834"><ele>69.4</ele><time>2026-03-28T14:12:41.709Z</time></trkpt><trkpt lat="45.5732764" lon="10.7102643"><ele>69.6</ele><time>2026-03-28T14:12:42.71Z</time></trkpt><trkpt lat="45.5731846" lon="10.7103224"><ele>69.8</ele><time>2026-03-28T14:12:43.709Z</time></trkpt><trkpt lat="45.5730824" lon="10.710362"><ele>70.0</ele><time>2026-03-28T14:12:44.71Z</time></trkpt><trkpt lat="45.5729754" lon="10.7103841"><ele>70.5</ele><time>2026-03-28T14:12:45.709Z</time></trkpt><trkpt lat="45.5728604" lon="10.7103894"><ele>71.0</ele><time>2026-03-28T14:12:46.709Z</time></trkpt><trkpt lat="45.5727406" lon="10.7103867"><ele>71.5</ele><time>2026-03-28T14:12:47.71Z</time></trkpt><trkpt lat="45.5726224" lon="10.7103821"><ele>72.0</ele><time>2026-03-28T14:12:48.71Z</time></trkpt><trkpt lat="45.5725101" lon="10.7103637"><ele>72.5</ele><time>2026-03-28T14:12:49.709Z</time></trkpt><trkpt lat="45.5724057" lon="10.710329"><ele>73.0</ele><time>2026-03-28T14:12:50.71Z</time></trkpt><trkpt lat="45.5723038" lon="10.7102654"><ele>73.5</ele><time>2026-03-28T14:12:51.71Z</time></trkpt><trkpt lat="45.5721942" lon="10.7101747"><ele>74.0</ele><time>2026-03-28T14:12:52.71Z</time></trkpt><trkpt lat="45.5720776" lon="10.7100727"><ele>75.25</ele><time>2026-03-28T14:12:53.71Z</time></trkpt><trkpt lat="45.5719559" lon="10.7099644"><ele>76.5</ele><time>2026-03-28T14:12:54.71Z</time></trkpt><trkpt lat="45.5718318" lon="10.7098549"><ele>77.75</ele><time>2026-03-28T14:12:55.71Z</time></trkpt><trkpt lat="45.571717" lon="10.7097608"><ele>79.0</ele><time>2026-03-28T14:12:56.709Z</time></trkpt><trkpt lat="45.5716044" lon="10.7096783"><ele>79.0</ele><time>2026-03-28T14:12:57.71Z</time></trkpt><trkpt lat="45.5714848" lon="10.7096084"><ele>79.0</ele><time>2026-03-28T14:12:58.709Z</time></trkpt><trkpt lat="45.571358" lon="10.7095396"><ele>79.0</ele><time>2026-03-28T14:12:59.709Z</time></trkpt><trkpt lat="45.5712237" lon="10.7094705"><ele>79.0</ele><time>2026-03-28T14:13:00.709Z</time></trkpt><trkpt lat="45.5710843" lon="10.7094003"><ele>76.0</ele><time>2026-03-28T14:13:01.709Z</time></trkpt><trkpt lat="45.5709412" lon="10.7093275"><ele>73.0</ele><time>2026-03-28T14:13:02.71Z</time></trkpt><trkpt lat="45.5707941" lon="10.7092534"><ele>70.0</ele><time>2026-03-28T14:13:03.71Z</time></trkpt><trkpt lat="45.5706449" lon="10.7091832"><ele>70.0</ele><time>2026-03-28T14:13:04.709Z</time></trkpt><trkpt lat="45.5705019" lon="10.7091183"><ele>70.0</ele><time>2026-03-28T14:13:05.709Z</time></trkpt><trkpt lat="45.570359" lon="10.7090593"><ele>70.0</ele><time>2026-03-28T14:13:06.71Z</time></trkpt><trkpt lat="45.5702106" lon="10.7090049"><ele>78.0</ele><time>2026-03-28T14:13:07.709Z</time></trkpt><trkpt lat="45.5700583" lon="10.7089516"><ele>86.0</ele><time>2026-03-28T14:13:08.709Z</time></trkpt><trkpt lat="45.5699066" lon="10.7088993"><ele>94.0</ele><time>2026-03-28T14:13:09.709Z</time></trkpt><trkpt lat="45.5697571" lon="10.7088518"><ele>94.0</ele><time>2026-03-28T14:13:10.709Z</time></trkpt><trkpt lat="45.5696096" lon="10.7088097"><ele>94.0</ele><time>2026-03-28T14:13:11.709Z</time></trkpt><trkpt lat="45.5694626" lon="10.7087738"><ele>94.0</ele><time>2026-03-28T14:13:12.71Z</time></trkpt><trkpt lat="45.5693165" lon="10.7087451"><ele>94.0</ele><time>2026-03-28T14:13:13.709Z</time></trkpt><trkpt lat="45.5691843" lon="10.7087272"><ele>97.0</ele><time>2026-03-28T14:13:14.709Z</time></trkpt><trkpt lat="45.5690618" lon="10.7087195"><ele>100.0</ele><time>2026-03-28T14:13:15.71Z</time></trkpt><trkpt lat="45.5689429" lon="10.708724"><ele>103.0</ele><time>2026-03-28T14:13:16.71Z</time></trkpt><trkpt lat="45.5688246" lon="10.7087399"><ele>106.0</ele><time>2026-03-28T14:13:17.71Z</time></trkpt><trkpt lat="45.5687065" lon="10.708764"><ele>103.4</ele><time>2026-03-28T14:13:18.709Z</time></trkpt><trkpt lat="45.5685918" lon="10.7088005"><ele>100.8</ele><time>2026-03-28T14:13:19.709Z</time></trkpt><trkpt lat="45.5684853" lon="10.7088409"><ele>98.2</ele><time>2026-03-28T14:13:20.71Z</time></trkpt><trkpt lat="45.5683819" lon="10.7088829"><ele>95.60000000000001</ele><time>2026-03-28T14:13:21.71Z</time></trkpt><trkpt lat="45.5682822" lon="10.7089254"><ele>93.0</ele><time>2026-03-28T14:13:22.71Z</time></trkpt><trkpt lat="45.5681903" lon="10.7089665"><ele>93.0</ele><time>2026-03-28T14:13:23.709Z</time></trkpt><trkpt lat="45.5680991" lon="10.7090101"><ele>93.0</ele><time>2026-03-28T14:13:24.71Z</time></trkpt><trkpt lat="45.568009" lon="10.7090513"><ele>93.0</ele><time>2026-03-28T14:13:25.71Z</time></trkpt><trkpt lat="45.5679198" lon="10.7090948"><ele>93.0</ele><time>2026-03-28T14:13:26.709Z</time></trkpt><trkpt lat="45.5678288" lon="10.7091467"><ele>93.0</ele><time>2026-03-28T14:13:27.71Z</time></trkpt><trkpt lat="45.5677349" lon="10.7091986"><ele>95.25</ele><time>2026-03-28T14:13:28.709Z</time></trkpt><trkpt lat="45.5676352" lon="10.7092628"><ele>97.5</ele><time>2026-03-28T14:13:29.71Z</time></trkpt><trkpt lat="45.567532" lon="10.7093354"><ele>99.75</ele><time>2026-03-28T14:13:30.71Z</time></trkpt><trkpt lat="45.5674275" lon="10.7094115"><ele>102.0</ele><time>2026-03-28T14:13:31.71Z</time></trkpt><trkpt lat="45.5673201" lon="10.7094921"><ele>102.0</ele><time>2026-03-28T14:13:32.71Z</time></trkpt><trkpt lat="45.5672073" lon="10.7095833"><ele>102.0</ele><time>2026-03-28T14:13:33.71Z</time></trkpt><trkpt lat="45.5670811" lon="10.7096843"><ele>102.0</ele><time>2026-03-28T14:13:34.71Z</time></trkpt><trkpt lat="45.5669467" lon="10.7097932"><ele>102.0</ele><time>2026-03-28T14:13:35.71Z</time></trkpt><trkpt lat="45.5668065" lon="10.7099022"><ele>97.66666666666667</ele><time>2026-03-28T14:13:36.71Z</time></trkpt><trkpt lat="45.5666631" lon="10.710016"><ele>93.33333333333334</ele><time>2026-03-28T14:13:37.71Z</time></trkpt><trkpt lat="45.5665194" lon="10.7101368"><ele>89.0</ele><time>2026-03-28T14:13:38.71Z</time></trkpt><trkpt lat="45.5663779" lon="10.7102653"><ele>89.0</ele><time>2026-03-28T14:13:39.709Z</time></trkpt><trkpt lat="45.5662497" lon="10.7103953"><ele>89.0</ele><time>2026-03-28T14:13:40.71Z</time></trkpt><trkpt lat="45.5661315" lon="10.7105263"><ele>89.0</ele><time>2026-03-28T14:13:41.71Z</time></trkpt><trkpt lat="45.5660161" lon="10.7106632"><ele>87.33333333333334</ele><time>2026-03-28T14:13:42.709Z</time></trkpt><trkpt lat="45.5659034" lon="10.7108117"><ele>85.66666666666667</ele><time>2026-03-28T14:13:43.71Z</time></trkpt><trkpt lat="45.5657938" lon="10.7109721"><ele>84.0</ele><time>2026-03-28T14:13:44.709Z</time></trkpt><trkpt lat="45.565689" lon="10.7111423"><ele>84.0</ele><time>2026-03-28T14:13:45.71Z</time></trkpt><trkpt lat="45.5655851" lon="10.7113202"><ele>84.0</ele><time>2026-03-28T14:13:46.709Z</time></trkpt><trkpt lat="45.5654803" lon="10.711508"><ele>84.0</ele><time>2026-03-28T14:13:47.71Z</time></trkpt><trkpt lat="45.5653712" lon="10.711701"><ele>82.66666666666667</ele><time>2026-03-28T14:13:48.71Z</time></trkpt><trkpt lat="45.5652674" lon="10.7118886"><ele>81.33333333333334</ele><time>2026-03-28T14:13:49.71Z</time></trkpt><trkpt lat="45.5651682" lon="10.7120631"><ele>80.0</ele><time>2026-03-28T14:13:50.71Z</time></trkpt><trkpt lat="45.565075" lon="10.7122243"><ele>80.0</ele><time>2026-03-28T14:13:51.71Z</time></trkpt><trkpt lat="45.5649855" lon="10.7123787"><ele>80.0</ele><time>2026-03-28T14:13:52.71Z</time></trkpt><trkpt lat="45.5648956" lon="10.7125309"><ele>80.0</ele><time>2026-03-28T14:13:53.71Z</time></trkpt><trkpt lat="45.5648102" lon="10.7126785"><ele>80.0</ele><time>2026-03-28T14:13:54.71Z</time></trkpt><trkpt lat="45.5647273" lon="10.7128235"><ele>78.75</ele><time>2026-03-28T14:13:55.709Z</time></trkpt><trkpt lat="45.5646457" lon="10.7129644"><ele>77.5</ele><time>2026-03-28T14:13:56.709Z</time></trkpt><trkpt lat="45.5645595" lon="10.7131073"><ele>76.25</ele><time>2026-03-28T14:13:57.71Z</time></trkpt><trkpt lat="45.564469" lon="10.7132454"><ele>75.0</ele><time>2026-03-28T14:13:58.709Z</time></trkpt><trkpt lat="45.5643756" lon="10.7133805"><ele>75.0</ele><time>2026-03-28T14:13:59.71Z</time></trkpt><trkpt lat="45.5642862" lon="10.7135069"><ele>75.0</ele><time>2026-03-28T14:14:00.709Z</time></trkpt><trkpt lat="45.5641949" lon="10.7136233"><ele>75.0</ele><time>2026-03-28T14:14:01.71Z</time></trkpt><trkpt lat="45.5640997" lon="10.7137378"><ele>75.0</ele><time>2026-03-28T14:14:02.71Z</time></trkpt><trkpt lat="45.563994" lon="10.713853"><ele>74.5</ele><time>2026-03-28T14:14:03.709Z</time></trkpt><trkpt lat="45.5638835" lon="10.7139631"><ele>74.0</ele><time>2026-03-28T14:14:04.709Z</time></trkpt><trkpt lat="45.5637663" lon="10.7140681"><ele>73.5</ele><time>2026-03-28T14:14:05.709Z</time></trkpt><trkpt lat="45.5636461" lon="10.7141646"><ele>73.0</ele><time>2026-03-28T14:14:06.709Z</time></trkpt><trkpt lat="45.563527" lon="10.7142562"><ele>73.0</ele><time>2026-03-28T14:14:07.71Z</time></trkpt><trkpt lat="45.5634071" lon="10.7143382"><ele>73.0</ele><time>2026-03-28T14:14:08.71Z</time></trkpt><trkpt lat="45.5632916" lon="10.7144117"><ele>73.0</ele><time>2026-03-28T14:14:09.71Z</time></trkpt><trkpt lat="45.563178" lon="10.7144769"><ele>73.0</ele><time>2026-03-28T14:14:10.71Z</time></trkpt><trkpt lat="45.5630591" lon="10.7145438"><ele>73.75</ele><time>2026-03-28T14:14:11.709Z</time></trkpt><trkpt lat="45.5629348" lon="10.7146038"><ele>74.5</ele><time>2026-03-28T14:14:12.71Z</time></trkpt><trkpt lat="45.5628082" lon="10.7146647"><ele>75.25</ele><time>2026-03-28T14:14:13.71Z</time></trkpt><trkpt lat="45.5626899" lon="10.7147141"><ele>76.0</ele><time>2026-03-28T14:14:14.709Z</time></trkpt><trkpt lat="45.5625763" lon="10.7147659"><ele>76.0</ele><time>2026-03-28T14:14:15.71Z</time></trkpt><trkpt lat="45.5624658" lon="10.7148205"><ele>76.0</ele><time>2026-03-28T14:14:16.709Z</time></trkpt><trkpt lat="45.5623433" lon="10.7148817"><ele>76.0</ele><time>2026-03-28T14:14:17.71Z</time></trkpt><trkpt lat="45.5622117" lon="10.7149427"><ele>76.0</ele><time>2026-03-28T14:14:18.709Z</time></trkpt><trkpt lat="45.5620687" lon="10.7150085"><ele>76.25</ele><time>2026-03-28T14:14:19.71Z</time></trkpt><trkpt lat="45.5619228" lon="10.7150719"><ele>76.5</ele><time>2026-03-28T14:14:20.709Z</time></trkpt><trkpt lat="45.5617846" lon="10.7151293"><ele>76.75</ele><time>2026-03-28T14:14:21.709Z</time></trkpt><trkpt lat="45.5616521" lon="10.7151833"><ele>77.0</ele><time>2026-03-28T14:14:22.71Z</time></trkpt><trkpt lat="45.561521" lon="10.7152417"><ele>76.66666666666667</ele><time>2026-03-28T14:14:23.709Z</time></trkpt><trkpt lat="45.5613841" lon="10.7153107"><ele>76.33333333333333</ele><time>2026-03-28T14:14:24.709Z</time></trkpt><trkpt lat="45.5612386" lon="10.7153872"><ele>76.0</ele><time>2026-03-28T14:14:25.709Z</time></trkpt><trkpt lat="45.5610916" lon="10.7154697"><ele>76.0</ele><time>2026-03-28T14:14:26.709Z</time></trkpt><trkpt lat="45.560946" lon="10.7155534"><ele>76.0</ele><time>2026-03-28T14:14:27.709Z</time></trkpt><trkpt lat="45.5608103" lon="10.7156365"><ele>76.0</ele><time>2026-03-28T14:14:28.71Z</time></trkpt><trkpt lat="45.5606815" lon="10.7157173"><ele>76.0</ele><time>2026-03-28T14:14:29.71Z</time></trkpt><trkpt lat="45.560561" lon="10.7158052"><ele>76.0</ele><time>2026-03-28T14:14:30.71Z</time></trkpt><trkpt lat="45.56044" lon="10.7159071"><ele>76.0</ele><time>2026-03-28T14:14:31.71Z</time></trkpt><trkpt lat="45.5603074" lon="10.7160238"><ele>76.0</ele><time>2026-03-28T14:14:32.709Z</time></trkpt><trkpt lat="45.5601607" lon="10.716157"><ele>77.33333333333333</ele><time>2026-03-28T14:14:33.709Z</time></trkpt><trkpt lat="45.5600057" lon="10.7163019"><ele>78.66666666666667</ele><time>2026-03-28T14:14:34.71Z</time></trkpt><trkpt lat="45.5598408" lon="10.7164472"><ele>80.0</ele><time>2026-03-28T14:14:35.709Z</time></trkpt><trkpt lat="45.5596709" lon="10.7166005"><ele>80.33333333333334</ele><time>2026-03-28T14:14:36.709Z</time></trkpt><trkpt lat="45.5595061" lon="10.7167501"><ele>80.66666666666667</ele><time>2026-03-28T14:14:37.71Z</time></trkpt><trkpt lat="45.5593415" lon="10.7169024"><ele>81.0</ele><time>2026-03-28T14:14:38.709Z</time></trkpt><trkpt lat="45.5591829" lon="10.71705"><ele>81.0</ele><time>2026-03-28T14:14:39.71Z</time></trkpt><trkpt lat="45.5590322" lon="10.7171921"><ele>81.0</ele><time>2026-03-28T14:14:40.709Z</time></trkpt><trkpt lat="45.5588876" lon="10.7173268"><ele>81.0</ele><time>2026-03-28T14:14:41.71Z</time></trkpt><trkpt lat="45.5587413" lon="10.7174499"><ele>80.0</ele><time>2026-03-28T14:14:42.709Z</time></trkpt><trkpt lat="45.5585947" lon="10.7175606"><ele>79.0</ele><time>2026-03-28T14:14:43.709Z</time></trkpt><trkpt lat="45.5584415" lon="10.7176609"><ele>78.0</ele><time>2026-03-28T14:14:44.709Z</time></trkpt><trkpt lat="45.5582814" lon="10.7177502"><ele>79.33333333333333</ele><time>2026-03-28T14:14:45.709Z</time></trkpt><trkpt lat="45.558122" lon="10.7178288"><ele>80.66666666666666</ele><time>2026-03-28T14:14:46.709Z</time></trkpt><trkpt lat="45.5579615" lon="10.7179012"><ele>82.0</ele><time>2026-03-28T14:14:47.71Z</time></trkpt><trkpt lat="45.5578015" lon="10.7179765"><ele>82.0</ele><time>2026-03-28T14:14:48.71Z</time></trkpt><trkpt lat="45.5576422" lon="10.7180601"><ele>82.0</ele><time>2026-03-28T14:14:49.711Z</time></trkpt><trkpt lat="45.5574855" lon="10.7181552"><ele>82.0</ele><time>2026-03-28T14:14:50.71Z</time></trkpt><trkpt lat="45.5573312" lon="10.7182591"><ele>82.0</ele><time>2026-03-28T14:14:51.709Z</time></trkpt><trkpt lat="45.5571787" lon="10.7183694"><ele>82.0</ele><time>2026-03-28T14:14:52.71Z</time></trkpt><trkpt lat="45.557026" lon="10.7184855"><ele>82.0</ele><time>2026-03-28T14:14:53.71Z</time></trkpt><trkpt lat="45.5568697" lon="10.7186022"><ele>82.0</ele><time>2026-03-28T14:14:54.709Z</time></trkpt><trkpt lat="45.556712" lon="10.7187184"><ele>82.0</ele><time>2026-03-28T14:14:55.709Z</time></trkpt><trkpt lat="45.5565543" lon="10.7188306"><ele>82.0</ele><time>2026-03-28T14:14:56.709Z</time></trkpt><trkpt lat="45.5563959" lon="10.7189415"><ele>82.0</ele><time>2026-03-28T14:14:57.709Z</time></trkpt><trkpt lat="45.5562366" lon="10.7190485"><ele>82.0</ele><time>2026-03-28T14:14:58.709Z</time></trkpt><trkpt lat="45.5560714" lon="10.719149"><ele>82.0</ele><time>2026-03-28T14:14:59.71Z</time></trkpt><trkpt lat="45.5559098" lon="10.7192441"><ele>82.33333333333333</ele><time>2026-03-28T14:15:00.71Z</time></trkpt><trkpt lat="45.5557567" lon="10.7193305"><ele>82.66666666666667</ele><time>2026-03-28T14:15:01.709Z</time></trkpt><trkpt lat="45.5556148" lon="10.7194125"><ele>83.0</ele><time>2026-03-28T14:15:02.709Z</time></trkpt><trkpt lat="45.5554831" lon="10.7194891"><ele>82.25</ele><time>2026-03-28T14:15:03.709Z</time></trkpt><trkpt lat="45.5553599" lon="10.7195634"><ele>81.5</ele><time>2026-03-28T14:15:04.709Z</time></trkpt><trkpt lat="45.5552448" lon="10.7196303"><ele>80.75</ele><time>2026-03-28T14:15:05.71Z</time></trkpt><trkpt lat="45.5551371" lon="10.7196904"><ele>80.0</ele><time>2026-03-28T14:15:06.709Z</time></trkpt><trkpt lat="45.5550334" lon="10.7197473"><ele>80.0</ele><time>2026-03-28T14:15:07.71Z</time></trkpt><trkpt lat="45.5549387" lon="10.7198033"><ele>80.0</ele><time>2026-03-28T14:15:08.709Z</time></trkpt><trkpt lat="45.554858" lon="10.7198462"><ele>80.0</ele><time>2026-03-28T14:15:09.71Z</time></trkpt><trkpt lat="45.5547935" lon="10.7198826"><ele>80.0</ele><time>2026-03-28T14:15:10.71Z</time></trkpt><trkpt lat="45.5547212" lon="10.7199261"><ele>80.0</ele><time>2026-03-28T14:15:12.71Z</time></trkpt><trkpt lat="45.5546605" lon="10.7199598"><ele>80.0</ele><time>2026-03-28T14:15:14.709Z</time></trkpt><trkpt lat="45.5545802" lon="10.7199836"><ele>80.5</ele><time>2026-03-28T14:15:16.709Z</time></trkpt><trkpt lat="45.5544809" lon="10.7199785"><ele>81.0</ele><time>2026-03-28T14:15:18.71Z</time></trkpt><trkpt lat="45.5543622" lon="10.7200012"><ele>81.5</ele><time>2026-03-28T14:15:20.709Z</time></trkpt><trkpt lat="45.554307" lon="10.7200531"><ele>82.0</ele><time>2026-03-28T14:15:21.709Z</time></trkpt><trkpt lat="45.5542537" lon="10.7201243"><ele>82.5</ele><time>2026-03-28T14:15:22.709Z</time></trkpt><trkpt lat="45.5541883" lon="10.7201854"><ele>83.0</ele><time>2026-03-28T14:15:23.71Z</time></trkpt><trkpt lat="45.5541103" lon="10.7202351"><ele>83.0</ele><time>2026-03-28T14:15:24.709Z</time></trkpt><trkpt lat="45.5540233" lon="10.7202802"><ele>83.0</ele><time>2026-03-28T14:15:25.71Z</time></trkpt><trkpt lat="45.5539267" lon="10.7203268"><ele>83.0</ele><time>2026-03-28T14:15:26.709Z</time></trkpt><trkpt lat="45.5538375" lon="10.7203678"><ele>83.0</ele><time>2026-03-28T14:15:27.71Z</time></trkpt><trkpt lat="45.5537565" lon="10.7204043"><ele>83.0</ele><time>2026-03-28T14:15:28.709Z</time></trkpt><trkpt lat="45.553676" lon="10.7204433"><ele>82.42857142857143</ele><time>2026-03-28T14:15:29.709Z</time></trkpt><trkpt lat="45.5535971" lon="10.7204829"><ele>81.85714285714286</ele><time>2026-03-28T14:15:30.709Z</time></trkpt><trkpt lat="45.5535234" lon="10.7205212"><ele>81.28571428571429</ele><time>2026-03-28T14:15:31.709Z</time></trkpt><trkpt lat="45.5534541" lon="10.7205582"><ele>80.71428571428572</ele><time>2026-03-28T14:15:32.709Z</time></trkpt><trkpt lat="45.5533907" lon="10.7205922"><ele>80.14285714285714</ele><time>2026-03-28T14:15:33.709Z</time></trkpt><trkpt lat="45.5533315" lon="10.7206229"><ele>79.57142857142858</ele><time>2026-03-28T14:15:34.709Z</time></trkpt><trkpt lat="45.5532714" lon="10.7206552"><ele>79.0</ele><time>2026-03-28T14:15:35.71Z</time></trkpt><trkpt lat="45.5532109" lon="10.72069"><ele>79.0</ele><time>2026-03-28T14:15:36.71Z</time></trkpt><trkpt lat="45.5531498" lon="10.7207249"><ele>79.0</ele><time>2026-03-28T14:15:37.709Z</time></trkpt><trkpt lat="45.55309" lon="10.7207608"><ele>79.0</ele><time>2026-03-28T14:15:38.709Z</time></trkpt><trkpt lat="45.5530299" lon="10.7207961"><ele>79.0</ele><time>2026-03-28T14:15:39.71Z</time></trkpt><trkpt lat="45.5529195" lon="10.7208569"><ele>79.0</ele><time>2026-03-28T14:15:41.71Z</time></trkpt><trkpt lat="45.552814" lon="10.7209172"><ele>79.0</ele><time>2026-03-28T14:15:43.709Z</time></trkpt><trkpt lat="45.5527344" lon="10.7209641"><ele>79.0</ele><time>2026-03-28T14:15:45.709Z</time></trkpt><trkpt lat="45.5526695" lon="10.721002"><ele>79.0</ele><time>2026-03-28T14:15:48.71Z</time></trkpt><trkpt lat="45.5525673" lon="10.7210591"><ele>79.0</ele><time>2026-03-28T14:15:57.71Z</time></trkpt><trkpt lat="45.5524488" lon="10.721127"><ele>79.0</ele><time>2026-03-28T14:15:59.71Z</time></trkpt><trkpt lat="45.5523822" lon="10.7211678"><ele>79.0</ele><time>2026-03-28T14:16:00.709Z</time></trkpt><trkpt lat="45.5523105" lon="10.7212129"><ele>79.4</ele><time>2026-03-28T14:16:01.709Z</time></trkpt><trkpt lat="45.5522306" lon="10.721264"><ele>79.80000000000001</ele><time>2026-03-28T14:16:02.709Z</time></trkpt><trkpt lat="45.5521409" lon="10.7213154"><ele>80.19999999999999</ele><time>2026-03-28T14:16:03.71Z</time></trkpt><trkpt lat="45.5520412" lon="10.7213684"><ele>80.6</ele><time>2026-03-28T14:16:04.71Z</time></trkpt><trkpt lat="45.551931" lon="10.7214308"><ele>81.0</ele><time>2026-03-28T14:16:05.71Z</time></trkpt><trkpt lat="45.5518209" lon="10.7214939"><ele>80.2</ele><time>2026-03-28T14:16:06.709Z</time></trkpt><trkpt lat="45.5517165" lon="10.7215541"><ele>79.39999999999999</ele><time>2026-03-28T14:16:07.709Z</time></trkpt><trkpt lat="45.5516135" lon="10.7216174"><ele>78.6</ele><time>2026-03-28T14:16:08.71Z</time></trkpt><trkpt lat="45.5515138" lon="10.7216771"><ele>77.8</ele><time>2026-03-28T14:16:09.709Z</time></trkpt><trkpt lat="45.5514199" lon="10.7217318"><ele>77.0</ele><time>2026-03-28T14:16:10.709Z</time></trkpt><trkpt lat="45.5513309" lon="10.7217834"><ele>77.0</ele><time>2026-03-28T14:16:11.71Z</time></trkpt><trkpt lat="45.5512507" lon="10.721829"><ele>77.0</ele><time>2026-03-28T14:16:12.709Z</time></trkpt><trkpt lat="45.5511775" lon="10.72187"><ele>77.0</ele><time>2026-03-28T14:16:13.709Z</time></trkpt><trkpt lat="45.5511153" lon="10.7219078"><ele>77.0</ele><time>2026-03-28T14:16:14.709Z</time></trkpt><trkpt lat="45.5510134" lon="10.721965"><ele>77.0</ele><time>2026-03-28T14:16:16.71Z</time></trkpt><trkpt lat="45.5509512" lon="10.7219998"><ele>77.0</ele><time>2026-03-28T14:16:18.709Z</time></trkpt><trkpt lat="45.5508929" lon="10.7220367"><ele>77.0</ele><time>2026-03-28T14:16:27.709Z</time></trkpt><trkpt lat="45.5508318" lon="10.7220616"><ele>77.0</ele><time>2026-03-28T14:16:48.71Z</time></trkpt><trkpt lat="45.5507676" lon="10.7220876"><ele>77.0</ele><time>2026-03-28T14:16:51.71Z</time></trkpt><trkpt lat="45.5506686" lon="10.7221745"><ele>77.0</ele><time>2026-03-28T14:16:53.709Z</time></trkpt><trkpt lat="45.5506092" lon="10.7222474"><ele>77.0</ele><time>2026-03-28T14:16:54.709Z</time></trkpt><trkpt lat="45.5505269" lon="10.7223266"><ele>77.0</ele><time>2026-03-28T14:16:55.71Z</time></trkpt><trkpt lat="45.5504316" lon="10.7224102"><ele>76.6</ele><time>2026-03-28T14:16:56.709Z</time></trkpt><trkpt lat="45.5503333" lon="10.7224968"><ele>76.2</ele><time>2026-03-28T14:16:57.71Z</time></trkpt><trkpt lat="45.5502457" lon="10.7225675"><ele>75.8</ele><time>2026-03-28T14:16:58.709Z</time></trkpt><trkpt lat="45.5501572" lon="10.7226323"><ele>75.4</ele><time>2026-03-28T14:16:59.709Z</time></trkpt><trkpt lat="45.5500627" lon="10.7226928"><ele>75.0</ele><time>2026-03-28T14:17:00.71Z</time></trkpt><trkpt lat="45.5499645" lon="10.7227492"><ele>75.0</ele><time>2026-03-28T14:17:01.709Z</time></trkpt><trkpt lat="45.5498629" lon="10.7228005"><ele>75.0</ele><time>2026-03-28T14:17:02.71Z</time></trkpt><trkpt lat="45.5497643" lon="10.7228495"><ele>75.0</ele><time>2026-03-28T14:17:03.709Z</time></trkpt><trkpt lat="45.5496684" lon="10.7228979"><ele>75.0</ele><time>2026-03-28T14:17:04.71Z</time></trkpt><trkpt lat="45.5495724" lon="10.7229452"><ele>75.0</ele><time>2026-03-28T14:17:05.71Z</time></trkpt><trkpt lat="45.5494773" lon="10.7229894"><ele>74.83333333333333</ele><time>2026-03-28T14:17:06.71Z</time></trkpt><trkpt lat="45.5493839" lon="10.7230314"><ele>74.66666666666667</ele><time>2026-03-28T14:17:07.71Z</time></trkpt><trkpt lat="45.5492996" lon="10.7230682"><ele>74.5</ele><time>2026-03-28T14:17:08.71Z</time></trkpt><trkpt lat="45.5492233" lon="10.7231001"><ele>74.33333333333334</ele><time>2026-03-28T14:17:09.709Z</time></trkpt><trkpt lat="45.5491497" lon="10.723137"><ele>74.16666666666667</ele><time>2026-03-28T14:17:10.71Z</time></trkpt><trkpt lat="45.5490823" lon="10.7231703"><ele>74.0</ele><time>2026-03-28T14:17:11.709Z</time></trkpt><trkpt lat="45.5489674" lon="10.7232263"><ele>74.0</ele><time>2026-03-28T14:17:13.709Z</time></trkpt><trkpt lat="45.5488567" lon="10.7232826"><ele>74.0</ele><time>2026-03-28T14:17:15.709Z</time></trkpt><trkpt lat="45.5487451" lon="10.7233408"><ele>74.0</ele><time>2026-03-28T14:17:17.709Z</time></trkpt><trkpt lat="45.5486281" lon="10.7234043"><ele>74.0</ele><time>2026-03-28T14:17:19.71Z</time></trkpt><trkpt lat="45.5485016" lon="10.7234741"><ele>74.16666666666667</ele><time>2026-03-28T14:17:21.709Z</time></trkpt><trkpt lat="45.5484345" lon="10.7235119"><ele>74.33333333333334</ele><time>2026-03-28T14:17:22.709Z</time></trkpt><trkpt lat="45.5483663" lon="10.723553"><ele>74.5</ele><time>2026-03-28T14:17:23.71Z</time></trkpt><trkpt lat="45.5483023" lon="10.7235917"><ele>74.66666666666667</ele><time>2026-03-28T14:17:24.709Z</time></trkpt><trkpt lat="45.5482435" lon="10.7236264"><ele>74.83333333333333</ele><time>2026-03-28T14:17:25.709Z</time></trkpt><trkpt lat="45.5481853" lon="10.7236687"><ele>75.0</ele><time>2026-03-28T14:17:26.709Z</time></trkpt><trkpt lat="45.548079" lon="10.7237539"><ele>75.0</ele><time>2026-03-28T14:17:28.709Z</time></trkpt><trkpt lat="45.5479749" lon="10.7238283"><ele>75.0</ele><time>2026-03-28T14:17:30.71Z</time></trkpt><trkpt lat="45.5478979" lon="10.7238761"><ele>75.0</ele><time>2026-03-28T14:17:32.709Z</time></trkpt><trkpt lat="45.5477934" lon="10.723935"><ele>75.0</ele><time>2026-03-28T14:17:39.709Z</time></trkpt><trkpt lat="45.5476847" lon="10.7240062"><ele>75.0</ele><time>2026-03-28T14:17:41.709Z</time></trkpt><trkpt lat="45.5475792" lon="10.7240698"><ele>75.16666666666667</ele><time>2026-03-28T14:17:43.71Z</time></trkpt><trkpt lat="45.5474766" lon="10.7241601"><ele>75.33333333333333</ele><time>2026-03-28T14:17:45.71Z</time></trkpt><trkpt lat="45.5474246" lon="10.7242258"><ele>75.5</ele><time>2026-03-28T14:17:46.71Z</time></trkpt><trkpt lat="45.5473583" lon="10.7242945"><ele>75.66666666666666</ele><time>2026-03-28T14:17:47.709Z</time></trkpt><trkpt lat="45.5472803" lon="10.7243552"><ele>75.83333333333333</ele><time>2026-03-28T14:17:48.709Z</time></trkpt><trkpt lat="45.5472135" lon="10.7243973"><ele>76.0</ele><time>2026-03-28T14:17:49.709Z</time></trkpt><trkpt lat="45.5471382" lon="10.7244376"><ele>76.0</ele><time>2026-03-28T14:17:50.71Z</time></trkpt><trkpt lat="45.5470571" lon="10.7244664"><ele>76.0</ele><time>2026-03-28T14:17:51.71Z</time></trkpt><trkpt lat="45.5469826" lon="10.7244841"><ele>76.0</ele><time>2026-03-28T14:17:52.709Z</time></trkpt><trkpt lat="45.5469147" lon="10.7244996"><ele>76.0</ele><time>2026-03-28T14:17:53.709Z</time></trkpt><trkpt lat="45.5468487" lon="10.72451"><ele>76.0</ele><time>2026-03-28T14:17:54.709Z</time></trkpt><trkpt lat="45.5467228" lon="10.7245196"><ele>76.0</ele><time>2026-03-28T14:17:56.71Z</time></trkpt><trkpt lat="45.5466441" lon="10.7245153"><ele>76.0</ele><time>2026-03-28T14:17:57.709Z</time></trkpt><trkpt lat="45.5465471" lon="10.7245038"><ele>76.0</ele><time>2026-03-28T14:17:58.709Z</time></trkpt><trkpt lat="45.5464379" lon="10.7244954"><ele>76.0</ele><time>2026-03-28T14:17:59.71Z</time></trkpt><trkpt lat="45.5463168" lon="10.7244906"><ele>76.0</ele><time>2026-03-28T14:18:00.71Z</time></trkpt><trkpt lat="45.5461878" lon="10.7244863"><ele>76.0</ele><time>2026-03-28T14:18:01.708Z</time></trkpt><trkpt lat="45.5460508" lon="10.7244807"><ele>76.0</ele><time>2026-03-28T14:18:02.709Z</time></trkpt><trkpt lat="45.5459065" lon="10.7244719"><ele>76.0</ele><time>2026-03-28T14:18:03.709Z</time></trkpt><trkpt lat="45.5457557" lon="10.7244599"><ele>76.0</ele><time>2026-03-28T14:18:04.709Z</time></trkpt><trkpt lat="45.5456145" lon="10.7244481"><ele>76.0</ele><time>2026-03-28T14:18:05.71Z</time></trkpt><trkpt lat="45.545482" lon="10.7244377"><ele>76.0</ele><time>2026-03-28T14:18:06.71Z</time></trkpt><trkpt lat="45.545351" lon="10.7244281"><ele>76.0</ele><time>2026-03-28T14:18:07.71Z</time></trkpt><trkpt lat="45.545223" lon="10.7244183"><ele>76.0</ele><time>2026-03-28T14:18:08.71Z</time></trkpt><trkpt lat="45.5450966" lon="10.7244086"><ele>75.75</ele><time>2026-03-28T14:18:09.709Z</time></trkpt><trkpt lat="45.5449686" lon="10.7243976"><ele>75.5</ele><time>2026-03-28T14:18:10.71Z</time></trkpt><trkpt lat="45.5448399" lon="10.7243858"><ele>75.25</ele><time>2026-03-28T14:18:11.709Z</time></trkpt><trkpt lat="45.5447118" lon="10.7243776"><ele>75.0</ele><time>2026-03-28T14:18:12.71Z</time></trkpt><trkpt lat="45.5445869" lon="10.7243723"><ele>74.2</ele><time>2026-03-28T14:18:13.71Z</time></trkpt><trkpt lat="45.5444703" lon="10.724371"><ele>73.4</ele><time>2026-03-28T14:18:14.71Z</time></trkpt><trkpt lat="45.5443553" lon="10.7243772"><ele>72.6</ele><time>2026-03-28T14:18:15.709Z</time></trkpt><trkpt lat="45.5442476" lon="10.7243889"><ele>71.8</ele><time>2026-03-28T14:18:16.709Z</time></trkpt><trkpt lat="45.5441503" lon="10.7244029"><ele>71.0</ele><time>2026-03-28T14:18:17.709Z</time></trkpt><trkpt lat="45.5440685" lon="10.7244183"><ele>70.66666666666667</ele><time>2026-03-28T14:18:18.709Z</time></trkpt><trkpt lat="45.5439957" lon="10.7244377"><ele>70.33333333333334</ele><time>2026-03-28T14:18:19.709Z</time></trkpt><trkpt lat="45.543925" lon="10.7244625"><ele>70.0</ele><time>2026-03-28T14:18:20.709Z</time></trkpt><trkpt lat="45.5438619" lon="10.7244892"><ele>69.66666666666667</ele><time>2026-03-28T14:18:21.71Z</time></trkpt><trkpt lat="45.5437541" lon="10.724545"><ele>69.33333333333333</ele><time>2026-03-28T14:18:23.71Z</time></trkpt><trkpt lat="45.5436655" lon="10.7245944"><ele>69.0</ele><time>2026-03-28T14:18:25.709Z</time></trkpt><trkpt lat="45.5435842" lon="10.7246452"><ele>68.8</ele><time>2026-03-28T14:18:27.71Z</time></trkpt><trkpt lat="45.5435063" lon="10.7246973"><ele>68.60000000000001</ele><time>2026-03-28T14:18:29.709Z</time></trkpt><trkpt lat="45.5434269" lon="10.7247485"><ele>68.4</ele><time>2026-03-28T14:18:31.71Z</time></trkpt><trkpt lat="45.5433424" lon="10.7247974"><ele>68.2</ele><time>2026-03-28T14:18:33.71Z</time></trkpt><trkpt lat="45.5432294" lon="10.7248689"><ele>68.0</ele><time>2026-03-28T14:18:35.709Z</time></trkpt><trkpt lat="45.5431593" lon="10.7249233"><ele>68.0</ele><time>2026-03-28T14:18:36.71Z</time></trkpt><trkpt lat="45.5430716" lon="10.7249892"><ele>68.0</ele><time>2026-03-28T14:18:37.709Z</time></trkpt><trkpt lat="45.5429709" lon="10.725061"><ele>68.0</ele><time>2026-03-28T14:18:38.71Z</time></trkpt><trkpt lat="45.5428576" lon="10.7251397"><ele>68.0</ele><time>2026-03-28T14:18:39.709Z</time></trkpt><trkpt lat="45.5427337" lon="10.7252242"><ele>68.0</ele><time>2026-03-28T14:18:40.709Z</time></trkpt><trkpt lat="45.5426032" lon="10.7253114"><ele>68.0</ele><time>2026-03-28T14:18:41.71Z</time></trkpt><trkpt lat="45.5424689" lon="10.7254003"><ele>68.0</ele><time>2026-03-28T14:18:42.709Z</time></trkpt><trkpt lat="45.5423447" lon="10.7254844"><ele>68.0</ele><time>2026-03-28T14:18:43.709Z</time></trkpt><trkpt lat="45.5422243" lon="10.7255666"><ele>68.0</ele><time>2026-03-28T14:18:44.709Z</time></trkpt><trkpt lat="45.5421041" lon="10.7256411"><ele>68.0</ele><time>2026-03-28T14:18:45.71Z</time></trkpt><trkpt lat="45.5419815" lon="10.7257103"><ele>68.0</ele><time>2026-03-28T14:18:46.709Z</time></trkpt><trkpt lat="45.5418536" lon="10.725772"><ele>68.0</ele><time>2026-03-28T14:18:47.709Z</time></trkpt><trkpt lat="45.5417246" lon="10.725821"><ele>67.5</ele><time>2026-03-28T14:18:48.709Z</time></trkpt><trkpt lat="45.5415946" lon="10.7258637"><ele>67.0</ele><time>2026-03-28T14:18:49.71Z</time></trkpt><trkpt lat="45.5414724" lon="10.7259018"><ele>66.5</ele><time>2026-03-28T14:18:50.71Z</time></trkpt><trkpt lat="45.5413596" lon="10.7259359"><ele>66.0</ele><time>2026-03-28T14:18:51.71Z</time></trkpt><trkpt lat="45.5412485" lon="10.7259723"><ele>66.0</ele><time>2026-03-28T14:18:52.71Z</time></trkpt><trkpt lat="45.5411397" lon="10.7260059"><ele>66.0</ele><time>2026-03-28T14:18:53.71Z</time></trkpt><trkpt lat="45.5410395" lon="10.7260354"><ele>66.0</ele><time>2026-03-28T14:18:54.71Z</time></trkpt><trkpt lat="45.5409448" lon="10.7260624"><ele>66.0</ele><time>2026-03-28T14:18:55.709Z</time></trkpt><trkpt lat="45.5408519" lon="10.7260935"><ele>66.0</ele><time>2026-03-28T14:18:56.709Z</time></trkpt><trkpt lat="45.5407589" lon="10.7261253"><ele>66.2</ele><time>2026-03-28T14:18:57.71Z</time></trkpt><trkpt lat="45.5406652" lon="10.7261593"><ele>66.39999999999999</ele><time>2026-03-28T14:18:58.71Z</time></trkpt><trkpt lat="45.54057" lon="10.7261933"><ele>66.6</ele><time>2026-03-28T14:18:59.71Z</time></trkpt><trkpt lat="45.5404787" lon="10.7262262"><ele>66.8</ele><time>2026-03-28T14:19:00.71Z</time></trkpt><trkpt lat="45.5403896" lon="10.7262599"><ele>67.0</ele><time>2026-03-28T14:19:01.71Z</time></trkpt><trkpt lat="45.5403005" lon="10.7262954"><ele>67.0</ele><time>2026-03-28T14:19:02.71Z</time></trkpt><trkpt lat="45.5402135" lon="10.7263309"><ele>67.0</ele><time>2026-03-28T14:19:03.71Z</time></trkpt><trkpt lat="45.5401326" lon="10.7263638"><ele>67.0</ele><time>2026-03-28T14:19:04.709Z</time></trkpt><trkpt lat="45.5400581" lon="10.7263946"><ele>67.0</ele><time>2026-03-28T14:19:05.71Z</time></trkpt><trkpt lat="45.5399889" lon="10.7264239"><ele>67.0</ele><time>2026-03-28T14:19:06.709Z</time></trkpt><trkpt lat="45.5399225" lon="10.7264522"><ele>67.0</ele><time>2026-03-28T14:19:07.709Z</time></trkpt><trkpt lat="45.5398584" lon="10.7264803"><ele>67.0</ele><time>2026-03-28T14:19:08.709Z</time></trkpt><trkpt lat="45.5397426" lon="10.7265266"><ele>67.0</ele><time>2026-03-28T14:19:10.71Z</time></trkpt><trkpt lat="45.5396315" lon="10.7265654"><ele>67.0</ele><time>2026-03-28T14:19:12.709Z</time></trkpt><trkpt lat="45.539564" lon="10.7265898"><ele>67.0</ele><time>2026-03-28T14:19:13.709Z</time></trkpt><trkpt lat="45.5394884" lon="10.7266213"><ele>67.0</ele><time>2026-03-28T14:19:14.71Z</time></trkpt><trkpt lat="45.5394093" lon="10.7266551"><ele>67.0</ele><time>2026-03-28T14:19:15.71Z</time></trkpt><trkpt lat="45.5393273" lon="10.7266903"><ele>67.0</ele><time>2026-03-28T14:19:16.709Z</time></trkpt><trkpt lat="45.5392449" lon="10.726724"><ele>67.0</ele><time>2026-03-28T14:19:17.71Z</time></trkpt><trkpt lat="45.539162" lon="10.7267586"><ele>67.0</ele><time>2026-03-28T14:19:18.709Z</time></trkpt><trkpt lat="45.5390804" lon="10.726792"><ele>67.0</ele><time>2026-03-28T14:19:19.71Z</time></trkpt><trkpt lat="45.5389998" lon="10.7268249"><ele>67.0</ele><time>2026-03-28T14:19:20.71Z</time></trkpt><trkpt lat="45.5389181" lon="10.7268565"><ele>67.0</ele><time>2026-03-28T14:19:21.71Z</time></trkpt><trkpt lat="45.5388358" lon="10.7268883"><ele>67.0</ele><time>2026-03-28T14:19:22.71Z</time></trkpt><trkpt lat="45.5387658" lon="10.726912"><ele>67.0</ele><time>2026-03-28T14:19:23.71Z</time></trkpt><trkpt lat="45.5386846" lon="10.7269474"><ele>67.0</ele><time>2026-03-28T14:19:25.709Z</time></trkpt><trkpt lat="45.5386201" lon="10.7269761"><ele>67.0</ele><time>2026-03-28T14:19:32.709Z</time></trkpt><trkpt lat="45.5385456" lon="10.7270063"><ele>67.0</ele><time>2026-03-28T14:19:34.709Z</time></trkpt><trkpt lat="45.5384763" lon="10.7270388"><ele>67.25</ele><time>2026-03-28T14:19:35.71Z</time></trkpt><trkpt lat="45.5383843" lon="10.7270772"><ele>67.5</ele><time>2026-03-28T14:19:36.709Z</time></trkpt><trkpt lat="45.5382736" lon="10.7271198"><ele>67.75</ele><time>2026-03-28T14:19:37.709Z</time></trkpt><trkpt lat="45.538148" lon="10.7271705"><ele>68.0</ele><time>2026-03-28T14:19:38.71Z</time></trkpt><trkpt lat="45.5380078" lon="10.7272183"><ele>68.0</ele><time>2026-03-28T14:19:39.71Z</time></trkpt><trkpt lat="45.5378557" lon="10.7272626"><ele>68.0</ele><time>2026-03-28T14:19:40.709Z</time></trkpt><trkpt lat="45.5376915" lon="10.7272917"><ele>68.0</ele><time>2026-03-28T14:19:41.709Z</time></trkpt><trkpt lat="45.5375168" lon="10.7273172"><ele>68.0</ele><time>2026-03-28T14:19:42.709Z</time></trkpt><trkpt lat="45.5373395" lon="10.7273389"><ele>68.0</ele><time>2026-03-28T14:19:43.709Z</time></trkpt><trkpt lat="45.5371701" lon="10.7273546"><ele>68.0</ele><time>2026-03-28T14:19:44.71Z</time></trkpt><trkpt lat="45.5370086" lon="10.7273681"><ele>68.0</ele><time>2026-03-28T14:19:45.71Z</time></trkpt><trkpt lat="45.5368531" lon="10.7273829"><ele>68.0</ele><time>2026-03-28T14:19:46.709Z</time></trkpt><trkpt lat="45.5366982" lon="10.7273991"><ele>68.0</ele><time>2026-03-28T14:19:47.709Z</time></trkpt><trkpt lat="45.5365495" lon="10.727414"><ele>68.0</ele><time>2026-03-28T14:19:48.71Z</time></trkpt><trkpt lat="45.5363997" lon="10.7274297"><ele>68.0</ele><time>2026-03-28T14:19:49.71Z</time></trkpt><trkpt lat="45.5362449" lon="10.7274454"><ele>68.0</ele><time>2026-03-28T14:19:50.709Z</time></trkpt><trkpt lat="45.5360924" lon="10.7274585"><ele>67.75</ele><time>2026-03-28T14:19:51.71Z</time></trkpt><trkpt lat="45.5359442" lon="10.7274697"><ele>67.5</ele><time>2026-03-28T14:19:52.71Z</time></trkpt><trkpt lat="45.5357982" lon="10.7274756"><ele>67.25</ele><time>2026-03-28T14:19:53.71Z</time></trkpt><trkpt lat="45.5356495" lon="10.7274788"><ele>67.0</ele><time>2026-03-28T14:19:54.709Z</time></trkpt><trkpt lat="45.5355003" lon="10.7274785"><ele>67.0</ele><time>2026-03-28T14:19:55.71Z</time></trkpt><trkpt lat="45.5353469" lon="10.7274732"><ele>67.0</ele><time>2026-03-28T14:19:56.709Z</time></trkpt><trkpt lat="45.5351903" lon="10.7274684"><ele>67.0</ele><time>2026-03-28T14:19:57.709Z</time></trkpt><trkpt lat="45.5350315" lon="10.7274602"><ele>67.0</ele><time>2026-03-28T14:19:58.709Z</time></trkpt><trkpt lat="45.5348704" lon="10.7274467"><ele>67.0</ele><time>2026-03-28T14:19:59.71Z</time></trkpt><trkpt lat="45.5347107" lon="10.7274285"><ele>67.0</ele><time>2026-03-28T14:20:00.709Z</time></trkpt><trkpt lat="45.53455" lon="10.7274028"><ele>67.0</ele><time>2026-03-28T14:20:01.709Z</time></trkpt><trkpt lat="45.5343884" lon="10.7273633"><ele>67.0</ele><time>2026-03-28T14:20:02.709Z</time></trkpt><trkpt lat="45.5342261" lon="10.727315"><ele>67.0</ele><time>2026-03-28T14:20:03.71Z</time></trkpt><trkpt lat="45.5340667" lon="10.727266"><ele>67.0</ele><time>2026-03-28T14:20:04.709Z</time></trkpt><trkpt lat="45.5339106" lon="10.7272137"><ele>67.0</ele><time>2026-03-28T14:20:05.71Z</time></trkpt><trkpt lat="45.5337569" lon="10.72716"><ele>67.0</ele><time>2026-03-28T14:20:06.709Z</time></trkpt><trkpt lat="45.5336048" lon="10.7271077"><ele>68.0</ele><time>2026-03-28T14:20:07.71Z</time></trkpt><trkpt lat="45.5334524" lon="10.7270552"><ele>69.0</ele><time>2026-03-28T14:20:08.71Z</time></trkpt><trkpt lat="45.5333039" lon="10.7270058"><ele>70.0</ele><time>2026-03-28T14:20:09.709Z</time></trkpt><trkpt lat="45.5331561" lon="10.7269587"><ele>70.0</ele><time>2026-03-28T14:20:10.709Z</time></trkpt><trkpt lat="45.5330103" lon="10.7269094"><ele>70.0</ele><time>2026-03-28T14:20:11.71Z</time></trkpt><trkpt lat="45.532863" lon="10.7268576"><ele>70.0</ele><time>2026-03-28T14:20:12.709Z</time></trkpt><trkpt lat="45.5327169" lon="10.7268103"><ele>68.33333333333333</ele><time>2026-03-28T14:20:13.71Z</time></trkpt><trkpt lat="45.532571" lon="10.7267665"><ele>66.66666666666667</ele><time>2026-03-28T14:20:14.709Z</time></trkpt><trkpt lat="45.5324226" lon="10.7267217"><ele>65.0</ele><time>2026-03-28T14:20:15.71Z</time></trkpt><trkpt lat="45.5322727" lon="10.7266811"><ele>65.0</ele><time>2026-03-28T14:20:16.71Z</time></trkpt><trkpt lat="45.5321213" lon="10.726642"><ele>65.0</ele><time>2026-03-28T14:20:17.71Z</time></trkpt><trkpt lat="45.5319705" lon="10.7266069"><ele>65.0</ele><time>2026-03-28T14:20:18.709Z</time></trkpt><trkpt lat="45.5318249" lon="10.7265732"><ele>65.75</ele><time>2026-03-28T14:20:19.709Z</time></trkpt><trkpt lat="45.531686" lon="10.7265419"><ele>66.5</ele><time>2026-03-28T14:20:20.709Z</time></trkpt><trkpt lat="45.531554" lon="10.7265124"><ele>67.25</ele><time>2026-03-28T14:20:21.709Z</time></trkpt><trkpt lat="45.531428" lon="10.7264867"><ele>68.0</ele><time>2026-03-28T14:20:22.709Z</time></trkpt><trkpt lat="45.531301" lon="10.7264652"><ele>68.25</ele><time>2026-03-28T14:20:23.709Z</time></trkpt><trkpt lat="45.531176" lon="10.7264505"><ele>68.5</ele><time>2026-03-28T14:20:24.71Z</time></trkpt><trkpt lat="45.531053" lon="10.7264355"><ele>68.75</ele><time>2026-03-28T14:20:25.71Z</time></trkpt><trkpt lat="45.5309268" lon="10.7264269"><ele>69.0</ele><time>2026-03-28T14:20:26.709Z</time></trkpt><trkpt lat="45.5308028" lon="10.7264174"><ele>69.0</ele><time>2026-03-28T14:20:27.71Z</time></trkpt><trkpt lat="45.5306888" lon="10.7264131"><ele>69.0</ele><time>2026-03-28T14:20:28.71Z</time></trkpt><trkpt lat="45.5305937" lon="10.7264117"><ele>69.0</ele><time>2026-03-28T14:20:29.709Z</time></trkpt><trkpt lat="45.5305136" lon="10.7264167"><ele>69.0</ele><time>2026-03-28T14:20:30.71Z</time></trkpt><trkpt lat="45.5304478" lon="10.7264233"><ele>69.0</ele><time>2026-03-28T14:20:31.709Z</time></trkpt><trkpt lat="45.5303847" lon="10.7264328"><ele>69.0</ele><time>2026-03-28T14:20:32.71Z</time></trkpt><trkpt lat="45.5302642" lon="10.7264563"><ele>69.0</ele><time>2026-03-28T14:20:34.709Z</time></trkpt><trkpt lat="45.5301996" lon="10.7264683"><ele>69.0</ele><time>2026-03-28T14:20:35.71Z</time></trkpt><trkpt lat="45.5301333" lon="10.7264848"><ele>69.0</ele><time>2026-03-28T14:20:36.71Z</time></trkpt><trkpt lat="45.5300635" lon="10.7265072"><ele>69.0</ele><time>2026-03-28T14:20:37.709Z</time></trkpt><trkpt lat="45.5299912" lon="10.7265304"><ele>69.0</ele><time>2026-03-28T14:20:38.709Z</time></trkpt><trkpt lat="45.5299108" lon="10.7265659"><ele>69.0</ele><time>2026-03-28T14:20:39.71Z</time></trkpt><trkpt lat="45.5298245" lon="10.7266052"><ele>69.0</ele><time>2026-03-28T14:20:40.71Z</time></trkpt><trkpt lat="45.5297361" lon="10.7266495"><ele>69.0</ele><time>2026-03-28T14:20:41.71Z</time></trkpt><trkpt lat="45.5296414" lon="10.7267012"><ele>69.0</ele><time>2026-03-28T14:20:42.709Z</time></trkpt><trkpt lat="45.5295386" lon="10.7267591"><ele>69.0</ele><time>2026-03-28T14:20:43.71Z</time></trkpt><trkpt lat="45.5294328" lon="10.7268181"><ele>69.0</ele><time>2026-03-28T14:20:44.71Z</time></trkpt><trkpt lat="45.5293365" lon="10.7268751"><ele>69.60000000000001</ele><time>2026-03-28T14:20:45.709Z</time></trkpt><trkpt lat="45.5292492" lon="10.7269285"><ele>70.2</ele><time>2026-03-28T14:20:46.709Z</time></trkpt><trkpt lat="45.5291641" lon="10.7269814"><ele>70.80000000000001</ele><time>2026-03-28T14:20:47.709Z</time></trkpt><trkpt lat="45.5290763" lon="10.727028"><ele>71.4</ele><time>2026-03-28T14:20:48.709Z</time></trkpt><trkpt lat="45.5289843" lon="10.7270787"><ele>72.0</ele><time>2026-03-28T14:20:49.71Z</time></trkpt><trkpt lat="45.5288925" lon="10.7271287"><ele>72.0</ele><time>2026-03-28T14:20:50.709Z</time></trkpt><trkpt lat="45.5288039" lon="10.7271754"><ele>72.0</ele><time>2026-03-28T14:20:51.71Z</time></trkpt><trkpt lat="45.5287149" lon="10.7272189"><ele>72.0</ele><time>2026-03-28T14:20:52.709Z</time></trkpt><trkpt lat="45.5286254" lon="10.7272554"><ele>72.0</ele><time>2026-03-28T14:20:53.71Z</time></trkpt><trkpt lat="45.5285268" lon="10.7272868"><ele>72.0</ele><time>2026-03-28T14:20:54.71Z</time></trkpt><trkpt lat="45.5284218" lon="10.727315"><ele>71.75</ele><time>2026-03-28T14:20:55.71Z</time></trkpt><trkpt lat="45.5283108" lon="10.727343"><ele>71.5</ele><time>2026-03-28T14:20:56.709Z</time></trkpt><trkpt lat="45.5281949" lon="10.7273741"><ele>71.25</ele><time>2026-03-28T14:20:57.71Z</time></trkpt><trkpt lat="45.528073" lon="10.7274067"><ele>71.0</ele><time>2026-03-28T14:20:58.71Z</time></trkpt><trkpt lat="45.5279454" lon="10.7274448"><ele>70.75</ele><time>2026-03-28T14:20:59.709Z</time></trkpt><trkpt lat="45.5278115" lon="10.7274857"><ele>70.5</ele><time>2026-03-28T14:21:00.71Z</time></trkpt><trkpt lat="45.5276716" lon="10.7275287"><ele>70.25</ele><time>2026-03-28T14:21:01.709Z</time></trkpt><trkpt lat="45.5275248" lon="10.727573"><ele>70.0</ele><time>2026-03-28T14:21:02.71Z</time></trkpt><trkpt lat="45.5273754" lon="10.7276283"><ele>70.0</ele><time>2026-03-28T14:21:03.71Z</time></trkpt><trkpt lat="45.5272368" lon="10.7276861"><ele>70.0</ele><time>2026-03-28T14:21:04.709Z</time></trkpt><trkpt lat="45.5271066" lon="10.7277475"><ele>70.0</ele><time>2026-03-28T14:21:05.71Z</time></trkpt><trkpt lat="45.5269794" lon="10.7278085"><ele>70.0</ele><time>2026-03-28T14:21:06.709Z</time></trkpt><trkpt lat="45.5268547" lon="10.7278755"><ele>71.25</ele><time>2026-03-28T14:21:07.71Z</time></trkpt><trkpt lat="45.5267338" lon="10.7279417"><ele>72.5</ele><time>2026-03-28T14:21:08.709Z</time></trkpt><trkpt lat="45.5266186" lon="10.728011"><ele>73.75</ele><time>2026-03-28T14:21:09.71Z</time></trkpt><trkpt lat="45.5265058" lon="10.7280793"><ele>75.0</ele><time>2026-03-28T14:21:10.709Z</time></trkpt><trkpt lat="45.5263936" lon="10.7281492"><ele>75.0</ele><time>2026-03-28T14:21:11.71Z</time></trkpt><trkpt lat="45.5262886" lon="10.7282153"><ele>75.0</ele><time>2026-03-28T14:21:12.71Z</time></trkpt><trkpt lat="45.5261944" lon="10.7282744"><ele>75.0</ele><time>2026-03-28T14:21:13.709Z</time></trkpt><trkpt lat="45.5261117" lon="10.7283293"><ele>75.0</ele><time>2026-03-28T14:21:14.709Z</time></trkpt><trkpt lat="45.52603" lon="10.7283828"><ele>75.0</ele><time>2026-03-28T14:21:15.71Z</time></trkpt><trkpt lat="45.5259438" lon="10.7284384"><ele>75.16666666666667</ele><time>2026-03-28T14:21:16.709Z</time></trkpt><trkpt lat="45.5258634" lon="10.7284893"><ele>75.33333333333333</ele><time>2026-03-28T14:21:17.709Z</time></trkpt><trkpt lat="45.525788" lon="10.7285365"><ele>75.5</ele><time>2026-03-28T14:21:18.709Z</time></trkpt><trkpt lat="45.5257196" lon="10.7285777"><ele>75.66666666666666</ele><time>2026-03-28T14:21:19.71Z</time></trkpt><trkpt lat="45.5256547" lon="10.7286146"><ele>75.83333333333333</ele><time>2026-03-28T14:21:20.71Z</time></trkpt><trkpt lat="45.5255946" lon="10.7286528"><ele>76.0</ele><time>2026-03-28T14:21:21.71Z</time></trkpt><trkpt lat="45.5254855" lon="10.7287113"><ele>76.8</ele><time>2026-03-28T14:21:23.709Z</time></trkpt><trkpt lat="45.5253952" lon="10.7287524"><ele>77.6</ele><time>2026-03-28T14:21:25.709Z</time></trkpt><trkpt lat="45.5253009" lon="10.7287888"><ele>78.4</ele><time>2026-03-28T14:21:27.71Z</time></trkpt><trkpt lat="45.5251776" lon="10.7288144"><ele>79.2</ele><time>2026-03-28T14:21:29.71Z</time></trkpt><trkpt lat="45.525102" lon="10.7288378"><ele>80.0</ele><time>2026-03-28T14:21:30.71Z</time></trkpt><trkpt lat="45.5250174" lon="10.7288807"><ele>80.0</ele><time>2026-03-28T14:21:31.709Z</time></trkpt><trkpt lat="45.5249197" lon="10.7289251"><ele>80.0</ele><time>2026-03-28T14:21:32.709Z</time></trkpt><trkpt lat="45.5248046" lon="10.7289647"><ele>80.0</ele><time>2026-03-28T14:21:33.708Z</time></trkpt><trkpt lat="45.5246733" lon="10.7290043"><ele>80.0</ele><time>2026-03-28T14:21:34.71Z</time></trkpt><trkpt lat="45.5245331" lon="10.7290456"><ele>80.75</ele><time>2026-03-28T14:21:35.709Z</time></trkpt><trkpt lat="45.5244052" lon="10.7290794"><ele>81.5</ele><time>2026-03-28T14:21:36.709Z</time></trkpt><trkpt lat="45.5242908" lon="10.7291103"><ele>82.25</ele><time>2026-03-28T14:21:37.71Z</time></trkpt><trkpt lat="45.5241809" lon="10.7291435"><ele>83.0</ele><time>2026-03-28T14:21:38.709Z</time></trkpt><trkpt lat="45.5240704" lon="10.7291726"><ele>83.0</ele><time>2026-03-28T14:21:39.71Z</time></trkpt><trkpt lat="45.5239602" lon="10.7292007"><ele>83.0</ele><time>2026-03-28T14:21:40.71Z</time></trkpt><trkpt lat="45.5238606" lon="10.7292259"><ele>83.0</ele><time>2026-03-28T14:21:41.71Z</time></trkpt><trkpt lat="45.5237666" lon="10.7292477"><ele>83.0</ele><time>2026-03-28T14:21:42.709Z</time></trkpt><trkpt lat="45.5236707" lon="10.7292726"><ele>83.0</ele><time>2026-03-28T14:21:43.709Z</time></trkpt><trkpt lat="45.5235753" lon="10.7292983"><ele>83.2</ele><time>2026-03-28T14:21:44.71Z</time></trkpt><trkpt lat="45.5234852" lon="10.7293235"><ele>83.4</ele><time>2026-03-28T14:21:45.71Z</time></trkpt><trkpt lat="45.5233972" lon="10.7293524"><ele>83.60000000000001</ele><time>2026-03-28T14:21:46.709Z</time></trkpt><trkpt lat="45.5233067" lon="10.7293807"><ele>83.80000000000001</ele><time>2026-03-28T14:21:47.71Z</time></trkpt><trkpt lat="45.5232079" lon="10.7294111"><ele>84.0</ele><time>2026-03-28T14:21:48.71Z</time></trkpt><trkpt lat="45.5231009" lon="10.7294427"><ele>85.5</ele><time>2026-03-28T14:21:49.709Z</time></trkpt><trkpt lat="45.5229912" lon="10.729474"><ele>87.0</ele><time>2026-03-28T14:21:50.709Z</time></trkpt><trkpt lat="45.5228738" lon="10.7295057"><ele>88.5</ele><time>2026-03-28T14:21:51.71Z</time></trkpt><trkpt lat="45.5227526" lon="10.7295347"><ele>90.0</ele><time>2026-03-28T14:21:52.709Z</time></trkpt><trkpt lat="45.5226269" lon="10.7295623"><ele>90.0</ele><time>2026-03-28T14:21:53.71Z</time></trkpt><trkpt lat="45.5224962" lon="10.7295876"><ele>90.0</ele><time>2026-03-28T14:21:54.709Z</time></trkpt><trkpt lat="45.5223593" lon="10.7296045"><ele>90.0</ele><time>2026-03-28T14:21:55.709Z</time></trkpt><trkpt lat="45.5222135" lon="10.7296138"><ele>90.0</ele><time>2026-03-28T14:21:56.709Z</time></trkpt><trkpt lat="45.5220593" lon="10.7296193"><ele>90.33333333333333</ele><time>2026-03-28T14:21:57.71Z</time></trkpt><trkpt lat="45.5218967" lon="10.7296307"><ele>90.66666666666666</ele><time>2026-03-28T14:21:58.709Z</time></trkpt><trkpt lat="45.5217318" lon="10.7296407"><ele>91.0</ele><time>2026-03-28T14:21:59.709Z</time></trkpt><trkpt lat="45.5215764" lon="10.7296493"><ele>91.0</ele><time>2026-03-28T14:22:00.709Z</time></trkpt><trkpt lat="45.5214313" lon="10.729659"><ele>91.0</ele><time>2026-03-28T14:22:01.71Z</time></trkpt><trkpt lat="45.5212905" lon="10.7296677"><ele>91.0</ele><time>2026-03-28T14:22:02.709Z</time></trkpt><trkpt lat="45.5211503" lon="10.7296774"><ele>91.0</ele><time>2026-03-28T14:22:03.709Z</time></trkpt><trkpt lat="45.5210072" lon="10.729687"><ele>90.25</ele><time>2026-03-28T14:22:04.71Z</time></trkpt><trkpt lat="45.5208658" lon="10.7296953"><ele>89.5</ele><time>2026-03-28T14:22:05.709Z</time></trkpt><trkpt lat="45.5207222" lon="10.729703"><ele>88.75</ele><time>2026-03-28T14:22:06.71Z</time></trkpt><trkpt lat="45.5205783" lon="10.7297103"><ele>88.0</ele><time>2026-03-28T14:22:07.709Z</time></trkpt><trkpt lat="45.52044" lon="10.7297153"><ele>87.0</ele><time>2026-03-28T14:22:08.709Z</time></trkpt><trkpt lat="45.5203067" lon="10.7297239"><ele>86.0</ele><time>2026-03-28T14:22:09.709Z</time></trkpt><trkpt lat="45.5201736" lon="10.7297279"><ele>85.0</ele><time>2026-03-28T14:22:10.71Z</time></trkpt><trkpt lat="45.5200389" lon="10.7297335"><ele>84.0</ele><time>2026-03-28T14:22:11.71Z</time></trkpt><trkpt lat="45.5199018" lon="10.7297473"><ele>84.0</ele><time>2026-03-28T14:22:12.709Z</time></trkpt><trkpt lat="45.5197612" lon="10.7297642"><ele>84.0</ele><time>2026-03-28T14:22:13.709Z</time></trkpt><trkpt lat="45.5196196" lon="10.7297882"><ele>84.0</ele><time>2026-03-28T14:22:14.71Z</time></trkpt><trkpt lat="45.5194782" lon="10.729818"><ele>84.0</ele><time>2026-03-28T14:22:15.71Z</time></trkpt><trkpt lat="45.5193337" lon="10.7298584"><ele>84.5</ele><time>2026-03-28T14:22:16.709Z</time></trkpt><trkpt lat="45.5191873" lon="10.729905"><ele>85.0</ele><time>2026-03-28T14:22:17.71Z</time></trkpt><trkpt lat="45.5190431" lon="10.7299559"><ele>85.5</ele><time>2026-03-28T14:22:18.71Z</time></trkpt><trkpt lat="45.5189054" lon="10.7300077"><ele>86.0</ele><time>2026-03-28T14:22:19.709Z</time></trkpt><trkpt lat="45.5187711" lon="10.7300633"><ele>86.25</ele><time>2026-03-28T14:22:20.709Z</time></trkpt><trkpt lat="45.5186348" lon="10.7301153"><ele>86.5</ele><time>2026-03-28T14:22:21.71Z</time></trkpt><trkpt lat="45.5184967" lon="10.7301661"><ele>86.75</ele><time>2026-03-28T14:22:22.71Z</time></trkpt><trkpt lat="45.5183608" lon="10.7302176"><ele>87.0</ele><time>2026-03-28T14:22:23.709Z</time></trkpt><trkpt lat="45.5182298" lon="10.7302697"><ele>87.0</ele><time>2026-03-28T14:22:24.709Z</time></trkpt><trkpt lat="45.5181017" lon="10.7303196"><ele>87.0</ele><time>2026-03-28T14:22:25.709Z</time></trkpt><trkpt lat="45.5179743" lon="10.7303687"><ele>87.0</ele><time>2026-03-28T14:22:26.71Z</time></trkpt><trkpt lat="45.5178424" lon="10.7304192"><ele>87.0</ele><time>2026-03-28T14:22:27.71Z</time></trkpt><trkpt lat="45.5177102" lon="10.7304705"><ele>87.0</ele><time>2026-03-28T14:22:28.71Z</time></trkpt><trkpt lat="45.5175776" lon="10.7305179"><ele>87.0</ele><time>2026-03-28T14:22:29.709Z</time></trkpt><trkpt lat="45.5174435" lon="10.7305678"><ele>87.0</ele><time>2026-03-28T14:22:30.709Z</time></trkpt><trkpt lat="45.5173147" lon="10.7306126"><ele>87.0</ele><time>2026-03-28T14:22:31.71Z</time></trkpt><trkpt lat="45.517188" lon="10.7306545"><ele>85.0</ele><time>2026-03-28T14:22:32.71Z</time></trkpt><trkpt lat="45.5170585" lon="10.7306977"><ele>83.0</ele><time>2026-03-28T14:22:33.709Z</time></trkpt><trkpt lat="45.516928" lon="10.7307412"><ele>81.0</ele><time>2026-03-28T14:22:34.71Z</time></trkpt><trkpt lat="45.5167972" lon="10.7307848"><ele>79.0</ele><time>2026-03-28T14:22:35.71Z</time></trkpt><trkpt lat="45.5166657" lon="10.7308291"><ele>79.0</ele><time>2026-03-28T14:22:36.71Z</time></trkpt><trkpt lat="45.5165347" lon="10.7308716"><ele>79.0</ele><time>2026-03-28T14:22:37.71Z</time></trkpt><trkpt lat="45.5163993" lon="10.7309126"><ele>79.0</ele><time>2026-03-28T14:22:38.71Z</time></trkpt><trkpt lat="45.5162647" lon="10.730955"><ele>79.0</ele><time>2026-03-28T14:22:39.71Z</time></trkpt><trkpt lat="45.516139" lon="10.7309942"><ele>78.5</ele><time>2026-03-28T14:22:40.71Z</time></trkpt><trkpt lat="45.5160153" lon="10.7310341"><ele>78.0</ele><time>2026-03-28T14:22:41.71Z</time></trkpt><trkpt lat="45.5158971" lon="10.731071"><ele>77.5</ele><time>2026-03-28T14:22:42.71Z</time></trkpt><trkpt lat="45.5157853" lon="10.7311041"><ele>77.0</ele><time>2026-03-28T14:22:43.71Z</time></trkpt><trkpt lat="45.5156795" lon="10.7311359"><ele>77.25</ele><time>2026-03-28T14:22:44.709Z</time></trkpt><trkpt lat="45.5155683" lon="10.731169"><ele>77.5</ele><time>2026-03-28T14:22:45.709Z</time></trkpt><trkpt lat="45.5154495" lon="10.731209"><ele>77.75</ele><time>2026-03-28T14:22:46.71Z</time></trkpt><trkpt lat="45.5153199" lon="10.7312464"><ele>78.0</ele><time>2026-03-28T14:22:47.709Z</time></trkpt><trkpt lat="45.515187" lon="10.7312904"><ele>78.0</ele><time>2026-03-28T14:22:48.709Z</time></trkpt><trkpt lat="45.515058" lon="10.7313301"><ele>78.0</ele><time>2026-03-28T14:22:49.709Z</time></trkpt><trkpt lat="45.514929" lon="10.7313699"><ele>78.0</ele><time>2026-03-28T14:22:50.71Z</time></trkpt><trkpt lat="45.5147992" lon="10.7314108"><ele>78.0</ele><time>2026-03-28T14:22:51.71Z</time></trkpt><trkpt lat="45.5146663" lon="10.731453"><ele>77.5</ele><time>2026-03-28T14:22:52.71Z</time></trkpt><trkpt lat="45.5145322" lon="10.731496"><ele>77.0</ele><time>2026-03-28T14:22:53.71Z</time></trkpt><trkpt lat="45.5144043" lon="10.7315379"><ele>76.5</ele><time>2026-03-28T14:22:54.71Z</time></trkpt><trkpt lat="45.5142762" lon="10.7315794"><ele>76.0</ele><time>2026-03-28T14:22:55.709Z</time></trkpt><trkpt lat="45.5141498" lon="10.73162"><ele>76.0</ele><time>2026-03-28T14:22:56.71Z</time></trkpt><trkpt lat="45.514027" lon="10.7316606"><ele>76.0</ele><time>2026-03-28T14:22:57.709Z</time></trkpt><trkpt lat="45.5139164" lon="10.7317009"><ele>76.0</ele><time>2026-03-28T14:22:58.709Z</time></trkpt><trkpt lat="45.5138171" lon="10.7317365"><ele>76.0</ele><time>2026-03-28T14:22:59.71Z</time></trkpt><trkpt lat="45.5137247" lon="10.7317719"><ele>76.0</ele><time>2026-03-28T14:23:00.709Z</time></trkpt><trkpt lat="45.5136319" lon="10.7318099"><ele>76.0</ele><time>2026-03-28T14:23:01.709Z</time></trkpt><trkpt lat="45.5135354" lon="10.731855"><ele>76.0</ele><time>2026-03-28T14:23:02.709Z</time></trkpt><trkpt lat="45.5134338" lon="10.7318998"><ele>76.0</ele><time>2026-03-28T14:23:03.71Z</time></trkpt><trkpt lat="45.5133275" lon="10.7319496"><ele>76.0</ele><time>2026-03-28T14:23:04.709Z</time></trkpt><trkpt lat="45.513218" lon="10.7319983"><ele>76.0</ele><time>2026-03-28T14:23:05.71Z</time></trkpt><trkpt lat="45.5131058" lon="10.7320498"><ele>76.2</ele><time>2026-03-28T14:23:06.709Z</time></trkpt><trkpt lat="45.513" lon="10.7321014"><ele>76.39999999999999</ele><time>2026-03-28T14:23:07.709Z</time></trkpt><trkpt lat="45.5129025" lon="10.7321455"><ele>76.6</ele><time>2026-03-28T14:23:08.709Z</time></trkpt><trkpt lat="45.5128099" lon="10.7321872"><ele>76.8</ele><time>2026-03-28T14:23:09.71Z</time></trkpt><trkpt lat="45.5127267" lon="10.7322244"><ele>77.0</ele><time>2026-03-28T14:23:10.71Z</time></trkpt><trkpt lat="45.5126431" lon="10.7322686"><ele>77.0</ele><time>2026-03-28T14:23:11.709Z</time></trkpt><trkpt lat="45.5125603" lon="10.732307"><ele>77.0</ele><time>2026-03-28T14:23:12.71Z</time></trkpt><trkpt lat="45.5124777" lon="10.7323444"><ele>77.0</ele><time>2026-03-28T14:23:13.71Z</time></trkpt><trkpt lat="45.5123947" lon="10.7323845"><ele>77.0</ele><time>2026-03-28T14:23:14.709Z</time></trkpt><trkpt lat="45.5123088" lon="10.732425"><ele>77.0</ele><time>2026-03-28T14:23:15.71Z</time></trkpt><trkpt lat="45.5122173" lon="10.7324678"><ele>77.0</ele><time>2026-03-28T14:23:16.709Z</time></trkpt><trkpt lat="45.5121206" lon="10.7325102"><ele>76.6</ele><time>2026-03-28T14:23:17.71Z</time></trkpt><trkpt lat="45.5120218" lon="10.7325597"><ele>76.2</ele><time>2026-03-28T14:23:18.709Z</time></trkpt><trkpt lat="45.5119187" lon="10.7326051"><ele>75.8</ele><time>2026-03-28T14:23:19.709Z</time></trkpt><trkpt lat="45.5118096" lon="10.7326552"><ele>75.4</ele><time>2026-03-28T14:23:20.709Z</time></trkpt><trkpt lat="45.5116971" lon="10.7327107"><ele>75.0</ele><time>2026-03-28T14:23:21.709Z</time></trkpt><trkpt lat="45.5115789" lon="10.7327706"><ele>75.0</ele><time>2026-03-28T14:23:22.709Z</time></trkpt><trkpt lat="45.5114557" lon="10.7328294"><ele>75.0</ele><time>2026-03-28T14:23:23.709Z</time></trkpt><trkpt lat="45.5113363" lon="10.7328833"><ele>75.0</ele><time>2026-03-28T14:23:24.71Z</time></trkpt><trkpt lat="45.511225" lon="10.7329343"><ele>75.0</ele><time>2026-03-28T14:23:25.71Z</time></trkpt><trkpt lat="45.5111208" lon="10.7329801"><ele>74.6</ele><time>2026-03-28T14:23:26.709Z</time></trkpt><trkpt lat="45.5110163" lon="10.7330274"><ele>74.2</ele><time>2026-03-28T14:23:27.709Z</time></trkpt><trkpt lat="45.5109093" lon="10.7330773"><ele>73.8</ele><time>2026-03-28T14:23:28.71Z</time></trkpt><trkpt lat="45.5108037" lon="10.7331288"><ele>73.4</ele><time>2026-03-28T14:23:29.71Z</time></trkpt><trkpt lat="45.5107011" lon="10.7331762"><ele>73.0</ele><time>2026-03-28T14:23:30.71Z</time></trkpt><trkpt lat="45.5106001" lon="10.7332217"><ele>73.0</ele><time>2026-03-28T14:23:31.71Z</time></trkpt><trkpt lat="45.5104981" lon="10.7332671"><ele>73.0</ele><time>2026-03-28T14:23:32.71Z</time></trkpt><trkpt lat="45.5103975" lon="10.7333184"><ele>73.0</ele><time>2026-03-28T14:23:33.709Z</time></trkpt><trkpt lat="45.5102952" lon="10.7333659"><ele>73.0</ele><time>2026-03-28T14:23:34.709Z</time></trkpt><trkpt lat="45.5101903" lon="10.7334141"><ele>73.0</ele><time>2026-03-28T14:23:35.709Z</time></trkpt><trkpt lat="45.5100834" lon="10.733465"><ele>72.75</ele><time>2026-03-28T14:23:36.709Z</time></trkpt><trkpt lat="45.5099743" lon="10.7335141"><ele>72.5</ele><time>2026-03-28T14:23:37.709Z</time></trkpt><trkpt lat="45.5098665" lon="10.733566"><ele>72.25</ele><time>2026-03-28T14:23:38.709Z</time></trkpt><trkpt lat="45.5097577" lon="10.7336154"><ele>72.0</ele><time>2026-03-28T14:23:39.709Z</time></trkpt><trkpt lat="45.5096469" lon="10.7336672"><ele>72.4</ele><time>2026-03-28T14:23:40.71Z</time></trkpt><trkpt lat="45.5095426" lon="10.7337159"><ele>72.80000000000001</ele><time>2026-03-28T14:23:41.71Z</time></trkpt><trkpt lat="45.509439" lon="10.7337618"><ele>73.2</ele><time>2026-03-28T14:23:42.71Z</time></trkpt><trkpt lat="45.509335" lon="10.7338124"><ele>73.60000000000001</ele><time>2026-03-28T14:23:43.709Z</time></trkpt><trkpt lat="45.5092333" lon="10.7338616"><ele>74.0</ele><time>2026-03-28T14:23:44.71Z</time></trkpt><trkpt lat="45.5091324" lon="10.7339064"><ele>74.0</ele><time>2026-03-28T14:23:45.709Z</time></trkpt><trkpt lat="45.5090317" lon="10.7339544"><ele>74.0</ele><time>2026-03-28T14:23:46.709Z</time></trkpt><trkpt lat="45.5089294" lon="10.733999"><ele>74.0</ele><time>2026-03-28T14:23:47.71Z</time></trkpt><trkpt lat="45.5088367" lon="10.7340428"><ele>74.0</ele><time>2026-03-28T14:23:48.71Z</time></trkpt><trkpt lat="45.5087539" lon="10.734079"><ele>74.0</ele><time>2026-03-28T14:23:49.709Z</time></trkpt><trkpt lat="45.5086767" lon="10.734113"><ele>73.83333333333334</ele><time>2026-03-28T14:23:50.709Z</time></trkpt><trkpt lat="45.5086015" lon="10.7341477"><ele>73.66666666666667</ele><time>2026-03-28T14:23:51.709Z</time></trkpt><trkpt lat="45.50852" lon="10.7341868"><ele>73.5</ele><time>2026-03-28T14:23:52.709Z</time></trkpt><trkpt lat="45.5084374" lon="10.7342237"><ele>73.33333333333333</ele><time>2026-03-28T14:23:53.709Z</time></trkpt><trkpt lat="45.5083484" lon="10.7342627"><ele>73.16666666666666</ele><time>2026-03-28T14:23:54.709Z</time></trkpt><trkpt lat="45.5082546" lon="10.7343024"><ele>73.0</ele><time>2026-03-28T14:23:55.709Z</time></trkpt><trkpt lat="45.5081558" lon="10.7343454"><ele>73.0</ele><time>2026-03-28T14:23:56.709Z</time></trkpt><trkpt lat="45.5080569" lon="10.7343894"><ele>73.0</ele><time>2026-03-28T14:23:57.709Z</time></trkpt><trkpt lat="45.5079584" lon="10.7344377"><ele>73.0</ele><time>2026-03-28T14:23:58.709Z</time></trkpt><trkpt lat="45.5078613" lon="10.7344859"><ele>73.0</ele><time>2026-03-28T14:23:59.71Z</time></trkpt><trkpt lat="45.5077671" lon="10.7345282"><ele>73.0</ele><time>2026-03-28T14:24:00.71Z</time></trkpt><trkpt lat="45.5076749" lon="10.7345722"><ele>73.0</ele><time>2026-03-28T14:24:01.71Z</time></trkpt><trkpt lat="45.5075836" lon="10.7346172"><ele>73.0</ele><time>2026-03-28T14:24:02.709Z</time></trkpt><trkpt lat="45.5074897" lon="10.7346622"><ele>73.0</ele><time>2026-03-28T14:24:03.709Z</time></trkpt><trkpt lat="45.5073915" lon="10.7347122"><ele>73.0</ele><time>2026-03-28T14:24:04.709Z</time></trkpt><trkpt lat="45.5072864" lon="10.7347638"><ele>73.0</ele><time>2026-03-28T14:24:05.709Z</time></trkpt><trkpt lat="45.5071764" lon="10.7348116"><ele>73.0</ele><time>2026-03-28T14:24:06.709Z</time></trkpt><trkpt lat="45.507071" lon="10.7348517"><ele>73.0</ele><time>2026-03-28T14:24:07.71Z</time></trkpt><trkpt lat="45.5069756" lon="10.7348816"><ele>73.0</ele><time>2026-03-28T14:24:08.71Z</time></trkpt><trkpt lat="45.5068863" lon="10.7349031"><ele>73.0</ele><time>2026-03-28T14:24:09.709Z</time></trkpt><trkpt lat="45.5068017" lon="10.7349233"><ele>73.0</ele><time>2026-03-28T14:24:10.709Z</time></trkpt><trkpt lat="45.506722" lon="10.7349405"><ele>73.0</ele><time>2026-03-28T14:24:11.709Z</time></trkpt><trkpt lat="45.5066439" lon="10.7349576"><ele>73.0</ele><time>2026-03-28T14:24:12.709Z</time></trkpt><trkpt lat="45.5065653" lon="10.7349716"><ele>73.0</ele><time>2026-03-28T14:24:13.709Z</time></trkpt><trkpt lat="45.5064862" lon="10.7349852"><ele>73.0</ele><time>2026-03-28T14:24:14.71Z</time></trkpt><trkpt lat="45.5064138" lon="10.7349991"><ele>73.0</ele><time>2026-03-28T14:24:15.709Z</time></trkpt><trkpt lat="45.5063425" lon="10.7350111"><ele>73.0</ele><time>2026-03-28T14:24:16.709Z</time></trkpt><trkpt lat="45.5062396" lon="10.7350299"><ele>72.8</ele><time>2026-03-28T14:24:18.71Z</time></trkpt><trkpt lat="45.5061608" lon="10.7350492"><ele>72.6</ele><time>2026-03-28T14:24:20.71Z</time></trkpt><trkpt lat="45.5060729" lon="10.7350848"><ele>72.4</ele><time>2026-03-28T14:24:22.709Z</time></trkpt><trkpt lat="45.5059451" lon="10.7351213"><ele>72.2</ele><time>2026-03-28T14:24:24.709Z</time></trkpt><trkpt lat="45.5058654" lon="10.7351294"><ele>72.0</ele><time>2026-03-28T14:24:25.71Z</time></trkpt><trkpt lat="45.5057792" lon="10.7351351"><ele>72.0</ele><time>2026-03-28T14:24:26.709Z</time></trkpt><trkpt lat="45.5057036" lon="10.7351372"><ele>72.0</ele><time>2026-03-28T14:24:27.71Z</time></trkpt><trkpt lat="45.5055911" lon="10.7351477"><ele>72.0</ele><time>2026-03-28T14:24:29.71Z</time></trkpt><trkpt lat="45.5055044" lon="10.7351654"><ele>72.0</ele><time>2026-03-28T14:24:31.709Z</time></trkpt><trkpt lat="45.5054347" lon="10.7351804"><ele>72.0</ele><time>2026-03-28T14:24:33.709Z</time></trkpt><trkpt lat="45.505364" lon="10.7351966"><ele>72.0</ele><time>2026-03-28T14:24:35.709Z</time></trkpt><trkpt lat="45.5052613" lon="10.7352177"><ele>72.5</ele><time>2026-03-28T14:24:37.709Z</time></trkpt><trkpt lat="45.5051399" lon="10.7352463"><ele>73.0</ele><time>2026-03-28T14:24:39.709Z</time></trkpt><trkpt lat="45.5050759" lon="10.7352621"><ele>73.5</ele><time>2026-03-28T14:24:40.709Z</time></trkpt><trkpt lat="45.5050056" lon="10.7352798"><ele>74.0</ele><time>2026-03-28T14:24:41.709Z</time></trkpt><trkpt lat="45.5049334" lon="10.7352966"><ele>74.5</ele><time>2026-03-28T14:24:42.71Z</time></trkpt><trkpt lat="45.5048542" lon="10.735312"><ele>75.0</ele><time>2026-03-28T14:24:43.709Z</time></trkpt><trkpt lat="45.5047684" lon="10.7353336"><ele>75.0</ele><time>2026-03-28T14:24:44.71Z</time></trkpt><trkpt lat="45.5046796" lon="10.7353531"><ele>75.0</ele><time>2026-03-28T14:24:45.709Z</time></trkpt><trkpt lat="45.5045983" lon="10.7353689"><ele>75.0</ele><time>2026-03-28T14:24:46.709Z</time></trkpt><trkpt lat="45.5045224" lon="10.7353841"><ele>75.0</ele><time>2026-03-28T14:24:47.71Z</time></trkpt><trkpt lat="45.5044555" lon="10.7353977"><ele>75.0</ele><time>2026-03-28T14:24:48.709Z</time></trkpt><trkpt lat="45.5043549" lon="10.7354186"><ele>75.0</ele><time>2026-03-28T14:24:50.71Z</time></trkpt><trkpt lat="45.5042908" lon="10.7354307"><ele>74.71428571428571</ele><time>2026-03-28T14:24:52.709Z</time></trkpt><trkpt lat="45.5042108" lon="10.7354416"><ele>74.42857142857143</ele><time>2026-03-28T14:24:57.709Z</time></trkpt><trkpt lat="45.5041428" lon="10.7354543"><ele>74.14285714285714</ele><time>2026-03-28T14:25:01.709Z</time></trkpt><trkpt lat="45.5040775" lon="10.7354652"><ele>73.85714285714286</ele><time>2026-03-28T14:25:03.709Z</time></trkpt><trkpt lat="45.5039793" lon="10.7354983"><ele>73.57142857142857</ele><time>2026-03-28T14:25:05.71Z</time></trkpt><trkpt lat="45.5039191" lon="10.7355277"><ele>73.28571428571428</ele><time>2026-03-28T14:25:06.709Z</time></trkpt><trkpt lat="45.5038557" lon="10.735542"><ele>73.0</ele><time>2026-03-28T14:25:07.71Z</time></trkpt><trkpt lat="45.5037889" lon="10.7355547"><ele>73.16666666666666</ele><time>2026-03-28T14:25:08.709Z</time></trkpt><trkpt lat="45.5037211" lon="10.735572"><ele>73.33333333333333</ele><time>2026-03-28T14:25:09.71Z</time></trkpt><trkpt lat="45.5036498" lon="10.7355935"><ele>73.5</ele><time>2026-03-28T14:25:10.709Z</time></trkpt><trkpt lat="45.5035744" lon="10.7356149"><ele>73.66666666666667</ele><time>2026-03-28T14:25:11.709Z</time></trkpt><trkpt lat="45.5034924" lon="10.7356359"><ele>73.83333333333334</ele><time>2026-03-28T14:25:12.709Z</time></trkpt><trkpt lat="45.5034043" lon="10.7356602"><ele>74.0</ele><time>2026-03-28T14:25:13.71Z</time></trkpt><trkpt lat="45.503309" lon="10.7356905"><ele>74.0</ele><time>2026-03-28T14:25:14.71Z</time></trkpt><trkpt lat="45.5031979" lon="10.7357255"><ele>74.0</ele><time>2026-03-28T14:25:15.709Z</time></trkpt><trkpt lat="45.503075" lon="10.7357616"><ele>74.0</ele><time>2026-03-28T14:25:16.71Z</time></trkpt><trkpt lat="45.5029441" lon="10.7358057"><ele>74.0</ele><time>2026-03-28T14:25:17.709Z</time></trkpt><trkpt lat="45.5028087" lon="10.7358622"><ele>74.25</ele><time>2026-03-28T14:25:18.71Z</time></trkpt><trkpt lat="45.5026733" lon="10.7359308"><ele>74.5</ele><time>2026-03-28T14:25:19.71Z</time></trkpt><trkpt lat="45.5025304" lon="10.7360089"><ele>74.75</ele><time>2026-03-28T14:25:20.71Z</time></trkpt><trkpt lat="45.5023969" lon="10.7360885"><ele>75.0</ele><time>2026-03-28T14:25:21.71Z</time></trkpt><trkpt lat="45.5022671" lon="10.7361656"><ele>76.0</ele><time>2026-03-28T14:25:22.71Z</time></trkpt><trkpt lat="45.5021383" lon="10.7362425"><ele>77.0</ele><time>2026-03-28T14:25:23.71Z</time></trkpt><trkpt lat="45.5020175" lon="10.7363185"><ele>78.0</ele><time>2026-03-28T14:25:24.709Z</time></trkpt><trkpt lat="45.5018976" lon="10.7363901"><ele>79.0</ele><time>2026-03-28T14:25:25.709Z</time></trkpt><trkpt lat="45.50178" lon="10.7364609"><ele>79.75</ele><time>2026-03-28T14:25:26.71Z</time></trkpt><trkpt lat="45.5016618" lon="10.7365326"><ele>80.5</ele><time>2026-03-28T14:25:27.709Z</time></trkpt><trkpt lat="45.501542" lon="10.7366031"><ele>81.25</ele><time>2026-03-28T14:25:28.709Z</time></trkpt><trkpt lat="45.5014188" lon="10.7366694"><ele>82.0</ele><time>2026-03-28T14:25:29.709Z</time></trkpt><trkpt lat="45.501293" lon="10.7367341"><ele>82.25</ele><time>2026-03-28T14:25:30.709Z</time></trkpt><trkpt lat="45.5011642" lon="10.7367948"><ele>82.5</ele><time>2026-03-28T14:25:31.71Z</time></trkpt><trkpt lat="45.5010331" lon="10.7368486"><ele>82.75</ele><time>2026-03-28T14:25:32.71Z</time></trkpt><trkpt lat="45.5008986" lon="10.7368897"><ele>83.0</ele><time>2026-03-28T14:25:33.709Z</time></trkpt><trkpt lat="45.5007643" lon="10.7369308"><ele>83.75</ele><time>2026-03-28T14:25:34.709Z</time></trkpt><trkpt lat="45.5006297" lon="10.7369687"><ele>84.5</ele><time>2026-03-28T14:25:35.709Z</time></trkpt><trkpt lat="45.5004985" lon="10.7370046"><ele>85.25</ele><time>2026-03-28T14:25:36.709Z</time></trkpt><trkpt lat="45.5003701" lon="10.7370396"><ele>86.0</ele><time>2026-03-28T14:25:37.709Z</time></trkpt><trkpt lat="45.5002398" lon="10.7370733"><ele>86.0</ele><time>2026-03-28T14:25:38.709Z</time></trkpt><trkpt lat="45.5001081" lon="10.7371064"><ele>86.0</ele><time>2026-03-28T14:25:39.709Z</time></trkpt><trkpt lat="45.4999759" lon="10.7371404"><ele>86.0</ele><time>2026-03-28T14:25:40.709Z</time></trkpt><trkpt lat="45.499845" lon="10.7371757"><ele>86.0</ele><time>2026-03-28T14:25:41.709Z</time></trkpt><trkpt lat="45.4997135" lon="10.7372135"><ele>86.0</ele><time>2026-03-28T14:25:42.71Z</time></trkpt><trkpt lat="45.4995828" lon="10.7372544"><ele>86.0</ele><time>2026-03-28T14:25:43.709Z</time></trkpt><trkpt lat="45.4994557" lon="10.7373007"><ele>86.0</ele><time>2026-03-28T14:25:44.709Z</time></trkpt><trkpt lat="45.4993305" lon="10.7373535"><ele>86.0</ele><time>2026-03-28T14:25:45.71Z</time></trkpt><trkpt lat="45.4992077" lon="10.7374164"><ele>86.0</ele><time>2026-03-28T14:25:46.709Z</time></trkpt><trkpt lat="45.4990854" lon="10.7374853"><ele>86.0</ele><time>2026-03-28T14:25:47.71Z</time></trkpt><trkpt lat="45.4989644" lon="10.7375559"><ele>86.0</ele><time>2026-03-28T14:25:48.709Z</time></trkpt><trkpt lat="45.4988421" lon="10.7376286"><ele>86.0</ele><time>2026-03-28T14:25:49.709Z</time></trkpt><trkpt lat="45.4987215" lon="10.7377024"><ele>87.0</ele><time>2026-03-28T14:25:50.71Z</time></trkpt><trkpt lat="45.4986086" lon="10.7377677"><ele>88.0</ele><time>2026-03-28T14:25:51.71Z</time></trkpt><trkpt lat="45.4985004" lon="10.7378299"><ele>89.0</ele><time>2026-03-28T14:25:52.71Z</time></trkpt><trkpt lat="45.498401" lon="10.7378876"><ele>90.0</ele><time>2026-03-28T14:25:53.709Z</time></trkpt><trkpt lat="45.498304" lon="10.7379378"><ele>91.0</ele><time>2026-03-28T14:25:54.709Z</time></trkpt><trkpt lat="45.4982086" lon="10.7379804"><ele>91.0</ele><time>2026-03-28T14:25:55.709Z</time></trkpt><trkpt lat="45.4981093" lon="10.7380208"><ele>91.0</ele><time>2026-03-28T14:25:56.71Z</time></trkpt><trkpt lat="45.4980105" lon="10.7380573"><ele>91.0</ele><time>2026-03-28T14:25:57.71Z</time></trkpt><trkpt lat="45.4979174" lon="10.7380911"><ele>91.0</ele><time>2026-03-28T14:25:58.709Z</time></trkpt><trkpt lat="45.4978312" lon="10.7381182"><ele>91.0</ele><time>2026-03-28T14:25:59.71Z</time></trkpt><trkpt lat="45.4977539" lon="10.7381411"><ele>91.8</ele><time>2026-03-28T14:26:00.709Z</time></trkpt><trkpt lat="45.497681" lon="10.7381617"><ele>92.6</ele><time>2026-03-28T14:26:01.709Z</time></trkpt><trkpt lat="45.4976184" lon="10.7381771"><ele>93.4</ele><time>2026-03-28T14:26:02.709Z</time></trkpt><trkpt lat="45.4975101" lon="10.7381988"><ele>94.2</ele><time>2026-03-28T14:26:04.71Z</time></trkpt><trkpt lat="45.4974046" lon="10.7382223"><ele>95.0</ele><time>2026-03-28T14:26:06.709Z</time></trkpt><trkpt lat="45.4972961" lon="10.7382446"><ele>95.0</ele><time>2026-03-28T14:26:08.709Z</time></trkpt><trkpt lat="45.497211" lon="10.738261"><ele>95.0</ele><time>2026-03-28T14:26:10.709Z</time></trkpt><trkpt lat="45.4971165" lon="10.7382773"><ele>95.0</ele><time>2026-03-28T14:26:12.709Z</time></trkpt><trkpt lat="45.4970245" lon="10.7382978"><ele>95.0</ele><time>2026-03-28T14:26:14.709Z</time></trkpt><trkpt lat="45.496926" lon="10.7383208"><ele>95.0</ele><time>2026-03-28T14:26:16.709Z</time></trkpt><trkpt lat="45.4968255" lon="10.7383391"><ele>94.75</ele><time>2026-03-28T14:26:18.71Z</time></trkpt><trkpt lat="45.4967201" lon="10.7383565"><ele>94.5</ele><time>2026-03-28T14:26:20.709Z</time></trkpt><trkpt lat="45.4966086" lon="10.7383808"><ele>94.25</ele><time>2026-03-28T14:26:22.71Z</time></trkpt><trkpt lat="45.4965019" lon="10.7384035"><ele>94.0</ele><time>2026-03-28T14:26:24.709Z</time></trkpt><trkpt lat="45.4963784" lon="10.7384246"><ele>94.0</ele><time>2026-03-28T14:26:26.71Z</time></trkpt><trkpt lat="45.4963103" lon="10.738439"><ele>94.0</ele><time>2026-03-28T14:26:27.71Z</time></trkpt><trkpt lat="45.4962345" lon="10.7384559"><ele>94.0</ele><time>2026-03-28T14:26:28.709Z</time></trkpt><trkpt lat="45.4961508" lon="10.7384708"><ele>94.0</ele><time>2026-03-28T14:26:29.71Z</time></trkpt><trkpt lat="45.4960611" lon="10.7384874"><ele>94.0</ele><time>2026-03-28T14:26:30.709Z</time></trkpt><trkpt lat="45.4959634" lon="10.7385062"><ele>94.0</ele><time>2026-03-28T14:26:31.71Z</time></trkpt><trkpt lat="45.4958599" lon="10.7385291"><ele>94.6</ele><time>2026-03-28T14:26:32.709Z</time></trkpt><trkpt lat="45.4957481" lon="10.7385504"><ele>95.2</ele><time>2026-03-28T14:26:33.71Z</time></trkpt><trkpt lat="45.4956298" lon="10.7385708"><ele>95.8</ele><time>2026-03-28T14:26:34.709Z</time></trkpt><trkpt lat="45.4955186" lon="10.7385894"><ele>96.39999999999999</ele><time>2026-03-28T14:26:35.71Z</time></trkpt><trkpt lat="45.4954191" lon="10.7386065"><ele>97.0</ele><time>2026-03-28T14:26:36.71Z</time></trkpt><trkpt lat="45.4953284" lon="10.7386222"><ele>98.0</ele><time>2026-03-28T14:26:37.71Z</time></trkpt><trkpt lat="45.4952509" lon="10.7386377"><ele>99.0</ele><time>2026-03-28T14:26:38.709Z</time></trkpt><trkpt lat="45.4951828" lon="10.7386469"><ele>100.0</ele><time>2026-03-28T14:26:39.709Z</time></trkpt><trkpt lat="45.4950681" lon="10.7386641"><ele>101.0</ele><time>2026-03-28T14:26:41.709Z</time></trkpt><trkpt lat="45.4949613" lon="10.7386795"><ele>102.0</ele><time>2026-03-28T14:26:43.711Z</time></trkpt><trkpt lat="45.4948363" lon="10.7386954"><ele>102.0</ele><time>2026-03-28T14:26:45.71Z</time></trkpt><trkpt lat="45.4947179" lon="10.7387018"><ele>102.0</ele><time>2026-03-28T14:26:47.709Z</time></trkpt><trkpt lat="45.4946108" lon="10.7387035"><ele>102.0</ele><time>2026-03-28T14:26:49.709Z</time></trkpt><trkpt lat="45.4944959" lon="10.7387029"><ele>102.0</ele><time>2026-03-28T14:26:51.71Z</time></trkpt><trkpt lat="45.4943872" lon="10.7386962"><ele>102.0</ele><time>2026-03-28T14:26:53.709Z</time></trkpt><trkpt lat="45.4942699" lon="10.73868"><ele>102.33333333333333</ele><time>2026-03-28T14:26:55.709Z</time></trkpt><trkpt lat="45.4941974" lon="10.7386677"><ele>102.66666666666666</ele><time>2026-03-28T14:26:56.709Z</time></trkpt><trkpt lat="45.4941228" lon="10.7386552"><ele>103.0</ele><time>2026-03-28T14:26:57.709Z</time></trkpt><trkpt lat="45.4940544" lon="10.738643"><ele>103.33333333333333</ele><time>2026-03-28T14:26:58.71Z</time></trkpt><trkpt lat="45.493991" lon="10.7386291"><ele>103.66666666666666</ele><time>2026-03-28T14:26:59.71Z</time></trkpt><trkpt lat="45.4938692" lon="10.7386002"><ele>104.0</ele><time>2026-03-28T14:27:01.709Z</time></trkpt><trkpt lat="45.4937593" lon="10.7385736"><ele>103.99999999999999</ele><time>2026-03-28T14:27:03.71Z</time></trkpt><trkpt lat="45.4936621" lon="10.7385464"><ele>104.0</ele><time>2026-03-28T14:27:05.71Z</time></trkpt><trkpt lat="45.4935552" lon="10.7385074"><ele>104.0</ele><time>2026-03-28T14:27:07.71Z</time></trkpt><trkpt lat="45.493493" lon="10.7384851"><ele>104.0</ele><time>2026-03-28T14:27:08.709Z</time></trkpt><trkpt lat="45.4934212" lon="10.738459"><ele>103.99999999999999</ele><time>2026-03-28T14:27:09.71Z</time></trkpt><trkpt lat="45.4933375" lon="10.7384258"><ele>104.0</ele><time>2026-03-28T14:27:10.709Z</time></trkpt><trkpt lat="45.493246" lon="10.738391"><ele>104.0</ele><time>2026-03-28T14:27:11.709Z</time></trkpt><trkpt lat="45.4931491" lon="10.7383533"><ele>104.0</ele><time>2026-03-28T14:27:12.71Z</time></trkpt><trkpt lat="45.4930551" lon="10.7383166"><ele>104.0</ele><time>2026-03-28T14:27:13.71Z</time></trkpt><trkpt lat="45.4929661" lon="10.7382858"><ele>104.0</ele><time>2026-03-28T14:27:14.71Z</time></trkpt><trkpt lat="45.4928686" lon="10.7382442"><ele>104.0</ele><time>2026-03-28T14:27:15.71Z</time></trkpt><trkpt lat="45.4927632" lon="10.7381982"><ele>104.5</ele><time>2026-03-28T14:27:16.709Z</time></trkpt><trkpt lat="45.4926552" lon="10.7381514"><ele>105.0</ele><time>2026-03-28T14:27:17.71Z</time></trkpt><trkpt lat="45.4925426" lon="10.738104"><ele>105.5</ele><time>2026-03-28T14:27:18.709Z</time></trkpt><trkpt lat="45.4924253" lon="10.7380596"><ele>106.0</ele><time>2026-03-28T14:27:19.71Z</time></trkpt><trkpt lat="45.4923044" lon="10.7380128"><ele>106.0</ele><time>2026-03-28T14:27:20.71Z</time></trkpt><trkpt lat="45.4921795" lon="10.7379637"><ele>106.0</ele><time>2026-03-28T14:27:21.71Z</time></trkpt><trkpt lat="45.4920493" lon="10.7379163"><ele>106.0</ele><time>2026-03-28T14:27:22.709Z</time></trkpt><trkpt lat="45.4919153" lon="10.7378684"><ele>106.0</ele><time>2026-03-28T14:27:23.709Z</time></trkpt><trkpt lat="45.491786" lon="10.7378216"><ele>105.75</ele><time>2026-03-28T14:27:24.709Z</time></trkpt><trkpt lat="45.4916608" lon="10.737777"><ele>105.5</ele><time>2026-03-28T14:27:25.71Z</time></trkpt><trkpt lat="45.4915307" lon="10.7377259"><ele>105.25</ele><time>2026-03-28T14:27:26.709Z</time></trkpt><trkpt lat="45.491397" lon="10.7376707"><ele>105.0</ele><time>2026-03-28T14:27:27.709Z</time></trkpt><trkpt lat="45.4912599" lon="10.7376167"><ele>105.0</ele><time>2026-03-28T14:27:28.709Z</time></trkpt><trkpt lat="45.4911166" lon="10.7375604"><ele>105.0</ele><time>2026-03-28T14:27:29.709Z</time></trkpt><trkpt lat="45.4909675" lon="10.7375022"><ele>105.0</ele><time>2026-03-28T14:27:30.71Z</time></trkpt><trkpt lat="45.4908272" lon="10.7374469"><ele>105.0</ele><time>2026-03-28T14:27:31.71Z</time></trkpt><trkpt lat="45.4906871" lon="10.7373909"><ele>105.0</ele><time>2026-03-28T14:27:32.709Z</time></trkpt><trkpt lat="45.4905454" lon="10.7373317"><ele>105.0</ele><time>2026-03-28T14:27:33.71Z</time></trkpt><trkpt lat="45.4904033" lon="10.7372745"><ele>105.0</ele><time>2026-03-28T14:27:34.71Z</time></trkpt><trkpt lat="45.4902584" lon="10.7372143"><ele>105.0</ele><time>2026-03-28T14:27:35.709Z</time></trkpt><trkpt lat="45.4901089" lon="10.7371572"><ele>105.33333333333334</ele><time>2026-03-28T14:27:36.709Z</time></trkpt><trkpt lat="45.4899562" lon="10.7370999"><ele>105.66666666666667</ele><time>2026-03-28T14:27:37.709Z</time></trkpt><trkpt lat="45.4897995" lon="10.7370417"><ele>106.0</ele><time>2026-03-28T14:27:38.709Z</time></trkpt><trkpt lat="45.48964" lon="10.7369782"><ele>106.0</ele><time>2026-03-28T14:27:39.709Z</time></trkpt><trkpt lat="45.4894791" lon="10.7369153"><ele>106.0</ele><time>2026-03-28T14:27:40.71Z</time></trkpt><trkpt lat="45.4893286" lon="10.7368578"><ele>106.0</ele><time>2026-03-28T14:27:41.71Z</time></trkpt><trkpt lat="45.4891881" lon="10.7368057"><ele>106.0</ele><time>2026-03-28T14:27:42.71Z</time></trkpt><trkpt lat="45.4890504" lon="10.7367521"><ele>106.0</ele><time>2026-03-28T14:27:43.709Z</time></trkpt><trkpt lat="45.4889162" lon="10.7366986"><ele>106.0</ele><time>2026-03-28T14:27:44.709Z</time></trkpt><trkpt lat="45.4887851" lon="10.7366475"><ele>106.0</ele><time>2026-03-28T14:27:45.71Z</time></trkpt><trkpt lat="45.488662" lon="10.7365978"><ele>107.0</ele><time>2026-03-28T14:27:46.709Z</time></trkpt><trkpt lat="45.4885483" lon="10.7365484"><ele>108.0</ele><time>2026-03-28T14:27:47.709Z</time></trkpt><trkpt lat="45.4884437" lon="10.736503"><ele>109.0</ele><time>2026-03-28T14:27:48.71Z</time></trkpt><trkpt lat="45.4883442" lon="10.7364591"><ele>110.0</ele><time>2026-03-28T14:27:49.709Z</time></trkpt><trkpt lat="45.4882421" lon="10.7364159"><ele>111.0</ele><time>2026-03-28T14:27:50.709Z</time></trkpt><trkpt lat="45.4881409" lon="10.7363689"><ele>111.0</ele><time>2026-03-28T14:27:51.71Z</time></trkpt><trkpt lat="45.4880362" lon="10.7363166"><ele>111.0</ele><time>2026-03-28T14:27:52.709Z</time></trkpt><trkpt lat="45.4879279" lon="10.7362574"><ele>111.0</ele><time>2026-03-28T14:27:53.709Z</time></trkpt><trkpt lat="45.4878168" lon="10.7361912"><ele>111.0</ele><time>2026-03-28T14:27:54.71Z</time></trkpt><trkpt lat="45.4877039" lon="10.7361172"><ele>111.5</ele><time>2026-03-28T14:27:55.71Z</time></trkpt><trkpt lat="45.4875951" lon="10.7360415"><ele>112.0</ele><time>2026-03-28T14:27:56.709Z</time></trkpt><trkpt lat="45.4874911" lon="10.7359645"><ele>112.5</ele><time>2026-03-28T14:27:57.71Z</time></trkpt><trkpt lat="45.4873874" lon="10.7358851"><ele>113.0</ele><time>2026-03-28T14:27:58.709Z</time></trkpt><trkpt lat="45.4872822" lon="10.7358036"><ele>113.0</ele><time>2026-03-28T14:27:59.71Z</time></trkpt><trkpt lat="45.487175" lon="10.7357157"><ele>113.0</ele><time>2026-03-28T14:28:00.71Z</time></trkpt><trkpt lat="45.4870581" lon="10.7356231"><ele>113.0</ele><time>2026-03-28T14:28:01.709Z</time></trkpt><trkpt lat="45.4869367" lon="10.7355262"><ele>113.0</ele><time>2026-03-28T14:28:02.71Z</time></trkpt><trkpt lat="45.4868156" lon="10.7354296"><ele>112.75</ele><time>2026-03-28T14:28:03.709Z</time></trkpt><trkpt lat="45.4866951" lon="10.7353377"><ele>112.5</ele><time>2026-03-28T14:28:04.709Z</time></trkpt><trkpt lat="45.4865749" lon="10.7352453"><ele>112.25</ele><time>2026-03-28T14:28:05.71Z</time></trkpt><trkpt lat="45.4864509" lon="10.735148"><ele>112.0</ele><time>2026-03-28T14:28:06.71Z</time></trkpt><trkpt lat="45.4863269" lon="10.735042"><ele>112.75</ele><time>2026-03-28T14:28:07.71Z</time></trkpt><trkpt lat="45.4862042" lon="10.7349332"><ele>113.5</ele><time>2026-03-28T14:28:08.71Z</time></trkpt><trkpt lat="45.486084" lon="10.7348171"><ele>114.25</ele><time>2026-03-28T14:28:09.71Z</time></trkpt><trkpt lat="45.4859674" lon="10.7346976"><ele>115.0</ele><time>2026-03-28T14:28:10.71Z</time></trkpt><trkpt lat="45.4858547" lon="10.7345706"><ele>115.0</ele><time>2026-03-28T14:28:11.71Z</time></trkpt><trkpt lat="45.4857442" lon="10.7344343"><ele>115.0</ele><time>2026-03-28T14:28:12.71Z</time></trkpt><trkpt lat="45.4856396" lon="10.7342905"><ele>115.0</ele><time>2026-03-28T14:28:13.71Z</time></trkpt><trkpt lat="45.4855426" lon="10.7341366"><ele>115.0</ele><time>2026-03-28T14:28:14.71Z</time></trkpt><trkpt lat="45.4854526" lon="10.733981"><ele>114.5</ele><time>2026-03-28T14:28:15.71Z</time></trkpt><trkpt lat="45.4853668" lon="10.7338183"><ele>114.0</ele><time>2026-03-28T14:28:16.71Z</time></trkpt><trkpt lat="45.4852877" lon="10.7336533"><ele>113.5</ele><time>2026-03-28T14:28:17.709Z</time></trkpt><trkpt lat="45.4852138" lon="10.7334883"><ele>113.0</ele><time>2026-03-28T14:28:18.71Z</time></trkpt><trkpt lat="45.4851441" lon="10.7333178"><ele>113.0</ele><time>2026-03-28T14:28:19.709Z</time></trkpt><trkpt lat="45.4850737" lon="10.7331482"><ele>113.0</ele><time>2026-03-28T14:28:20.71Z</time></trkpt><trkpt lat="45.4850048" lon="10.7329786"><ele>113.0</ele><time>2026-03-28T14:28:21.71Z</time></trkpt><trkpt lat="45.4849341" lon="10.732818"><ele>113.0</ele><time>2026-03-28T14:28:22.709Z</time></trkpt><trkpt lat="45.4848611" lon="10.7326625"><ele>112.75</ele><time>2026-03-28T14:28:23.71Z</time></trkpt><trkpt lat="45.4847777" lon="10.732519"><ele>112.5</ele><time>2026-03-28T14:28:24.709Z</time></trkpt><trkpt lat="45.4846883" lon="10.7323883"><ele>112.25</ele><time>2026-03-28T14:28:25.71Z</time></trkpt><trkpt lat="45.484598" lon="10.7322719"><ele>112.0</ele><time>2026-03-28T14:28:26.71Z</time></trkpt><trkpt lat="45.4845083" lon="10.7321715"><ele>112.0</ele><time>2026-03-28T14:28:27.71Z</time></trkpt><trkpt lat="45.4844196" lon="10.7320719"><ele>111.99999999999999</ele><time>2026-03-28T14:28:28.709Z</time></trkpt><trkpt lat="45.4843307" lon="10.731978"><ele>111.99999999999999</ele><time>2026-03-28T14:28:29.709Z</time></trkpt><trkpt lat="45.484246" lon="10.7318868"><ele>112.0</ele><time>2026-03-28T14:28:30.709Z</time></trkpt><trkpt lat="45.4841679" lon="10.7318018"><ele>112.0</ele><time>2026-03-28T14:28:31.71Z</time></trkpt><trkpt lat="45.4840955" lon="10.7317211"><ele>112.0</ele><time>2026-03-28T14:28:32.709Z</time></trkpt><trkpt lat="45.4840255" lon="10.7316426"><ele>111.99999999999999</ele><time>2026-03-28T14:28:33.709Z</time></trkpt><trkpt lat="45.4839536" lon="10.7315625"><ele>111.99999999999999</ele><time>2026-03-28T14:28:34.709Z</time></trkpt><trkpt lat="45.4838781" lon="10.7314771"><ele>112.0</ele><time>2026-03-28T14:28:35.709Z</time></trkpt><trkpt lat="45.4837958" lon="10.7313832"><ele>112.0</ele><time>2026-03-28T14:28:36.71Z</time></trkpt><trkpt lat="45.4837096" lon="10.7312743"><ele>112.0</ele><time>2026-03-28T14:28:37.709Z</time></trkpt><trkpt lat="45.483622" lon="10.7311499"><ele>112.0</ele><time>2026-03-28T14:28:38.709Z</time></trkpt><trkpt lat="45.4835407" lon="10.7310249"><ele>112.0</ele><time>2026-03-28T14:28:39.71Z</time></trkpt><trkpt lat="45.4834627" lon="10.7308949"><ele>112.0</ele><time>2026-03-28T14:28:40.709Z</time></trkpt><trkpt lat="45.4833834" lon="10.7307605"><ele>112.0</ele><time>2026-03-28T14:28:41.709Z</time></trkpt><trkpt lat="45.4833057" lon="10.7306236"><ele>112.0</ele><time>2026-03-28T14:28:42.709Z</time></trkpt><trkpt lat="45.4832286" lon="10.7304863"><ele>112.0</ele><time>2026-03-28T14:28:43.709Z</time></trkpt><trkpt lat="45.4831468" lon="10.7303454"><ele>112.0</ele><time>2026-03-28T14:28:44.71Z</time></trkpt><trkpt lat="45.4830617" lon="10.7302014"><ele>111.5</ele><time>2026-03-28T14:28:45.71Z</time></trkpt><trkpt lat="45.4829765" lon="10.7300546"><ele>111.0</ele><time>2026-03-28T14:28:46.71Z</time></trkpt><trkpt lat="45.4828921" lon="10.7299055"><ele>110.5</ele><time>2026-03-28T14:28:47.709Z</time></trkpt><trkpt lat="45.4828028" lon="10.7297551"><ele>110.0</ele><time>2026-03-28T14:28:48.709Z</time></trkpt><trkpt lat="45.4827157" lon="10.7296088"><ele>110.75</ele><time>2026-03-28T14:28:49.709Z</time></trkpt><trkpt lat="45.4826253" lon="10.7294708"><ele>111.5</ele><time>2026-03-28T14:28:50.709Z</time></trkpt><trkpt lat="45.4825336" lon="10.7293494"><ele>112.25</ele><time>2026-03-28T14:28:51.709Z</time></trkpt><trkpt lat="45.4824388" lon="10.7292406"><ele>113.0</ele><time>2026-03-28T14:28:52.71Z</time></trkpt><trkpt lat="45.4823348" lon="10.7291475"><ele>113.0</ele><time>2026-03-28T14:28:53.709Z</time></trkpt><trkpt lat="45.4822217" lon="10.7290699"><ele>113.0</ele><time>2026-03-28T14:28:54.71Z</time></trkpt><trkpt lat="45.4820975" lon="10.729005"><ele>113.0</ele><time>2026-03-28T14:28:55.71Z</time></trkpt><trkpt lat="45.4819601" lon="10.7289563"><ele>113.0</ele><time>2026-03-28T14:28:56.71Z</time></trkpt><trkpt lat="45.4818156" lon="10.7289158"><ele>112.66666666666666</ele><time>2026-03-28T14:28:57.709Z</time></trkpt><trkpt lat="45.4816584" lon="10.7288813"><ele>112.33333333333334</ele><time>2026-03-28T14:28:58.71Z</time></trkpt><trkpt lat="45.4814848" lon="10.7288484"><ele>112.0</ele><time>2026-03-28T14:28:59.709Z</time></trkpt><trkpt lat="45.4812972" lon="10.7288071"><ele>111.0</ele><time>2026-03-28T14:29:00.71Z</time></trkpt><trkpt lat="45.4811127" lon="10.7287601"><ele>110.0</ele><time>2026-03-28T14:29:01.709Z</time></trkpt><trkpt lat="45.4809413" lon="10.7287112"><ele>109.0</ele><time>2026-03-28T14:29:02.709Z</time></trkpt><trkpt lat="45.4807823" lon="10.7286677"><ele>109.0</ele><time>2026-03-28T14:29:03.709Z</time></trkpt><trkpt lat="45.480631" lon="10.728628"><ele>109.0</ele><time>2026-03-28T14:29:04.709Z</time></trkpt><trkpt lat="45.4804843" lon="10.7285915"><ele>109.0</ele><time>2026-03-28T14:29:05.71Z</time></trkpt><trkpt lat="45.480336" lon="10.7285542"><ele>109.33333333333334</ele><time>2026-03-28T14:29:06.709Z</time></trkpt><trkpt lat="45.4801776" lon="10.7285175"><ele>109.66666666666666</ele><time>2026-03-28T14:29:07.709Z</time></trkpt><trkpt lat="45.4800116" lon="10.7284808"><ele>110.0</ele><time>2026-03-28T14:29:08.709Z</time></trkpt><trkpt lat="45.4798357" lon="10.7284412"><ele>110.0</ele><time>2026-03-28T14:29:09.709Z</time></trkpt><trkpt lat="45.4796459" lon="10.728401"><ele>110.0</ele><time>2026-03-28T14:29:10.709Z</time></trkpt><trkpt lat="45.4794455" lon="10.728359"><ele>110.0</ele><time>2026-03-28T14:29:11.709Z</time></trkpt><trkpt lat="45.4792291" lon="10.7283132"><ele>109.0</ele><time>2026-03-28T14:29:12.71Z</time></trkpt><trkpt lat="45.4790005" lon="10.7282576"><ele>108.0</ele><time>2026-03-28T14:29:13.71Z</time></trkpt><trkpt lat="45.4787749" lon="10.7281957"><ele>108.33333333333334</ele><time>2026-03-28T14:29:14.71Z</time></trkpt><trkpt lat="45.4785654" lon="10.7281383"><ele>108.66666666666667</ele><time>2026-03-28T14:29:15.71Z</time></trkpt><trkpt lat="45.4783638" lon="10.7280846"><ele>109.0</ele><time>2026-03-28T14:29:16.708Z</time></trkpt><trkpt lat="45.4781753" lon="10.7280335"><ele>109.0</ele><time>2026-03-28T14:29:17.709Z</time></trkpt><trkpt lat="45.4779982" lon="10.7279794"><ele>109.0</ele><time>2026-03-28T14:29:18.709Z</time></trkpt><trkpt lat="45.4778323" lon="10.7279153"><ele>109.0</ele><time>2026-03-28T14:29:19.71Z</time></trkpt><trkpt lat="45.4776799" lon="10.727823"><ele>107.66666666666667</ele><time>2026-03-28T14:29:20.71Z</time></trkpt><trkpt lat="45.4775374" lon="10.7276971"><ele>106.33333333333334</ele><time>2026-03-28T14:29:21.709Z</time></trkpt><trkpt lat="45.4773979" lon="10.7275457"><ele>105.0</ele><time>2026-03-28T14:29:22.709Z</time></trkpt><trkpt lat="45.4772635" lon="10.7273821"><ele>105.0</ele><time>2026-03-28T14:29:23.71Z</time></trkpt><trkpt lat="45.4771281" lon="10.7272103"><ele>105.0</ele><time>2026-03-28T14:29:24.709Z</time></trkpt><trkpt lat="45.4769896" lon="10.7270337"><ele>105.0</ele><time>2026-03-28T14:29:25.709Z</time></trkpt><trkpt lat="45.4768488" lon="10.7268563"><ele>105.33333333333334</ele><time>2026-03-28T14:29:26.709Z</time></trkpt><trkpt lat="45.4767104" lon="10.7266804"><ele>105.66666666666667</ele><time>2026-03-28T14:29:27.709Z</time></trkpt><trkpt lat="45.4765716" lon="10.7265062"><ele>106.0</ele><time>2026-03-28T14:29:28.709Z</time></trkpt><trkpt lat="45.4764361" lon="10.7263312"><ele>106.0</ele><time>2026-03-28T14:29:29.71Z</time></trkpt><trkpt lat="45.4763014" lon="10.7261625"><ele>106.0</ele><time>2026-03-28T14:29:30.709Z</time></trkpt><trkpt lat="45.4761624" lon="10.7259986"><ele>106.0</ele><time>2026-03-28T14:29:31.709Z</time></trkpt><trkpt lat="45.4760172" lon="10.7258447"><ele>105.0</ele><time>2026-03-28T14:29:32.709Z</time></trkpt><trkpt lat="45.4758649" lon="10.725701"><ele>104.0</ele><time>2026-03-28T14:29:33.71Z</time></trkpt><trkpt lat="45.4757092" lon="10.7255633"><ele>103.0</ele><time>2026-03-28T14:29:34.71Z</time></trkpt><trkpt lat="45.4755492" lon="10.7254333"><ele>103.66666666666667</ele><time>2026-03-28T14:29:35.71Z</time></trkpt><trkpt lat="45.4753957" lon="10.7253131"><ele>104.33333333333334</ele><time>2026-03-28T14:29:36.709Z</time></trkpt><trkpt lat="45.475247" lon="10.7252031"><ele>105.0</ele><time>2026-03-28T14:29:37.71Z</time></trkpt><trkpt lat="45.4750934" lon="10.7251019"><ele>105.0</ele><time>2026-03-28T14:29:38.709Z</time></trkpt><trkpt lat="45.4749335" lon="10.7250184"><ele>105.0</ele><time>2026-03-28T14:29:39.709Z</time></trkpt><trkpt lat="45.4747657" lon="10.7249509"><ele>105.0</ele><time>2026-03-28T14:29:40.71Z</time></trkpt><trkpt lat="45.4745895" lon="10.7248932"><ele>105.33333333333334</ele><time>2026-03-28T14:29:41.709Z</time></trkpt><trkpt lat="45.4744091" lon="10.7248386"><ele>105.66666666666667</ele><time>2026-03-28T14:29:42.709Z</time></trkpt><trkpt lat="45.4742277" lon="10.7247873"><ele>106.0</ele><time>2026-03-28T14:29:43.71Z</time></trkpt><trkpt lat="45.474045" lon="10.7247383"><ele>106.0</ele><time>2026-03-28T14:29:44.71Z</time></trkpt><trkpt lat="45.4738624" lon="10.7246876"><ele>106.0</ele><time>2026-03-28T14:29:45.709Z</time></trkpt><trkpt lat="45.4736792" lon="10.7246364"><ele>106.0</ele><time>2026-03-28T14:29:46.71Z</time></trkpt><trkpt lat="45.4734944" lon="10.7245861"><ele>106.0</ele><time>2026-03-28T14:29:47.71Z</time></trkpt><trkpt lat="45.4733121" lon="10.7245347"><ele>106.0</ele><time>2026-03-28T14:29:48.71Z</time></trkpt><trkpt lat="45.4731296" lon="10.724484"><ele>106.0</ele><time>2026-03-28T14:29:49.71Z</time></trkpt><trkpt lat="45.4729484" lon="10.7244296"><ele>104.66666666666667</ele><time>2026-03-28T14:29:50.71Z</time></trkpt><trkpt lat="45.472769" lon="10.7243677"><ele>103.33333333333334</ele><time>2026-03-28T14:29:51.709Z</time></trkpt><trkpt lat="45.4725885" lon="10.7242935"><ele>102.0</ele><time>2026-03-28T14:29:52.709Z</time></trkpt><trkpt lat="45.4724101" lon="10.724212"><ele>102.0</ele><time>2026-03-28T14:29:53.71Z</time></trkpt><trkpt lat="45.4722305" lon="10.7241253"><ele>102.0</ele><time>2026-03-28T14:29:54.71Z</time></trkpt><trkpt lat="45.4720481" lon="10.7240322"><ele>102.0</ele><time>2026-03-28T14:29:55.709Z</time></trkpt><trkpt lat="45.4718687" lon="10.7239413"><ele>103.0</ele><time>2026-03-28T14:29:56.709Z</time></trkpt><trkpt lat="45.4716916" lon="10.7238515"><ele>104.0</ele><time>2026-03-28T14:29:57.709Z</time></trkpt><trkpt lat="45.4715228" lon="10.7237604"><ele>105.0</ele><time>2026-03-28T14:29:58.709Z</time></trkpt><trkpt lat="45.4713614" lon="10.7236637"><ele>105.0</ele><time>2026-03-28T14:29:59.71Z</time></trkpt><trkpt lat="45.4712047" lon="10.7235568"><ele>105.0</ele><time>2026-03-28T14:30:00.71Z</time></trkpt><trkpt lat="45.4710555" lon="10.7234301"><ele>105.0</ele><time>2026-03-28T14:30:01.709Z</time></trkpt><trkpt lat="45.4709183" lon="10.7232904"><ele>105.0</ele><time>2026-03-28T14:30:02.709Z</time></trkpt><trkpt lat="45.4707983" lon="10.7231394"><ele>105.0</ele><time>2026-03-28T14:30:03.709Z</time></trkpt><trkpt lat="45.470694" lon="10.722982"><ele>105.0</ele><time>2026-03-28T14:30:04.709Z</time></trkpt><trkpt lat="45.4706065" lon="10.7228296"><ele>104.5</ele><time>2026-03-28T14:30:05.709Z</time></trkpt><trkpt lat="45.4705341" lon="10.7226869"><ele>104.0</ele><time>2026-03-28T14:30:06.709Z</time></trkpt><trkpt lat="45.4704713" lon="10.7225509"><ele>103.5</ele><time>2026-03-28T14:30:07.709Z</time></trkpt><trkpt lat="45.4704001" lon="10.7223972"><ele>103.0</ele><time>2026-03-28T14:30:08.71Z</time></trkpt><trkpt lat="45.4703104" lon="10.7221991"><ele>102.66666666666667</ele><time>2026-03-28T14:30:09.71Z</time></trkpt><trkpt lat="45.4702059" lon="10.7219753"><ele>102.33333333333334</ele><time>2026-03-28T14:30:10.709Z</time></trkpt><trkpt lat="45.4701065" lon="10.7217756"><ele>102.0</ele><time>2026-03-28T14:30:11.71Z</time></trkpt><trkpt lat="45.4700019" lon="10.7216031"><ele>102.0</ele><time>2026-03-28T14:30:12.709Z</time></trkpt><trkpt lat="45.469891" lon="10.7214488"><ele>102.0</ele><time>2026-03-28T14:30:13.71Z</time></trkpt><trkpt lat="45.4697664" lon="10.7213171"><ele>102.0</ele><time>2026-03-28T14:30:14.71Z</time></trkpt><trkpt lat="45.4696326" lon="10.7212037"><ele>102.0</ele><time>2026-03-28T14:30:15.709Z</time></trkpt><trkpt lat="45.4694875" lon="10.7211141"><ele>102.0</ele><time>2026-03-28T14:30:16.71Z</time></trkpt><trkpt lat="45.469334" lon="10.7210488"><ele>102.0</ele><time>2026-03-28T14:30:17.709Z</time></trkpt><trkpt lat="45.4691757" lon="10.7210021"><ele>102.0</ele><time>2026-03-28T14:30:18.709Z</time></trkpt><trkpt lat="45.4690232" lon="10.7209685"><ele>102.0</ele><time>2026-03-28T14:30:19.71Z</time></trkpt><trkpt lat="45.4688816" lon="10.7209422"><ele>102.0</ele><time>2026-03-28T14:30:20.709Z</time></trkpt><trkpt lat="45.468748" lon="10.7209203"><ele>102.0</ele><time>2026-03-28T14:30:21.71Z</time></trkpt><trkpt lat="45.4686254" lon="10.7208982"><ele>102.0</ele><time>2026-03-28T14:30:22.709Z</time></trkpt><trkpt lat="45.4685174" lon="10.7208807"><ele>102.0</ele><time>2026-03-28T14:30:23.71Z</time></trkpt><trkpt lat="45.4684274" lon="10.7208658"><ele>102.0</ele><time>2026-03-28T14:30:24.71Z</time></trkpt><trkpt lat="45.4683579" lon="10.7208563"><ele>102.0</ele><time>2026-03-28T14:30:25.709Z</time></trkpt><trkpt lat="45.4682528" lon="10.7208306"><ele>102.0</ele><time>2026-03-28T14:30:27.71Z</time></trkpt><trkpt lat="45.468171" lon="10.720793"><ele>102.0</ele><time>2026-03-28T14:30:29.709Z</time></trkpt><trkpt lat="45.4681067" lon="10.7207622"><ele>102.0</ele><time>2026-03-28T14:30:31.709Z</time></trkpt><trkpt lat="45.4680494" lon="10.7207227"><ele>102.0</ele><time>2026-03-28T14:30:33.71Z</time></trkpt><trkpt lat="45.4679837" lon="10.7206989"><ele>102.0</ele><time>2026-03-28T14:30:35.71Z</time></trkpt><trkpt lat="45.4678959" lon="10.7207213"><ele>102.0</ele><time>2026-03-28T14:30:37.709Z</time></trkpt><trkpt lat="45.4678186" lon="10.7207417"><ele>102.0</ele><time>2026-03-28T14:30:39.709Z</time></trkpt><trkpt lat="45.4677481" lon="10.7207414"><ele>102.0</ele><time>2026-03-28T14:30:42.71Z</time></trkpt><trkpt lat="45.4676724" lon="10.720725"><ele>102.19999999999999</ele><time>2026-03-28T14:30:52.709Z</time></trkpt><trkpt lat="45.4675796" lon="10.7207152"><ele>102.4</ele><time>2026-03-28T14:30:54.709Z</time></trkpt><trkpt lat="45.4674738" lon="10.7207049"><ele>102.6</ele><time>2026-03-28T14:30:56.71Z</time></trkpt><trkpt lat="45.4673543" lon="10.7206949"><ele>102.80000000000001</ele><time>2026-03-28T14:30:58.71Z</time></trkpt><trkpt lat="45.4672343" lon="10.7207006"><ele>103.0</ele><time>2026-03-28T14:31:00.709Z</time></trkpt><trkpt lat="45.4671206" lon="10.7206947"><ele>103.4</ele><time>2026-03-28T14:31:02.709Z</time></trkpt><trkpt lat="45.4669965" lon="10.7206852"><ele>103.80000000000001</ele><time>2026-03-28T14:31:04.71Z</time></trkpt><trkpt lat="45.4669253" lon="10.7206758"><ele>104.2</ele><time>2026-03-28T14:31:05.709Z</time></trkpt><trkpt lat="45.466844" lon="10.7206585"><ele>104.6</ele><time>2026-03-28T14:31:06.709Z</time></trkpt><trkpt lat="45.4667544" lon="10.720643"><ele>105.0</ele><time>2026-03-28T14:31:07.71Z</time></trkpt><trkpt lat="45.4666728" lon="10.7206291"><ele>105.0</ele><time>2026-03-28T14:31:08.709Z</time></trkpt><trkpt lat="45.4665925" lon="10.7206275"><ele>105.0</ele><time>2026-03-28T14:31:09.71Z</time></trkpt><trkpt lat="45.4665108" lon="10.7206118"><ele>105.0</ele><time>2026-03-28T14:31:10.71Z</time></trkpt><trkpt lat="45.4664239" lon="10.7205856"><ele>105.0</ele><time>2026-03-28T14:31:11.709Z</time></trkpt><trkpt lat="45.4663368" lon="10.7205593"><ele>105.0</ele><time>2026-03-28T14:31:12.71Z</time></trkpt><trkpt lat="45.466262" lon="10.720535"><ele>105.0</ele><time>2026-03-28T14:31:13.71Z</time></trkpt><trkpt lat="45.4661779" lon="10.7205055"><ele>104.8</ele><time>2026-03-28T14:31:14.71Z</time></trkpt><trkpt lat="45.4660939" lon="10.7204726"><ele>104.6</ele><time>2026-03-28T14:31:15.709Z</time></trkpt><trkpt lat="45.4660026" lon="10.7204406"><ele>104.4</ele><time>2026-03-28T14:31:16.709Z</time></trkpt><trkpt lat="45.4659058" lon="10.7204078"><ele>104.2</ele><time>2026-03-28T14:31:17.71Z</time></trkpt><trkpt lat="45.4658097" lon="10.7203764"><ele>104.0</ele><time>2026-03-28T14:31:18.709Z</time></trkpt><trkpt lat="45.4657178" lon="10.7203452"><ele>103.99999999999999</ele><time>2026-03-28T14:31:19.71Z</time></trkpt><trkpt lat="45.4656306" lon="10.720318"><ele>104.0</ele><time>2026-03-28T14:31:20.709Z</time></trkpt><trkpt lat="45.4655442" lon="10.7202925"><ele>104.0</ele><time>2026-03-28T14:31:21.71Z</time></trkpt><trkpt lat="45.4654612" lon="10.720271"><ele>104.0</ele><time>2026-03-28T14:31:22.709Z</time></trkpt><trkpt lat="45.4653763" lon="10.7202495"><ele>103.99999999999999</ele><time>2026-03-28T14:31:23.709Z</time></trkpt><trkpt lat="45.4652913" lon="10.7202304"><ele>104.0</ele><time>2026-03-28T14:31:24.709Z</time></trkpt><trkpt lat="45.4652061" lon="10.7202087"><ele>104.2</ele><time>2026-03-28T14:31:25.709Z</time></trkpt><trkpt lat="45.4651205" lon="10.7201885"><ele>104.4</ele><time>2026-03-28T14:31:26.71Z</time></trkpt><trkpt lat="45.4650308" lon="10.7201666"><ele>104.6</ele><time>2026-03-28T14:31:27.709Z</time></trkpt><trkpt lat="45.4649377" lon="10.7201464"><ele>104.8</ele><time>2026-03-28T14:31:28.709Z</time></trkpt><trkpt lat="45.4648482" lon="10.7201298"><ele>105.0</ele><time>2026-03-28T14:31:29.709Z</time></trkpt><trkpt lat="45.4647555" lon="10.7201127"><ele>105.0</ele><time>2026-03-28T14:31:30.71Z</time></trkpt><trkpt lat="45.4646611" lon="10.7200955"><ele>105.0</ele><time>2026-03-28T14:31:31.709Z</time></trkpt><trkpt lat="45.4645703" lon="10.720078"><ele>105.0</ele><time>2026-03-28T14:31:32.71Z</time></trkpt><trkpt lat="45.464484" lon="10.7200646"><ele>105.0</ele><time>2026-03-28T14:31:33.71Z</time></trkpt><trkpt lat="45.4643985" lon="10.7200536"><ele>105.0</ele><time>2026-03-28T14:31:34.71Z</time></trkpt><trkpt lat="45.4643105" lon="10.7200383"><ele>105.0</ele><time>2026-03-28T14:31:35.71Z</time></trkpt><trkpt lat="45.4642223" lon="10.7200208"><ele>104.6</ele><time>2026-03-28T14:31:36.71Z</time></trkpt><trkpt lat="45.4641316" lon="10.7199954"><ele>104.2</ele><time>2026-03-28T14:31:37.71Z</time></trkpt><trkpt lat="45.4640379" lon="10.7199711"><ele>103.80000000000001</ele><time>2026-03-28T14:31:38.71Z</time></trkpt><trkpt lat="45.4639398" lon="10.7199381"><ele>103.4</ele><time>2026-03-28T14:31:39.709Z</time></trkpt><trkpt lat="45.4638411" lon="10.7199014"><ele>103.0</ele><time>2026-03-28T14:31:40.71Z</time></trkpt><trkpt lat="45.46374" lon="10.7198522"><ele>102.2</ele><time>2026-03-28T14:31:41.71Z</time></trkpt><trkpt lat="45.4636373" lon="10.7197924"><ele>101.4</ele><time>2026-03-28T14:31:42.71Z</time></trkpt><trkpt lat="45.4635411" lon="10.7197252"><ele>100.60000000000001</ele><time>2026-03-28T14:31:43.709Z</time></trkpt><trkpt lat="45.4634506" lon="10.7196549"><ele>99.80000000000001</ele><time>2026-03-28T14:31:44.71Z</time></trkpt><trkpt lat="45.4633628" lon="10.7195823"><ele>99.0</ele><time>2026-03-28T14:31:45.709Z</time></trkpt><trkpt lat="45.4632839" lon="10.7195101"><ele>99.0</ele><time>2026-03-28T14:31:46.71Z</time></trkpt><trkpt lat="45.4632104" lon="10.7194336"><ele>99.0</ele><time>2026-03-28T14:31:47.71Z</time></trkpt><trkpt lat="45.4631411" lon="10.7193519"><ele>99.0</ele><time>2026-03-28T14:31:48.709Z</time></trkpt><trkpt lat="45.4630734" lon="10.7192662"><ele>99.0</ele><time>2026-03-28T14:31:49.71Z</time></trkpt><trkpt lat="45.4630064" lon="10.7191763"><ele>99.0</ele><time>2026-03-28T14:31:50.709Z</time></trkpt><trkpt lat="45.4629447" lon="10.7190765"><ele>98.33333333333333</ele><time>2026-03-28T14:31:51.71Z</time></trkpt><trkpt lat="45.462888" lon="10.7189747"><ele>97.66666666666667</ele><time>2026-03-28T14:31:52.709Z</time></trkpt><trkpt lat="45.4628386" lon="10.7188731"><ele>97.0</ele><time>2026-03-28T14:31:53.709Z</time></trkpt><trkpt lat="45.4627926" lon="10.7187739"><ele>96.33333333333334</ele><time>2026-03-28T14:31:54.71Z</time></trkpt><trkpt lat="45.4627475" lon="10.7186758"><ele>95.66666666666667</ele><time>2026-03-28T14:31:55.709Z</time></trkpt><trkpt lat="45.4627056" lon="10.7185754"><ele>95.0</ele><time>2026-03-28T14:31:56.71Z</time></trkpt><trkpt lat="45.4626636" lon="10.718467"><ele>95.0</ele><time>2026-03-28T14:31:57.709Z</time></trkpt><trkpt lat="45.4626174" lon="10.7183513"><ele>95.0</ele><time>2026-03-28T14:31:58.709Z</time></trkpt><trkpt lat="45.4625523" lon="10.7182493"><ele>95.0</ele><time>2026-03-28T14:31:59.709Z</time></trkpt><trkpt lat="45.4624692" lon="10.7181579"><ele>95.0</ele><time>2026-03-28T14:32:00.71Z</time></trkpt><trkpt lat="45.4623748" lon="10.7180795"><ele>95.0</ele><time>2026-03-28T14:32:01.71Z</time></trkpt><trkpt lat="45.4622881" lon="10.7180036"><ele>95.0</ele><time>2026-03-28T14:32:02.709Z</time></trkpt><trkpt lat="45.4622069" lon="10.7179314"><ele>95.0</ele><time>2026-03-28T14:32:03.71Z</time></trkpt><trkpt lat="45.4621292" lon="10.7178671"><ele>95.0</ele><time>2026-03-28T14:32:04.709Z</time></trkpt><trkpt lat="45.4620483" lon="10.7178092"><ele>95.0</ele><time>2026-03-28T14:32:05.71Z</time></trkpt><trkpt lat="45.4619672" lon="10.7177619"><ele>95.0</ele><time>2026-03-28T14:32:06.709Z</time></trkpt><trkpt lat="45.4618833" lon="10.7177227"><ele>94.66666666666667</ele><time>2026-03-28T14:32:07.71Z</time></trkpt><trkpt lat="45.461801" lon="10.7176892"><ele>94.33333333333334</ele><time>2026-03-28T14:32:08.709Z</time></trkpt><trkpt lat="45.4617183" lon="10.7176571"><ele>94.0</ele><time>2026-03-28T14:32:09.709Z</time></trkpt><trkpt lat="45.4616325" lon="10.7176246"><ele>93.66666666666667</ele><time>2026-03-28T14:32:10.71Z</time></trkpt><trkpt lat="45.4615433" lon="10.7175927"><ele>93.33333333333333</ele><time>2026-03-28T14:32:11.71Z</time></trkpt><trkpt lat="45.4614538" lon="10.7175592"><ele>93.0</ele><time>2026-03-28T14:32:12.709Z</time></trkpt><trkpt lat="45.4613647" lon="10.7175261"><ele>93.33333333333333</ele><time>2026-03-28T14:32:13.709Z</time></trkpt><trkpt lat="45.4612787" lon="10.7174949"><ele>93.66666666666667</ele><time>2026-03-28T14:32:14.71Z</time></trkpt><trkpt lat="45.4611944" lon="10.7174657"><ele>94.0</ele><time>2026-03-28T14:32:15.709Z</time></trkpt><trkpt lat="45.4611121" lon="10.7174366"><ele>94.33333333333334</ele><time>2026-03-28T14:32:16.709Z</time></trkpt><trkpt lat="45.4610304" lon="10.7174075"><ele>94.66666666666667</ele><time>2026-03-28T14:32:17.71Z</time></trkpt><trkpt lat="45.460944" lon="10.7173755"><ele>95.0</ele><time>2026-03-28T14:32:18.709Z</time></trkpt><trkpt lat="45.4608432" lon="10.7173391"><ele>95.0</ele><time>2026-03-28T14:32:19.709Z</time></trkpt><trkpt lat="45.4607404" lon="10.7173027"><ele>95.0</ele><time>2026-03-28T14:32:20.71Z</time></trkpt><trkpt lat="45.4606419" lon="10.7172641"><ele>95.0</ele><time>2026-03-28T14:32:21.71Z</time></trkpt><trkpt lat="45.4605439" lon="10.7172278"><ele>95.0</ele><time>2026-03-28T14:32:22.709Z</time></trkpt><trkpt lat="45.4604464" lon="10.717192"><ele>95.0</ele><time>2026-03-28T14:32:23.71Z</time></trkpt><trkpt lat="45.4603453" lon="10.7171553"><ele>94.5</ele><time>2026-03-28T14:32:24.71Z</time></trkpt><trkpt lat="45.4602381" lon="10.7171171"><ele>94.0</ele><time>2026-03-28T14:32:25.71Z</time></trkpt><trkpt lat="45.4601276" lon="10.7170751"><ele>93.5</ele><time>2026-03-28T14:32:26.709Z</time></trkpt><trkpt lat="45.4600117" lon="10.7170315"><ele>93.0</ele><time>2026-03-28T14:32:27.71Z</time></trkpt><trkpt lat="45.4599025" lon="10.7169883"><ele>93.0</ele><time>2026-03-28T14:32:28.709Z</time></trkpt><trkpt lat="45.4597971" lon="10.7169445"><ele>93.0</ele><time>2026-03-28T14:32:29.71Z</time></trkpt><trkpt lat="45.4596912" lon="10.716902"><ele>93.0</ele><time>2026-03-28T14:32:30.71Z</time></trkpt><trkpt lat="45.4595874" lon="10.7168579"><ele>93.0</ele><time>2026-03-28T14:32:31.709Z</time></trkpt><trkpt lat="45.4594806" lon="10.7168172"><ele>93.0</ele><time>2026-03-28T14:32:32.709Z</time></trkpt><trkpt lat="45.459358" lon="10.7167764"><ele>93.0</ele><time>2026-03-28T14:32:33.709Z</time></trkpt><trkpt lat="45.4592171" lon="10.7167298"><ele>93.0</ele><time>2026-03-28T14:32:34.71Z</time></trkpt><trkpt lat="45.459062" lon="10.7166743"><ele>93.0</ele><time>2026-03-28T14:32:35.71Z</time></trkpt><trkpt lat="45.4589017" lon="10.7166199"><ele>92.75</ele><time>2026-03-28T14:32:36.709Z</time></trkpt><trkpt lat="45.4587494" lon="10.7165703"><ele>92.5</ele><time>2026-03-28T14:32:37.709Z</time></trkpt><trkpt lat="45.4586047" lon="10.7165258"><ele>92.25</ele><time>2026-03-28T14:32:38.71Z</time></trkpt><trkpt lat="45.4584672" lon="10.7164848"><ele>92.0</ele><time>2026-03-28T14:32:39.709Z</time></trkpt><trkpt lat="45.4583346" lon="10.7164472"><ele>92.0</ele><time>2026-03-28T14:32:40.71Z</time></trkpt><trkpt lat="45.4582071" lon="10.716414"><ele>92.0</ele><time>2026-03-28T14:32:41.71Z</time></trkpt><trkpt lat="45.4580794" lon="10.716376"><ele>92.0</ele><time>2026-03-28T14:32:42.709Z</time></trkpt><trkpt lat="45.4579504" lon="10.7163374"><ele>92.0</ele><time>2026-03-28T14:32:43.709Z</time></trkpt><trkpt lat="45.457814" lon="10.7162942"><ele>90.75</ele><time>2026-03-28T14:32:44.709Z</time></trkpt><trkpt lat="45.4576753" lon="10.7162503"><ele>89.5</ele><time>2026-03-28T14:32:45.71Z</time></trkpt><trkpt lat="45.4575401" lon="10.7162086"><ele>88.25</ele><time>2026-03-28T14:32:46.709Z</time></trkpt><trkpt lat="45.45741" lon="10.7161688"><ele>87.0</ele><time>2026-03-28T14:32:47.71Z</time></trkpt><trkpt lat="45.4572824" lon="10.7161296"><ele>87.0</ele><time>2026-03-28T14:32:48.71Z</time></trkpt><trkpt lat="45.4571544" lon="10.7160913"><ele>87.0</ele><time>2026-03-28T14:32:49.709Z</time></trkpt><trkpt lat="45.4570201" lon="10.7160478"><ele>87.0</ele><time>2026-03-28T14:32:50.709Z</time></trkpt><trkpt lat="45.4568802" lon="10.7160031"><ele>87.0</ele><time>2026-03-28T14:32:51.709Z</time></trkpt><trkpt lat="45.4567435" lon="10.7159642"><ele>86.5</ele><time>2026-03-28T14:32:52.71Z</time></trkpt><trkpt lat="45.4566017" lon="10.7159208"><ele>86.0</ele><time>2026-03-28T14:32:53.71Z</time></trkpt><trkpt lat="45.456457" lon="10.7158782"><ele>85.5</ele><time>2026-03-28T14:32:54.71Z</time></trkpt><trkpt lat="45.4563065" lon="10.7158319"><ele>85.0</ele><time>2026-03-28T14:32:55.71Z</time></trkpt><trkpt lat="45.4561461" lon="10.7157824"><ele>84.0</ele><time>2026-03-28T14:32:56.71Z</time></trkpt><trkpt lat="45.4559745" lon="10.7157179"><ele>83.0</ele><time>2026-03-28T14:32:57.71Z</time></trkpt><trkpt lat="45.4557901" lon="10.715642"><ele>82.0</ele><time>2026-03-28T14:32:58.709Z</time></trkpt><trkpt lat="45.4556022" lon="10.7155598"><ele>83.0</ele><time>2026-03-28T14:32:59.709Z</time></trkpt><trkpt lat="45.4554274" lon="10.715484"><ele>84.0</ele><time>2026-03-28T14:33:00.71Z</time></trkpt><trkpt lat="45.4552625" lon="10.715418"><ele>85.0</ele><time>2026-03-28T14:33:01.711Z</time></trkpt><trkpt lat="45.4551025" lon="10.7153553"><ele>85.0</ele><time>2026-03-28T14:33:02.71Z</time></trkpt><trkpt lat="45.4549465" lon="10.7152955"><ele>85.0</ele><time>2026-03-28T14:33:03.711Z</time></trkpt><trkpt lat="45.4547944" lon="10.7152382"><ele>85.0</ele><time>2026-03-28T14:33:04.71Z</time></trkpt><trkpt lat="45.4546465" lon="10.7151807"><ele>86.0</ele><time>2026-03-28T14:33:05.711Z</time></trkpt><trkpt lat="45.4545031" lon="10.7151245"><ele>87.0</ele><time>2026-03-28T14:33:06.71Z</time></trkpt><trkpt lat="45.4543645" lon="10.7150663"><ele>88.0</ele><time>2026-03-28T14:33:07.711Z</time></trkpt><trkpt lat="45.4542356" lon="10.7150129"><ele>89.0</ele><time>2026-03-28T14:33:08.71Z</time></trkpt><trkpt lat="45.4541163" lon="10.7149574"><ele>89.0</ele><time>2026-03-28T14:33:09.71Z</time></trkpt><trkpt lat="45.4540069" lon="10.7149094"><ele>89.0</ele><time>2026-03-28T14:33:10.711Z</time></trkpt><trkpt lat="45.4539212" lon="10.7148719"><ele>89.0</ele><time>2026-03-28T14:33:11.71Z</time></trkpt><trkpt lat="45.4538416" lon="10.7148377"><ele>89.0</ele><time>2026-03-28T14:33:12.711Z</time></trkpt><trkpt lat="45.4537599" lon="10.7148003"><ele>89.0</ele><time>2026-03-28T14:33:13.711Z</time></trkpt><trkpt lat="45.453669" lon="10.7147653"><ele>89.5</ele><time>2026-03-28T14:33:14.71Z</time></trkpt><trkpt lat="45.4535672" lon="10.7147286"><ele>90.0</ele><time>2026-03-28T14:33:15.71Z</time></trkpt><trkpt lat="45.4534507" lon="10.7146893"><ele>90.5</ele><time>2026-03-28T14:33:16.711Z</time></trkpt><trkpt lat="45.4533252" lon="10.7146481"><ele>91.0</ele><time>2026-03-28T14:33:17.711Z</time></trkpt><trkpt lat="45.4531956" lon="10.714608"><ele>91.0</ele><time>2026-03-28T14:33:18.711Z</time></trkpt><trkpt lat="45.4530615" lon="10.7145659"><ele>91.0</ele><time>2026-03-28T14:33:19.711Z</time></trkpt><trkpt lat="45.4529237" lon="10.7145191"><ele>91.0</ele><time>2026-03-28T14:33:20.711Z</time></trkpt><trkpt lat="45.4527849" lon="10.7144685"><ele>91.0</ele><time>2026-03-28T14:33:21.71Z</time></trkpt><trkpt lat="45.452647" lon="10.7144129"><ele>91.0</ele><time>2026-03-28T14:33:22.711Z</time></trkpt><trkpt lat="45.4525147" lon="10.7143457"><ele>91.0</ele><time>2026-03-28T14:33:23.71Z</time></trkpt><trkpt lat="45.4523875" lon="10.7142729"><ele>91.0</ele><time>2026-03-28T14:33:24.711Z</time></trkpt><trkpt lat="45.4522642" lon="10.7141845"><ele>91.0</ele><time>2026-03-28T14:33:25.71Z</time></trkpt><trkpt lat="45.4521392" lon="10.7140904"><ele>91.0</ele><time>2026-03-28T14:33:26.711Z</time></trkpt><trkpt lat="45.4520226" lon="10.7139977"><ele>91.0</ele><time>2026-03-28T14:33:27.71Z</time></trkpt><trkpt lat="45.4519155" lon="10.7139064"><ele>91.0</ele><time>2026-03-28T14:33:28.71Z</time></trkpt><trkpt lat="45.4518136" lon="10.7138227"><ele>91.0</ele><time>2026-03-28T14:33:29.711Z</time></trkpt><trkpt lat="45.4517209" lon="10.7137444"><ele>91.0</ele><time>2026-03-28T14:33:30.711Z</time></trkpt><trkpt lat="45.4516373" lon="10.713673"><ele>91.0</ele><time>2026-03-28T14:33:31.71Z</time></trkpt><trkpt lat="45.4515591" lon="10.7136071"><ele>91.0</ele><time>2026-03-28T14:33:32.71Z</time></trkpt><trkpt lat="45.4514833" lon="10.7135482"><ele>91.0</ele><time>2026-03-28T14:33:33.711Z</time></trkpt><trkpt lat="45.4514183" lon="10.7134935"><ele>91.0</ele><time>2026-03-28T14:33:34.71Z</time></trkpt><trkpt lat="45.4513577" lon="10.7134358"><ele>91.0</ele><time>2026-03-28T14:33:35.711Z</time></trkpt><trkpt lat="45.4513038" lon="10.7133821"><ele>90.19999999999999</ele><time>2026-03-28T14:33:36.711Z</time></trkpt><trkpt lat="45.4512198" lon="10.7132762"><ele>89.39999999999999</ele><time>2026-03-28T14:33:38.71Z</time></trkpt><trkpt lat="45.4511512" lon="10.7131164"><ele>88.6</ele><time>2026-03-28T14:33:40.71Z</time></trkpt><trkpt lat="45.4511187" lon="10.7130233"><ele>87.8</ele><time>2026-03-28T14:33:41.71Z</time></trkpt><trkpt lat="45.4510778" lon="10.7129406"><ele>87.0</ele><time>2026-03-28T14:33:42.71Z</time></trkpt><trkpt lat="45.4510275" lon="10.7128795"><ele>87.0</ele><time>2026-03-28T14:33:43.71Z</time></trkpt><trkpt lat="45.450967" lon="10.7128394"><ele>87.0</ele><time>2026-03-28T14:33:44.711Z</time></trkpt><trkpt lat="45.4508987" lon="10.7128245"><ele>87.0</ele><time>2026-03-28T14:33:45.711Z</time></trkpt><trkpt lat="45.4508252" lon="10.7128275"><ele>87.0</ele><time>2026-03-28T14:33:46.711Z</time></trkpt><trkpt lat="45.4507538" lon="10.7128351"><ele>87.0</ele><time>2026-03-28T14:33:47.71Z</time></trkpt><trkpt lat="45.4506849" lon="10.712832"><ele>87.0</ele><time>2026-03-28T14:33:48.71Z</time></trkpt><trkpt lat="45.4506142" lon="10.7128165"><ele>87.0</ele><time>2026-03-28T14:33:49.71Z</time></trkpt><trkpt lat="45.4505443" lon="10.7127819"><ele>87.0</ele><time>2026-03-28T14:33:50.71Z</time></trkpt><trkpt lat="45.4504736" lon="10.7127392"><ele>87.0</ele><time>2026-03-28T14:33:51.711Z</time></trkpt><trkpt lat="45.4504" lon="10.7126899"><ele>87.0</ele><time>2026-03-28T14:33:52.711Z</time></trkpt><trkpt lat="45.450325" lon="10.7126396"><ele>87.0</ele><time>2026-03-28T14:33:53.71Z</time></trkpt><trkpt lat="45.4502481" lon="10.7125886"><ele>87.0</ele><time>2026-03-28T14:33:54.711Z</time></trkpt><trkpt lat="45.4501669" lon="10.7125334"><ele>87.0</ele><time>2026-03-28T14:33:55.71Z</time></trkpt><trkpt lat="45.450079" lon="10.7124768"><ele>87.0</ele><time>2026-03-28T14:33:56.71Z</time></trkpt><trkpt lat="45.4499856" lon="10.7124124"><ele>87.0</ele><time>2026-03-28T14:33:57.711Z</time></trkpt><trkpt lat="45.4498878" lon="10.7123462"><ele>87.0</ele><time>2026-03-28T14:33:58.71Z</time></trkpt><trkpt lat="45.4497824" lon="10.7122769"><ele>87.0</ele><time>2026-03-28T14:33:59.71Z</time></trkpt><trkpt lat="45.4496751" lon="10.7122057"><ele>87.0</ele><time>2026-03-28T14:34:00.71Z</time></trkpt><trkpt lat="45.4495688" lon="10.7121346"><ele>87.0</ele><time>2026-03-28T14:34:01.71Z</time></trkpt><trkpt lat="45.4494624" lon="10.7120603"><ele>87.0</ele><time>2026-03-28T14:34:02.711Z</time></trkpt><trkpt lat="45.4493536" lon="10.7119846"><ele>87.0</ele><time>2026-03-28T14:34:03.71Z</time></trkpt><trkpt lat="45.4492382" lon="10.7119097"><ele>87.0</ele><time>2026-03-28T14:34:04.711Z</time></trkpt><trkpt lat="45.4491198" lon="10.7118271"><ele>87.0</ele><time>2026-03-28T14:34:05.71Z</time></trkpt><trkpt lat="45.4489968" lon="10.7117428"><ele>87.0</ele><time>2026-03-28T14:34:06.711Z</time></trkpt><trkpt lat="45.4488661" lon="10.7116531"><ele>87.0</ele><time>2026-03-28T14:34:07.71Z</time></trkpt><trkpt lat="45.4487408" lon="10.7115662"><ele>87.0</ele><time>2026-03-28T14:34:08.711Z</time></trkpt><trkpt lat="45.4486259" lon="10.711486"><ele>88.0</ele><time>2026-03-28T14:34:09.711Z</time></trkpt><trkpt lat="45.4485132" lon="10.711409"><ele>89.0</ele><time>2026-03-28T14:34:10.71Z</time></trkpt><trkpt lat="45.448402" lon="10.7113332"><ele>90.0</ele><time>2026-03-28T14:34:11.71Z</time></trkpt><trkpt lat="45.448297" lon="10.7112629"><ele>91.0</ele><time>2026-03-28T14:34:12.71Z</time></trkpt><trkpt lat="45.4481967" lon="10.711196"><ele>91.0</ele><time>2026-03-28T14:34:13.711Z</time></trkpt><trkpt lat="45.4480979" lon="10.7111325"><ele>91.0</ele><time>2026-03-28T14:34:14.71Z</time></trkpt><trkpt lat="45.4479993" lon="10.7110653"><ele>91.0</ele><time>2026-03-28T14:34:15.711Z</time></trkpt><trkpt lat="45.4478993" lon="10.7109993"><ele>91.0</ele><time>2026-03-28T14:34:16.711Z</time></trkpt><trkpt lat="45.4477978" lon="10.7109283"><ele>91.0</ele><time>2026-03-28T14:34:17.71Z</time></trkpt><trkpt lat="45.4476921" lon="10.7108589"><ele>90.0</ele><time>2026-03-28T14:34:18.711Z</time></trkpt><trkpt lat="45.4475831" lon="10.7107899"><ele>89.0</ele><time>2026-03-28T14:34:19.71Z</time></trkpt><trkpt lat="45.4474709" lon="10.7107154"><ele>88.0</ele><time>2026-03-28T14:34:20.71Z</time></trkpt><trkpt lat="45.4473609" lon="10.7106399"><ele>87.0</ele><time>2026-03-28T14:34:21.711Z</time></trkpt><trkpt lat="45.4472592" lon="10.7105696"><ele>87.0</ele><time>2026-03-28T14:34:22.711Z</time></trkpt><trkpt lat="45.4471551" lon="10.7104964"><ele>87.0</ele><time>2026-03-28T14:34:23.71Z</time></trkpt><trkpt lat="45.4470497" lon="10.7104225"><ele>87.0</ele><time>2026-03-28T14:34:24.71Z</time></trkpt><trkpt lat="45.4469462" lon="10.7103443"><ele>87.0</ele><time>2026-03-28T14:34:25.71Z</time></trkpt><trkpt lat="45.4468469" lon="10.7102635"><ele>87.0</ele><time>2026-03-28T14:34:26.71Z</time></trkpt><trkpt lat="45.4467481" lon="10.7101742"><ele>87.0</ele><time>2026-03-28T14:34:27.71Z</time></trkpt><trkpt lat="45.4466528" lon="10.7100763"><ele>87.0</ele><time>2026-03-28T14:34:28.711Z</time></trkpt><trkpt lat="45.4465624" lon="10.7099701"><ele>87.0</ele><time>2026-03-28T14:34:29.709Z</time></trkpt><trkpt lat="45.4464769" lon="10.7098567"><ele>87.0</ele><time>2026-03-28T14:34:30.71Z</time></trkpt><trkpt lat="45.4463955" lon="10.7097355"><ele>87.0</ele><time>2026-03-28T14:34:31.71Z</time></trkpt><trkpt lat="45.4463203" lon="10.7096082"><ele>87.0</ele><time>2026-03-28T14:34:32.711Z</time></trkpt><trkpt lat="45.4462514" lon="10.7094847"><ele>87.0</ele><time>2026-03-28T14:34:33.71Z</time></trkpt><trkpt lat="45.4461891" lon="10.7093631"><ele>87.0</ele><time>2026-03-28T14:34:34.711Z</time></trkpt><trkpt lat="45.4461304" lon="10.7092464"><ele>87.0</ele><time>2026-03-28T14:34:35.71Z</time></trkpt><trkpt lat="45.4460762" lon="10.7091354"><ele>87.0</ele><time>2026-03-28T14:34:36.71Z</time></trkpt><trkpt lat="45.4460241" lon="10.7090332"><ele>87.0</ele><time>2026-03-28T14:34:37.711Z</time></trkpt><trkpt lat="45.4459781" lon="10.7089366"><ele>87.0</ele><time>2026-03-28T14:34:38.71Z</time></trkpt><trkpt lat="45.4459382" lon="10.7088492"><ele>87.0</ele><time>2026-03-28T14:34:39.71Z</time></trkpt><trkpt lat="45.4459098" lon="10.7087607"><ele>87.0</ele><time>2026-03-28T14:34:40.71Z</time></trkpt><trkpt lat="45.4458911" lon="10.7086683"><ele>87.0</ele><time>2026-03-28T14:34:41.71Z</time></trkpt><trkpt lat="45.4458821" lon="10.7085672"><ele>87.0</ele><time>2026-03-28T14:34:42.71Z</time></trkpt><trkpt lat="45.445879" lon="10.7084568"><ele>87.0</ele><time>2026-03-28T14:34:43.711Z</time></trkpt><trkpt lat="45.4458704" lon="10.7083514"><ele>87.0</ele><time>2026-03-28T14:34:44.71Z</time></trkpt><trkpt lat="45.4458395" lon="10.7082547"><ele>87.0</ele><time>2026-03-28T14:34:45.71Z</time></trkpt><trkpt lat="45.4457885" lon="10.7081692"><ele>87.0</ele><time>2026-03-28T14:34:46.71Z</time></trkpt><trkpt lat="45.4457199" lon="10.708102"><ele>86.6</ele><time>2026-03-28T14:34:47.709Z</time></trkpt><trkpt lat="45.4456388" lon="10.708035"><ele>86.19999999999999</ele><time>2026-03-28T14:34:48.71Z</time></trkpt><trkpt lat="45.4455521" lon="10.7079444"><ele>85.8</ele><time>2026-03-28T14:34:49.711Z</time></trkpt><trkpt lat="45.445469" lon="10.7078282"><ele>85.4</ele><time>2026-03-28T14:34:50.711Z</time></trkpt><trkpt lat="45.4453988" lon="10.7077105"><ele>85.0</ele><time>2026-03-28T14:34:51.71Z</time></trkpt><trkpt lat="45.4453335" lon="10.707593"><ele>85.0</ele><time>2026-03-28T14:34:52.711Z</time></trkpt><trkpt lat="45.4452696" lon="10.7074826"><ele>85.0</ele><time>2026-03-28T14:34:53.71Z</time></trkpt><trkpt lat="45.445201" lon="10.7073721"><ele>85.0</ele><time>2026-03-28T14:34:54.711Z</time></trkpt><trkpt lat="45.4451261" lon="10.7072636"><ele>85.0</ele><time>2026-03-28T14:34:55.71Z</time></trkpt><trkpt lat="45.4450491" lon="10.7071608"><ele>85.0</ele><time>2026-03-28T14:34:56.711Z</time></trkpt><trkpt lat="45.4449695" lon="10.7070614"><ele>85.0</ele><time>2026-03-28T14:34:57.71Z</time></trkpt><trkpt lat="45.4448856" lon="10.7069582"><ele>85.0</ele><time>2026-03-28T14:34:58.711Z</time></trkpt><trkpt lat="45.444794" lon="10.7068561"><ele>85.0</ele><time>2026-03-28T14:34:59.71Z</time></trkpt><trkpt lat="45.4447059" lon="10.7067592"><ele>85.0</ele><time>2026-03-28T14:35:00.711Z</time></trkpt><trkpt lat="45.4446196" lon="10.7066654"><ele>85.0</ele><time>2026-03-28T14:35:01.71Z</time></trkpt><trkpt lat="45.4445316" lon="10.7065723"><ele>84.8</ele><time>2026-03-28T14:35:02.71Z</time></trkpt><trkpt lat="45.4444433" lon="10.7064753"><ele>84.6</ele><time>2026-03-28T14:35:03.711Z</time></trkpt><trkpt lat="45.4443533" lon="10.706374"><ele>84.4</ele><time>2026-03-28T14:35:04.711Z</time></trkpt><trkpt lat="45.4442657" lon="10.706278"><ele>84.2</ele><time>2026-03-28T14:35:05.711Z</time></trkpt><trkpt lat="45.4441808" lon="10.7061852"><ele>84.0</ele><time>2026-03-28T14:35:06.71Z</time></trkpt><trkpt lat="45.4440982" lon="10.7060919"><ele>84.2</ele><time>2026-03-28T14:35:07.71Z</time></trkpt><trkpt lat="45.4440211" lon="10.7060012"><ele>84.4</ele><time>2026-03-28T14:35:08.711Z</time></trkpt><trkpt lat="45.4439451" lon="10.705917"><ele>84.6</ele><time>2026-03-28T14:35:09.711Z</time></trkpt><trkpt lat="45.4438735" lon="10.7058372"><ele>84.8</ele><time>2026-03-28T14:35:10.709Z</time></trkpt><trkpt lat="45.4437999" lon="10.7057545"><ele>85.0</ele><time>2026-03-28T14:35:11.71Z</time></trkpt><trkpt lat="45.4437253" lon="10.705671"><ele>85.0</ele><time>2026-03-28T14:35:12.71Z</time></trkpt><trkpt lat="45.443648" lon="10.7055876"><ele>85.0</ele><time>2026-03-28T14:35:13.71Z</time></trkpt><trkpt lat="45.4435716" lon="10.7054997"><ele>85.0</ele><time>2026-03-28T14:35:14.711Z</time></trkpt><trkpt lat="45.4434939" lon="10.7054092"><ele>85.0</ele><time>2026-03-28T14:35:15.71Z</time></trkpt><trkpt lat="45.4434182" lon="10.7053135"><ele>85.0</ele><time>2026-03-28T14:35:16.711Z</time></trkpt><trkpt lat="45.4433452" lon="10.7052091"><ele>84.0</ele><time>2026-03-28T14:35:17.711Z</time></trkpt><trkpt lat="45.4432761" lon="10.7050973"><ele>83.0</ele><time>2026-03-28T14:35:18.71Z</time></trkpt><trkpt lat="45.4432081" lon="10.7049797"><ele>82.0</ele><time>2026-03-28T14:35:19.711Z</time></trkpt><trkpt lat="45.4431454" lon="10.7048587"><ele>81.0</ele><time>2026-03-28T14:35:20.711Z</time></trkpt><trkpt lat="45.4430884" lon="10.7047407"><ele>80.0</ele><time>2026-03-28T14:35:21.711Z</time></trkpt><trkpt lat="45.4430412" lon="10.7046228"><ele>80.0</ele><time>2026-03-28T14:35:22.711Z</time></trkpt><trkpt lat="45.4429999" lon="10.7045055"><ele>80.0</ele><time>2026-03-28T14:35:23.711Z</time></trkpt><trkpt lat="45.442958" lon="10.7043899"><ele>80.0</ele><time>2026-03-28T14:35:24.71Z</time></trkpt><trkpt lat="45.4429196" lon="10.7042732"><ele>80.0</ele><time>2026-03-28T14:35:25.711Z</time></trkpt><trkpt lat="45.4428796" lon="10.7041547"><ele>80.0</ele><time>2026-03-28T14:35:26.711Z</time></trkpt><trkpt lat="45.4428415" lon="10.7040362"><ele>78.6</ele><time>2026-03-28T14:35:27.71Z</time></trkpt><trkpt lat="45.4428017" lon="10.7039169"><ele>77.2</ele><time>2026-03-28T14:35:28.711Z</time></trkpt><trkpt lat="45.4427612" lon="10.7037957"><ele>75.8</ele><time>2026-03-28T14:35:29.711Z</time></trkpt><trkpt lat="45.4427189" lon="10.7036697"><ele>74.4</ele><time>2026-03-28T14:35:30.71Z</time></trkpt><trkpt lat="45.4426715" lon="10.7035393"><ele>73.0</ele><time>2026-03-28T14:35:31.71Z</time></trkpt><trkpt lat="45.4426227" lon="10.7034023"><ele>72.75</ele><time>2026-03-28T14:35:32.711Z</time></trkpt><trkpt lat="45.4425746" lon="10.7032554"><ele>72.5</ele><time>2026-03-28T14:35:33.71Z</time></trkpt><trkpt lat="45.4425242" lon="10.7031048"><ele>72.25</ele><time>2026-03-28T14:35:34.711Z</time></trkpt><trkpt lat="45.4424706" lon="10.7029494"><ele>72.0</ele><time>2026-03-28T14:35:35.71Z</time></trkpt><trkpt lat="45.4424194" lon="10.7028051"><ele>71.8</ele><time>2026-03-28T14:35:36.711Z</time></trkpt><trkpt lat="45.4423673" lon="10.7026653"><ele>71.6</ele><time>2026-03-28T14:35:37.711Z</time></trkpt><trkpt lat="45.4423122" lon="10.7025269"><ele>71.39999999999999</ele><time>2026-03-28T14:35:38.711Z</time></trkpt><trkpt lat="45.4422521" lon="10.702394"><ele>71.2</ele><time>2026-03-28T14:35:39.71Z</time></trkpt><trkpt lat="45.4421902" lon="10.7022673"><ele>71.0</ele><time>2026-03-28T14:35:40.711Z</time></trkpt><trkpt lat="45.4421272" lon="10.7021546"><ele>70.83333333333334</ele><time>2026-03-28T14:35:41.71Z</time></trkpt><trkpt lat="45.4420635" lon="10.7020521"><ele>70.66666666666667</ele><time>2026-03-28T14:35:42.71Z</time></trkpt><trkpt lat="45.442" lon="10.7019609"><ele>70.5</ele><time>2026-03-28T14:35:43.711Z</time></trkpt><trkpt lat="45.4419388" lon="10.7018791"><ele>70.33333333333333</ele><time>2026-03-28T14:35:44.711Z</time></trkpt><trkpt lat="45.4418763" lon="10.7017985"><ele>70.16666666666666</ele><time>2026-03-28T14:35:45.711Z</time></trkpt><trkpt lat="45.4418179" lon="10.7017273"><ele>70.0</ele><time>2026-03-28T14:35:46.71Z</time></trkpt><trkpt lat="45.4417636" lon="10.7016641"><ele>70.0</ele><time>2026-03-28T14:35:47.71Z</time></trkpt><trkpt lat="45.4417092" lon="10.7016014"><ele>70.0</ele><time>2026-03-28T14:35:48.711Z</time></trkpt><trkpt lat="45.4416549" lon="10.7015405"><ele>70.0</ele><time>2026-03-28T14:35:49.71Z</time></trkpt><trkpt lat="45.4415977" lon="10.7014768"><ele>70.0</ele><time>2026-03-28T14:35:50.711Z</time></trkpt><trkpt lat="45.4415379" lon="10.7014139"><ele>70.0</ele><time>2026-03-28T14:35:51.71Z</time></trkpt><trkpt lat="45.4414778" lon="10.701352"><ele>70.0</ele><time>2026-03-28T14:35:52.71Z</time></trkpt><trkpt lat="45.4414186" lon="10.7012874"><ele>70.0</ele><time>2026-03-28T14:35:53.711Z</time></trkpt><trkpt lat="45.4413612" lon="10.7012228"><ele>70.0</ele><time>2026-03-28T14:35:54.71Z</time></trkpt><trkpt lat="45.4413014" lon="10.7011568"><ele>70.0</ele><time>2026-03-28T14:35:55.711Z</time></trkpt><trkpt lat="45.4412407" lon="10.7010902"><ele>70.0</ele><time>2026-03-28T14:35:56.711Z</time></trkpt><trkpt lat="45.4411793" lon="10.7010186"><ele>70.0</ele><time>2026-03-28T14:35:57.711Z</time></trkpt><trkpt lat="45.441118" lon="10.7009498"><ele>70.0</ele><time>2026-03-28T14:35:58.71Z</time></trkpt><trkpt lat="45.4410594" lon="10.7008859"><ele>70.0</ele><time>2026-03-28T14:35:59.711Z</time></trkpt><trkpt lat="45.4410072" lon="10.7008308"><ele>70.0</ele><time>2026-03-28T14:36:00.71Z</time></trkpt><trkpt lat="45.4409563" lon="10.700776"><ele>70.16666666666666</ele><time>2026-03-28T14:36:01.71Z</time></trkpt><trkpt lat="45.4409059" lon="10.7007208"><ele>70.33333333333333</ele><time>2026-03-28T14:36:02.71Z</time></trkpt><trkpt lat="45.4408094" lon="10.7006123"><ele>70.5</ele><time>2026-03-28T14:36:04.71Z</time></trkpt><trkpt lat="45.4407134" lon="10.7005135"><ele>70.66666666666667</ele><time>2026-03-28T14:36:06.71Z</time></trkpt><trkpt lat="45.4406614" lon="10.7004552"><ele>70.83333333333334</ele><time>2026-03-28T14:36:07.71Z</time></trkpt><trkpt lat="45.4406093" lon="10.7003924"><ele>71.0</ele><time>2026-03-28T14:36:08.711Z</time></trkpt><trkpt lat="45.4405612" lon="10.7003312"><ele>70.66666666666667</ele><time>2026-03-28T14:36:09.711Z</time></trkpt><trkpt lat="45.4404777" lon="10.7002357"><ele>70.33333333333334</ele><time>2026-03-28T14:36:11.71Z</time></trkpt><trkpt lat="45.4404135" lon="10.7001421"><ele>70.0</ele><time>2026-03-28T14:36:13.71Z</time></trkpt><trkpt lat="45.440374" lon="10.7000674"><ele>69.66666666666667</ele><time>2026-03-28T14:36:15.71Z</time></trkpt><trkpt lat="45.440343" lon="10.6999785"><ele>69.33333333333333</ele><time>2026-03-28T14:36:21.711Z</time></trkpt><trkpt lat="45.4403297" lon="10.6998839"><ele>69.0</ele><time>2026-03-28T14:36:25.71Z</time></trkpt><trkpt lat="45.4403186" lon="10.699788"><ele>69.0</ele><time>2026-03-28T14:36:35.71Z</time></trkpt><trkpt lat="45.440308" lon="10.6996872"><ele>69.0</ele><time>2026-03-28T14:36:40.71Z</time></trkpt><trkpt lat="45.4403083" lon="10.6995725"><ele>69.0</ele><time>2026-03-28T14:36:44.711Z</time></trkpt><trkpt lat="45.4403205" lon="10.6994611"><ele>69.0</ele><time>2026-03-28T14:36:47.711Z</time></trkpt><trkpt lat="45.4403473" lon="10.6993665"><ele>69.0</ele><time>2026-03-28T14:36:49.71Z</time></trkpt><trkpt lat="45.4403845" lon="10.6992264"><ele>69.0</ele><time>2026-03-28T14:36:51.71Z</time></trkpt><trkpt lat="45.4404014" lon="10.6991391"><ele>68.5</ele><time>2026-03-28T14:36:52.711Z</time></trkpt><trkpt lat="45.4404196" lon="10.6990402"><ele>68.0</ele><time>2026-03-28T14:36:53.711Z</time></trkpt><trkpt lat="45.4404392" lon="10.6989398"><ele>67.5</ele><time>2026-03-28T14:36:54.711Z</time></trkpt><trkpt lat="45.4404621" lon="10.6988449"><ele>67.0</ele><time>2026-03-28T14:36:55.711Z</time></trkpt><trkpt lat="45.4404899" lon="10.698763"><ele>66.5</ele><time>2026-03-28T14:36:56.71Z</time></trkpt><trkpt lat="45.4405568" lon="10.6986234"><ele>66.0</ele><time>2026-03-28T14:36:58.711Z</time></trkpt><trkpt lat="45.4405942" lon="10.6985436"><ele>65.83333333333333</ele><time>2026-03-28T14:36:59.71Z</time></trkpt><trkpt lat="45.4406325" lon="10.6984581"><ele>65.66666666666667</ele><time>2026-03-28T14:37:00.711Z</time></trkpt><trkpt lat="45.4406666" lon="10.6983676"><ele>65.5</ele><time>2026-03-28T14:37:01.71Z</time></trkpt><trkpt lat="45.4406908" lon="10.6982721"><ele>65.33333333333334</ele><time>2026-03-28T14:37:02.711Z</time></trkpt><trkpt lat="45.4407038" lon="10.6981725"><ele>65.16666666666667</ele><time>2026-03-28T14:37:03.71Z</time></trkpt><trkpt lat="45.4407103" lon="10.6980789"><ele>65.0</ele><time>2026-03-28T14:37:04.711Z</time></trkpt><trkpt lat="45.4407111" lon="10.6979181"><ele>65.0</ele><time>2026-03-28T14:37:06.711Z</time></trkpt><trkpt lat="45.4407124" lon="10.6977624"><ele>65.0</ele><time>2026-03-28T14:37:08.71Z</time></trkpt><trkpt lat="45.4407108" lon="10.6976088"><ele>65.0</ele><time>2026-03-28T14:37:10.71Z</time></trkpt><trkpt lat="45.4407082" lon="10.6975125"><ele>65.0</ele><time>2026-03-28T14:37:12.71Z</time></trkpt><trkpt lat="45.4407077" lon="10.6974106"><ele>65.0</ele><time>2026-03-28T14:37:16.711Z</time></trkpt><trkpt lat="45.4407067" lon="10.697311"><ele>65.0</ele><time>2026-03-28T14:37:19.711Z</time></trkpt><trkpt lat="45.4406993" lon="10.6971889"><ele>65.0</ele><time>2026-03-28T14:37:23.71Z</time></trkpt><trkpt lat="45.4406927" lon="10.6970743"><ele>65.0</ele><time>2026-03-28T14:37:25.71Z</time></trkpt><trkpt lat="45.4406764" lon="10.6969245"><ele>65.0</ele><time>2026-03-28T14:37:27.71Z</time></trkpt><trkpt lat="45.4406418" lon="10.6967758"><ele>65.0</ele><time>2026-03-28T14:37:29.711Z</time></trkpt><trkpt lat="45.4405857" lon="10.6966673"><ele>65.0</ele><time>2026-03-28T14:37:31.711Z</time></trkpt><trkpt lat="45.4405214" lon="10.6965862"><ele>65.28571428571429</ele><time>2026-03-28T14:37:33.711Z</time></trkpt><trkpt lat="45.4404614" lon="10.6965369"><ele>65.57142857142857</ele><time>2026-03-28T14:37:35.71Z</time></trkpt><trkpt lat="45.4403925" lon="10.6964867"><ele>65.85714285714286</ele><time>2026-03-28T14:37:40.711Z</time></trkpt><trkpt lat="45.4403364" lon="10.6964449"><ele>66.14285714285714</ele><time>2026-03-28T14:37:43.711Z</time></trkpt><trkpt lat="45.4402688" lon="10.6964"><ele>66.42857142857143</ele><time>2026-03-28T14:37:45.71Z</time></trkpt><trkpt lat="45.4401978" lon="10.6963541"><ele>66.71428571428572</ele><time>2026-03-28T14:37:47.711Z</time></trkpt><trkpt lat="45.4401279" lon="10.6963085"><ele>67.0</ele><time>2026-03-28T14:37:49.711Z</time></trkpt><trkpt lat="45.4400713" lon="10.6962634"><ele>67.0</ele><time>2026-03-28T14:37:57.711Z</time></trkpt><trkpt lat="45.4400049" lon="10.6962102"><ele>67.0</ele><time>2026-03-28T14:38:04.71Z</time></trkpt><trkpt lat="45.4399428" lon="10.696163"><ele>67.0</ele><time>2026-03-28T14:38:07.711Z</time></trkpt><trkpt lat="45.4398771" lon="10.6961125"><ele>67.0</ele><time>2026-03-28T14:38:13.71Z</time></trkpt><trkpt lat="45.4398125" lon="10.6960701"><ele>67.0</ele><time>2026-03-28T14:38:17.71Z</time></trkpt><trkpt lat="45.4397542" lon="10.696028"><ele>67.0</ele><time>2026-03-28T14:38:19.711Z</time></trkpt><trkpt lat="45.4396722" lon="10.6959705"><ele>67.0</ele><time>2026-03-28T14:38:22.71Z</time></trkpt><trkpt lat="45.4396141" lon="10.6959256"><ele>67.0</ele><time>2026-03-28T14:38:24.711Z</time></trkpt><trkpt lat="45.4395548" lon="10.6958702"><ele>67.0</ele><time>2026-03-28T14:38:26.711Z</time></trkpt><trkpt lat="45.4395109" lon="10.6958045"><ele>67.0</ele><time>2026-03-28T14:38:28.711Z</time></trkpt><trkpt lat="45.43947" lon="10.6957114"><ele>67.0</ele><time>2026-03-28T14:38:30.711Z</time></trkpt><trkpt lat="45.439445" lon="10.6956212"><ele>67.0</ele><time>2026-03-28T14:38:32.71Z</time></trkpt><trkpt lat="45.4394288" lon="10.6955267"><ele>67.0</ele><time>2026-03-28T14:38:34.71Z</time></trkpt><trkpt lat="45.4394403" lon="10.6953718"><ele>67.33333333333333</ele><time>2026-03-28T14:38:36.711Z</time></trkpt><trkpt lat="45.4394618" lon="10.6952387"><ele>67.66666666666666</ele><time>2026-03-28T14:38:38.711Z</time></trkpt><trkpt lat="45.4394764" lon="10.6951456"><ele>68.0</ele><time>2026-03-28T14:38:43.71Z</time></trkpt><trkpt lat="45.4395065" lon="10.6950217"><ele>68.33333333333333</ele><time>2026-03-28T14:38:46.71Z</time></trkpt><trkpt lat="45.439527" lon="10.6949353"><ele>68.66666666666667</ele><time>2026-03-28T14:38:48.71Z</time></trkpt><trkpt lat="45.439551" lon="10.6948314"><ele>69.0</ele><time>2026-03-28T14:38:52.71Z</time></trkpt><trkpt lat="45.4395684" lon="10.6947451"><ele>69.0</ele><time>2026-03-28T14:38:55.711Z</time></trkpt><trkpt lat="45.439592" lon="10.6946414"><ele>69.0</ele><time>2026-03-28T14:38:57.711Z</time></trkpt><trkpt lat="45.4396157" lon="10.6945252"><ele>69.0</ele><time>2026-03-28T14:38:59.71Z</time></trkpt><trkpt lat="45.4396412" lon="10.6944175"><ele>69.0</ele><time>2026-03-28T14:39:01.711Z</time></trkpt><trkpt lat="45.4396688" lon="10.6943059"><ele>69.0</ele><time>2026-03-28T14:39:04.71Z</time></trkpt><trkpt lat="45.4396976" lon="10.6941849"><ele>69.0</ele><time>2026-03-28T14:39:07.711Z</time></trkpt><trkpt lat="45.4397286" lon="10.6940716"><ele>69.0</ele><time>2026-03-28T14:39:09.71Z</time></trkpt><trkpt lat="45.4397514" lon="10.69397"><ele>69.0</ele><time>2026-03-28T14:39:12.71Z</time></trkpt><trkpt lat="45.4397739" lon="10.6938623"><ele>69.0</ele><time>2026-03-28T14:39:20.71Z</time></trkpt><trkpt lat="45.4397943" lon="10.6937584"><ele>69.0</ele><time>2026-03-28T14:39:22.711Z</time></trkpt><trkpt lat="45.4397977" lon="10.6936437"><ele>69.0</ele><time>2026-03-28T14:39:24.709Z</time></trkpt><trkpt lat="45.4397851" lon="10.6935364"><ele>69.0</ele><time>2026-03-28T14:39:26.71Z</time></trkpt><trkpt lat="45.4397581" lon="10.6934323"><ele>68.85714285714286</ele><time>2026-03-28T14:39:28.71Z</time></trkpt><trkpt lat="45.43973" lon="10.6933512"><ele>68.71428571428572</ele><time>2026-03-28T14:39:30.71Z</time></trkpt><trkpt lat="45.4396816" lon="10.6932585"><ele>68.57142857142857</ele><time>2026-03-28T14:39:40.711Z</time></trkpt><trkpt lat="45.4396194" lon="10.6931846"><ele>68.42857142857143</ele><time>2026-03-28T14:39:43.71Z</time></trkpt><trkpt lat="45.4395487" lon="10.6931299"><ele>68.28571428571428</ele><time>2026-03-28T14:40:08.71Z</time></trkpt><trkpt lat="45.4394886" lon="10.6930818"><ele>68.14285714285714</ele><time>2026-03-28T14:40:10.711Z</time></trkpt><trkpt lat="45.4394381" lon="10.693028"><ele>68.0</ele><time>2026-03-28T14:40:27.71Z</time></trkpt><trkpt lat="45.4393603" lon="10.6929756"><ele>68.33333333333334</ele><time>2026-03-28T14:40:30.711Z</time></trkpt><trkpt lat="45.4393047" lon="10.692928"><ele>68.66666666666667</ele><time>2026-03-28T14:40:43.71Z</time></trkpt><trkpt lat="45.4392629" lon="10.6928592"><ele>69.0</ele><time>2026-03-28T14:40:46.71Z</time></trkpt><trkpt lat="45.4392405" lon="10.6927522"><ele>69.33333333333333</ele><time>2026-03-28T14:40:49.71Z</time></trkpt><trkpt lat="45.4392567" lon="10.6926436"><ele>69.66666666666666</ele><time>2026-03-28T14:40:51.71Z</time></trkpt><trkpt lat="45.4392851" lon="10.6925225"><ele>70.0</ele><time>2026-03-28T14:40:53.71Z</time></trkpt><trkpt lat="45.4393218" lon="10.6923816"><ele>70.0</ele><time>2026-03-28T14:40:55.71Z</time></trkpt><trkpt lat="45.439366" lon="10.6922455"><ele>70.0</ele><time>2026-03-28T14:40:57.711Z</time></trkpt><trkpt lat="45.4394183" lon="10.6921001"><ele>70.0</ele><time>2026-03-28T14:40:59.71Z</time></trkpt><trkpt lat="45.4394444" lon="10.6920156"><ele>70.0</ele><time>2026-03-28T14:41:00.71Z</time></trkpt><trkpt lat="45.4394705" lon="10.691927"><ele>70.0</ele><time>2026-03-28T14:41:01.711Z</time></trkpt><trkpt lat="45.4394973" lon="10.6918388"><ele>70.0</ele><time>2026-03-28T14:41:02.71Z</time></trkpt><trkpt lat="45.4395429" lon="10.6916971"><ele>69.83333333333333</ele><time>2026-03-28T14:41:04.711Z</time></trkpt><trkpt lat="45.439581" lon="10.6915804"><ele>69.66666666666666</ele><time>2026-03-28T14:41:06.71Z</time></trkpt><trkpt lat="45.43962" lon="10.691468"><ele>69.5</ele><time>2026-03-28T14:41:08.71Z</time></trkpt><trkpt lat="45.4396554" lon="10.6913671"><ele>69.33333333333333</ele><time>2026-03-28T14:41:10.71Z</time></trkpt><trkpt lat="45.4396938" lon="10.6912651"><ele>69.16666666666667</ele><time>2026-03-28T14:41:12.711Z</time></trkpt><trkpt lat="45.4397392" lon="10.6911649"><ele>69.0</ele><time>2026-03-28T14:41:14.71Z</time></trkpt><trkpt lat="45.4397849" lon="10.6910629"><ele>68.2</ele><time>2026-03-28T14:41:16.71Z</time></trkpt><trkpt lat="45.4398364" lon="10.6909581"><ele>67.4</ele><time>2026-03-28T14:41:18.71Z</time></trkpt><trkpt lat="45.439901" lon="10.6908662"><ele>66.6</ele><time>2026-03-28T14:41:20.711Z</time></trkpt><trkpt lat="45.4399564" lon="10.6907685"><ele>65.8</ele><time>2026-03-28T14:41:22.71Z</time></trkpt><trkpt lat="45.4399941" lon="10.690664"><ele>65.0</ele><time>2026-03-28T14:41:24.711Z</time></trkpt><trkpt lat="45.4400261" lon="10.6905279"><ele>65.0</ele><time>2026-03-28T14:41:26.711Z</time></trkpt><trkpt lat="45.4400652" lon="10.6903451"><ele>65.0</ele><time>2026-03-28T14:41:28.711Z</time></trkpt><trkpt lat="45.4400915" lon="10.6902303"><ele>65.0</ele><time>2026-03-28T14:41:29.71Z</time></trkpt><trkpt lat="45.4401168" lon="10.6900964"><ele>65.0</ele><time>2026-03-28T14:41:30.71Z</time></trkpt><trkpt lat="45.4401368" lon="10.6899698"><ele>65.0</ele><time>2026-03-28T14:41:31.709Z</time></trkpt><trkpt lat="45.4401509" lon="10.6898548"><ele>65.33333333333334</ele><time>2026-03-28T14:41:32.71Z</time></trkpt><trkpt lat="45.4401619" lon="10.6897425"><ele>65.66666666666667</ele><time>2026-03-28T14:41:33.711Z</time></trkpt><trkpt lat="45.4401701" lon="10.6896281"><ele>66.0</ele><time>2026-03-28T14:41:34.711Z</time></trkpt><trkpt lat="45.4401746" lon="10.6895096"><ele>66.33333333333333</ele><time>2026-03-28T14:41:35.71Z</time></trkpt><trkpt lat="45.4401749" lon="10.6893826"><ele>66.66666666666666</ele><time>2026-03-28T14:41:36.71Z</time></trkpt><trkpt lat="45.4401679" lon="10.6892473"><ele>67.0</ele><time>2026-03-28T14:41:37.711Z</time></trkpt><trkpt lat="45.4401559" lon="10.6891122"><ele>67.8</ele><time>2026-03-28T14:41:38.71Z</time></trkpt><trkpt lat="45.4401401" lon="10.6889764"><ele>68.6</ele><time>2026-03-28T14:41:39.71Z</time></trkpt><trkpt lat="45.4401182" lon="10.6888322"><ele>69.39999999999999</ele><time>2026-03-28T14:41:40.711Z</time></trkpt><trkpt lat="45.4400952" lon="10.6886825"><ele>70.2</ele><time>2026-03-28T14:41:41.711Z</time></trkpt><trkpt lat="45.4400761" lon="10.6885333"><ele>71.0</ele><time>2026-03-28T14:41:42.71Z</time></trkpt><trkpt lat="45.4400532" lon="10.6883827"><ele>71.39999999999999</ele><time>2026-03-28T14:41:43.711Z</time></trkpt><trkpt lat="45.4400307" lon="10.6882395"><ele>71.8</ele><time>2026-03-28T14:41:44.711Z</time></trkpt><trkpt lat="45.4400079" lon="10.688099"><ele>72.19999999999999</ele><time>2026-03-28T14:41:45.71Z</time></trkpt><trkpt lat="45.4399855" lon="10.6879588"><ele>72.6</ele><time>2026-03-28T14:41:46.71Z</time></trkpt><trkpt lat="45.439964" lon="10.6878191"><ele>73.0</ele><time>2026-03-28T14:41:47.711Z</time></trkpt><trkpt lat="45.4399428" lon="10.6876783"><ele>73.0</ele><time>2026-03-28T14:41:48.711Z</time></trkpt><trkpt lat="45.4399219" lon="10.6875379"><ele>73.0</ele><time>2026-03-28T14:41:49.711Z</time></trkpt><trkpt lat="45.4399016" lon="10.6874004"><ele>73.0</ele><time>2026-03-28T14:41:50.71Z</time></trkpt><trkpt lat="45.4398838" lon="10.6872627"><ele>73.0</ele><time>2026-03-28T14:41:51.709Z</time></trkpt><trkpt lat="45.4398701" lon="10.6871402"><ele>73.0</ele><time>2026-03-28T14:41:52.71Z</time></trkpt><trkpt lat="45.4398581" lon="10.6870332"><ele>73.5</ele><time>2026-03-28T14:41:53.711Z</time></trkpt><trkpt lat="45.4398449" lon="10.6869266"><ele>74.0</ele><time>2026-03-28T14:41:54.711Z</time></trkpt><trkpt lat="45.4398309" lon="10.686818"><ele>74.5</ele><time>2026-03-28T14:41:55.71Z</time></trkpt><trkpt lat="45.4398195" lon="10.6867006"><ele>75.0</ele><time>2026-03-28T14:41:56.711Z</time></trkpt><trkpt lat="45.4398141" lon="10.6865724"><ele>75.5</ele><time>2026-03-28T14:41:57.71Z</time></trkpt><trkpt lat="45.4398116" lon="10.6864349"><ele>76.0</ele><time>2026-03-28T14:41:58.71Z</time></trkpt><trkpt lat="45.439819" lon="10.6862978"><ele>76.0</ele><time>2026-03-28T14:41:59.71Z</time></trkpt><trkpt lat="45.4398354" lon="10.6861651"><ele>76.0</ele><time>2026-03-28T14:42:00.71Z</time></trkpt><trkpt lat="45.4398614" lon="10.6860349"><ele>76.0</ele><time>2026-03-28T14:42:01.711Z</time></trkpt><trkpt lat="45.4398922" lon="10.685893"><ele>76.0</ele><time>2026-03-28T14:42:02.71Z</time></trkpt><trkpt lat="45.4399288" lon="10.6857448"><ele>76.0</ele><time>2026-03-28T14:42:03.711Z</time></trkpt><trkpt lat="45.4399684" lon="10.6855851"><ele>76.25</ele><time>2026-03-28T14:42:04.71Z</time></trkpt><trkpt lat="45.4400076" lon="10.6854128"><ele>76.5</ele><time>2026-03-28T14:42:05.71Z</time></trkpt><trkpt lat="45.4400486" lon="10.6852297"><ele>76.75</ele><time>2026-03-28T14:42:06.71Z</time></trkpt><trkpt lat="45.4400948" lon="10.6850325"><ele>77.0</ele><time>2026-03-28T14:42:07.71Z</time></trkpt><trkpt lat="45.4401475" lon="10.6848223"><ele>77.0</ele><time>2026-03-28T14:42:08.711Z</time></trkpt><trkpt lat="45.4402062" lon="10.6846038"><ele>77.0</ele><time>2026-03-28T14:42:09.711Z</time></trkpt><trkpt lat="45.4402675" lon="10.6843827"><ele>77.0</ele><time>2026-03-28T14:42:10.71Z</time></trkpt><trkpt lat="45.4403281" lon="10.6841668"><ele>78.0</ele><time>2026-03-28T14:42:11.711Z</time></trkpt><trkpt lat="45.4403849" lon="10.6839567"><ele>79.0</ele><time>2026-03-28T14:42:12.71Z</time></trkpt><trkpt lat="45.4404395" lon="10.683749"><ele>80.0</ele><time>2026-03-28T14:42:13.71Z</time></trkpt><trkpt lat="45.44049" lon="10.6835455"><ele>80.75</ele><time>2026-03-28T14:42:14.711Z</time></trkpt><trkpt lat="45.44054" lon="10.683348"><ele>81.5</ele><time>2026-03-28T14:42:15.71Z</time></trkpt><trkpt lat="45.4405894" lon="10.6831512"><ele>82.25</ele><time>2026-03-28T14:42:16.71Z</time></trkpt><trkpt lat="45.440639" lon="10.6829575"><ele>83.0</ele><time>2026-03-28T14:42:17.71Z</time></trkpt><trkpt lat="45.4406878" lon="10.6827651"><ele>83.5</ele><time>2026-03-28T14:42:18.71Z</time></trkpt><trkpt lat="45.4407358" lon="10.6825779"><ele>84.0</ele><time>2026-03-28T14:42:19.711Z</time></trkpt><trkpt lat="45.4407815" lon="10.6824002"><ele>84.5</ele><time>2026-03-28T14:42:20.711Z</time></trkpt><trkpt lat="45.4408217" lon="10.6822393"><ele>85.0</ele><time>2026-03-28T14:42:21.71Z</time></trkpt><trkpt lat="45.4408577" lon="10.6820939"><ele>85.0</ele><time>2026-03-28T14:42:22.711Z</time></trkpt><trkpt lat="45.4408906" lon="10.6819618"><ele>85.0</ele><time>2026-03-28T14:42:23.71Z</time></trkpt><trkpt lat="45.4409222" lon="10.6818377"><ele>85.0</ele><time>2026-03-28T14:42:24.711Z</time></trkpt><trkpt lat="45.4409536" lon="10.681715"><ele>85.0</ele><time>2026-03-28T14:42:25.711Z</time></trkpt><trkpt lat="45.4409795" lon="10.6816021"><ele>85.0</ele><time>2026-03-28T14:42:26.71Z</time></trkpt><trkpt lat="45.4410009" lon="10.6815069"><ele>85.0</ele><time>2026-03-28T14:42:27.71Z</time></trkpt><trkpt lat="45.4410193" lon="10.6814142"><ele>85.2</ele><time>2026-03-28T14:42:28.71Z</time></trkpt><trkpt lat="45.4410384" lon="10.6813136"><ele>85.4</ele><time>2026-03-28T14:42:29.71Z</time></trkpt><trkpt lat="45.4410553" lon="10.6811959"><ele>85.6</ele><time>2026-03-28T14:42:30.71Z</time></trkpt><trkpt lat="45.4410677" lon="10.6810557"><ele>85.8</ele><time>2026-03-28T14:42:31.71Z</time></trkpt><trkpt lat="45.441077" lon="10.6808932"><ele>86.0</ele><time>2026-03-28T14:42:32.711Z</time></trkpt><trkpt lat="45.4410862" lon="10.6807265"><ele>86.0</ele><time>2026-03-28T14:42:33.711Z</time></trkpt><trkpt lat="45.4410942" lon="10.6805746"><ele>86.0</ele><time>2026-03-28T14:42:34.71Z</time></trkpt><trkpt lat="45.4411057" lon="10.6804208"><ele>86.0</ele><time>2026-03-28T14:42:35.711Z</time></trkpt><trkpt lat="45.4411249" lon="10.6802557"><ele>86.0</ele><time>2026-03-28T14:42:36.711Z</time></trkpt><trkpt lat="45.4411513" lon="10.6800767"><ele>85.75</ele><time>2026-03-28T14:42:37.711Z</time></trkpt><trkpt lat="45.4411831" lon="10.679887"><ele>85.5</ele><time>2026-03-28T14:42:38.711Z</time></trkpt><trkpt lat="45.4412172" lon="10.6797032"><ele>85.25</ele><time>2026-03-28T14:42:39.711Z</time></trkpt><trkpt lat="45.4412511" lon="10.6795317"><ele>85.0</ele><time>2026-03-28T14:42:40.711Z</time></trkpt><trkpt lat="45.4412813" lon="10.6793744"><ele>85.0</ele><time>2026-03-28T14:42:41.71Z</time></trkpt><trkpt lat="45.441308" lon="10.6792254"><ele>85.0</ele><time>2026-03-28T14:42:42.71Z</time></trkpt><trkpt lat="45.4413344" lon="10.6790857"><ele>85.0</ele><time>2026-03-28T14:42:43.71Z</time></trkpt><trkpt lat="45.4413593" lon="10.6789493"><ele>85.0</ele><time>2026-03-28T14:42:44.711Z</time></trkpt><trkpt lat="45.4413842" lon="10.6788169"><ele>85.0</ele><time>2026-03-28T14:42:45.711Z</time></trkpt><trkpt lat="45.4414074" lon="10.6786938"><ele>85.0</ele><time>2026-03-28T14:42:46.711Z</time></trkpt><trkpt lat="45.441428" lon="10.6785804"><ele>85.0</ele><time>2026-03-28T14:42:47.71Z</time></trkpt><trkpt lat="45.4414475" lon="10.6784766"><ele>85.0</ele><time>2026-03-28T14:42:48.709Z</time></trkpt><trkpt lat="45.4414647" lon="10.678376"><ele>85.0</ele><time>2026-03-28T14:42:49.71Z</time></trkpt><trkpt lat="45.4414826" lon="10.6782749"><ele>85.0</ele><time>2026-03-28T14:42:50.71Z</time></trkpt><trkpt lat="45.4414995" lon="10.6781744"><ele>85.0</ele><time>2026-03-28T14:42:51.71Z</time></trkpt><trkpt lat="45.4415202" lon="10.6780747"><ele>85.0</ele><time>2026-03-28T14:42:52.71Z</time></trkpt><trkpt lat="45.4415426" lon="10.6779796"><ele>85.0</ele><time>2026-03-28T14:42:53.711Z</time></trkpt><trkpt lat="45.441567" lon="10.6778847"><ele>85.0</ele><time>2026-03-28T14:42:54.711Z</time></trkpt><trkpt lat="45.4415936" lon="10.677792"><ele>85.0</ele><time>2026-03-28T14:42:55.71Z</time></trkpt><trkpt lat="45.4416216" lon="10.6776986"><ele>85.0</ele><time>2026-03-28T14:42:56.71Z</time></trkpt><trkpt lat="45.4416519" lon="10.6776054"><ele>85.0</ele><time>2026-03-28T14:42:57.711Z</time></trkpt><trkpt lat="45.441681" lon="10.6775194"><ele>85.0</ele><time>2026-03-28T14:42:58.71Z</time></trkpt><trkpt lat="45.4417282" lon="10.6773594"><ele>85.16666666666666</ele><time>2026-03-28T14:43:00.711Z</time></trkpt><trkpt lat="45.4417805" lon="10.6771974"><ele>85.33333333333333</ele><time>2026-03-28T14:43:02.711Z</time></trkpt><trkpt lat="45.4418083" lon="10.6771081"><ele>85.5</ele><time>2026-03-28T14:43:03.711Z</time></trkpt><trkpt lat="45.4418375" lon="10.6770119"><ele>85.66666666666667</ele><time>2026-03-28T14:43:04.71Z</time></trkpt><trkpt lat="45.4418659" lon="10.6769121"><ele>85.83333333333334</ele><time>2026-03-28T14:43:05.711Z</time></trkpt><trkpt lat="45.4418944" lon="10.6768064"><ele>86.0</ele><time>2026-03-28T14:43:06.711Z</time></trkpt><trkpt lat="45.4419191" lon="10.6767019"><ele>85.5</ele><time>2026-03-28T14:43:07.71Z</time></trkpt><trkpt lat="45.4419386" lon="10.6766058"><ele>85.0</ele><time>2026-03-28T14:43:08.71Z</time></trkpt><trkpt lat="45.441958" lon="10.6765109"><ele>84.5</ele><time>2026-03-28T14:43:09.711Z</time></trkpt><trkpt lat="45.4419798" lon="10.6764045"><ele>84.0</ele><time>2026-03-28T14:43:10.711Z</time></trkpt><trkpt lat="45.4420103" lon="10.6762879"><ele>83.5</ele><time>2026-03-28T14:43:11.71Z</time></trkpt><trkpt lat="45.4420479" lon="10.6761591"><ele>83.0</ele><time>2026-03-28T14:43:12.71Z</time></trkpt><trkpt lat="45.4420861" lon="10.6760319"><ele>82.80000000000001</ele><time>2026-03-28T14:43:13.711Z</time></trkpt><trkpt lat="45.4421214" lon="10.6759112"><ele>82.6</ele><time>2026-03-28T14:43:14.711Z</time></trkpt><trkpt lat="45.4421609" lon="10.6757929"><ele>82.4</ele><time>2026-03-28T14:43:15.71Z</time></trkpt><trkpt lat="45.4422025" lon="10.6756731"><ele>82.19999999999999</ele><time>2026-03-28T14:43:16.71Z</time></trkpt><trkpt lat="45.4422493" lon="10.6755518"><ele>82.0</ele><time>2026-03-28T14:43:17.71Z</time></trkpt><trkpt lat="45.4423021" lon="10.6754291"><ele>82.0</ele><time>2026-03-28T14:43:18.71Z</time></trkpt><trkpt lat="45.4423555" lon="10.6753055"><ele>82.0</ele><time>2026-03-28T14:43:19.71Z</time></trkpt><trkpt lat="45.4424092" lon="10.6751825"><ele>82.0</ele><time>2026-03-28T14:43:20.711Z</time></trkpt><trkpt lat="45.4424651" lon="10.6750614"><ele>82.0</ele><time>2026-03-28T14:43:21.71Z</time></trkpt><trkpt lat="45.4425201" lon="10.6749509"><ele>82.0</ele><time>2026-03-28T14:43:22.711Z</time></trkpt><trkpt lat="45.4425784" lon="10.6748408"><ele>81.8</ele><time>2026-03-28T14:43:23.711Z</time></trkpt><trkpt lat="45.4426382" lon="10.6747301"><ele>81.6</ele><time>2026-03-28T14:43:24.71Z</time></trkpt><trkpt lat="45.4427024" lon="10.6746185"><ele>81.39999999999999</ele><time>2026-03-28T14:43:25.711Z</time></trkpt><trkpt lat="45.4427716" lon="10.6745045"><ele>81.19999999999999</ele><time>2026-03-28T14:43:26.711Z</time></trkpt><trkpt lat="45.4428436" lon="10.6743848"><ele>81.0</ele><time>2026-03-28T14:43:27.71Z</time></trkpt><trkpt lat="45.4429204" lon="10.6742661"><ele>81.4</ele><time>2026-03-28T14:43:28.71Z</time></trkpt><trkpt lat="45.4430002" lon="10.6741438"><ele>81.8</ele><time>2026-03-28T14:43:29.711Z</time></trkpt><trkpt lat="45.4430745" lon="10.6740276"><ele>82.2</ele><time>2026-03-28T14:43:30.711Z</time></trkpt><trkpt lat="45.4431438" lon="10.6739166"><ele>82.60000000000001</ele><time>2026-03-28T14:43:31.71Z</time></trkpt><trkpt lat="45.4432118" lon="10.6738089"><ele>83.0</ele><time>2026-03-28T14:43:32.71Z</time></trkpt><trkpt lat="45.443278" lon="10.6737031"><ele>82.80000000000001</ele><time>2026-03-28T14:43:33.711Z</time></trkpt><trkpt lat="45.4433439" lon="10.6735942"><ele>82.6</ele><time>2026-03-28T14:43:34.711Z</time></trkpt><trkpt lat="45.4434137" lon="10.6734866"><ele>82.4</ele><time>2026-03-28T14:43:35.711Z</time></trkpt><trkpt lat="45.4434874" lon="10.6733741"><ele>82.19999999999999</ele><time>2026-03-28T14:43:36.711Z</time></trkpt><trkpt lat="45.4435659" lon="10.6732612"><ele>82.0</ele><time>2026-03-28T14:43:37.711Z</time></trkpt><trkpt lat="45.4436464" lon="10.6731489"><ele>82.0</ele><time>2026-03-28T14:43:38.71Z</time></trkpt><trkpt lat="45.4437366" lon="10.673029"><ele>82.0</ele><time>2026-03-28T14:43:39.709Z</time></trkpt><trkpt lat="45.4438281" lon="10.6729054"><ele>82.0</ele><time>2026-03-28T14:43:40.711Z</time></trkpt><trkpt lat="45.443926" lon="10.6727768"><ele>82.0</ele><time>2026-03-28T14:43:41.71Z</time></trkpt><trkpt lat="45.4440288" lon="10.6726444"><ele>82.75</ele><time>2026-03-28T14:43:42.71Z</time></trkpt><trkpt lat="45.4441358" lon="10.6725074"><ele>83.5</ele><time>2026-03-28T14:43:43.71Z</time></trkpt><trkpt lat="45.4442458" lon="10.6723689"><ele>84.25</ele><time>2026-03-28T14:43:44.71Z</time></trkpt><trkpt lat="45.4443521" lon="10.6722328"><ele>85.0</ele><time>2026-03-28T14:43:45.711Z</time></trkpt><trkpt lat="45.4444532" lon="10.6721034"><ele>85.0</ele><time>2026-03-28T14:43:46.71Z</time></trkpt><trkpt lat="45.4445474" lon="10.6719812"><ele>85.0</ele><time>2026-03-28T14:43:47.711Z</time></trkpt><trkpt lat="45.4446381" lon="10.6718617"><ele>85.0</ele><time>2026-03-28T14:43:48.71Z</time></trkpt><trkpt lat="45.4447279" lon="10.6717444"><ele>85.0</ele><time>2026-03-28T14:43:49.71Z</time></trkpt><trkpt lat="45.4448169" lon="10.671631"><ele>84.5</ele><time>2026-03-28T14:43:50.71Z</time></trkpt><trkpt lat="45.4449075" lon="10.6715156"><ele>84.0</ele><time>2026-03-28T14:43:51.71Z</time></trkpt><trkpt lat="45.4449998" lon="10.671398"><ele>83.5</ele><time>2026-03-28T14:43:52.711Z</time></trkpt><trkpt lat="45.4450918" lon="10.6712782"><ele>83.0</ele><time>2026-03-28T14:43:53.71Z</time></trkpt><trkpt lat="45.4451858" lon="10.6711594"><ele>82.5</ele><time>2026-03-28T14:43:54.711Z</time></trkpt><trkpt lat="45.4452803" lon="10.6710354"><ele>82.0</ele><time>2026-03-28T14:43:55.711Z</time></trkpt><trkpt lat="45.4453758" lon="10.6709136"><ele>81.5</ele><time>2026-03-28T14:43:56.71Z</time></trkpt><trkpt lat="45.4454709" lon="10.6707953"><ele>81.0</ele><time>2026-03-28T14:43:57.71Z</time></trkpt><trkpt lat="45.4455642" lon="10.670677"><ele>81.0</ele><time>2026-03-28T14:43:58.711Z</time></trkpt><trkpt lat="45.4456497" lon="10.6705671"><ele>81.0</ele><time>2026-03-28T14:43:59.71Z</time></trkpt><trkpt lat="45.4457278" lon="10.6704668"><ele>81.0</ele><time>2026-03-28T14:44:00.71Z</time></trkpt><trkpt lat="45.4458032" lon="10.6703742"><ele>81.0</ele><time>2026-03-28T14:44:01.71Z</time></trkpt><trkpt lat="45.4458742" lon="10.6702836"><ele>81.0</ele><time>2026-03-28T14:44:02.71Z</time></trkpt><trkpt lat="45.4459443" lon="10.6701977"><ele>81.16666666666667</ele><time>2026-03-28T14:44:03.711Z</time></trkpt><trkpt lat="45.446013" lon="10.6701144"><ele>81.33333333333333</ele><time>2026-03-28T14:44:04.71Z</time></trkpt><trkpt lat="45.4460777" lon="10.6700333"><ele>81.5</ele><time>2026-03-28T14:44:05.71Z</time></trkpt><trkpt lat="45.4461433" lon="10.6699523"><ele>81.66666666666666</ele><time>2026-03-28T14:44:06.711Z</time></trkpt><trkpt lat="45.4462076" lon="10.669867"><ele>81.83333333333333</ele><time>2026-03-28T14:44:07.71Z</time></trkpt><trkpt lat="45.4462704" lon="10.6697855"><ele>82.0</ele><time>2026-03-28T14:44:08.71Z</time></trkpt><trkpt lat="45.4463343" lon="10.6697061"><ele>82.33333333333333</ele><time>2026-03-28T14:44:09.71Z</time></trkpt><trkpt lat="45.4463984" lon="10.6696248"><ele>82.66666666666666</ele><time>2026-03-28T14:44:10.711Z</time></trkpt><trkpt lat="45.4464605" lon="10.6695459"><ele>83.0</ele><time>2026-03-28T14:44:11.71Z</time></trkpt><trkpt lat="45.4465206" lon="10.6694665"><ele>83.33333333333333</ele><time>2026-03-28T14:44:12.71Z</time></trkpt><trkpt lat="45.4465746" lon="10.6693935"><ele>83.66666666666667</ele><time>2026-03-28T14:44:13.71Z</time></trkpt><trkpt lat="45.446624" lon="10.6693271"><ele>84.0</ele><time>2026-03-28T14:44:14.71Z</time></trkpt><trkpt lat="45.4466685" lon="10.6692616"><ele>84.0</ele><time>2026-03-28T14:44:15.711Z</time></trkpt><trkpt lat="45.4467534" lon="10.6691426"><ele>84.0</ele><time>2026-03-28T14:44:17.711Z</time></trkpt><trkpt lat="45.4468223" lon="10.669062"><ele>84.0</ele><time>2026-03-28T14:44:19.71Z</time></trkpt><trkpt lat="45.446899" lon="10.6689914"><ele>84.0</ele><time>2026-03-28T14:44:21.71Z</time></trkpt><trkpt lat="45.4469905" lon="10.6688754"><ele>84.0</ele><time>2026-03-28T14:44:23.711Z</time></trkpt><trkpt lat="45.4470481" lon="10.6687996"><ele>84.0</ele><time>2026-03-28T14:44:24.711Z</time></trkpt><trkpt lat="45.4471156" lon="10.6687086"><ele>84.0</ele><time>2026-03-28T14:44:25.71Z</time></trkpt><trkpt lat="45.4471933" lon="10.6686045"><ele>84.0</ele><time>2026-03-28T14:44:26.71Z</time></trkpt><trkpt lat="45.4472787" lon="10.6684959"><ele>84.0</ele><time>2026-03-28T14:44:27.711Z</time></trkpt><trkpt lat="45.4473607" lon="10.6684005"><ele>84.0</ele><time>2026-03-28T14:44:28.71Z</time></trkpt><trkpt lat="45.4474308" lon="10.6683099"><ele>83.80000000000001</ele><time>2026-03-28T14:44:29.711Z</time></trkpt><trkpt lat="45.447502" lon="10.668217"><ele>83.60000000000001</ele><time>2026-03-28T14:44:30.71Z</time></trkpt><trkpt lat="45.4475741" lon="10.6681233"><ele>83.4</ele><time>2026-03-28T14:44:31.71Z</time></trkpt><trkpt lat="45.4476513" lon="10.668023"><ele>83.2</ele><time>2026-03-28T14:44:32.711Z</time></trkpt><trkpt lat="45.4477302" lon="10.667918"><ele>83.0</ele><time>2026-03-28T14:44:33.71Z</time></trkpt><trkpt lat="45.4478123" lon="10.6678108"><ele>82.60000000000001</ele><time>2026-03-28T14:44:34.71Z</time></trkpt><trkpt lat="45.4478964" lon="10.6677039"><ele>82.2</ele><time>2026-03-28T14:44:35.71Z</time></trkpt><trkpt lat="45.447975" lon="10.6676044"><ele>81.8</ele><time>2026-03-28T14:44:36.71Z</time></trkpt><trkpt lat="45.4480503" lon="10.6675074"><ele>81.4</ele><time>2026-03-28T14:44:37.71Z</time></trkpt><trkpt lat="45.4481237" lon="10.6674105"><ele>81.0</ele><time>2026-03-28T14:44:38.711Z</time></trkpt><trkpt lat="45.4481995" lon="10.6673117"><ele>80.8</ele><time>2026-03-28T14:44:39.711Z</time></trkpt><trkpt lat="45.4482706" lon="10.6672221"><ele>80.6</ele><time>2026-03-28T14:44:40.711Z</time></trkpt><trkpt lat="45.4483414" lon="10.667128"><ele>80.4</ele><time>2026-03-28T14:44:41.711Z</time></trkpt><trkpt lat="45.4484169" lon="10.6670319"><ele>80.2</ele><time>2026-03-28T14:44:42.711Z</time></trkpt><trkpt lat="45.4484928" lon="10.6669348"><ele>80.0</ele><time>2026-03-28T14:44:43.711Z</time></trkpt><trkpt lat="45.4485714" lon="10.6668356"><ele>80.0</ele><time>2026-03-28T14:44:44.711Z</time></trkpt><trkpt lat="45.4486528" lon="10.6667309"><ele>80.0</ele><time>2026-03-28T14:44:45.711Z</time></trkpt><trkpt lat="45.4487366" lon="10.6666208"><ele>80.0</ele><time>2026-03-28T14:44:46.711Z</time></trkpt><trkpt lat="45.4488199" lon="10.6665115"><ele>80.0</ele><time>2026-03-28T14:44:47.711Z</time></trkpt><trkpt lat="45.4488993" lon="10.6664087"><ele>80.0</ele><time>2026-03-28T14:44:48.711Z</time></trkpt><trkpt lat="45.4489787" lon="10.6663089"><ele>79.6</ele><time>2026-03-28T14:44:49.711Z</time></trkpt><trkpt lat="45.4490589" lon="10.6662045"><ele>79.2</ele><time>2026-03-28T14:44:50.709Z</time></trkpt><trkpt lat="45.4491398" lon="10.6661035"><ele>78.8</ele><time>2026-03-28T14:44:51.711Z</time></trkpt><trkpt lat="45.4492192" lon="10.6660019"><ele>78.4</ele><time>2026-03-28T14:44:52.71Z</time></trkpt><trkpt lat="45.449297" lon="10.6658993"><ele>78.0</ele><time>2026-03-28T14:44:53.709Z</time></trkpt><trkpt lat="45.4493755" lon="10.6657976"><ele>78.0</ele><time>2026-03-28T14:44:54.711Z</time></trkpt><trkpt lat="45.4494574" lon="10.6656935"><ele>78.0</ele><time>2026-03-28T14:44:55.711Z</time></trkpt><trkpt lat="45.4495393" lon="10.6655859"><ele>78.0</ele><time>2026-03-28T14:44:56.71Z</time></trkpt><trkpt lat="45.4496218" lon="10.6654784"><ele>78.0</ele><time>2026-03-28T14:44:57.71Z</time></trkpt><trkpt lat="45.4497073" lon="10.6653685"><ele>78.0</ele><time>2026-03-28T14:44:58.711Z</time></trkpt><trkpt lat="45.4497944" lon="10.6652535"><ele>77.25</ele><time>2026-03-28T14:44:59.711Z</time></trkpt><trkpt lat="45.4498838" lon="10.665138"><ele>76.5</ele><time>2026-03-28T14:45:00.71Z</time></trkpt><trkpt lat="45.4499744" lon="10.665016"><ele>75.75</ele><time>2026-03-28T14:45:01.71Z</time></trkpt><trkpt lat="45.450068" lon="10.6648938"><ele>75.0</ele><time>2026-03-28T14:45:02.71Z</time></trkpt><trkpt lat="45.4501617" lon="10.6647714"><ele>75.0</ele><time>2026-03-28T14:45:03.71Z</time></trkpt><trkpt lat="45.4502546" lon="10.6646508"><ele>75.0</ele><time>2026-03-28T14:45:04.71Z</time></trkpt><trkpt lat="45.450348" lon="10.6645328"><ele>75.0</ele><time>2026-03-28T14:45:05.711Z</time></trkpt><trkpt lat="45.4504387" lon="10.6644112"><ele>75.0</ele><time>2026-03-28T14:45:06.71Z</time></trkpt><trkpt lat="45.450534" lon="10.6642917"><ele>74.5</ele><time>2026-03-28T14:45:07.71Z</time></trkpt><trkpt lat="45.4506296" lon="10.664169"><ele>74.0</ele><time>2026-03-28T14:45:08.71Z</time></trkpt><trkpt lat="45.4507227" lon="10.6640452"><ele>73.5</ele><time>2026-03-28T14:45:09.71Z</time></trkpt><trkpt lat="45.4508109" lon="10.663928"><ele>73.0</ele><time>2026-03-28T14:45:10.71Z</time></trkpt><trkpt lat="45.4508932" lon="10.66382"><ele>73.0</ele><time>2026-03-28T14:45:11.711Z</time></trkpt><trkpt lat="45.4509702" lon="10.66372"><ele>73.0</ele><time>2026-03-28T14:45:12.71Z</time></trkpt><trkpt lat="45.45104" lon="10.6636329"><ele>73.0</ele><time>2026-03-28T14:45:13.711Z</time></trkpt><trkpt lat="45.4510983" lon="10.6635598"><ele>73.0</ele><time>2026-03-28T14:45:14.71Z</time></trkpt><trkpt lat="45.451147" lon="10.663501"><ele>73.0</ele><time>2026-03-28T14:45:15.711Z</time></trkpt><trkpt lat="45.4512543" lon="10.6634193"><ele>72.85714285714286</ele><time>2026-03-28T14:45:17.711Z</time></trkpt><trkpt lat="45.4513202" lon="10.663403"><ele>72.71428571428572</ele><time>2026-03-28T14:45:18.711Z</time></trkpt><trkpt lat="45.4513905" lon="10.6633886"><ele>72.57142857142858</ele><time>2026-03-28T14:45:19.711Z</time></trkpt><trkpt lat="45.4514541" lon="10.6633431"><ele>72.42857142857143</ele><time>2026-03-28T14:45:20.711Z</time></trkpt><trkpt lat="45.4514988" lon="10.6632687"><ele>72.28571428571429</ele><time>2026-03-28T14:45:21.71Z</time></trkpt><trkpt lat="45.4515289" lon="10.6631772"><ele>72.14285714285715</ele><time>2026-03-28T14:45:22.71Z</time></trkpt><trkpt lat="45.451551" lon="10.6630779"><ele>72.0</ele><time>2026-03-28T14:45:23.71Z</time></trkpt><trkpt lat="45.4515927" lon="10.6629786"><ele>72.0</ele><time>2026-03-28T14:45:24.71Z</time></trkpt><trkpt lat="45.4516445" lon="10.6628737"><ele>72.0</ele><time>2026-03-28T14:45:25.711Z</time></trkpt><trkpt lat="45.4517172" lon="10.662763"><ele>72.0</ele><time>2026-03-28T14:45:26.71Z</time></trkpt><trkpt lat="45.451804" lon="10.6626365"><ele>72.0</ele><time>2026-03-28T14:45:27.711Z</time></trkpt><trkpt lat="45.4519036" lon="10.6624929"><ele>72.0</ele><time>2026-03-28T14:45:28.71Z</time></trkpt><trkpt lat="45.4520194" lon="10.6623273"><ele>72.0</ele><time>2026-03-28T14:45:29.71Z</time></trkpt><trkpt lat="45.4521586" lon="10.6621502"><ele>72.0</ele><time>2026-03-28T14:45:30.711Z</time></trkpt><trkpt lat="45.4523082" lon="10.6619688"><ele>71.33333333333333</ele><time>2026-03-28T14:45:31.711Z</time></trkpt><trkpt lat="45.4524412" lon="10.661805"><ele>70.66666666666666</ele><time>2026-03-28T14:45:32.71Z</time></trkpt><trkpt lat="45.4525643" lon="10.6616466"><ele>70.0</ele><time>2026-03-28T14:45:33.71Z</time></trkpt><trkpt lat="45.4526782" lon="10.6614994"><ele>70.0</ele><time>2026-03-28T14:45:34.71Z</time></trkpt><trkpt lat="45.4527815" lon="10.6613597"><ele>70.0</ele><time>2026-03-28T14:45:35.71Z</time></trkpt><trkpt lat="45.4528745" lon="10.6612121"><ele>70.0</ele><time>2026-03-28T14:45:36.71Z</time></trkpt><trkpt lat="45.4529542" lon="10.6610452"><ele>70.0</ele><time>2026-03-28T14:45:37.711Z</time></trkpt><trkpt lat="45.4530201" lon="10.6608633"><ele>69.25</ele><time>2026-03-28T14:45:38.71Z</time></trkpt><trkpt lat="45.4530748" lon="10.6606694"><ele>68.5</ele><time>2026-03-28T14:45:39.71Z</time></trkpt><trkpt lat="45.4531164" lon="10.6604718"><ele>67.75</ele><time>2026-03-28T14:45:40.711Z</time></trkpt><trkpt lat="45.4531485" lon="10.6602794"><ele>67.0</ele><time>2026-03-28T14:45:41.71Z</time></trkpt><trkpt lat="45.4531767" lon="10.660094"><ele>67.0</ele><time>2026-03-28T14:45:42.711Z</time></trkpt><trkpt lat="45.4532009" lon="10.6599122"><ele>67.0</ele><time>2026-03-28T14:45:43.711Z</time></trkpt><trkpt lat="45.4532258" lon="10.6597289"><ele>67.0</ele><time>2026-03-28T14:45:44.71Z</time></trkpt><trkpt lat="45.4532513" lon="10.6595394"><ele>67.0</ele><time>2026-03-28T14:45:45.71Z</time></trkpt><trkpt lat="45.4532774" lon="10.6593435"><ele>67.25</ele><time>2026-03-28T14:45:46.71Z</time></trkpt><trkpt lat="45.453303" lon="10.6591418"><ele>67.5</ele><time>2026-03-28T14:45:47.71Z</time></trkpt><trkpt lat="45.4533286" lon="10.6589351"><ele>67.75</ele><time>2026-03-28T14:45:48.71Z</time></trkpt><trkpt lat="45.4533545" lon="10.6587289"><ele>68.0</ele><time>2026-03-28T14:45:49.711Z</time></trkpt><trkpt lat="45.4533809" lon="10.6585217"><ele>68.25</ele><time>2026-03-28T14:45:50.71Z</time></trkpt><trkpt lat="45.4534073" lon="10.6583158"><ele>68.5</ele><time>2026-03-28T14:45:51.71Z</time></trkpt><trkpt lat="45.4534331" lon="10.6581133"><ele>68.75</ele><time>2026-03-28T14:45:52.711Z</time></trkpt><trkpt lat="45.4534597" lon="10.6579082"><ele>69.0</ele><time>2026-03-28T14:45:53.71Z</time></trkpt><trkpt lat="45.4534875" lon="10.6577008"><ele>69.25</ele><time>2026-03-28T14:45:54.711Z</time></trkpt><trkpt lat="45.4535128" lon="10.6575022"><ele>69.5</ele><time>2026-03-28T14:45:55.712Z</time></trkpt><trkpt lat="45.4535371" lon="10.6573113"><ele>69.75</ele><time>2026-03-28T14:45:56.711Z</time></trkpt><trkpt lat="45.4535634" lon="10.6571156"><ele>70.0</ele><time>2026-03-28T14:45:57.71Z</time></trkpt><trkpt lat="45.4535901" lon="10.6569151"><ele>70.25</ele><time>2026-03-28T14:45:58.711Z</time></trkpt><trkpt lat="45.4536171" lon="10.6567105"><ele>70.5</ele><time>2026-03-28T14:45:59.71Z</time></trkpt><trkpt lat="45.4536436" lon="10.6565043"><ele>70.75</ele><time>2026-03-28T14:46:00.71Z</time></trkpt><trkpt lat="45.4536692" lon="10.6562999"><ele>71.0</ele><time>2026-03-28T14:46:01.711Z</time></trkpt><trkpt lat="45.4536956" lon="10.6560976"><ele>71.25</ele><time>2026-03-28T14:46:02.71Z</time></trkpt><trkpt lat="45.4537224" lon="10.6558911"><ele>71.5</ele><time>2026-03-28T14:46:03.71Z</time></trkpt><trkpt lat="45.4537501" lon="10.6556818"><ele>71.75</ele><time>2026-03-28T14:46:04.711Z</time></trkpt><trkpt lat="45.4537767" lon="10.6554705"><ele>72.0</ele><time>2026-03-28T14:46:05.71Z</time></trkpt><trkpt lat="45.4538044" lon="10.6552621"><ele>72.25</ele><time>2026-03-28T14:46:06.71Z</time></trkpt><trkpt lat="45.4538306" lon="10.6550636"><ele>72.5</ele><time>2026-03-28T14:46:07.711Z</time></trkpt><trkpt lat="45.4538554" lon="10.6548732"><ele>72.75</ele><time>2026-03-28T14:46:08.71Z</time></trkpt><trkpt lat="45.4538811" lon="10.6546789"><ele>73.0</ele><time>2026-03-28T14:46:09.711Z</time></trkpt><trkpt lat="45.4539061" lon="10.6544805"><ele>72.25</ele><time>2026-03-28T14:46:10.71Z</time></trkpt><trkpt lat="45.4539329" lon="10.6542782"><ele>71.5</ele><time>2026-03-28T14:46:11.711Z</time></trkpt><trkpt lat="45.4539592" lon="10.6540696"><ele>70.75</ele><time>2026-03-28T14:46:12.71Z</time></trkpt><trkpt lat="45.4539868" lon="10.6538577"><ele>70.0</ele><time>2026-03-28T14:46:13.711Z</time></trkpt><trkpt lat="45.4540152" lon="10.653642"><ele>70.66666666666666</ele><time>2026-03-28T14:46:14.71Z</time></trkpt><trkpt lat="45.4540444" lon="10.6534235"><ele>71.33333333333333</ele><time>2026-03-28T14:46:15.711Z</time></trkpt><trkpt lat="45.4540736" lon="10.6532071"><ele>72.0</ele><time>2026-03-28T14:46:16.711Z</time></trkpt><trkpt lat="45.4541019" lon="10.6529942"><ele>71.5</ele><time>2026-03-28T14:46:17.71Z</time></trkpt><trkpt lat="45.4541295" lon="10.6527852"><ele>71.0</ele><time>2026-03-28T14:46:18.71Z</time></trkpt><trkpt lat="45.4541575" lon="10.6525801"><ele>70.5</ele><time>2026-03-28T14:46:19.711Z</time></trkpt><trkpt lat="45.4541855" lon="10.652371"><ele>70.0</ele><time>2026-03-28T14:46:20.711Z</time></trkpt><trkpt lat="45.4542143" lon="10.6521612"><ele>69.33333333333333</ele><time>2026-03-28T14:46:21.71Z</time></trkpt><trkpt lat="45.4542425" lon="10.6519497"><ele>68.66666666666667</ele><time>2026-03-28T14:46:22.71Z</time></trkpt><trkpt lat="45.4542703" lon="10.6517348"><ele>68.0</ele><time>2026-03-28T14:46:23.71Z</time></trkpt><trkpt lat="45.4542992" lon="10.6515171"><ele>68.0</ele><time>2026-03-28T14:46:24.71Z</time></trkpt><trkpt lat="45.4543284" lon="10.6512955"><ele>68.0</ele><time>2026-03-28T14:46:25.711Z</time></trkpt><trkpt lat="45.4543576" lon="10.6510706"><ele>68.0</ele><time>2026-03-28T14:46:26.711Z</time></trkpt><trkpt lat="45.4543875" lon="10.6508429"><ele>68.0</ele><time>2026-03-28T14:46:27.711Z</time></trkpt><trkpt lat="45.4544171" lon="10.650614"><ele>68.0</ele><time>2026-03-28T14:46:28.71Z</time></trkpt><trkpt lat="45.4544479" lon="10.6503837"><ele>68.0</ele><time>2026-03-28T14:46:29.71Z</time></trkpt><trkpt lat="45.4544781" lon="10.6501515"><ele>68.0</ele><time>2026-03-28T14:46:30.711Z</time></trkpt><trkpt lat="45.454509" lon="10.6499174"><ele>68.0</ele><time>2026-03-28T14:46:31.711Z</time></trkpt><trkpt lat="45.4545396" lon="10.6496785"><ele>68.0</ele><time>2026-03-28T14:46:32.71Z</time></trkpt><trkpt lat="45.4545711" lon="10.6494378"><ele>68.0</ele><time>2026-03-28T14:46:33.71Z</time></trkpt><trkpt lat="45.4546031" lon="10.6491969"><ele>68.0</ele><time>2026-03-28T14:46:34.71Z</time></trkpt><trkpt lat="45.4546352" lon="10.6489556"><ele>68.0</ele><time>2026-03-28T14:46:35.71Z</time></trkpt><trkpt lat="45.4546672" lon="10.648714"><ele>67.66666666666667</ele><time>2026-03-28T14:46:36.71Z</time></trkpt><trkpt lat="45.4546991" lon="10.6484711"><ele>67.33333333333333</ele><time>2026-03-28T14:46:37.71Z</time></trkpt><trkpt lat="45.4547333" lon="10.6482308"><ele>67.0</ele><time>2026-03-28T14:46:38.711Z</time></trkpt><trkpt lat="45.45477" lon="10.6479959"><ele>66.66666666666666</ele><time>2026-03-28T14:46:39.71Z</time></trkpt><trkpt lat="45.4548112" lon="10.6477668"><ele>66.33333333333333</ele><time>2026-03-28T14:46:40.71Z</time></trkpt><trkpt lat="45.4548586" lon="10.6475437"><ele>66.0</ele><time>2026-03-28T14:46:41.711Z</time></trkpt><trkpt lat="45.4549108" lon="10.647324"><ele>66.0</ele><time>2026-03-28T14:46:42.711Z</time></trkpt><trkpt lat="45.4549639" lon="10.6471059"><ele>66.0</ele><time>2026-03-28T14:46:43.711Z</time></trkpt><trkpt lat="45.4550141" lon="10.6468879"><ele>66.0</ele><time>2026-03-28T14:46:44.711Z</time></trkpt><trkpt lat="45.4550653" lon="10.6466691"><ele>65.66666666666667</ele><time>2026-03-28T14:46:45.71Z</time></trkpt><trkpt lat="45.4551183" lon="10.6464515"><ele>65.33333333333334</ele><time>2026-03-28T14:46:46.71Z</time></trkpt><trkpt lat="45.4551708" lon="10.646229"><ele>65.0</ele><time>2026-03-28T14:46:47.711Z</time></trkpt><trkpt lat="45.4552234" lon="10.646003"><ele>66.0</ele><time>2026-03-28T14:46:48.71Z</time></trkpt><trkpt lat="45.4552787" lon="10.6457714"><ele>67.0</ele><time>2026-03-28T14:46:49.711Z</time></trkpt><trkpt lat="45.4553336" lon="10.6455364"><ele>68.0</ele><time>2026-03-28T14:46:50.71Z</time></trkpt><trkpt lat="45.455389" lon="10.6452964"><ele>68.0</ele><time>2026-03-28T14:46:51.711Z</time></trkpt><trkpt lat="45.4554456" lon="10.645052"><ele>68.0</ele><time>2026-03-28T14:46:52.711Z</time></trkpt><trkpt lat="45.4555027" lon="10.6448025"><ele>68.0</ele><time>2026-03-28T14:46:53.71Z</time></trkpt><trkpt lat="45.4555581" lon="10.6445608"><ele>67.66666666666667</ele><time>2026-03-28T14:46:54.71Z</time></trkpt><trkpt lat="45.4556104" lon="10.6443341"><ele>67.33333333333333</ele><time>2026-03-28T14:46:55.711Z</time></trkpt><trkpt lat="45.4556616" lon="10.6441177"><ele>67.0</ele><time>2026-03-28T14:46:56.711Z</time></trkpt><trkpt lat="45.4557109" lon="10.6439002"><ele>67.0</ele><time>2026-03-28T14:46:57.71Z</time></trkpt><trkpt lat="45.4557599" lon="10.6436811"><ele>67.0</ele><time>2026-03-28T14:46:58.71Z</time></trkpt><trkpt lat="45.4558083" lon="10.6434625"><ele>67.0</ele><time>2026-03-28T14:46:59.71Z</time></trkpt><trkpt lat="45.455858" lon="10.6432437"><ele>67.0</ele><time>2026-03-28T14:47:00.71Z</time></trkpt><trkpt lat="45.4559102" lon="10.643022"><ele>67.0</ele><time>2026-03-28T14:47:01.71Z</time></trkpt><trkpt lat="45.4559667" lon="10.6427906"><ele>67.0</ele><time>2026-03-28T14:47:02.71Z</time></trkpt><trkpt lat="45.4560249" lon="10.6425563"><ele>67.0</ele><time>2026-03-28T14:47:03.71Z</time></trkpt><trkpt lat="45.4560869" lon="10.6423181"><ele>67.0</ele><time>2026-03-28T14:47:04.71Z</time></trkpt><trkpt lat="45.4561507" lon="10.642086"><ele>67.0</ele><time>2026-03-28T14:47:05.71Z</time></trkpt><trkpt lat="45.4562114" lon="10.6418673"><ele>67.0</ele><time>2026-03-28T14:47:06.71Z</time></trkpt><trkpt lat="45.4562667" lon="10.6416619"><ele>67.0</ele><time>2026-03-28T14:47:07.711Z</time></trkpt><trkpt lat="45.4563191" lon="10.6414717"><ele>67.0</ele><time>2026-03-28T14:47:08.711Z</time></trkpt><trkpt lat="45.4563676" lon="10.6412947"><ele>67.0</ele><time>2026-03-28T14:47:09.711Z</time></trkpt><trkpt lat="45.4564114" lon="10.6411336"><ele>67.2</ele><time>2026-03-28T14:47:10.71Z</time></trkpt><trkpt lat="45.4564536" lon="10.6409857"><ele>67.4</ele><time>2026-03-28T14:47:11.711Z</time></trkpt><trkpt lat="45.456492" lon="10.6408578"><ele>67.6</ele><time>2026-03-28T14:47:12.71Z</time></trkpt><trkpt lat="45.4565262" lon="10.640745"><ele>67.8</ele><time>2026-03-28T14:47:13.71Z</time></trkpt><trkpt lat="45.4565585" lon="10.6406378"><ele>68.0</ele><time>2026-03-28T14:47:14.711Z</time></trkpt><trkpt lat="45.4565944" lon="10.6405254"><ele>68.0</ele><time>2026-03-28T14:47:15.71Z</time></trkpt><trkpt lat="45.4566313" lon="10.6404155"><ele>68.0</ele><time>2026-03-28T14:47:16.711Z</time></trkpt><trkpt lat="45.4566738" lon="10.6403071"><ele>68.0</ele><time>2026-03-28T14:47:17.71Z</time></trkpt><trkpt lat="45.4567212" lon="10.6401974"><ele>68.0</ele><time>2026-03-28T14:47:18.71Z</time></trkpt><trkpt lat="45.4567641" lon="10.6400796"><ele>68.0</ele><time>2026-03-28T14:47:19.711Z</time></trkpt><trkpt lat="45.4567928" lon="10.6399427"><ele>68.5</ele><time>2026-03-28T14:47:20.711Z</time></trkpt><trkpt lat="45.4568115" lon="10.6397911"><ele>69.0</ele><time>2026-03-28T14:47:21.71Z</time></trkpt><trkpt lat="45.4568352" lon="10.639624"><ele>69.5</ele><time>2026-03-28T14:47:22.711Z</time></trkpt><trkpt lat="45.4568804" lon="10.639441"><ele>70.0</ele><time>2026-03-28T14:47:23.711Z</time></trkpt><trkpt lat="45.456937" lon="10.639243"><ele>70.0</ele><time>2026-03-28T14:47:24.711Z</time></trkpt><trkpt lat="45.4569992" lon="10.6390305"><ele>70.0</ele><time>2026-03-28T14:47:25.71Z</time></trkpt><trkpt lat="45.457055" lon="10.6388201"><ele>70.0</ele><time>2026-03-28T14:47:26.711Z</time></trkpt><trkpt lat="45.4571068" lon="10.6386295"><ele>70.25</ele><time>2026-03-28T14:47:27.711Z</time></trkpt><trkpt lat="45.4571574" lon="10.6384503"><ele>70.5</ele><time>2026-03-28T14:47:28.71Z</time></trkpt><trkpt lat="45.4572043" lon="10.6382806"><ele>70.75</ele><time>2026-03-28T14:47:29.711Z</time></trkpt><trkpt lat="45.4572508" lon="10.638111"><ele>71.0</ele><time>2026-03-28T14:47:30.71Z</time></trkpt><trkpt lat="45.4572962" lon="10.6379435"><ele>71.25</ele><time>2026-03-28T14:47:31.711Z</time></trkpt><trkpt lat="45.4573437" lon="10.6377786"><ele>71.5</ele><time>2026-03-28T14:47:32.711Z</time></trkpt><trkpt lat="45.4573905" lon="10.6376171"><ele>71.75</ele><time>2026-03-28T14:47:33.71Z</time></trkpt><trkpt lat="45.4574337" lon="10.6374583"><ele>72.0</ele><time>2026-03-28T14:47:34.71Z</time></trkpt><trkpt lat="45.4574756" lon="10.6373029"><ele>72.0</ele><time>2026-03-28T14:47:35.71Z</time></trkpt><trkpt lat="45.4575174" lon="10.6371517"><ele>72.0</ele><time>2026-03-28T14:47:36.711Z</time></trkpt><trkpt lat="45.4575606" lon="10.6369956"><ele>72.0</ele><time>2026-03-28T14:47:37.71Z</time></trkpt><trkpt lat="45.4576028" lon="10.6368439"><ele>72.0</ele><time>2026-03-28T14:47:38.711Z</time></trkpt><trkpt lat="45.4576441" lon="10.6366911"><ele>71.6</ele><time>2026-03-28T14:47:39.711Z</time></trkpt><trkpt lat="45.4576861" lon="10.6365413"><ele>71.2</ele><time>2026-03-28T14:47:40.711Z</time></trkpt><trkpt lat="45.457725" lon="10.6364006"><ele>70.8</ele><time>2026-03-28T14:47:41.711Z</time></trkpt><trkpt lat="45.4577635" lon="10.6362653"><ele>70.4</ele><time>2026-03-28T14:47:42.71Z</time></trkpt><trkpt lat="45.4577989" lon="10.6361415"><ele>70.0</ele><time>2026-03-28T14:47:43.711Z</time></trkpt><trkpt lat="45.4578326" lon="10.6360284"><ele>70.0</ele><time>2026-03-28T14:47:44.709Z</time></trkpt><trkpt lat="45.4578595" lon="10.6359291"><ele>70.0</ele><time>2026-03-28T14:47:45.71Z</time></trkpt><trkpt lat="45.457886" lon="10.6358354"><ele>70.0</ele><time>2026-03-28T14:47:46.71Z</time></trkpt><trkpt lat="45.45791" lon="10.635746"><ele>70.0</ele><time>2026-03-28T14:47:47.71Z</time></trkpt><trkpt lat="45.4579344" lon="10.6356556"><ele>70.0</ele><time>2026-03-28T14:47:48.711Z</time></trkpt><trkpt lat="45.4579603" lon="10.6355564"><ele>70.0</ele><time>2026-03-28T14:47:49.71Z</time></trkpt><trkpt lat="45.4579887" lon="10.6354527"><ele>70.0</ele><time>2026-03-28T14:47:50.711Z</time></trkpt><trkpt lat="45.4580184" lon="10.6353322"><ele>69.75</ele><time>2026-03-28T14:47:51.71Z</time></trkpt><trkpt lat="45.4580497" lon="10.6351947"><ele>69.5</ele><time>2026-03-28T14:47:52.711Z</time></trkpt><trkpt lat="45.4580868" lon="10.6350324"><ele>69.25</ele><time>2026-03-28T14:47:53.71Z</time></trkpt><trkpt lat="45.4581326" lon="10.6348425"><ele>69.0</ele><time>2026-03-28T14:47:54.711Z</time></trkpt><trkpt lat="45.4581947" lon="10.6346325"><ele>68.33333333333333</ele><time>2026-03-28T14:47:55.71Z</time></trkpt><trkpt lat="45.4582669" lon="10.634406"><ele>67.66666666666666</ele><time>2026-03-28T14:47:56.711Z</time></trkpt><trkpt lat="45.4583378" lon="10.6341816"><ele>67.0</ele><time>2026-03-28T14:47:57.71Z</time></trkpt><trkpt lat="45.4584029" lon="10.6339702"><ele>67.0</ele><time>2026-03-28T14:47:58.71Z</time></trkpt><trkpt lat="45.4584614" lon="10.6337661"><ele>67.0</ele><time>2026-03-28T14:47:59.711Z</time></trkpt><trkpt lat="45.4585162" lon="10.6335668"><ele>67.0</ele><time>2026-03-28T14:48:00.71Z</time></trkpt><trkpt lat="45.4585714" lon="10.6333661"><ele>66.66666666666666</ele><time>2026-03-28T14:48:01.711Z</time></trkpt><trkpt lat="45.458627" lon="10.6331635"><ele>66.33333333333333</ele><time>2026-03-28T14:48:02.711Z</time></trkpt><trkpt lat="45.4586839" lon="10.6329601"><ele>66.0</ele><time>2026-03-28T14:48:03.711Z</time></trkpt><trkpt lat="45.4587411" lon="10.6327544"><ele>65.66666666666667</ele><time>2026-03-28T14:48:04.711Z</time></trkpt><trkpt lat="45.4588002" lon="10.6325449"><ele>65.33333333333334</ele><time>2026-03-28T14:48:05.71Z</time></trkpt><trkpt lat="45.4588602" lon="10.6323267"><ele>65.0</ele><time>2026-03-28T14:48:06.711Z</time></trkpt><trkpt lat="45.4589232" lon="10.6321014"><ele>65.33333333333334</ele><time>2026-03-28T14:48:07.71Z</time></trkpt><trkpt lat="45.4589865" lon="10.6318709"><ele>65.66666666666667</ele><time>2026-03-28T14:48:08.71Z</time></trkpt><trkpt lat="45.4590493" lon="10.6316473"><ele>66.0</ele><time>2026-03-28T14:48:09.711Z</time></trkpt><trkpt lat="45.4591091" lon="10.6314361"><ele>66.0</ele><time>2026-03-28T14:48:10.711Z</time></trkpt><trkpt lat="45.4591688" lon="10.6312266"><ele>66.0</ele><time>2026-03-28T14:48:11.71Z</time></trkpt><trkpt lat="45.4592308" lon="10.6310094"><ele>66.0</ele><time>2026-03-28T14:48:12.711Z</time></trkpt><trkpt lat="45.4592921" lon="10.6307897"><ele>66.0</ele><time>2026-03-28T14:48:13.71Z</time></trkpt><trkpt lat="45.4593552" lon="10.6305676"><ele>66.0</ele><time>2026-03-28T14:48:14.711Z</time></trkpt><trkpt lat="45.4594188" lon="10.6303418"><ele>66.0</ele><time>2026-03-28T14:48:15.71Z</time></trkpt><trkpt lat="45.4594819" lon="10.6301217"><ele>66.0</ele><time>2026-03-28T14:48:16.711Z</time></trkpt><trkpt lat="45.4595435" lon="10.6299066"><ele>66.0</ele><time>2026-03-28T14:48:17.71Z</time></trkpt><trkpt lat="45.4596062" lon="10.6296892"><ele>66.0</ele><time>2026-03-28T14:48:18.711Z</time></trkpt><trkpt lat="45.4596647" lon="10.6294848"><ele>66.8</ele><time>2026-03-28T14:48:19.71Z</time></trkpt><trkpt lat="45.4597199" lon="10.6292951"><ele>67.6</ele><time>2026-03-28T14:48:20.71Z</time></trkpt><trkpt lat="45.4597625" lon="10.6291433"><ele>68.4</ele><time>2026-03-28T14:48:21.71Z</time></trkpt><trkpt lat="45.4597937" lon="10.6290322"><ele>69.2</ele><time>2026-03-28T14:48:22.71Z</time></trkpt><trkpt lat="45.4598313" lon="10.6288987"><ele>70.0</ele><time>2026-03-28T14:48:24.71Z</time></trkpt><trkpt lat="45.459862" lon="10.6287843"><ele>70.0</ele><time>2026-03-28T14:48:27.711Z</time></trkpt><trkpt lat="45.4598962" lon="10.6286483"><ele>70.0</ele><time>2026-03-28T14:48:29.711Z</time></trkpt><trkpt lat="45.4599299" lon="10.6284891"><ele>70.0</ele><time>2026-03-28T14:48:31.71Z</time></trkpt><trkpt lat="45.4599489" lon="10.6283415"><ele>70.0</ele><time>2026-03-28T14:48:33.71Z</time></trkpt><trkpt lat="45.459991" lon="10.6281873"><ele>70.0</ele><time>2026-03-28T14:48:35.711Z</time></trkpt><trkpt lat="45.4600224" lon="10.6281003"><ele>69.66666666666666</ele><time>2026-03-28T14:48:36.711Z</time></trkpt><trkpt lat="45.4600522" lon="10.6280098"><ele>69.33333333333333</ele><time>2026-03-28T14:48:37.711Z</time></trkpt><trkpt lat="45.4600735" lon="10.6279171"><ele>69.0</ele><time>2026-03-28T14:48:38.71Z</time></trkpt><trkpt lat="45.4600892" lon="10.6278267"><ele>68.66666666666667</ele><time>2026-03-28T14:48:39.711Z</time></trkpt><trkpt lat="45.4601272" lon="10.6276612"><ele>68.33333333333334</ele><time>2026-03-28T14:48:41.71Z</time></trkpt><trkpt lat="45.4601609" lon="10.6275847"><ele>68.0</ele><time>2026-03-28T14:48:42.71Z</time></trkpt><trkpt lat="45.4602013" lon="10.6275044"><ele>67.8</ele><time>2026-03-28T14:48:43.711Z</time></trkpt><trkpt lat="45.4602441" lon="10.6274009"><ele>67.6</ele><time>2026-03-28T14:48:44.711Z</time></trkpt><trkpt lat="45.4602858" lon="10.6272779"><ele>67.4</ele><time>2026-03-28T14:48:45.71Z</time></trkpt><trkpt lat="45.46033" lon="10.6271297"><ele>67.2</ele><time>2026-03-28T14:48:46.711Z</time></trkpt><trkpt lat="45.460377" lon="10.6269641"><ele>67.0</ele><time>2026-03-28T14:48:47.711Z</time></trkpt><trkpt lat="45.4604243" lon="10.6267956"><ele>67.0</ele><time>2026-03-28T14:48:48.71Z</time></trkpt><trkpt lat="45.4604651" lon="10.6266426"><ele>67.0</ele><time>2026-03-28T14:48:49.71Z</time></trkpt><trkpt lat="45.460504" lon="10.6264972"><ele>67.0</ele><time>2026-03-28T14:48:50.711Z</time></trkpt><trkpt lat="45.4605437" lon="10.6263523"><ele>67.0</ele><time>2026-03-28T14:48:51.71Z</time></trkpt><trkpt lat="45.4605855" lon="10.6262002"><ele>67.0</ele><time>2026-03-28T14:48:52.711Z</time></trkpt><trkpt lat="45.4606299" lon="10.6260422"><ele>67.0</ele><time>2026-03-28T14:48:53.711Z</time></trkpt><trkpt lat="45.4606712" lon="10.6258963"><ele>67.0</ele><time>2026-03-28T14:48:54.71Z</time></trkpt><trkpt lat="45.4607109" lon="10.625754"><ele>67.0</ele><time>2026-03-28T14:48:55.71Z</time></trkpt><trkpt lat="45.4607504" lon="10.6256093"><ele>67.0</ele><time>2026-03-28T14:48:56.711Z</time></trkpt><trkpt lat="45.4607927" lon="10.6254599"><ele>67.0</ele><time>2026-03-28T14:48:57.71Z</time></trkpt><trkpt lat="45.4608357" lon="10.6253078"><ele>66.75</ele><time>2026-03-28T14:48:58.71Z</time></trkpt><trkpt lat="45.4608822" lon="10.6251444"><ele>66.5</ele><time>2026-03-28T14:48:59.711Z</time></trkpt><trkpt lat="45.4609291" lon="10.6249798"><ele>66.25</ele><time>2026-03-28T14:49:00.711Z</time></trkpt><trkpt lat="45.4609744" lon="10.6248222"><ele>66.0</ele><time>2026-03-28T14:49:01.711Z</time></trkpt><trkpt lat="45.4610152" lon="10.6246739"><ele>66.0</ele><time>2026-03-28T14:49:02.711Z</time></trkpt><trkpt lat="45.4610521" lon="10.6245425"><ele>66.0</ele><time>2026-03-28T14:49:03.711Z</time></trkpt><trkpt lat="45.4610848" lon="10.6244255"><ele>66.0</ele><time>2026-03-28T14:49:04.71Z</time></trkpt><trkpt lat="45.461114" lon="10.6243173"><ele>66.0</ele><time>2026-03-28T14:49:05.71Z</time></trkpt><trkpt lat="45.4611422" lon="10.6242131"><ele>66.0</ele><time>2026-03-28T14:49:06.71Z</time></trkpt><trkpt lat="45.461168" lon="10.6241211"><ele>66.0</ele><time>2026-03-28T14:49:07.711Z</time></trkpt><trkpt lat="45.4611895" lon="10.6240353"><ele>66.0</ele><time>2026-03-28T14:49:08.711Z</time></trkpt><trkpt lat="45.4612303" lon="10.6238862"><ele>66.0</ele><time>2026-03-28T14:49:10.711Z</time></trkpt><trkpt lat="45.4612679" lon="10.6237448"><ele>66.0</ele><time>2026-03-28T14:49:12.711Z</time></trkpt><trkpt lat="45.4613084" lon="10.6235976"><ele>66.0</ele><time>2026-03-28T14:49:14.71Z</time></trkpt><trkpt lat="45.4613475" lon="10.6234455"><ele>66.0</ele><time>2026-03-28T14:49:16.71Z</time></trkpt><trkpt lat="45.4613841" lon="10.6233069"><ele>66.16666666666667</ele><time>2026-03-28T14:49:18.711Z</time></trkpt><trkpt lat="45.4614177" lon="10.6231912"><ele>66.33333333333333</ele><time>2026-03-28T14:49:20.71Z</time></trkpt><trkpt lat="45.4614516" lon="10.6230832"><ele>66.5</ele><time>2026-03-28T14:49:23.71Z</time></trkpt><trkpt lat="45.4614874" lon="10.622964"><ele>66.66666666666666</ele><time>2026-03-28T14:49:32.71Z</time></trkpt><trkpt lat="45.4615116" lon="10.6228777"><ele>66.83333333333333</ele><time>2026-03-28T14:49:34.71Z</time></trkpt><trkpt lat="45.4615368" lon="10.6227878"><ele>67.0</ele><time>2026-03-28T14:49:36.711Z</time></trkpt><trkpt lat="45.461567" lon="10.6226976"><ele>67.0</ele><time>2026-03-28T14:49:38.711Z</time></trkpt><trkpt lat="45.4616001" lon="10.6225844"><ele>67.0</ele><time>2026-03-28T14:49:41.71Z</time></trkpt><trkpt lat="45.4616191" lon="10.6224826"><ele>67.0</ele><time>2026-03-28T14:49:44.71Z</time></trkpt><trkpt lat="45.4616417" lon="10.6223847"><ele>67.0</ele><time>2026-03-28T14:49:46.711Z</time></trkpt><trkpt lat="45.4616715" lon="10.622252"><ele>67.0</ele><time>2026-03-28T14:49:48.711Z</time></trkpt><trkpt lat="45.4617008" lon="10.6220926"><ele>67.0</ele><time>2026-03-28T14:49:50.71Z</time></trkpt><trkpt lat="45.4617133" lon="10.6219994"><ele>67.16666666666666</ele><time>2026-03-28T14:49:51.71Z</time></trkpt><trkpt lat="45.4617254" lon="10.6219024"><ele>67.33333333333333</ele><time>2026-03-28T14:49:52.71Z</time></trkpt><trkpt lat="45.4617369" lon="10.6217989"><ele>67.5</ele><time>2026-03-28T14:49:53.711Z</time></trkpt><trkpt lat="45.4617466" lon="10.6216873"><ele>67.66666666666667</ele><time>2026-03-28T14:49:54.711Z</time></trkpt><trkpt lat="45.461758" lon="10.6215743"><ele>67.83333333333334</ele><time>2026-03-28T14:49:55.71Z</time></trkpt><trkpt lat="45.4617675" lon="10.6214669"><ele>68.0</ele><time>2026-03-28T14:49:56.711Z</time></trkpt><trkpt lat="45.4617791" lon="10.6213579"><ele>68.0</ele><time>2026-03-28T14:49:57.71Z</time></trkpt><trkpt lat="45.4617915" lon="10.6212441"><ele>68.0</ele><time>2026-03-28T14:49:58.71Z</time></trkpt><trkpt lat="45.4618027" lon="10.6211243"><ele>68.0</ele><time>2026-03-28T14:49:59.71Z</time></trkpt><trkpt lat="45.4618107" lon="10.6209993"><ele>68.0</ele><time>2026-03-28T14:50:00.71Z</time></trkpt><trkpt lat="45.4618243" lon="10.6208731"><ele>68.0</ele><time>2026-03-28T14:50:01.711Z</time></trkpt><trkpt lat="45.4618408" lon="10.6207363"><ele>68.0</ele><time>2026-03-28T14:50:02.711Z</time></trkpt><trkpt lat="45.4618626" lon="10.6205826"><ele>67.75</ele><time>2026-03-28T14:50:03.71Z</time></trkpt><trkpt lat="45.4618896" lon="10.6204233"><ele>67.5</ele><time>2026-03-28T14:50:04.71Z</time></trkpt><trkpt lat="45.461925" lon="10.6202545"><ele>67.25</ele><time>2026-03-28T14:50:05.711Z</time></trkpt><trkpt lat="45.4619674" lon="10.6200793"><ele>67.0</ele><time>2026-03-28T14:50:06.711Z</time></trkpt><trkpt lat="45.4620074" lon="10.6199101"><ele>66.8</ele><time>2026-03-28T14:50:07.71Z</time></trkpt><trkpt lat="45.4620455" lon="10.6197556"><ele>66.6</ele><time>2026-03-28T14:50:08.71Z</time></trkpt><trkpt lat="45.4620801" lon="10.6196161"><ele>66.39999999999999</ele><time>2026-03-28T14:50:09.711Z</time></trkpt><trkpt lat="45.4621104" lon="10.6194931"><ele>66.2</ele><time>2026-03-28T14:50:10.711Z</time></trkpt><trkpt lat="45.4621375" lon="10.6193754"><ele>66.0</ele><time>2026-03-28T14:50:11.71Z</time></trkpt><trkpt lat="45.4621643" lon="10.6192642"><ele>65.83333333333333</ele><time>2026-03-28T14:50:12.71Z</time></trkpt><trkpt lat="45.4621913" lon="10.6191518"><ele>65.66666666666667</ele><time>2026-03-28T14:50:13.71Z</time></trkpt><trkpt lat="45.4622197" lon="10.6190419"><ele>65.5</ele><time>2026-03-28T14:50:14.711Z</time></trkpt><trkpt lat="45.4622466" lon="10.6189328"><ele>65.33333333333334</ele><time>2026-03-28T14:50:15.71Z</time></trkpt><trkpt lat="45.4622745" lon="10.6188219"><ele>65.16666666666667</ele><time>2026-03-28T14:50:16.71Z</time></trkpt><trkpt lat="45.4623035" lon="10.6187026"><ele>65.0</ele><time>2026-03-28T14:50:17.711Z</time></trkpt><trkpt lat="45.4623316" lon="10.6185806"><ele>65.0</ele><time>2026-03-28T14:50:18.711Z</time></trkpt><trkpt lat="45.462363" lon="10.6184539"><ele>65.0</ele><time>2026-03-28T14:50:19.711Z</time></trkpt><trkpt lat="45.4623976" lon="10.6183169"><ele>65.0</ele><time>2026-03-28T14:50:20.71Z</time></trkpt><trkpt lat="45.4624337" lon="10.6181787"><ele>65.0</ele><time>2026-03-28T14:50:21.712Z</time></trkpt><trkpt lat="45.4624686" lon="10.6180413"><ele>65.0</ele><time>2026-03-28T14:50:22.71Z</time></trkpt><trkpt lat="45.462512" lon="10.6179037"><ele>65.4</ele><time>2026-03-28T14:50:23.711Z</time></trkpt><trkpt lat="45.4625473" lon="10.6177535"><ele>65.8</ele><time>2026-03-28T14:50:24.71Z</time></trkpt><trkpt lat="45.4625838" lon="10.6176031"><ele>66.2</ele><time>2026-03-28T14:50:25.711Z</time></trkpt><trkpt lat="45.4626211" lon="10.6174565"><ele>66.6</ele><time>2026-03-28T14:50:26.711Z</time></trkpt><trkpt lat="45.4626578" lon="10.6173098"><ele>67.0</ele><time>2026-03-28T14:50:27.711Z</time></trkpt><trkpt lat="45.4626957" lon="10.617168"><ele>67.0</ele><time>2026-03-28T14:50:28.71Z</time></trkpt><trkpt lat="45.462731" lon="10.6170345"><ele>67.0</ele><time>2026-03-28T14:50:29.711Z</time></trkpt><trkpt lat="45.4627635" lon="10.6169178"><ele>67.0</ele><time>2026-03-28T14:50:30.71Z</time></trkpt><trkpt lat="45.4627909" lon="10.6168161"><ele>67.0</ele><time>2026-03-28T14:50:31.711Z</time></trkpt><trkpt lat="45.4628192" lon="10.6167273"><ele>67.0</ele><time>2026-03-28T14:50:32.711Z</time></trkpt><trkpt lat="45.4628764" lon="10.6165746"><ele>67.0</ele><time>2026-03-28T14:50:34.71Z</time></trkpt><trkpt lat="45.4629465" lon="10.6164308"><ele>67.0</ele><time>2026-03-28T14:50:36.71Z</time></trkpt><trkpt lat="45.4629919" lon="10.6163477"><ele>67.0</ele><time>2026-03-28T14:50:37.71Z</time></trkpt><trkpt lat="45.4630443" lon="10.6162541"><ele>67.0</ele><time>2026-03-28T14:50:38.71Z</time></trkpt><trkpt lat="45.4631019" lon="10.6161454"><ele>67.0</ele><time>2026-03-28T14:50:39.711Z</time></trkpt><trkpt lat="45.4631632" lon="10.6160296"><ele>67.0</ele><time>2026-03-28T14:50:40.71Z</time></trkpt><trkpt lat="45.463227" lon="10.6159051"><ele>67.0</ele><time>2026-03-28T14:50:41.71Z</time></trkpt><trkpt lat="45.4632924" lon="10.6157753"><ele>67.0</ele><time>2026-03-28T14:50:42.71Z</time></trkpt><trkpt lat="45.4633582" lon="10.6156406"><ele>67.0</ele><time>2026-03-28T14:50:43.711Z</time></trkpt><trkpt lat="45.4634246" lon="10.6155069"><ele>67.0</ele><time>2026-03-28T14:50:44.71Z</time></trkpt><trkpt lat="45.4634863" lon="10.6153831"><ele>67.0</ele><time>2026-03-28T14:50:45.711Z</time></trkpt><trkpt lat="45.4635473" lon="10.6152635"><ele>67.0</ele><time>2026-03-28T14:50:46.711Z</time></trkpt><trkpt lat="45.4636119" lon="10.6151358"><ele>67.0</ele><time>2026-03-28T14:50:47.71Z</time></trkpt><trkpt lat="45.4636738" lon="10.6150142"><ele>67.0</ele><time>2026-03-28T14:50:48.711Z</time></trkpt><trkpt lat="45.4637294" lon="10.6149054"><ele>66.83333333333333</ele><time>2026-03-28T14:50:49.71Z</time></trkpt><trkpt lat="45.4637794" lon="10.6148124"><ele>66.66666666666666</ele><time>2026-03-28T14:50:50.71Z</time></trkpt><trkpt lat="45.4638243" lon="10.6147294"><ele>66.5</ele><time>2026-03-28T14:50:51.711Z</time></trkpt><trkpt lat="45.4638634" lon="10.6146529"><ele>66.33333333333333</ele><time>2026-03-28T14:50:52.711Z</time></trkpt><trkpt lat="45.4639246" lon="10.6145315"><ele>66.16666666666667</ele><time>2026-03-28T14:50:54.71Z</time></trkpt><trkpt lat="45.4639646" lon="10.614456"><ele>66.0</ele><time>2026-03-28T14:50:56.711Z</time></trkpt><trkpt lat="45.4640116" lon="10.6143731"><ele>66.33333333333333</ele><time>2026-03-28T14:51:00.71Z</time></trkpt><trkpt lat="45.4640498" lon="10.6142964"><ele>66.66666666666667</ele><time>2026-03-28T14:51:03.71Z</time></trkpt><trkpt lat="45.4640928" lon="10.6142116"><ele>67.0</ele><time>2026-03-28T14:51:06.711Z</time></trkpt><trkpt lat="45.4641584" lon="10.6140949"><ele>67.33333333333334</ele><time>2026-03-28T14:51:09.71Z</time></trkpt><trkpt lat="45.4642313" lon="10.6139537"><ele>67.66666666666667</ele><time>2026-03-28T14:51:11.71Z</time></trkpt><trkpt lat="45.4642742" lon="10.6138632"><ele>68.0</ele><time>2026-03-28T14:51:12.71Z</time></trkpt><trkpt lat="45.4643224" lon="10.61376"><ele>67.8</ele><time>2026-03-28T14:51:13.711Z</time></trkpt><trkpt lat="45.4643771" lon="10.6136439"><ele>67.6</ele><time>2026-03-28T14:51:14.71Z</time></trkpt><trkpt lat="45.4644371" lon="10.6135179"><ele>67.4</ele><time>2026-03-28T14:51:15.711Z</time></trkpt><trkpt lat="45.464493" lon="10.6134043"><ele>67.2</ele><time>2026-03-28T14:51:16.711Z</time></trkpt><trkpt lat="45.4645431" lon="10.6133036"><ele>67.0</ele><time>2026-03-28T14:51:17.711Z</time></trkpt><trkpt lat="45.4645941" lon="10.6132054"><ele>67.0</ele><time>2026-03-28T14:51:18.71Z</time></trkpt><trkpt lat="45.4646453" lon="10.6131057"><ele>67.0</ele><time>2026-03-28T14:51:19.711Z</time></trkpt><trkpt lat="45.4646946" lon="10.6130156"><ele>67.0</ele><time>2026-03-28T14:51:20.711Z</time></trkpt><trkpt lat="45.46474" lon="10.6129346"><ele>67.0</ele><time>2026-03-28T14:51:21.711Z</time></trkpt><trkpt lat="45.4647797" lon="10.6128619"><ele>67.0</ele><time>2026-03-28T14:51:22.711Z</time></trkpt><trkpt lat="45.4648283" lon="10.6127627"><ele>67.0</ele><time>2026-03-28T14:51:24.71Z</time></trkpt><trkpt lat="45.4648679" lon="10.6126667"><ele>67.0</ele><time>2026-03-28T14:51:30.711Z</time></trkpt><trkpt lat="45.4649165" lon="10.6125164"><ele>67.0</ele><time>2026-03-28T14:51:32.711Z</time></trkpt><trkpt lat="45.4649428" lon="10.6124125"><ele>67.0</ele><time>2026-03-28T14:51:33.711Z</time></trkpt><trkpt lat="45.464977" lon="10.612289"><ele>67.0</ele><time>2026-03-28T14:51:34.711Z</time></trkpt><trkpt lat="45.4650048" lon="10.6121449"><ele>67.0</ele><time>2026-03-28T14:51:35.711Z</time></trkpt><trkpt lat="45.4650165" lon="10.6119783"><ele>67.5</ele><time>2026-03-28T14:51:36.711Z</time></trkpt><trkpt lat="45.4650319" lon="10.6117993"><ele>68.0</ele><time>2026-03-28T14:51:37.71Z</time></trkpt><trkpt lat="45.4650651" lon="10.6116073"><ele>68.5</ele><time>2026-03-28T14:51:38.711Z</time></trkpt><trkpt lat="45.4650865" lon="10.6113982"><ele>69.0</ele><time>2026-03-28T14:51:39.71Z</time></trkpt><trkpt lat="45.4650899" lon="10.6111744"><ele>69.66666666666667</ele><time>2026-03-28T14:51:40.71Z</time></trkpt><trkpt lat="45.4650786" lon="10.6109428"><ele>70.33333333333334</ele><time>2026-03-28T14:51:41.711Z</time></trkpt><trkpt lat="45.4650612" lon="10.6107223"><ele>71.0</ele><time>2026-03-28T14:51:42.71Z</time></trkpt><trkpt lat="45.4650443" lon="10.6105156"><ele>71.5</ele><time>2026-03-28T14:51:43.71Z</time></trkpt><trkpt lat="45.4650272" lon="10.6103192"><ele>72.0</ele><time>2026-03-28T14:51:44.71Z</time></trkpt><trkpt lat="45.4650108" lon="10.6101267"><ele>72.5</ele><time>2026-03-28T14:51:45.71Z</time></trkpt><trkpt lat="45.4649955" lon="10.6099317"><ele>73.0</ele><time>2026-03-28T14:51:46.71Z</time></trkpt><trkpt lat="45.4649824" lon="10.609736"><ele>73.0</ele><time>2026-03-28T14:51:47.71Z</time></trkpt><trkpt lat="45.4649661" lon="10.6095393"><ele>73.0</ele><time>2026-03-28T14:51:48.711Z</time></trkpt><trkpt lat="45.4649539" lon="10.6093415"><ele>73.0</ele><time>2026-03-28T14:51:49.711Z</time></trkpt><trkpt lat="45.4649425" lon="10.6091384"><ele>73.0</ele><time>2026-03-28T14:51:50.711Z</time></trkpt><trkpt lat="45.464934" lon="10.6089393"><ele>73.25</ele><time>2026-03-28T14:51:51.709Z</time></trkpt><trkpt lat="45.4649302" lon="10.6087498"><ele>73.5</ele><time>2026-03-28T14:51:52.711Z</time></trkpt><trkpt lat="45.4649315" lon="10.6085719"><ele>73.75</ele><time>2026-03-28T14:51:53.711Z</time></trkpt><trkpt lat="45.4649345" lon="10.6084107"><ele>74.0</ele><time>2026-03-28T14:51:54.71Z</time></trkpt><trkpt lat="45.4649394" lon="10.6082506"><ele>74.5</ele><time>2026-03-28T14:51:55.71Z</time></trkpt><trkpt lat="45.464947" lon="10.6080814"><ele>75.0</ele><time>2026-03-28T14:51:56.71Z</time></trkpt><trkpt lat="45.4649552" lon="10.6079002"><ele>75.5</ele><time>2026-03-28T14:51:57.71Z</time></trkpt><trkpt lat="45.4649627" lon="10.6077221"><ele>76.0</ele><time>2026-03-28T14:51:58.71Z</time></trkpt><trkpt lat="45.4649702" lon="10.6075575"><ele>76.5</ele><time>2026-03-28T14:51:59.71Z</time></trkpt><trkpt lat="45.4649757" lon="10.607406"><ele>77.0</ele><time>2026-03-28T14:52:00.71Z</time></trkpt><trkpt lat="45.4649802" lon="10.6072709"><ele>77.5</ele><time>2026-03-28T14:52:01.711Z</time></trkpt><trkpt lat="45.4649863" lon="10.6071607"><ele>78.0</ele><time>2026-03-28T14:52:02.71Z</time></trkpt><trkpt lat="45.4649918" lon="10.6070698"><ele>78.5</ele><time>2026-03-28T14:52:03.71Z</time></trkpt><trkpt lat="45.465006" lon="10.6069353"><ele>79.0</ele><time>2026-03-28T14:52:05.711Z</time></trkpt><trkpt lat="45.4650257" lon="10.6068366"><ele>79.6</ele><time>2026-03-28T14:52:08.711Z</time></trkpt><trkpt lat="45.4650674" lon="10.6067342"><ele>80.2</ele><time>2026-03-28T14:52:11.711Z</time></trkpt><trkpt lat="45.465097" lon="10.6066269"><ele>80.8</ele><time>2026-03-28T14:52:13.711Z</time></trkpt><trkpt lat="45.4650739" lon="10.6065087"><ele>81.39999999999999</ele><time>2026-03-28T14:52:15.711Z</time></trkpt><trkpt lat="45.465054" lon="10.6063483"><ele>82.0</ele><time>2026-03-28T14:52:17.71Z</time></trkpt><trkpt lat="45.4650552" lon="10.6061746"><ele>81.75</ele><time>2026-03-28T14:52:19.71Z</time></trkpt><trkpt lat="45.465059" lon="10.6060152"><ele>81.5</ele><time>2026-03-28T14:52:21.711Z</time></trkpt><trkpt lat="45.4650642" lon="10.6058628"><ele>81.25</ele><time>2026-03-28T14:52:23.711Z</time></trkpt><trkpt lat="45.4650675" lon="10.6056928"><ele>81.0</ele><time>2026-03-28T14:52:25.71Z</time></trkpt><trkpt lat="45.4650707" lon="10.6055165"><ele>81.0</ele><time>2026-03-28T14:52:27.711Z</time></trkpt><trkpt lat="45.4650716" lon="10.6054262"><ele>81.0</ele><time>2026-03-28T14:52:28.71Z</time></trkpt><trkpt lat="45.4650736" lon="10.6053318"><ele>81.0</ele><time>2026-03-28T14:52:29.711Z</time></trkpt><trkpt lat="45.4650771" lon="10.605235"><ele>81.0</ele><time>2026-03-28T14:52:30.71Z</time></trkpt><trkpt lat="45.465081" lon="10.6051298"><ele>81.0</ele><time>2026-03-28T14:52:31.711Z</time></trkpt><trkpt lat="45.4650833" lon="10.6050131"><ele>81.0</ele><time>2026-03-28T14:52:32.711Z</time></trkpt><trkpt lat="45.4650865" lon="10.6048866"><ele>81.0</ele><time>2026-03-28T14:52:33.711Z</time></trkpt><trkpt lat="45.4650897" lon="10.6047514"><ele>81.0</ele><time>2026-03-28T14:52:34.711Z</time></trkpt><trkpt lat="45.4650945" lon="10.6046072"><ele>81.0</ele><time>2026-03-28T14:52:35.711Z</time></trkpt><trkpt lat="45.4650979" lon="10.6044564"><ele>81.0</ele><time>2026-03-28T14:52:36.711Z</time></trkpt><trkpt lat="45.4650977" lon="10.6043107"><ele>81.0</ele><time>2026-03-28T14:52:37.711Z</time></trkpt><trkpt lat="45.4650927" lon="10.6041706"><ele>81.0</ele><time>2026-03-28T14:52:38.71Z</time></trkpt><trkpt lat="45.4650845" lon="10.6040322"><ele>80.8</ele><time>2026-03-28T14:52:39.711Z</time></trkpt><trkpt lat="45.4650734" lon="10.6038923"><ele>80.6</ele><time>2026-03-28T14:52:40.71Z</time></trkpt><trkpt lat="45.4650621" lon="10.6037534"><ele>80.4</ele><time>2026-03-28T14:52:41.711Z</time></trkpt><trkpt lat="45.4650493" lon="10.6036168"><ele>80.2</ele><time>2026-03-28T14:52:42.711Z</time></trkpt><trkpt lat="45.4650354" lon="10.6034813"><ele>80.0</ele><time>2026-03-28T14:52:43.711Z</time></trkpt><trkpt lat="45.465022" lon="10.6033482"><ele>80.0</ele><time>2026-03-28T14:52:44.71Z</time></trkpt><trkpt lat="45.4650098" lon="10.6032171"><ele>80.0</ele><time>2026-03-28T14:52:45.711Z</time></trkpt><trkpt lat="45.4650055" lon="10.6030891"><ele>80.0</ele><time>2026-03-28T14:52:46.711Z</time></trkpt><trkpt lat="45.4650057" lon="10.6029694"><ele>80.0</ele><time>2026-03-28T14:52:47.711Z</time></trkpt><trkpt lat="45.465009" lon="10.602849"><ele>80.0</ele><time>2026-03-28T14:52:48.71Z</time></trkpt><trkpt lat="45.4650184" lon="10.602735"><ele>80.0</ele><time>2026-03-28T14:52:49.711Z</time></trkpt><trkpt lat="45.4650336" lon="10.6026208"><ele>79.66666666666667</ele><time>2026-03-28T14:52:50.71Z</time></trkpt><trkpt lat="45.465051" lon="10.6025013"><ele>79.33333333333334</ele><time>2026-03-28T14:52:51.709Z</time></trkpt><trkpt lat="45.4650682" lon="10.6023796"><ele>79.0</ele><time>2026-03-28T14:52:52.711Z</time></trkpt><trkpt lat="45.4650853" lon="10.6022597"><ele>78.66666666666667</ele><time>2026-03-28T14:52:53.711Z</time></trkpt><trkpt lat="45.4651021" lon="10.6021389"><ele>78.33333333333333</ele><time>2026-03-28T14:52:54.711Z</time></trkpt><trkpt lat="45.4651205" lon="10.6020187"><ele>78.0</ele><time>2026-03-28T14:52:55.711Z</time></trkpt><trkpt lat="45.4651366" lon="10.6018921"><ele>77.6</ele><time>2026-03-28T14:52:56.711Z</time></trkpt><trkpt lat="45.4651466" lon="10.6017529"><ele>77.19999999999999</ele><time>2026-03-28T14:52:57.71Z</time></trkpt><trkpt lat="45.4651386" lon="10.6016157"><ele>76.8</ele><time>2026-03-28T14:52:58.71Z</time></trkpt><trkpt lat="45.4651075" lon="10.6014805"><ele>76.39999999999999</ele><time>2026-03-28T14:52:59.71Z</time></trkpt><trkpt lat="45.4650514" lon="10.601351"><ele>76.0</ele><time>2026-03-28T14:53:00.71Z</time></trkpt><trkpt lat="45.4649737" lon="10.6012269"><ele>76.0</ele><time>2026-03-28T14:53:01.711Z</time></trkpt><trkpt lat="45.4648846" lon="10.601098"><ele>76.0</ele><time>2026-03-28T14:53:02.711Z</time></trkpt><trkpt lat="45.4647869" lon="10.6009554"><ele>76.0</ele><time>2026-03-28T14:53:03.711Z</time></trkpt><trkpt lat="45.4646865" lon="10.6007989"><ele>76.0</ele><time>2026-03-28T14:53:04.71Z</time></trkpt><trkpt lat="45.4645975" lon="10.6006309"><ele>75.25</ele><time>2026-03-28T14:53:05.71Z</time></trkpt><trkpt lat="45.464529" lon="10.6004587"><ele>74.5</ele><time>2026-03-28T14:53:06.71Z</time></trkpt><trkpt lat="45.464478" lon="10.6002734"><ele>73.75</ele><time>2026-03-28T14:53:07.71Z</time></trkpt><trkpt lat="45.4644388" lon="10.6000749"><ele>73.0</ele><time>2026-03-28T14:53:08.71Z</time></trkpt><trkpt lat="45.4643975" lon="10.5998699"><ele>73.0</ele><time>2026-03-28T14:53:09.71Z</time></trkpt><trkpt lat="45.4643538" lon="10.5996621"><ele>73.0</ele><time>2026-03-28T14:53:10.711Z</time></trkpt><trkpt lat="45.4643104" lon="10.5994487"><ele>73.0</ele><time>2026-03-28T14:53:11.71Z</time></trkpt><trkpt lat="45.4642641" lon="10.5992312"><ele>73.0</ele><time>2026-03-28T14:53:12.711Z</time></trkpt><trkpt lat="45.4642154" lon="10.5990131"><ele>73.0</ele><time>2026-03-28T14:53:13.71Z</time></trkpt><trkpt lat="45.4641696" lon="10.5988024"><ele>73.0</ele><time>2026-03-28T14:53:14.71Z</time></trkpt><trkpt lat="45.4641256" lon="10.5986008"><ele>72.5</ele><time>2026-03-28T14:53:15.711Z</time></trkpt><trkpt lat="45.464083" lon="10.5984022"><ele>72.0</ele><time>2026-03-28T14:53:16.711Z</time></trkpt><trkpt lat="45.4640405" lon="10.5982061"><ele>71.5</ele><time>2026-03-28T14:53:17.711Z</time></trkpt><trkpt lat="45.4639987" lon="10.5980138"><ele>71.0</ele><time>2026-03-28T14:53:18.71Z</time></trkpt><trkpt lat="45.4639574" lon="10.5978227"><ele>71.0</ele><time>2026-03-28T14:53:19.711Z</time></trkpt><trkpt lat="45.463915" lon="10.5976322"><ele>71.0</ele><time>2026-03-28T14:53:20.71Z</time></trkpt><trkpt lat="45.4638713" lon="10.597437"><ele>71.0</ele><time>2026-03-28T14:53:21.71Z</time></trkpt><trkpt lat="45.4638189" lon="10.5972292"><ele>71.0</ele><time>2026-03-28T14:53:22.71Z</time></trkpt><trkpt lat="45.4637657" lon="10.5969978"><ele>71.33333333333334</ele><time>2026-03-28T14:53:23.711Z</time></trkpt><trkpt lat="45.4637128" lon="10.5967441"><ele>71.66666666666667</ele><time>2026-03-28T14:53:24.711Z</time></trkpt><trkpt lat="45.4636595" lon="10.5964763"><ele>72.0</ele><time>2026-03-28T14:53:25.711Z</time></trkpt><trkpt lat="45.4636078" lon="10.596217"><ele>71.66666666666667</ele><time>2026-03-28T14:53:26.71Z</time></trkpt><trkpt lat="45.4635587" lon="10.5959727"><ele>71.33333333333334</ele><time>2026-03-28T14:53:27.711Z</time></trkpt><trkpt lat="45.4635094" lon="10.5957366"><ele>71.0</ele><time>2026-03-28T14:53:28.71Z</time></trkpt><trkpt lat="45.4634578" lon="10.5955015"><ele>70.0</ele><time>2026-03-28T14:53:29.711Z</time></trkpt><trkpt lat="45.463406" lon="10.5952622"><ele>69.0</ele><time>2026-03-28T14:53:30.711Z</time></trkpt><trkpt lat="45.4633521" lon="10.5950204"><ele>68.0</ele><time>2026-03-28T14:53:31.711Z</time></trkpt><trkpt lat="45.4633013" lon="10.5947899"><ele>68.0</ele><time>2026-03-28T14:53:32.71Z</time></trkpt><trkpt lat="45.4632539" lon="10.5945754"><ele>68.0</ele><time>2026-03-28T14:53:33.71Z</time></trkpt><trkpt lat="45.4632088" lon="10.5943684"><ele>68.0</ele><time>2026-03-28T14:53:34.711Z</time></trkpt><trkpt lat="45.4631652" lon="10.5941633"><ele>68.5</ele><time>2026-03-28T14:53:35.71Z</time></trkpt><trkpt lat="45.463128" lon="10.5939716"><ele>69.0</ele><time>2026-03-28T14:53:36.711Z</time></trkpt><trkpt lat="45.4631006" lon="10.5937923"><ele>69.5</ele><time>2026-03-28T14:53:37.71Z</time></trkpt><trkpt lat="45.4630866" lon="10.5936246"><ele>70.0</ele><time>2026-03-28T14:53:38.71Z</time></trkpt><trkpt lat="45.4630849" lon="10.5934736"><ele>70.0</ele><time>2026-03-28T14:53:39.711Z</time></trkpt><trkpt lat="45.4630954" lon="10.5933368"><ele>70.0</ele><time>2026-03-28T14:53:40.71Z</time></trkpt><trkpt lat="45.4631136" lon="10.5932155"><ele>70.0</ele><time>2026-03-28T14:53:41.71Z</time></trkpt><trkpt lat="45.4631452" lon="10.5930977"><ele>70.0</ele><time>2026-03-28T14:53:42.711Z</time></trkpt><trkpt lat="45.4631836" lon="10.5929816"><ele>70.0</ele><time>2026-03-28T14:53:43.711Z</time></trkpt><trkpt lat="45.4632011" lon="10.5928552"><ele>70.25</ele><time>2026-03-28T14:53:44.711Z</time></trkpt><trkpt lat="45.4631902" lon="10.5927096"><ele>70.5</ele><time>2026-03-28T14:53:45.71Z</time></trkpt><trkpt lat="45.4631567" lon="10.5925315"><ele>70.75</ele><time>2026-03-28T14:53:46.71Z</time></trkpt><trkpt lat="45.4631433" lon="10.5923257"><ele>71.0</ele><time>2026-03-28T14:53:47.71Z</time></trkpt><trkpt lat="45.4631396" lon="10.592095"><ele>70.0</ele><time>2026-03-28T14:53:48.71Z</time></trkpt><trkpt lat="45.4631404" lon="10.5918517"><ele>69.0</ele><time>2026-03-28T14:53:49.711Z</time></trkpt><trkpt lat="45.4631435" lon="10.5916312"><ele>68.0</ele><time>2026-03-28T14:53:50.71Z</time></trkpt><trkpt lat="45.4631457" lon="10.5914197"><ele>68.0</ele><time>2026-03-28T14:53:51.711Z</time></trkpt><trkpt lat="45.4631464" lon="10.5912133"><ele>68.0</ele><time>2026-03-28T14:53:52.711Z</time></trkpt><trkpt lat="45.4631472" lon="10.5910058"><ele>68.0</ele><time>2026-03-28T14:53:53.71Z</time></trkpt><trkpt lat="45.4631495" lon="10.5908"><ele>68.0</ele><time>2026-03-28T14:53:54.711Z</time></trkpt><trkpt lat="45.4631501" lon="10.5905934"><ele>67.5</ele><time>2026-03-28T14:53:55.71Z</time></trkpt><trkpt lat="45.463146" lon="10.5903828"><ele>67.0</ele><time>2026-03-28T14:53:56.71Z</time></trkpt><trkpt lat="45.4631343" lon="10.5901717"><ele>66.5</ele><time>2026-03-28T14:53:57.711Z</time></trkpt><trkpt lat="45.4631091" lon="10.58996"><ele>66.0</ele><time>2026-03-28T14:53:58.711Z</time></trkpt><trkpt lat="45.4630703" lon="10.5897493"><ele>66.0</ele><time>2026-03-28T14:53:59.711Z</time></trkpt><trkpt lat="45.4630138" lon="10.5895484"><ele>66.0</ele><time>2026-03-28T14:54:00.71Z</time></trkpt><trkpt lat="45.4629428" lon="10.5893574"><ele>66.0</ele><time>2026-03-28T14:54:01.71Z</time></trkpt><trkpt lat="45.4628695" lon="10.5891777"><ele>66.0</ele><time>2026-03-28T14:54:02.711Z</time></trkpt><trkpt lat="45.4628035" lon="10.5890154"><ele>66.0</ele><time>2026-03-28T14:54:03.71Z</time></trkpt><trkpt lat="45.4627457" lon="10.5888763"><ele>66.0</ele><time>2026-03-28T14:54:04.709Z</time></trkpt><trkpt lat="45.462692" lon="10.5887469"><ele>66.0</ele><time>2026-03-28T14:54:05.711Z</time></trkpt><trkpt lat="45.4626413" lon="10.5886257"><ele>66.0</ele><time>2026-03-28T14:54:06.71Z</time></trkpt><trkpt lat="45.4625828" lon="10.5884966"><ele>66.0</ele><time>2026-03-28T14:54:07.71Z</time></trkpt><trkpt lat="45.4625228" lon="10.5883667"><ele>66.0</ele><time>2026-03-28T14:54:08.71Z</time></trkpt><trkpt lat="45.462458" lon="10.5882382"><ele>66.0</ele><time>2026-03-28T14:54:09.71Z</time></trkpt><trkpt lat="45.4623873" lon="10.5881064"><ele>66.0</ele><time>2026-03-28T14:54:10.71Z</time></trkpt><trkpt lat="45.4623161" lon="10.5879739"><ele>66.0</ele><time>2026-03-28T14:54:11.71Z</time></trkpt><trkpt lat="45.4622452" lon="10.5878397"><ele>66.25</ele><time>2026-03-28T14:54:12.709Z</time></trkpt><trkpt lat="45.4621728" lon="10.5877026"><ele>66.5</ele><time>2026-03-28T14:54:13.71Z</time></trkpt><trkpt lat="45.4620982" lon="10.587564"><ele>66.75</ele><time>2026-03-28T14:54:14.711Z</time></trkpt><trkpt lat="45.4620242" lon="10.5874251"><ele>67.0</ele><time>2026-03-28T14:54:15.71Z</time></trkpt><trkpt lat="45.4619529" lon="10.5872925"><ele>67.0</ele><time>2026-03-28T14:54:16.711Z</time></trkpt><trkpt lat="45.4618834" lon="10.587165"><ele>67.0</ele><time>2026-03-28T14:54:17.711Z</time></trkpt><trkpt lat="45.4618201" lon="10.587047"><ele>67.0</ele><time>2026-03-28T14:54:18.71Z</time></trkpt><trkpt lat="45.4617579" lon="10.5869308"><ele>67.0</ele><time>2026-03-28T14:54:19.71Z</time></trkpt><trkpt lat="45.4616965" lon="10.5868189"><ele>67.0</ele><time>2026-03-28T14:54:20.71Z</time></trkpt><trkpt lat="45.4616362" lon="10.5867077"><ele>66.83333333333333</ele><time>2026-03-28T14:54:21.711Z</time></trkpt><trkpt lat="45.4615805" lon="10.5866034"><ele>66.66666666666666</ele><time>2026-03-28T14:54:22.711Z</time></trkpt><trkpt lat="45.4615257" lon="10.5865048"><ele>66.5</ele><time>2026-03-28T14:54:23.711Z</time></trkpt><trkpt lat="45.4614727" lon="10.5864092"><ele>66.33333333333333</ele><time>2026-03-28T14:54:24.71Z</time></trkpt><trkpt lat="45.4614229" lon="10.5863202"><ele>66.16666666666667</ele><time>2026-03-28T14:54:25.71Z</time></trkpt><trkpt lat="45.4613727" lon="10.5862326"><ele>66.0</ele><time>2026-03-28T14:54:26.71Z</time></trkpt><trkpt lat="45.4613248" lon="10.5861443"><ele>66.16666666666667</ele><time>2026-03-28T14:54:27.71Z</time></trkpt><trkpt lat="45.4612792" lon="10.5860604"><ele>66.33333333333333</ele><time>2026-03-28T14:54:28.71Z</time></trkpt><trkpt lat="45.4612361" lon="10.585986"><ele>66.5</ele><time>2026-03-28T14:54:29.711Z</time></trkpt><trkpt lat="45.4611631" lon="10.5858484"><ele>66.66666666666666</ele><time>2026-03-28T14:54:31.711Z</time></trkpt><trkpt lat="45.4611181" lon="10.5857735"><ele>66.83333333333333</ele><time>2026-03-28T14:54:32.71Z</time></trkpt><trkpt lat="45.4610678" lon="10.585687"><ele>67.0</ele><time>2026-03-28T14:54:33.711Z</time></trkpt><trkpt lat="45.4610049" lon="10.5855841"><ele>67.0</ele><time>2026-03-28T14:54:34.71Z</time></trkpt><trkpt lat="45.4609355" lon="10.585467"><ele>67.0</ele><time>2026-03-28T14:54:35.71Z</time></trkpt><trkpt lat="45.4608631" lon="10.5853473"><ele>67.0</ele><time>2026-03-28T14:54:36.71Z</time></trkpt><trkpt lat="45.460797" lon="10.5852382"><ele>67.0</ele><time>2026-03-28T14:54:37.711Z</time></trkpt><trkpt lat="45.4607366" lon="10.585151"><ele>67.0</ele><time>2026-03-28T14:54:38.711Z</time></trkpt><trkpt lat="45.4606868" lon="10.5850787"><ele>67.2</ele><time>2026-03-28T14:54:39.71Z</time></trkpt><trkpt lat="45.4606461" lon="10.5850063"><ele>67.4</ele><time>2026-03-28T14:54:40.711Z</time></trkpt><trkpt lat="45.4606096" lon="10.5849073"><ele>67.6</ele><time>2026-03-28T14:54:41.71Z</time></trkpt><trkpt lat="45.4605776" lon="10.5847765"><ele>67.8</ele><time>2026-03-28T14:54:42.71Z</time></trkpt><trkpt lat="45.4605486" lon="10.5846112"><ele>68.0</ele><time>2026-03-28T14:54:43.71Z</time></trkpt><trkpt lat="45.4605224" lon="10.584418"><ele>68.0</ele><time>2026-03-28T14:54:44.711Z</time></trkpt><trkpt lat="45.4604988" lon="10.5842002"><ele>68.0</ele><time>2026-03-28T14:54:45.71Z</time></trkpt><trkpt lat="45.4604777" lon="10.5839745"><ele>68.0</ele><time>2026-03-28T14:54:46.71Z</time></trkpt><trkpt lat="45.4604565" lon="10.583765"><ele>68.25</ele><time>2026-03-28T14:54:47.711Z</time></trkpt><trkpt lat="45.4604381" lon="10.5835687"><ele>68.5</ele><time>2026-03-28T14:54:48.71Z</time></trkpt><trkpt lat="45.4604183" lon="10.5833801"><ele>68.75</ele><time>2026-03-28T14:54:49.71Z</time></trkpt><trkpt lat="45.4604003" lon="10.583197"><ele>69.0</ele><time>2026-03-28T14:54:50.71Z</time></trkpt><trkpt lat="45.4603825" lon="10.5830178"><ele>69.25</ele><time>2026-03-28T14:54:51.71Z</time></trkpt><trkpt lat="45.4603656" lon="10.5828407"><ele>69.5</ele><time>2026-03-28T14:54:52.711Z</time></trkpt><trkpt lat="45.4603457" lon="10.5826644"><ele>69.75</ele><time>2026-03-28T14:54:53.71Z</time></trkpt><trkpt lat="45.4603277" lon="10.5825015"><ele>70.0</ele><time>2026-03-28T14:54:54.71Z</time></trkpt><trkpt lat="45.4603105" lon="10.5823444"><ele>70.0</ele><time>2026-03-28T14:54:55.711Z</time></trkpt><trkpt lat="45.4602961" lon="10.5821968"><ele>70.0</ele><time>2026-03-28T14:54:56.711Z</time></trkpt><trkpt lat="45.4602818" lon="10.5820583"><ele>70.0</ele><time>2026-03-28T14:54:57.71Z</time></trkpt><trkpt lat="45.46027" lon="10.5819293"><ele>70.0</ele><time>2026-03-28T14:54:58.71Z</time></trkpt><trkpt lat="45.4602585" lon="10.581814"><ele>70.0</ele><time>2026-03-28T14:54:59.711Z</time></trkpt><trkpt lat="45.4602463" lon="10.5817078"><ele>69.66666666666666</ele><time>2026-03-28T14:55:00.711Z</time></trkpt><trkpt lat="45.4602378" lon="10.5816119"><ele>69.33333333333333</ele><time>2026-03-28T14:55:01.71Z</time></trkpt><trkpt lat="45.4602175" lon="10.5814832"><ele>69.0</ele><time>2026-03-28T14:55:03.711Z</time></trkpt><trkpt lat="45.4601915" lon="10.5813933"><ele>68.66666666666667</ele><time>2026-03-28T14:55:05.711Z</time></trkpt><trkpt lat="45.4601607" lon="10.5812564"><ele>68.33333333333334</ele><time>2026-03-28T14:55:08.71Z</time></trkpt><trkpt lat="45.4601585" lon="10.5811051"><ele>68.0</ele><time>2026-03-28T14:55:10.711Z</time></trkpt><trkpt lat="45.4601547" lon="10.5810051"><ele>68.0</ele><time>2026-03-28T14:55:11.711Z</time></trkpt><trkpt lat="45.46015" lon="10.5808766"><ele>68.0</ele><time>2026-03-28T14:55:12.71Z</time></trkpt><trkpt lat="45.4601422" lon="10.5807303"><ele>68.0</ele><time>2026-03-28T14:55:13.71Z</time></trkpt><trkpt lat="45.4601309" lon="10.5805649"><ele>68.0</ele><time>2026-03-28T14:55:14.71Z</time></trkpt><trkpt lat="45.4601153" lon="10.5803832"><ele>68.0</ele><time>2026-03-28T14:55:15.71Z</time></trkpt><trkpt lat="45.4600967" lon="10.5802165"><ele>68.0</ele><time>2026-03-28T14:55:16.711Z</time></trkpt><trkpt lat="45.4600806" lon="10.5800539"><ele>68.0</ele><time>2026-03-28T14:55:17.71Z</time></trkpt><trkpt lat="45.4600623" lon="10.5798992"><ele>68.0</ele><time>2026-03-28T14:55:18.711Z</time></trkpt><trkpt lat="45.4600472" lon="10.5797476"><ele>68.0</ele><time>2026-03-28T14:55:19.711Z</time></trkpt><trkpt lat="45.460033" lon="10.5795969"><ele>68.0</ele><time>2026-03-28T14:55:20.711Z</time></trkpt><trkpt lat="45.4600179" lon="10.5794409"><ele>68.0</ele><time>2026-03-28T14:55:21.711Z</time></trkpt><trkpt lat="45.4600028" lon="10.5792852"><ele>68.0</ele><time>2026-03-28T14:55:22.711Z</time></trkpt><trkpt lat="45.4599869" lon="10.5791337"><ele>68.0</ele><time>2026-03-28T14:55:23.711Z</time></trkpt><trkpt lat="45.4599718" lon="10.5789854"><ele>68.0</ele><time>2026-03-28T14:55:24.711Z</time></trkpt><trkpt lat="45.4599566" lon="10.578841"><ele>68.0</ele><time>2026-03-28T14:55:25.71Z</time></trkpt><trkpt lat="45.4599434" lon="10.5787066"><ele>67.8</ele><time>2026-03-28T14:55:26.711Z</time></trkpt><trkpt lat="45.4599289" lon="10.5785783"><ele>67.6</ele><time>2026-03-28T14:55:27.71Z</time></trkpt><trkpt lat="45.4599151" lon="10.5784516"><ele>67.4</ele><time>2026-03-28T14:55:28.71Z</time></trkpt><trkpt lat="45.4599019" lon="10.5783207"><ele>67.2</ele><time>2026-03-28T14:55:29.711Z</time></trkpt><trkpt lat="45.4598901" lon="10.578186"><ele>67.0</ele><time>2026-03-28T14:55:30.71Z</time></trkpt><trkpt lat="45.4598779" lon="10.5780478"><ele>67.0</ele><time>2026-03-28T14:55:31.711Z</time></trkpt><trkpt lat="45.4598647" lon="10.5779065"><ele>67.0</ele><time>2026-03-28T14:55:32.71Z</time></trkpt><trkpt lat="45.45985" lon="10.577758"><ele>67.0</ele><time>2026-03-28T14:55:33.71Z</time></trkpt><trkpt lat="45.4598361" lon="10.5776053"><ele>67.0</ele><time>2026-03-28T14:55:34.711Z</time></trkpt><trkpt lat="45.4598207" lon="10.5774521"><ele>67.0</ele><time>2026-03-28T14:55:35.71Z</time></trkpt><trkpt lat="45.4598036" lon="10.5773039"><ele>67.2</ele><time>2026-03-28T14:55:36.711Z</time></trkpt><trkpt lat="45.4597901" lon="10.5771614"><ele>67.4</ele><time>2026-03-28T14:55:37.71Z</time></trkpt><trkpt lat="45.4597807" lon="10.5770211"><ele>67.6</ele><time>2026-03-28T14:55:38.71Z</time></trkpt><trkpt lat="45.4597731" lon="10.5768834"><ele>67.8</ele><time>2026-03-28T14:55:39.711Z</time></trkpt><trkpt lat="45.4597697" lon="10.5767466"><ele>68.0</ele><time>2026-03-28T14:55:40.711Z</time></trkpt><trkpt lat="45.4597645" lon="10.5766147"><ele>68.33333333333334</ele><time>2026-03-28T14:55:41.71Z</time></trkpt><trkpt lat="45.4597623" lon="10.5764896"><ele>68.66666666666667</ele><time>2026-03-28T14:55:42.71Z</time></trkpt><trkpt lat="45.4597598" lon="10.5763725"><ele>69.0</ele><time>2026-03-28T14:55:43.71Z</time></trkpt><trkpt lat="45.4597611" lon="10.576263"><ele>69.33333333333333</ele><time>2026-03-28T14:55:44.71Z</time></trkpt><trkpt lat="45.4597597" lon="10.5761644"><ele>69.66666666666666</ele><time>2026-03-28T14:55:45.71Z</time></trkpt><trkpt lat="45.4597582" lon="10.5760746"><ele>70.0</ele><time>2026-03-28T14:55:46.71Z</time></trkpt><trkpt lat="45.4597587" lon="10.5759416"><ele>70.0</ele><time>2026-03-28T14:55:48.71Z</time></trkpt><trkpt lat="45.4597571" lon="10.5758244"><ele>70.0</ele><time>2026-03-28T14:55:50.711Z</time></trkpt><trkpt lat="45.4597725" lon="10.5757097"><ele>70.0</ele><time>2026-03-28T14:55:53.711Z</time></trkpt><trkpt lat="45.4597996" lon="10.5756164"><ele>70.0</ele><time>2026-03-28T14:55:55.71Z</time></trkpt><trkpt lat="45.4598316" lon="10.5754607"><ele>70.0</ele><time>2026-03-28T14:55:57.71Z</time></trkpt><trkpt lat="45.4598367" lon="10.5753653"><ele>70.0</ele><time>2026-03-28T14:55:58.711Z</time></trkpt><trkpt lat="45.4598477" lon="10.5752602"><ele>69.4</ele><time>2026-03-28T14:55:59.711Z</time></trkpt><trkpt lat="45.4598688" lon="10.575142"><ele>68.8</ele><time>2026-03-28T14:56:00.71Z</time></trkpt><trkpt lat="45.459891" lon="10.5750092"><ele>68.2</ele><time>2026-03-28T14:56:01.711Z</time></trkpt><trkpt lat="45.4599122" lon="10.574862"><ele>67.6</ele><time>2026-03-28T14:56:02.711Z</time></trkpt><trkpt lat="45.459932" lon="10.5746986"><ele>67.0</ele><time>2026-03-28T14:56:03.71Z</time></trkpt><trkpt lat="45.4599512" lon="10.574533"><ele>67.75</ele><time>2026-03-28T14:56:04.711Z</time></trkpt><trkpt lat="45.4599672" lon="10.574366"><ele>68.5</ele><time>2026-03-28T14:56:05.71Z</time></trkpt><trkpt lat="45.4599846" lon="10.574201"><ele>69.25</ele><time>2026-03-28T14:56:06.71Z</time></trkpt><trkpt lat="45.4600033" lon="10.574031"><ele>70.0</ele><time>2026-03-28T14:56:07.711Z</time></trkpt><trkpt lat="45.4600239" lon="10.5738515"><ele>70.75</ele><time>2026-03-28T14:56:08.711Z</time></trkpt><trkpt lat="45.4600461" lon="10.5736622"><ele>71.5</ele><time>2026-03-28T14:56:09.71Z</time></trkpt><trkpt lat="45.4600685" lon="10.5734672"><ele>72.25</ele><time>2026-03-28T14:56:10.711Z</time></trkpt><trkpt lat="45.4600895" lon="10.5732762"><ele>73.0</ele><time>2026-03-28T14:56:11.711Z</time></trkpt><trkpt lat="45.4601085" lon="10.5730924"><ele>73.0</ele><time>2026-03-28T14:56:12.71Z</time></trkpt><trkpt lat="45.4601281" lon="10.5729135"><ele>73.0</ele><time>2026-03-28T14:56:13.71Z</time></trkpt><trkpt lat="45.4601487" lon="10.5727357"><ele>73.0</ele><time>2026-03-28T14:56:14.71Z</time></trkpt><trkpt lat="45.4601672" lon="10.5725603"><ele>73.0</ele><time>2026-03-28T14:56:15.71Z</time></trkpt><trkpt lat="45.4601857" lon="10.5723843"><ele>73.25</ele><time>2026-03-28T14:56:16.71Z</time></trkpt><trkpt lat="45.4602054" lon="10.5722089"><ele>73.5</ele><time>2026-03-28T14:56:17.71Z</time></trkpt><trkpt lat="45.4602253" lon="10.5720314"><ele>73.75</ele><time>2026-03-28T14:56:18.711Z</time></trkpt><trkpt lat="45.4602445" lon="10.5718545"><ele>74.0</ele><time>2026-03-28T14:56:19.711Z</time></trkpt><trkpt lat="45.4602647" lon="10.5716924"><ele>74.60000000000001</ele><time>2026-03-28T14:56:20.711Z</time></trkpt><trkpt lat="45.4602829" lon="10.5715336"><ele>75.2</ele><time>2026-03-28T14:56:21.71Z</time></trkpt><trkpt lat="45.4603018" lon="10.5713806"><ele>75.80000000000001</ele><time>2026-03-28T14:56:22.711Z</time></trkpt><trkpt lat="45.4603184" lon="10.5712477"><ele>76.4</ele><time>2026-03-28T14:56:23.711Z</time></trkpt><trkpt lat="45.4603336" lon="10.5711264"><ele>77.0</ele><time>2026-03-28T14:56:24.71Z</time></trkpt><trkpt lat="45.4603482" lon="10.5710237"><ele>77.16666666666667</ele><time>2026-03-28T14:56:25.711Z</time></trkpt><trkpt lat="45.4603666" lon="10.5708691"><ele>77.33333333333334</ele><time>2026-03-28T14:56:27.71Z</time></trkpt><trkpt lat="45.4603752" lon="10.5707751"><ele>77.5</ele><time>2026-03-28T14:56:29.71Z</time></trkpt><trkpt lat="45.4603884" lon="10.570649"><ele>77.66666666666667</ele><time>2026-03-28T14:56:32.71Z</time></trkpt><trkpt lat="45.4603999" lon="10.5705482"><ele>77.83333333333333</ele><time>2026-03-28T14:56:34.711Z</time></trkpt><trkpt lat="45.4604337" lon="10.5704329"><ele>78.0</ele><time>2026-03-28T14:56:36.71Z</time></trkpt><trkpt lat="45.4604394" lon="10.5702737"><ele>78.4</ele><time>2026-03-28T14:56:38.71Z</time></trkpt><trkpt lat="45.4604425" lon="10.5701674"><ele>78.8</ele><time>2026-03-28T14:56:39.711Z</time></trkpt><trkpt lat="45.4604511" lon="10.5700398"><ele>79.2</ele><time>2026-03-28T14:56:40.711Z</time></trkpt><trkpt lat="45.4604606" lon="10.5698925"><ele>79.6</ele><time>2026-03-28T14:56:41.71Z</time></trkpt><trkpt lat="45.4604768" lon="10.5697329"><ele>80.0</ele><time>2026-03-28T14:56:42.711Z</time></trkpt><trkpt lat="45.4604929" lon="10.5695866"><ele>80.66666666666667</ele><time>2026-03-28T14:56:43.711Z</time></trkpt><trkpt lat="45.4605097" lon="10.5694458"><ele>81.33333333333334</ele><time>2026-03-28T14:56:44.711Z</time></trkpt><trkpt lat="45.4605249" lon="10.5693068"><ele>82.0</ele><time>2026-03-28T14:56:45.71Z</time></trkpt><trkpt lat="45.4605373" lon="10.5691752"><ele>82.66666666666667</ele><time>2026-03-28T14:56:46.711Z</time></trkpt><trkpt lat="45.4605501" lon="10.5690617"><ele>83.33333333333333</ele><time>2026-03-28T14:56:47.711Z</time></trkpt><trkpt lat="45.4605636" lon="10.5689543"><ele>84.0</ele><time>2026-03-28T14:56:48.711Z</time></trkpt><trkpt lat="45.4605757" lon="10.5688503"><ele>84.0</ele><time>2026-03-28T14:56:49.71Z</time></trkpt><trkpt lat="45.4605887" lon="10.5687561"><ele>84.0</ele><time>2026-03-28T14:56:50.711Z</time></trkpt><trkpt lat="45.4606073" lon="10.5686075"><ele>84.0</ele><time>2026-03-28T14:56:52.71Z</time></trkpt><trkpt lat="45.460621" lon="10.5684885"><ele>84.0</ele><time>2026-03-28T14:56:54.711Z</time></trkpt><trkpt lat="45.4606303" lon="10.5683984"><ele>84.0</ele><time>2026-03-28T14:56:57.71Z</time></trkpt><trkpt lat="45.4606441" lon="10.5683025"><ele>84.0</ele><time>2026-03-28T14:57:00.71Z</time></trkpt><trkpt lat="45.4606576" lon="10.5681945"><ele>83.66666666666667</ele><time>2026-03-28T14:57:03.711Z</time></trkpt><trkpt lat="45.4606683" lon="10.568081"><ele>83.33333333333333</ele><time>2026-03-28T14:57:06.71Z</time></trkpt><trkpt lat="45.4606775" lon="10.5679603"><ele>83.0</ele><time>2026-03-28T14:57:08.71Z</time></trkpt><trkpt lat="45.4606918" lon="10.5678382"><ele>82.66666666666666</ele><time>2026-03-28T14:57:10.711Z</time></trkpt><trkpt lat="45.4607103" lon="10.5677211"><ele>82.33333333333333</ele><time>2026-03-28T14:57:12.71Z</time></trkpt><trkpt lat="45.4607259" lon="10.5675851"><ele>82.0</ele><time>2026-03-28T14:57:14.71Z</time></trkpt><trkpt lat="45.460741" lon="10.5674364"><ele>82.0</ele><time>2026-03-28T14:57:16.711Z</time></trkpt><trkpt lat="45.4607608" lon="10.5672775"><ele>82.0</ele><time>2026-03-28T14:57:18.71Z</time></trkpt><trkpt lat="45.4607794" lon="10.5671021"><ele>82.0</ele><time>2026-03-28T14:57:20.709Z</time></trkpt><trkpt lat="45.4607864" lon="10.5670122"><ele>82.0</ele><time>2026-03-28T14:57:21.71Z</time></trkpt><trkpt lat="45.4607983" lon="10.5668499"><ele>82.0</ele><time>2026-03-28T14:57:23.711Z</time></trkpt><trkpt lat="45.4608086" lon="10.5667179"><ele>82.0</ele><time>2026-03-28T14:57:25.71Z</time></trkpt><trkpt lat="45.4608108" lon="10.5665926"><ele>82.0</ele><time>2026-03-28T14:57:27.71Z</time></trkpt><trkpt lat="45.46082" lon="10.5664591"><ele>82.0</ele><time>2026-03-28T14:57:29.71Z</time></trkpt><trkpt lat="45.4608318" lon="10.566294"><ele>82.0</ele><time>2026-03-28T14:57:31.711Z</time></trkpt><trkpt lat="45.4608367" lon="10.5661999"><ele>82.0</ele><time>2026-03-28T14:57:32.71Z</time></trkpt><trkpt lat="45.4608409" lon="10.5661033"><ele>82.0</ele><time>2026-03-28T14:57:33.711Z</time></trkpt><trkpt lat="45.4608453" lon="10.5660097"><ele>82.0</ele><time>2026-03-28T14:57:34.71Z</time></trkpt><trkpt lat="45.4608542" lon="10.5658398"><ele>82.0</ele><time>2026-03-28T14:57:36.71Z</time></trkpt><trkpt lat="45.460863" lon="10.5657469"><ele>82.0</ele><time>2026-03-28T14:57:37.71Z</time></trkpt><trkpt lat="45.4608714" lon="10.5656403"><ele>82.0</ele><time>2026-03-28T14:57:38.71Z</time></trkpt><trkpt lat="45.460877" lon="10.5655186"><ele>82.0</ele><time>2026-03-28T14:57:39.71Z</time></trkpt><trkpt lat="45.4608845" lon="10.565387"><ele>82.0</ele><time>2026-03-28T14:57:40.71Z</time></trkpt><trkpt lat="45.4608945" lon="10.5652486"><ele>81.8</ele><time>2026-03-28T14:57:41.71Z</time></trkpt><trkpt lat="45.4609062" lon="10.5651039"><ele>81.6</ele><time>2026-03-28T14:57:42.711Z</time></trkpt><trkpt lat="45.4609194" lon="10.5649489"><ele>81.39999999999999</ele><time>2026-03-28T14:57:43.71Z</time></trkpt><trkpt lat="45.4609318" lon="10.5647844"><ele>81.19999999999999</ele><time>2026-03-28T14:57:44.71Z</time></trkpt><trkpt lat="45.4609457" lon="10.5646206"><ele>81.0</ele><time>2026-03-28T14:57:45.71Z</time></trkpt><trkpt lat="45.4609567" lon="10.5644686"><ele>80.8</ele><time>2026-03-28T14:57:46.711Z</time></trkpt><trkpt lat="45.460969" lon="10.5643259"><ele>80.6</ele><time>2026-03-28T14:57:47.71Z</time></trkpt><trkpt lat="45.4609828" lon="10.5641848"><ele>80.4</ele><time>2026-03-28T14:57:48.71Z</time></trkpt><trkpt lat="45.4609996" lon="10.5640392"><ele>80.2</ele><time>2026-03-28T14:57:49.711Z</time></trkpt><trkpt lat="45.4610185" lon="10.5638895"><ele>80.0</ele><time>2026-03-28T14:57:50.711Z</time></trkpt><trkpt lat="45.4610378" lon="10.563733"><ele>80.0</ele><time>2026-03-28T14:57:51.711Z</time></trkpt><trkpt lat="45.4610575" lon="10.5635716"><ele>80.0</ele><time>2026-03-28T14:57:52.71Z</time></trkpt><trkpt lat="45.461079" lon="10.5634068"><ele>80.0</ele><time>2026-03-28T14:57:53.711Z</time></trkpt><trkpt lat="45.4610974" lon="10.5632393"><ele>80.0</ele><time>2026-03-28T14:57:54.71Z</time></trkpt><trkpt lat="45.4611111" lon="10.5630682"><ele>80.0</ele><time>2026-03-28T14:57:55.711Z</time></trkpt><trkpt lat="45.461124" lon="10.562894"><ele>80.0</ele><time>2026-03-28T14:57:56.71Z</time></trkpt><trkpt lat="45.4611333" lon="10.5627177"><ele>80.0</ele><time>2026-03-28T14:57:57.711Z</time></trkpt><trkpt lat="45.4611383" lon="10.5625524"><ele>80.0</ele><time>2026-03-28T14:57:58.711Z</time></trkpt><trkpt lat="45.4611402" lon="10.5624003"><ele>79.8</ele><time>2026-03-28T14:57:59.71Z</time></trkpt><trkpt lat="45.4611406" lon="10.5622507"><ele>79.6</ele><time>2026-03-28T14:58:00.711Z</time></trkpt><trkpt lat="45.4611447" lon="10.5621039"><ele>79.4</ele><time>2026-03-28T14:58:01.711Z</time></trkpt><trkpt lat="45.4611456" lon="10.561959"><ele>79.2</ele><time>2026-03-28T14:58:02.711Z</time></trkpt><trkpt lat="45.4611445" lon="10.5618125"><ele>79.0</ele><time>2026-03-28T14:58:03.711Z</time></trkpt><trkpt lat="45.4611453" lon="10.5616633"><ele>78.60000000000001</ele><time>2026-03-28T14:58:04.71Z</time></trkpt><trkpt lat="45.4611442" lon="10.5615116"><ele>78.2</ele><time>2026-03-28T14:58:05.712Z</time></trkpt><trkpt lat="45.4611413" lon="10.5613663"><ele>77.80000000000001</ele><time>2026-03-28T14:58:06.711Z</time></trkpt><trkpt lat="45.4611409" lon="10.5612334"><ele>77.4</ele><time>2026-03-28T14:58:07.711Z</time></trkpt><trkpt lat="45.4611413" lon="10.5611148"><ele>77.0</ele><time>2026-03-28T14:58:08.711Z</time></trkpt><trkpt lat="45.4611415" lon="10.5610096"><ele>77.0</ele><time>2026-03-28T14:58:09.711Z</time></trkpt><trkpt lat="45.4611416" lon="10.5609151"><ele>77.0</ele><time>2026-03-28T14:58:10.709Z</time></trkpt><trkpt lat="45.4611379" lon="10.5607712"><ele>77.0</ele><time>2026-03-28T14:58:12.711Z</time></trkpt><trkpt lat="45.461133" lon="10.5606702"><ele>77.0</ele><time>2026-03-28T14:58:14.711Z</time></trkpt><trkpt lat="45.4611377" lon="10.560578"><ele>77.0</ele><time>2026-03-28T14:58:16.711Z</time></trkpt><trkpt lat="45.4611436" lon="10.5604867"><ele>77.0</ele><time>2026-03-28T14:58:18.71Z</time></trkpt><trkpt lat="45.4611564" lon="10.5603918"><ele>77.0</ele><time>2026-03-28T14:58:20.71Z</time></trkpt><trkpt lat="45.4611836" lon="10.5603002"><ele>76.66666666666667</ele><time>2026-03-28T14:58:22.71Z</time></trkpt><trkpt lat="45.461226" lon="10.5601752"><ele>76.33333333333334</ele><time>2026-03-28T14:58:24.711Z</time></trkpt><trkpt lat="45.4612202" lon="10.5600137"><ele>76.0</ele><time>2026-03-28T14:58:26.71Z</time></trkpt><trkpt lat="45.4611921" lon="10.5599292"><ele>75.66666666666667</ele><time>2026-03-28T14:58:27.71Z</time></trkpt><trkpt lat="45.461169" lon="10.5598406"><ele>75.33333333333333</ele><time>2026-03-28T14:58:28.71Z</time></trkpt><trkpt lat="45.4611568" lon="10.5597434"><ele>75.0</ele><time>2026-03-28T14:58:29.71Z</time></trkpt><trkpt lat="45.4611517" lon="10.5596342"><ele>75.5</ele><time>2026-03-28T14:58:30.711Z</time></trkpt><trkpt lat="45.4611554" lon="10.5595123"><ele>76.0</ele><time>2026-03-28T14:58:31.71Z</time></trkpt><trkpt lat="45.4611717" lon="10.5593837"><ele>76.5</ele><time>2026-03-28T14:58:32.71Z</time></trkpt><trkpt lat="45.4611928" lon="10.5592578"><ele>77.0</ele><time>2026-03-28T14:58:33.71Z</time></trkpt><trkpt lat="45.461216" lon="10.5591516"><ele>77.5</ele><time>2026-03-28T14:58:34.71Z</time></trkpt><trkpt lat="45.4612449" lon="10.5590488"><ele>78.0</ele><time>2026-03-28T14:58:35.71Z</time></trkpt><trkpt lat="45.4612778" lon="10.5589476"><ele>77.5</ele><time>2026-03-28T14:58:36.711Z</time></trkpt><trkpt lat="45.4613082" lon="10.5588603"><ele>77.0</ele><time>2026-03-28T14:58:37.711Z</time></trkpt><trkpt lat="45.461359" lon="10.5587206"><ele>76.5</ele><time>2026-03-28T14:58:39.71Z</time></trkpt><trkpt lat="45.4613904" lon="10.5586316"><ele>76.0</ele><time>2026-03-28T14:58:41.711Z</time></trkpt><trkpt lat="45.4614336" lon="10.5585195"><ele>75.5</ele><time>2026-03-28T14:58:44.71Z</time></trkpt><trkpt lat="45.4614719" lon="10.5584218"><ele>75.0</ele><time>2026-03-28T14:58:46.71Z</time></trkpt><trkpt lat="45.4615116" lon="10.5583036"><ele>75.0</ele><time>2026-03-28T14:58:48.71Z</time></trkpt><trkpt lat="45.4615632" lon="10.5581655"><ele>75.0</ele><time>2026-03-28T14:58:50.711Z</time></trkpt><trkpt lat="45.4615929" lon="10.5580824"><ele>75.0</ele><time>2026-03-28T14:58:51.711Z</time></trkpt><trkpt lat="45.4616256" lon="10.5579946"><ele>75.0</ele><time>2026-03-28T14:58:52.711Z</time></trkpt><trkpt lat="45.4616609" lon="10.5579051"><ele>75.0</ele><time>2026-03-28T14:58:53.711Z</time></trkpt><trkpt lat="45.4616976" lon="10.5578094"><ele>75.0</ele><time>2026-03-28T14:58:54.711Z</time></trkpt><trkpt lat="45.4617374" lon="10.5577079"><ele>75.33333333333333</ele><time>2026-03-28T14:58:55.711Z</time></trkpt><trkpt lat="45.4617766" lon="10.5576049"><ele>75.66666666666667</ele><time>2026-03-28T14:58:56.711Z</time></trkpt><trkpt lat="45.4618163" lon="10.5574975"><ele>76.0</ele><time>2026-03-28T14:58:57.71Z</time></trkpt><trkpt lat="45.4618559" lon="10.557389"><ele>76.33333333333334</ele><time>2026-03-28T14:58:58.711Z</time></trkpt><trkpt lat="45.4618973" lon="10.5572797"><ele>76.66666666666667</ele><time>2026-03-28T14:58:59.711Z</time></trkpt><trkpt lat="45.4619397" lon="10.5571675"><ele>77.0</ele><time>2026-03-28T14:59:00.71Z</time></trkpt><trkpt lat="45.461983" lon="10.557055"><ele>76.8</ele><time>2026-03-28T14:59:01.711Z</time></trkpt><trkpt lat="45.4620272" lon="10.5569421"><ele>76.6</ele><time>2026-03-28T14:59:02.71Z</time></trkpt><trkpt lat="45.4620701" lon="10.5568241"><ele>76.39999999999999</ele><time>2026-03-28T14:59:03.711Z</time></trkpt><trkpt lat="45.4621164" lon="10.5567035"><ele>76.2</ele><time>2026-03-28T14:59:04.71Z</time></trkpt><trkpt lat="45.4621633" lon="10.5565767"><ele>76.0</ele><time>2026-03-28T14:59:05.711Z</time></trkpt><trkpt lat="45.4622115" lon="10.5564453"><ele>75.39999999999999</ele><time>2026-03-28T14:59:06.711Z</time></trkpt><trkpt lat="45.4622658" lon="10.5563009"><ele>74.8</ele><time>2026-03-28T14:59:07.711Z</time></trkpt><trkpt lat="45.4623254" lon="10.5561544"><ele>74.19999999999999</ele><time>2026-03-28T14:59:08.71Z</time></trkpt><trkpt lat="45.4623811" lon="10.556023"><ele>73.6</ele><time>2026-03-28T14:59:09.711Z</time></trkpt><trkpt lat="45.4624323" lon="10.5559073"><ele>73.0</ele><time>2026-03-28T14:59:10.71Z</time></trkpt><trkpt lat="45.4624854" lon="10.5557982"><ele>73.0</ele><time>2026-03-28T14:59:11.71Z</time></trkpt><trkpt lat="45.4625411" lon="10.555694"><ele>73.0</ele><time>2026-03-28T14:59:12.711Z</time></trkpt><trkpt lat="45.4625966" lon="10.5555926"><ele>73.0</ele><time>2026-03-28T14:59:13.71Z</time></trkpt><trkpt lat="45.4626558" lon="10.5554959"><ele>73.0</ele><time>2026-03-28T14:59:14.71Z</time></trkpt><trkpt lat="45.4627183" lon="10.5554017"><ele>73.0</ele><time>2026-03-28T14:59:15.71Z</time></trkpt><trkpt lat="45.4627819" lon="10.5553097"><ele>73.16666666666666</ele><time>2026-03-28T14:59:16.711Z</time></trkpt><trkpt lat="45.4628396" lon="10.5552262"><ele>73.33333333333333</ele><time>2026-03-28T14:59:17.711Z</time></trkpt><trkpt lat="45.4628944" lon="10.5551464"><ele>73.5</ele><time>2026-03-28T14:59:18.711Z</time></trkpt><trkpt lat="45.4629442" lon="10.5550725"><ele>73.66666666666667</ele><time>2026-03-28T14:59:19.711Z</time></trkpt><trkpt lat="45.4629935" lon="10.5550007"><ele>73.83333333333334</ele><time>2026-03-28T14:59:20.711Z</time></trkpt><trkpt lat="45.4630467" lon="10.5549187"><ele>74.0</ele><time>2026-03-28T14:59:21.711Z</time></trkpt><trkpt lat="45.4631125" lon="10.5548204"><ele>73.25</ele><time>2026-03-28T14:59:22.711Z</time></trkpt><trkpt lat="45.4631855" lon="10.5546982"><ele>72.5</ele><time>2026-03-28T14:59:23.711Z</time></trkpt><trkpt lat="45.4632642" lon="10.5545545"><ele>71.75</ele><time>2026-03-28T14:59:24.711Z</time></trkpt><trkpt lat="45.4633437" lon="10.5543874"><ele>71.0</ele><time>2026-03-28T14:59:25.71Z</time></trkpt><trkpt lat="45.4634251" lon="10.5541973"><ele>71.0</ele><time>2026-03-28T14:59:26.711Z</time></trkpt><trkpt lat="45.4635109" lon="10.5539937"><ele>71.0</ele><time>2026-03-28T14:59:27.711Z</time></trkpt><trkpt lat="45.463593" lon="10.5537943"><ele>71.0</ele><time>2026-03-28T14:59:28.71Z</time></trkpt><trkpt lat="45.4636697" lon="10.553608"><ele>71.5</ele><time>2026-03-28T14:59:29.71Z</time></trkpt><trkpt lat="45.4637435" lon="10.5534295"><ele>72.0</ele><time>2026-03-28T14:59:30.711Z</time></trkpt><trkpt lat="45.463815" lon="10.5532572"><ele>72.5</ele><time>2026-03-28T14:59:31.71Z</time></trkpt><trkpt lat="45.4638832" lon="10.5530916"><ele>73.0</ele><time>2026-03-28T14:59:32.71Z</time></trkpt><trkpt lat="45.4639487" lon="10.5529296"><ele>73.0</ele><time>2026-03-28T14:59:33.711Z</time></trkpt><trkpt lat="45.4640072" lon="10.5527716"><ele>73.0</ele><time>2026-03-28T14:59:34.71Z</time></trkpt><trkpt lat="45.4640652" lon="10.5526144"><ele>73.0</ele><time>2026-03-28T14:59:35.711Z</time></trkpt><trkpt lat="45.464127" lon="10.5524561"><ele>73.0</ele><time>2026-03-28T14:59:36.711Z</time></trkpt><trkpt lat="45.4641929" lon="10.5523034"><ele>73.0</ele><time>2026-03-28T14:59:37.71Z</time></trkpt><trkpt lat="45.4642618" lon="10.552149"><ele>73.0</ele><time>2026-03-28T14:59:38.71Z</time></trkpt><trkpt lat="45.4643356" lon="10.5520007"><ele>73.0</ele><time>2026-03-28T14:59:39.71Z</time></trkpt><trkpt lat="45.4644146" lon="10.5518542"><ele>73.0</ele><time>2026-03-28T14:59:40.71Z</time></trkpt><trkpt lat="45.4644986" lon="10.5517114"><ele>73.0</ele><time>2026-03-28T14:59:41.71Z</time></trkpt><trkpt lat="45.4645845" lon="10.5515742"><ele>73.0</ele><time>2026-03-28T14:59:42.711Z</time></trkpt><trkpt lat="45.464665" lon="10.5514457"><ele>73.0</ele><time>2026-03-28T14:59:43.711Z</time></trkpt><trkpt lat="45.4647435" lon="10.5513221"><ele>73.0</ele><time>2026-03-28T14:59:44.71Z</time></trkpt><trkpt lat="45.4648197" lon="10.5511964"><ele>72.8</ele><time>2026-03-28T14:59:45.711Z</time></trkpt><trkpt lat="45.4648919" lon="10.5510743"><ele>72.6</ele><time>2026-03-28T14:59:46.711Z</time></trkpt><trkpt lat="45.4649646" lon="10.5509517"><ele>72.4</ele><time>2026-03-28T14:59:47.71Z</time></trkpt><trkpt lat="45.4650368" lon="10.5508315"><ele>72.2</ele><time>2026-03-28T14:59:48.71Z</time></trkpt><trkpt lat="45.4651092" lon="10.550713"><ele>72.0</ele><time>2026-03-28T14:59:49.71Z</time></trkpt><trkpt lat="45.4651818" lon="10.5505946"><ele>72.0</ele><time>2026-03-28T14:59:50.711Z</time></trkpt><trkpt lat="45.465256" lon="10.5504749"><ele>72.0</ele><time>2026-03-28T14:59:51.71Z</time></trkpt><trkpt lat="45.4653297" lon="10.5503457"><ele>72.0</ele><time>2026-03-28T14:59:52.71Z</time></trkpt><trkpt lat="45.4654039" lon="10.5502126"><ele>72.0</ele><time>2026-03-28T14:59:53.71Z</time></trkpt><trkpt lat="45.4654728" lon="10.5500817"><ele>71.8</ele><time>2026-03-28T14:59:54.71Z</time></trkpt><trkpt lat="45.4655352" lon="10.5499586"><ele>71.6</ele><time>2026-03-28T14:59:55.711Z</time></trkpt><trkpt lat="45.4655922" lon="10.5498413"><ele>71.39999999999999</ele><time>2026-03-28T14:59:56.71Z</time></trkpt><trkpt lat="45.4656463" lon="10.5497298"><ele>71.2</ele><time>2026-03-28T14:59:57.71Z</time></trkpt><trkpt lat="45.4656935" lon="10.5496211"><ele>71.0</ele><time>2026-03-28T14:59:58.71Z</time></trkpt><trkpt lat="45.4657378" lon="10.5495165"><ele>71.33333333333334</ele><time>2026-03-28T14:59:59.711Z</time></trkpt><trkpt lat="45.4657794" lon="10.5494168"><ele>71.66666666666667</ele><time>2026-03-28T15:00:00.711Z</time></trkpt><trkpt lat="45.4658209" lon="10.5493192"><ele>72.0</ele><time>2026-03-28T15:00:01.71Z</time></trkpt><trkpt lat="45.4658626" lon="10.5492189"><ele>72.33333333333333</ele><time>2026-03-28T15:00:02.71Z</time></trkpt><trkpt lat="45.4659031" lon="10.5491182"><ele>72.66666666666666</ele><time>2026-03-28T15:00:03.71Z</time></trkpt><trkpt lat="45.4659438" lon="10.5490168"><ele>73.0</ele><time>2026-03-28T15:00:04.71Z</time></trkpt><trkpt lat="45.4659865" lon="10.5489131"><ele>73.0</ele><time>2026-03-28T15:00:05.71Z</time></trkpt><trkpt lat="45.4660272" lon="10.54881"><ele>73.0</ele><time>2026-03-28T15:00:06.71Z</time></trkpt><trkpt lat="45.4660655" lon="10.5487102"><ele>73.0</ele><time>2026-03-28T15:00:07.71Z</time></trkpt><trkpt lat="45.4661004" lon="10.5486106"><ele>73.0</ele><time>2026-03-28T15:00:08.711Z</time></trkpt><trkpt lat="45.4661341" lon="10.5485147"><ele>73.0</ele><time>2026-03-28T15:00:09.711Z</time></trkpt><trkpt lat="45.4661653" lon="10.54842"><ele>73.0</ele><time>2026-03-28T15:00:10.711Z</time></trkpt><trkpt lat="45.4661951" lon="10.5483326"><ele>72.85714285714286</ele><time>2026-03-28T15:00:11.711Z</time></trkpt><trkpt lat="45.4662239" lon="10.5482409"><ele>72.71428571428572</ele><time>2026-03-28T15:00:12.71Z</time></trkpt><trkpt lat="45.4662509" lon="10.5481459"><ele>72.57142857142858</ele><time>2026-03-28T15:00:13.711Z</time></trkpt><trkpt lat="45.4662809" lon="10.5480526"><ele>72.42857142857143</ele><time>2026-03-28T15:00:14.71Z</time></trkpt><trkpt lat="45.4663132" lon="10.5479573"><ele>72.28571428571429</ele><time>2026-03-28T15:00:15.711Z</time></trkpt><trkpt lat="45.4663428" lon="10.5478636"><ele>72.14285714285715</ele><time>2026-03-28T15:00:16.71Z</time></trkpt><trkpt lat="45.4663734" lon="10.5477681"><ele>72.0</ele><time>2026-03-28T15:00:17.711Z</time></trkpt><trkpt lat="45.4664018" lon="10.5476796"><ele>72.0</ele><time>2026-03-28T15:00:18.71Z</time></trkpt><trkpt lat="45.4664372" lon="10.5475726"><ele>72.0</ele><time>2026-03-28T15:00:20.711Z</time></trkpt><trkpt lat="45.466465" lon="10.5474825"><ele>72.0</ele><time>2026-03-28T15:00:23.711Z</time></trkpt><trkpt lat="45.4664984" lon="10.5473841"><ele>72.0</ele><time>2026-03-28T15:00:26.711Z</time></trkpt><trkpt lat="45.4665373" lon="10.5472623"><ele>72.0</ele><time>2026-03-28T15:00:28.71Z</time></trkpt><trkpt lat="45.466578" lon="10.5471303"><ele>72.0</ele><time>2026-03-28T15:00:30.711Z</time></trkpt><trkpt lat="45.4666231" lon="10.5469878"><ele>72.16666666666667</ele><time>2026-03-28T15:00:32.71Z</time></trkpt><trkpt lat="45.4666739" lon="10.5468392"><ele>72.33333333333333</ele><time>2026-03-28T15:00:34.71Z</time></trkpt><trkpt lat="45.466703" lon="10.5467568"><ele>72.5</ele><time>2026-03-28T15:00:35.71Z</time></trkpt><trkpt lat="45.4667341" lon="10.5466628"><ele>72.66666666666666</ele><time>2026-03-28T15:00:36.71Z</time></trkpt><trkpt lat="45.466767" lon="10.5465633"><ele>72.83333333333333</ele><time>2026-03-28T15:00:37.71Z</time></trkpt><trkpt lat="45.4668032" lon="10.5464567"><ele>73.0</ele><time>2026-03-28T15:00:38.71Z</time></trkpt><trkpt lat="45.4668423" lon="10.5463451"><ele>73.0</ele><time>2026-03-28T15:00:39.711Z</time></trkpt><trkpt lat="45.4668825" lon="10.5462373"><ele>73.0</ele><time>2026-03-28T15:00:40.71Z</time></trkpt><trkpt lat="45.4669177" lon="10.5461437"><ele>73.0</ele><time>2026-03-28T15:00:41.71Z</time></trkpt><trkpt lat="45.4669461" lon="10.5460627"><ele>73.0</ele><time>2026-03-28T15:00:42.71Z</time></trkpt><trkpt lat="45.4669808" lon="10.5459205"><ele>73.0</ele><time>2026-03-28T15:00:44.711Z</time></trkpt><trkpt lat="45.4669956" lon="10.545821"><ele>73.0</ele><time>2026-03-28T15:00:46.71Z</time></trkpt><trkpt lat="45.4670136" lon="10.545723"><ele>72.8</ele><time>2026-03-28T15:00:48.71Z</time></trkpt><trkpt lat="45.4670371" lon="10.5455481"><ele>72.6</ele><time>2026-03-28T15:00:50.71Z</time></trkpt><trkpt lat="45.4670305" lon="10.5454577"><ele>72.4</ele><time>2026-03-28T15:00:51.711Z</time></trkpt><trkpt lat="45.4670184" lon="10.5453467"><ele>72.2</ele><time>2026-03-28T15:00:53.71Z</time></trkpt><trkpt lat="45.4670075" lon="10.5452536"><ele>72.0</ele><time>2026-03-28T15:00:55.711Z</time></trkpt><trkpt lat="45.4670007" lon="10.5450781"><ele>72.0</ele><time>2026-03-28T15:00:57.71Z</time></trkpt><trkpt lat="45.4669957" lon="10.5449495"><ele>72.0</ele><time>2026-03-28T15:00:58.71Z</time></trkpt><trkpt lat="45.4669827" lon="10.5447959"><ele>72.0</ele><time>2026-03-28T15:00:59.71Z</time></trkpt><trkpt lat="45.4669683" lon="10.5446207"><ele>72.0</ele><time>2026-03-28T15:01:00.711Z</time></trkpt><trkpt lat="45.4669499" lon="10.5444277"><ele>72.25</ele><time>2026-03-28T15:01:01.71Z</time></trkpt><trkpt lat="45.4669277" lon="10.5442169"><ele>72.5</ele><time>2026-03-28T15:01:02.71Z</time></trkpt><trkpt lat="45.4669063" lon="10.5440044"><ele>72.75</ele><time>2026-03-28T15:01:03.711Z</time></trkpt><trkpt lat="45.4668865" lon="10.5438089"><ele>73.0</ele><time>2026-03-28T15:01:04.711Z</time></trkpt><trkpt lat="45.4668752" lon="10.5436214"><ele>73.75</ele><time>2026-03-28T15:01:05.71Z</time></trkpt><trkpt lat="45.4668683" lon="10.5434324"><ele>74.5</ele><time>2026-03-28T15:01:06.711Z</time></trkpt><trkpt lat="45.4668625" lon="10.5432475"><ele>75.25</ele><time>2026-03-28T15:01:07.71Z</time></trkpt><trkpt lat="45.4668592" lon="10.5430785"><ele>76.0</ele><time>2026-03-28T15:01:08.711Z</time></trkpt><trkpt lat="45.4668575" lon="10.5429342"><ele>76.0</ele><time>2026-03-28T15:01:09.71Z</time></trkpt><trkpt lat="45.4668538" lon="10.5428023"><ele>76.0</ele><time>2026-03-28T15:01:10.71Z</time></trkpt><trkpt lat="45.4668524" lon="10.5426877"><ele>76.0</ele><time>2026-03-28T15:01:11.71Z</time></trkpt><trkpt lat="45.4668543" lon="10.5425889"><ele>76.0</ele><time>2026-03-28T15:01:12.71Z</time></trkpt><trkpt lat="45.4668577" lon="10.5424229"><ele>76.0</ele><time>2026-03-28T15:01:14.711Z</time></trkpt><trkpt lat="45.466866" lon="10.5422904"><ele>76.0</ele><time>2026-03-28T15:01:16.71Z</time></trkpt><trkpt lat="45.4668787" lon="10.5421766"><ele>76.0</ele><time>2026-03-28T15:01:18.711Z</time></trkpt><trkpt lat="45.4668979" lon="10.5420489"><ele>76.0</ele><time>2026-03-28T15:01:20.71Z</time></trkpt><trkpt lat="45.4669055" lon="10.5418786"><ele>76.0</ele><time>2026-03-28T15:01:22.71Z</time></trkpt><trkpt lat="45.4669079" lon="10.5417861"><ele>76.0</ele><time>2026-03-28T15:01:23.711Z</time></trkpt><trkpt lat="45.4669113" lon="10.5416946"><ele>76.0</ele><time>2026-03-28T15:01:24.711Z</time></trkpt><trkpt lat="45.4669171" lon="10.5416028"><ele>76.0</ele><time>2026-03-28T15:01:25.711Z</time></trkpt><trkpt lat="45.4669323" lon="10.5414311"><ele>76.0</ele><time>2026-03-28T15:01:27.711Z</time></trkpt><trkpt lat="45.4669502" lon="10.5412845"><ele>76.0</ele><time>2026-03-28T15:01:29.711Z</time></trkpt><trkpt lat="45.4669671" lon="10.5411578"><ele>76.0</ele><time>2026-03-28T15:01:31.71Z</time></trkpt><trkpt lat="45.4669908" lon="10.540998"><ele>76.0</ele><time>2026-03-28T15:01:33.71Z</time></trkpt><trkpt lat="45.4670137" lon="10.5408443"><ele>76.33333333333333</ele><time>2026-03-28T15:01:35.711Z</time></trkpt><trkpt lat="45.4670368" lon="10.5407042"><ele>76.66666666666666</ele><time>2026-03-28T15:01:37.711Z</time></trkpt><trkpt lat="45.467056" lon="10.5405862"><ele>77.0</ele><time>2026-03-28T15:01:39.71Z</time></trkpt><trkpt lat="45.4670804" lon="10.54047"><ele>77.33333333333333</ele><time>2026-03-28T15:01:41.711Z</time></trkpt><trkpt lat="45.4671045" lon="10.5403584"><ele>77.66666666666667</ele><time>2026-03-28T15:01:43.71Z</time></trkpt><trkpt lat="45.4671265" lon="10.5402666"><ele>78.0</ele><time>2026-03-28T15:01:45.71Z</time></trkpt><trkpt lat="45.4671501" lon="10.5401742"><ele>78.33333333333333</ele><time>2026-03-28T15:01:47.71Z</time></trkpt><trkpt lat="45.4671702" lon="10.5400871"><ele>78.66666666666667</ele><time>2026-03-28T15:01:49.71Z</time></trkpt><trkpt lat="45.4671922" lon="10.5399835"><ele>79.0</ele><time>2026-03-28T15:01:53.711Z</time></trkpt><trkpt lat="45.4672142" lon="10.5398788"><ele>79.33333333333334</ele><time>2026-03-28T15:01:55.711Z</time></trkpt><trkpt lat="45.4672404" lon="10.5397722"><ele>79.66666666666667</ele><time>2026-03-28T15:01:57.71Z</time></trkpt><trkpt lat="45.4672721" lon="10.5396556"><ele>80.0</ele><time>2026-03-28T15:02:00.711Z</time></trkpt><trkpt lat="45.4673027" lon="10.5395546"><ele>80.16666666666667</ele><time>2026-03-28T15:02:08.711Z</time></trkpt><trkpt lat="45.4673349" lon="10.5394469"><ele>80.33333333333334</ele><time>2026-03-28T15:02:11.711Z</time></trkpt><trkpt lat="45.4673613" lon="10.5393539"><ele>80.5</ele><time>2026-03-28T15:02:18.71Z</time></trkpt><trkpt lat="45.4674017" lon="10.5392458"><ele>80.66666666666667</ele><time>2026-03-28T15:02:22.71Z</time></trkpt><trkpt lat="45.4674294" lon="10.5391534"><ele>80.83333333333333</ele><time>2026-03-28T15:02:24.71Z</time></trkpt><trkpt lat="45.4674629" lon="10.5390423"><ele>81.0</ele><time>2026-03-28T15:02:27.711Z</time></trkpt><trkpt lat="45.4674898" lon="10.5389589"><ele>81.0</ele><time>2026-03-28T15:02:29.711Z</time></trkpt><trkpt lat="45.4675281" lon="10.5388598"><ele>81.0</ele><time>2026-03-28T15:02:32.71Z</time></trkpt><trkpt lat="45.4675517" lon="10.5387764"><ele>81.0</ele><time>2026-03-28T15:02:42.71Z</time></trkpt><trkpt lat="45.4675837" lon="10.5386924"><ele>81.0</ele><time>2026-03-28T15:02:47.71Z</time></trkpt><trkpt lat="45.4676333" lon="10.5385944"><ele>81.0</ele><time>2026-03-28T15:02:49.71Z</time></trkpt><trkpt lat="45.4677024" lon="10.5385018"><ele>81.0</ele><time>2026-03-28T15:02:51.71Z</time></trkpt><trkpt lat="45.4677764" lon="10.5384057"><ele>81.8</ele><time>2026-03-28T15:02:53.71Z</time></trkpt><trkpt lat="45.4678177" lon="10.5382528"><ele>82.6</ele><time>2026-03-28T15:02:55.711Z</time></trkpt><trkpt lat="45.4678384" lon="10.5380834"><ele>83.4</ele><time>2026-03-28T15:02:57.71Z</time></trkpt><trkpt lat="45.4678691" lon="10.5379442"><ele>84.2</ele><time>2026-03-28T15:02:59.711Z</time></trkpt><trkpt lat="45.4679091" lon="10.5378239"><ele>85.0</ele><time>2026-03-28T15:03:01.71Z</time></trkpt><trkpt lat="45.4679571" lon="10.5376869"><ele>85.0</ele><time>2026-03-28T15:03:03.71Z</time></trkpt><trkpt lat="45.4680136" lon="10.5375252"><ele>85.0</ele><time>2026-03-28T15:03:05.71Z</time></trkpt><trkpt lat="45.4680445" lon="10.5374353"><ele>85.0</ele><time>2026-03-28T15:03:06.71Z</time></trkpt><trkpt lat="45.4680738" lon="10.5373459"><ele>85.0</ele><time>2026-03-28T15:03:07.71Z</time></trkpt><trkpt lat="45.4681252" lon="10.5371981"><ele>85.0</ele><time>2026-03-28T15:03:09.71Z</time></trkpt><trkpt lat="45.4681544" lon="10.5371073"><ele>85.33333333333333</ele><time>2026-03-28T15:03:11.71Z</time></trkpt><trkpt lat="45.4681918" lon="10.537013"><ele>85.66666666666666</ele><time>2026-03-28T15:03:20.71Z</time></trkpt><trkpt lat="45.4682217" lon="10.5369335"><ele>86.0</ele><time>2026-03-28T15:03:39.711Z</time></trkpt><trkpt lat="45.4682704" lon="10.5368036"><ele>86.33333333333333</ele><time>2026-03-28T15:03:42.71Z</time></trkpt><trkpt lat="45.4683127" lon="10.5366827"><ele>86.66666666666667</ele><time>2026-03-28T15:03:44.711Z</time></trkpt><trkpt lat="45.4683558" lon="10.5365615"><ele>87.0</ele><time>2026-03-28T15:03:46.71Z</time></trkpt><trkpt lat="45.4683892" lon="10.5364601"><ele>87.0</ele><time>2026-03-28T15:03:48.711Z</time></trkpt><trkpt lat="45.4684203" lon="10.5363721"><ele>87.0</ele><time>2026-03-28T15:03:50.711Z</time></trkpt><trkpt lat="45.468451" lon="10.5362802"><ele>87.0</ele><time>2026-03-28T15:03:54.711Z</time></trkpt><trkpt lat="45.4684853" lon="10.5361761"><ele>87.0</ele><time>2026-03-28T15:03:57.71Z</time></trkpt><trkpt lat="45.4685256" lon="10.5360669"><ele>87.0</ele><time>2026-03-28T15:03:59.71Z</time></trkpt><trkpt lat="45.4685618" lon="10.5359648"><ele>87.0</ele><time>2026-03-28T15:04:01.711Z</time></trkpt><trkpt lat="45.4686023" lon="10.535864"><ele>87.33333333333333</ele><time>2026-03-28T15:04:03.711Z</time></trkpt><trkpt lat="45.4686399" lon="10.5357639"><ele>87.66666666666667</ele><time>2026-03-28T15:04:05.711Z</time></trkpt><trkpt lat="45.4686752" lon="10.5356668"><ele>88.0</ele><time>2026-03-28T15:04:08.71Z</time></trkpt><trkpt lat="45.4687075" lon="10.5355801"><ele>88.33333333333334</ele><time>2026-03-28T15:04:12.711Z</time></trkpt><trkpt lat="45.4687392" lon="10.5354872"><ele>88.66666666666667</ele><time>2026-03-28T15:04:15.711Z</time></trkpt><trkpt lat="45.4687782" lon="10.535384"><ele>89.0</ele><time>2026-03-28T15:04:18.711Z</time></trkpt><trkpt lat="45.4688151" lon="10.5352677"><ele>89.28571428571428</ele><time>2026-03-28T15:04:21.711Z</time></trkpt><trkpt lat="45.4688455" lon="10.5351875"><ele>89.57142857142857</ele><time>2026-03-28T15:04:23.711Z</time></trkpt><trkpt lat="45.4688805" lon="10.5350887"><ele>89.85714285714286</ele><time>2026-03-28T15:04:25.71Z</time></trkpt><trkpt lat="45.4689164" lon="10.5349855"><ele>90.14285714285714</ele><time>2026-03-28T15:04:27.711Z</time></trkpt><trkpt lat="45.4689541" lon="10.5348854"><ele>90.42857142857143</ele><time>2026-03-28T15:04:29.711Z</time></trkpt><trkpt lat="45.4689834" lon="10.5348053"><ele>90.71428571428571</ele><time>2026-03-28T15:04:31.71Z</time></trkpt><trkpt lat="45.4690219" lon="10.5347078"><ele>91.0</ele><time>2026-03-28T15:04:35.711Z</time></trkpt><trkpt lat="45.4690652" lon="10.534593"><ele>91.33333333333333</ele><time>2026-03-28T15:04:38.71Z</time></trkpt><trkpt lat="45.4690962" lon="10.534503"><ele>91.66666666666666</ele><time>2026-03-28T15:04:40.71Z</time></trkpt><trkpt lat="45.4691276" lon="10.5344118"><ele>92.0</ele><time>2026-03-28T15:04:42.711Z</time></trkpt><trkpt lat="45.4691599" lon="10.5343149"><ele>92.33333333333333</ele><time>2026-03-28T15:04:44.711Z</time></trkpt><trkpt lat="45.4691941" lon="10.5342096"><ele>92.66666666666667</ele><time>2026-03-28T15:04:46.711Z</time></trkpt><trkpt lat="45.4692302" lon="10.5340872"><ele>93.0</ele><time>2026-03-28T15:04:48.71Z</time></trkpt><trkpt lat="45.4692675" lon="10.5339583"><ele>93.0</ele><time>2026-03-28T15:04:50.71Z</time></trkpt><trkpt lat="45.469303" lon="10.5338439"><ele>93.0</ele><time>2026-03-28T15:04:52.711Z</time></trkpt><trkpt lat="45.469334" lon="10.5337486"><ele>93.0</ele><time>2026-03-28T15:04:54.71Z</time></trkpt><trkpt lat="45.4693694" lon="10.5336611"><ele>93.0</ele><time>2026-03-28T15:05:08.71Z</time></trkpt><trkpt lat="45.4693946" lon="10.533564"><ele>93.0</ele><time>2026-03-28T15:05:11.71Z</time></trkpt><trkpt lat="45.4694231" lon="10.533462"><ele>93.0</ele><time>2026-03-28T15:05:15.71Z</time></trkpt><trkpt lat="45.4694407" lon="10.5333613"><ele>93.14285714285715</ele><time>2026-03-28T15:05:27.711Z</time></trkpt><trkpt lat="45.4694687" lon="10.5332449"><ele>93.28571428571429</ele><time>2026-03-28T15:05:30.71Z</time></trkpt><trkpt lat="45.4694955" lon="10.5331523"><ele>93.42857142857143</ele><time>2026-03-28T15:05:34.711Z</time></trkpt><trkpt lat="45.469524" lon="10.5330639"><ele>93.57142857142858</ele><time>2026-03-28T15:05:54.71Z</time></trkpt><trkpt lat="45.4695491" lon="10.5329745"><ele>93.71428571428571</ele><time>2026-03-28T15:05:59.71Z</time></trkpt><trkpt lat="45.4695759" lon="10.5328803"><ele>93.85714285714286</ele><time>2026-03-28T15:06:04.71Z</time></trkpt><trkpt lat="45.4696041" lon="10.5327797"><ele>94.0</ele><time>2026-03-28T15:06:07.711Z</time></trkpt><trkpt lat="45.4696276" lon="10.5326761"><ele>94.28571428571428</ele><time>2026-03-28T15:06:18.711Z</time></trkpt><trkpt lat="45.46965" lon="10.5325914"><ele>94.57142857142857</ele><time>2026-03-28T15:06:20.71Z</time></trkpt><trkpt lat="45.4696769" lon="10.5324906"><ele>94.85714285714286</ele><time>2026-03-28T15:06:23.711Z</time></trkpt><trkpt lat="45.4697221" lon="10.5324093"><ele>95.14285714285714</ele><time>2026-03-28T15:06:27.71Z</time></trkpt><trkpt lat="45.4697804" lon="10.5323717"><ele>95.42857142857143</ele><time>2026-03-28T15:06:38.711Z</time></trkpt><trkpt lat="45.4698477" lon="10.5323439"><ele>95.71428571428571</ele><time>2026-03-28T15:06:40.71Z</time></trkpt><trkpt lat="45.4699164" lon="10.5323075"><ele>96.0</ele><time>2026-03-28T15:06:42.71Z</time></trkpt><trkpt lat="45.4699978" lon="10.5322849"><ele>96.0</ele><time>2026-03-28T15:06:44.71Z</time></trkpt><trkpt lat="45.4700963" lon="10.5323096"><ele>96.0</ele><time>2026-03-28T15:06:46.711Z</time></trkpt><trkpt lat="45.4701986" lon="10.5323581"><ele>96.0</ele><time>2026-03-28T15:06:48.711Z</time></trkpt><trkpt lat="45.4702998" lon="10.5324097"><ele>96.0</ele><time>2026-03-28T15:06:50.71Z</time></trkpt><trkpt lat="45.4704092" lon="10.5324669"><ele>96.0</ele><time>2026-03-28T15:06:52.711Z</time></trkpt><trkpt lat="45.4705255" lon="10.5325272"><ele>95.85714285714285</ele><time>2026-03-28T15:06:54.711Z</time></trkpt><trkpt lat="45.4705856" lon="10.5325589"><ele>95.71428571428571</ele><time>2026-03-28T15:06:55.711Z</time></trkpt><trkpt lat="45.4706469" lon="10.5325933"><ele>95.57142857142857</ele><time>2026-03-28T15:06:56.71Z</time></trkpt><trkpt lat="45.4707091" lon="10.532629"><ele>95.42857142857142</ele><time>2026-03-28T15:06:57.71Z</time></trkpt><trkpt lat="45.4707725" lon="10.5326643"><ele>95.28571428571429</ele><time>2026-03-28T15:06:58.711Z</time></trkpt><trkpt lat="45.4708404" lon="10.5326988"><ele>95.14285714285714</ele><time>2026-03-28T15:06:59.711Z</time></trkpt><trkpt lat="45.4709082" lon="10.5327337"><ele>95.0</ele><time>2026-03-28T15:07:00.71Z</time></trkpt><trkpt lat="45.4709721" lon="10.5327712"><ele>95.0</ele><time>2026-03-28T15:07:01.71Z</time></trkpt><trkpt lat="45.4710726" lon="10.532846"><ele>95.0</ele><time>2026-03-28T15:07:03.711Z</time></trkpt><trkpt lat="45.4711589" lon="10.5329332"><ele>95.0</ele><time>2026-03-28T15:07:05.711Z</time></trkpt><trkpt lat="45.4712587" lon="10.5330344"><ele>95.0</ele><time>2026-03-28T15:07:07.711Z</time></trkpt><trkpt lat="45.4713141" lon="10.5330778"><ele>95.0</ele><time>2026-03-28T15:07:08.711Z</time></trkpt><trkpt lat="45.471368" lon="10.5331243"><ele>95.0</ele><time>2026-03-28T15:07:09.71Z</time></trkpt><trkpt lat="45.4714217" lon="10.5331789"><ele>95.0</ele><time>2026-03-28T15:07:10.71Z</time></trkpt><trkpt lat="45.4714815" lon="10.5332456"><ele>95.0</ele><time>2026-03-28T15:07:11.711Z</time></trkpt><trkpt lat="45.4715533" lon="10.533322"><ele>95.0</ele><time>2026-03-28T15:07:12.71Z</time></trkpt><trkpt lat="45.4716306" lon="10.5334094"><ele>95.0</ele><time>2026-03-28T15:07:13.711Z</time></trkpt><trkpt lat="45.4717172" lon="10.533505"><ele>95.0</ele><time>2026-03-28T15:07:14.71Z</time></trkpt><trkpt lat="45.4717979" lon="10.5335958"><ele>95.0</ele><time>2026-03-28T15:07:15.71Z</time></trkpt><trkpt lat="45.4718771" lon="10.5336833"><ele>95.0</ele><time>2026-03-28T15:07:16.711Z</time></trkpt><trkpt lat="45.471955" lon="10.5337756"><ele>95.0</ele><time>2026-03-28T15:07:17.71Z</time></trkpt><trkpt lat="45.4720376" lon="10.5338675"><ele>95.0</ele><time>2026-03-28T15:07:18.71Z</time></trkpt><trkpt lat="45.472124" lon="10.5339658"><ele>95.0</ele><time>2026-03-28T15:07:19.71Z</time></trkpt><trkpt lat="45.4722178" lon="10.5340664"><ele>94.6</ele><time>2026-03-28T15:07:20.711Z</time></trkpt><trkpt lat="45.4723113" lon="10.53417"><ele>94.2</ele><time>2026-03-28T15:07:21.711Z</time></trkpt><trkpt lat="45.4724009" lon="10.5342725"><ele>93.80000000000001</ele><time>2026-03-28T15:07:22.711Z</time></trkpt><trkpt lat="45.4724818" lon="10.534369"><ele>93.4</ele><time>2026-03-28T15:07:23.71Z</time></trkpt><trkpt lat="45.4725673" lon="10.5344612"><ele>93.0</ele><time>2026-03-28T15:07:24.711Z</time></trkpt><trkpt lat="45.4726513" lon="10.534557"><ele>91.80000000000001</ele><time>2026-03-28T15:07:25.711Z</time></trkpt><trkpt lat="45.4727314" lon="10.5346447"><ele>90.6</ele><time>2026-03-28T15:07:26.711Z</time></trkpt><trkpt lat="45.4728096" lon="10.53473"><ele>89.4</ele><time>2026-03-28T15:07:27.71Z</time></trkpt><trkpt lat="45.4728879" lon="10.5348113"><ele>88.19999999999999</ele><time>2026-03-28T15:07:28.711Z</time></trkpt><trkpt lat="45.4729605" lon="10.534893"><ele>87.0</ele><time>2026-03-28T15:07:29.71Z</time></trkpt><trkpt lat="45.4730338" lon="10.5349754"><ele>86.66666666666667</ele><time>2026-03-28T15:07:30.711Z</time></trkpt><trkpt lat="45.4731057" lon="10.5350584"><ele>86.33333333333333</ele><time>2026-03-28T15:07:31.71Z</time></trkpt><trkpt lat="45.4731733" lon="10.535142"><ele>86.0</ele><time>2026-03-28T15:07:32.71Z</time></trkpt><trkpt lat="45.4732382" lon="10.5352234"><ele>85.66666666666666</ele><time>2026-03-28T15:07:33.71Z</time></trkpt><trkpt lat="45.4732976" lon="10.5353059"><ele>85.33333333333333</ele><time>2026-03-28T15:07:34.71Z</time></trkpt><trkpt lat="45.4733527" lon="10.5353859"><ele>85.0</ele><time>2026-03-28T15:07:35.71Z</time></trkpt><trkpt lat="45.473401" lon="10.5354648"><ele>84.5</ele><time>2026-03-28T15:07:36.711Z</time></trkpt><trkpt lat="45.4734414" lon="10.5355446"><ele>84.0</ele><time>2026-03-28T15:07:37.71Z</time></trkpt><trkpt lat="45.4735023" lon="10.5356809"><ele>83.5</ele><time>2026-03-28T15:07:39.71Z</time></trkpt><trkpt lat="45.4735426" lon="10.5357982"><ele>83.0</ele><time>2026-03-28T15:07:41.711Z</time></trkpt><trkpt lat="45.4735695" lon="10.5358862"><ele>82.5</ele><time>2026-03-28T15:07:45.711Z</time></trkpt><trkpt lat="45.4736026" lon="10.5359981"><ele>82.0</ele><time>2026-03-28T15:07:49.71Z</time></trkpt><trkpt lat="45.4736263" lon="10.5360838"><ele>82.0</ele><time>2026-03-28T15:07:52.711Z</time></trkpt><trkpt lat="45.4736552" lon="10.5362072"><ele>82.0</ele><time>2026-03-28T15:08:01.711Z</time></trkpt><trkpt lat="45.4736816" lon="10.5363196"><ele>82.0</ele><time>2026-03-28T15:08:03.711Z</time></trkpt><trkpt lat="45.4737115" lon="10.5364683"><ele>82.0</ele><time>2026-03-28T15:08:05.711Z</time></trkpt><trkpt lat="45.4737501" lon="10.5366394"><ele>82.0</ele><time>2026-03-28T15:08:07.71Z</time></trkpt><trkpt lat="45.4737747" lon="10.5367351"><ele>81.5</ele><time>2026-03-28T15:08:08.71Z</time></trkpt><trkpt lat="45.4737992" lon="10.5368319"><ele>81.0</ele><time>2026-03-28T15:08:09.711Z</time></trkpt><trkpt lat="45.4738221" lon="10.5369218"><ele>80.5</ele><time>2026-03-28T15:08:10.71Z</time></trkpt><trkpt lat="45.4738547" lon="10.5370431"><ele>80.0</ele><time>2026-03-28T15:08:12.71Z</time></trkpt><trkpt lat="45.4738843" lon="10.5371525"><ele>79.5</ele><time>2026-03-28T15:08:14.711Z</time></trkpt><trkpt lat="45.4739219" lon="10.5372973"><ele>79.0</ele><time>2026-03-28T15:08:16.711Z</time></trkpt><trkpt lat="45.4739438" lon="10.5373916"><ele>78.66666666666666</ele><time>2026-03-28T15:08:17.71Z</time></trkpt><trkpt lat="45.473968" lon="10.5375026"><ele>78.33333333333333</ele><time>2026-03-28T15:08:18.71Z</time></trkpt><trkpt lat="45.4739972" lon="10.5376216"><ele>78.0</ele><time>2026-03-28T15:08:19.71Z</time></trkpt><trkpt lat="45.4740276" lon="10.5377422"><ele>77.66666666666667</ele><time>2026-03-28T15:08:20.71Z</time></trkpt><trkpt lat="45.474059" lon="10.5378608"><ele>77.33333333333334</ele><time>2026-03-28T15:08:21.71Z</time></trkpt><trkpt lat="45.4740885" lon="10.5379804"><ele>77.0</ele><time>2026-03-28T15:08:22.711Z</time></trkpt><trkpt lat="45.4741125" lon="10.5380998"><ele>76.16666666666667</ele><time>2026-03-28T15:08:23.711Z</time></trkpt><trkpt lat="45.4741343" lon="10.5382064"><ele>75.33333333333334</ele><time>2026-03-28T15:08:24.71Z</time></trkpt><trkpt lat="45.4741559" lon="10.5383008"><ele>74.5</ele><time>2026-03-28T15:08:25.711Z</time></trkpt><trkpt lat="45.4741871" lon="10.5384653"><ele>73.66666666666667</ele><time>2026-03-28T15:08:27.71Z</time></trkpt><trkpt lat="45.4741994" lon="10.5386006"><ele>72.83333333333333</ele><time>2026-03-28T15:08:29.711Z</time></trkpt><trkpt lat="45.4742088" lon="10.5387062"><ele>72.0</ele><time>2026-03-28T15:08:31.711Z</time></trkpt><trkpt lat="45.4742286" lon="10.5387979"><ele>72.00000000000001</ele><time>2026-03-28T15:08:34.711Z</time></trkpt><trkpt lat="45.474291" lon="10.5388474"><ele>72.0</ele><time>2026-03-28T15:08:49.711Z</time></trkpt><trkpt lat="45.4743507" lon="10.538795"><ele>72.0</ele><time>2026-03-28T15:08:51.71Z</time></trkpt><trkpt lat="45.4744069" lon="10.5387152"><ele>72.0</ele><time>2026-03-28T15:08:53.71Z</time></trkpt><trkpt lat="45.4744577" lon="10.5386469"><ele>72.0</ele><time>2026-03-28T15:08:55.71Z</time></trkpt><trkpt lat="45.4745164" lon="10.5385691"><ele>72.00000000000001</ele><time>2026-03-28T15:08:57.71Z</time></trkpt><trkpt lat="45.4745739" lon="10.538496"><ele>72.0</ele><time>2026-03-28T15:08:59.71Z</time></trkpt><trkpt lat="45.4746418" lon="10.5384263"><ele>71.4</ele><time>2026-03-28T15:09:01.711Z</time></trkpt><trkpt lat="45.4747211" lon="10.5383537"><ele>70.80000000000001</ele><time>2026-03-28T15:09:03.71Z</time></trkpt><trkpt lat="45.474819" lon="10.5383041"><ele>70.2</ele><time>2026-03-28T15:09:05.711Z</time></trkpt><trkpt lat="45.4749311" lon="10.5382751"><ele>69.60000000000001</ele><time>2026-03-28T15:09:07.711Z</time></trkpt><trkpt lat="45.4750476" lon="10.538258"><ele>69.0</ele><time>2026-03-28T15:09:09.71Z</time></trkpt><trkpt lat="45.4751148" lon="10.538246"><ele>69.0</ele><time>2026-03-28T15:09:12.71Z</time></trkpt><trkpt lat="45.4752135" lon="10.5382279"><ele>69.0</ele><time>2026-03-28T15:09:15.711Z</time></trkpt><trkpt lat="45.475351" lon="10.5381957"><ele>69.0</ele><time>2026-03-28T15:09:17.71Z</time></trkpt><trkpt lat="45.4754481" lon="10.5381833"><ele>69.0</ele><time>2026-03-28T15:09:18.711Z</time></trkpt><trkpt lat="45.4755564" lon="10.5381689"><ele>69.0</ele><time>2026-03-28T15:09:19.711Z</time></trkpt><trkpt lat="45.4756689" lon="10.5381667"><ele>70.0</ele><time>2026-03-28T15:09:20.71Z</time></trkpt><trkpt lat="45.4757892" lon="10.5381923"><ele>71.0</ele><time>2026-03-28T15:09:21.71Z</time></trkpt><trkpt lat="45.4759086" lon="10.5382239"><ele>72.0</ele><time>2026-03-28T15:09:22.711Z</time></trkpt><trkpt lat="45.4760193" lon="10.5382617"><ele>73.0</ele><time>2026-03-28T15:09:23.71Z</time></trkpt><trkpt lat="45.4761235" lon="10.5382924"><ele>73.0</ele><time>2026-03-28T15:09:24.71Z</time></trkpt><trkpt lat="45.4762218" lon="10.5383218"><ele>73.0</ele><time>2026-03-28T15:09:25.71Z</time></trkpt><trkpt lat="45.4763183" lon="10.5383545"><ele>73.0</ele><time>2026-03-28T15:09:26.711Z</time></trkpt><trkpt lat="45.4764155" lon="10.5383844"><ele>73.0</ele><time>2026-03-28T15:09:27.71Z</time></trkpt><trkpt lat="45.4765068" lon="10.5384065"><ele>73.0</ele><time>2026-03-28T15:09:28.71Z</time></trkpt><trkpt lat="45.4765929" lon="10.5384227"><ele>72.5</ele><time>2026-03-28T15:09:29.71Z</time></trkpt><trkpt lat="45.4766711" lon="10.5384316"><ele>72.0</ele><time>2026-03-28T15:09:30.71Z</time></trkpt><trkpt lat="45.4767463" lon="10.5384338"><ele>71.5</ele><time>2026-03-28T15:09:31.711Z</time></trkpt><trkpt lat="45.4768126" lon="10.5384345"><ele>71.0</ele><time>2026-03-28T15:09:32.711Z</time></trkpt><trkpt lat="45.4768763" lon="10.5384334"><ele>70.5</ele><time>2026-03-28T15:09:33.71Z</time></trkpt><trkpt lat="45.4769923" lon="10.5384292"><ele>70.0</ele><time>2026-03-28T15:09:35.71Z</time></trkpt><trkpt lat="45.4770954" lon="10.5384239"><ele>70.2</ele><time>2026-03-28T15:09:37.71Z</time></trkpt><trkpt lat="45.4771835" lon="10.5384203"><ele>70.4</ele><time>2026-03-28T15:09:39.711Z</time></trkpt><trkpt lat="45.4772782" lon="10.5384227"><ele>70.6</ele><time>2026-03-28T15:09:41.711Z</time></trkpt><trkpt lat="45.4773923" lon="10.5384146"><ele>70.8</ele><time>2026-03-28T15:09:43.71Z</time></trkpt><trkpt lat="45.4775193" lon="10.5384007"><ele>71.0</ele><time>2026-03-28T15:09:45.71Z</time></trkpt><trkpt lat="45.4776459" lon="10.5383721"><ele>71.0</ele><time>2026-03-28T15:09:47.711Z</time></trkpt><trkpt lat="45.4777146" lon="10.5383595"><ele>71.0</ele><time>2026-03-28T15:09:48.711Z</time></trkpt><trkpt lat="45.4777864" lon="10.5383621"><ele>71.0</ele><time>2026-03-28T15:09:49.711Z</time></trkpt><trkpt lat="45.4778628" lon="10.5383659"><ele>71.0</ele><time>2026-03-28T15:09:50.71Z</time></trkpt><trkpt lat="45.4779399" lon="10.5383711"><ele>71.0</ele><time>2026-03-28T15:09:51.71Z</time></trkpt><trkpt lat="45.4780264" lon="10.5383666"><ele>71.0</ele><time>2026-03-28T15:09:52.711Z</time></trkpt><trkpt lat="45.4781161" lon="10.5383621"><ele>71.0</ele><time>2026-03-28T15:09:53.711Z</time></trkpt><trkpt lat="45.4782139" lon="10.5383554"><ele>71.0</ele><time>2026-03-28T15:09:54.71Z</time></trkpt><trkpt lat="45.4783154" lon="10.5383506"><ele>71.0</ele><time>2026-03-28T15:09:55.71Z</time></trkpt><trkpt lat="45.4784178" lon="10.5383444"><ele>71.0</ele><time>2026-03-28T15:09:56.711Z</time></trkpt><trkpt lat="45.4785103" lon="10.538341"><ele>71.0</ele><time>2026-03-28T15:09:57.71Z</time></trkpt><trkpt lat="45.4785944" lon="10.5383356"><ele>71.0</ele><time>2026-03-28T15:09:58.71Z</time></trkpt><trkpt lat="45.4786755" lon="10.5383316"><ele>71.0</ele><time>2026-03-28T15:09:59.71Z</time></trkpt><trkpt lat="45.4787545" lon="10.5383254"><ele>71.0</ele><time>2026-03-28T15:10:00.711Z</time></trkpt><trkpt lat="45.478835" lon="10.5383236"><ele>71.0</ele><time>2026-03-28T15:10:01.711Z</time></trkpt><trkpt lat="45.4789159" lon="10.5383202"><ele>71.0</ele><time>2026-03-28T15:10:02.71Z</time></trkpt><trkpt lat="45.4790003" lon="10.5383181"><ele>71.0</ele><time>2026-03-28T15:10:03.71Z</time></trkpt><trkpt lat="45.4790884" lon="10.5383159"><ele>71.39999999999999</ele><time>2026-03-28T15:10:04.711Z</time></trkpt><trkpt lat="45.4791801" lon="10.5383181"><ele>71.8</ele><time>2026-03-28T15:10:05.71Z</time></trkpt><trkpt lat="45.4792751" lon="10.5383196"><ele>72.19999999999999</ele><time>2026-03-28T15:10:06.71Z</time></trkpt><trkpt lat="45.4793751" lon="10.5383208"><ele>72.6</ele><time>2026-03-28T15:10:07.71Z</time></trkpt><trkpt lat="45.4794747" lon="10.5383222"><ele>73.0</ele><time>2026-03-28T15:10:08.711Z</time></trkpt><trkpt lat="45.4795755" lon="10.5383237"><ele>73.4</ele><time>2026-03-28T15:10:09.71Z</time></trkpt><trkpt lat="45.4796735" lon="10.5383241"><ele>73.8</ele><time>2026-03-28T15:10:10.711Z</time></trkpt><trkpt lat="45.4797692" lon="10.5383278"><ele>74.2</ele><time>2026-03-28T15:10:11.711Z</time></trkpt><trkpt lat="45.479872" lon="10.5383299"><ele>74.6</ele><time>2026-03-28T15:10:12.711Z</time></trkpt><trkpt lat="45.4799672" lon="10.538331"><ele>75.0</ele><time>2026-03-28T15:10:13.71Z</time></trkpt><trkpt lat="45.4800601" lon="10.5383324"><ele>75.0</ele><time>2026-03-28T15:10:14.71Z</time></trkpt><trkpt lat="45.4801518" lon="10.5383316"><ele>75.0</ele><time>2026-03-28T15:10:15.711Z</time></trkpt><trkpt lat="45.4802479" lon="10.5383291"><ele>75.0</ele><time>2026-03-28T15:10:16.711Z</time></trkpt><trkpt lat="45.480347" lon="10.5383308"><ele>75.0</ele><time>2026-03-28T15:10:17.71Z</time></trkpt><trkpt lat="45.4804498" lon="10.5383321"><ele>75.0</ele><time>2026-03-28T15:10:18.71Z</time></trkpt><trkpt lat="45.480559" lon="10.5383342"><ele>75.0</ele><time>2026-03-28T15:10:19.711Z</time></trkpt><trkpt lat="45.4806667" lon="10.5383351"><ele>75.0</ele><time>2026-03-28T15:10:20.711Z</time></trkpt><trkpt lat="45.4807779" lon="10.538338"><ele>75.0</ele><time>2026-03-28T15:10:21.711Z</time></trkpt><trkpt lat="45.4808948" lon="10.5383414"><ele>75.0</ele><time>2026-03-28T15:10:22.71Z</time></trkpt><trkpt lat="45.4810098" lon="10.5383411"><ele>75.0</ele><time>2026-03-28T15:10:23.711Z</time></trkpt><trkpt lat="45.4811248" lon="10.5383439"><ele>75.0</ele><time>2026-03-28T15:10:24.71Z</time></trkpt><trkpt lat="45.4812465" lon="10.5383464"><ele>75.0</ele><time>2026-03-28T15:10:25.71Z</time></trkpt><trkpt lat="45.4813757" lon="10.5383503"><ele>75.0</ele><time>2026-03-28T15:10:26.711Z</time></trkpt><trkpt lat="45.4815092" lon="10.5383537"><ele>74.5</ele><time>2026-03-28T15:10:27.71Z</time></trkpt><trkpt lat="45.4816428" lon="10.5383567"><ele>74.0</ele><time>2026-03-28T15:10:28.711Z</time></trkpt><trkpt lat="45.481766" lon="10.5383595"><ele>73.5</ele><time>2026-03-28T15:10:29.71Z</time></trkpt><trkpt lat="45.4818879" lon="10.5383601"><ele>73.0</ele><time>2026-03-28T15:10:30.71Z</time></trkpt><trkpt lat="45.4820034" lon="10.5383656"><ele>72.5</ele><time>2026-03-28T15:10:31.71Z</time></trkpt><trkpt lat="45.4821228" lon="10.5383673"><ele>72.0</ele><time>2026-03-28T15:10:32.71Z</time></trkpt><trkpt lat="45.4822474" lon="10.5383701"><ele>71.5</ele><time>2026-03-28T15:10:33.711Z</time></trkpt><trkpt lat="45.4823747" lon="10.5383697"><ele>71.0</ele><time>2026-03-28T15:10:34.711Z</time></trkpt><trkpt lat="45.4825007" lon="10.5383727"><ele>71.0</ele><time>2026-03-28T15:10:35.711Z</time></trkpt><trkpt lat="45.4826368" lon="10.5383765"><ele>71.0</ele><time>2026-03-28T15:10:36.71Z</time></trkpt><trkpt lat="45.4827616" lon="10.5383801"><ele>71.0</ele><time>2026-03-28T15:10:37.71Z</time></trkpt><trkpt lat="45.4828785" lon="10.5383809"><ele>71.0</ele><time>2026-03-28T15:10:38.711Z</time></trkpt><trkpt lat="45.4829951" lon="10.5383844"><ele>71.39999999999999</ele><time>2026-03-28T15:10:39.711Z</time></trkpt><trkpt lat="45.4831081" lon="10.5383879"><ele>71.8</ele><time>2026-03-28T15:10:40.71Z</time></trkpt><trkpt lat="45.4832177" lon="10.5383913"><ele>72.19999999999999</ele><time>2026-03-28T15:10:41.71Z</time></trkpt><trkpt lat="45.4833357" lon="10.5383954"><ele>72.6</ele><time>2026-03-28T15:10:42.711Z</time></trkpt><trkpt lat="45.4834423" lon="10.5383979"><ele>73.0</ele><time>2026-03-28T15:10:43.71Z</time></trkpt><trkpt lat="45.4835365" lon="10.538401"><ele>73.0</ele><time>2026-03-28T15:10:44.711Z</time></trkpt><trkpt lat="45.483641" lon="10.5384009"><ele>73.0</ele><time>2026-03-28T15:10:45.71Z</time></trkpt><trkpt lat="45.4837445" lon="10.5384048"><ele>73.0</ele><time>2026-03-28T15:10:46.71Z</time></trkpt><trkpt lat="45.4838494" lon="10.5384041"><ele>73.0</ele><time>2026-03-28T15:10:47.711Z</time></trkpt><trkpt lat="45.4839534" lon="10.5384026"><ele>73.0</ele><time>2026-03-28T15:10:48.71Z</time></trkpt><trkpt lat="45.4840574" lon="10.5384027"><ele>72.2</ele><time>2026-03-28T15:10:49.71Z</time></trkpt><trkpt lat="45.4841606" lon="10.5384057"><ele>71.4</ele><time>2026-03-28T15:10:50.711Z</time></trkpt><trkpt lat="45.4842648" lon="10.5384075"><ele>70.60000000000001</ele><time>2026-03-28T15:10:51.711Z</time></trkpt><trkpt lat="45.4843714" lon="10.5384082"><ele>69.8</ele><time>2026-03-28T15:10:52.711Z</time></trkpt><trkpt lat="45.4844819" lon="10.5384115"><ele>69.0</ele><time>2026-03-28T15:10:53.711Z</time></trkpt><trkpt lat="45.4845953" lon="10.53841"><ele>69.60000000000001</ele><time>2026-03-28T15:10:54.711Z</time></trkpt><trkpt lat="45.4847072" lon="10.5384129"><ele>70.2</ele><time>2026-03-28T15:10:55.71Z</time></trkpt><trkpt lat="45.4848225" lon="10.5384182"><ele>70.80000000000001</ele><time>2026-03-28T15:10:56.71Z</time></trkpt><trkpt lat="45.4849291" lon="10.5384175"><ele>71.4</ele><time>2026-03-28T15:10:57.71Z</time></trkpt><trkpt lat="45.4850321" lon="10.5384209"><ele>72.0</ele><time>2026-03-28T15:10:58.71Z</time></trkpt><trkpt lat="45.4851332" lon="10.5384154"><ele>72.0</ele><time>2026-03-28T15:10:59.71Z</time></trkpt><trkpt lat="45.4852371" lon="10.5384059"><ele>72.0</ele><time>2026-03-28T15:11:00.71Z</time></trkpt><trkpt lat="45.4853474" lon="10.5383904"><ele>72.0</ele><time>2026-03-28T15:11:01.71Z</time></trkpt><trkpt lat="45.4854585" lon="10.5383576"><ele>72.0</ele><time>2026-03-28T15:11:02.71Z</time></trkpt><trkpt lat="45.4855693" lon="10.5383099"><ele>72.0</ele><time>2026-03-28T15:11:03.71Z</time></trkpt><trkpt lat="45.4856798" lon="10.5382503"><ele>71.5</ele><time>2026-03-28T15:11:04.711Z</time></trkpt><trkpt lat="45.485787" lon="10.5381782"><ele>71.0</ele><time>2026-03-28T15:11:05.71Z</time></trkpt><trkpt lat="45.4858897" lon="10.5380863"><ele>70.5</ele><time>2026-03-28T15:11:06.711Z</time></trkpt><trkpt lat="45.485981" lon="10.5379824"><ele>70.0</ele><time>2026-03-28T15:11:07.711Z</time></trkpt><trkpt lat="45.4860699" lon="10.5378555"><ele>69.75</ele><time>2026-03-28T15:11:08.71Z</time></trkpt><trkpt lat="45.4861569" lon="10.5377267"><ele>69.5</ele><time>2026-03-28T15:11:09.711Z</time></trkpt><trkpt lat="45.4862419" lon="10.5375846"><ele>69.25</ele><time>2026-03-28T15:11:10.71Z</time></trkpt><trkpt lat="45.4863271" lon="10.537434"><ele>69.0</ele><time>2026-03-28T15:11:11.711Z</time></trkpt><trkpt lat="45.4864165" lon="10.5372763"><ele>69.0</ele><time>2026-03-28T15:11:12.711Z</time></trkpt><trkpt lat="45.4865087" lon="10.5371104"><ele>69.0</ele><time>2026-03-28T15:11:13.71Z</time></trkpt><trkpt lat="45.4866018" lon="10.5369374"><ele>69.0</ele><time>2026-03-28T15:11:14.711Z</time></trkpt><trkpt lat="45.4867009" lon="10.5367541"><ele>69.66666666666667</ele><time>2026-03-28T15:11:15.711Z</time></trkpt><trkpt lat="45.4868041" lon="10.5365675"><ele>70.33333333333334</ele><time>2026-03-28T15:11:16.71Z</time></trkpt><trkpt lat="45.4869067" lon="10.536379"><ele>71.0</ele><time>2026-03-28T15:11:17.71Z</time></trkpt><trkpt lat="45.4870094" lon="10.5361925"><ele>70.66666666666667</ele><time>2026-03-28T15:11:18.71Z</time></trkpt><trkpt lat="45.4871045" lon="10.5360168"><ele>70.33333333333333</ele><time>2026-03-28T15:11:19.711Z</time></trkpt><trkpt lat="45.4871987" lon="10.5358478"><ele>70.0</ele><time>2026-03-28T15:11:20.71Z</time></trkpt><trkpt lat="45.4872864" lon="10.5356807"><ele>70.0</ele><time>2026-03-28T15:11:21.71Z</time></trkpt><trkpt lat="45.487371" lon="10.535515"><ele>70.0</ele><time>2026-03-28T15:11:22.711Z</time></trkpt><trkpt lat="45.4874504" lon="10.5353498"><ele>70.0</ele><time>2026-03-28T15:11:23.711Z</time></trkpt><trkpt lat="45.4875253" lon="10.5351762"><ele>70.0</ele><time>2026-03-28T15:11:24.71Z</time></trkpt><trkpt lat="45.4875956" lon="10.5349984"><ele>71.5</ele><time>2026-03-28T15:11:25.71Z</time></trkpt><trkpt lat="45.4876621" lon="10.5348179"><ele>73.0</ele><time>2026-03-28T15:11:26.711Z</time></trkpt><trkpt lat="45.4877226" lon="10.5346345"><ele>74.5</ele><time>2026-03-28T15:11:27.71Z</time></trkpt><trkpt lat="45.4877775" lon="10.5344451"><ele>76.0</ele><time>2026-03-28T15:11:28.711Z</time></trkpt><trkpt lat="45.487831" lon="10.5342533"><ele>76.5</ele><time>2026-03-28T15:11:29.71Z</time></trkpt><trkpt lat="45.4878751" lon="10.5340574"><ele>77.0</ele><time>2026-03-28T15:11:30.71Z</time></trkpt><trkpt lat="45.4879111" lon="10.5338651"><ele>77.5</ele><time>2026-03-28T15:11:31.711Z</time></trkpt><trkpt lat="45.4879418" lon="10.5336741"><ele>78.0</ele><time>2026-03-28T15:11:32.711Z</time></trkpt><trkpt lat="45.4879713" lon="10.5334833"><ele>77.0</ele><time>2026-03-28T15:11:33.711Z</time></trkpt><trkpt lat="45.4880012" lon="10.5332924"><ele>76.0</ele><time>2026-03-28T15:11:34.711Z</time></trkpt><trkpt lat="45.4880316" lon="10.5330983"><ele>75.0</ele><time>2026-03-28T15:11:35.71Z</time></trkpt><trkpt lat="45.4880642" lon="10.5329038"><ele>74.0</ele><time>2026-03-28T15:11:36.71Z</time></trkpt><trkpt lat="45.4880936" lon="10.5327128"><ele>74.0</ele><time>2026-03-28T15:11:37.712Z</time></trkpt><trkpt lat="45.4881258" lon="10.532523"><ele>74.0</ele><time>2026-03-28T15:11:38.711Z</time></trkpt><trkpt lat="45.4881554" lon="10.5323354"><ele>74.0</ele><time>2026-03-28T15:11:39.712Z</time></trkpt><trkpt lat="45.4881848" lon="10.5321486"><ele>74.0</ele><time>2026-03-28T15:11:40.711Z</time></trkpt><trkpt lat="45.4882146" lon="10.5319637"><ele>75.0</ele><time>2026-03-28T15:11:41.711Z</time></trkpt><trkpt lat="45.4882426" lon="10.5317778"><ele>76.0</ele><time>2026-03-28T15:11:42.711Z</time></trkpt><trkpt lat="45.4882724" lon="10.5315918"><ele>77.0</ele><time>2026-03-28T15:11:43.711Z</time></trkpt><trkpt lat="45.4883002" lon="10.531403"><ele>78.0</ele><time>2026-03-28T15:11:44.712Z</time></trkpt><trkpt lat="45.4883318" lon="10.5312142"><ele>79.25</ele><time>2026-03-28T15:11:45.711Z</time></trkpt><trkpt lat="45.4883614" lon="10.5310228"><ele>80.5</ele><time>2026-03-28T15:11:46.711Z</time></trkpt><trkpt lat="45.4883904" lon="10.5308281"><ele>81.75</ele><time>2026-03-28T15:11:47.712Z</time></trkpt><trkpt lat="45.4884155" lon="10.5306298"><ele>83.0</ele><time>2026-03-28T15:11:48.712Z</time></trkpt><trkpt lat="45.4884359" lon="10.530434"><ele>83.25</ele><time>2026-03-28T15:11:49.711Z</time></trkpt><trkpt lat="45.4884516" lon="10.5302464"><ele>83.5</ele><time>2026-03-28T15:11:50.712Z</time></trkpt><trkpt lat="45.4884606" lon="10.5300628"><ele>83.75</ele><time>2026-03-28T15:11:51.712Z</time></trkpt><trkpt lat="45.4884666" lon="10.5298786"><ele>84.0</ele><time>2026-03-28T15:11:52.711Z</time></trkpt><trkpt lat="45.4884664" lon="10.5296902"><ele>84.0</ele><time>2026-03-28T15:11:53.712Z</time></trkpt><trkpt lat="45.4884621" lon="10.5295011"><ele>84.0</ele><time>2026-03-28T15:11:54.712Z</time></trkpt><trkpt lat="45.4884527" lon="10.5293104"><ele>84.0</ele><time>2026-03-28T15:11:55.711Z</time></trkpt><trkpt lat="45.4884405" lon="10.5291182"><ele>84.0</ele><time>2026-03-28T15:11:56.712Z</time></trkpt><trkpt lat="45.4884216" lon="10.5289276"><ele>84.0</ele><time>2026-03-28T15:11:57.711Z</time></trkpt><trkpt lat="45.4883968" lon="10.5287338"><ele>84.0</ele><time>2026-03-28T15:11:58.712Z</time></trkpt><trkpt lat="45.4883685" lon="10.528537"><ele>84.0</ele><time>2026-03-28T15:11:59.711Z</time></trkpt><trkpt lat="45.4883411" lon="10.5283373"><ele>84.0</ele><time>2026-03-28T15:12:00.711Z</time></trkpt><trkpt lat="45.488306" lon="10.5281347"><ele>83.66666666666667</ele><time>2026-03-28T15:12:01.711Z</time></trkpt><trkpt lat="45.4882717" lon="10.5279318"><ele>83.33333333333334</ele><time>2026-03-28T15:12:02.711Z</time></trkpt><trkpt lat="45.4882385" lon="10.5277219"><ele>83.0</ele><time>2026-03-28T15:12:03.711Z</time></trkpt><trkpt lat="45.4882039" lon="10.5275086"><ele>82.0</ele><time>2026-03-28T15:12:04.711Z</time></trkpt><trkpt lat="45.4881681" lon="10.5272914"><ele>81.0</ele><time>2026-03-28T15:12:05.711Z</time></trkpt><trkpt lat="45.4881356" lon="10.5270713"><ele>80.0</ele><time>2026-03-28T15:12:06.711Z</time></trkpt><trkpt lat="45.4881003" lon="10.526847"><ele>78.0</ele><time>2026-03-28T15:12:07.712Z</time></trkpt><trkpt lat="45.4880631" lon="10.5266213"><ele>76.0</ele><time>2026-03-28T15:12:08.712Z</time></trkpt><trkpt lat="45.488026" lon="10.5263921"><ele>74.0</ele><time>2026-03-28T15:12:09.711Z</time></trkpt><trkpt lat="45.4879895" lon="10.5261607"><ele>72.66666666666667</ele><time>2026-03-28T15:12:10.712Z</time></trkpt><trkpt lat="45.4879523" lon="10.5259304"><ele>71.33333333333333</ele><time>2026-03-28T15:12:11.712Z</time></trkpt><trkpt lat="45.4879178" lon="10.5257085"><ele>70.0</ele><time>2026-03-28T15:12:12.711Z</time></trkpt><trkpt lat="45.4878839" lon="10.5254989"><ele>76.75</ele><time>2026-03-28T15:12:13.712Z</time></trkpt><trkpt lat="45.4878527" lon="10.5252926"><ele>83.5</ele><time>2026-03-28T15:12:14.712Z</time></trkpt><trkpt lat="45.4878186" lon="10.5250892"><ele>90.25</ele><time>2026-03-28T15:12:15.712Z</time></trkpt><trkpt lat="45.4877854" lon="10.5248787"><ele>97.0</ele><time>2026-03-28T15:12:16.712Z</time></trkpt><trkpt lat="45.4877499" lon="10.5246598"><ele>94.66666666666667</ele><time>2026-03-28T15:12:17.712Z</time></trkpt><trkpt lat="45.4877141" lon="10.5244384"><ele>92.33333333333334</ele><time>2026-03-28T15:12:18.711Z</time></trkpt><trkpt lat="45.4876792" lon="10.5242138"><ele>90.0</ele><time>2026-03-28T15:12:19.711Z</time></trkpt><trkpt lat="45.4876446" lon="10.5239987"><ele>90.0</ele><time>2026-03-28T15:12:20.711Z</time></trkpt><trkpt lat="45.4876123" lon="10.5237974"><ele>90.0</ele><time>2026-03-28T15:12:21.711Z</time></trkpt><trkpt lat="45.4875833" lon="10.5236054"><ele>90.0</ele><time>2026-03-28T15:12:22.712Z</time></trkpt><trkpt lat="45.4875578" lon="10.5234219"><ele>90.0</ele><time>2026-03-28T15:12:23.712Z</time></trkpt><trkpt lat="45.4875351" lon="10.523241"><ele>87.25</ele><time>2026-03-28T15:12:24.711Z</time></trkpt><trkpt lat="45.4875186" lon="10.5230648"><ele>84.5</ele><time>2026-03-28T15:12:25.712Z</time></trkpt><trkpt lat="45.4875117" lon="10.5228884"><ele>81.75</ele><time>2026-03-28T15:12:26.712Z</time></trkpt><trkpt lat="45.4875147" lon="10.5227148"><ele>79.0</ele><time>2026-03-28T15:12:27.712Z</time></trkpt><trkpt lat="45.487522" lon="10.5225398"><ele>78.0</ele><time>2026-03-28T15:12:28.711Z</time></trkpt><trkpt lat="45.4875408" lon="10.5223625"><ele>77.0</ele><time>2026-03-28T15:12:29.711Z</time></trkpt><trkpt lat="45.4875685" lon="10.5221801"><ele>76.0</ele><time>2026-03-28T15:12:30.711Z</time></trkpt><trkpt lat="45.4876102" lon="10.5219904"><ele>75.0</ele><time>2026-03-28T15:12:31.712Z</time></trkpt><trkpt lat="45.4876671" lon="10.5217987"><ele>74.5</ele><time>2026-03-28T15:12:32.712Z</time></trkpt><trkpt lat="45.4877325" lon="10.5216151"><ele>74.0</ele><time>2026-03-28T15:12:33.711Z</time></trkpt><trkpt lat="45.4878056" lon="10.5214407"><ele>73.5</ele><time>2026-03-28T15:12:34.712Z</time></trkpt><trkpt lat="45.4878788" lon="10.5212831"><ele>73.0</ele><time>2026-03-28T15:12:35.711Z</time></trkpt><trkpt lat="45.4879491" lon="10.5211394"><ele>71.6</ele><time>2026-03-28T15:12:36.712Z</time></trkpt><trkpt lat="45.4880166" lon="10.5210083"><ele>70.19999999999999</ele><time>2026-03-28T15:12:37.711Z</time></trkpt><trkpt lat="45.4880795" lon="10.5208855"><ele>68.8</ele><time>2026-03-28T15:12:38.711Z</time></trkpt><trkpt lat="45.4881416" lon="10.5207625"><ele>67.39999999999999</ele><time>2026-03-28T15:12:39.71Z</time></trkpt><trkpt lat="45.4882022" lon="10.5206442"><ele>66.0</ele><time>2026-03-28T15:12:40.711Z</time></trkpt><trkpt lat="45.4882576" lon="10.520532"><ele>66.0</ele><time>2026-03-28T15:12:41.711Z</time></trkpt><trkpt lat="45.4883109" lon="10.5204279"><ele>66.0</ele><time>2026-03-28T15:12:42.712Z</time></trkpt><trkpt lat="45.488362" lon="10.5203286"><ele>66.0</ele><time>2026-03-28T15:12:43.711Z</time></trkpt><trkpt lat="45.48841" lon="10.5202302"><ele>66.0</ele><time>2026-03-28T15:12:44.712Z</time></trkpt><trkpt lat="45.4884601" lon="10.5201314"><ele>66.0</ele><time>2026-03-28T15:12:45.711Z</time></trkpt><trkpt lat="45.4885116" lon="10.5200284"><ele>66.0</ele><time>2026-03-28T15:12:46.713Z</time></trkpt><trkpt lat="45.4885654" lon="10.5199216"><ele>66.0</ele><time>2026-03-28T15:12:47.712Z</time></trkpt><trkpt lat="45.4886189" lon="10.5198105"><ele>66.0</ele><time>2026-03-28T15:12:48.712Z</time></trkpt><trkpt lat="45.4886713" lon="10.5197085"><ele>66.0</ele><time>2026-03-28T15:12:49.712Z</time></trkpt><trkpt lat="45.4887223" lon="10.519604"><ele>66.0</ele><time>2026-03-28T15:12:50.712Z</time></trkpt><trkpt lat="45.488771" lon="10.5194947"><ele>66.0</ele><time>2026-03-28T15:12:51.712Z</time></trkpt><trkpt lat="45.4888219" lon="10.5193902"><ele>66.0</ele><time>2026-03-28T15:12:52.711Z</time></trkpt><trkpt lat="45.4888742" lon="10.5192841"><ele>66.0</ele><time>2026-03-28T15:12:53.712Z</time></trkpt><trkpt lat="45.4889282" lon="10.5191755"><ele>66.0</ele><time>2026-03-28T15:12:54.711Z</time></trkpt><trkpt lat="45.4889838" lon="10.5190621"><ele>66.0</ele><time>2026-03-28T15:12:55.712Z</time></trkpt><trkpt lat="45.4890411" lon="10.5189497"><ele>66.0</ele><time>2026-03-28T15:12:56.711Z</time></trkpt><trkpt lat="45.4890932" lon="10.5188352"><ele>66.39999999999999</ele><time>2026-03-28T15:12:57.712Z</time></trkpt><trkpt lat="45.4891503" lon="10.5187221"><ele>66.8</ele><time>2026-03-28T15:12:58.711Z</time></trkpt><trkpt lat="45.4892082" lon="10.5186078"><ele>67.19999999999999</ele><time>2026-03-28T15:12:59.711Z</time></trkpt><trkpt lat="45.4892667" lon="10.51849"><ele>67.6</ele><time>2026-03-28T15:13:00.712Z</time></trkpt><trkpt lat="45.4893255" lon="10.5183697"><ele>68.0</ele><time>2026-03-28T15:13:01.712Z</time></trkpt><trkpt lat="45.4893862" lon="10.5182458"><ele>68.0</ele><time>2026-03-28T15:13:02.711Z</time></trkpt><trkpt lat="45.489446" lon="10.5181214"><ele>68.0</ele><time>2026-03-28T15:13:03.711Z</time></trkpt><trkpt lat="45.4895065" lon="10.5179979"><ele>68.0</ele><time>2026-03-28T15:13:04.712Z</time></trkpt><trkpt lat="45.4895699" lon="10.5178696"><ele>68.0</ele><time>2026-03-28T15:13:05.711Z</time></trkpt><trkpt lat="45.4896342" lon="10.5177373"><ele>68.0</ele><time>2026-03-28T15:13:06.712Z</time></trkpt><trkpt lat="45.4897025" lon="10.5175962"><ele>68.0</ele><time>2026-03-28T15:13:07.712Z</time></trkpt><trkpt lat="45.4897712" lon="10.5174577"><ele>68.0</ele><time>2026-03-28T15:13:08.711Z</time></trkpt><trkpt lat="45.4898435" lon="10.5173159"><ele>68.0</ele><time>2026-03-28T15:13:09.712Z</time></trkpt><trkpt lat="45.4899163" lon="10.5171709"><ele>68.0</ele><time>2026-03-28T15:13:10.712Z</time></trkpt><trkpt lat="45.4899895" lon="10.5170215"><ele>68.25</ele><time>2026-03-28T15:13:11.711Z</time></trkpt><trkpt lat="45.4900685" lon="10.5168638"><ele>68.5</ele><time>2026-03-28T15:13:12.712Z</time></trkpt><trkpt lat="45.4901468" lon="10.516705"><ele>68.75</ele><time>2026-03-28T15:13:13.711Z</time></trkpt><trkpt lat="45.490226" lon="10.5165459"><ele>69.0</ele><time>2026-03-28T15:13:14.712Z</time></trkpt><trkpt lat="45.4903131" lon="10.5163794"><ele>68.75</ele><time>2026-03-28T15:13:15.711Z</time></trkpt><trkpt lat="45.4903968" lon="10.5162184"><ele>68.5</ele><time>2026-03-28T15:13:16.712Z</time></trkpt><trkpt lat="45.4904759" lon="10.5160598"><ele>68.25</ele><time>2026-03-28T15:13:17.711Z</time></trkpt><trkpt lat="45.4905499" lon="10.5159106"><ele>68.0</ele><time>2026-03-28T15:13:18.71Z</time></trkpt><trkpt lat="45.4906179" lon="10.5157734"><ele>68.0</ele><time>2026-03-28T15:13:19.712Z</time></trkpt><trkpt lat="45.490678" lon="10.5156459"><ele>68.0</ele><time>2026-03-28T15:13:20.711Z</time></trkpt><trkpt lat="45.4907271" lon="10.5155284"><ele>68.0</ele><time>2026-03-28T15:13:21.711Z</time></trkpt><trkpt lat="45.4907638" lon="10.5154185"><ele>68.0</ele><time>2026-03-28T15:13:22.711Z</time></trkpt><trkpt lat="45.4907951" lon="10.5153061"><ele>68.0</ele><time>2026-03-28T15:13:23.711Z</time></trkpt><trkpt lat="45.4908246" lon="10.5151929"><ele>68.4</ele><time>2026-03-28T15:13:24.712Z</time></trkpt><trkpt lat="45.4908665" lon="10.515089"><ele>68.8</ele><time>2026-03-28T15:13:25.711Z</time></trkpt><trkpt lat="45.490925" lon="10.514988"><ele>69.2</ele><time>2026-03-28T15:13:26.711Z</time></trkpt><trkpt lat="45.4910012" lon="10.5148846"><ele>69.6</ele><time>2026-03-28T15:13:27.711Z</time></trkpt><trkpt lat="45.4910835" lon="10.5147645"><ele>70.0</ele><time>2026-03-28T15:13:28.711Z</time></trkpt><trkpt lat="45.4911647" lon="10.5146222"><ele>70.0</ele><time>2026-03-28T15:13:29.712Z</time></trkpt><trkpt lat="45.4912458" lon="10.5144626"><ele>70.0</ele><time>2026-03-28T15:13:30.711Z</time></trkpt><trkpt lat="45.4913319" lon="10.5143003"><ele>70.0</ele><time>2026-03-28T15:13:31.711Z</time></trkpt><trkpt lat="45.4914103" lon="10.5141495"><ele>70.0</ele><time>2026-03-28T15:13:32.712Z</time></trkpt><trkpt lat="45.4914838" lon="10.5140103"><ele>69.75</ele><time>2026-03-28T15:13:33.712Z</time></trkpt><trkpt lat="45.4915606" lon="10.5138772"><ele>69.5</ele><time>2026-03-28T15:13:34.711Z</time></trkpt><trkpt lat="45.4916424" lon="10.5137463"><ele>69.25</ele><time>2026-03-28T15:13:35.711Z</time></trkpt><trkpt lat="45.4917289" lon="10.5136199"><ele>69.0</ele><time>2026-03-28T15:13:36.711Z</time></trkpt><trkpt lat="45.4918167" lon="10.5135008"><ele>69.0</ele><time>2026-03-28T15:13:37.712Z</time></trkpt><trkpt lat="45.4919095" lon="10.5133848"><ele>69.0</ele><time>2026-03-28T15:13:38.71Z</time></trkpt><trkpt lat="45.4920045" lon="10.5132737"><ele>69.0</ele><time>2026-03-28T15:13:39.712Z</time></trkpt><trkpt lat="45.492104" lon="10.5131726"><ele>69.0</ele><time>2026-03-28T15:13:40.711Z</time></trkpt><trkpt lat="45.49221" lon="10.5130796"><ele>69.0</ele><time>2026-03-28T15:13:41.711Z</time></trkpt><trkpt lat="45.4923215" lon="10.5129907"><ele>69.0</ele><time>2026-03-28T15:13:42.712Z</time></trkpt><trkpt lat="45.4924338" lon="10.5128998"><ele>69.0</ele><time>2026-03-28T15:13:43.712Z</time></trkpt><trkpt lat="45.4925492" lon="10.512815"><ele>69.0</ele><time>2026-03-28T15:13:44.712Z</time></trkpt><trkpt lat="45.4926583" lon="10.5127316"><ele>69.5</ele><time>2026-03-28T15:13:45.712Z</time></trkpt><trkpt lat="45.4927631" lon="10.5126533"><ele>70.0</ele><time>2026-03-28T15:13:46.712Z</time></trkpt><trkpt lat="45.4928705" lon="10.5125798"><ele>70.5</ele><time>2026-03-28T15:13:47.711Z</time></trkpt><trkpt lat="45.4929823" lon="10.5124966"><ele>71.0</ele><time>2026-03-28T15:13:48.712Z</time></trkpt><trkpt lat="45.4931011" lon="10.5124029"><ele>71.0</ele><time>2026-03-28T15:13:49.711Z</time></trkpt><trkpt lat="45.493231" lon="10.5123068"><ele>71.0</ele><time>2026-03-28T15:13:50.712Z</time></trkpt><trkpt lat="45.4933661" lon="10.5122031"><ele>71.0</ele><time>2026-03-28T15:13:51.711Z</time></trkpt><trkpt lat="45.4935044" lon="10.5120964"><ele>71.33333333333334</ele><time>2026-03-28T15:13:52.711Z</time></trkpt><trkpt lat="45.4936462" lon="10.5119835"><ele>71.66666666666667</ele><time>2026-03-28T15:13:53.711Z</time></trkpt><trkpt lat="45.4937922" lon="10.5118757"><ele>72.0</ele><time>2026-03-28T15:13:54.712Z</time></trkpt><trkpt lat="45.4939357" lon="10.5117683"><ele>71.5</ele><time>2026-03-28T15:13:55.711Z</time></trkpt><trkpt lat="45.4940761" lon="10.5116644"><ele>71.0</ele><time>2026-03-28T15:13:56.712Z</time></trkpt><trkpt lat="45.4942069" lon="10.5115665"><ele>70.5</ele><time>2026-03-28T15:13:57.712Z</time></trkpt><trkpt lat="45.4943311" lon="10.5114733"><ele>70.0</ele><time>2026-03-28T15:13:58.712Z</time></trkpt><trkpt lat="45.4944499" lon="10.5113819"><ele>70.0</ele><time>2026-03-28T15:13:59.712Z</time></trkpt><trkpt lat="45.4945664" lon="10.5112938"><ele>70.0</ele><time>2026-03-28T15:14:00.711Z</time></trkpt><trkpt lat="45.4946799" lon="10.5112066"><ele>70.0</ele><time>2026-03-28T15:14:01.712Z</time></trkpt><trkpt lat="45.4947891" lon="10.5111213"><ele>70.0</ele><time>2026-03-28T15:14:02.712Z</time></trkpt><trkpt lat="45.4948973" lon="10.5110383"><ele>70.0</ele><time>2026-03-28T15:14:03.712Z</time></trkpt><trkpt lat="45.4950034" lon="10.5109591"><ele>70.0</ele><time>2026-03-28T15:14:04.711Z</time></trkpt><trkpt lat="45.4951181" lon="10.5108705"><ele>70.0</ele><time>2026-03-28T15:14:05.711Z</time></trkpt><trkpt lat="45.4952447" lon="10.5107717"><ele>70.0</ele><time>2026-03-28T15:14:06.712Z</time></trkpt><trkpt lat="45.4953774" lon="10.5106682"><ele>69.66666666666666</ele><time>2026-03-28T15:14:07.711Z</time></trkpt><trkpt lat="45.4955179" lon="10.5105621"><ele>69.33333333333333</ele><time>2026-03-28T15:14:08.711Z</time></trkpt><trkpt lat="45.4956647" lon="10.5104556"><ele>69.0</ele><time>2026-03-28T15:14:09.711Z</time></trkpt><trkpt lat="45.4958091" lon="10.5103473"><ele>70.0</ele><time>2026-03-28T15:14:10.711Z</time></trkpt><trkpt lat="45.4959448" lon="10.5102443"><ele>71.0</ele><time>2026-03-28T15:14:11.712Z</time></trkpt><trkpt lat="45.4960744" lon="10.5101448"><ele>72.0</ele><time>2026-03-28T15:14:12.711Z</time></trkpt><trkpt lat="45.4962075" lon="10.5100499"><ele>71.75</ele><time>2026-03-28T15:14:13.711Z</time></trkpt><trkpt lat="45.4963436" lon="10.5099469"><ele>71.5</ele><time>2026-03-28T15:14:14.712Z</time></trkpt><trkpt lat="45.4964761" lon="10.5098496"><ele>71.25</ele><time>2026-03-28T15:14:15.711Z</time></trkpt><trkpt lat="45.4965932" lon="10.5097675"><ele>71.0</ele><time>2026-03-28T15:14:16.712Z</time></trkpt><trkpt lat="45.4966893" lon="10.5097045"><ele>71.0</ele><time>2026-03-28T15:14:17.712Z</time></trkpt><trkpt lat="45.4967669" lon="10.5096524"><ele>71.0</ele><time>2026-03-28T15:14:18.712Z</time></trkpt><trkpt lat="45.4968415" lon="10.5096089"><ele>71.0</ele><time>2026-03-28T15:14:19.711Z</time></trkpt><trkpt lat="45.496902" lon="10.5095727"><ele>71.0</ele><time>2026-03-28T15:14:20.711Z</time></trkpt><trkpt lat="45.4969617" lon="10.5095358"><ele>71.0</ele><time>2026-03-28T15:14:21.712Z</time></trkpt><trkpt lat="45.4970222" lon="10.5094987"><ele>71.0</ele><time>2026-03-28T15:14:22.712Z</time></trkpt><trkpt lat="45.4970845" lon="10.5094631"><ele>71.0</ele><time>2026-03-28T15:14:23.711Z</time></trkpt><trkpt lat="45.4971437" lon="10.5094274"><ele>71.5</ele><time>2026-03-28T15:14:24.712Z</time></trkpt><trkpt lat="45.4972038" lon="10.5093935"><ele>72.0</ele><time>2026-03-28T15:14:25.712Z</time></trkpt><trkpt lat="45.4972627" lon="10.5093592"><ele>72.5</ele><time>2026-03-28T15:14:26.711Z</time></trkpt><trkpt lat="45.4973262" lon="10.5093228"><ele>73.0</ele><time>2026-03-28T15:14:27.712Z</time></trkpt><trkpt lat="45.4973869" lon="10.5092904"><ele>73.5</ele><time>2026-03-28T15:14:28.712Z</time></trkpt><trkpt lat="45.4975016" lon="10.5092421"><ele>74.0</ele><time>2026-03-28T15:14:30.711Z</time></trkpt><trkpt lat="45.4975938" lon="10.5092219"><ele>74.0</ele><time>2026-03-28T15:14:32.712Z</time></trkpt><trkpt lat="45.4976643" lon="10.5092218"><ele>74.0</ele><time>2026-03-28T15:14:36.712Z</time></trkpt><trkpt lat="45.4977507" lon="10.5092372"><ele>74.0</ele><time>2026-03-28T15:14:38.712Z</time></trkpt><trkpt lat="45.4978317" lon="10.5092308"><ele>74.0</ele><time>2026-03-28T15:14:40.711Z</time></trkpt><trkpt lat="45.4978921" lon="10.5091943"><ele>74.0</ele><time>2026-03-28T15:14:43.711Z</time></trkpt><trkpt lat="45.4979547" lon="10.5091442"><ele>74.0</ele><time>2026-03-28T15:14:48.711Z</time></trkpt><trkpt lat="45.4980345" lon="10.5091022"><ele>74.5</ele><time>2026-03-28T15:14:51.711Z</time></trkpt><trkpt lat="45.4981024" lon="10.5090928"><ele>75.0</ele><time>2026-03-28T15:14:53.711Z</time></trkpt><trkpt lat="45.4981716" lon="10.5090899"><ele>75.5</ele><time>2026-03-28T15:14:56.711Z</time></trkpt><trkpt lat="45.4982569" lon="10.5090779"><ele>76.0</ele><time>2026-03-28T15:15:01.712Z</time></trkpt><trkpt lat="45.4983288" lon="10.5090834"><ele>76.5</ele><time>2026-03-28T15:15:02.711Z</time></trkpt><trkpt lat="45.4984267" lon="10.5090949"><ele>77.0</ele><time>2026-03-28T15:15:03.711Z</time></trkpt><trkpt lat="45.4985388" lon="10.5091068"><ele>77.0</ele><time>2026-03-28T15:15:04.711Z</time></trkpt><trkpt lat="45.498665" lon="10.509128"><ele>77.0</ele><time>2026-03-28T15:15:05.712Z</time></trkpt><trkpt lat="45.4988" lon="10.5091581"><ele>77.0</ele><time>2026-03-28T15:15:06.712Z</time></trkpt><trkpt lat="45.498944" lon="10.5092026"><ele>77.0</ele><time>2026-03-28T15:15:07.712Z</time></trkpt><trkpt lat="45.4990857" lon="10.5092536"><ele>78.5</ele><time>2026-03-28T15:15:08.711Z</time></trkpt><trkpt lat="45.4992136" lon="10.5093058"><ele>80.0</ele><time>2026-03-28T15:15:09.711Z</time></trkpt><trkpt lat="45.4993333" lon="10.5093556"><ele>81.5</ele><time>2026-03-28T15:15:10.711Z</time></trkpt><trkpt lat="45.499447" lon="10.509405"><ele>83.0</ele><time>2026-03-28T15:15:11.711Z</time></trkpt><trkpt lat="45.4995566" lon="10.5094604"><ele>82.60000000000001</ele><time>2026-03-28T15:15:12.711Z</time></trkpt><trkpt lat="45.4996636" lon="10.5095139"><ele>82.2</ele><time>2026-03-28T15:15:13.712Z</time></trkpt><trkpt lat="45.4997675" lon="10.5095687"><ele>81.8</ele><time>2026-03-28T15:15:14.712Z</time></trkpt><trkpt lat="45.4998724" lon="10.5096243"><ele>81.4</ele><time>2026-03-28T15:15:15.712Z</time></trkpt><trkpt lat="45.499976" lon="10.5096778"><ele>81.0</ele><time>2026-03-28T15:15:16.711Z</time></trkpt><trkpt lat="45.5000761" lon="10.5097354"><ele>81.0</ele><time>2026-03-28T15:15:17.711Z</time></trkpt><trkpt lat="45.5001785" lon="10.5097885"><ele>81.0</ele><time>2026-03-28T15:15:18.712Z</time></trkpt><trkpt lat="45.5002764" lon="10.5098408"><ele>81.0</ele><time>2026-03-28T15:15:19.711Z</time></trkpt><trkpt lat="45.5003722" lon="10.5098907"><ele>81.0</ele><time>2026-03-28T15:15:20.711Z</time></trkpt><trkpt lat="45.5004696" lon="10.5099477"><ele>81.0</ele><time>2026-03-28T15:15:21.712Z</time></trkpt><trkpt lat="45.5005654" lon="10.5100064"><ele>82.4</ele><time>2026-03-28T15:15:22.711Z</time></trkpt><trkpt lat="45.5006656" lon="10.5100649"><ele>83.8</ele><time>2026-03-28T15:15:23.712Z</time></trkpt><trkpt lat="45.5007663" lon="10.5101216"><ele>85.2</ele><time>2026-03-28T15:15:24.711Z</time></trkpt><trkpt lat="45.5008702" lon="10.5101777"><ele>86.60000000000001</ele><time>2026-03-28T15:15:25.711Z</time></trkpt><trkpt lat="45.5009692" lon="10.510232"><ele>88.0</ele><time>2026-03-28T15:15:26.712Z</time></trkpt><trkpt lat="45.501063" lon="10.5102828"><ele>88.0</ele><time>2026-03-28T15:15:27.711Z</time></trkpt><trkpt lat="45.5011545" lon="10.5103314"><ele>88.0</ele><time>2026-03-28T15:15:28.711Z</time></trkpt><trkpt lat="45.5012457" lon="10.5103822"><ele>88.0</ele><time>2026-03-28T15:15:29.712Z</time></trkpt><trkpt lat="45.5013384" lon="10.5104323"><ele>88.0</ele><time>2026-03-28T15:15:30.712Z</time></trkpt><trkpt lat="45.501427" lon="10.5104838"><ele>88.0</ele><time>2026-03-28T15:15:31.712Z</time></trkpt><trkpt lat="45.5015142" lon="10.5105312"><ele>87.2</ele><time>2026-03-28T15:15:32.711Z</time></trkpt><trkpt lat="45.5015997" lon="10.5105811"><ele>86.4</ele><time>2026-03-28T15:15:33.712Z</time></trkpt><trkpt lat="45.5016868" lon="10.5106287"><ele>85.60000000000001</ele><time>2026-03-28T15:15:34.712Z</time></trkpt><trkpt lat="45.5017741" lon="10.5106764"><ele>84.80000000000001</ele><time>2026-03-28T15:15:35.712Z</time></trkpt><trkpt lat="45.5018631" lon="10.5107249"><ele>84.0</ele><time>2026-03-28T15:15:36.711Z</time></trkpt><trkpt lat="45.5019531" lon="10.5107752"><ele>84.0</ele><time>2026-03-28T15:15:37.711Z</time></trkpt><trkpt lat="45.5020469" lon="10.5108252"><ele>84.0</ele><time>2026-03-28T15:15:38.711Z</time></trkpt><trkpt lat="45.5021438" lon="10.5108773"><ele>84.0</ele><time>2026-03-28T15:15:39.711Z</time></trkpt><trkpt lat="45.5022446" lon="10.5109303"><ele>84.0</ele><time>2026-03-28T15:15:40.711Z</time></trkpt><trkpt lat="45.5023428" lon="10.5109849"><ele>84.0</ele><time>2026-03-28T15:15:41.712Z</time></trkpt><trkpt lat="45.5024376" lon="10.5110411"><ele>83.83333333333333</ele><time>2026-03-28T15:15:42.711Z</time></trkpt><trkpt lat="45.5025248" lon="10.5110883"><ele>83.66666666666667</ele><time>2026-03-28T15:15:43.711Z</time></trkpt><trkpt lat="45.5026067" lon="10.5111342"><ele>83.5</ele><time>2026-03-28T15:15:44.712Z</time></trkpt><trkpt lat="45.5026837" lon="10.5111767"><ele>83.33333333333334</ele><time>2026-03-28T15:15:45.711Z</time></trkpt><trkpt lat="45.5027512" lon="10.5112136"><ele>83.16666666666667</ele><time>2026-03-28T15:15:46.711Z</time></trkpt><trkpt lat="45.5028166" lon="10.5112483"><ele>83.0</ele><time>2026-03-28T15:15:47.711Z</time></trkpt><trkpt lat="45.5028799" lon="10.5112867"><ele>84.33333333333334</ele><time>2026-03-28T15:15:48.712Z</time></trkpt><trkpt lat="45.502944" lon="10.5113232"><ele>85.66666666666667</ele><time>2026-03-28T15:15:49.711Z</time></trkpt><trkpt lat="45.5030121" lon="10.5113605"><ele>87.0</ele><time>2026-03-28T15:15:50.711Z</time></trkpt><trkpt lat="45.503081" lon="10.5113982"><ele>88.33333333333333</ele><time>2026-03-28T15:15:51.712Z</time></trkpt><trkpt lat="45.503151" lon="10.5114359"><ele>89.66666666666666</ele><time>2026-03-28T15:15:52.712Z</time></trkpt><trkpt lat="45.5032253" lon="10.5114765"><ele>91.0</ele><time>2026-03-28T15:15:53.712Z</time></trkpt><trkpt lat="45.503304" lon="10.511518"><ele>91.0</ele><time>2026-03-28T15:15:54.711Z</time></trkpt><trkpt lat="45.5033846" lon="10.5115613"><ele>91.0</ele><time>2026-03-28T15:15:55.711Z</time></trkpt><trkpt lat="45.5034676" lon="10.5116051"><ele>91.0</ele><time>2026-03-28T15:15:56.712Z</time></trkpt><trkpt lat="45.5035461" lon="10.5116528"><ele>91.0</ele><time>2026-03-28T15:15:57.712Z</time></trkpt><trkpt lat="45.5036185" lon="10.5116912"><ele>91.0</ele><time>2026-03-28T15:15:58.711Z</time></trkpt><trkpt lat="45.5036882" lon="10.5117241"><ele>91.0</ele><time>2026-03-28T15:15:59.711Z</time></trkpt><trkpt lat="45.5037568" lon="10.5117515"><ele>91.66666666666666</ele><time>2026-03-28T15:16:00.711Z</time></trkpt><trkpt lat="45.5038227" lon="10.5117781"><ele>92.33333333333333</ele><time>2026-03-28T15:16:01.711Z</time></trkpt><trkpt lat="45.5038946" lon="10.5118033"><ele>93.0</ele><time>2026-03-28T15:16:02.711Z</time></trkpt><trkpt lat="45.5039656" lon="10.5118306"><ele>93.66666666666667</ele><time>2026-03-28T15:16:03.712Z</time></trkpt><trkpt lat="45.5040336" lon="10.5118707"><ele>94.33333333333334</ele><time>2026-03-28T15:16:04.711Z</time></trkpt><trkpt lat="45.5041014" lon="10.51192"><ele>95.0</ele><time>2026-03-28T15:16:05.711Z</time></trkpt><trkpt lat="45.5041786" lon="10.5119748"><ele>95.0</ele><time>2026-03-28T15:16:06.712Z</time></trkpt><trkpt lat="45.5042653" lon="10.512027"><ele>95.0</ele><time>2026-03-28T15:16:07.711Z</time></trkpt><trkpt lat="45.5043606" lon="10.512096"><ele>95.0</ele><time>2026-03-28T15:16:08.711Z</time></trkpt><trkpt lat="45.5044667" lon="10.5121855"><ele>95.0</ele><time>2026-03-28T15:16:09.711Z</time></trkpt><trkpt lat="45.5045769" lon="10.5122958"><ele>95.66666666666667</ele><time>2026-03-28T15:16:10.711Z</time></trkpt><trkpt lat="45.5046887" lon="10.5124246"><ele>96.33333333333334</ele><time>2026-03-28T15:16:11.712Z</time></trkpt><trkpt lat="45.5048013" lon="10.5125697"><ele>97.0</ele><time>2026-03-28T15:16:12.711Z</time></trkpt><trkpt lat="45.5049144" lon="10.5127256"><ele>97.0</ele><time>2026-03-28T15:16:13.712Z</time></trkpt><trkpt lat="45.5050284" lon="10.5128897"><ele>97.0</ele><time>2026-03-28T15:16:14.711Z</time></trkpt><trkpt lat="45.505139" lon="10.5130618"><ele>97.0</ele><time>2026-03-28T15:16:15.711Z</time></trkpt><trkpt lat="45.5052464" lon="10.5132251"><ele>96.5</ele><time>2026-03-28T15:16:16.712Z</time></trkpt><trkpt lat="45.5053441" lon="10.513378"><ele>96.0</ele><time>2026-03-28T15:16:17.71Z</time></trkpt><trkpt lat="45.5054256" lon="10.513511"><ele>95.5</ele><time>2026-03-28T15:16:18.711Z</time></trkpt><trkpt lat="45.5055034" lon="10.513636"><ele>95.0</ele><time>2026-03-28T15:16:19.711Z</time></trkpt><trkpt lat="45.5055783" lon="10.5137569"><ele>95.0</ele><time>2026-03-28T15:16:20.711Z</time></trkpt><trkpt lat="45.505661" lon="10.5138848"><ele>95.0</ele><time>2026-03-28T15:16:21.71Z</time></trkpt><trkpt lat="45.5057537" lon="10.5140206"><ele>95.0</ele><time>2026-03-28T15:16:22.712Z</time></trkpt><trkpt lat="45.5058512" lon="10.5141644"><ele>95.0</ele><time>2026-03-28T15:16:23.712Z</time></trkpt><trkpt lat="45.5059555" lon="10.5143149"><ele>95.0</ele><time>2026-03-28T15:16:24.712Z</time></trkpt><trkpt lat="45.5060661" lon="10.5144682"><ele>95.0</ele><time>2026-03-28T15:16:25.711Z</time></trkpt><trkpt lat="45.5061794" lon="10.5146254"><ele>95.0</ele><time>2026-03-28T15:16:26.712Z</time></trkpt><trkpt lat="45.5062993" lon="10.5147747"><ele>95.33333333333334</ele><time>2026-03-28T15:16:27.711Z</time></trkpt><trkpt lat="45.5064256" lon="10.5149242"><ele>95.66666666666667</ele><time>2026-03-28T15:16:28.712Z</time></trkpt><trkpt lat="45.5065545" lon="10.5150762"><ele>96.0</ele><time>2026-03-28T15:16:29.712Z</time></trkpt><trkpt lat="45.5066834" lon="10.5152234"><ele>96.0</ele><time>2026-03-28T15:16:30.711Z</time></trkpt><trkpt lat="45.5068139" lon="10.5153669"><ele>96.0</ele><time>2026-03-28T15:16:31.712Z</time></trkpt><trkpt lat="45.506939" lon="10.5155073"><ele>96.0</ele><time>2026-03-28T15:16:32.712Z</time></trkpt><trkpt lat="45.5070648" lon="10.5156473"><ele>96.66666666666666</ele><time>2026-03-28T15:16:33.712Z</time></trkpt><trkpt lat="45.5071918" lon="10.5157854"><ele>97.33333333333333</ele><time>2026-03-28T15:16:34.711Z</time></trkpt><trkpt lat="45.507317" lon="10.5159267"><ele>98.0</ele><time>2026-03-28T15:16:35.712Z</time></trkpt><trkpt lat="45.5074431" lon="10.516067"><ele>98.0</ele><time>2026-03-28T15:16:36.712Z</time></trkpt><trkpt lat="45.5075704" lon="10.5162066"><ele>98.0</ele><time>2026-03-28T15:16:37.711Z</time></trkpt><trkpt lat="45.5076983" lon="10.5163481"><ele>98.0</ele><time>2026-03-28T15:16:38.712Z</time></trkpt><trkpt lat="45.5078293" lon="10.5164943"><ele>98.66666666666666</ele><time>2026-03-28T15:16:39.712Z</time></trkpt><trkpt lat="45.5079584" lon="10.5166379"><ele>99.33333333333334</ele><time>2026-03-28T15:16:40.712Z</time></trkpt><trkpt lat="45.5080896" lon="10.516782"><ele>100.0</ele><time>2026-03-28T15:16:41.712Z</time></trkpt><trkpt lat="45.5082216" lon="10.5169271"><ele>98.66666666666667</ele><time>2026-03-28T15:16:42.711Z</time></trkpt><trkpt lat="45.5083525" lon="10.5170747"><ele>97.33333333333334</ele><time>2026-03-28T15:16:43.711Z</time></trkpt><trkpt lat="45.5084853" lon="10.5172217"><ele>96.0</ele><time>2026-03-28T15:16:44.711Z</time></trkpt><trkpt lat="45.5086178" lon="10.5173672"><ele>98.0</ele><time>2026-03-28T15:16:45.712Z</time></trkpt><trkpt lat="45.5087528" lon="10.5175139"><ele>100.0</ele><time>2026-03-28T15:16:46.712Z</time></trkpt><trkpt lat="45.5088866" lon="10.5176629"><ele>102.0</ele><time>2026-03-28T15:16:47.711Z</time></trkpt><trkpt lat="45.5090204" lon="10.5178124"><ele>100.66666666666666</ele><time>2026-03-28T15:16:48.711Z</time></trkpt><trkpt lat="45.5091581" lon="10.5179625"><ele>99.33333333333333</ele><time>2026-03-28T15:16:49.711Z</time></trkpt><trkpt lat="45.5092969" lon="10.5181125"><ele>98.0</ele><time>2026-03-28T15:16:50.711Z</time></trkpt><trkpt lat="45.5094261" lon="10.518256"><ele>98.0</ele><time>2026-03-28T15:16:51.712Z</time></trkpt><trkpt lat="45.5095534" lon="10.5183933"><ele>98.0</ele><time>2026-03-28T15:16:52.711Z</time></trkpt><trkpt lat="45.5096814" lon="10.5185334"><ele>98.0</ele><time>2026-03-28T15:16:53.711Z</time></trkpt><trkpt lat="45.5098144" lon="10.5186718"><ele>99.0</ele><time>2026-03-28T15:16:54.711Z</time></trkpt><trkpt lat="45.5099509" lon="10.5188061"><ele>100.0</ele><time>2026-03-28T15:16:55.711Z</time></trkpt><trkpt lat="45.5100917" lon="10.5189339"><ele>101.0</ele><time>2026-03-28T15:16:56.711Z</time></trkpt><trkpt lat="45.5102321" lon="10.5190534"><ele>101.0</ele><time>2026-03-28T15:16:57.711Z</time></trkpt><trkpt lat="45.5103764" lon="10.5191645"><ele>101.0</ele><time>2026-03-28T15:16:58.711Z</time></trkpt><trkpt lat="45.5105244" lon="10.5192682"><ele>101.0</ele><time>2026-03-28T15:16:59.711Z</time></trkpt><trkpt lat="45.5106687" lon="10.5193661"><ele>101.25</ele><time>2026-03-28T15:17:00.711Z</time></trkpt><trkpt lat="45.5108034" lon="10.5194553"><ele>101.5</ele><time>2026-03-28T15:17:01.711Z</time></trkpt><trkpt lat="45.5109345" lon="10.5195368"><ele>101.75</ele><time>2026-03-28T15:17:02.711Z</time></trkpt><trkpt lat="45.511058" lon="10.5196072"><ele>102.0</ele><time>2026-03-28T15:17:03.712Z</time></trkpt><trkpt lat="45.5111733" lon="10.5196744"><ele>102.0</ele><time>2026-03-28T15:17:04.712Z</time></trkpt><trkpt lat="45.5112779" lon="10.519735"><ele>102.0</ele><time>2026-03-28T15:17:05.712Z</time></trkpt><trkpt lat="45.5113784" lon="10.5197932"><ele>102.0</ele><time>2026-03-28T15:17:06.712Z</time></trkpt><trkpt lat="45.5114779" lon="10.519847"><ele>102.0</ele><time>2026-03-28T15:17:07.712Z</time></trkpt><trkpt lat="45.511572" lon="10.5198946"><ele>102.0</ele><time>2026-03-28T15:17:08.711Z</time></trkpt><trkpt lat="45.5116584" lon="10.5199455"><ele>102.0</ele><time>2026-03-28T15:17:09.711Z</time></trkpt><trkpt lat="45.5117359" lon="10.5199998"><ele>102.0</ele><time>2026-03-28T15:17:10.71Z</time></trkpt><trkpt lat="45.5118027" lon="10.5200794"><ele>102.0</ele><time>2026-03-28T15:17:11.711Z</time></trkpt><trkpt lat="45.511865" lon="10.5201563"><ele>102.0</ele><time>2026-03-28T15:17:12.711Z</time></trkpt><trkpt lat="45.5119364" lon="10.5202143"><ele>102.0</ele><time>2026-03-28T15:17:13.711Z</time></trkpt><trkpt lat="45.5120141" lon="10.5202461"><ele>102.0</ele><time>2026-03-28T15:17:14.712Z</time></trkpt><trkpt lat="45.5120926" lon="10.5202524"><ele>102.5</ele><time>2026-03-28T15:17:15.712Z</time></trkpt><trkpt lat="45.5121709" lon="10.5202716"><ele>103.0</ele><time>2026-03-28T15:17:16.711Z</time></trkpt><trkpt lat="45.5122495" lon="10.5203101"><ele>103.5</ele><time>2026-03-28T15:17:17.712Z</time></trkpt><trkpt lat="45.5123312" lon="10.5203606"><ele>104.0</ele><time>2026-03-28T15:17:18.711Z</time></trkpt><trkpt lat="45.5124126" lon="10.5204119"><ele>104.5</ele><time>2026-03-28T15:17:19.711Z</time></trkpt><trkpt lat="45.5124933" lon="10.5204596"><ele>105.0</ele><time>2026-03-28T15:17:20.711Z</time></trkpt><trkpt lat="45.5125694" lon="10.5205043"><ele>104.5</ele><time>2026-03-28T15:17:21.711Z</time></trkpt><trkpt lat="45.5126367" lon="10.5205452"><ele>104.0</ele><time>2026-03-28T15:17:22.712Z</time></trkpt><trkpt lat="45.512699" lon="10.5205836"><ele>103.5</ele><time>2026-03-28T15:17:23.711Z</time></trkpt><trkpt lat="45.5128157" lon="10.5206568"><ele>103.0</ele><time>2026-03-28T15:17:25.711Z</time></trkpt><trkpt lat="45.5128772" lon="10.5206909"><ele>102.5</ele><time>2026-03-28T15:17:26.712Z</time></trkpt><trkpt lat="45.5129432" lon="10.5207305"><ele>102.0</ele><time>2026-03-28T15:17:27.711Z</time></trkpt><trkpt lat="45.5130055" lon="10.5207679"><ele>102.0</ele><time>2026-03-28T15:17:28.712Z</time></trkpt><trkpt lat="45.5130672" lon="10.5208055"><ele>102.0</ele><time>2026-03-28T15:17:29.711Z</time></trkpt><trkpt lat="45.5131277" lon="10.5208406"><ele>102.0</ele><time>2026-03-28T15:17:30.712Z</time></trkpt><trkpt lat="45.5132196" lon="10.5208936"><ele>102.0</ele><time>2026-03-28T15:17:32.712Z</time></trkpt><trkpt lat="45.5132962" lon="10.5209392"><ele>102.0</ele><time>2026-03-28T15:17:35.711Z</time></trkpt><trkpt lat="45.5133889" lon="10.5209894"><ele>102.0</ele><time>2026-03-28T15:17:38.711Z</time></trkpt><trkpt lat="45.513491" lon="10.5210476"><ele>102.0</ele><time>2026-03-28T15:17:40.712Z</time></trkpt><trkpt lat="45.5135982" lon="10.5211109"><ele>102.0</ele><time>2026-03-28T15:17:42.712Z</time></trkpt><trkpt lat="45.5137191" lon="10.5211789"><ele>102.0</ele><time>2026-03-28T15:17:44.711Z</time></trkpt><trkpt lat="45.5137821" lon="10.521211"><ele>102.0</ele><time>2026-03-28T15:17:45.711Z</time></trkpt><trkpt lat="45.5138387" lon="10.5212511"><ele>102.0</ele><time>2026-03-28T15:17:46.711Z</time></trkpt><trkpt lat="45.5139116" lon="10.5212929"><ele>101.39999999999999</ele><time>2026-03-28T15:17:48.711Z</time></trkpt><trkpt lat="45.5139777" lon="10.5213238"><ele>100.8</ele><time>2026-03-28T15:17:54.712Z</time></trkpt><trkpt lat="45.5140547" lon="10.5213543"><ele>100.2</ele><time>2026-03-28T15:17:56.712Z</time></trkpt><trkpt lat="45.5141496" lon="10.5214177"><ele>99.6</ele><time>2026-03-28T15:17:58.712Z</time></trkpt><trkpt lat="45.5142545" lon="10.5215209"><ele>99.0</ele><time>2026-03-28T15:18:00.711Z</time></trkpt><trkpt lat="45.5143177" lon="10.5215624"><ele>99.0</ele><time>2026-03-28T15:18:01.711Z</time></trkpt><trkpt lat="45.5143851" lon="10.5215848"><ele>99.0</ele><time>2026-03-28T15:18:02.711Z</time></trkpt><trkpt lat="45.5144559" lon="10.5216072"><ele>99.0</ele><time>2026-03-28T15:18:03.711Z</time></trkpt><trkpt lat="45.514523" lon="10.5216443"><ele>99.0</ele><time>2026-03-28T15:18:04.711Z</time></trkpt><trkpt lat="45.5145888" lon="10.5216859"><ele>99.0</ele><time>2026-03-28T15:18:05.712Z</time></trkpt><trkpt lat="45.5146492" lon="10.5217248"><ele>99.0</ele><time>2026-03-28T15:18:06.711Z</time></trkpt><trkpt lat="45.5147322" lon="10.5217758"><ele>99.0</ele><time>2026-03-28T15:18:08.711Z</time></trkpt><trkpt lat="45.5148078" lon="10.5218223"><ele>99.0</ele><time>2026-03-28T15:18:19.711Z</time></trkpt><trkpt lat="45.5148934" lon="10.521876"><ele>99.0</ele><time>2026-03-28T15:18:21.712Z</time></trkpt><trkpt lat="45.5149657" lon="10.5219179"><ele>99.0</ele><time>2026-03-28T15:18:23.711Z</time></trkpt><trkpt lat="45.5150543" lon="10.5219702"><ele>99.0</ele><time>2026-03-28T15:18:26.712Z</time></trkpt><trkpt lat="45.5151236" lon="10.5220104"><ele>99.0</ele><time>2026-03-28T15:18:28.712Z</time></trkpt><trkpt lat="45.5152026" lon="10.5220554"><ele>99.0</ele><time>2026-03-28T15:18:30.711Z</time></trkpt><trkpt lat="45.5152944" lon="10.5221104"><ele>99.0</ele><time>2026-03-28T15:18:32.712Z</time></trkpt><trkpt lat="45.5153948" lon="10.5221656"><ele>99.0</ele><time>2026-03-28T15:18:34.712Z</time></trkpt><trkpt lat="45.5155073" lon="10.5222295"><ele>99.0</ele><time>2026-03-28T15:18:36.712Z</time></trkpt><trkpt lat="45.5155738" lon="10.5222661"><ele>99.0</ele><time>2026-03-28T15:18:37.712Z</time></trkpt><trkpt lat="45.5156448" lon="10.5223092"><ele>99.0</ele><time>2026-03-28T15:18:38.712Z</time></trkpt><trkpt lat="45.5157196" lon="10.5223545"><ele>99.83333333333333</ele><time>2026-03-28T15:18:39.712Z</time></trkpt><trkpt lat="45.5157945" lon="10.5224006"><ele>100.66666666666666</ele><time>2026-03-28T15:18:40.712Z</time></trkpt><trkpt lat="45.5158758" lon="10.5224502"><ele>101.5</ele><time>2026-03-28T15:18:41.712Z</time></trkpt><trkpt lat="45.5159547" lon="10.5224956"><ele>102.33333333333333</ele><time>2026-03-28T15:18:42.711Z</time></trkpt><trkpt lat="45.5160366" lon="10.5225443"><ele>103.16666666666666</ele><time>2026-03-28T15:18:43.712Z</time></trkpt><trkpt lat="45.5161254" lon="10.522595"><ele>104.0</ele><time>2026-03-28T15:18:44.711Z</time></trkpt><trkpt lat="45.5162199" lon="10.5226519"><ele>104.2</ele><time>2026-03-28T15:18:45.711Z</time></trkpt><trkpt lat="45.5163166" lon="10.5227087"><ele>104.4</ele><time>2026-03-28T15:18:46.712Z</time></trkpt><trkpt lat="45.5164168" lon="10.5227669"><ele>104.6</ele><time>2026-03-28T15:18:47.712Z</time></trkpt><trkpt lat="45.5165142" lon="10.5228253"><ele>104.8</ele><time>2026-03-28T15:18:48.711Z</time></trkpt><trkpt lat="45.5166081" lon="10.5228811"><ele>105.0</ele><time>2026-03-28T15:18:49.711Z</time></trkpt><trkpt lat="45.5166989" lon="10.5229358"><ele>105.2</ele><time>2026-03-28T15:18:50.711Z</time></trkpt><trkpt lat="45.5167918" lon="10.5229913"><ele>105.4</ele><time>2026-03-28T15:18:51.711Z</time></trkpt><trkpt lat="45.5168859" lon="10.5230484"><ele>105.6</ele><time>2026-03-28T15:18:52.711Z</time></trkpt><trkpt lat="45.5169811" lon="10.5231044"><ele>105.8</ele><time>2026-03-28T15:18:53.712Z</time></trkpt><trkpt lat="45.5170748" lon="10.5231618"><ele>106.0</ele><time>2026-03-28T15:18:54.712Z</time></trkpt><trkpt lat="45.5171678" lon="10.5232179"><ele>106.0</ele><time>2026-03-28T15:18:55.711Z</time></trkpt><trkpt lat="45.5172593" lon="10.5232738"><ele>106.0</ele><time>2026-03-28T15:18:56.712Z</time></trkpt><trkpt lat="45.5173514" lon="10.5233345"><ele>106.0</ele><time>2026-03-28T15:18:57.711Z</time></trkpt><trkpt lat="45.5174413" lon="10.5233983"><ele>106.0</ele><time>2026-03-28T15:18:58.711Z</time></trkpt><trkpt lat="45.5175374" lon="10.5234658"><ele>106.0</ele><time>2026-03-28T15:18:59.711Z</time></trkpt><trkpt lat="45.5176383" lon="10.5235367"><ele>106.0</ele><time>2026-03-28T15:19:00.712Z</time></trkpt><trkpt lat="45.5177372" lon="10.5236093"><ele>106.0</ele><time>2026-03-28T15:19:01.711Z</time></trkpt><trkpt lat="45.5178366" lon="10.5236834"><ele>106.0</ele><time>2026-03-28T15:19:02.712Z</time></trkpt><trkpt lat="45.517935" lon="10.5237604"><ele>106.0</ele><time>2026-03-28T15:19:03.712Z</time></trkpt><trkpt lat="45.5180253" lon="10.5238361"><ele>106.0</ele><time>2026-03-28T15:19:04.711Z</time></trkpt><trkpt lat="45.5181141" lon="10.5239071"><ele>106.4</ele><time>2026-03-28T15:19:05.711Z</time></trkpt><trkpt lat="45.5182025" lon="10.5239787"><ele>106.8</ele><time>2026-03-28T15:19:06.711Z</time></trkpt><trkpt lat="45.5182873" lon="10.5240475"><ele>107.20000000000002</ele><time>2026-03-28T15:19:07.712Z</time></trkpt><trkpt lat="45.5183714" lon="10.5241185"><ele>107.60000000000001</ele><time>2026-03-28T15:19:08.712Z</time></trkpt><trkpt lat="45.5184569" lon="10.5241926"><ele>108.0</ele><time>2026-03-28T15:19:09.712Z</time></trkpt><trkpt lat="45.5185436" lon="10.5242665"><ele>108.0</ele><time>2026-03-28T15:19:10.711Z</time></trkpt><trkpt lat="45.5186296" lon="10.5243396"><ele>108.00000000000001</ele><time>2026-03-28T15:19:11.711Z</time></trkpt><trkpt lat="45.5187138" lon="10.5244103"><ele>108.00000000000001</ele><time>2026-03-28T15:19:12.711Z</time></trkpt><trkpt lat="45.5187947" lon="10.5244785"><ele>108.0</ele><time>2026-03-28T15:19:13.712Z</time></trkpt><trkpt lat="45.5188757" lon="10.524547"><ele>108.0</ele><time>2026-03-28T15:19:14.712Z</time></trkpt><trkpt lat="45.5189601" lon="10.5246155"><ele>108.4</ele><time>2026-03-28T15:19:15.711Z</time></trkpt><trkpt lat="45.5190442" lon="10.5246879"><ele>108.80000000000001</ele><time>2026-03-28T15:19:16.71Z</time></trkpt><trkpt lat="45.5191331" lon="10.524764"><ele>109.2</ele><time>2026-03-28T15:19:17.712Z</time></trkpt><trkpt lat="45.5192189" lon="10.5248385"><ele>109.6</ele><time>2026-03-28T15:19:18.711Z</time></trkpt><trkpt lat="45.5193103" lon="10.5249149"><ele>110.0</ele><time>2026-03-28T15:19:19.711Z</time></trkpt><trkpt lat="45.5194004" lon="10.5249903"><ele>110.0</ele><time>2026-03-28T15:19:20.712Z</time></trkpt><trkpt lat="45.5194917" lon="10.525069"><ele>110.0</ele><time>2026-03-28T15:19:21.711Z</time></trkpt><trkpt lat="45.5195834" lon="10.5251474"><ele>110.0</ele><time>2026-03-28T15:19:22.711Z</time></trkpt><trkpt lat="45.5196793" lon="10.5252258"><ele>110.0</ele><time>2026-03-28T15:19:23.712Z</time></trkpt><trkpt lat="45.5197782" lon="10.5253078"><ele>110.0</ele><time>2026-03-28T15:19:24.712Z</time></trkpt><trkpt lat="45.5198763" lon="10.5253888"><ele>109.83333333333333</ele><time>2026-03-28T15:19:25.711Z</time></trkpt><trkpt lat="45.5199733" lon="10.5254715"><ele>109.66666666666666</ele><time>2026-03-28T15:19:26.711Z</time></trkpt><trkpt lat="45.520066" lon="10.5255495"><ele>109.5</ele><time>2026-03-28T15:19:27.711Z</time></trkpt><trkpt lat="45.5201381" lon="10.525609"><ele>109.33333333333334</ele><time>2026-03-28T15:19:28.711Z</time></trkpt><trkpt lat="45.5201934" lon="10.5256574"><ele>109.16666666666667</ele><time>2026-03-28T15:19:29.712Z</time></trkpt><trkpt lat="45.520257" lon="10.5257104"><ele>109.0</ele><time>2026-03-28T15:19:31.711Z</time></trkpt><trkpt lat="45.5203127" lon="10.5257575"><ele>109.0</ele><time>2026-03-28T15:19:38.712Z</time></trkpt><trkpt lat="45.520379" lon="10.5258139"><ele>109.0</ele><time>2026-03-28T15:19:40.711Z</time></trkpt><trkpt lat="45.5204596" lon="10.5258794"><ele>109.0</ele><time>2026-03-28T15:19:42.711Z</time></trkpt><trkpt lat="45.5205415" lon="10.525949"><ele>109.0</ele><time>2026-03-28T15:19:44.711Z</time></trkpt><trkpt lat="45.5206216" lon="10.5260156"><ele>109.0</ele><time>2026-03-28T15:19:46.711Z</time></trkpt><trkpt lat="45.5207013" lon="10.526083"><ele>109.2</ele><time>2026-03-28T15:19:48.712Z</time></trkpt><trkpt lat="45.5207952" lon="10.5261623"><ele>109.4</ele><time>2026-03-28T15:19:50.71Z</time></trkpt><trkpt lat="45.5208871" lon="10.5262404"><ele>109.6</ele><time>2026-03-28T15:19:52.712Z</time></trkpt><trkpt lat="45.5209803" lon="10.5263174"><ele>109.8</ele><time>2026-03-28T15:19:54.712Z</time></trkpt><trkpt lat="45.5210799" lon="10.526401"><ele>110.0</ele><time>2026-03-28T15:19:56.711Z</time></trkpt><trkpt lat="45.5211371" lon="10.5264486"><ele>109.99999999999999</ele><time>2026-03-28T15:19:57.712Z</time></trkpt><trkpt lat="45.5212009" lon="10.5265009"><ele>110.0</ele><time>2026-03-28T15:19:58.712Z</time></trkpt><trkpt lat="45.5212708" lon="10.5265582"><ele>110.0</ele><time>2026-03-28T15:19:59.712Z</time></trkpt><trkpt lat="45.5213436" lon="10.5266208"><ele>110.0</ele><time>2026-03-28T15:20:00.711Z</time></trkpt><trkpt lat="45.5214168" lon="10.5266819"><ele>109.99999999999999</ele><time>2026-03-28T15:20:01.711Z</time></trkpt><trkpt lat="45.5214866" lon="10.5267387"><ele>110.0</ele><time>2026-03-28T15:20:02.711Z</time></trkpt><trkpt lat="45.5215524" lon="10.5267948"><ele>109.66666666666666</ele><time>2026-03-28T15:20:03.712Z</time></trkpt><trkpt lat="45.5216142" lon="10.5268469"><ele>109.33333333333333</ele><time>2026-03-28T15:20:04.711Z</time></trkpt><trkpt lat="45.5217088" lon="10.5269302"><ele>109.0</ele><time>2026-03-28T15:20:06.711Z</time></trkpt><trkpt lat="45.5217777" lon="10.5269878"><ele>108.66666666666666</ele><time>2026-03-28T15:20:08.712Z</time></trkpt><trkpt lat="45.521836" lon="10.5270361"><ele>108.33333333333333</ele><time>2026-03-28T15:20:11.712Z</time></trkpt><trkpt lat="45.5218955" lon="10.5270807"><ele>108.0</ele><time>2026-03-28T15:20:14.711Z</time></trkpt><trkpt lat="45.5219549" lon="10.5271288"><ele>108.0</ele><time>2026-03-28T15:20:16.712Z</time></trkpt><trkpt lat="45.5220089" lon="10.5271754"><ele>108.0</ele><time>2026-03-28T15:20:18.711Z</time></trkpt><trkpt lat="45.5220732" lon="10.5272322"><ele>108.0</ele><time>2026-03-28T15:20:20.711Z</time></trkpt><trkpt lat="45.5221589" lon="10.5273021"><ele>108.0</ele><time>2026-03-28T15:20:22.711Z</time></trkpt><trkpt lat="45.5222454" lon="10.5273729"><ele>108.0</ele><time>2026-03-28T15:20:24.712Z</time></trkpt><trkpt lat="45.5223343" lon="10.527453"><ele>108.0</ele><time>2026-03-28T15:20:26.711Z</time></trkpt><trkpt lat="45.5224255" lon="10.5275286"><ele>110.2</ele><time>2026-03-28T15:20:28.711Z</time></trkpt><trkpt lat="45.522512" lon="10.5276024"><ele>112.4</ele><time>2026-03-28T15:20:30.711Z</time></trkpt><trkpt lat="45.5225985" lon="10.5276763"><ele>114.60000000000001</ele><time>2026-03-28T15:20:32.712Z</time></trkpt><trkpt lat="45.5226888" lon="10.5277507"><ele>116.80000000000001</ele><time>2026-03-28T15:20:34.712Z</time></trkpt><trkpt lat="45.5227925" lon="10.5278304"><ele>119.0</ele><time>2026-03-28T15:20:36.712Z</time></trkpt><trkpt lat="45.5228496" lon="10.5278698"><ele>118.99999999999999</ele><time>2026-03-28T15:20:37.711Z</time></trkpt><trkpt lat="45.5229116" lon="10.5279157"><ele>119.0</ele><time>2026-03-28T15:20:38.712Z</time></trkpt><trkpt lat="45.5229778" lon="10.5279607"><ele>119.0</ele><time>2026-03-28T15:20:39.711Z</time></trkpt><trkpt lat="45.523045" lon="10.5280111"><ele>119.0</ele><time>2026-03-28T15:20:40.711Z</time></trkpt><trkpt lat="45.5231082" lon="10.52806"><ele>118.99999999999999</ele><time>2026-03-28T15:20:41.712Z</time></trkpt><trkpt lat="45.5232114" lon="10.528138"><ele>119.0</ele><time>2026-03-28T15:20:43.712Z</time></trkpt><trkpt lat="45.5232935" lon="10.5282031"><ele>119.0</ele><time>2026-03-28T15:20:45.711Z</time></trkpt><trkpt lat="45.5233625" lon="10.5282634"><ele>119.0</ele><time>2026-03-28T15:20:47.711Z</time></trkpt><trkpt lat="45.523416" lon="10.5283511"><ele>119.0</ele><time>2026-03-28T15:20:49.711Z</time></trkpt><trkpt lat="45.5234681" lon="10.5284944"><ele>119.0</ele><time>2026-03-28T15:20:51.711Z</time></trkpt><trkpt lat="45.5235588" lon="10.5285846"><ele>119.0</ele><time>2026-03-28T15:20:53.711Z</time></trkpt><trkpt lat="45.5236686" lon="10.5285764"><ele>119.83333333333333</ele><time>2026-03-28T15:20:55.711Z</time></trkpt><trkpt lat="45.523764" lon="10.5284967"><ele>120.66666666666666</ele><time>2026-03-28T15:20:57.695Z</time></trkpt><trkpt lat="45.523879" lon="10.5284304"><ele>121.5</ele><time>2026-03-28T15:20:59.692Z</time></trkpt><trkpt lat="45.5239439" lon="10.5284173"><ele>122.33333333333334</ele><time>2026-03-28T15:21:00.692Z</time></trkpt><trkpt lat="45.5240155" lon="10.5284129"><ele>123.16666666666667</ele><time>2026-03-28T15:21:01.692Z</time></trkpt><trkpt lat="45.5240917" lon="10.5284225"><ele>124.0</ele><time>2026-03-28T15:21:02.689Z</time></trkpt><trkpt lat="45.5241654" lon="10.5284397"><ele>124.00000000000001</ele><time>2026-03-28T15:21:03.689Z</time></trkpt><trkpt lat="45.5242354" lon="10.5284604"><ele>124.0</ele><time>2026-03-28T15:21:04.69Z</time></trkpt><trkpt lat="45.5243002" lon="10.5284814"><ele>124.0</ele><time>2026-03-28T15:21:05.69Z</time></trkpt><trkpt lat="45.5243761" lon="10.5285048"><ele>124.0</ele><time>2026-03-28T15:21:06.689Z</time></trkpt><trkpt lat="45.5244556" lon="10.5285286"><ele>124.00000000000001</ele><time>2026-03-28T15:21:07.69Z</time></trkpt><trkpt lat="45.5245361" lon="10.5285538"><ele>124.0</ele><time>2026-03-28T15:21:08.69Z</time></trkpt><trkpt lat="45.5246108" lon="10.5285773"><ele>124.0</ele><time>2026-03-28T15:21:09.689Z</time></trkpt><trkpt lat="45.5246796" lon="10.5285973"><ele>124.00000000000001</ele><time>2026-03-28T15:21:10.69Z</time></trkpt><trkpt lat="45.5247467" lon="10.5286177"><ele>124.0</ele><time>2026-03-28T15:21:11.69Z</time></trkpt><trkpt lat="45.5248141" lon="10.5286398"><ele>124.0</ele><time>2026-03-28T15:21:12.69Z</time></trkpt><trkpt lat="45.5248796" lon="10.5286615"><ele>124.00000000000001</ele><time>2026-03-28T15:21:13.69Z</time></trkpt><trkpt lat="45.524945" lon="10.5286815"><ele>124.0</ele><time>2026-03-28T15:21:14.689Z</time></trkpt><trkpt lat="45.5250081" lon="10.528704"><ele>124.0</ele><time>2026-03-28T15:21:15.689Z</time></trkpt><trkpt lat="45.5251276" lon="10.5287428"><ele>124.0</ele><time>2026-03-28T15:21:17.69Z</time></trkpt><trkpt lat="45.5252462" lon="10.5287795"><ele>124.0</ele><time>2026-03-28T15:21:19.689Z</time></trkpt><trkpt lat="45.5253634" lon="10.5288175"><ele>124.0</ele><time>2026-03-28T15:21:21.689Z</time></trkpt><trkpt lat="45.5254316" lon="10.5288388"><ele>124.0</ele><time>2026-03-28T15:21:22.689Z</time></trkpt><trkpt lat="45.5255003" lon="10.5288578"><ele>124.0</ele><time>2026-03-28T15:21:23.69Z</time></trkpt><trkpt lat="45.5255733" lon="10.5288795"><ele>124.50000000000001</ele><time>2026-03-28T15:21:24.689Z</time></trkpt><trkpt lat="45.5256501" lon="10.5289038"><ele>125.0</ele><time>2026-03-28T15:21:25.689Z</time></trkpt><trkpt lat="45.5257304" lon="10.5289288"><ele>125.5</ele><time>2026-03-28T15:21:26.69Z</time></trkpt><trkpt lat="45.525814" lon="10.528956"><ele>126.0</ele><time>2026-03-28T15:21:27.689Z</time></trkpt><trkpt lat="45.5258978" lon="10.5289827"><ele>126.50000000000001</ele><time>2026-03-28T15:21:28.689Z</time></trkpt><trkpt lat="45.5259763" lon="10.5290084"><ele>127.0</ele><time>2026-03-28T15:21:29.689Z</time></trkpt><trkpt lat="45.5260439" lon="10.5290315"><ele>127.00000000000001</ele><time>2026-03-28T15:21:30.689Z</time></trkpt><trkpt lat="45.5261295" lon="10.5290606"><ele>127.0</ele><time>2026-03-28T15:21:32.69Z</time></trkpt><trkpt lat="45.5261945" lon="10.5290817"><ele>127.0</ele><time>2026-03-28T15:21:35.69Z</time></trkpt><trkpt lat="45.5262563" lon="10.5291071"><ele>127.0</ele><time>2026-03-28T15:21:47.69Z</time></trkpt><trkpt lat="45.5263615" lon="10.5291447"><ele>127.00000000000001</ele><time>2026-03-28T15:21:50.69Z</time></trkpt><trkpt lat="45.526465" lon="10.5291822"><ele>127.0</ele><time>2026-03-28T15:21:52.69Z</time></trkpt><trkpt lat="45.5265673" lon="10.5292164"><ele>126.6</ele><time>2026-03-28T15:21:54.689Z</time></trkpt><trkpt lat="45.5266676" lon="10.5292501"><ele>126.19999999999999</ele><time>2026-03-28T15:21:56.689Z</time></trkpt><trkpt lat="45.5267641" lon="10.5292859"><ele>125.8</ele><time>2026-03-28T15:21:58.689Z</time></trkpt><trkpt lat="45.5268621" lon="10.5293223"><ele>125.4</ele><time>2026-03-28T15:22:00.69Z</time></trkpt><trkpt lat="45.5269599" lon="10.5293519"><ele>125.0</ele><time>2026-03-28T15:22:02.69Z</time></trkpt><trkpt lat="45.5270467" lon="10.5293677"><ele>125.4</ele><time>2026-03-28T15:22:04.689Z</time></trkpt><trkpt lat="45.527129" lon="10.529383"><ele>125.8</ele><time>2026-03-28T15:22:06.69Z</time></trkpt><trkpt lat="45.527232" lon="10.529427"><ele>126.19999999999999</ele><time>2026-03-28T15:22:08.689Z</time></trkpt><trkpt lat="45.5273627" lon="10.5294763"><ele>126.6</ele><time>2026-03-28T15:22:10.689Z</time></trkpt><trkpt lat="45.5274353" lon="10.5294864"><ele>127.0</ele><time>2026-03-28T15:22:11.69Z</time></trkpt><trkpt lat="45.5275126" lon="10.5294977"><ele>127.00000000000001</ele><time>2026-03-28T15:22:12.69Z</time></trkpt><trkpt lat="45.5275907" lon="10.5295226"><ele>127.0</ele><time>2026-03-28T15:22:13.69Z</time></trkpt><trkpt lat="45.527669" lon="10.5295566"><ele>127.0</ele><time>2026-03-28T15:22:14.69Z</time></trkpt><trkpt lat="45.5277521" lon="10.529593"><ele>127.0</ele><time>2026-03-28T15:22:15.689Z</time></trkpt><trkpt lat="45.5278397" lon="10.5296299"><ele>127.00000000000001</ele><time>2026-03-28T15:22:16.689Z</time></trkpt><trkpt lat="45.5279341" lon="10.5296635"><ele>127.0</ele><time>2026-03-28T15:22:17.69Z</time></trkpt><trkpt lat="45.5280338" lon="10.5296981"><ele>127.19999999999999</ele><time>2026-03-28T15:22:18.69Z</time></trkpt><trkpt lat="45.5281391" lon="10.5297319"><ele>127.39999999999999</ele><time>2026-03-28T15:22:19.69Z</time></trkpt><trkpt lat="45.5282426" lon="10.5297694"><ele>127.60000000000001</ele><time>2026-03-28T15:22:20.69Z</time></trkpt><trkpt lat="45.5283421" lon="10.5298008"><ele>127.80000000000001</ele><time>2026-03-28T15:22:21.69Z</time></trkpt><trkpt lat="45.5284377" lon="10.5298326"><ele>128.0</ele><time>2026-03-28T15:22:22.69Z</time></trkpt><trkpt lat="45.528535" lon="10.5298642"><ele>128.0</ele><time>2026-03-28T15:22:23.69Z</time></trkpt><trkpt lat="45.5286349" lon="10.529899"><ele>128.0</ele><time>2026-03-28T15:22:24.689Z</time></trkpt><trkpt lat="45.5287316" lon="10.5299332"><ele>128.0</ele><time>2026-03-28T15:22:25.689Z</time></trkpt><trkpt lat="45.528843" lon="10.5299714"><ele>128.0</ele><time>2026-03-28T15:22:26.69Z</time></trkpt><trkpt lat="45.5289473" lon="10.5300058"><ele>128.0</ele><time>2026-03-28T15:22:27.69Z</time></trkpt><trkpt lat="45.5290459" lon="10.5300378"><ele>128.4</ele><time>2026-03-28T15:22:28.69Z</time></trkpt><trkpt lat="45.5291408" lon="10.5300687"><ele>128.8</ele><time>2026-03-28T15:22:29.689Z</time></trkpt><trkpt lat="45.5292323" lon="10.5300985"><ele>129.2</ele><time>2026-03-28T15:22:30.689Z</time></trkpt><trkpt lat="45.5293208" lon="10.5301295"><ele>129.6</ele><time>2026-03-28T15:22:31.69Z</time></trkpt><trkpt lat="45.5294069" lon="10.5301594"><ele>130.0</ele><time>2026-03-28T15:22:32.69Z</time></trkpt><trkpt lat="45.5294901" lon="10.5301877"><ele>130.33333333333334</ele><time>2026-03-28T15:22:33.69Z</time></trkpt><trkpt lat="45.529569" lon="10.5302116"><ele>130.66666666666669</ele><time>2026-03-28T15:22:34.689Z</time></trkpt><trkpt lat="45.5296433" lon="10.5302363"><ele>131.0</ele><time>2026-03-28T15:22:35.69Z</time></trkpt><trkpt lat="45.5297157" lon="10.5302609"><ele>131.33333333333334</ele><time>2026-03-28T15:22:36.69Z</time></trkpt><trkpt lat="45.5297889" lon="10.5302866"><ele>131.66666666666666</ele><time>2026-03-28T15:22:37.689Z</time></trkpt><trkpt lat="45.5298655" lon="10.5303126"><ele>132.0</ele><time>2026-03-28T15:22:38.689Z</time></trkpt><trkpt lat="45.5299426" lon="10.5303373"><ele>132.0</ele><time>2026-03-28T15:22:39.69Z</time></trkpt><trkpt lat="45.5300222" lon="10.5303627"><ele>132.0</ele><time>2026-03-28T15:22:40.689Z</time></trkpt><trkpt lat="45.5300932" lon="10.5303852"><ele>132.0</ele><time>2026-03-28T15:22:41.689Z</time></trkpt><trkpt lat="45.5301661" lon="10.5304099"><ele>132.0</ele><time>2026-03-28T15:22:42.689Z</time></trkpt><trkpt lat="45.5302278" lon="10.5304307"><ele>132.0</ele><time>2026-03-28T15:22:43.69Z</time></trkpt><trkpt lat="45.5303335" lon="10.5304647"><ele>132.0</ele><time>2026-03-28T15:22:45.69Z</time></trkpt><trkpt lat="45.5304278" lon="10.5304954"><ele>131.33333333333334</ele><time>2026-03-28T15:22:47.689Z</time></trkpt><trkpt lat="45.5305136" lon="10.5305339"><ele>130.66666666666666</ele><time>2026-03-28T15:22:49.689Z</time></trkpt><trkpt lat="45.5305774" lon="10.5305788"><ele>130.0</ele><time>2026-03-28T15:22:51.689Z</time></trkpt><trkpt lat="45.5306342" lon="10.530643"><ele>129.33333333333331</ele><time>2026-03-28T15:22:55.69Z</time></trkpt><trkpt lat="45.5307191" lon="10.5307411"><ele>128.66666666666666</ele><time>2026-03-28T15:22:57.69Z</time></trkpt><trkpt lat="45.5307815" lon="10.530778"><ele>128.0</ele><time>2026-03-28T15:22:58.69Z</time></trkpt><trkpt lat="45.5308555" lon="10.5307852"><ele>128.0</ele><time>2026-03-28T15:22:59.689Z</time></trkpt><trkpt lat="45.5309425" lon="10.5307767"><ele>128.0</ele><time>2026-03-28T15:23:00.689Z</time></trkpt><trkpt lat="45.5310449" lon="10.5307719"><ele>128.0</ele><time>2026-03-28T15:23:01.69Z</time></trkpt><trkpt lat="45.5311601" lon="10.5307811"><ele>128.0</ele><time>2026-03-28T15:23:02.69Z</time></trkpt><trkpt lat="45.5312879" lon="10.5308045"><ele>128.0</ele><time>2026-03-28T15:23:03.69Z</time></trkpt><trkpt lat="45.5314167" lon="10.5308429"><ele>128.5</ele><time>2026-03-28T15:23:04.689Z</time></trkpt><trkpt lat="45.5315448" lon="10.5308831"><ele>129.0</ele><time>2026-03-28T15:23:05.689Z</time></trkpt><trkpt lat="45.5316705" lon="10.5309229"><ele>129.5</ele><time>2026-03-28T15:23:06.69Z</time></trkpt><trkpt lat="45.5317932" lon="10.5309629"><ele>130.0</ele><time>2026-03-28T15:23:07.689Z</time></trkpt><trkpt lat="45.5319141" lon="10.5310042"><ele>130.0</ele><time>2026-03-28T15:23:08.69Z</time></trkpt><trkpt lat="45.5320356" lon="10.531045"><ele>130.0</ele><time>2026-03-28T15:23:09.689Z</time></trkpt><trkpt lat="45.5321626" lon="10.5310876"><ele>130.0</ele><time>2026-03-28T15:23:10.689Z</time></trkpt><trkpt lat="45.5322956" lon="10.5311336"><ele>130.0</ele><time>2026-03-28T15:23:11.69Z</time></trkpt><trkpt lat="45.5324331" lon="10.5311803"><ele>128.75</ele><time>2026-03-28T15:23:12.689Z</time></trkpt><trkpt lat="45.532558" lon="10.5312246"><ele>127.5</ele><time>2026-03-28T15:23:13.69Z</time></trkpt><trkpt lat="45.5326928" lon="10.5312699"><ele>126.25</ele><time>2026-03-28T15:23:14.69Z</time></trkpt><trkpt lat="45.5328144" lon="10.531311"><ele>125.0</ele><time>2026-03-28T15:23:15.69Z</time></trkpt><trkpt lat="45.532932" lon="10.5313514"><ele>124.75</ele><time>2026-03-28T15:23:16.69Z</time></trkpt><trkpt lat="45.5330467" lon="10.5313914"><ele>124.5</ele><time>2026-03-28T15:23:17.69Z</time></trkpt><trkpt lat="45.5331603" lon="10.5314299"><ele>124.25</ele><time>2026-03-28T15:23:18.689Z</time></trkpt><trkpt lat="45.5332718" lon="10.5314683"><ele>124.0</ele><time>2026-03-28T15:23:19.689Z</time></trkpt><trkpt lat="45.5333823" lon="10.5315052"><ele>124.0</ele><time>2026-03-28T15:23:20.689Z</time></trkpt><trkpt lat="45.5334943" lon="10.531542"><ele>124.0</ele><time>2026-03-28T15:23:21.689Z</time></trkpt><trkpt lat="45.5336065" lon="10.5315812"><ele>124.0</ele><time>2026-03-28T15:23:22.69Z</time></trkpt><trkpt lat="45.5337178" lon="10.5316192"><ele>124.0</ele><time>2026-03-28T15:23:23.69Z</time></trkpt><trkpt lat="45.5338244" lon="10.5316553"><ele>124.0</ele><time>2026-03-28T15:23:24.689Z</time></trkpt><trkpt lat="45.533926" lon="10.5316891"><ele>124.0</ele><time>2026-03-28T15:23:25.689Z</time></trkpt><trkpt lat="45.5340214" lon="10.5317229"><ele>124.0</ele><time>2026-03-28T15:23:26.69Z</time></trkpt><trkpt lat="45.5341131" lon="10.5317538"><ele>124.0</ele><time>2026-03-28T15:23:27.689Z</time></trkpt><trkpt lat="45.534204" lon="10.5317858"><ele>124.0</ele><time>2026-03-28T15:23:28.689Z</time></trkpt><trkpt lat="45.5342902" lon="10.5318158"><ele>124.0</ele><time>2026-03-28T15:23:29.689Z</time></trkpt><trkpt lat="45.5343908" lon="10.5318489"><ele>124.0</ele><time>2026-03-28T15:23:30.689Z</time></trkpt><trkpt lat="45.5344905" lon="10.5318816"><ele>124.0</ele><time>2026-03-28T15:23:31.69Z</time></trkpt><trkpt lat="45.5345967" lon="10.531914"><ele>124.0</ele><time>2026-03-28T15:23:32.689Z</time></trkpt><trkpt lat="45.5347062" lon="10.5319504"><ele>124.0</ele><time>2026-03-28T15:23:33.689Z</time></trkpt><trkpt lat="45.5348174" lon="10.5319882"><ele>123.80000000000001</ele><time>2026-03-28T15:23:34.689Z</time></trkpt><trkpt lat="45.5349261" lon="10.5320285"><ele>123.60000000000001</ele><time>2026-03-28T15:23:35.689Z</time></trkpt><trkpt lat="45.5350303" lon="10.5320636"><ele>123.4</ele><time>2026-03-28T15:23:36.69Z</time></trkpt><trkpt lat="45.5351316" lon="10.5320994"><ele>123.2</ele><time>2026-03-28T15:23:37.689Z</time></trkpt><trkpt lat="45.535233" lon="10.5321327"><ele>123.0</ele><time>2026-03-28T15:23:38.689Z</time></trkpt><trkpt lat="45.5353347" lon="10.532167"><ele>122.60000000000001</ele><time>2026-03-28T15:23:39.689Z</time></trkpt><trkpt lat="45.5354366" lon="10.532203"><ele>122.20000000000002</ele><time>2026-03-28T15:23:40.689Z</time></trkpt><trkpt lat="45.5355393" lon="10.5322391"><ele>121.8</ele><time>2026-03-28T15:23:41.69Z</time></trkpt><trkpt lat="45.5356415" lon="10.5322743"><ele>121.4</ele><time>2026-03-28T15:23:42.69Z</time></trkpt><trkpt lat="45.5357394" lon="10.5323064"><ele>121.0</ele><time>2026-03-28T15:23:43.69Z</time></trkpt><trkpt lat="45.535832" lon="10.5323377"><ele>121.00000000000001</ele><time>2026-03-28T15:23:44.689Z</time></trkpt><trkpt lat="45.5359146" lon="10.5323692"><ele>121.0</ele><time>2026-03-28T15:23:45.689Z</time></trkpt><trkpt lat="45.5360068" lon="10.5324011"><ele>121.0</ele><time>2026-03-28T15:23:46.689Z</time></trkpt><trkpt lat="45.5360918" lon="10.5324314"><ele>121.0</ele><time>2026-03-28T15:23:47.69Z</time></trkpt><trkpt lat="45.5361757" lon="10.5324602"><ele>121.00000000000001</ele><time>2026-03-28T15:23:48.689Z</time></trkpt><trkpt lat="45.5362585" lon="10.5324904"><ele>121.0</ele><time>2026-03-28T15:23:49.689Z</time></trkpt><trkpt lat="45.5363404" lon="10.5325209"><ele>121.4</ele><time>2026-03-28T15:23:50.689Z</time></trkpt><trkpt lat="45.5364265" lon="10.5325534"><ele>121.8</ele><time>2026-03-28T15:23:51.69Z</time></trkpt><trkpt lat="45.536517" lon="10.5325891"><ele>122.20000000000002</ele><time>2026-03-28T15:23:52.689Z</time></trkpt><trkpt lat="45.5366075" lon="10.5326274"><ele>122.60000000000001</ele><time>2026-03-28T15:23:53.689Z</time></trkpt><trkpt lat="45.5366929" lon="10.5326648"><ele>123.0</ele><time>2026-03-28T15:23:54.689Z</time></trkpt><trkpt lat="45.5367735" lon="10.5327046"><ele>123.0</ele><time>2026-03-28T15:23:55.69Z</time></trkpt><trkpt lat="45.5368517" lon="10.5327439"><ele>123.0</ele><time>2026-03-28T15:23:56.69Z</time></trkpt><trkpt lat="45.5369289" lon="10.5327903"><ele>123.0</ele><time>2026-03-28T15:23:57.69Z</time></trkpt><trkpt lat="45.5370009" lon="10.5328518"><ele>123.0</ele><time>2026-03-28T15:23:58.689Z</time></trkpt><trkpt lat="45.5370638" lon="10.5329297"><ele>123.0</ele><time>2026-03-28T15:23:59.69Z</time></trkpt><trkpt lat="45.5371256" lon="10.5330079"><ele>123.0</ele><time>2026-03-28T15:24:00.689Z</time></trkpt><trkpt lat="45.5371886" lon="10.5330563"><ele>122.83333333333333</ele><time>2026-03-28T15:24:01.69Z</time></trkpt><trkpt lat="45.5372677" lon="10.5330681"><ele>122.66666666666666</ele><time>2026-03-28T15:24:02.689Z</time></trkpt><trkpt lat="45.5373381" lon="10.5330317"><ele>122.5</ele><time>2026-03-28T15:24:03.689Z</time></trkpt><trkpt lat="45.5373956" lon="10.5329579"><ele>122.33333333333333</ele><time>2026-03-28T15:24:04.69Z</time></trkpt><trkpt lat="45.537448" lon="10.5328606"><ele>122.16666666666666</ele><time>2026-03-28T15:24:05.689Z</time></trkpt><trkpt lat="45.5375051" lon="10.5327515"><ele>122.0</ele><time>2026-03-28T15:24:06.689Z</time></trkpt><trkpt lat="45.5375661" lon="10.5326468"><ele>121.99999999999999</ele><time>2026-03-28T15:24:07.689Z</time></trkpt><trkpt lat="45.5376278" lon="10.5325553"><ele>122.0</ele><time>2026-03-28T15:24:08.69Z</time></trkpt><trkpt lat="45.5376913" lon="10.5324762"><ele>122.0</ele><time>2026-03-28T15:24:09.69Z</time></trkpt><trkpt lat="45.5377549" lon="10.5324081"><ele>122.0</ele><time>2026-03-28T15:24:10.689Z</time></trkpt><trkpt lat="45.5378186" lon="10.5323518"><ele>121.99999999999999</ele><time>2026-03-28T15:24:11.69Z</time></trkpt><trkpt lat="45.5378816" lon="10.5323037"><ele>122.0</ele><time>2026-03-28T15:24:12.689Z</time></trkpt><trkpt lat="45.5379425" lon="10.5322612"><ele>121.8</ele><time>2026-03-28T15:24:13.69Z</time></trkpt><trkpt lat="45.5380556" lon="10.5321924"><ele>121.6</ele><time>2026-03-28T15:24:15.69Z</time></trkpt><trkpt lat="45.5381682" lon="10.5321295"><ele>121.39999999999999</ele><time>2026-03-28T15:24:17.689Z</time></trkpt><trkpt lat="45.5382638" lon="10.5320779"><ele>121.19999999999999</ele><time>2026-03-28T15:24:19.69Z</time></trkpt><trkpt lat="45.5383457" lon="10.5320285"><ele>121.0</ele><time>2026-03-28T15:24:21.69Z</time></trkpt><trkpt lat="45.538469" lon="10.5319555"><ele>121.0</ele><time>2026-03-28T15:24:23.689Z</time></trkpt><trkpt lat="45.538541" lon="10.5319179"><ele>120.99999999999999</ele><time>2026-03-28T15:24:24.689Z</time></trkpt><trkpt lat="45.5386106" lon="10.5318853"><ele>121.0</ele><time>2026-03-28T15:24:25.69Z</time></trkpt><trkpt lat="45.5386782" lon="10.5318544"><ele>121.0</ele><time>2026-03-28T15:24:26.689Z</time></trkpt><trkpt lat="45.5387475" lon="10.5318207"><ele>120.99999999999999</ele><time>2026-03-28T15:24:27.689Z</time></trkpt><trkpt lat="45.5388165" lon="10.5317866"><ele>121.0</ele><time>2026-03-28T15:24:28.69Z</time></trkpt><trkpt lat="45.5388849" lon="10.5317555"><ele>121.0</ele><time>2026-03-28T15:24:29.689Z</time></trkpt><trkpt lat="45.5389548" lon="10.5317254"><ele>121.14285714285714</ele><time>2026-03-28T15:24:30.689Z</time></trkpt><trkpt lat="45.5390263" lon="10.5316934"><ele>121.28571428571428</ele><time>2026-03-28T15:24:31.69Z</time></trkpt><trkpt lat="45.5390982" lon="10.5316628"><ele>121.42857142857142</ele><time>2026-03-28T15:24:32.69Z</time></trkpt><trkpt lat="45.5391628" lon="10.5316364"><ele>121.57142857142856</ele><time>2026-03-28T15:24:33.689Z</time></trkpt><trkpt lat="45.5392312" lon="10.5316084"><ele>121.71428571428571</ele><time>2026-03-28T15:24:34.689Z</time></trkpt><trkpt lat="45.5392948" lon="10.531585"><ele>121.85714285714283</ele><time>2026-03-28T15:24:35.69Z</time></trkpt><trkpt lat="45.5393586" lon="10.5315631"><ele>121.99999999999999</ele><time>2026-03-28T15:24:36.69Z</time></trkpt><trkpt lat="45.5394249" lon="10.5315405"><ele>121.99999999999999</ele><time>2026-03-28T15:24:37.689Z</time></trkpt><trkpt lat="45.5394935" lon="10.5315177"><ele>122.0</ele><time>2026-03-28T15:24:38.69Z</time></trkpt><trkpt lat="45.5395659" lon="10.5314958"><ele>122.0</ele><time>2026-03-28T15:24:39.69Z</time></trkpt><trkpt lat="45.5396372" lon="10.5314766"><ele>122.0</ele><time>2026-03-28T15:24:40.689Z</time></trkpt><trkpt lat="45.5397065" lon="10.5314598"><ele>121.99999999999999</ele><time>2026-03-28T15:24:41.689Z</time></trkpt><trkpt lat="45.5397728" lon="10.5314459"><ele>122.0</ele><time>2026-03-28T15:24:42.689Z</time></trkpt><trkpt lat="45.5398944" lon="10.5314253"><ele>121.99999999999999</ele><time>2026-03-28T15:24:44.69Z</time></trkpt><trkpt lat="45.5399925" lon="10.5314081"><ele>122.0</ele><time>2026-03-28T15:24:46.689Z</time></trkpt><trkpt lat="45.5400832" lon="10.5313963"><ele>122.0</ele><time>2026-03-28T15:24:48.689Z</time></trkpt><trkpt lat="45.5401636" lon="10.531388"><ele>122.0</ele><time>2026-03-28T15:24:50.689Z</time></trkpt><trkpt lat="45.5402296" lon="10.5313833"><ele>121.99999999999999</ele><time>2026-03-28T15:24:56.69Z</time></trkpt><trkpt lat="45.5403368" lon="10.5313726"><ele>122.0</ele><time>2026-03-28T15:24:59.689Z</time></trkpt><trkpt lat="45.5404045" lon="10.5313711"><ele>121.66666666666666</ele><time>2026-03-28T15:25:00.689Z</time></trkpt><trkpt lat="45.5404794" lon="10.5313739"><ele>121.33333333333333</ele><time>2026-03-28T15:25:01.69Z</time></trkpt><trkpt lat="45.5405535" lon="10.5313793"><ele>121.0</ele><time>2026-03-28T15:25:02.69Z</time></trkpt><trkpt lat="45.5406225" lon="10.5313821"><ele>120.66666666666666</ele><time>2026-03-28T15:25:03.69Z</time></trkpt><trkpt lat="45.5406932" lon="10.5313826"><ele>120.33333333333333</ele><time>2026-03-28T15:25:04.689Z</time></trkpt><trkpt lat="45.5407648" lon="10.5313826"><ele>120.0</ele><time>2026-03-28T15:25:05.689Z</time></trkpt><trkpt lat="45.540858" lon="10.5313829"><ele>120.0</ele><time>2026-03-28T15:25:06.69Z</time></trkpt><trkpt lat="45.5409585" lon="10.5313858"><ele>120.0</ele><time>2026-03-28T15:25:07.689Z</time></trkpt><trkpt lat="45.5410668" lon="10.5313885"><ele>120.0</ele><time>2026-03-28T15:25:08.689Z</time></trkpt><trkpt lat="45.5411767" lon="10.5313928"><ele>120.0</ele><time>2026-03-28T15:25:09.689Z</time></trkpt><trkpt lat="45.5412793" lon="10.5313957"><ele>120.0</ele><time>2026-03-28T15:25:10.689Z</time></trkpt><trkpt lat="45.5413734" lon="10.5313975"><ele>120.0</ele><time>2026-03-28T15:25:11.69Z</time></trkpt><trkpt lat="45.5414604" lon="10.5313998"><ele>120.0</ele><time>2026-03-28T15:25:12.69Z</time></trkpt><trkpt lat="45.5415425" lon="10.5314019"><ele>120.0</ele><time>2026-03-28T15:25:13.689Z</time></trkpt><trkpt lat="45.5416182" lon="10.5314029"><ele>120.0</ele><time>2026-03-28T15:25:14.689Z</time></trkpt><trkpt lat="45.5416906" lon="10.531404"><ele>120.0</ele><time>2026-03-28T15:25:15.69Z</time></trkpt><trkpt lat="45.5417608" lon="10.531405"><ele>120.0</ele><time>2026-03-28T15:25:16.689Z</time></trkpt><trkpt lat="45.5418294" lon="10.5314073"><ele>120.0</ele><time>2026-03-28T15:25:17.689Z</time></trkpt><trkpt lat="45.5418937" lon="10.5314085"><ele>120.0</ele><time>2026-03-28T15:25:18.69Z</time></trkpt><trkpt lat="45.5420103" lon="10.5314103"><ele>120.0</ele><time>2026-03-28T15:25:20.689Z</time></trkpt><trkpt lat="45.5421175" lon="10.5314168"><ele>120.0</ele><time>2026-03-28T15:25:22.689Z</time></trkpt><trkpt lat="45.5422205" lon="10.5314626"><ele>120.0</ele><time>2026-03-28T15:25:24.69Z</time></trkpt><trkpt lat="45.5423203" lon="10.5315705"><ele>120.0</ele><time>2026-03-28T15:25:26.69Z</time></trkpt><trkpt lat="45.5423789" lon="10.5316201"><ele>120.0</ele><time>2026-03-28T15:25:27.689Z</time></trkpt><trkpt lat="45.5424458" lon="10.5316358"><ele>120.0</ele><time>2026-03-28T15:25:28.69Z</time></trkpt><trkpt lat="45.5425155" lon="10.5316094"><ele>120.0</ele><time>2026-03-28T15:25:29.69Z</time></trkpt><trkpt lat="45.5425825" lon="10.531557"><ele>120.0</ele><time>2026-03-28T15:25:30.69Z</time></trkpt><trkpt lat="45.5426584" lon="10.5315029"><ele>120.0</ele><time>2026-03-28T15:25:31.689Z</time></trkpt><trkpt lat="45.5427451" lon="10.5314678"><ele>120.0</ele><time>2026-03-28T15:25:32.689Z</time></trkpt><trkpt lat="45.542841" lon="10.5314502"><ele>120.0</ele><time>2026-03-28T15:25:33.69Z</time></trkpt><trkpt lat="45.5429453" lon="10.5314432"><ele>120.0</ele><time>2026-03-28T15:25:34.689Z</time></trkpt><trkpt lat="45.543052" lon="10.5314401"><ele>120.0</ele><time>2026-03-28T15:25:35.69Z</time></trkpt><trkpt lat="45.5431537" lon="10.5314397"><ele>120.0</ele><time>2026-03-28T15:25:36.69Z</time></trkpt><trkpt lat="45.5432394" lon="10.5314372"><ele>119.66666666666667</ele><time>2026-03-28T15:25:37.69Z</time></trkpt><trkpt lat="45.5433229" lon="10.5314355"><ele>119.33333333333334</ele><time>2026-03-28T15:25:38.689Z</time></trkpt><trkpt lat="45.5433862" lon="10.5314361"><ele>119.0</ele><time>2026-03-28T15:25:39.689Z</time></trkpt><trkpt lat="45.543473" lon="10.5314354"><ele>118.66666666666667</ele><time>2026-03-28T15:25:41.689Z</time></trkpt><trkpt lat="45.5435552" lon="10.5314365"><ele>118.33333333333334</ele><time>2026-03-28T15:25:44.689Z</time></trkpt><trkpt lat="45.5436489" lon="10.5314296"><ele>118.0</ele><time>2026-03-28T15:25:47.689Z</time></trkpt><trkpt lat="45.5437764" lon="10.5314319"><ele>117.83333333333334</ele><time>2026-03-28T15:25:49.69Z</time></trkpt><trkpt lat="45.543847" lon="10.5314368"><ele>117.66666666666667</ele><time>2026-03-28T15:25:50.689Z</time></trkpt><trkpt lat="45.5439113" lon="10.5314401"><ele>117.5</ele><time>2026-03-28T15:25:51.689Z</time></trkpt><trkpt lat="45.54401" lon="10.5314415"><ele>117.33333333333334</ele><time>2026-03-28T15:25:53.689Z</time></trkpt><trkpt lat="45.5440814" lon="10.5314431"><ele>117.16666666666667</ele><time>2026-03-28T15:25:55.689Z</time></trkpt><trkpt lat="45.5441733" lon="10.5314468"><ele>117.0</ele><time>2026-03-28T15:25:58.69Z</time></trkpt><trkpt lat="45.5442659" lon="10.5314524"><ele>117.0</ele><time>2026-03-28T15:26:01.689Z</time></trkpt><trkpt lat="45.5443487" lon="10.5314594"><ele>117.0</ele><time>2026-03-28T15:26:04.69Z</time></trkpt><trkpt lat="45.5444213" lon="10.53147"><ele>117.0</ele><time>2026-03-28T15:26:06.69Z</time></trkpt><trkpt lat="45.5444863" lon="10.5314866"><ele>117.0</ele><time>2026-03-28T15:26:08.69Z</time></trkpt><trkpt lat="45.5445691" lon="10.5315147"><ele>117.0</ele><time>2026-03-28T15:26:14.69Z</time></trkpt><trkpt lat="45.5446316" lon="10.5315358"><ele>117.0</ele><time>2026-03-28T15:26:16.689Z</time></trkpt><trkpt lat="45.5447268" lon="10.5315751"><ele>117.39999999999999</ele><time>2026-03-28T15:26:18.689Z</time></trkpt><trkpt lat="45.5448233" lon="10.5316315"><ele>117.79999999999998</ele><time>2026-03-28T15:26:20.689Z</time></trkpt><trkpt lat="45.5449016" lon="10.5316883"><ele>118.2</ele><time>2026-03-28T15:26:22.69Z</time></trkpt><trkpt lat="45.5449786" lon="10.5317422"><ele>118.6</ele><time>2026-03-28T15:26:24.689Z</time></trkpt><trkpt lat="45.5450883" lon="10.5318186"><ele>119.0</ele><time>2026-03-28T15:26:26.69Z</time></trkpt><trkpt lat="45.545159" lon="10.531868"><ele>119.0</ele><time>2026-03-28T15:26:27.69Z</time></trkpt><trkpt lat="45.5452388" lon="10.5319263"><ele>119.0</ele><time>2026-03-28T15:26:28.689Z</time></trkpt><trkpt lat="45.5453261" lon="10.5319901"><ele>119.0</ele><time>2026-03-28T15:26:29.689Z</time></trkpt><trkpt lat="45.5454137" lon="10.5320575"><ele>119.0</ele><time>2026-03-28T15:26:30.69Z</time></trkpt><trkpt lat="45.5454993" lon="10.5321255"><ele>119.0</ele><time>2026-03-28T15:26:31.689Z</time></trkpt><trkpt lat="45.5455823" lon="10.5321923"><ele>119.16666666666666</ele><time>2026-03-28T15:26:32.689Z</time></trkpt><trkpt lat="45.5456639" lon="10.5322565"><ele>119.33333333333333</ele><time>2026-03-28T15:26:33.689Z</time></trkpt><trkpt lat="45.545745" lon="10.532318"><ele>119.5</ele><time>2026-03-28T15:26:34.69Z</time></trkpt><trkpt lat="45.5458267" lon="10.5323784"><ele>119.66666666666666</ele><time>2026-03-28T15:26:35.689Z</time></trkpt><trkpt lat="45.5459046" lon="10.5324362"><ele>119.83333333333333</ele><time>2026-03-28T15:26:36.689Z</time></trkpt><trkpt lat="45.5459773" lon="10.5324901"><ele>120.0</ele><time>2026-03-28T15:26:37.689Z</time></trkpt><trkpt lat="45.5460486" lon="10.5325428"><ele>120.0</ele><time>2026-03-28T15:26:38.69Z</time></trkpt><trkpt lat="45.5461171" lon="10.5325931"><ele>120.0</ele><time>2026-03-28T15:26:39.69Z</time></trkpt><trkpt lat="45.5461808" lon="10.5326393"><ele>120.0</ele><time>2026-03-28T15:26:40.689Z</time></trkpt><trkpt lat="45.546241" lon="10.5326813"><ele>120.0</ele><time>2026-03-28T15:26:41.689Z</time></trkpt><trkpt lat="45.5463121" lon="10.5327301"><ele>120.0</ele><time>2026-03-28T15:26:42.69Z</time></trkpt><trkpt lat="45.5463822" lon="10.5327783"><ele>120.0</ele><time>2026-03-28T15:26:43.689Z</time></trkpt><trkpt lat="45.5464524" lon="10.5328289"><ele>119.66666666666667</ele><time>2026-03-28T15:26:44.689Z</time></trkpt><trkpt lat="45.5465211" lon="10.5328821"><ele>119.33333333333334</ele><time>2026-03-28T15:26:45.69Z</time></trkpt><trkpt lat="45.5465885" lon="10.5329344"><ele>119.0</ele><time>2026-03-28T15:26:46.689Z</time></trkpt><trkpt lat="45.5466512" lon="10.532981"><ele>118.66666666666667</ele><time>2026-03-28T15:26:47.689Z</time></trkpt><trkpt lat="45.5467081" lon="10.5330235"><ele>118.33333333333334</ele><time>2026-03-28T15:26:48.69Z</time></trkpt><trkpt lat="45.5467911" lon="10.5330892"><ele>118.0</ele><time>2026-03-28T15:26:50.689Z</time></trkpt><trkpt lat="45.5468555" lon="10.5331318"><ele>118.0</ele><time>2026-03-28T15:26:54.69Z</time></trkpt><trkpt lat="45.5469366" lon="10.5331916"><ele>118.00000000000001</ele><time>2026-03-28T15:26:56.69Z</time></trkpt><trkpt lat="45.5470237" lon="10.5332687"><ele>118.00000000000001</ele><time>2026-03-28T15:26:58.689Z</time></trkpt><trkpt lat="45.5471057" lon="10.5333348"><ele>118.0</ele><time>2026-03-28T15:27:00.689Z</time></trkpt><trkpt lat="45.5471887" lon="10.5334042"><ele>118.0</ele><time>2026-03-28T15:27:02.689Z</time></trkpt><trkpt lat="45.5472582" lon="10.5334677"><ele>118.2</ele><time>2026-03-28T15:27:04.689Z</time></trkpt><trkpt lat="45.5473242" lon="10.5335612"><ele>118.4</ele><time>2026-03-28T15:27:10.689Z</time></trkpt><trkpt lat="45.5473842" lon="10.5337001"><ele>118.60000000000001</ele><time>2026-03-28T15:27:12.69Z</time></trkpt><trkpt lat="45.5474769" lon="10.5338315"><ele>118.80000000000001</ele><time>2026-03-28T15:27:14.69Z</time></trkpt><trkpt lat="45.5475389" lon="10.5338624"><ele>119.0</ele><time>2026-03-28T15:27:15.69Z</time></trkpt><trkpt lat="45.5476049" lon="10.5338636"><ele>118.99999999999999</ele><time>2026-03-28T15:27:16.689Z</time></trkpt><trkpt lat="45.5476739" lon="10.5338436"><ele>119.0</ele><time>2026-03-28T15:27:17.69Z</time></trkpt><trkpt lat="45.5477466" lon="10.533821"><ele>119.0</ele><time>2026-03-28T15:27:18.689Z</time></trkpt><trkpt lat="45.547824" lon="10.5338149"><ele>119.0</ele><time>2026-03-28T15:27:19.69Z</time></trkpt><trkpt lat="45.5479064" lon="10.5338301"><ele>118.99999999999999</ele><time>2026-03-28T15:27:20.689Z</time></trkpt><trkpt lat="45.5479994" lon="10.5338614"><ele>119.0</ele><time>2026-03-28T15:27:21.69Z</time></trkpt><trkpt lat="45.5481022" lon="10.5339027"><ele>119.2</ele><time>2026-03-28T15:27:22.69Z</time></trkpt><trkpt lat="45.5482163" lon="10.5339378"><ele>119.4</ele><time>2026-03-28T15:27:23.69Z</time></trkpt><trkpt lat="45.5483258" lon="10.5339657"><ele>119.6</ele><time>2026-03-28T15:27:24.689Z</time></trkpt><trkpt lat="45.5484273" lon="10.5339861"><ele>119.8</ele><time>2026-03-28T15:27:25.689Z</time></trkpt><trkpt lat="45.548518" lon="10.5340024"><ele>120.0</ele><time>2026-03-28T15:27:26.69Z</time></trkpt><trkpt lat="45.5486045" lon="10.5340135"><ele>120.0</ele><time>2026-03-28T15:27:27.69Z</time></trkpt><trkpt lat="45.5486892" lon="10.5340219"><ele>120.0</ele><time>2026-03-28T15:27:28.69Z</time></trkpt><trkpt lat="45.5487684" lon="10.5340267"><ele>120.0</ele><time>2026-03-28T15:27:29.69Z</time></trkpt><trkpt lat="45.5488588" lon="10.5340285"><ele>120.0</ele><time>2026-03-28T15:27:30.689Z</time></trkpt><trkpt lat="45.5489454" lon="10.5340248"><ele>120.0</ele><time>2026-03-28T15:27:31.69Z</time></trkpt><trkpt lat="45.5490322" lon="10.5340171"><ele>120.0</ele><time>2026-03-28T15:27:32.69Z</time></trkpt><trkpt lat="45.5491206" lon="10.5340091"><ele>119.6</ele><time>2026-03-28T15:27:33.689Z</time></trkpt><trkpt lat="45.5492109" lon="10.5339995"><ele>119.2</ele><time>2026-03-28T15:27:34.689Z</time></trkpt><trkpt lat="45.5493042" lon="10.5339896"><ele>118.80000000000001</ele><time>2026-03-28T15:27:35.689Z</time></trkpt><trkpt lat="45.549401" lon="10.5339812"><ele>118.4</ele><time>2026-03-28T15:27:36.689Z</time></trkpt><trkpt lat="45.5495012" lon="10.5339712"><ele>118.0</ele><time>2026-03-28T15:27:37.689Z</time></trkpt><trkpt lat="45.5496054" lon="10.5339601"><ele>116.4</ele><time>2026-03-28T15:27:38.689Z</time></trkpt><trkpt lat="45.5497121" lon="10.5339471"><ele>114.80000000000001</ele><time>2026-03-28T15:27:39.689Z</time></trkpt><trkpt lat="45.5498227" lon="10.5339338"><ele>113.2</ele><time>2026-03-28T15:27:40.689Z</time></trkpt><trkpt lat="45.5499344" lon="10.5339197"><ele>111.6</ele><time>2026-03-28T15:27:41.689Z</time></trkpt><trkpt lat="45.5500467" lon="10.5339061"><ele>110.0</ele><time>2026-03-28T15:27:42.689Z</time></trkpt><trkpt lat="45.5501573" lon="10.5338903"><ele>110.0</ele><time>2026-03-28T15:27:43.689Z</time></trkpt><trkpt lat="45.5502688" lon="10.533876"><ele>110.0</ele><time>2026-03-28T15:27:44.69Z</time></trkpt><trkpt lat="45.5503718" lon="10.5338605"><ele>110.0</ele><time>2026-03-28T15:27:45.689Z</time></trkpt><trkpt lat="45.5504893" lon="10.5338467"><ele>110.0</ele><time>2026-03-28T15:27:46.69Z</time></trkpt><trkpt lat="45.5505991" lon="10.5338333"><ele>110.0</ele><time>2026-03-28T15:27:47.69Z</time></trkpt><trkpt lat="45.5507107" lon="10.5338223"><ele>110.25</ele><time>2026-03-28T15:27:48.69Z</time></trkpt><trkpt lat="45.5508224" lon="10.5338054"><ele>110.5</ele><time>2026-03-28T15:27:49.689Z</time></trkpt><trkpt lat="45.5509375" lon="10.5337902"><ele>110.75</ele><time>2026-03-28T15:27:50.689Z</time></trkpt><trkpt lat="45.5510555" lon="10.5337726"><ele>111.0</ele><time>2026-03-28T15:27:51.69Z</time></trkpt><trkpt lat="45.5511711" lon="10.5337573"><ele>111.4</ele><time>2026-03-28T15:27:52.689Z</time></trkpt><trkpt lat="45.5512772" lon="10.533742"><ele>111.8</ele><time>2026-03-28T15:27:53.689Z</time></trkpt><trkpt lat="45.5513789" lon="10.5337306"><ele>112.20000000000002</ele><time>2026-03-28T15:27:54.69Z</time></trkpt><trkpt lat="45.5514796" lon="10.5337185"><ele>112.60000000000001</ele><time>2026-03-28T15:27:55.689Z</time></trkpt><trkpt lat="45.551584" lon="10.5337058"><ele>113.0</ele><time>2026-03-28T15:27:56.689Z</time></trkpt><trkpt lat="45.5516891" lon="10.5336925"><ele>113.2</ele><time>2026-03-28T15:27:57.69Z</time></trkpt><trkpt lat="45.5517926" lon="10.5336793"><ele>113.4</ele><time>2026-03-28T15:27:58.689Z</time></trkpt><trkpt lat="45.5518916" lon="10.5336661"><ele>113.60000000000001</ele><time>2026-03-28T15:27:59.689Z</time></trkpt><trkpt lat="45.551991" lon="10.5336526"><ele>113.80000000000001</ele><time>2026-03-28T15:28:00.689Z</time></trkpt><trkpt lat="45.5520834" lon="10.5336394"><ele>114.0</ele><time>2026-03-28T15:28:01.689Z</time></trkpt><trkpt lat="45.5521918" lon="10.5336242"><ele>114.2</ele><time>2026-03-28T15:28:02.689Z</time></trkpt><trkpt lat="45.5522978" lon="10.5336113"><ele>114.4</ele><time>2026-03-28T15:28:03.69Z</time></trkpt><trkpt lat="45.5524073" lon="10.5335988"><ele>114.6</ele><time>2026-03-28T15:28:04.689Z</time></trkpt><trkpt lat="45.5525196" lon="10.5335832"><ele>114.8</ele><time>2026-03-28T15:28:05.689Z</time></trkpt><trkpt lat="45.5526336" lon="10.533572"><ele>115.0</ele><time>2026-03-28T15:28:06.689Z</time></trkpt><trkpt lat="45.5527458" lon="10.5335489"><ele>115.00000000000001</ele><time>2026-03-28T15:28:07.689Z</time></trkpt><trkpt lat="45.5528528" lon="10.5335309"><ele>115.0</ele><time>2026-03-28T15:28:08.689Z</time></trkpt><trkpt lat="45.5529472" lon="10.5335126"><ele>115.0</ele><time>2026-03-28T15:28:09.69Z</time></trkpt><trkpt lat="45.55303" lon="10.5334893"><ele>115.0</ele><time>2026-03-28T15:28:10.689Z</time></trkpt><trkpt lat="45.5531025" lon="10.5334635"><ele>115.00000000000001</ele><time>2026-03-28T15:28:11.69Z</time></trkpt><trkpt lat="45.5531652" lon="10.5334384"><ele>115.0</ele><time>2026-03-28T15:28:12.689Z</time></trkpt><trkpt lat="45.5532868" lon="10.5334109"><ele>115.16666666666667</ele><time>2026-03-28T15:28:14.69Z</time></trkpt><trkpt lat="45.553352" lon="10.5334246"><ele>115.33333333333334</ele><time>2026-03-28T15:28:15.689Z</time></trkpt><trkpt lat="45.5534227" lon="10.533456"><ele>115.5</ele><time>2026-03-28T15:28:16.689Z</time></trkpt><trkpt lat="45.553496" lon="10.5334809"><ele>115.66666666666666</ele><time>2026-03-28T15:28:17.689Z</time></trkpt><trkpt lat="45.553587" lon="10.533479"><ele>115.83333333333333</ele><time>2026-03-28T15:28:18.69Z</time></trkpt><trkpt lat="45.5536741" lon="10.5334519"><ele>116.0</ele><time>2026-03-28T15:28:19.69Z</time></trkpt><trkpt lat="45.5537657" lon="10.5334226"><ele>116.4</ele><time>2026-03-28T15:28:20.69Z</time></trkpt><trkpt lat="45.5538656" lon="10.5334026"><ele>116.8</ele><time>2026-03-28T15:28:21.69Z</time></trkpt><trkpt lat="45.5539763" lon="10.5333838"><ele>117.20000000000002</ele><time>2026-03-28T15:28:22.69Z</time></trkpt><trkpt lat="45.5540912" lon="10.5333629"><ele>117.60000000000001</ele><time>2026-03-28T15:28:23.69Z</time></trkpt><trkpt lat="45.5541957" lon="10.5333587"><ele>118.0</ele><time>2026-03-28T15:28:24.689Z</time></trkpt><trkpt lat="45.5542946" lon="10.5333475"><ele>118.0</ele><time>2026-03-28T15:28:25.689Z</time></trkpt><trkpt lat="45.5543901" lon="10.5333354"><ele>118.00000000000001</ele><time>2026-03-28T15:28:26.689Z</time></trkpt><trkpt lat="45.5544876" lon="10.533323"><ele>118.00000000000001</ele><time>2026-03-28T15:28:27.69Z</time></trkpt><trkpt lat="45.5545886" lon="10.5333096"><ele>118.0</ele><time>2026-03-28T15:28:28.69Z</time></trkpt><trkpt lat="45.5546914" lon="10.5332969"><ele>118.0</ele><time>2026-03-28T15:28:29.689Z</time></trkpt><trkpt lat="45.5547971" lon="10.5332825"><ele>118.2</ele><time>2026-03-28T15:28:30.689Z</time></trkpt><trkpt lat="45.5549027" lon="10.5332694"><ele>118.4</ele><time>2026-03-28T15:28:31.69Z</time></trkpt><trkpt lat="45.5550041" lon="10.5332567"><ele>118.60000000000001</ele><time>2026-03-28T15:28:32.689Z</time></trkpt><trkpt lat="45.5550953" lon="10.5332453"><ele>118.80000000000001</ele><time>2026-03-28T15:28:33.69Z</time></trkpt><trkpt lat="45.5551964" lon="10.5332316"><ele>119.0</ele><time>2026-03-28T15:28:34.69Z</time></trkpt><trkpt lat="45.5552904" lon="10.5332191"><ele>119.0</ele><time>2026-03-28T15:28:35.689Z</time></trkpt><trkpt lat="45.5553854" lon="10.5332088"><ele>119.0</ele><time>2026-03-28T15:28:36.69Z</time></trkpt><trkpt lat="45.5554806" lon="10.5331946"><ele>119.0</ele><time>2026-03-28T15:28:37.69Z</time></trkpt><trkpt lat="45.5555792" lon="10.533181"><ele>119.0</ele><time>2026-03-28T15:28:38.69Z</time></trkpt><trkpt lat="45.5556812" lon="10.5331667"><ele>119.0</ele><time>2026-03-28T15:28:39.689Z</time></trkpt><trkpt lat="45.5557831" lon="10.5331546"><ele>119.0</ele><time>2026-03-28T15:28:40.689Z</time></trkpt><trkpt lat="45.5558848" lon="10.5331433"><ele>119.0</ele><time>2026-03-28T15:28:41.69Z</time></trkpt><trkpt lat="45.5559917" lon="10.53313"><ele>119.0</ele><time>2026-03-28T15:28:42.69Z</time></trkpt><trkpt lat="45.5561071" lon="10.5331163"><ele>119.0</ele><time>2026-03-28T15:28:43.689Z</time></trkpt><trkpt lat="45.5562321" lon="10.5331002"><ele>119.5</ele><time>2026-03-28T15:28:44.69Z</time></trkpt><trkpt lat="45.5563677" lon="10.5330845"><ele>120.0</ele><time>2026-03-28T15:28:45.689Z</time></trkpt><trkpt lat="45.5565143" lon="10.5330666"><ele>120.5</ele><time>2026-03-28T15:28:46.69Z</time></trkpt><trkpt lat="45.5566699" lon="10.5330487"><ele>121.0</ele><time>2026-03-28T15:28:47.69Z</time></trkpt><trkpt lat="45.5568286" lon="10.5330226"><ele>121.0</ele><time>2026-03-28T15:28:48.689Z</time></trkpt><trkpt lat="45.5569691" lon="10.5330027"><ele>121.0</ele><time>2026-03-28T15:28:49.689Z</time></trkpt><trkpt lat="45.5571183" lon="10.5329861"><ele>121.0</ele><time>2026-03-28T15:28:50.689Z</time></trkpt><trkpt lat="45.5572485" lon="10.5329701"><ele>121.0</ele><time>2026-03-28T15:28:51.689Z</time></trkpt><trkpt lat="45.5573724" lon="10.5329542"><ele>121.0</ele><time>2026-03-28T15:28:52.689Z</time></trkpt><trkpt lat="45.557493" lon="10.5329387"><ele>121.0</ele><time>2026-03-28T15:28:53.689Z</time></trkpt><trkpt lat="45.5576119" lon="10.5329235"><ele>121.0</ele><time>2026-03-28T15:28:54.689Z</time></trkpt><trkpt lat="45.5577295" lon="10.5329093"><ele>121.0</ele><time>2026-03-28T15:28:55.689Z</time></trkpt><trkpt lat="45.5578475" lon="10.5328941"><ele>121.25</ele><time>2026-03-28T15:28:56.689Z</time></trkpt><trkpt lat="45.5579675" lon="10.5328775"><ele>121.5</ele><time>2026-03-28T15:28:57.69Z</time></trkpt><trkpt lat="45.5580891" lon="10.5328613"><ele>121.75</ele><time>2026-03-28T15:28:58.689Z</time></trkpt><trkpt lat="45.5582131" lon="10.5328478"><ele>122.0</ele><time>2026-03-28T15:28:59.69Z</time></trkpt><trkpt lat="45.5583387" lon="10.5328321"><ele>122.0</ele><time>2026-03-28T15:29:00.689Z</time></trkpt><trkpt lat="45.5584657" lon="10.5328157"><ele>122.0</ele><time>2026-03-28T15:29:01.69Z</time></trkpt><trkpt lat="45.5585942" lon="10.5327994"><ele>122.0</ele><time>2026-03-28T15:29:02.69Z</time></trkpt><trkpt lat="45.5587229" lon="10.5327813"><ele>122.0</ele><time>2026-03-28T15:29:03.69Z</time></trkpt><trkpt lat="45.5588529" lon="10.5327644"><ele>123.0</ele><time>2026-03-28T15:29:04.69Z</time></trkpt><trkpt lat="45.5589778" lon="10.5327512"><ele>124.0</ele><time>2026-03-28T15:29:05.69Z</time></trkpt><trkpt lat="45.5591249" lon="10.5327353"><ele>125.0</ele><time>2026-03-28T15:29:06.69Z</time></trkpt><trkpt lat="45.559259" lon="10.5327175"><ele>126.0</ele><time>2026-03-28T15:29:07.689Z</time></trkpt><trkpt lat="45.5593883" lon="10.5327089"><ele>126.0</ele><time>2026-03-28T15:29:08.689Z</time></trkpt><trkpt lat="45.5595081" lon="10.5327066"><ele>126.0</ele><time>2026-03-28T15:29:09.69Z</time></trkpt><trkpt lat="45.5596159" lon="10.5327083"><ele>126.0</ele><time>2026-03-28T15:29:10.689Z</time></trkpt><trkpt lat="45.5597076" lon="10.5327153"><ele>126.0</ele><time>2026-03-28T15:29:11.689Z</time></trkpt><trkpt lat="45.559788" lon="10.532725"><ele>126.0</ele><time>2026-03-28T15:29:12.689Z</time></trkpt><trkpt lat="45.5598597" lon="10.5327431"><ele>126.0</ele><time>2026-03-28T15:29:13.689Z</time></trkpt><trkpt lat="45.559929" lon="10.5327736"><ele>126.0</ele><time>2026-03-28T15:29:14.69Z</time></trkpt><trkpt lat="45.5599972" lon="10.5328124"><ele>126.0</ele><time>2026-03-28T15:29:15.69Z</time></trkpt><trkpt lat="45.5600666" lon="10.5328438"><ele>126.0</ele><time>2026-03-28T15:29:16.69Z</time></trkpt><trkpt lat="45.5601379" lon="10.5328498"><ele>126.0</ele><time>2026-03-28T15:29:17.69Z</time></trkpt><trkpt lat="45.5602095" lon="10.5328234"><ele>126.0</ele><time>2026-03-28T15:29:18.69Z</time></trkpt><trkpt lat="45.5602761" lon="10.532768"><ele>126.0</ele><time>2026-03-28T15:29:19.69Z</time></trkpt><trkpt lat="45.5603435" lon="10.532699"><ele>125.6</ele><time>2026-03-28T15:29:20.689Z</time></trkpt><trkpt lat="45.5604152" lon="10.5326412"><ele>125.19999999999999</ele><time>2026-03-28T15:29:21.689Z</time></trkpt><trkpt lat="45.5605092" lon="10.5325915"><ele>124.80000000000001</ele><time>2026-03-28T15:29:22.69Z</time></trkpt><trkpt lat="45.5606074" lon="10.5325629"><ele>124.4</ele><time>2026-03-28T15:29:23.69Z</time></trkpt><trkpt lat="45.5607158" lon="10.5325407"><ele>124.0</ele><time>2026-03-28T15:29:24.689Z</time></trkpt><trkpt lat="45.5608298" lon="10.5325206"><ele>124.0</ele><time>2026-03-28T15:29:25.689Z</time></trkpt><trkpt lat="45.5609451" lon="10.5325015"><ele>124.0</ele><time>2026-03-28T15:29:26.689Z</time></trkpt><trkpt lat="45.5610543" lon="10.5324875"><ele>124.0</ele><time>2026-03-28T15:29:27.689Z</time></trkpt><trkpt lat="45.5611575" lon="10.5324746"><ele>124.0</ele><time>2026-03-28T15:29:28.689Z</time></trkpt><trkpt lat="45.5612602" lon="10.5324602"><ele>124.0</ele><time>2026-03-28T15:29:29.689Z</time></trkpt><trkpt lat="45.5613696" lon="10.5324481"><ele>124.25</ele><time>2026-03-28T15:29:30.69Z</time></trkpt><trkpt lat="45.5614865" lon="10.5324333"><ele>124.5</ele><time>2026-03-28T15:29:31.689Z</time></trkpt><trkpt lat="45.5616108" lon="10.5324181"><ele>124.75</ele><time>2026-03-28T15:29:32.689Z</time></trkpt><trkpt lat="45.5617355" lon="10.5324005"><ele>125.0</ele><time>2026-03-28T15:29:33.689Z</time></trkpt><trkpt lat="45.5618539" lon="10.532385"><ele>125.0</ele><time>2026-03-28T15:29:34.69Z</time></trkpt><trkpt lat="45.561964" lon="10.5323695"><ele>125.0</ele><time>2026-03-28T15:29:35.689Z</time></trkpt><trkpt lat="45.562071" lon="10.5323572"><ele>125.0</ele><time>2026-03-28T15:29:36.689Z</time></trkpt><trkpt lat="45.5621702" lon="10.5323444"><ele>125.0</ele><time>2026-03-28T15:29:37.69Z</time></trkpt><trkpt lat="45.5622846" lon="10.53233"><ele>125.0</ele><time>2026-03-28T15:29:38.689Z</time></trkpt><trkpt lat="45.5623926" lon="10.5323162"><ele>125.5</ele><time>2026-03-28T15:29:39.69Z</time></trkpt><trkpt lat="45.5624988" lon="10.5323025"><ele>126.0</ele><time>2026-03-28T15:29:40.689Z</time></trkpt><trkpt lat="45.5626196" lon="10.5322854"><ele>126.5</ele><time>2026-03-28T15:29:41.689Z</time></trkpt><trkpt lat="45.5627395" lon="10.5322711"><ele>127.0</ele><time>2026-03-28T15:29:42.689Z</time></trkpt><trkpt lat="45.5628607" lon="10.5322554"><ele>127.0</ele><time>2026-03-28T15:29:43.69Z</time></trkpt><trkpt lat="45.562987" lon="10.5322404"><ele>127.0</ele><time>2026-03-28T15:29:44.69Z</time></trkpt><trkpt lat="45.5631063" lon="10.532227"><ele>127.0</ele><time>2026-03-28T15:29:45.69Z</time></trkpt><trkpt lat="45.5632208" lon="10.5322141"><ele>127.0</ele><time>2026-03-28T15:29:46.69Z</time></trkpt><trkpt lat="45.5633298" lon="10.5322006"><ele>127.0</ele><time>2026-03-28T15:29:47.69Z</time></trkpt><trkpt lat="45.5634311" lon="10.5321877"><ele>126.99999999999999</ele><time>2026-03-28T15:29:48.689Z</time></trkpt><trkpt lat="45.5635427" lon="10.5321725"><ele>126.99999999999999</ele><time>2026-03-28T15:29:49.689Z</time></trkpt><trkpt lat="45.563648" lon="10.5321588"><ele>127.0</ele><time>2026-03-28T15:29:50.69Z</time></trkpt><trkpt lat="45.5637505" lon="10.5321455"><ele>127.0</ele><time>2026-03-28T15:29:51.69Z</time></trkpt><trkpt lat="45.5638561" lon="10.5321317"><ele>127.6</ele><time>2026-03-28T15:29:52.689Z</time></trkpt><trkpt lat="45.5639558" lon="10.5321192"><ele>128.2</ele><time>2026-03-28T15:29:53.69Z</time></trkpt><trkpt lat="45.5640734" lon="10.5321048"><ele>128.8</ele><time>2026-03-28T15:29:54.689Z</time></trkpt><trkpt lat="45.5641775" lon="10.532093"><ele>129.4</ele><time>2026-03-28T15:29:55.69Z</time></trkpt><trkpt lat="45.5642703" lon="10.5320821"><ele>130.0</ele><time>2026-03-28T15:29:56.69Z</time></trkpt><trkpt lat="45.5643645" lon="10.532071"><ele>130.0</ele><time>2026-03-28T15:29:57.689Z</time></trkpt><trkpt lat="45.5644442" lon="10.5320652"><ele>130.0</ele><time>2026-03-28T15:29:58.69Z</time></trkpt><trkpt lat="45.5645112" lon="10.532064"><ele>130.0</ele><time>2026-03-28T15:29:59.689Z</time></trkpt><trkpt lat="45.5646083" lon="10.5320878"><ele>130.0</ele><time>2026-03-28T15:30:01.689Z</time></trkpt><trkpt lat="45.5646968" lon="10.5321656"><ele>130.0</ele><time>2026-03-28T15:30:03.689Z</time></trkpt><trkpt lat="45.5648081" lon="10.53227"><ele>130.00000000000003</ele><time>2026-03-28T15:30:05.69Z</time></trkpt><trkpt lat="45.5648757" lon="10.5322816"><ele>130.0</ele><time>2026-03-28T15:30:06.69Z</time></trkpt><trkpt lat="45.5649392" lon="10.5322514"><ele>130.0</ele><time>2026-03-28T15:30:07.689Z</time></trkpt><trkpt lat="45.5649893" lon="10.5321835"><ele>130.0</ele><time>2026-03-28T15:30:08.69Z</time></trkpt><trkpt lat="45.5650234" lon="10.5320993"><ele>130.0</ele><time>2026-03-28T15:30:09.689Z</time></trkpt><trkpt lat="45.5650653" lon="10.5319971"><ele>130.00000000000003</ele><time>2026-03-28T15:30:10.69Z</time></trkpt><trkpt lat="45.565122" lon="10.5319284"><ele>130.0</ele><time>2026-03-28T15:30:11.69Z</time></trkpt><trkpt lat="45.5651884" lon="10.53188"><ele>130.0</ele><time>2026-03-28T15:30:12.689Z</time></trkpt><trkpt lat="45.5652761" lon="10.5318346"><ele>130.0</ele><time>2026-03-28T15:30:13.69Z</time></trkpt><trkpt lat="45.565372" lon="10.531786"><ele>130.0</ele><time>2026-03-28T15:30:14.689Z</time></trkpt><trkpt lat="45.5654754" lon="10.531736"><ele>130.0</ele><time>2026-03-28T15:30:15.689Z</time></trkpt><trkpt lat="45.5655869" lon="10.5316775"><ele>130.0</ele><time>2026-03-28T15:30:16.69Z</time></trkpt><trkpt lat="45.5656926" lon="10.5316219"><ele>130.4</ele><time>2026-03-28T15:30:17.689Z</time></trkpt><trkpt lat="45.565796" lon="10.5315704"><ele>130.8</ele><time>2026-03-28T15:30:18.69Z</time></trkpt><trkpt lat="45.5658967" lon="10.5315188"><ele>131.2</ele><time>2026-03-28T15:30:19.689Z</time></trkpt><trkpt lat="45.5659954" lon="10.5314691"><ele>131.6</ele><time>2026-03-28T15:30:20.689Z</time></trkpt><trkpt lat="45.566107" lon="10.531403"><ele>132.0</ele><time>2026-03-28T15:30:21.69Z</time></trkpt><trkpt lat="45.5662228" lon="10.5313494"><ele>132.0</ele><time>2026-03-28T15:30:22.689Z</time></trkpt><trkpt lat="45.566338" lon="10.531292"><ele>132.0</ele><time>2026-03-28T15:30:23.69Z</time></trkpt><trkpt lat="45.5664551" lon="10.5312234"><ele>132.0</ele><time>2026-03-28T15:30:24.689Z</time></trkpt><trkpt lat="45.5665654" lon="10.5311664"><ele>132.0</ele><time>2026-03-28T15:30:25.69Z</time></trkpt><trkpt lat="45.5666928" lon="10.5310994"><ele>132.0</ele><time>2026-03-28T15:30:26.689Z</time></trkpt><trkpt lat="45.5668123" lon="10.5310387"><ele>132.0</ele><time>2026-03-28T15:30:27.69Z</time></trkpt><trkpt lat="45.5669256" lon="10.530979"><ele>132.0</ele><time>2026-03-28T15:30:28.69Z</time></trkpt><trkpt lat="45.5670497" lon="10.5309143"><ele>132.0</ele><time>2026-03-28T15:30:29.689Z</time></trkpt><trkpt lat="45.5671633" lon="10.5308559"><ele>132.0</ele><time>2026-03-28T15:30:30.69Z</time></trkpt><trkpt lat="45.5672645" lon="10.5308035"><ele>132.0</ele><time>2026-03-28T15:30:31.69Z</time></trkpt><trkpt lat="45.5673591" lon="10.5307484"><ele>132.0</ele><time>2026-03-28T15:30:32.69Z</time></trkpt><trkpt lat="45.567445" lon="10.5306856"><ele>132.0</ele><time>2026-03-28T15:30:33.689Z</time></trkpt><trkpt lat="45.5675238" lon="10.5306127"><ele>132.0</ele><time>2026-03-28T15:30:34.689Z</time></trkpt><trkpt lat="45.5675933" lon="10.5305345"><ele>132.0</ele><time>2026-03-28T15:30:35.689Z</time></trkpt><trkpt lat="45.5676516" lon="10.5304593"><ele>132.0</ele><time>2026-03-28T15:30:36.69Z</time></trkpt><trkpt lat="45.5677075" lon="10.5303799"><ele>132.0</ele><time>2026-03-28T15:30:37.69Z</time></trkpt><trkpt lat="45.5677576" lon="10.5303112"><ele>132.0</ele><time>2026-03-28T15:30:38.69Z</time></trkpt><trkpt lat="45.5678121" lon="10.5302489"><ele>132.0</ele><time>2026-03-28T15:30:39.689Z</time></trkpt><trkpt lat="45.5678755" lon="10.5301946"><ele>132.0</ele><time>2026-03-28T15:30:40.689Z</time></trkpt><trkpt lat="45.5679402" lon="10.530139"><ele>132.0</ele><time>2026-03-28T15:30:41.69Z</time></trkpt><trkpt lat="45.5680123" lon="10.5300693"><ele>131.83333333333334</ele><time>2026-03-28T15:30:42.689Z</time></trkpt><trkpt lat="45.5680767" lon="10.5299986"><ele>131.66666666666666</ele><time>2026-03-28T15:30:43.69Z</time></trkpt><trkpt lat="45.568136" lon="10.5299373"><ele>131.5</ele><time>2026-03-28T15:30:44.689Z</time></trkpt><trkpt lat="45.5682054" lon="10.5298856"><ele>131.33333333333331</ele><time>2026-03-28T15:30:45.69Z</time></trkpt><trkpt lat="45.5682751" lon="10.5298666"><ele>131.16666666666666</ele><time>2026-03-28T15:30:46.689Z</time></trkpt><trkpt lat="45.5683485" lon="10.529881"><ele>131.0</ele><time>2026-03-28T15:30:47.689Z</time></trkpt><trkpt lat="45.5684243" lon="10.5299104"><ele>131.0</ele><time>2026-03-28T15:30:48.69Z</time></trkpt><trkpt lat="45.5685066" lon="10.5299434"><ele>131.0</ele><time>2026-03-28T15:30:49.69Z</time></trkpt><trkpt lat="45.5685946" lon="10.5299679"><ele>131.0</ele><time>2026-03-28T15:30:50.69Z</time></trkpt><trkpt lat="45.5686829" lon="10.5299808"><ele>131.0</ele><time>2026-03-28T15:30:51.689Z</time></trkpt><trkpt lat="45.5687639" lon="10.5299815"><ele>131.0</ele><time>2026-03-28T15:30:52.689Z</time></trkpt><trkpt lat="45.5688523" lon="10.5299644"><ele>131.0</ele><time>2026-03-28T15:30:53.69Z</time></trkpt><trkpt lat="45.5689318" lon="10.5299359"><ele>131.2</ele><time>2026-03-28T15:30:54.69Z</time></trkpt><trkpt lat="45.5690105" lon="10.5299007"><ele>131.39999999999998</ele><time>2026-03-28T15:30:55.69Z</time></trkpt><trkpt lat="45.5690907" lon="10.5298576"><ele>131.6</ele><time>2026-03-28T15:30:56.689Z</time></trkpt><trkpt lat="45.5691698" lon="10.5298154"><ele>131.79999999999998</ele><time>2026-03-28T15:30:57.689Z</time></trkpt><trkpt lat="45.5692676" lon="10.5297627"><ele>132.0</ele><time>2026-03-28T15:30:58.69Z</time></trkpt><trkpt lat="45.5693692" lon="10.5297069"><ele>132.0</ele><time>2026-03-28T15:30:59.689Z</time></trkpt><trkpt lat="45.5694717" lon="10.529652"><ele>132.0</ele><time>2026-03-28T15:31:00.689Z</time></trkpt><trkpt lat="45.569595" lon="10.5295871"><ele>132.0</ele><time>2026-03-28T15:31:01.69Z</time></trkpt><trkpt lat="45.5697104" lon="10.5295289"><ele>132.0</ele><time>2026-03-28T15:31:02.689Z</time></trkpt><trkpt lat="45.5698184" lon="10.5294736"><ele>132.4</ele><time>2026-03-28T15:31:03.689Z</time></trkpt><trkpt lat="45.5699199" lon="10.5294208"><ele>132.79999999999998</ele><time>2026-03-28T15:31:04.69Z</time></trkpt><trkpt lat="45.5700186" lon="10.5293699"><ele>133.2</ele><time>2026-03-28T15:31:05.689Z</time></trkpt><trkpt lat="45.5701183" lon="10.5293183"><ele>133.6</ele><time>2026-03-28T15:31:06.689Z</time></trkpt><trkpt lat="45.5702225" lon="10.5292634"><ele>134.0</ele><time>2026-03-28T15:31:07.689Z</time></trkpt><trkpt lat="45.5703236" lon="10.5292113"><ele>134.25</ele><time>2026-03-28T15:31:08.689Z</time></trkpt><trkpt lat="45.5704428" lon="10.5291494"><ele>134.5</ele><time>2026-03-28T15:31:09.689Z</time></trkpt><trkpt lat="45.5705536" lon="10.5290895"><ele>134.75</ele><time>2026-03-28T15:31:10.689Z</time></trkpt><trkpt lat="45.5706603" lon="10.5290324"><ele>135.0</ele><time>2026-03-28T15:31:11.689Z</time></trkpt><trkpt lat="45.5707597" lon="10.528981"><ele>135.0</ele><time>2026-03-28T15:31:12.69Z</time></trkpt><trkpt lat="45.5708441" lon="10.5289364"><ele>135.0</ele><time>2026-03-28T15:31:13.689Z</time></trkpt><trkpt lat="45.5709339" lon="10.5288856"><ele>135.0</ele><time>2026-03-28T15:31:14.69Z</time></trkpt><trkpt lat="45.5710176" lon="10.5288405"><ele>135.0</ele><time>2026-03-28T15:31:15.689Z</time></trkpt><trkpt lat="45.5710972" lon="10.5287984"><ele>135.0</ele><time>2026-03-28T15:31:16.689Z</time></trkpt><trkpt lat="45.5711866" lon="10.5287504"><ele>134.83333333333334</ele><time>2026-03-28T15:31:17.689Z</time></trkpt><trkpt lat="45.5712673" lon="10.5287076"><ele>134.66666666666666</ele><time>2026-03-28T15:31:18.689Z</time></trkpt><trkpt lat="45.5713478" lon="10.5286641"><ele>134.5</ele><time>2026-03-28T15:31:19.689Z</time></trkpt><trkpt lat="45.5714217" lon="10.5286235"><ele>134.33333333333331</ele><time>2026-03-28T15:31:20.689Z</time></trkpt><trkpt lat="45.5714944" lon="10.5285852"><ele>134.16666666666666</ele><time>2026-03-28T15:31:21.69Z</time></trkpt><trkpt lat="45.5715638" lon="10.5285466"><ele>134.0</ele><time>2026-03-28T15:31:22.69Z</time></trkpt><trkpt lat="45.5716306" lon="10.5285067"><ele>134.0</ele><time>2026-03-28T15:31:23.69Z</time></trkpt><trkpt lat="45.5716938" lon="10.5284698"><ele>134.0</ele><time>2026-03-28T15:31:24.689Z</time></trkpt><trkpt lat="45.5717567" lon="10.5284318"><ele>134.0</ele><time>2026-03-28T15:31:25.69Z</time></trkpt><trkpt lat="45.5718712" lon="10.5283623"><ele>134.0</ele><time>2026-03-28T15:31:27.689Z</time></trkpt><trkpt lat="45.5719872" lon="10.5282892"><ele>134.0</ele><time>2026-03-28T15:31:29.689Z</time></trkpt><trkpt lat="45.5720702" lon="10.5282349"><ele>134.0</ele><time>2026-03-28T15:31:30.689Z</time></trkpt><trkpt lat="45.5721743" lon="10.5281694"><ele>134.0</ele><time>2026-03-28T15:31:31.69Z</time></trkpt><trkpt lat="45.5722756" lon="10.5281029"><ele>134.0</ele><time>2026-03-28T15:31:32.689Z</time></trkpt><trkpt lat="45.5723748" lon="10.5280377"><ele>134.0</ele><time>2026-03-28T15:31:33.689Z</time></trkpt><trkpt lat="45.5724714" lon="10.5279742"><ele>134.0</ele><time>2026-03-28T15:31:34.69Z</time></trkpt><trkpt lat="45.5725705" lon="10.5279103"><ele>134.2</ele><time>2026-03-28T15:31:35.69Z</time></trkpt><trkpt lat="45.5726685" lon="10.5278467"><ele>134.4</ele><time>2026-03-28T15:31:36.689Z</time></trkpt><trkpt lat="45.5727679" lon="10.5277823"><ele>134.6</ele><time>2026-03-28T15:31:37.689Z</time></trkpt><trkpt lat="45.5728659" lon="10.5277169"><ele>134.8</ele><time>2026-03-28T15:31:38.69Z</time></trkpt><trkpt lat="45.572964" lon="10.5276517"><ele>135.0</ele><time>2026-03-28T15:31:39.69Z</time></trkpt><trkpt lat="45.5730556" lon="10.5275901"><ele>135.0</ele><time>2026-03-28T15:31:40.69Z</time></trkpt><trkpt lat="45.5731592" lon="10.5275187"><ele>135.0</ele><time>2026-03-28T15:31:41.689Z</time></trkpt><trkpt lat="45.5732559" lon="10.5274545"><ele>135.0</ele><time>2026-03-28T15:31:42.689Z</time></trkpt><trkpt lat="45.5733498" lon="10.5273918"><ele>135.0</ele><time>2026-03-28T15:31:43.689Z</time></trkpt><trkpt lat="45.5734424" lon="10.5273316"><ele>135.0</ele><time>2026-03-28T15:31:44.69Z</time></trkpt><trkpt lat="45.5735275" lon="10.5272766"><ele>135.0</ele><time>2026-03-28T15:31:45.689Z</time></trkpt><trkpt lat="45.5736218" lon="10.5272146"><ele>135.0</ele><time>2026-03-28T15:31:46.689Z</time></trkpt><trkpt lat="45.5737108" lon="10.5271551"><ele>135.0</ele><time>2026-03-28T15:31:47.69Z</time></trkpt><trkpt lat="45.5737947" lon="10.5271001"><ele>135.0</ele><time>2026-03-28T15:31:48.689Z</time></trkpt><trkpt lat="45.5738922" lon="10.5270372"><ele>135.0</ele><time>2026-03-28T15:31:49.689Z</time></trkpt><trkpt lat="45.5739845" lon="10.5269748"><ele>135.2</ele><time>2026-03-28T15:31:50.689Z</time></trkpt><trkpt lat="45.5740793" lon="10.5269121"><ele>135.4</ele><time>2026-03-28T15:31:51.689Z</time></trkpt><trkpt lat="45.5741752" lon="10.5268461"><ele>135.6</ele><time>2026-03-28T15:31:52.689Z</time></trkpt><trkpt lat="45.5742697" lon="10.5267834"><ele>135.8</ele><time>2026-03-28T15:31:53.69Z</time></trkpt><trkpt lat="45.5743617" lon="10.5267228"><ele>136.0</ele><time>2026-03-28T15:31:54.689Z</time></trkpt><trkpt lat="45.574454" lon="10.5266636"><ele>135.8</ele><time>2026-03-28T15:31:55.689Z</time></trkpt><trkpt lat="45.5745397" lon="10.5266084"><ele>135.6</ele><time>2026-03-28T15:31:56.69Z</time></trkpt><trkpt lat="45.5746368" lon="10.5265465"><ele>135.4</ele><time>2026-03-28T15:31:57.689Z</time></trkpt><trkpt lat="45.5747218" lon="10.5264921"><ele>135.2</ele><time>2026-03-28T15:31:58.69Z</time></trkpt><trkpt lat="45.5748007" lon="10.5264416"><ele>135.0</ele><time>2026-03-28T15:31:59.689Z</time></trkpt><trkpt lat="45.574873" lon="10.5264006"><ele>135.0</ele><time>2026-03-28T15:32:00.689Z</time></trkpt><trkpt lat="45.5749352" lon="10.5263733"><ele>135.0</ele><time>2026-03-28T15:32:01.689Z</time></trkpt><trkpt lat="45.5750009" lon="10.5263551"><ele>135.0</ele><time>2026-03-28T15:32:02.689Z</time></trkpt><trkpt lat="45.5751146" lon="10.5263747"><ele>135.0</ele><time>2026-03-28T15:32:04.69Z</time></trkpt><trkpt lat="45.5752208" lon="10.5264227"><ele>135.0</ele><time>2026-03-28T15:32:06.689Z</time></trkpt><trkpt lat="45.5753131" lon="10.526412"><ele>135.2</ele><time>2026-03-28T15:32:08.69Z</time></trkpt><trkpt lat="45.5753788" lon="10.526347"><ele>135.4</ele><time>2026-03-28T15:32:10.689Z</time></trkpt><trkpt lat="45.5754243" lon="10.5262474"><ele>135.6</ele><time>2026-03-28T15:32:12.69Z</time></trkpt><trkpt lat="45.5754807" lon="10.526115"><ele>135.8</ele><time>2026-03-28T15:32:14.689Z</time></trkpt><trkpt lat="45.5755766" lon="10.5259796"><ele>136.0</ele><time>2026-03-28T15:32:16.689Z</time></trkpt><trkpt lat="45.5756382" lon="10.5259172"><ele>136.33333333333334</ele><time>2026-03-28T15:32:17.689Z</time></trkpt><trkpt lat="45.5757053" lon="10.5258585"><ele>136.66666666666669</ele><time>2026-03-28T15:32:18.689Z</time></trkpt><trkpt lat="45.5757753" lon="10.5258029"><ele>137.0</ele><time>2026-03-28T15:32:19.69Z</time></trkpt><trkpt lat="45.575852" lon="10.5257462"><ele>137.33333333333334</ele><time>2026-03-28T15:32:20.69Z</time></trkpt><trkpt lat="45.5759351" lon="10.525687"><ele>137.66666666666666</ele><time>2026-03-28T15:32:21.689Z</time></trkpt><trkpt lat="45.5760272" lon="10.5256261"><ele>138.0</ele><time>2026-03-28T15:32:22.689Z</time></trkpt><trkpt lat="45.5761217" lon="10.5255647"><ele>138.20000000000002</ele><time>2026-03-28T15:32:23.69Z</time></trkpt><trkpt lat="45.5762161" lon="10.5255022"><ele>138.4</ele><time>2026-03-28T15:32:24.689Z</time></trkpt><trkpt lat="45.5763126" lon="10.5254376"><ele>138.60000000000002</ele><time>2026-03-28T15:32:25.69Z</time></trkpt><trkpt lat="45.576398" lon="10.5253795"><ele>138.8</ele><time>2026-03-28T15:32:26.689Z</time></trkpt><trkpt lat="45.5764866" lon="10.5253199"><ele>139.0</ele><time>2026-03-28T15:32:27.689Z</time></trkpt><trkpt lat="45.5765762" lon="10.5252594"><ele>139.0</ele><time>2026-03-28T15:32:28.69Z</time></trkpt><trkpt lat="45.5766661" lon="10.5251986"><ele>139.0</ele><time>2026-03-28T15:32:29.69Z</time></trkpt><trkpt lat="45.5767665" lon="10.5251344"><ele>139.0</ele><time>2026-03-28T15:32:30.69Z</time></trkpt><trkpt lat="45.5768569" lon="10.5250746"><ele>139.0</ele><time>2026-03-28T15:32:31.689Z</time></trkpt><trkpt lat="45.5769557" lon="10.5250096"><ele>139.0</ele><time>2026-03-28T15:32:32.69Z</time></trkpt><trkpt lat="45.5770548" lon="10.5249428"><ele>139.2</ele><time>2026-03-28T15:32:33.689Z</time></trkpt><trkpt lat="45.5771533" lon="10.5248774"><ele>139.4</ele><time>2026-03-28T15:32:34.689Z</time></trkpt><trkpt lat="45.5772487" lon="10.5248141"><ele>139.6</ele><time>2026-03-28T15:32:35.69Z</time></trkpt><trkpt lat="45.5773382" lon="10.5247572"><ele>139.8</ele><time>2026-03-28T15:32:36.689Z</time></trkpt><trkpt lat="45.5774214" lon="10.5247055"><ele>140.0</ele><time>2026-03-28T15:32:37.69Z</time></trkpt><trkpt lat="45.5775001" lon="10.5246561"><ele>140.0</ele><time>2026-03-28T15:32:38.689Z</time></trkpt><trkpt lat="45.5775685" lon="10.5246126"><ele>140.0</ele><time>2026-03-28T15:32:39.689Z</time></trkpt><trkpt lat="45.5776659" lon="10.5245485"><ele>140.0</ele><time>2026-03-28T15:32:41.689Z</time></trkpt><trkpt lat="45.5777247" lon="10.5245095"><ele>140.0</ele><time>2026-03-28T15:32:54.689Z</time></trkpt><trkpt lat="45.5778157" lon="10.5244453"><ele>140.0</ele><time>2026-03-28T15:32:57.69Z</time></trkpt><trkpt lat="45.5778776" lon="10.5244032"><ele>140.0</ele><time>2026-03-28T15:32:58.69Z</time></trkpt><trkpt lat="45.5779655" lon="10.5243442"><ele>139.33333333333331</ele><time>2026-03-28T15:32:59.689Z</time></trkpt><trkpt lat="45.5780822" lon="10.5242674"><ele>138.66666666666666</ele><time>2026-03-28T15:33:00.689Z</time></trkpt><trkpt lat="45.5782207" lon="10.5241768"><ele>138.0</ele><time>2026-03-28T15:33:01.69Z</time></trkpt><trkpt lat="45.5783797" lon="10.5240716"><ele>138.0</ele><time>2026-03-28T15:33:02.689Z</time></trkpt><trkpt lat="45.578553" lon="10.5239571"><ele>138.0</ele><time>2026-03-28T15:33:03.69Z</time></trkpt><trkpt lat="45.5787422" lon="10.5238338"><ele>138.0</ele><time>2026-03-28T15:33:04.69Z</time></trkpt><trkpt lat="45.5789229" lon="10.5237137"><ele>138.33333333333334</ele><time>2026-03-28T15:33:05.69Z</time></trkpt><trkpt lat="45.5791165" lon="10.523583"><ele>138.66666666666669</ele><time>2026-03-28T15:33:06.69Z</time></trkpt><trkpt lat="45.5792879" lon="10.5234695"><ele>139.0</ele><time>2026-03-28T15:33:07.689Z</time></trkpt><trkpt lat="45.5794526" lon="10.5233593"><ele>140.33333333333334</ele><time>2026-03-28T15:33:08.689Z</time></trkpt><trkpt lat="45.5796133" lon="10.5232526"><ele>141.66666666666666</ele><time>2026-03-28T15:33:09.69Z</time></trkpt><trkpt lat="45.5797719" lon="10.5231483"><ele>143.0</ele><time>2026-03-28T15:33:10.69Z</time></trkpt><trkpt lat="45.5799277" lon="10.5230429"><ele>143.0</ele><time>2026-03-28T15:33:11.69Z</time></trkpt><trkpt lat="45.5800838" lon="10.5229391"><ele>143.0</ele><time>2026-03-28T15:33:12.689Z</time></trkpt><trkpt lat="45.580241" lon="10.5228354"><ele>143.0</ele><time>2026-03-28T15:33:13.69Z</time></trkpt><trkpt lat="45.5804028" lon="10.5227295"><ele>142.66666666666666</ele><time>2026-03-28T15:33:14.69Z</time></trkpt><trkpt lat="45.5805672" lon="10.5226213"><ele>142.33333333333334</ele><time>2026-03-28T15:33:15.69Z</time></trkpt><trkpt lat="45.5807289" lon="10.5225138"><ele>142.0</ele><time>2026-03-28T15:33:16.689Z</time></trkpt><trkpt lat="45.5808886" lon="10.5224083"><ele>142.0</ele><time>2026-03-28T15:33:17.689Z</time></trkpt><trkpt lat="45.5810481" lon="10.5222996"><ele>142.0</ele><time>2026-03-28T15:33:18.689Z</time></trkpt><trkpt lat="45.5812076" lon="10.5221953"><ele>142.0</ele><time>2026-03-28T15:33:19.689Z</time></trkpt><trkpt lat="45.5813661" lon="10.5220889"><ele>142.66666666666669</ele><time>2026-03-28T15:33:20.69Z</time></trkpt><trkpt lat="45.5815127" lon="10.5219876"><ele>143.33333333333334</ele><time>2026-03-28T15:33:21.689Z</time></trkpt><trkpt lat="45.5816814" lon="10.521867"><ele>144.0</ele><time>2026-03-28T15:33:22.69Z</time></trkpt><trkpt lat="45.5818411" lon="10.5217405"><ele>144.0</ele><time>2026-03-28T15:33:23.69Z</time></trkpt><trkpt lat="45.5819944" lon="10.5216098"><ele>144.0</ele><time>2026-03-28T15:33:24.69Z</time></trkpt><trkpt lat="45.5821389" lon="10.5214743"><ele>144.0</ele><time>2026-03-28T15:33:25.689Z</time></trkpt><trkpt lat="45.5822801" lon="10.5213324"><ele>144.33333333333334</ele><time>2026-03-28T15:33:26.69Z</time></trkpt><trkpt lat="45.5824185" lon="10.5211804"><ele>144.66666666666669</ele><time>2026-03-28T15:33:27.689Z</time></trkpt><trkpt lat="45.5825575" lon="10.5210208"><ele>145.0</ele><time>2026-03-28T15:33:28.689Z</time></trkpt><trkpt lat="45.5826972" lon="10.5208555"><ele>145.0</ele><time>2026-03-28T15:33:29.69Z</time></trkpt><trkpt lat="45.5828375" lon="10.52069"><ele>145.0</ele><time>2026-03-28T15:33:30.689Z</time></trkpt><trkpt lat="45.5829823" lon="10.5205376"><ele>145.0</ele><time>2026-03-28T15:33:31.689Z</time></trkpt><trkpt lat="45.5831258" lon="10.5203857"><ele>145.33333333333334</ele><time>2026-03-28T15:33:32.689Z</time></trkpt><trkpt lat="45.5832716" lon="10.5202404"><ele>145.66666666666666</ele><time>2026-03-28T15:33:33.689Z</time></trkpt><trkpt lat="45.5834233" lon="10.5201004"><ele>146.0</ele><time>2026-03-28T15:33:34.689Z</time></trkpt><trkpt lat="45.5835794" lon="10.5199643"><ele>146.33333333333331</ele><time>2026-03-28T15:33:35.69Z</time></trkpt><trkpt lat="45.5837382" lon="10.5198326"><ele>146.66666666666666</ele><time>2026-03-28T15:33:36.689Z</time></trkpt><trkpt lat="45.5838865" lon="10.5197087"><ele>147.0</ele><time>2026-03-28T15:33:37.69Z</time></trkpt><trkpt lat="45.5840555" lon="10.5195679"><ele>148.0</ele><time>2026-03-28T15:33:38.689Z</time></trkpt><trkpt lat="45.5842145" lon="10.5194359"><ele>149.0</ele><time>2026-03-28T15:33:39.69Z</time></trkpt><trkpt lat="45.5843695" lon="10.5193054"><ele>150.0</ele><time>2026-03-28T15:33:40.689Z</time></trkpt><trkpt lat="45.5845153" lon="10.5191834"><ele>150.0</ele><time>2026-03-28T15:33:41.689Z</time></trkpt><trkpt lat="45.5846514" lon="10.5190706"><ele>150.0</ele><time>2026-03-28T15:33:42.69Z</time></trkpt><trkpt lat="45.5847748" lon="10.5189655"><ele>150.0</ele><time>2026-03-28T15:33:43.689Z</time></trkpt><trkpt lat="45.5848845" lon="10.5188704"><ele>150.0</ele><time>2026-03-28T15:33:44.689Z</time></trkpt><trkpt lat="45.5849914" lon="10.5187828"><ele>151.0</ele><time>2026-03-28T15:33:45.689Z</time></trkpt><trkpt lat="45.5850998" lon="10.5186921"><ele>152.0</ele><time>2026-03-28T15:33:46.689Z</time></trkpt><trkpt lat="45.5852007" lon="10.5186046"><ele>153.0</ele><time>2026-03-28T15:33:47.69Z</time></trkpt><trkpt lat="45.5852928" lon="10.5185248"><ele>154.0</ele><time>2026-03-28T15:33:48.689Z</time></trkpt><trkpt lat="45.5853814" lon="10.518456"><ele>154.0</ele><time>2026-03-28T15:33:49.689Z</time></trkpt><trkpt lat="45.5854655" lon="10.5183845"><ele>154.0</ele><time>2026-03-28T15:33:50.69Z</time></trkpt><trkpt lat="45.5855508" lon="10.5183115"><ele>154.0</ele><time>2026-03-28T15:33:51.69Z</time></trkpt><trkpt lat="45.5856365" lon="10.5182399"><ele>154.0</ele><time>2026-03-28T15:33:52.689Z</time></trkpt><trkpt lat="45.5857113" lon="10.5181781"><ele>154.0</ele><time>2026-03-28T15:33:53.69Z</time></trkpt><trkpt lat="45.5857918" lon="10.5181128"><ele>154.0</ele><time>2026-03-28T15:33:54.69Z</time></trkpt><trkpt lat="45.5858637" lon="10.5180539"><ele>154.0</ele><time>2026-03-28T15:33:55.69Z</time></trkpt><trkpt lat="45.5859307" lon="10.5179988"><ele>154.0</ele><time>2026-03-28T15:33:56.69Z</time></trkpt><trkpt lat="45.585993" lon="10.5179476"><ele>154.0</ele><time>2026-03-28T15:33:57.69Z</time></trkpt><trkpt lat="45.5860959" lon="10.5178637"><ele>154.0</ele><time>2026-03-28T15:33:59.69Z</time></trkpt><trkpt lat="45.5861812" lon="10.5177913"><ele>154.6</ele><time>2026-03-28T15:34:01.689Z</time></trkpt><trkpt lat="45.5862542" lon="10.517729"><ele>155.2</ele><time>2026-03-28T15:34:03.69Z</time></trkpt><trkpt lat="45.5863325" lon="10.517666"><ele>155.79999999999998</ele><time>2026-03-28T15:34:05.69Z</time></trkpt><trkpt lat="45.5864169" lon="10.5175967"><ele>156.4</ele><time>2026-03-28T15:34:07.69Z</time></trkpt><trkpt lat="45.5865011" lon="10.5175381"><ele>157.0</ele><time>2026-03-28T15:34:09.69Z</time></trkpt><trkpt lat="45.5865897" lon="10.5175156"><ele>157.0</ele><time>2026-03-28T15:34:11.689Z</time></trkpt><trkpt lat="45.5866776" lon="10.5175498"><ele>157.0</ele><time>2026-03-28T15:34:13.69Z</time></trkpt><trkpt lat="45.5867832" lon="10.5176028"><ele>157.0</ele><time>2026-03-28T15:34:15.689Z</time></trkpt><trkpt lat="45.5868903" lon="10.5175747"><ele>157.0</ele><time>2026-03-28T15:34:17.689Z</time></trkpt><trkpt lat="45.58695" lon="10.5174592"><ele>157.0</ele><time>2026-03-28T15:34:19.69Z</time></trkpt><trkpt lat="45.5869697" lon="10.5172952"><ele>157.0</ele><time>2026-03-28T15:34:21.69Z</time></trkpt><trkpt lat="45.5869928" lon="10.5171884"><ele>157.0</ele><time>2026-03-28T15:34:22.69Z</time></trkpt><trkpt lat="45.587034" lon="10.5170718"><ele>157.0</ele><time>2026-03-28T15:34:23.689Z</time></trkpt><trkpt lat="45.5870964" lon="10.5169532"><ele>157.0</ele><time>2026-03-28T15:34:24.69Z</time></trkpt><trkpt lat="45.5871693" lon="10.5168431"><ele>157.0</ele><time>2026-03-28T15:34:25.69Z</time></trkpt><trkpt lat="45.5872679" lon="10.5167194"><ele>156.75</ele><time>2026-03-28T15:34:26.689Z</time></trkpt><trkpt lat="45.5873743" lon="10.5166028"><ele>156.5</ele><time>2026-03-28T15:34:27.69Z</time></trkpt><trkpt lat="45.5874881" lon="10.5164772"><ele>156.25</ele><time>2026-03-28T15:34:28.69Z</time></trkpt><trkpt lat="45.5876069" lon="10.5163438"><ele>156.0</ele><time>2026-03-28T15:34:29.689Z</time></trkpt><trkpt lat="45.5877292" lon="10.5162071"><ele>157.0</ele><time>2026-03-28T15:34:30.689Z</time></trkpt><trkpt lat="45.5878546" lon="10.5160689"><ele>158.0</ele><time>2026-03-28T15:34:31.689Z</time></trkpt><trkpt lat="45.5879792" lon="10.51593"><ele>159.0</ele><time>2026-03-28T15:34:32.69Z</time></trkpt><trkpt lat="45.5880995" lon="10.5157887"><ele>159.0</ele><time>2026-03-28T15:34:33.689Z</time></trkpt><trkpt lat="45.5882198" lon="10.5156535"><ele>159.0</ele><time>2026-03-28T15:34:34.69Z</time></trkpt><trkpt lat="45.588337" lon="10.5155202"><ele>159.0</ele><time>2026-03-28T15:34:35.689Z</time></trkpt><trkpt lat="45.5884558" lon="10.5153871"><ele>158.0</ele><time>2026-03-28T15:34:36.689Z</time></trkpt><trkpt lat="45.5885741" lon="10.5152526"><ele>157.0</ele><time>2026-03-28T15:34:37.689Z</time></trkpt><trkpt lat="45.5886928" lon="10.5151161"><ele>156.0</ele><time>2026-03-28T15:34:38.689Z</time></trkpt><trkpt lat="45.5888161" lon="10.5149796"><ele>156.33333333333334</ele><time>2026-03-28T15:34:39.689Z</time></trkpt><trkpt lat="45.5889392" lon="10.5148411"><ele>156.66666666666669</ele><time>2026-03-28T15:34:40.69Z</time></trkpt><trkpt lat="45.5890558" lon="10.5147115"><ele>157.0</ele><time>2026-03-28T15:34:41.689Z</time></trkpt><trkpt lat="45.5891897" lon="10.5145613"><ele>157.0</ele><time>2026-03-28T15:34:42.689Z</time></trkpt><trkpt lat="45.5893111" lon="10.514406"><ele>157.0</ele><time>2026-03-28T15:34:43.689Z</time></trkpt><trkpt lat="45.5894393" lon="10.5142693"><ele>157.0</ele><time>2026-03-28T15:34:44.69Z</time></trkpt><trkpt lat="45.5895674" lon="10.5141269"><ele>157.0</ele><time>2026-03-28T15:34:45.689Z</time></trkpt><trkpt lat="45.5896968" lon="10.5139836"><ele>157.0</ele><time>2026-03-28T15:34:46.689Z</time></trkpt><trkpt lat="45.5898258" lon="10.5138413"><ele>157.0</ele><time>2026-03-28T15:34:47.69Z</time></trkpt><trkpt lat="45.5899551" lon="10.513699"><ele>157.0</ele><time>2026-03-28T15:34:48.689Z</time></trkpt><trkpt lat="45.5900825" lon="10.5135576"><ele>157.0</ele><time>2026-03-28T15:34:49.69Z</time></trkpt><trkpt lat="45.5902079" lon="10.5134243"><ele>157.0</ele><time>2026-03-28T15:34:50.69Z</time></trkpt><trkpt lat="45.5903151" lon="10.5132713"><ele>157.75</ele><time>2026-03-28T15:34:51.69Z</time></trkpt><trkpt lat="45.5904123" lon="10.5131223"><ele>158.5</ele><time>2026-03-28T15:34:52.69Z</time></trkpt><trkpt lat="45.5904976" lon="10.5129676"><ele>159.25</ele><time>2026-03-28T15:34:53.69Z</time></trkpt><trkpt lat="45.5905737" lon="10.5128082"><ele>160.0</ele><time>2026-03-28T15:34:54.689Z</time></trkpt><trkpt lat="45.590641" lon="10.512643"><ele>160.0</ele><time>2026-03-28T15:34:55.689Z</time></trkpt><trkpt lat="45.5906993" lon="10.5124724"><ele>160.0</ele><time>2026-03-28T15:34:56.69Z</time></trkpt><trkpt lat="45.5907453" lon="10.5123092"><ele>160.0</ele><time>2026-03-28T15:34:57.689Z</time></trkpt><trkpt lat="45.5907896" lon="10.512121"><ele>160.0</ele><time>2026-03-28T15:34:58.69Z</time></trkpt><trkpt lat="45.5908236" lon="10.511953"><ele>160.0</ele><time>2026-03-28T15:34:59.689Z</time></trkpt><trkpt lat="45.5908538" lon="10.5117908"><ele>160.0</ele><time>2026-03-28T15:35:00.689Z</time></trkpt><trkpt lat="45.5908904" lon="10.5116267"><ele>160.0</ele><time>2026-03-28T15:35:01.69Z</time></trkpt><trkpt lat="45.5909239" lon="10.5114602"><ele>160.0</ele><time>2026-03-28T15:35:02.689Z</time></trkpt><trkpt lat="45.5909597" lon="10.5112898"><ele>159.75</ele><time>2026-03-28T15:35:03.689Z</time></trkpt><trkpt lat="45.5909954" lon="10.5111182"><ele>159.5</ele><time>2026-03-28T15:35:04.689Z</time></trkpt><trkpt lat="45.5910317" lon="10.5109541"><ele>159.25</ele><time>2026-03-28T15:35:05.69Z</time></trkpt><trkpt lat="45.5910654" lon="10.5108016"><ele>159.0</ele><time>2026-03-28T15:35:06.689Z</time></trkpt><trkpt lat="45.5910972" lon="10.5106582"><ele>159.0</ele><time>2026-03-28T15:35:07.689Z</time></trkpt><trkpt lat="45.5911271" lon="10.5105203"><ele>159.0</ele><time>2026-03-28T15:35:08.689Z</time></trkpt><trkpt lat="45.5911564" lon="10.5103898"><ele>159.0</ele><time>2026-03-28T15:35:09.689Z</time></trkpt><trkpt lat="45.5911818" lon="10.5102726"><ele>159.0</ele><time>2026-03-28T15:35:10.689Z</time></trkpt><trkpt lat="45.5912034" lon="10.5101746"><ele>159.0</ele><time>2026-03-28T15:35:11.689Z</time></trkpt><trkpt lat="45.5912334" lon="10.5100319"><ele>160.0</ele><time>2026-03-28T15:35:13.689Z</time></trkpt><trkpt lat="45.591262" lon="10.5099032"><ele>161.0</ele><time>2026-03-28T15:35:15.69Z</time></trkpt><trkpt lat="45.5912881" lon="10.5097912"><ele>162.0</ele><time>2026-03-28T15:35:17.689Z</time></trkpt><trkpt lat="45.5913122" lon="10.5096915"><ele>163.0</ele><time>2026-03-28T15:35:19.69Z</time></trkpt><trkpt lat="45.5913379" lon="10.5095798"><ele>164.0</ele><time>2026-03-28T15:35:21.689Z</time></trkpt><trkpt lat="45.5913558" lon="10.5094927"><ele>165.0</ele><time>2026-03-28T15:35:23.689Z</time></trkpt><trkpt lat="45.5913829" lon="10.5093855"><ele>165.0</ele><time>2026-03-28T15:35:27.689Z</time></trkpt><trkpt lat="45.5914078" lon="10.509277"><ele>165.0</ele><time>2026-03-28T15:35:49.689Z</time></trkpt><trkpt lat="45.591426" lon="10.5091873"><ele>165.0</ele><time>2026-03-28T15:35:51.69Z</time></trkpt><trkpt lat="45.5914521" lon="10.5090697"><ele>165.0</ele><time>2026-03-28T15:35:53.69Z</time></trkpt><trkpt lat="45.5914826" lon="10.5089343"><ele>165.0</ele><time>2026-03-28T15:35:55.69Z</time></trkpt><trkpt lat="45.5915213" lon="10.5087708"><ele>164.85714285714286</ele><time>2026-03-28T15:35:57.69Z</time></trkpt><trkpt lat="45.5915444" lon="10.5086785"><ele>164.71428571428572</ele><time>2026-03-28T15:35:58.689Z</time></trkpt><trkpt lat="45.5915669" lon="10.5085834"><ele>164.57142857142856</ele><time>2026-03-28T15:35:59.689Z</time></trkpt><trkpt lat="45.5915907" lon="10.5084846"><ele>164.42857142857144</ele><time>2026-03-28T15:36:00.689Z</time></trkpt><trkpt lat="45.5916134" lon="10.5083935"><ele>164.28571428571428</ele><time>2026-03-28T15:36:01.69Z</time></trkpt><trkpt lat="45.5916389" lon="10.5082896"><ele>164.14285714285714</ele><time>2026-03-28T15:36:02.689Z</time></trkpt><trkpt lat="45.5916635" lon="10.5081874"><ele>164.0</ele><time>2026-03-28T15:36:03.689Z</time></trkpt><trkpt lat="45.5916905" lon="10.5080788"><ele>164.0</ele><time>2026-03-28T15:36:04.689Z</time></trkpt><trkpt lat="45.5917207" lon="10.5079649"><ele>164.0</ele><time>2026-03-28T15:36:05.689Z</time></trkpt><trkpt lat="45.5917554" lon="10.507848"><ele>164.0</ele><time>2026-03-28T15:36:06.689Z</time></trkpt><trkpt lat="45.5917967" lon="10.5077231"><ele>164.0</ele><time>2026-03-28T15:36:07.689Z</time></trkpt><trkpt lat="45.5918387" lon="10.5075838"><ele>164.0</ele><time>2026-03-28T15:36:08.689Z</time></trkpt><trkpt lat="45.5918841" lon="10.5074346"><ele>163.5</ele><time>2026-03-28T15:36:09.69Z</time></trkpt><trkpt lat="45.5919364" lon="10.5072862"><ele>163.0</ele><time>2026-03-28T15:36:10.69Z</time></trkpt><trkpt lat="45.5919925" lon="10.5071399"><ele>162.5</ele><time>2026-03-28T15:36:11.689Z</time></trkpt><trkpt lat="45.5920614" lon="10.5070117"><ele>162.0</ele><time>2026-03-28T15:36:12.69Z</time></trkpt><trkpt lat="45.5921297" lon="10.506886"><ele>162.0</ele><time>2026-03-28T15:36:13.69Z</time></trkpt><trkpt lat="45.5921832" lon="10.5067504"><ele>162.0</ele><time>2026-03-28T15:36:14.69Z</time></trkpt><trkpt lat="45.5922274" lon="10.5066153"><ele>162.0</ele><time>2026-03-28T15:36:15.689Z</time></trkpt><trkpt lat="45.5922872" lon="10.5064898"><ele>162.0</ele><time>2026-03-28T15:36:16.689Z</time></trkpt><trkpt lat="45.592346" lon="10.5063672"><ele>162.0</ele><time>2026-03-28T15:36:17.689Z</time></trkpt><trkpt lat="45.5924189" lon="10.5062197"><ele>162.5</ele><time>2026-03-28T15:36:18.69Z</time></trkpt><trkpt lat="45.5924919" lon="10.5060766"><ele>163.0</ele><time>2026-03-28T15:36:19.689Z</time></trkpt><trkpt lat="45.5925667" lon="10.5059291"><ele>163.5</ele><time>2026-03-28T15:36:20.689Z</time></trkpt><trkpt lat="45.5926444" lon="10.5057727"><ele>164.0</ele><time>2026-03-28T15:36:21.69Z</time></trkpt><trkpt lat="45.5927269" lon="10.5056102"><ele>164.0</ele><time>2026-03-28T15:36:22.689Z</time></trkpt><trkpt lat="45.5928006" lon="10.5054701"><ele>164.0</ele><time>2026-03-28T15:36:23.69Z</time></trkpt><trkpt lat="45.5928767" lon="10.5053295"><ele>164.0</ele><time>2026-03-28T15:36:24.69Z</time></trkpt><trkpt lat="45.5929573" lon="10.5051938"><ele>164.0</ele><time>2026-03-28T15:36:25.69Z</time></trkpt><trkpt lat="45.5930413" lon="10.5050651"><ele>164.75</ele><time>2026-03-28T15:36:26.689Z</time></trkpt><trkpt lat="45.5931351" lon="10.5049393"><ele>165.5</ele><time>2026-03-28T15:36:27.689Z</time></trkpt><trkpt lat="45.5932331" lon="10.5048181"><ele>166.25</ele><time>2026-03-28T15:36:28.69Z</time></trkpt><trkpt lat="45.5933422" lon="10.5047001"><ele>167.0</ele><time>2026-03-28T15:36:29.69Z</time></trkpt><trkpt lat="45.5934669" lon="10.5045824"><ele>167.25</ele><time>2026-03-28T15:36:30.689Z</time></trkpt><trkpt lat="45.5935878" lon="10.5044849"><ele>167.5</ele><time>2026-03-28T15:36:31.689Z</time></trkpt><trkpt lat="45.5937166" lon="10.5043956"><ele>167.75</ele><time>2026-03-28T15:36:32.69Z</time></trkpt><trkpt lat="45.593838" lon="10.5043248"><ele>168.0</ele><time>2026-03-28T15:36:33.69Z</time></trkpt><trkpt lat="45.5939729" lon="10.5042675"><ele>168.0</ele><time>2026-03-28T15:36:34.689Z</time></trkpt><trkpt lat="45.5941068" lon="10.5042134"><ele>168.0</ele><time>2026-03-28T15:36:35.69Z</time></trkpt><trkpt lat="45.5942465" lon="10.5041698"><ele>168.0</ele><time>2026-03-28T15:36:36.69Z</time></trkpt><trkpt lat="45.5943969" lon="10.5041364"><ele>168.0</ele><time>2026-03-28T15:36:37.689Z</time></trkpt><trkpt lat="45.5945549" lon="10.5041192"><ele>168.33333333333334</ele><time>2026-03-28T15:36:38.689Z</time></trkpt><trkpt lat="45.5947194" lon="10.5041131"><ele>168.66666666666669</ele><time>2026-03-28T15:36:39.69Z</time></trkpt><trkpt lat="45.594889" lon="10.5041092"><ele>169.0</ele><time>2026-03-28T15:36:40.689Z</time></trkpt><trkpt lat="45.5950529" lon="10.5041086"><ele>169.0</ele><time>2026-03-28T15:36:41.69Z</time></trkpt><trkpt lat="45.5952087" lon="10.5041087"><ele>169.0</ele><time>2026-03-28T15:36:42.69Z</time></trkpt><trkpt lat="45.5953585" lon="10.5041076"><ele>169.0</ele><time>2026-03-28T15:36:43.689Z</time></trkpt><trkpt lat="45.5955085" lon="10.5041068"><ele>170.33333333333334</ele><time>2026-03-28T15:36:44.69Z</time></trkpt><trkpt lat="45.5956624" lon="10.5041059"><ele>171.66666666666666</ele><time>2026-03-28T15:36:45.69Z</time></trkpt><trkpt lat="45.5958191" lon="10.5041046"><ele>173.0</ele><time>2026-03-28T15:36:46.69Z</time></trkpt><trkpt lat="45.5959778" lon="10.504106"><ele>173.0</ele><time>2026-03-28T15:36:47.69Z</time></trkpt><trkpt lat="45.5961377" lon="10.5041033"><ele>173.0</ele><time>2026-03-28T15:36:48.689Z</time></trkpt><trkpt lat="45.5962851" lon="10.5041038"><ele>173.0</ele><time>2026-03-28T15:36:49.69Z</time></trkpt><trkpt lat="45.5964485" lon="10.5041046"><ele>172.5</ele><time>2026-03-28T15:36:50.689Z</time></trkpt><trkpt lat="45.5965958" lon="10.5041047"><ele>172.0</ele><time>2026-03-28T15:36:51.689Z</time></trkpt><trkpt lat="45.5967379" lon="10.5041033"><ele>171.5</ele><time>2026-03-28T15:36:52.69Z</time></trkpt><trkpt lat="45.5968792" lon="10.5041013"><ele>171.0</ele><time>2026-03-28T15:36:53.69Z</time></trkpt><trkpt lat="45.5970233" lon="10.5040986"><ele>171.0</ele><time>2026-03-28T15:36:54.689Z</time></trkpt><trkpt lat="45.5971713" lon="10.5040967"><ele>171.0</ele><time>2026-03-28T15:36:55.69Z</time></trkpt><trkpt lat="45.5973232" lon="10.5040952"><ele>171.0</ele><time>2026-03-28T15:36:56.69Z</time></trkpt><trkpt lat="45.5974795" lon="10.5040913"><ele>171.0</ele><time>2026-03-28T15:36:57.689Z</time></trkpt><trkpt lat="45.5976387" lon="10.5040823"><ele>171.0</ele><time>2026-03-28T15:36:58.69Z</time></trkpt><trkpt lat="45.5978003" lon="10.5040594"><ele>171.0</ele><time>2026-03-28T15:36:59.69Z</time></trkpt><trkpt lat="45.5979608" lon="10.5040246"><ele>172.66666666666666</ele><time>2026-03-28T15:37:00.69Z</time></trkpt><trkpt lat="45.5981236" lon="10.5039746"><ele>174.33333333333331</ele><time>2026-03-28T15:37:01.69Z</time></trkpt><trkpt lat="45.5982859" lon="10.5039104"><ele>176.0</ele><time>2026-03-28T15:37:02.69Z</time></trkpt><trkpt lat="45.5984377" lon="10.5038356"><ele>176.0</ele><time>2026-03-28T15:37:03.69Z</time></trkpt><trkpt lat="45.5985783" lon="10.5037589"><ele>176.0</ele><time>2026-03-28T15:37:04.689Z</time></trkpt><trkpt lat="45.5986992" lon="10.5036789"><ele>176.0</ele><time>2026-03-28T15:37:05.69Z</time></trkpt><trkpt lat="45.5988316" lon="10.5035788"><ele>176.0</ele><time>2026-03-28T15:37:06.69Z</time></trkpt><trkpt lat="45.5989536" lon="10.5034699"><ele>176.5</ele><time>2026-03-28T15:37:07.689Z</time></trkpt><trkpt lat="45.5990736" lon="10.5033524"><ele>177.0</ele><time>2026-03-28T15:37:08.689Z</time></trkpt><trkpt lat="45.5991893" lon="10.5032281"><ele>177.5</ele><time>2026-03-28T15:37:09.689Z</time></trkpt><trkpt lat="45.5992997" lon="10.5031049"><ele>178.0</ele><time>2026-03-28T15:37:10.689Z</time></trkpt><trkpt lat="45.5994138" lon="10.502988"><ele>179.0</ele><time>2026-03-28T15:37:11.689Z</time></trkpt><trkpt lat="45.5995304" lon="10.5028831"><ele>180.0</ele><time>2026-03-28T15:37:12.69Z</time></trkpt><trkpt lat="45.5996462" lon="10.5027945"><ele>181.0</ele><time>2026-03-28T15:37:13.69Z</time></trkpt><trkpt lat="45.5997629" lon="10.5027264"><ele>182.0</ele><time>2026-03-28T15:37:14.69Z</time></trkpt><trkpt lat="45.599893" lon="10.5026813"><ele>182.0</ele><time>2026-03-28T15:37:15.69Z</time></trkpt><trkpt lat="45.6000299" lon="10.5026592"><ele>182.0</ele><time>2026-03-28T15:37:16.69Z</time></trkpt><trkpt lat="45.6001677" lon="10.502663"><ele>182.0</ele><time>2026-03-28T15:37:17.689Z</time></trkpt><trkpt lat="45.6003055" lon="10.5026891"><ele>182.0</ele><time>2026-03-28T15:37:18.689Z</time></trkpt><trkpt lat="45.6004463" lon="10.502738"><ele>181.75</ele><time>2026-03-28T15:37:19.689Z</time></trkpt><trkpt lat="45.600586" lon="10.5027699"><ele>181.5</ele><time>2026-03-28T15:37:20.689Z</time></trkpt><trkpt lat="45.6007099" lon="10.5027869"><ele>181.25</ele><time>2026-03-28T15:37:21.689Z</time></trkpt><trkpt lat="45.6008445" lon="10.5027873"><ele>181.0</ele><time>2026-03-28T15:37:22.69Z</time></trkpt><trkpt lat="45.6009652" lon="10.5027672"><ele>181.0</ele><time>2026-03-28T15:37:23.689Z</time></trkpt><trkpt lat="45.6010849" lon="10.5027264"><ele>181.0</ele><time>2026-03-28T15:37:24.69Z</time></trkpt><trkpt lat="45.6012061" lon="10.5026596"><ele>181.0</ele><time>2026-03-28T15:37:25.689Z</time></trkpt><trkpt lat="45.6013271" lon="10.5025657"><ele>181.0</ele><time>2026-03-28T15:37:26.69Z</time></trkpt><trkpt lat="45.6014495" lon="10.5024504"><ele>180.33333333333334</ele><time>2026-03-28T15:37:27.689Z</time></trkpt><trkpt lat="45.6015748" lon="10.5023159"><ele>179.66666666666666</ele><time>2026-03-28T15:37:28.69Z</time></trkpt><trkpt lat="45.6017051" lon="10.502169"><ele>179.0</ele><time>2026-03-28T15:37:29.69Z</time></trkpt><trkpt lat="45.6018412" lon="10.5020108"><ele>177.66666666666666</ele><time>2026-03-28T15:37:30.69Z</time></trkpt><trkpt lat="45.6019877" lon="10.501841"><ele>176.33333333333334</ele><time>2026-03-28T15:37:31.689Z</time></trkpt><trkpt lat="45.602146" lon="10.5016562"><ele>175.0</ele><time>2026-03-28T15:37:32.689Z</time></trkpt><trkpt lat="45.6023139" lon="10.5014548"><ele>180.5</ele><time>2026-03-28T15:37:33.689Z</time></trkpt><trkpt lat="45.6024945" lon="10.5012463"><ele>186.0</ele><time>2026-03-28T15:37:34.689Z</time></trkpt><trkpt lat="45.6026795" lon="10.5010298"><ele>183.0</ele><time>2026-03-28T15:37:35.689Z</time></trkpt><trkpt lat="45.6028995" lon="10.5008015"><ele>180.0</ele><time>2026-03-28T15:37:36.711Z</time></trkpt><trkpt lat="45.6030859" lon="10.5006068"><ele>180.0</ele><time>2026-03-28T15:37:37.711Z</time></trkpt><trkpt lat="45.6032582" lon="10.5004353"><ele>180.0</ele><time>2026-03-28T15:37:38.711Z</time></trkpt><trkpt lat="45.6034102" lon="10.5002889"><ele>180.0</ele><time>2026-03-28T15:37:39.711Z</time></trkpt><trkpt lat="45.6035522" lon="10.5001725"><ele>181.66666666666666</ele><time>2026-03-28T15:37:40.712Z</time></trkpt><trkpt lat="45.6037007" lon="10.5000963"><ele>183.33333333333331</ele><time>2026-03-28T15:37:41.711Z</time></trkpt><trkpt lat="45.6038622" lon="10.5000574"><ele>185.0</ele><time>2026-03-28T15:37:42.712Z</time></trkpt><trkpt lat="45.6040389" lon="10.5000444"><ele>185.0</ele><time>2026-03-28T15:37:43.711Z</time></trkpt><trkpt lat="45.6041673" lon="10.5000671"><ele>185.0</ele><time>2026-03-28T15:37:44.691Z</time></trkpt><trkpt lat="45.6043663" lon="10.5000775"><ele>185.0</ele><time>2026-03-28T15:37:45.694Z</time></trkpt><trkpt lat="45.604554" lon="10.5000897"><ele>184.66666666666666</ele><time>2026-03-28T15:37:46.692Z</time></trkpt><trkpt lat="45.6047328" lon="10.5000888"><ele>184.33333333333334</ele><time>2026-03-28T15:37:47.689Z</time></trkpt><trkpt lat="45.6049009" lon="10.5000524"><ele>184.0</ele><time>2026-03-28T15:37:48.69Z</time></trkpt><trkpt lat="45.6050623" lon="10.4999782"><ele>184.0</ele><time>2026-03-28T15:37:49.693Z</time></trkpt><trkpt lat="45.6052125" lon="10.499862"><ele>184.0</ele><time>2026-03-28T15:37:50.694Z</time></trkpt><trkpt lat="45.6053464" lon="10.4997053"><ele>184.0</ele><time>2026-03-28T15:37:51.693Z</time></trkpt><trkpt lat="45.6054609" lon="10.4995109"><ele>183.66666666666669</ele><time>2026-03-28T15:37:52.694Z</time></trkpt><trkpt lat="45.6055517" lon="10.4992996"><ele>183.33333333333334</ele><time>2026-03-28T15:37:53.693Z</time></trkpt><trkpt lat="45.6056473" lon="10.4990356"><ele>183.0</ele><time>2026-03-28T15:37:54.693Z</time></trkpt><trkpt lat="45.6057339" lon="10.4987715"><ele>187.0</ele><time>2026-03-28T15:37:55.694Z</time></trkpt><trkpt lat="45.6058254" lon="10.4984979"><ele>191.0</ele><time>2026-03-28T15:37:56.694Z</time></trkpt><trkpt lat="45.6059166" lon="10.4982239"><ele>195.0</ele><time>2026-03-28T15:37:57.694Z</time></trkpt><trkpt lat="45.6060094" lon="10.4979488"><ele>195.33333333333331</ele><time>2026-03-28T15:37:58.694Z</time></trkpt><trkpt lat="45.6060999" lon="10.4976662"><ele>195.66666666666666</ele><time>2026-03-28T15:37:59.694Z</time></trkpt><trkpt lat="45.6061933" lon="10.4973848"><ele>196.0</ele><time>2026-03-28T15:38:00.693Z</time></trkpt><trkpt lat="45.6062854" lon="10.4971128"><ele>194.0</ele><time>2026-03-28T15:38:01.693Z</time></trkpt><trkpt lat="45.6063718" lon="10.4968523"><ele>192.0</ele><time>2026-03-28T15:38:02.693Z</time></trkpt><trkpt lat="45.6064553" lon="10.4965997"><ele>190.0</ele><time>2026-03-28T15:38:03.693Z</time></trkpt><trkpt lat="45.6065312" lon="10.496347"><ele>192.66666666666669</ele><time>2026-03-28T15:38:04.694Z</time></trkpt><trkpt lat="45.6065925" lon="10.4960882"><ele>195.33333333333334</ele><time>2026-03-28T15:38:05.694Z</time></trkpt><trkpt lat="45.6066368" lon="10.4958214"><ele>198.0</ele><time>2026-03-28T15:38:06.694Z</time></trkpt><trkpt lat="45.606664" lon="10.4955438"><ele>198.33333333333331</ele><time>2026-03-28T15:38:07.693Z</time></trkpt><trkpt lat="45.6066757" lon="10.4952594"><ele>198.66666666666666</ele><time>2026-03-28T15:38:08.694Z</time></trkpt><trkpt lat="45.6066774" lon="10.494994"><ele>199.0</ele><time>2026-03-28T15:38:09.693Z</time></trkpt><trkpt lat="45.6066707" lon="10.4946923"><ele>199.33333333333331</ele><time>2026-03-28T15:38:10.693Z</time></trkpt><trkpt lat="45.6066545" lon="10.4944108"><ele>199.66666666666669</ele><time>2026-03-28T15:38:11.694Z</time></trkpt><trkpt lat="45.6066279" lon="10.4941331"><ele>200.0</ele><time>2026-03-28T15:38:12.693Z</time></trkpt><trkpt lat="45.6065913" lon="10.4938574"><ele>198.66666666666669</ele><time>2026-03-28T15:38:13.693Z</time></trkpt><trkpt lat="45.6065452" lon="10.4935812"><ele>197.33333333333331</ele><time>2026-03-28T15:38:14.693Z</time></trkpt><trkpt lat="45.606492" lon="10.4933068"><ele>196.0</ele><time>2026-03-28T15:38:15.693Z</time></trkpt><trkpt lat="45.6064357" lon="10.4930314"><ele>194.66666666666666</ele><time>2026-03-28T15:38:16.694Z</time></trkpt><trkpt lat="45.6063754" lon="10.4927556"><ele>193.33333333333331</ele><time>2026-03-28T15:38:17.694Z</time></trkpt><trkpt lat="45.6063164" lon="10.4924759"><ele>192.0</ele><time>2026-03-28T15:38:18.694Z</time></trkpt><trkpt lat="45.6062573" lon="10.4921949"><ele>191.0</ele><time>2026-03-28T15:38:19.693Z</time></trkpt><trkpt lat="45.6061974" lon="10.4919113"><ele>190.0</ele><time>2026-03-28T15:38:20.693Z</time></trkpt><trkpt lat="45.6061403" lon="10.4916247"><ele>189.0</ele><time>2026-03-28T15:38:21.694Z</time></trkpt><trkpt lat="45.6060809" lon="10.491338"><ele>197.0</ele><time>2026-03-28T15:38:22.694Z</time></trkpt><trkpt lat="45.6060201" lon="10.4910507"><ele>205.0</ele><time>2026-03-28T15:38:23.694Z</time></trkpt><trkpt lat="45.6059601" lon="10.4907615"><ele>213.0</ele><time>2026-03-28T15:38:24.693Z</time></trkpt><trkpt lat="45.6059042" lon="10.4904898"><ele>211.0</ele><time>2026-03-28T15:38:25.693Z</time></trkpt><trkpt lat="45.6058403" lon="10.4901822"><ele>209.0</ele><time>2026-03-28T15:38:26.694Z</time></trkpt><trkpt lat="45.6057787" lon="10.4898939"><ele>207.0</ele><time>2026-03-28T15:38:27.693Z</time></trkpt><trkpt lat="45.6057182" lon="10.489606"><ele>206.0</ele><time>2026-03-28T15:38:28.693Z</time></trkpt><trkpt lat="45.6056633" lon="10.4893269"><ele>205.0</ele><time>2026-03-28T15:38:29.693Z</time></trkpt><trkpt lat="45.6056196" lon="10.4890565"><ele>204.0</ele><time>2026-03-28T15:38:30.693Z</time></trkpt><trkpt lat="45.605589" lon="10.4887911"><ele>203.33333333333331</ele><time>2026-03-28T15:38:31.693Z</time></trkpt><trkpt lat="45.6055734" lon="10.4885221"><ele>202.66666666666666</ele><time>2026-03-28T15:38:32.693Z</time></trkpt><trkpt lat="45.6055757" lon="10.4882478"><ele>202.0</ele><time>2026-03-28T15:38:33.693Z</time></trkpt><trkpt lat="45.6055947" lon="10.4879709"><ele>201.66666666666666</ele><time>2026-03-28T15:38:34.693Z</time></trkpt><trkpt lat="45.6056263" lon="10.4876942"><ele>201.33333333333331</ele><time>2026-03-28T15:38:35.694Z</time></trkpt><trkpt lat="45.6056645" lon="10.4874219"><ele>201.0</ele><time>2026-03-28T15:38:36.694Z</time></trkpt><trkpt lat="45.6057098" lon="10.4871558"><ele>203.33333333333331</ele><time>2026-03-28T15:38:37.694Z</time></trkpt><trkpt lat="45.6057706" lon="10.4868942"><ele>205.66666666666666</ele><time>2026-03-28T15:38:38.694Z</time></trkpt><trkpt lat="45.605838" lon="10.4866299"><ele>208.0</ele><time>2026-03-28T15:38:39.694Z</time></trkpt><trkpt lat="45.6059105" lon="10.4863595"><ele>210.66666666666666</ele><time>2026-03-28T15:38:40.693Z</time></trkpt><trkpt lat="45.6059805" lon="10.4861043"><ele>213.33333333333331</ele><time>2026-03-28T15:38:41.693Z</time></trkpt><trkpt lat="45.6060616" lon="10.4858179"><ele>216.0</ele><time>2026-03-28T15:38:42.693Z</time></trkpt><trkpt lat="45.6061364" lon="10.4855474"><ele>209.66666666666669</ele><time>2026-03-28T15:38:43.694Z</time></trkpt><trkpt lat="45.6062096" lon="10.4852721"><ele>203.33333333333334</ele><time>2026-03-28T15:38:44.694Z</time></trkpt><trkpt lat="45.6062796" lon="10.4849942"><ele>197.0</ele><time>2026-03-28T15:38:45.694Z</time></trkpt><trkpt lat="45.6063447" lon="10.4847114"><ele>200.0</ele><time>2026-03-28T15:38:46.693Z</time></trkpt><trkpt lat="45.6064054" lon="10.4844397"><ele>203.0</ele><time>2026-03-28T15:38:47.693Z</time></trkpt><trkpt lat="45.6064606" lon="10.4841957"><ele>206.0</ele><time>2026-03-28T15:38:48.693Z</time></trkpt><trkpt lat="45.6065188" lon="10.4839875"><ele>206.0</ele><time>2026-03-28T15:38:49.694Z</time></trkpt><trkpt lat="45.6065865" lon="10.483819"><ele>206.0</ele><time>2026-03-28T15:38:50.693Z</time></trkpt><trkpt lat="45.6066723" lon="10.4836731"><ele>206.0</ele><time>2026-03-28T15:38:51.693Z</time></trkpt><trkpt lat="45.6067829" lon="10.4835336"><ele>206.0</ele><time>2026-03-28T15:38:52.693Z</time></trkpt><trkpt lat="45.6069145" lon="10.4834036"><ele>208.0</ele><time>2026-03-28T15:38:53.693Z</time></trkpt><trkpt lat="45.6070639" lon="10.48327"><ele>210.0</ele><time>2026-03-28T15:38:54.693Z</time></trkpt><trkpt lat="45.6072221" lon="10.4831305"><ele>212.0</ele><time>2026-03-28T15:38:55.694Z</time></trkpt><trkpt lat="45.6073818" lon="10.4829827"><ele>212.0</ele><time>2026-03-28T15:38:56.694Z</time></trkpt><trkpt lat="45.6075261" lon="10.482848"><ele>212.0</ele><time>2026-03-28T15:38:57.693Z</time></trkpt><trkpt lat="45.6076925" lon="10.4826975"><ele>212.0</ele><time>2026-03-28T15:38:58.694Z</time></trkpt><trkpt lat="45.6078531" lon="10.4825564"><ele>212.0</ele><time>2026-03-28T15:38:59.694Z</time></trkpt><trkpt lat="45.6080152" lon="10.4824158"><ele>212.0</ele><time>2026-03-28T15:39:00.694Z</time></trkpt><trkpt lat="45.6081697" lon="10.4822788"><ele>212.0</ele><time>2026-03-28T15:39:01.693Z</time></trkpt><trkpt lat="45.6083146" lon="10.4821511"><ele>214.75</ele><time>2026-03-28T15:39:02.693Z</time></trkpt><trkpt lat="45.6084511" lon="10.4820405"><ele>217.5</ele><time>2026-03-28T15:39:03.694Z</time></trkpt><trkpt lat="45.6085871" lon="10.481964"><ele>220.25</ele><time>2026-03-28T15:39:04.693Z</time></trkpt><trkpt lat="45.6087236" lon="10.4819168"><ele>223.0</ele><time>2026-03-28T15:39:05.693Z</time></trkpt><trkpt lat="45.6088643" lon="10.4818981"><ele>223.5</ele><time>2026-03-28T15:39:06.694Z</time></trkpt><trkpt lat="45.6090077" lon="10.4819192"><ele>224.0</ele><time>2026-03-28T15:39:07.694Z</time></trkpt><trkpt lat="45.6091461" lon="10.4819706"><ele>224.5</ele><time>2026-03-28T15:39:08.694Z</time></trkpt><trkpt lat="45.6092852" lon="10.4820577"><ele>225.0</ele><time>2026-03-28T15:39:09.694Z</time></trkpt><trkpt lat="45.6094219" lon="10.4821682"><ele>223.0</ele><time>2026-03-28T15:39:10.694Z</time></trkpt><trkpt lat="45.6095525" lon="10.4822713"><ele>221.0</ele><time>2026-03-28T15:39:11.693Z</time></trkpt><trkpt lat="45.6096781" lon="10.4823556"><ele>219.0</ele><time>2026-03-28T15:39:12.694Z</time></trkpt><trkpt lat="45.609793" lon="10.4824085"><ele>217.0</ele><time>2026-03-28T15:39:13.694Z</time></trkpt><trkpt lat="45.6099209" lon="10.4824381"><ele>217.0</ele><time>2026-03-28T15:39:14.694Z</time></trkpt><trkpt lat="45.6100423" lon="10.4824457"><ele>217.0</ele><time>2026-03-28T15:39:15.693Z</time></trkpt><trkpt lat="45.6101715" lon="10.4824363"><ele>217.0</ele><time>2026-03-28T15:39:16.693Z</time></trkpt><trkpt lat="45.6103076" lon="10.482411"><ele>217.0</ele><time>2026-03-28T15:39:17.694Z</time></trkpt><trkpt lat="45.6104441" lon="10.4823895"><ele>218.0</ele><time>2026-03-28T15:39:18.693Z</time></trkpt><trkpt lat="45.6105745" lon="10.4823661"><ele>219.0</ele><time>2026-03-28T15:39:19.693Z</time></trkpt><trkpt lat="45.6106965" lon="10.4823313"><ele>220.0</ele><time>2026-03-28T15:39:20.694Z</time></trkpt><trkpt lat="45.610809" lon="10.482274"><ele>221.0</ele><time>2026-03-28T15:39:21.694Z</time></trkpt><trkpt lat="45.6109091" lon="10.4821908"><ele>221.60000000000002</ele><time>2026-03-28T15:39:22.693Z</time></trkpt><trkpt lat="45.6109993" lon="10.4820963"><ele>222.20000000000002</ele><time>2026-03-28T15:39:23.694Z</time></trkpt><trkpt lat="45.611079" lon="10.4819988"><ele>222.79999999999998</ele><time>2026-03-28T15:39:24.693Z</time></trkpt><trkpt lat="45.6111493" lon="10.4819042"><ele>223.39999999999998</ele><time>2026-03-28T15:39:25.693Z</time></trkpt><trkpt lat="45.6112127" lon="10.4818208"><ele>224.0</ele><time>2026-03-28T15:39:26.694Z</time></trkpt><trkpt lat="45.6112661" lon="10.4817541"><ele>224.33333333333334</ele><time>2026-03-28T15:39:27.694Z</time></trkpt><trkpt lat="45.6113464" lon="10.481684"><ele>224.66666666666669</ele><time>2026-03-28T15:39:29.694Z</time></trkpt><trkpt lat="45.6114188" lon="10.4816573"><ele>225.0</ele><time>2026-03-28T15:39:32.694Z</time></trkpt><trkpt lat="45.6114859" lon="10.4816172"><ele>225.33333333333331</ele><time>2026-03-28T15:39:36.694Z</time></trkpt><trkpt lat="45.6115471" lon="10.4814814"><ele>225.66666666666666</ele><time>2026-03-28T15:39:38.694Z</time></trkpt><trkpt lat="45.6115797" lon="10.4813761"><ele>226.0</ele><time>2026-03-28T15:39:39.693Z</time></trkpt><trkpt lat="45.6116145" lon="10.4812693"><ele>225.4</ele><time>2026-03-28T15:39:40.693Z</time></trkpt><trkpt lat="45.6116439" lon="10.4811752"><ele>224.8</ele><time>2026-03-28T15:39:41.694Z</time></trkpt><trkpt lat="45.6116763" lon="10.4810945"><ele>224.20000000000002</ele><time>2026-03-28T15:39:42.694Z</time></trkpt><trkpt lat="45.6117463" lon="10.4809848"><ele>223.60000000000002</ele><time>2026-03-28T15:39:44.693Z</time></trkpt><trkpt lat="45.6118569" lon="10.4809365"><ele>223.0</ele><time>2026-03-28T15:39:46.693Z</time></trkpt><trkpt lat="45.6119812" lon="10.4809923"><ele>222.60000000000002</ele><time>2026-03-28T15:39:48.693Z</time></trkpt><trkpt lat="45.6120437" lon="10.4810439"><ele>222.20000000000002</ele><time>2026-03-28T15:39:49.693Z</time></trkpt><trkpt lat="45.6121166" lon="10.4811091"><ele>221.8</ele><time>2026-03-28T15:39:50.694Z</time></trkpt><trkpt lat="45.6121883" lon="10.4811713"><ele>221.4</ele><time>2026-03-28T15:39:51.694Z</time></trkpt><trkpt lat="45.6122773" lon="10.4812464"><ele>221.0</ele><time>2026-03-28T15:39:52.693Z</time></trkpt><trkpt lat="45.6123791" lon="10.4813356"><ele>222.25</ele><time>2026-03-28T15:39:53.694Z</time></trkpt><trkpt lat="45.6124755" lon="10.4814222"><ele>223.5</ele><time>2026-03-28T15:39:54.694Z</time></trkpt><trkpt lat="45.6125807" lon="10.4814968"><ele>224.75</ele><time>2026-03-28T15:39:55.693Z</time></trkpt><trkpt lat="45.6126901" lon="10.481556"><ele>226.0</ele><time>2026-03-28T15:39:56.694Z</time></trkpt><trkpt lat="45.6127948" lon="10.4815952"><ele>225.5</ele><time>2026-03-28T15:39:57.694Z</time></trkpt><trkpt lat="45.6128982" lon="10.4816257"><ele>225.0</ele><time>2026-03-28T15:39:58.693Z</time></trkpt><trkpt lat="45.6130066" lon="10.4816711"><ele>224.5</ele><time>2026-03-28T15:39:59.694Z</time></trkpt><trkpt lat="45.6131258" lon="10.4817158"><ele>224.0</ele><time>2026-03-28T15:40:00.693Z</time></trkpt><trkpt lat="45.6132507" lon="10.4817827"><ele>224.0</ele><time>2026-03-28T15:40:01.693Z</time></trkpt><trkpt lat="45.6133696" lon="10.4818379"><ele>224.0</ele><time>2026-03-28T15:40:02.694Z</time></trkpt><trkpt lat="45.6134886" lon="10.4819009"><ele>224.0</ele><time>2026-03-28T15:40:03.694Z</time></trkpt><trkpt lat="45.6136066" lon="10.4819794"><ele>224.0</ele><time>2026-03-28T15:40:04.693Z</time></trkpt><trkpt lat="45.613724" lon="10.4820696"><ele>226.0</ele><time>2026-03-28T15:40:05.693Z</time></trkpt><trkpt lat="45.6138475" lon="10.4821825"><ele>228.0</ele><time>2026-03-28T15:40:06.694Z</time></trkpt><trkpt lat="45.6139507" lon="10.4822823"><ele>230.0</ele><time>2026-03-28T15:40:07.694Z</time></trkpt><trkpt lat="45.6140592" lon="10.4823798"><ele>232.0</ele><time>2026-03-28T15:40:08.693Z</time></trkpt><trkpt lat="45.6141773" lon="10.4824608"><ele>232.0</ele><time>2026-03-28T15:40:09.693Z</time></trkpt><trkpt lat="45.6142868" lon="10.4825151"><ele>232.0</ele><time>2026-03-28T15:40:10.694Z</time></trkpt><trkpt lat="45.6144078" lon="10.482561"><ele>232.0</ele><time>2026-03-28T15:40:11.693Z</time></trkpt><trkpt lat="45.6145297" lon="10.4826035"><ele>232.0</ele><time>2026-03-28T15:40:12.694Z</time></trkpt><trkpt lat="45.6146512" lon="10.4826543"><ele>230.5</ele><time>2026-03-28T15:40:13.693Z</time></trkpt><trkpt lat="45.6147801" lon="10.4827199"><ele>229.0</ele><time>2026-03-28T15:40:14.693Z</time></trkpt><trkpt lat="45.6148958" lon="10.4827831"><ele>227.5</ele><time>2026-03-28T15:40:15.693Z</time></trkpt><trkpt lat="45.6150194" lon="10.4828511"><ele>226.0</ele><time>2026-03-28T15:40:16.694Z</time></trkpt><trkpt lat="45.6151359" lon="10.4829105"><ele>227.25</ele><time>2026-03-28T15:40:17.693Z</time></trkpt><trkpt lat="45.6152702" lon="10.4829654"><ele>228.5</ele><time>2026-03-28T15:40:18.693Z</time></trkpt><trkpt lat="45.6154068" lon="10.4830076"><ele>229.75</ele><time>2026-03-28T15:40:19.693Z</time></trkpt><trkpt lat="45.6155495" lon="10.4830427"><ele>231.0</ele><time>2026-03-28T15:40:20.694Z</time></trkpt><trkpt lat="45.6156989" lon="10.483069"><ele>231.0</ele><time>2026-03-28T15:40:21.694Z</time></trkpt><trkpt lat="45.6158551" lon="10.4830952"><ele>231.0</ele><time>2026-03-28T15:40:22.694Z</time></trkpt><trkpt lat="45.6159939" lon="10.4831154"><ele>231.0</ele><time>2026-03-28T15:40:23.693Z</time></trkpt><trkpt lat="45.6161384" lon="10.4831372"><ele>231.0</ele><time>2026-03-28T15:40:24.694Z</time></trkpt><trkpt lat="45.6162853" lon="10.4831581"><ele>230.0</ele><time>2026-03-28T15:40:25.694Z</time></trkpt><trkpt lat="45.6164292" lon="10.4831817"><ele>229.0</ele><time>2026-03-28T15:40:26.694Z</time></trkpt><trkpt lat="45.6165758" lon="10.4832039"><ele>228.0</ele><time>2026-03-28T15:40:27.693Z</time></trkpt><trkpt lat="45.6167237" lon="10.4832289"><ele>227.0</ele><time>2026-03-28T15:40:28.693Z</time></trkpt><trkpt lat="45.6168805" lon="10.4832549"><ele>227.0</ele><time>2026-03-28T15:40:29.694Z</time></trkpt><trkpt lat="45.6170488" lon="10.483282"><ele>227.0</ele><time>2026-03-28T15:40:30.694Z</time></trkpt><trkpt lat="45.6172037" lon="10.4833088"><ele>227.0</ele><time>2026-03-28T15:40:31.693Z</time></trkpt><trkpt lat="45.6173674" lon="10.4833339"><ele>227.0</ele><time>2026-03-28T15:40:32.693Z</time></trkpt><trkpt lat="45.6175372" lon="10.4833609"><ele>227.0</ele><time>2026-03-28T15:40:33.693Z</time></trkpt><trkpt lat="45.6177098" lon="10.4833889"><ele>227.0</ele><time>2026-03-28T15:40:34.693Z</time></trkpt><trkpt lat="45.617889" lon="10.4834181"><ele>227.0</ele><time>2026-03-28T15:40:35.694Z</time></trkpt><trkpt lat="45.6180754" lon="10.4834487"><ele>227.0</ele><time>2026-03-28T15:40:36.694Z</time></trkpt><trkpt lat="45.6182698" lon="10.4834798"><ele>227.0</ele><time>2026-03-28T15:40:37.693Z</time></trkpt><trkpt lat="45.6184753" lon="10.4835138"><ele>226.66666666666669</ele><time>2026-03-28T15:40:38.693Z</time></trkpt><trkpt lat="45.6186523" lon="10.4835468"><ele>226.33333333333331</ele><time>2026-03-28T15:40:39.694Z</time></trkpt><trkpt lat="45.6188324" lon="10.4835798"><ele>226.0</ele><time>2026-03-28T15:40:40.693Z</time></trkpt><trkpt lat="45.6189995" lon="10.4835997"><ele>226.0</ele><time>2026-03-28T15:40:41.693Z</time></trkpt><trkpt lat="45.6191439" lon="10.483632"><ele>226.0</ele><time>2026-03-28T15:40:42.693Z</time></trkpt><trkpt lat="45.6192871" lon="10.4836851"><ele>226.0</ele><time>2026-03-28T15:40:43.694Z</time></trkpt><trkpt lat="45.6194205" lon="10.4837693"><ele>226.0</ele><time>2026-03-28T15:40:44.694Z</time></trkpt><trkpt lat="45.6195337" lon="10.4838839"><ele>226.33333333333331</ele><time>2026-03-28T15:40:45.694Z</time></trkpt><trkpt lat="45.6196337" lon="10.4840448"><ele>226.66666666666669</ele><time>2026-03-28T15:40:46.693Z</time></trkpt><trkpt lat="45.6197192" lon="10.4842359"><ele>227.0</ele><time>2026-03-28T15:40:47.694Z</time></trkpt><trkpt lat="45.6198052" lon="10.484456"><ele>229.66666666666669</ele><time>2026-03-28T15:40:48.694Z</time></trkpt><trkpt lat="45.6198833" lon="10.4846651"><ele>232.33333333333331</ele><time>2026-03-28T15:40:49.694Z</time></trkpt><trkpt lat="45.619975" lon="10.4848876"><ele>235.0</ele><time>2026-03-28T15:40:50.694Z</time></trkpt><trkpt lat="45.6200627" lon="10.4850832"><ele>235.0</ele><time>2026-03-28T15:40:51.693Z</time></trkpt><trkpt lat="45.6201521" lon="10.4852739"><ele>235.0</ele><time>2026-03-28T15:40:52.694Z</time></trkpt><trkpt lat="45.6202431" lon="10.4854633"><ele>235.0</ele><time>2026-03-28T15:40:53.693Z</time></trkpt><trkpt lat="45.6203345" lon="10.4856513"><ele>233.33333333333331</ele><time>2026-03-28T15:40:54.693Z</time></trkpt><trkpt lat="45.6204209" lon="10.4858376"><ele>231.66666666666669</ele><time>2026-03-28T15:40:55.693Z</time></trkpt><trkpt lat="45.6205088" lon="10.4860169"><ele>230.0</ele><time>2026-03-28T15:40:56.693Z</time></trkpt><trkpt lat="45.6205988" lon="10.4862036"><ele>230.0</ele><time>2026-03-28T15:40:57.693Z</time></trkpt><trkpt lat="45.620679" lon="10.4863771"><ele>230.0</ele><time>2026-03-28T15:40:58.693Z</time></trkpt><trkpt lat="45.6207611" lon="10.4865545"><ele>230.0</ele><time>2026-03-28T15:40:59.694Z</time></trkpt><trkpt lat="45.620839" lon="10.4867306"><ele>230.0</ele><time>2026-03-28T15:41:00.693Z</time></trkpt><trkpt lat="45.6209144" lon="10.4869083"><ele>230.0</ele><time>2026-03-28T15:41:01.693Z</time></trkpt><trkpt lat="45.6209879" lon="10.4870896"><ele>230.0</ele><time>2026-03-28T15:41:02.694Z</time></trkpt><trkpt lat="45.6210568" lon="10.4872715"><ele>230.0</ele><time>2026-03-28T15:41:03.694Z</time></trkpt><trkpt lat="45.6211239" lon="10.4874516"><ele>230.0</ele><time>2026-03-28T15:41:04.694Z</time></trkpt><trkpt lat="45.621191" lon="10.4876206"><ele>231.0</ele><time>2026-03-28T15:41:05.694Z</time></trkpt><trkpt lat="45.6212666" lon="10.4878091"><ele>232.0</ele><time>2026-03-28T15:41:06.693Z</time></trkpt><trkpt lat="45.6213437" lon="10.487978"><ele>233.0</ele><time>2026-03-28T15:41:07.694Z</time></trkpt><trkpt lat="45.6214075" lon="10.488138"><ele>234.0</ele><time>2026-03-28T15:41:08.694Z</time></trkpt><trkpt lat="45.6214794" lon="10.488289"><ele>234.0</ele><time>2026-03-28T15:41:09.693Z</time></trkpt><trkpt lat="45.6215554" lon="10.4884366"><ele>234.0</ele><time>2026-03-28T15:41:10.694Z</time></trkpt><trkpt lat="45.6216247" lon="10.4885603"><ele>234.0</ele><time>2026-03-28T15:41:11.694Z</time></trkpt><trkpt lat="45.621694" lon="10.4886875"><ele>234.0</ele><time>2026-03-28T15:41:12.694Z</time></trkpt><trkpt lat="45.6217672" lon="10.4888172"><ele>235.25</ele><time>2026-03-28T15:41:13.694Z</time></trkpt><trkpt lat="45.6218408" lon="10.4889518"><ele>236.5</ele><time>2026-03-28T15:41:14.693Z</time></trkpt><trkpt lat="45.621919" lon="10.4890941"><ele>237.75</ele><time>2026-03-28T15:41:15.694Z</time></trkpt><trkpt lat="45.6219985" lon="10.4892385"><ele>239.0</ele><time>2026-03-28T15:41:16.694Z</time></trkpt><trkpt lat="45.6220801" lon="10.4893879"><ele>239.75</ele><time>2026-03-28T15:41:17.693Z</time></trkpt><trkpt lat="45.6221607" lon="10.4895371"><ele>240.5</ele><time>2026-03-28T15:41:18.694Z</time></trkpt><trkpt lat="45.6222421" lon="10.4896833"><ele>241.25</ele><time>2026-03-28T15:41:19.694Z</time></trkpt><trkpt lat="45.6223211" lon="10.4898317"><ele>242.0</ele><time>2026-03-28T15:41:20.694Z</time></trkpt><trkpt lat="45.6223986" lon="10.4899729"><ele>241.25</ele><time>2026-03-28T15:41:21.694Z</time></trkpt><trkpt lat="45.6224808" lon="10.4901346"><ele>240.5</ele><time>2026-03-28T15:41:22.693Z</time></trkpt><trkpt lat="45.6225608" lon="10.49029"><ele>239.75</ele><time>2026-03-28T15:41:23.693Z</time></trkpt><trkpt lat="45.6226436" lon="10.4904434"><ele>239.0</ele><time>2026-03-28T15:41:24.693Z</time></trkpt><trkpt lat="45.6227253" lon="10.4905953"><ele>239.0</ele><time>2026-03-28T15:41:25.694Z</time></trkpt><trkpt lat="45.6227992" lon="10.4907614"><ele>239.0</ele><time>2026-03-28T15:41:26.693Z</time></trkpt><trkpt lat="45.6228591" lon="10.4909105"><ele>239.0</ele><time>2026-03-28T15:41:27.693Z</time></trkpt><trkpt lat="45.622912" lon="10.4910746"><ele>239.0</ele><time>2026-03-28T15:41:28.693Z</time></trkpt><trkpt lat="45.6229586" lon="10.4912454"><ele>236.5</ele><time>2026-03-28T15:41:29.694Z</time></trkpt><trkpt lat="45.6229966" lon="10.4914178"><ele>234.0</ele><time>2026-03-28T15:41:30.694Z</time></trkpt><trkpt lat="45.6230311" lon="10.4915856"><ele>231.5</ele><time>2026-03-28T15:41:31.693Z</time></trkpt><trkpt lat="45.6230671" lon="10.4917462"><ele>229.0</ele><time>2026-03-28T15:41:32.693Z</time></trkpt><trkpt lat="45.6231075" lon="10.491904"><ele>229.0</ele><time>2026-03-28T15:41:33.693Z</time></trkpt><trkpt lat="45.6231504" lon="10.492062"><ele>228.99999999999997</ele><time>2026-03-28T15:41:34.693Z</time></trkpt><trkpt lat="45.623195" lon="10.4922128"><ele>228.99999999999997</ele><time>2026-03-28T15:41:35.694Z</time></trkpt><trkpt lat="45.6232378" lon="10.4923569"><ele>229.0</ele><time>2026-03-28T15:41:36.693Z</time></trkpt><trkpt lat="45.6232777" lon="10.4924855"><ele>229.0</ele><time>2026-03-28T15:41:37.693Z</time></trkpt><trkpt lat="45.623322" lon="10.4926262"><ele>230.2</ele><time>2026-03-28T15:41:38.694Z</time></trkpt><trkpt lat="45.6233627" lon="10.4927557"><ele>231.39999999999998</ele><time>2026-03-28T15:41:39.693Z</time></trkpt><trkpt lat="45.6234046" lon="10.4928837"><ele>232.6</ele><time>2026-03-28T15:41:40.693Z</time></trkpt><trkpt lat="45.6234461" lon="10.4930156"><ele>233.8</ele><time>2026-03-28T15:41:41.694Z</time></trkpt><trkpt lat="45.6234895" lon="10.4931511"><ele>235.0</ele><time>2026-03-28T15:41:42.694Z</time></trkpt><trkpt lat="45.6235347" lon="10.493292"><ele>235.0</ele><time>2026-03-28T15:41:43.694Z</time></trkpt><trkpt lat="45.6235811" lon="10.4934383"><ele>235.0</ele><time>2026-03-28T15:41:44.694Z</time></trkpt><trkpt lat="45.6236321" lon="10.49359"><ele>235.0</ele><time>2026-03-28T15:41:45.693Z</time></trkpt><trkpt lat="45.6236904" lon="10.4937427"><ele>235.0</ele><time>2026-03-28T15:41:46.694Z</time></trkpt><trkpt lat="45.623756" lon="10.4938952"><ele>234.2</ele><time>2026-03-28T15:41:47.693Z</time></trkpt><trkpt lat="45.6238214" lon="10.4940417"><ele>233.4</ele><time>2026-03-28T15:41:48.694Z</time></trkpt><trkpt lat="45.6238843" lon="10.4941763"><ele>232.60000000000002</ele><time>2026-03-28T15:41:49.693Z</time></trkpt><trkpt lat="45.6239443" lon="10.4943025"><ele>231.8</ele><time>2026-03-28T15:41:50.693Z</time></trkpt><trkpt lat="45.6240035" lon="10.4944265"><ele>231.0</ele><time>2026-03-28T15:41:51.693Z</time></trkpt><trkpt lat="45.6240633" lon="10.4945501"><ele>231.60000000000002</ele><time>2026-03-28T15:41:52.693Z</time></trkpt><trkpt lat="45.6241199" lon="10.4946646"><ele>232.20000000000002</ele><time>2026-03-28T15:41:53.693Z</time></trkpt><trkpt lat="45.6241843" lon="10.4947915"><ele>232.79999999999998</ele><time>2026-03-28T15:41:54.694Z</time></trkpt><trkpt lat="45.6242457" lon="10.4949076"><ele>233.39999999999998</ele><time>2026-03-28T15:41:55.693Z</time></trkpt><trkpt lat="45.6243059" lon="10.4950242"><ele>234.0</ele><time>2026-03-28T15:41:56.694Z</time></trkpt><trkpt lat="45.6243663" lon="10.4951416"><ele>234.0</ele><time>2026-03-28T15:41:57.694Z</time></trkpt><trkpt lat="45.624425" lon="10.4952628"><ele>233.99999999999997</ele><time>2026-03-28T15:41:58.693Z</time></trkpt><trkpt lat="45.6244836" lon="10.4953847"><ele>233.99999999999997</ele><time>2026-03-28T15:41:59.693Z</time></trkpt><trkpt lat="45.6245436" lon="10.4955071"><ele>234.0</ele><time>2026-03-28T15:42:00.693Z</time></trkpt><trkpt lat="45.6246042" lon="10.4956273"><ele>234.0</ele><time>2026-03-28T15:42:01.693Z</time></trkpt><trkpt lat="45.6246636" lon="10.4957452"><ele>233.79999999999998</ele><time>2026-03-28T15:42:02.694Z</time></trkpt><trkpt lat="45.624722" lon="10.4958618"><ele>233.59999999999997</ele><time>2026-03-28T15:42:03.693Z</time></trkpt><trkpt lat="45.6247804" lon="10.4959773"><ele>233.4</ele><time>2026-03-28T15:42:04.694Z</time></trkpt><trkpt lat="45.6248357" lon="10.4960949"><ele>233.2</ele><time>2026-03-28T15:42:05.694Z</time></trkpt><trkpt lat="45.6248869" lon="10.4962131"><ele>233.0</ele><time>2026-03-28T15:42:06.693Z</time></trkpt><trkpt lat="45.6249305" lon="10.4963331"><ele>233.0</ele><time>2026-03-28T15:42:07.693Z</time></trkpt><trkpt lat="45.6249679" lon="10.4964546"><ele>233.0</ele><time>2026-03-28T15:42:08.693Z</time></trkpt><trkpt lat="45.6249959" lon="10.496575"><ele>233.0</ele><time>2026-03-28T15:42:09.693Z</time></trkpt><trkpt lat="45.6250202" lon="10.4967195"><ele>233.0</ele><time>2026-03-28T15:42:10.693Z</time></trkpt><trkpt lat="45.6250367" lon="10.4968627"><ele>233.0</ele><time>2026-03-28T15:42:11.694Z</time></trkpt><trkpt lat="45.6250491" lon="10.4970109"><ele>232.0</ele><time>2026-03-28T15:42:12.693Z</time></trkpt><trkpt lat="45.6250584" lon="10.4971564"><ele>231.0</ele><time>2026-03-28T15:42:13.694Z</time></trkpt><trkpt lat="45.6250677" lon="10.4972979"><ele>230.0</ele><time>2026-03-28T15:42:14.694Z</time></trkpt><trkpt lat="45.625077" lon="10.4974303"><ele>229.0</ele><time>2026-03-28T15:42:15.693Z</time></trkpt><trkpt lat="45.6250853" lon="10.4975535"><ele>228.0</ele><time>2026-03-28T15:42:16.694Z</time></trkpt><trkpt lat="45.6250959" lon="10.497665"><ele>228.0</ele><time>2026-03-28T15:42:17.694Z</time></trkpt><trkpt lat="45.6251103" lon="10.4977662"><ele>228.0</ele><time>2026-03-28T15:42:18.693Z</time></trkpt><trkpt lat="45.6251398" lon="10.4979273"><ele>228.0</ele><time>2026-03-28T15:42:20.693Z</time></trkpt><trkpt lat="45.6251513" lon="10.4980631"><ele>228.0</ele><time>2026-03-28T15:42:22.693Z</time></trkpt><trkpt lat="45.6251479" lon="10.4982304"><ele>228.0</ele><time>2026-03-28T15:42:24.693Z</time></trkpt><trkpt lat="45.6251912" lon="10.4984064"><ele>228.5</ele><time>2026-03-28T15:42:26.694Z</time></trkpt><trkpt lat="45.6252386" lon="10.4984787"><ele>229.0</ele><time>2026-03-28T15:42:27.693Z</time></trkpt><trkpt lat="45.6252962" lon="10.4985473"><ele>229.5</ele><time>2026-03-28T15:42:28.694Z</time></trkpt><trkpt lat="45.6253601" lon="10.4986199"><ele>230.0</ele><time>2026-03-28T15:42:29.694Z</time></trkpt><trkpt lat="45.625427" lon="10.4986919"><ele>230.5</ele><time>2026-03-28T15:42:30.693Z</time></trkpt><trkpt lat="45.6254975" lon="10.4987611"><ele>231.0</ele><time>2026-03-28T15:42:31.694Z</time></trkpt><trkpt lat="45.6255734" lon="10.4988264"><ele>231.8</ele><time>2026-03-28T15:42:32.693Z</time></trkpt><trkpt lat="45.6256551" lon="10.4988955"><ele>232.60000000000002</ele><time>2026-03-28T15:42:33.693Z</time></trkpt><trkpt lat="45.6257419" lon="10.4989603"><ele>233.4</ele><time>2026-03-28T15:42:34.693Z</time></trkpt><trkpt lat="45.6258235" lon="10.4990187"><ele>234.2</ele><time>2026-03-28T15:42:35.694Z</time></trkpt><trkpt lat="45.6259029" lon="10.4990745"><ele>235.0</ele><time>2026-03-28T15:42:36.693Z</time></trkpt><trkpt lat="45.6259843" lon="10.4991342"><ele>235.0</ele><time>2026-03-28T15:42:37.693Z</time></trkpt><trkpt lat="45.6260708" lon="10.4991965"><ele>235.0</ele><time>2026-03-28T15:42:38.693Z</time></trkpt><trkpt lat="45.6261641" lon="10.4992614"><ele>235.0</ele><time>2026-03-28T15:42:39.694Z</time></trkpt><trkpt lat="45.6262619" lon="10.4993315"><ele>235.0</ele><time>2026-03-28T15:42:40.694Z</time></trkpt><trkpt lat="45.6263552" lon="10.4993999"><ele>235.0</ele><time>2026-03-28T15:42:41.694Z</time></trkpt><trkpt lat="45.6264596" lon="10.4994779"><ele>235.4</ele><time>2026-03-28T15:42:42.693Z</time></trkpt><trkpt lat="45.6265546" lon="10.4995477"><ele>235.8</ele><time>2026-03-28T15:42:43.694Z</time></trkpt><trkpt lat="45.6266473" lon="10.4996186"><ele>236.2</ele><time>2026-03-28T15:42:44.694Z</time></trkpt><trkpt lat="45.6267383" lon="10.4996874"><ele>236.6</ele><time>2026-03-28T15:42:45.693Z</time></trkpt><trkpt lat="45.6268282" lon="10.4997575"><ele>237.0</ele><time>2026-03-28T15:42:46.694Z</time></trkpt><trkpt lat="45.6269182" lon="10.4998291"><ele>236.6</ele><time>2026-03-28T15:42:47.694Z</time></trkpt><trkpt lat="45.6270101" lon="10.4999057"><ele>236.2</ele><time>2026-03-28T15:42:48.694Z</time></trkpt><trkpt lat="45.6271045" lon="10.4999862"><ele>235.8</ele><time>2026-03-28T15:42:49.694Z</time></trkpt><trkpt lat="45.6272002" lon="10.500072"><ele>235.4</ele><time>2026-03-28T15:42:50.694Z</time></trkpt><trkpt lat="45.6272981" lon="10.5001615"><ele>235.0</ele><time>2026-03-28T15:42:51.693Z</time></trkpt><trkpt lat="45.6273979" lon="10.500255"><ele>235.0</ele><time>2026-03-28T15:42:52.693Z</time></trkpt><trkpt lat="45.6274979" lon="10.5003578"><ele>235.0</ele><time>2026-03-28T15:42:53.693Z</time></trkpt><trkpt lat="45.6276033" lon="10.5004524"><ele>235.0</ele><time>2026-03-28T15:42:54.693Z</time></trkpt><trkpt lat="45.6277037" lon="10.5005477"><ele>235.0</ele><time>2026-03-28T15:42:55.693Z</time></trkpt><trkpt lat="45.6277996" lon="10.5006431"><ele>234.25</ele><time>2026-03-28T15:42:56.693Z</time></trkpt><trkpt lat="45.6278898" lon="10.5007321"><ele>233.5</ele><time>2026-03-28T15:42:57.694Z</time></trkpt><trkpt lat="45.6279905" lon="10.5008396"><ele>232.75</ele><time>2026-03-28T15:42:58.693Z</time></trkpt><trkpt lat="45.6280882" lon="10.5009455"><ele>232.0</ele><time>2026-03-28T15:42:59.693Z</time></trkpt><trkpt lat="45.6281889" lon="10.5010569"><ele>232.0</ele><time>2026-03-28T15:43:00.693Z</time></trkpt><trkpt lat="45.628291" lon="10.5011731"><ele>232.0</ele><time>2026-03-28T15:43:01.693Z</time></trkpt><trkpt lat="45.6283966" lon="10.5012878"><ele>232.0</ele><time>2026-03-28T15:43:02.693Z</time></trkpt><trkpt lat="45.6284996" lon="10.501402"><ele>232.0</ele><time>2026-03-28T15:43:03.693Z</time></trkpt><trkpt lat="45.6285995" lon="10.5015152"><ele>231.75</ele><time>2026-03-28T15:43:04.694Z</time></trkpt><trkpt lat="45.6287005" lon="10.501631"><ele>231.5</ele><time>2026-03-28T15:43:05.693Z</time></trkpt><trkpt lat="45.6288067" lon="10.5017515"><ele>231.25</ele><time>2026-03-28T15:43:06.693Z</time></trkpt><trkpt lat="45.6289183" lon="10.5018803"><ele>231.0</ele><time>2026-03-28T15:43:07.693Z</time></trkpt><trkpt lat="45.6290358" lon="10.5020171"><ele>233.0</ele><time>2026-03-28T15:43:08.694Z</time></trkpt><trkpt lat="45.6291581" lon="10.5021627"><ele>235.0</ele><time>2026-03-28T15:43:09.694Z</time></trkpt><trkpt lat="45.6292763" lon="10.5023085"><ele>237.0</ele><time>2026-03-28T15:43:10.693Z</time></trkpt><trkpt lat="45.6293959" lon="10.5024478"><ele>237.75</ele><time>2026-03-28T15:43:11.693Z</time></trkpt><trkpt lat="45.6295037" lon="10.5025851"><ele>238.5</ele><time>2026-03-28T15:43:12.693Z</time></trkpt><trkpt lat="45.629592" lon="10.5027126"><ele>239.25</ele><time>2026-03-28T15:43:13.694Z</time></trkpt><trkpt lat="45.6296914" lon="10.502859"><ele>240.0</ele><time>2026-03-28T15:43:14.694Z</time></trkpt><trkpt lat="45.6297799" lon="10.503003"><ele>240.0</ele><time>2026-03-28T15:43:15.693Z</time></trkpt><trkpt lat="45.6298609" lon="10.5031668"><ele>240.0</ele><time>2026-03-28T15:43:16.694Z</time></trkpt><trkpt lat="45.6299349" lon="10.5033426"><ele>240.0</ele><time>2026-03-28T15:43:17.694Z</time></trkpt><trkpt lat="45.6300065" lon="10.5035219"><ele>240.0</ele><time>2026-03-28T15:43:18.693Z</time></trkpt><trkpt lat="45.6300761" lon="10.5037076"><ele>250.33333333333331</ele><time>2026-03-28T15:43:19.693Z</time></trkpt><trkpt lat="45.6301483" lon="10.5038957"><ele>260.66666666666663</ele><time>2026-03-28T15:43:20.693Z</time></trkpt><trkpt lat="45.6302238" lon="10.5040865"><ele>271.0</ele><time>2026-03-28T15:43:21.693Z</time></trkpt><trkpt lat="45.6303027" lon="10.5042816"><ele>273.0</ele><time>2026-03-28T15:43:22.693Z</time></trkpt><trkpt lat="45.6303857" lon="10.5044794"><ele>275.0</ele><time>2026-03-28T15:43:23.693Z</time></trkpt><trkpt lat="45.6304789" lon="10.5046735"><ele>277.0</ele><time>2026-03-28T15:43:24.693Z</time></trkpt><trkpt lat="45.630583" lon="10.5048632"><ele>277.0</ele><time>2026-03-28T15:43:25.694Z</time></trkpt><trkpt lat="45.6307" lon="10.5050479"><ele>277.0</ele><time>2026-03-28T15:43:26.694Z</time></trkpt><trkpt lat="45.6308305" lon="10.5052329"><ele>277.0</ele><time>2026-03-28T15:43:27.694Z</time></trkpt><trkpt lat="45.6309694" lon="10.5054155"><ele>269.0</ele><time>2026-03-28T15:43:28.693Z</time></trkpt><trkpt lat="45.6311093" lon="10.5055784"><ele>261.0</ele><time>2026-03-28T15:43:29.694Z</time></trkpt><trkpt lat="45.631279" lon="10.5057483"><ele>253.0</ele><time>2026-03-28T15:43:30.693Z</time></trkpt><trkpt lat="45.6314599" lon="10.5059013"><ele>253.0</ele><time>2026-03-28T15:43:31.694Z</time></trkpt><trkpt lat="45.6316634" lon="10.5060533"><ele>253.0</ele><time>2026-03-28T15:43:32.693Z</time></trkpt><trkpt lat="45.6318649" lon="10.5061936"><ele>253.0</ele><time>2026-03-28T15:43:33.694Z</time></trkpt><trkpt lat="45.6317555" lon="10.505919"><ele>253.0</ele><time>2026-03-28T15:43:34.694Z</time></trkpt><trkpt lat="45.6318954" lon="10.5059813"><ele>253.0</ele><time>2026-03-28T15:43:35.694Z</time></trkpt><trkpt lat="45.632029" lon="10.5060424"><ele>254.75</ele><time>2026-03-28T15:43:36.694Z</time></trkpt><trkpt lat="45.6321591" lon="10.5060829"><ele>256.5</ele><time>2026-03-28T15:43:37.694Z</time></trkpt><trkpt lat="45.6322712" lon="10.5061373"><ele>258.25</ele><time>2026-03-28T15:43:38.693Z</time></trkpt><trkpt lat="45.6323857" lon="10.5061986"><ele>260.0</ele><time>2026-03-28T15:43:39.693Z</time></trkpt><trkpt lat="45.6324937" lon="10.5062559"><ele>260.0</ele><time>2026-03-28T15:43:40.693Z</time></trkpt><trkpt lat="45.6325991" lon="10.5063071"><ele>260.0</ele><time>2026-03-28T15:43:41.694Z</time></trkpt><trkpt lat="45.6327036" lon="10.5063548"><ele>260.0</ele><time>2026-03-28T15:43:42.693Z</time></trkpt><trkpt lat="45.632807" lon="10.5064071"><ele>260.0</ele><time>2026-03-28T15:43:43.693Z</time></trkpt><trkpt lat="45.6329077" lon="10.5064566"><ele>260.0</ele><time>2026-03-28T15:43:44.693Z</time></trkpt><trkpt lat="45.6329995" lon="10.506505"><ele>257.2</ele><time>2026-03-28T15:43:45.694Z</time></trkpt><trkpt lat="45.6331007" lon="10.5065645"><ele>254.4</ele><time>2026-03-28T15:43:46.693Z</time></trkpt><trkpt lat="45.633194" lon="10.5066198"><ele>251.60000000000002</ele><time>2026-03-28T15:43:47.693Z</time></trkpt><trkpt lat="45.6332858" lon="10.5066712"><ele>248.8</ele><time>2026-03-28T15:43:48.694Z</time></trkpt><trkpt lat="45.6333749" lon="10.5067195"><ele>246.0</ele><time>2026-03-28T15:43:49.693Z</time></trkpt><trkpt lat="45.6334592" lon="10.5067571"><ele>246.0</ele><time>2026-03-28T15:43:50.693Z</time></trkpt><trkpt lat="45.633536" lon="10.5067962"><ele>246.0</ele><time>2026-03-28T15:43:51.693Z</time></trkpt><trkpt lat="45.6336085" lon="10.5068402"><ele>246.0</ele><time>2026-03-28T15:43:52.693Z</time></trkpt><trkpt lat="45.6336736" lon="10.5068849"><ele>246.0</ele><time>2026-03-28T15:43:53.693Z</time></trkpt><trkpt lat="45.6337447" lon="10.5069325"><ele>246.0</ele><time>2026-03-28T15:43:54.694Z</time></trkpt><trkpt lat="45.6338236" lon="10.5069836"><ele>246.0</ele><time>2026-03-28T15:43:55.693Z</time></trkpt><trkpt lat="45.6339144" lon="10.5070427"><ele>246.0</ele><time>2026-03-28T15:43:56.693Z</time></trkpt><trkpt lat="45.6340133" lon="10.5071053"><ele>246.0</ele><time>2026-03-28T15:43:57.694Z</time></trkpt><trkpt lat="45.6341159" lon="10.5071687"><ele>246.0</ele><time>2026-03-28T15:43:58.693Z</time></trkpt><trkpt lat="45.6342195" lon="10.5072328"><ele>246.0</ele><time>2026-03-28T15:43:59.694Z</time></trkpt><trkpt lat="45.6343272" lon="10.5073002"><ele>246.0</ele><time>2026-03-28T15:44:00.693Z</time></trkpt><trkpt lat="45.6344307" lon="10.5073618"><ele>246.0</ele><time>2026-03-28T15:44:01.693Z</time></trkpt><trkpt lat="45.6345569" lon="10.5074364"><ele>246.0</ele><time>2026-03-28T15:44:02.693Z</time></trkpt><trkpt lat="45.6346798" lon="10.5075097"><ele>246.0</ele><time>2026-03-28T15:44:03.693Z</time></trkpt><trkpt lat="45.6347989" lon="10.5075831"><ele>244.25</ele><time>2026-03-28T15:44:04.694Z</time></trkpt><trkpt lat="45.6349287" lon="10.5076613"><ele>242.5</ele><time>2026-03-28T15:44:05.694Z</time></trkpt><trkpt lat="45.63505" lon="10.507735"><ele>240.75</ele><time>2026-03-28T15:44:06.693Z</time></trkpt><trkpt lat="45.6351674" lon="10.5078029"><ele>239.0</ele><time>2026-03-28T15:44:07.693Z</time></trkpt><trkpt lat="45.6352852" lon="10.5078655"><ele>240.25</ele><time>2026-03-28T15:44:08.693Z</time></trkpt><trkpt lat="45.6353997" lon="10.5079173"><ele>241.5</ele><time>2026-03-28T15:44:09.693Z</time></trkpt><trkpt lat="45.6355174" lon="10.5079592"><ele>242.75</ele><time>2026-03-28T15:44:10.693Z</time></trkpt><trkpt lat="45.6356355" lon="10.5079901"><ele>244.0</ele><time>2026-03-28T15:44:11.693Z</time></trkpt><trkpt lat="45.6357484" lon="10.5080105"><ele>244.0</ele><time>2026-03-28T15:44:12.694Z</time></trkpt><trkpt lat="45.6358734" lon="10.5080248"><ele>244.0</ele><time>2026-03-28T15:44:13.693Z</time></trkpt><trkpt lat="45.6359886" lon="10.5080282"><ele>244.0</ele><time>2026-03-28T15:44:14.694Z</time></trkpt><trkpt lat="45.6360952" lon="10.5080195"><ele>244.0</ele><time>2026-03-28T15:44:15.693Z</time></trkpt><trkpt lat="45.6361993" lon="10.5080005"><ele>243.6</ele><time>2026-03-28T15:44:16.694Z</time></trkpt><trkpt lat="45.6362934" lon="10.5079779"><ele>243.2</ele><time>2026-03-28T15:44:17.693Z</time></trkpt><trkpt lat="45.6363992" lon="10.5079439"><ele>242.79999999999998</ele><time>2026-03-28T15:44:18.694Z</time></trkpt><trkpt lat="45.6364918" lon="10.5079091"><ele>242.39999999999998</ele><time>2026-03-28T15:44:19.694Z</time></trkpt><trkpt lat="45.6365767" lon="10.5078732"><ele>242.0</ele><time>2026-03-28T15:44:20.694Z</time></trkpt><trkpt lat="45.6366704" lon="10.5078314"><ele>242.0</ele><time>2026-03-28T15:44:21.694Z</time></trkpt><trkpt lat="45.6367632" lon="10.5077892"><ele>242.0</ele><time>2026-03-28T15:44:22.694Z</time></trkpt><trkpt lat="45.6368574" lon="10.5077469"><ele>242.0</ele><time>2026-03-28T15:44:23.694Z</time></trkpt><trkpt lat="45.6369552" lon="10.507701"><ele>242.0</ele><time>2026-03-28T15:44:24.694Z</time></trkpt><trkpt lat="45.6370572" lon="10.5076527"><ele>242.0</ele><time>2026-03-28T15:44:25.693Z</time></trkpt><trkpt lat="45.637163" lon="10.5076032"><ele>242.0</ele><time>2026-03-28T15:44:26.693Z</time></trkpt><trkpt lat="45.6372683" lon="10.507554"><ele>242.0</ele><time>2026-03-28T15:44:27.694Z</time></trkpt><trkpt lat="45.6373696" lon="10.5075075"><ele>242.0</ele><time>2026-03-28T15:44:28.694Z</time></trkpt><trkpt lat="45.6374674" lon="10.5074623"><ele>242.0</ele><time>2026-03-28T15:44:29.693Z</time></trkpt><trkpt lat="45.6375637" lon="10.5074145"><ele>242.0</ele><time>2026-03-28T15:44:30.694Z</time></trkpt><trkpt lat="45.637662" lon="10.5073675"><ele>242.0</ele><time>2026-03-28T15:44:31.693Z</time></trkpt><trkpt lat="45.6377626" lon="10.50732"><ele>242.0</ele><time>2026-03-28T15:44:32.693Z</time></trkpt><trkpt lat="45.6378583" lon="10.5072743"><ele>242.0</ele><time>2026-03-28T15:44:33.693Z</time></trkpt><trkpt lat="45.6379704" lon="10.50722"><ele>242.0</ele><time>2026-03-28T15:44:34.693Z</time></trkpt><trkpt lat="45.6380754" lon="10.5071681"><ele>242.0</ele><time>2026-03-28T15:44:35.693Z</time></trkpt><trkpt lat="45.6381777" lon="10.5071165"><ele>241.6</ele><time>2026-03-28T15:44:36.693Z</time></trkpt><trkpt lat="45.6382786" lon="10.507066"><ele>241.2</ele><time>2026-03-28T15:44:37.694Z</time></trkpt><trkpt lat="45.6383746" lon="10.507019"><ele>240.8</ele><time>2026-03-28T15:44:38.694Z</time></trkpt><trkpt lat="45.638467" lon="10.5069741"><ele>240.4</ele><time>2026-03-28T15:44:39.693Z</time></trkpt><trkpt lat="45.6385491" lon="10.5069344"><ele>240.0</ele><time>2026-03-28T15:44:40.693Z</time></trkpt><trkpt lat="45.63862" lon="10.5069005"><ele>240.2</ele><time>2026-03-28T15:44:41.694Z</time></trkpt><trkpt lat="45.6386826" lon="10.5068723"><ele>240.4</ele><time>2026-03-28T15:44:42.694Z</time></trkpt><trkpt lat="45.6387956" lon="10.5068205"><ele>240.60000000000002</ele><time>2026-03-28T15:44:44.693Z</time></trkpt><trkpt lat="45.6389114" lon="10.5067688"><ele>240.8</ele><time>2026-03-28T15:44:46.694Z</time></trkpt><trkpt lat="45.6390277" lon="10.5067163"><ele>241.0</ele><time>2026-03-28T15:44:48.694Z</time></trkpt><trkpt lat="45.6391494" lon="10.5066586"><ele>241.0</ele><time>2026-03-28T15:44:50.694Z</time></trkpt><trkpt lat="45.6392193" lon="10.5066273"><ele>241.00000000000003</ele><time>2026-03-28T15:44:51.694Z</time></trkpt><trkpt lat="45.6392927" lon="10.5065938"><ele>241.00000000000003</ele><time>2026-03-28T15:44:52.694Z</time></trkpt><trkpt lat="45.6393834" lon="10.5065499"><ele>241.0</ele><time>2026-03-28T15:44:53.693Z</time></trkpt><trkpt lat="45.639475" lon="10.5065037"><ele>241.0</ele><time>2026-03-28T15:44:54.693Z</time></trkpt><trkpt lat="45.6395746" lon="10.5064494"><ele>241.20000000000002</ele><time>2026-03-28T15:44:55.694Z</time></trkpt><trkpt lat="45.6396705" lon="10.5063938"><ele>241.40000000000003</ele><time>2026-03-28T15:44:56.693Z</time></trkpt><trkpt lat="45.6397574" lon="10.5063388"><ele>241.6</ele><time>2026-03-28T15:44:57.694Z</time></trkpt><trkpt lat="45.6398397" lon="10.5062839"><ele>241.8</ele><time>2026-03-28T15:44:58.694Z</time></trkpt><trkpt lat="45.6399181" lon="10.5062281"><ele>242.0</ele><time>2026-03-28T15:44:59.694Z</time></trkpt><trkpt lat="45.6399885" lon="10.5061751"><ele>242.0</ele><time>2026-03-28T15:45:00.693Z</time></trkpt><trkpt lat="45.6400677" lon="10.5061131"><ele>242.0</ele><time>2026-03-28T15:45:01.693Z</time></trkpt><trkpt lat="45.6401446" lon="10.5060499"><ele>242.0</ele><time>2026-03-28T15:45:02.693Z</time></trkpt><trkpt lat="45.6402223" lon="10.5059865"><ele>242.0</ele><time>2026-03-28T15:45:03.693Z</time></trkpt><trkpt lat="45.6403054" lon="10.5059225"><ele>242.0</ele><time>2026-03-28T15:45:04.694Z</time></trkpt><trkpt lat="45.6403845" lon="10.5058603"><ele>244.0</ele><time>2026-03-28T15:45:05.693Z</time></trkpt><trkpt lat="45.6404812" lon="10.5057878"><ele>246.0</ele><time>2026-03-28T15:45:06.694Z</time></trkpt><trkpt lat="45.6405743" lon="10.5057253"><ele>248.0</ele><time>2026-03-28T15:45:07.694Z</time></trkpt><trkpt lat="45.6406646" lon="10.5056715"><ele>250.0</ele><time>2026-03-28T15:45:08.693Z</time></trkpt><trkpt lat="45.6407745" lon="10.5056166"><ele>252.0</ele><time>2026-03-28T15:45:09.693Z</time></trkpt><trkpt lat="45.6408868" lon="10.5055755"><ele>252.0</ele><time>2026-03-28T15:45:10.694Z</time></trkpt><trkpt lat="45.6409968" lon="10.5055267"><ele>252.0</ele><time>2026-03-28T15:45:11.693Z</time></trkpt><trkpt lat="45.6411067" lon="10.5054974"><ele>252.0</ele><time>2026-03-28T15:45:12.694Z</time></trkpt><trkpt lat="45.6412117" lon="10.5054971"><ele>252.0</ele><time>2026-03-28T15:45:13.693Z</time></trkpt><trkpt lat="45.6413116" lon="10.5054873"><ele>252.0</ele><time>2026-03-28T15:45:14.693Z</time></trkpt><trkpt lat="45.6414083" lon="10.5054759"><ele>253.8</ele><time>2026-03-28T15:45:15.693Z</time></trkpt><trkpt lat="45.6415004" lon="10.505466"><ele>255.6</ele><time>2026-03-28T15:45:16.694Z</time></trkpt><trkpt lat="45.6416058" lon="10.5054588"><ele>257.40000000000003</ele><time>2026-03-28T15:45:17.694Z</time></trkpt><trkpt lat="45.6417089" lon="10.5054549"><ele>259.2</ele><time>2026-03-28T15:45:18.694Z</time></trkpt><trkpt lat="45.641816" lon="10.5054447"><ele>261.0</ele><time>2026-03-28T15:45:19.694Z</time></trkpt><trkpt lat="45.6419281" lon="10.5054284"><ele>255.25</ele><time>2026-03-28T15:45:20.694Z</time></trkpt><trkpt lat="45.6420373" lon="10.5054111"><ele>249.5</ele><time>2026-03-28T15:45:21.693Z</time></trkpt><trkpt lat="45.6421612" lon="10.5054016"><ele>243.75</ele><time>2026-03-28T15:45:22.694Z</time></trkpt><trkpt lat="45.6422773" lon="10.5053923"><ele>238.0</ele><time>2026-03-28T15:45:23.694Z</time></trkpt><trkpt lat="45.6423928" lon="10.5053813"><ele>238.0</ele><time>2026-03-28T15:45:24.693Z</time></trkpt><trkpt lat="45.6425305" lon="10.5053689"><ele>238.0</ele><time>2026-03-28T15:45:25.693Z</time></trkpt><trkpt lat="45.6426577" lon="10.5053589"><ele>238.0</ele><time>2026-03-28T15:45:26.693Z</time></trkpt><trkpt lat="45.642782" lon="10.5053481"><ele>238.0</ele><time>2026-03-28T15:45:27.693Z</time></trkpt><trkpt lat="45.6429047" lon="10.505336"><ele>239.5</ele><time>2026-03-28T15:45:28.693Z</time></trkpt><trkpt lat="45.6430283" lon="10.5053236"><ele>241.0</ele><time>2026-03-28T15:45:29.693Z</time></trkpt><trkpt lat="45.6431554" lon="10.5053131"><ele>242.5</ele><time>2026-03-28T15:45:30.693Z</time></trkpt><trkpt lat="45.6432848" lon="10.5053006"><ele>244.0</ele><time>2026-03-28T15:45:31.693Z</time></trkpt><trkpt lat="45.6434062" lon="10.5052899"><ele>244.0</ele><time>2026-03-28T15:45:32.693Z</time></trkpt><trkpt lat="45.6435419" lon="10.5052761"><ele>244.0</ele><time>2026-03-28T15:45:33.693Z</time></trkpt><trkpt lat="45.6436711" lon="10.5052659"><ele>244.0</ele><time>2026-03-28T15:45:34.694Z</time></trkpt><trkpt lat="45.6438035" lon="10.5052548"><ele>244.0</ele><time>2026-03-28T15:45:35.694Z</time></trkpt><trkpt lat="45.6439396" lon="10.5052417"><ele>243.75</ele><time>2026-03-28T15:45:36.694Z</time></trkpt><trkpt lat="45.6440683" lon="10.5052243"><ele>243.5</ele><time>2026-03-28T15:45:37.694Z</time></trkpt><trkpt lat="45.6442135" lon="10.5052005"><ele>243.25</ele><time>2026-03-28T15:45:38.693Z</time></trkpt><trkpt lat="45.6443566" lon="10.5051917"><ele>243.0</ele><time>2026-03-28T15:45:39.694Z</time></trkpt><trkpt lat="45.6444861" lon="10.5051834"><ele>243.0</ele><time>2026-03-28T15:45:40.693Z</time></trkpt><trkpt lat="45.6446276" lon="10.5051713"><ele>243.0</ele><time>2026-03-28T15:45:41.693Z</time></trkpt><trkpt lat="45.6447538" lon="10.5051566"><ele>243.0</ele><time>2026-03-28T15:45:42.694Z</time></trkpt><trkpt lat="45.6448747" lon="10.5051372"><ele>243.0</ele><time>2026-03-28T15:45:43.694Z</time></trkpt><trkpt lat="45.6449938" lon="10.5051112"><ele>243.0</ele><time>2026-03-28T15:45:44.694Z</time></trkpt><trkpt lat="45.6451103" lon="10.5050692"><ele>243.0</ele><time>2026-03-28T15:45:45.693Z</time></trkpt><trkpt lat="45.6452243" lon="10.5050209"><ele>243.0</ele><time>2026-03-28T15:45:46.693Z</time></trkpt><trkpt lat="45.6453345" lon="10.5049682"><ele>243.0</ele><time>2026-03-28T15:45:47.693Z</time></trkpt><trkpt lat="45.6454336" lon="10.5049121"><ele>242.4</ele><time>2026-03-28T15:45:48.694Z</time></trkpt><trkpt lat="45.6455382" lon="10.5048381"><ele>241.8</ele><time>2026-03-28T15:45:49.694Z</time></trkpt><trkpt lat="45.6456266" lon="10.5047573"><ele>241.2</ele><time>2026-03-28T15:45:50.694Z</time></trkpt><trkpt lat="45.6457072" lon="10.5046648"><ele>240.6</ele><time>2026-03-28T15:45:51.694Z</time></trkpt><trkpt lat="45.6457762" lon="10.504559"><ele>240.0</ele><time>2026-03-28T15:45:52.693Z</time></trkpt><trkpt lat="45.6458356" lon="10.5044498"><ele>240.0</ele><time>2026-03-28T15:45:53.694Z</time></trkpt><trkpt lat="45.645896" lon="10.5043178"><ele>240.0</ele><time>2026-03-28T15:45:54.693Z</time></trkpt><trkpt lat="45.6459462" lon="10.5041905"><ele>240.0</ele><time>2026-03-28T15:45:55.694Z</time></trkpt><trkpt lat="45.6459905" lon="10.5040725"><ele>240.0</ele><time>2026-03-28T15:45:56.693Z</time></trkpt><trkpt lat="45.6460353" lon="10.5039401"><ele>240.0</ele><time>2026-03-28T15:45:57.694Z</time></trkpt><trkpt lat="45.6460758" lon="10.5038189"><ele>239.5</ele><time>2026-03-28T15:45:58.693Z</time></trkpt><trkpt lat="45.6461117" lon="10.5036994"><ele>239.0</ele><time>2026-03-28T15:45:59.693Z</time></trkpt><trkpt lat="45.6461419" lon="10.5035803"><ele>238.5</ele><time>2026-03-28T15:46:00.694Z</time></trkpt><trkpt lat="45.646169" lon="10.5034691"><ele>238.0</ele><time>2026-03-28T15:46:01.693Z</time></trkpt><trkpt lat="45.6461955" lon="10.5033663"><ele>237.5</ele><time>2026-03-28T15:46:02.694Z</time></trkpt><trkpt lat="45.6462174" lon="10.5032706"><ele>237.0</ele><time>2026-03-28T15:46:03.694Z</time></trkpt><trkpt lat="45.6462326" lon="10.5030902"><ele>237.71428571428567</ele><time>2026-03-28T15:46:05.693Z</time></trkpt><trkpt lat="45.6462221" lon="10.5029947"><ele>238.42857142857142</ele><time>2026-03-28T15:46:06.694Z</time></trkpt><trkpt lat="45.6462123" lon="10.5028995"><ele>239.1428571428571</ele><time>2026-03-28T15:46:07.694Z</time></trkpt><trkpt lat="45.6462075" lon="10.5027997"><ele>239.85714285714283</ele><time>2026-03-28T15:46:08.693Z</time></trkpt><trkpt lat="45.6462054" lon="10.5027026"><ele>240.57142857142856</ele><time>2026-03-28T15:46:09.693Z</time></trkpt><trkpt lat="45.6462044" lon="10.5025871"><ele>241.28571428571428</ele><time>2026-03-28T15:46:10.694Z</time></trkpt><trkpt lat="45.6462019" lon="10.5024698"><ele>242.0</ele><time>2026-03-28T15:46:11.693Z</time></trkpt><trkpt lat="45.6461995" lon="10.5023531"><ele>242.00000000000003</ele><time>2026-03-28T15:46:12.694Z</time></trkpt><trkpt lat="45.6461973" lon="10.5022207"><ele>242.0</ele><time>2026-03-28T15:46:13.693Z</time></trkpt><trkpt lat="45.6461951" lon="10.5021027"><ele>242.0</ele><time>2026-03-28T15:46:14.694Z</time></trkpt><trkpt lat="45.6461931" lon="10.5020003"><ele>242.0</ele><time>2026-03-28T15:46:15.693Z</time></trkpt><trkpt lat="45.64619" lon="10.5019086"><ele>242.00000000000003</ele><time>2026-03-28T15:46:16.693Z</time></trkpt><trkpt lat="45.6461876" lon="10.5017485"><ele>242.0</ele><time>2026-03-28T15:46:18.694Z</time></trkpt><trkpt lat="45.6461874" lon="10.5016239"><ele>243.16666666666669</ele><time>2026-03-28T15:46:20.694Z</time></trkpt><trkpt lat="45.6461898" lon="10.5014963"><ele>244.33333333333334</ele><time>2026-03-28T15:46:22.694Z</time></trkpt><trkpt lat="45.6461919" lon="10.5013478"><ele>245.5</ele><time>2026-03-28T15:46:24.693Z</time></trkpt><trkpt lat="45.6461912" lon="10.5012532"><ele>246.66666666666669</ele><time>2026-03-28T15:46:25.693Z</time></trkpt><trkpt lat="45.6461878" lon="10.5011462"><ele>247.83333333333334</ele><time>2026-03-28T15:46:26.693Z</time></trkpt><trkpt lat="45.646183" lon="10.50103"><ele>249.0</ele><time>2026-03-28T15:46:27.693Z</time></trkpt><trkpt lat="45.6461775" lon="10.5009099"><ele>250.6</ele><time>2026-03-28T15:46:28.694Z</time></trkpt><trkpt lat="45.6461722" lon="10.5007832"><ele>252.2</ele><time>2026-03-28T15:46:29.693Z</time></trkpt><trkpt lat="45.6461597" lon="10.5006393"><ele>253.79999999999998</ele><time>2026-03-28T15:46:30.694Z</time></trkpt><trkpt lat="45.6461488" lon="10.5005067"><ele>255.39999999999998</ele><time>2026-03-28T15:46:31.694Z</time></trkpt><trkpt lat="45.6461349" lon="10.5003684"><ele>257.0</ele><time>2026-03-28T15:46:32.694Z</time></trkpt><trkpt lat="45.6461199" lon="10.5002324"><ele>254.16666666666669</ele><time>2026-03-28T15:46:33.693Z</time></trkpt><trkpt lat="45.6461069" lon="10.5001181"><ele>251.33333333333334</ele><time>2026-03-28T15:46:34.693Z</time></trkpt><trkpt lat="45.6460928" lon="10.4999988"><ele>248.5</ele><time>2026-03-28T15:46:35.693Z</time></trkpt><trkpt lat="45.6460789" lon="10.4998837"><ele>245.66666666666669</ele><time>2026-03-28T15:46:36.694Z</time></trkpt><trkpt lat="45.6460665" lon="10.4997646"><ele>242.83333333333334</ele><time>2026-03-28T15:46:37.694Z</time></trkpt><trkpt lat="45.6460596" lon="10.4996368"><ele>240.0</ele><time>2026-03-28T15:46:38.694Z</time></trkpt><trkpt lat="45.6460602" lon="10.4995247"><ele>240.0</ele><time>2026-03-28T15:46:39.694Z</time></trkpt><trkpt lat="45.6460697" lon="10.4994047"><ele>240.0</ele><time>2026-03-28T15:46:40.694Z</time></trkpt><trkpt lat="45.6460871" lon="10.4992908"><ele>240.0</ele><time>2026-03-28T15:46:41.693Z</time></trkpt><trkpt lat="45.6461123" lon="10.4991777"><ele>240.0</ele><time>2026-03-28T15:46:42.693Z</time></trkpt><trkpt lat="45.6461417" lon="10.4990665"><ele>240.0</ele><time>2026-03-28T15:46:43.694Z</time></trkpt><trkpt lat="45.646174" lon="10.498952"><ele>240.0</ele><time>2026-03-28T15:46:44.693Z</time></trkpt><trkpt lat="45.6462081" lon="10.498839"><ele>241.4</ele><time>2026-03-28T15:46:45.694Z</time></trkpt><trkpt lat="45.6462443" lon="10.498722"><ele>242.8</ele><time>2026-03-28T15:46:46.694Z</time></trkpt><trkpt lat="45.6462825" lon="10.4986034"><ele>244.2</ele><time>2026-03-28T15:46:47.694Z</time></trkpt><trkpt lat="45.6463224" lon="10.498478"><ele>245.6</ele><time>2026-03-28T15:46:48.694Z</time></trkpt><trkpt lat="45.6463701" lon="10.4983435"><ele>247.0</ele><time>2026-03-28T15:46:49.693Z</time></trkpt><trkpt lat="45.6464171" lon="10.4982193"><ele>247.0</ele><time>2026-03-28T15:46:50.694Z</time></trkpt><trkpt lat="45.6464691" lon="10.4980837"><ele>247.0</ele><time>2026-03-28T15:46:51.694Z</time></trkpt><trkpt lat="45.6465236" lon="10.4979456"><ele>247.0</ele><time>2026-03-28T15:46:52.694Z</time></trkpt><trkpt lat="45.6465804" lon="10.4978051"><ele>247.0</ele><time>2026-03-28T15:46:53.693Z</time></trkpt><trkpt lat="45.6466383" lon="10.4976595"><ele>246.25</ele><time>2026-03-28T15:46:54.694Z</time></trkpt><trkpt lat="45.6466952" lon="10.497512"><ele>245.5</ele><time>2026-03-28T15:46:55.694Z</time></trkpt><trkpt lat="45.6467556" lon="10.4973707"><ele>244.75</ele><time>2026-03-28T15:46:56.693Z</time></trkpt><trkpt lat="45.6468094" lon="10.4972279"><ele>244.0</ele><time>2026-03-28T15:46:57.693Z</time></trkpt><trkpt lat="45.6468869" lon="10.4970984"><ele>245.75</ele><time>2026-03-28T15:46:58.694Z</time></trkpt><trkpt lat="45.6469636" lon="10.496962"><ele>247.5</ele><time>2026-03-28T15:46:59.693Z</time></trkpt><trkpt lat="45.6470441" lon="10.4968207"><ele>249.25</ele><time>2026-03-28T15:47:00.693Z</time></trkpt><trkpt lat="45.6471287" lon="10.4966727"><ele>251.0</ele><time>2026-03-28T15:47:01.693Z</time></trkpt><trkpt lat="45.6472176" lon="10.4965195"><ele>251.0</ele><time>2026-03-28T15:47:02.694Z</time></trkpt><trkpt lat="45.6473107" lon="10.496359"><ele>251.0</ele><time>2026-03-28T15:47:03.694Z</time></trkpt><trkpt lat="45.6474073" lon="10.4961938"><ele>251.0</ele><time>2026-03-28T15:47:04.694Z</time></trkpt><trkpt lat="45.6475038" lon="10.4960262"><ele>251.0</ele><time>2026-03-28T15:47:05.694Z</time></trkpt><trkpt lat="45.6475969" lon="10.4958642"><ele>252.0</ele><time>2026-03-28T15:47:06.694Z</time></trkpt><trkpt lat="45.6476863" lon="10.495709"><ele>253.0</ele><time>2026-03-28T15:47:07.693Z</time></trkpt><trkpt lat="45.6477737" lon="10.495557"><ele>254.0</ele><time>2026-03-28T15:47:08.693Z</time></trkpt><trkpt lat="45.6478609" lon="10.4954081"><ele>255.0</ele><time>2026-03-28T15:47:09.694Z</time></trkpt><trkpt lat="45.6479498" lon="10.49526"><ele>255.0</ele><time>2026-03-28T15:47:10.694Z</time></trkpt><trkpt lat="45.6480362" lon="10.4951137"><ele>255.0</ele><time>2026-03-28T15:47:11.693Z</time></trkpt><trkpt lat="45.6481197" lon="10.4949702"><ele>255.0</ele><time>2026-03-28T15:47:12.694Z</time></trkpt><trkpt lat="45.6481965" lon="10.4948402"><ele>255.0</ele><time>2026-03-28T15:47:13.694Z</time></trkpt><trkpt lat="45.6482781" lon="10.4946959"><ele>252.5</ele><time>2026-03-28T15:47:14.694Z</time></trkpt><trkpt lat="45.6483546" lon="10.4945571"><ele>250.0</ele><time>2026-03-28T15:47:15.694Z</time></trkpt><trkpt lat="45.648429" lon="10.4944186"><ele>247.5</ele><time>2026-03-28T15:47:16.694Z</time></trkpt><trkpt lat="45.648504" lon="10.4942682"><ele>245.0</ele><time>2026-03-28T15:47:17.694Z</time></trkpt><trkpt lat="45.6485795" lon="10.4940949"><ele>247.5</ele><time>2026-03-28T15:47:18.694Z</time></trkpt><trkpt lat="45.6486423" lon="10.4939277"><ele>250.0</ele><time>2026-03-28T15:47:19.694Z</time></trkpt><trkpt lat="45.6487025" lon="10.4937449"><ele>252.5</ele><time>2026-03-28T15:47:20.694Z</time></trkpt><trkpt lat="45.6487588" lon="10.4935572"><ele>255.0</ele><time>2026-03-28T15:47:21.694Z</time></trkpt><trkpt lat="45.6488113" lon="10.4933712"><ele>255.0</ele><time>2026-03-28T15:47:22.693Z</time></trkpt><trkpt lat="45.6488669" lon="10.4931787"><ele>255.0</ele><time>2026-03-28T15:47:23.693Z</time></trkpt><trkpt lat="45.6489224" lon="10.4929878"><ele>255.0</ele><time>2026-03-28T15:47:24.693Z</time></trkpt><trkpt lat="45.6489793" lon="10.4927947"><ele>255.0</ele><time>2026-03-28T15:47:25.694Z</time></trkpt><trkpt lat="45.6490399" lon="10.4925892"><ele>253.5</ele><time>2026-03-28T15:47:26.694Z</time></trkpt><trkpt lat="45.6490957" lon="10.4924022"><ele>252.0</ele><time>2026-03-28T15:47:27.693Z</time></trkpt><trkpt lat="45.649158" lon="10.4922045"><ele>250.5</ele><time>2026-03-28T15:47:28.694Z</time></trkpt><trkpt lat="45.6492175" lon="10.4920107"><ele>249.0</ele><time>2026-03-28T15:47:29.694Z</time></trkpt><trkpt lat="45.6492832" lon="10.4917895"><ele>248.0</ele><time>2026-03-28T15:47:30.694Z</time></trkpt><trkpt lat="45.6493411" lon="10.4915705"><ele>247.0</ele><time>2026-03-28T15:47:31.693Z</time></trkpt><trkpt lat="45.6493966" lon="10.4913491"><ele>246.0</ele><time>2026-03-28T15:47:32.694Z</time></trkpt><trkpt lat="45.6494475" lon="10.4911109"><ele>253.66666666666669</ele><time>2026-03-28T15:47:33.694Z</time></trkpt><trkpt lat="45.649492" lon="10.4908652"><ele>261.33333333333337</ele><time>2026-03-28T15:47:34.693Z</time></trkpt><trkpt lat="45.6495289" lon="10.490624"><ele>269.0</ele><time>2026-03-28T15:47:35.694Z</time></trkpt><trkpt lat="45.6495606" lon="10.4903898"><ele>269.0</ele><time>2026-03-28T15:47:36.694Z</time></trkpt><trkpt lat="45.6495867" lon="10.4901589"><ele>269.0</ele><time>2026-03-28T15:47:37.693Z</time></trkpt><trkpt lat="45.6496093" lon="10.4899235"><ele>269.0</ele><time>2026-03-28T15:47:38.693Z</time></trkpt><trkpt lat="45.6496332" lon="10.4896791"><ele>267.6666666666667</ele><time>2026-03-28T15:47:39.693Z</time></trkpt><trkpt lat="45.6496586" lon="10.4894304"><ele>266.3333333333333</ele><time>2026-03-28T15:47:40.693Z</time></trkpt><trkpt lat="45.6496816" lon="10.4891769"><ele>265.0</ele><time>2026-03-28T15:47:41.694Z</time></trkpt><trkpt lat="45.6497022" lon="10.4889204"><ele>263.0</ele><time>2026-03-28T15:47:42.694Z</time></trkpt><trkpt lat="45.6497214" lon="10.4886649"><ele>261.0</ele><time>2026-03-28T15:47:43.694Z</time></trkpt><trkpt lat="45.6497404" lon="10.4884159"><ele>259.0</ele><time>2026-03-28T15:47:44.694Z</time></trkpt><trkpt lat="45.6497575" lon="10.4881816"><ele>259.3333333333333</ele><time>2026-03-28T15:47:45.694Z</time></trkpt><trkpt lat="45.6497782" lon="10.4879088"><ele>259.6666666666667</ele><time>2026-03-28T15:47:46.693Z</time></trkpt><trkpt lat="45.6497981" lon="10.487656"><ele>260.0</ele><time>2026-03-28T15:47:47.694Z</time></trkpt><trkpt lat="45.6498152" lon="10.4874139"><ele>260.0</ele><time>2026-03-28T15:47:48.694Z</time></trkpt><trkpt lat="45.6498289" lon="10.4871765"><ele>260.0</ele><time>2026-03-28T15:47:49.694Z</time></trkpt><trkpt lat="45.6498368" lon="10.4869389"><ele>260.0</ele><time>2026-03-28T15:47:50.693Z</time></trkpt><trkpt lat="45.6498357" lon="10.4866976"><ele>261.6666666666667</ele><time>2026-03-28T15:47:51.694Z</time></trkpt><trkpt lat="45.6498285" lon="10.4864586"><ele>263.3333333333333</ele><time>2026-03-28T15:47:52.694Z</time></trkpt><trkpt lat="45.6498151" lon="10.4862231"><ele>265.0</ele><time>2026-03-28T15:47:53.694Z</time></trkpt><trkpt lat="45.6498031" lon="10.4859909"><ele>265.0</ele><time>2026-03-28T15:47:54.693Z</time></trkpt><trkpt lat="45.6497835" lon="10.4857641"><ele>265.0</ele><time>2026-03-28T15:47:55.694Z</time></trkpt><trkpt lat="45.6497706" lon="10.4855442"><ele>265.0</ele><time>2026-03-28T15:47:56.693Z</time></trkpt><trkpt lat="45.6497679" lon="10.4853205"><ele>265.0</ele><time>2026-03-28T15:47:57.693Z</time></trkpt><trkpt lat="45.6497694" lon="10.4850942"><ele>265.0</ele><time>2026-03-28T15:47:58.693Z</time></trkpt><trkpt lat="45.6497884" lon="10.484863"><ele>265.0</ele><time>2026-03-28T15:47:59.693Z</time></trkpt><trkpt lat="45.649811" lon="10.4846274"><ele>262.66666666666663</ele><time>2026-03-28T15:48:00.694Z</time></trkpt><trkpt lat="45.6498402" lon="10.4844055"><ele>260.3333333333333</ele><time>2026-03-28T15:48:01.694Z</time></trkpt><trkpt lat="45.6498787" lon="10.4841477"><ele>258.0</ele><time>2026-03-28T15:48:02.693Z</time></trkpt><trkpt lat="45.6499131" lon="10.4839021"><ele>257.0</ele><time>2026-03-28T15:48:03.693Z</time></trkpt><trkpt lat="45.6499488" lon="10.4836562"><ele>256.0</ele><time>2026-03-28T15:48:04.693Z</time></trkpt><trkpt lat="45.649986" lon="10.4834126"><ele>255.0</ele><time>2026-03-28T15:48:05.693Z</time></trkpt><trkpt lat="45.6500283" lon="10.4831719"><ele>255.0</ele><time>2026-03-28T15:48:06.694Z</time></trkpt><trkpt lat="45.6500775" lon="10.4829339"><ele>255.0</ele><time>2026-03-28T15:48:07.693Z</time></trkpt><trkpt lat="45.6501328" lon="10.4826977"><ele>255.0</ele><time>2026-03-28T15:48:08.693Z</time></trkpt><trkpt lat="45.6501986" lon="10.4824457"><ele>252.66666666666669</ele><time>2026-03-28T15:48:09.693Z</time></trkpt><trkpt lat="45.6502573" lon="10.4822226"><ele>250.33333333333334</ele><time>2026-03-28T15:48:10.693Z</time></trkpt><trkpt lat="45.6503221" lon="10.4819797"><ele>248.0</ele><time>2026-03-28T15:48:11.694Z</time></trkpt><trkpt lat="45.6503909" lon="10.4817352"><ele>253.0</ele><time>2026-03-28T15:48:12.693Z</time></trkpt><trkpt lat="45.6504601" lon="10.4814881"><ele>258.0</ele><time>2026-03-28T15:48:13.693Z</time></trkpt><trkpt lat="45.6505326" lon="10.4812404"><ele>263.0</ele><time>2026-03-28T15:48:14.694Z</time></trkpt><trkpt lat="45.6506094" lon="10.4809914"><ele>263.0</ele><time>2026-03-28T15:48:15.693Z</time></trkpt><trkpt lat="45.6506887" lon="10.4807438"><ele>263.0</ele><time>2026-03-28T15:48:16.693Z</time></trkpt><trkpt lat="45.650765" lon="10.4805099"><ele>263.0</ele><time>2026-03-28T15:48:17.693Z</time></trkpt><trkpt lat="45.6508495" lon="10.4802416"><ele>261.33333333333337</ele><time>2026-03-28T15:48:18.694Z</time></trkpt><trkpt lat="45.6509271" lon="10.4799962"><ele>259.6666666666667</ele><time>2026-03-28T15:48:19.694Z</time></trkpt><trkpt lat="45.6509977" lon="10.4797525"><ele>258.0</ele><time>2026-03-28T15:48:20.694Z</time></trkpt><trkpt lat="45.6510658" lon="10.4795138"><ele>255.0</ele><time>2026-03-28T15:48:21.693Z</time></trkpt><trkpt lat="45.6511203" lon="10.4792686"><ele>252.0</ele><time>2026-03-28T15:48:22.694Z</time></trkpt><trkpt lat="45.6511669" lon="10.4790219"><ele>249.0</ele><time>2026-03-28T15:48:23.694Z</time></trkpt><trkpt lat="45.6512082" lon="10.4787808"><ele>256.0</ele><time>2026-03-28T15:48:24.693Z</time></trkpt><trkpt lat="45.6512481" lon="10.4785331"><ele>263.0</ele><time>2026-03-28T15:48:25.694Z</time></trkpt><trkpt lat="45.6512815" lon="10.4783194"><ele>270.0</ele><time>2026-03-28T15:48:26.694Z</time></trkpt><trkpt lat="45.6513168" lon="10.4780909"><ele>269.0</ele><time>2026-03-28T15:48:27.694Z</time></trkpt><trkpt lat="45.6513515" lon="10.4778617"><ele>268.0</ele><time>2026-03-28T15:48:28.694Z</time></trkpt><trkpt lat="45.6513827" lon="10.4776354"><ele>267.0</ele><time>2026-03-28T15:48:29.693Z</time></trkpt><trkpt lat="45.6514039" lon="10.477404"><ele>267.0</ele><time>2026-03-28T15:48:30.693Z</time></trkpt><trkpt lat="45.651407" lon="10.4771804"><ele>267.0</ele><time>2026-03-28T15:48:31.694Z</time></trkpt><trkpt lat="45.6513964" lon="10.4769654"><ele>267.0</ele><time>2026-03-28T15:48:32.694Z</time></trkpt><trkpt lat="45.6513773" lon="10.4767693"><ele>267.0</ele><time>2026-03-28T15:48:33.694Z</time></trkpt><trkpt lat="45.6513307" lon="10.4765582"><ele>264.75</ele><time>2026-03-28T15:48:34.694Z</time></trkpt><trkpt lat="45.6512647" lon="10.4763699"><ele>262.5</ele><time>2026-03-28T15:48:35.693Z</time></trkpt><trkpt lat="45.6511817" lon="10.4761921"><ele>260.25</ele><time>2026-03-28T15:48:36.693Z</time></trkpt><trkpt lat="45.6510886" lon="10.4760253"><ele>258.0</ele><time>2026-03-28T15:48:37.693Z</time></trkpt><trkpt lat="45.6509963" lon="10.4758772"><ele>257.2</ele><time>2026-03-28T15:48:38.693Z</time></trkpt><trkpt lat="45.6509137" lon="10.4757502"><ele>256.4</ele><time>2026-03-28T15:48:39.694Z</time></trkpt><trkpt lat="45.6508433" lon="10.4756396"><ele>255.59999999999997</ele><time>2026-03-28T15:48:40.693Z</time></trkpt><trkpt lat="45.6507785" lon="10.4755276"><ele>254.79999999999998</ele><time>2026-03-28T15:48:41.694Z</time></trkpt><trkpt lat="45.6507301" lon="10.4754253"><ele>254.0</ele><time>2026-03-28T15:48:42.694Z</time></trkpt><trkpt lat="45.6506844" lon="10.4753133"><ele>254.0</ele><time>2026-03-28T15:48:43.694Z</time></trkpt><trkpt lat="45.6506382" lon="10.475207"><ele>253.99999999999997</ele><time>2026-03-28T15:48:44.694Z</time></trkpt><trkpt lat="45.6505764" lon="10.4751235"><ele>253.99999999999997</ele><time>2026-03-28T15:48:45.693Z</time></trkpt><trkpt lat="45.6504997" lon="10.4750655"><ele>254.0</ele><time>2026-03-28T15:48:46.694Z</time></trkpt><trkpt lat="45.6504046" lon="10.4750058"><ele>254.0</ele><time>2026-03-28T15:48:47.693Z</time></trkpt><trkpt lat="45.6502929" lon="10.4749286"><ele>253.66666666666669</ele><time>2026-03-28T15:48:48.693Z</time></trkpt><trkpt lat="45.6501685" lon="10.4748439"><ele>253.33333333333331</ele><time>2026-03-28T15:48:49.693Z</time></trkpt><trkpt lat="45.6499963" lon="10.4747376"><ele>253.0</ele><time>2026-03-28T15:48:50.693Z</time></trkpt><trkpt lat="45.6498161" lon="10.4746283"><ele>253.0</ele><time>2026-03-28T15:48:51.712Z</time></trkpt><trkpt lat="45.6496063" lon="10.4744983"><ele>253.0</ele><time>2026-03-28T15:48:52.712Z</time></trkpt><trkpt lat="45.6493877" lon="10.4743711"><ele>253.0</ele><time>2026-03-28T15:48:53.712Z</time></trkpt><trkpt lat="45.6491879" lon="10.4742587"><ele>253.0</ele><time>2026-03-28T15:48:54.713Z</time></trkpt><trkpt lat="45.6490008" lon="10.4741398"><ele>253.0</ele><time>2026-03-28T15:48:55.712Z</time></trkpt><trkpt lat="45.6488355" lon="10.4740119"><ele>253.0</ele><time>2026-03-28T15:48:56.712Z</time></trkpt><trkpt lat="45.6486924" lon="10.4738622"><ele>253.0</ele><time>2026-03-28T15:48:57.713Z</time></trkpt><trkpt lat="45.648559" lon="10.4736922"><ele>253.0</ele><time>2026-03-28T15:48:58.712Z</time></trkpt><trkpt lat="45.6484238" lon="10.4735095"><ele>253.0</ele><time>2026-03-28T15:48:59.712Z</time></trkpt><trkpt lat="45.648283" lon="10.4733214"><ele>253.0</ele><time>2026-03-28T15:49:00.713Z</time></trkpt><trkpt lat="45.6481408" lon="10.4731293"><ele>253.0</ele><time>2026-03-28T15:49:01.713Z</time></trkpt><trkpt lat="45.6479977" lon="10.472938"><ele>253.33333333333331</ele><time>2026-03-28T15:49:02.713Z</time></trkpt><trkpt lat="45.6478501" lon="10.4727404"><ele>253.66666666666669</ele><time>2026-03-28T15:49:03.712Z</time></trkpt><trkpt lat="45.6477016" lon="10.4725401"><ele>254.0</ele><time>2026-03-28T15:49:04.712Z</time></trkpt><trkpt lat="45.6475517" lon="10.4723391"><ele>254.0</ele><time>2026-03-28T15:49:05.711Z</time></trkpt><trkpt lat="45.6473952" lon="10.472138"><ele>254.0</ele><time>2026-03-28T15:49:06.712Z</time></trkpt><trkpt lat="45.6472337" lon="10.4719329"><ele>254.0</ele><time>2026-03-28T15:49:07.713Z</time></trkpt><trkpt lat="45.647071" lon="10.4717216"><ele>254.33333333333334</ele><time>2026-03-28T15:49:08.712Z</time></trkpt><trkpt lat="45.6469127" lon="10.4715221"><ele>254.66666666666669</ele><time>2026-03-28T15:49:09.713Z</time></trkpt><trkpt lat="45.646765" lon="10.4713323"><ele>255.0</ele><time>2026-03-28T15:49:10.712Z</time></trkpt><trkpt lat="45.6466245" lon="10.471145"><ele>256.0</ele><time>2026-03-28T15:49:11.712Z</time></trkpt><trkpt lat="45.646487" lon="10.4709555"><ele>257.0</ele><time>2026-03-28T15:49:12.713Z</time></trkpt><trkpt lat="45.6463549" lon="10.4707582"><ele>258.0</ele><time>2026-03-28T15:49:13.712Z</time></trkpt><trkpt lat="45.6462297" lon="10.4705426"><ele>257.3333333333333</ele><time>2026-03-28T15:49:14.713Z</time></trkpt><trkpt lat="45.6461099" lon="10.4703145"><ele>256.66666666666663</ele><time>2026-03-28T15:49:15.712Z</time></trkpt><trkpt lat="45.645991" lon="10.4700738"><ele>256.0</ele><time>2026-03-28T15:49:16.712Z</time></trkpt><trkpt lat="45.6458694" lon="10.4698233"><ele>258.66666666666663</ele><time>2026-03-28T15:49:17.713Z</time></trkpt><trkpt lat="45.6457462" lon="10.4695669"><ele>261.3333333333333</ele><time>2026-03-28T15:49:18.712Z</time></trkpt><trkpt lat="45.6456205" lon="10.4693053"><ele>264.0</ele><time>2026-03-28T15:49:19.713Z</time></trkpt><trkpt lat="45.6454994" lon="10.4690591"><ele>264.0</ele><time>2026-03-28T15:49:20.712Z</time></trkpt><trkpt lat="45.645383" lon="10.4688197"><ele>264.0</ele><time>2026-03-28T15:49:21.712Z</time></trkpt><trkpt lat="45.6452612" lon="10.4685819"><ele>264.0</ele><time>2026-03-28T15:49:22.712Z</time></trkpt><trkpt lat="45.6451889" lon="10.4683931"><ele>264.3333333333333</ele><time>2026-03-28T15:49:23.692Z</time></trkpt><trkpt lat="45.6450595" lon="10.4681566"><ele>264.66666666666663</ele><time>2026-03-28T15:49:24.692Z</time></trkpt><trkpt lat="45.6449235" lon="10.4679199"><ele>265.0</ele><time>2026-03-28T15:49:25.692Z</time></trkpt><trkpt lat="45.6447829" lon="10.4676801"><ele>265.0</ele><time>2026-03-28T15:49:26.692Z</time></trkpt><trkpt lat="45.6446368" lon="10.4674378"><ele>265.0</ele><time>2026-03-28T15:49:27.696Z</time></trkpt><trkpt lat="45.6444983" lon="10.4671817"><ele>262.0</ele><time>2026-03-28T15:49:28.691Z</time></trkpt><trkpt lat="45.6443502" lon="10.4669025"><ele>259.0</ele><time>2026-03-28T15:49:29.691Z</time></trkpt><trkpt lat="45.6441309" lon="10.4666392"><ele>259.0</ele><time>2026-03-28T15:49:30.712Z</time></trkpt><trkpt lat="45.6439914" lon="10.4664111"><ele>259.0</ele><time>2026-03-28T15:49:31.712Z</time></trkpt><trkpt lat="45.6438604" lon="10.4661942"><ele>259.0</ele><time>2026-03-28T15:49:32.712Z</time></trkpt><trkpt lat="45.643745" lon="10.4659852"><ele>260.3333333333333</ele><time>2026-03-28T15:49:33.712Z</time></trkpt><trkpt lat="45.6436514" lon="10.4657728"><ele>261.6666666666667</ele><time>2026-03-28T15:49:34.712Z</time></trkpt><trkpt lat="45.6435719" lon="10.4655297"><ele>263.0</ele><time>2026-03-28T15:49:35.712Z</time></trkpt><trkpt lat="45.6435064" lon="10.4652695"><ele>260.33333333333337</ele><time>2026-03-28T15:49:36.712Z</time></trkpt><trkpt lat="45.6434517" lon="10.4649999"><ele>257.6666666666667</ele><time>2026-03-28T15:49:37.712Z</time></trkpt><trkpt lat="45.6434078" lon="10.464753"><ele>255.0</ele><time>2026-03-28T15:49:38.713Z</time></trkpt><trkpt lat="45.64337" lon="10.4645249"><ele>255.0</ele><time>2026-03-28T15:49:39.713Z</time></trkpt><trkpt lat="45.6433429" lon="10.4643063"><ele>255.0</ele><time>2026-03-28T15:49:40.713Z</time></trkpt><trkpt lat="45.6433344" lon="10.4641522"><ele>255.0</ele><time>2026-03-28T15:49:41.712Z</time></trkpt><trkpt lat="45.6433472" lon="10.4639939"><ele>255.0</ele><time>2026-03-28T15:49:42.713Z</time></trkpt><trkpt lat="45.6433851" lon="10.4638558"><ele>255.2</ele><time>2026-03-28T15:49:43.713Z</time></trkpt><trkpt lat="45.6434372" lon="10.4637426"><ele>255.4</ele><time>2026-03-28T15:49:44.712Z</time></trkpt><trkpt lat="45.643477" lon="10.4636282"><ele>255.60000000000002</ele><time>2026-03-28T15:49:45.712Z</time></trkpt><trkpt lat="45.6434894" lon="10.4634935"><ele>255.8</ele><time>2026-03-28T15:49:46.713Z</time></trkpt><trkpt lat="45.6434647" lon="10.4633666"><ele>256.0</ele><time>2026-03-28T15:49:47.713Z</time></trkpt><trkpt lat="45.6434077" lon="10.4632494"><ele>256.0</ele><time>2026-03-28T15:49:48.713Z</time></trkpt><trkpt lat="45.6433392" lon="10.4631234"><ele>256.0</ele><time>2026-03-28T15:49:49.713Z</time></trkpt><trkpt lat="45.6432907" lon="10.4629728"><ele>256.0</ele><time>2026-03-28T15:49:50.713Z</time></trkpt><trkpt lat="45.6432653" lon="10.4627899"><ele>256.0</ele><time>2026-03-28T15:49:51.712Z</time></trkpt><trkpt lat="45.6432616" lon="10.4625774"><ele>256.66666666666663</ele><time>2026-03-28T15:49:52.713Z</time></trkpt><trkpt lat="45.6432658" lon="10.4623315"><ele>257.3333333333333</ele><time>2026-03-28T15:49:53.712Z</time></trkpt><trkpt lat="45.6432769" lon="10.4620677"><ele>258.0</ele><time>2026-03-28T15:49:54.713Z</time></trkpt><trkpt lat="45.6432883" lon="10.4618217"><ele>258.25</ele><time>2026-03-28T15:49:55.713Z</time></trkpt><trkpt lat="45.6432934" lon="10.4616104"><ele>258.5</ele><time>2026-03-28T15:49:56.713Z</time></trkpt><trkpt lat="45.6433014" lon="10.4614265"><ele>258.75</ele><time>2026-03-28T15:49:57.712Z</time></trkpt><trkpt lat="45.6433191" lon="10.4612754"><ele>259.0</ele><time>2026-03-28T15:49:58.713Z</time></trkpt><trkpt lat="45.6433574" lon="10.4611591"><ele>259.0</ele><time>2026-03-28T15:49:59.713Z</time></trkpt><trkpt lat="45.6434084" lon="10.4610539"><ele>259.0</ele><time>2026-03-28T15:50:00.713Z</time></trkpt><trkpt lat="45.6434527" lon="10.4609568"><ele>259.0</ele><time>2026-03-28T15:50:01.712Z</time></trkpt><trkpt lat="45.643479" lon="10.4608512"><ele>259.0</ele><time>2026-03-28T15:50:02.713Z</time></trkpt><trkpt lat="45.6434767" lon="10.4607353"><ele>259.0</ele><time>2026-03-28T15:50:03.713Z</time></trkpt><trkpt lat="45.6434604" lon="10.4606156"><ele>259.0</ele><time>2026-03-28T15:50:04.713Z</time></trkpt><trkpt lat="45.643456" lon="10.460492"><ele>258.59999999999997</ele><time>2026-03-28T15:50:05.712Z</time></trkpt><trkpt lat="45.643476" lon="10.4603704"><ele>258.2</ele><time>2026-03-28T15:50:06.712Z</time></trkpt><trkpt lat="45.6435242" lon="10.4602623"><ele>257.79999999999995</ele><time>2026-03-28T15:50:07.713Z</time></trkpt><trkpt lat="45.6435918" lon="10.4601669"><ele>257.4</ele><time>2026-03-28T15:50:08.713Z</time></trkpt><trkpt lat="45.6436609" lon="10.4600798"><ele>257.0</ele><time>2026-03-28T15:50:09.712Z</time></trkpt><trkpt lat="45.6437372" lon="10.4599882"><ele>258.0</ele><time>2026-03-28T15:50:10.712Z</time></trkpt><trkpt lat="45.6438152" lon="10.4598818"><ele>259.0</ele><time>2026-03-28T15:50:11.712Z</time></trkpt><trkpt lat="45.6438916" lon="10.4597544"><ele>260.0</ele><time>2026-03-28T15:50:12.712Z</time></trkpt><trkpt lat="45.6439669" lon="10.459612"><ele>261.0</ele><time>2026-03-28T15:50:13.712Z</time></trkpt><trkpt lat="45.6440471" lon="10.4594574"><ele>261.0</ele><time>2026-03-28T15:50:14.713Z</time></trkpt><trkpt lat="45.6441293" lon="10.4592982"><ele>261.0</ele><time>2026-03-28T15:50:15.713Z</time></trkpt><trkpt lat="45.6442111" lon="10.4591353"><ele>261.0</ele><time>2026-03-28T15:50:16.712Z</time></trkpt><trkpt lat="45.6442956" lon="10.4589744"><ele>261.0</ele><time>2026-03-28T15:50:17.712Z</time></trkpt><trkpt lat="45.6443859" lon="10.4588043"><ele>262.6666666666667</ele><time>2026-03-28T15:50:18.713Z</time></trkpt><trkpt lat="45.6444768" lon="10.4586303"><ele>264.33333333333337</ele><time>2026-03-28T15:50:19.713Z</time></trkpt><trkpt lat="45.6446181" lon="10.4585111"><ele>266.0</ele><time>2026-03-28T15:50:20.694Z</time></trkpt><trkpt lat="45.6447091" lon="10.4583351"><ele>266.0</ele><time>2026-03-28T15:50:21.693Z</time></trkpt><trkpt lat="45.6447999" lon="10.4581602"><ele>266.0</ele><time>2026-03-28T15:50:22.694Z</time></trkpt><trkpt lat="45.644895" lon="10.4579818"><ele>266.0</ele><time>2026-03-28T15:50:23.693Z</time></trkpt><trkpt lat="45.6449903" lon="10.4577954"><ele>265.0</ele><time>2026-03-28T15:50:24.691Z</time></trkpt><trkpt lat="45.6450826" lon="10.4576148"><ele>264.0</ele><time>2026-03-28T15:50:25.692Z</time></trkpt><trkpt lat="45.6451872" lon="10.457397"><ele>263.0</ele><time>2026-03-28T15:50:26.692Z</time></trkpt><trkpt lat="45.6452847" lon="10.4571859"><ele>265.0</ele><time>2026-03-28T15:50:27.693Z</time></trkpt><trkpt lat="45.6453807" lon="10.4569705"><ele>267.0</ele><time>2026-03-28T15:50:28.693Z</time></trkpt><trkpt lat="45.6454725" lon="10.4567522"><ele>269.0</ele><time>2026-03-28T15:50:29.693Z</time></trkpt><trkpt lat="45.6455565" lon="10.4565327"><ele>269.0</ele><time>2026-03-28T15:50:30.692Z</time></trkpt><trkpt lat="45.6456363" lon="10.456311"><ele>269.0</ele><time>2026-03-28T15:50:31.693Z</time></trkpt><trkpt lat="45.6457127" lon="10.4560904"><ele>269.0</ele><time>2026-03-28T15:50:32.692Z</time></trkpt><trkpt lat="45.6457909" lon="10.4558547"><ele>268.33333333333337</ele><time>2026-03-28T15:50:33.692Z</time></trkpt><trkpt lat="45.6458602" lon="10.4556448"><ele>267.6666666666667</ele><time>2026-03-28T15:50:34.692Z</time></trkpt><trkpt lat="45.6459349" lon="10.4554159"><ele>267.0</ele><time>2026-03-28T15:50:35.692Z</time></trkpt><trkpt lat="45.6460111" lon="10.4551856"><ele>266.6666666666667</ele><time>2026-03-28T15:50:36.692Z</time></trkpt><trkpt lat="45.6460862" lon="10.4549555"><ele>266.33333333333337</ele><time>2026-03-28T15:50:37.693Z</time></trkpt><trkpt lat="45.6461607" lon="10.454726"><ele>266.0</ele><time>2026-03-28T15:50:38.692Z</time></trkpt><trkpt lat="45.6462339" lon="10.4545025"><ele>268.6666666666667</ele><time>2026-03-28T15:50:39.692Z</time></trkpt><trkpt lat="45.6463079" lon="10.454278"><ele>271.3333333333333</ele><time>2026-03-28T15:50:40.693Z</time></trkpt><trkpt lat="45.646379" lon="10.4540675"><ele>274.0</ele><time>2026-03-28T15:50:41.693Z</time></trkpt><trkpt lat="45.6464563" lon="10.4538286"><ele>271.66666666666663</ele><time>2026-03-28T15:50:42.692Z</time></trkpt><trkpt lat="45.6465319" lon="10.4536022"><ele>269.3333333333333</ele><time>2026-03-28T15:50:43.692Z</time></trkpt><trkpt lat="45.6466054" lon="10.4533816"><ele>267.0</ele><time>2026-03-28T15:50:44.692Z</time></trkpt><trkpt lat="45.6466829" lon="10.4531519"><ele>266.6666666666667</ele><time>2026-03-28T15:50:45.692Z</time></trkpt><trkpt lat="45.6467615" lon="10.4529182"><ele>266.33333333333337</ele><time>2026-03-28T15:50:46.692Z</time></trkpt><trkpt lat="45.6468416" lon="10.4526735"><ele>266.0</ele><time>2026-03-28T15:50:47.693Z</time></trkpt><trkpt lat="45.646921" lon="10.4524386"><ele>271.0</ele><time>2026-03-28T15:50:48.692Z</time></trkpt><trkpt lat="45.6469969" lon="10.4522077"><ele>276.0</ele><time>2026-03-28T15:50:49.693Z</time></trkpt><trkpt lat="45.6470641" lon="10.4519853"><ele>281.0</ele><time>2026-03-28T15:50:50.692Z</time></trkpt><trkpt lat="45.6471235" lon="10.4517545"><ele>281.0</ele><time>2026-03-28T15:50:51.692Z</time></trkpt><trkpt lat="45.6471827" lon="10.4515267"><ele>281.0</ele><time>2026-03-28T15:50:52.693Z</time></trkpt><trkpt lat="45.6472409" lon="10.4512944"><ele>281.0</ele><time>2026-03-28T15:50:53.693Z</time></trkpt><trkpt lat="45.6472966" lon="10.4510652"><ele>280.0</ele><time>2026-03-28T15:50:54.693Z</time></trkpt><trkpt lat="45.6473514" lon="10.45084"><ele>279.0</ele><time>2026-03-28T15:50:55.693Z</time></trkpt><trkpt lat="45.6474084" lon="10.4506227"><ele>278.0</ele><time>2026-03-28T15:50:56.693Z</time></trkpt><trkpt lat="45.6474665" lon="10.4504154"><ele>275.6666666666667</ele><time>2026-03-28T15:50:57.693Z</time></trkpt><trkpt lat="45.6475363" lon="10.4501856"><ele>273.3333333333333</ele><time>2026-03-28T15:50:58.693Z</time></trkpt><trkpt lat="45.6476078" lon="10.4499697"><ele>271.0</ele><time>2026-03-28T15:50:59.693Z</time></trkpt><trkpt lat="45.6476764" lon="10.4497811"><ele>269.3333333333333</ele><time>2026-03-28T15:51:00.693Z</time></trkpt><trkpt lat="45.6477589" lon="10.4495817"><ele>267.6666666666667</ele><time>2026-03-28T15:51:01.692Z</time></trkpt><trkpt lat="45.6478453" lon="10.4494063"><ele>266.0</ele><time>2026-03-28T15:51:02.693Z</time></trkpt><trkpt lat="45.6479466" lon="10.4492475"><ele>271.0</ele><time>2026-03-28T15:51:03.693Z</time></trkpt><trkpt lat="45.6480632" lon="10.4491044"><ele>276.0</ele><time>2026-03-28T15:51:04.693Z</time></trkpt><trkpt lat="45.6481921" lon="10.4489796"><ele>281.0</ele><time>2026-03-28T15:51:05.692Z</time></trkpt><trkpt lat="45.6483267" lon="10.4488701"><ele>281.0</ele><time>2026-03-28T15:51:06.693Z</time></trkpt><trkpt lat="45.64846" lon="10.448774"><ele>281.0</ele><time>2026-03-28T15:51:07.692Z</time></trkpt><trkpt lat="45.6485851" lon="10.4486922"><ele>281.0</ele><time>2026-03-28T15:51:08.693Z</time></trkpt><trkpt lat="45.648724" lon="10.4486214"><ele>281.0</ele><time>2026-03-28T15:51:09.693Z</time></trkpt><trkpt lat="45.6488528" lon="10.4485559"><ele>281.0</ele><time>2026-03-28T15:51:10.693Z</time></trkpt><trkpt lat="45.6489743" lon="10.4484872"><ele>281.0</ele><time>2026-03-28T15:51:11.693Z</time></trkpt><trkpt lat="45.6491067" lon="10.4484315"><ele>281.0</ele><time>2026-03-28T15:51:12.692Z</time></trkpt><trkpt lat="45.6492276" lon="10.4483845"><ele>281.0</ele><time>2026-03-28T15:51:13.692Z</time></trkpt><trkpt lat="45.6493636" lon="10.4483201"><ele>276.75</ele><time>2026-03-28T15:51:14.693Z</time></trkpt><trkpt lat="45.6494861" lon="10.4482463"><ele>272.5</ele><time>2026-03-28T15:51:15.693Z</time></trkpt><trkpt lat="45.6495998" lon="10.4481567"><ele>268.25</ele><time>2026-03-28T15:51:16.693Z</time></trkpt><trkpt lat="45.6497313" lon="10.4480439"><ele>264.0</ele><time>2026-03-28T15:51:17.692Z</time></trkpt><trkpt lat="45.6498588" lon="10.4479204"><ele>264.0</ele><time>2026-03-28T15:51:18.692Z</time></trkpt><trkpt lat="45.6499874" lon="10.4477919"><ele>264.0</ele><time>2026-03-28T15:51:19.692Z</time></trkpt><trkpt lat="45.6501062" lon="10.447658"><ele>264.0</ele><time>2026-03-28T15:51:20.693Z</time></trkpt><trkpt lat="45.6502163" lon="10.4474995"><ele>266.0</ele><time>2026-03-28T15:51:21.692Z</time></trkpt><trkpt lat="45.6503028" lon="10.4473342"><ele>268.0</ele><time>2026-03-28T15:51:22.693Z</time></trkpt><trkpt lat="45.6503773" lon="10.4471427"><ele>270.0</ele><time>2026-03-28T15:51:23.692Z</time></trkpt><trkpt lat="45.650434" lon="10.4469421"><ele>272.0</ele><time>2026-03-28T15:51:24.692Z</time></trkpt><trkpt lat="45.6504841" lon="10.446704"><ele>272.0</ele><time>2026-03-28T15:51:25.692Z</time></trkpt><trkpt lat="45.6505253" lon="10.4464707"><ele>272.0</ele><time>2026-03-28T15:51:26.693Z</time></trkpt><trkpt lat="45.6505662" lon="10.4462345"><ele>272.0</ele><time>2026-03-28T15:51:27.692Z</time></trkpt><trkpt lat="45.6506045" lon="10.4459998"><ele>271.0</ele><time>2026-03-28T15:51:28.692Z</time></trkpt><trkpt lat="45.6506387" lon="10.4457823"><ele>270.0</ele><time>2026-03-28T15:51:29.693Z</time></trkpt><trkpt lat="45.6506787" lon="10.4455343"><ele>269.0</ele><time>2026-03-28T15:51:30.692Z</time></trkpt><trkpt lat="45.6507164" lon="10.4452989"><ele>267.6666666666667</ele><time>2026-03-28T15:51:31.692Z</time></trkpt><trkpt lat="45.6507518" lon="10.4450774"><ele>266.3333333333333</ele><time>2026-03-28T15:51:32.692Z</time></trkpt><trkpt lat="45.650791" lon="10.4448232"><ele>265.0</ele><time>2026-03-28T15:51:33.693Z</time></trkpt><trkpt lat="45.6508268" lon="10.4445902"><ele>264.3333333333333</ele><time>2026-03-28T15:51:34.693Z</time></trkpt><trkpt lat="45.6508607" lon="10.4443569"><ele>263.6666666666667</ele><time>2026-03-28T15:51:35.693Z</time></trkpt><trkpt lat="45.650891" lon="10.4441259"><ele>263.0</ele><time>2026-03-28T15:51:36.692Z</time></trkpt><trkpt lat="45.6509147" lon="10.4438908"><ele>262.6666666666667</ele><time>2026-03-28T15:51:37.693Z</time></trkpt><trkpt lat="45.6509308" lon="10.4436584"><ele>262.3333333333333</ele><time>2026-03-28T15:51:38.692Z</time></trkpt><trkpt lat="45.6509423" lon="10.4434159"><ele>262.0</ele><time>2026-03-28T15:51:39.692Z</time></trkpt><trkpt lat="45.6509479" lon="10.4431851"><ele>263.3333333333333</ele><time>2026-03-28T15:51:40.693Z</time></trkpt><trkpt lat="45.6509499" lon="10.442914"><ele>264.6666666666667</ele><time>2026-03-28T15:51:41.693Z</time></trkpt><trkpt lat="45.650947" lon="10.4426546"><ele>266.0</ele><time>2026-03-28T15:51:42.692Z</time></trkpt><trkpt lat="45.6509389" lon="10.4424021"><ele>266.0</ele><time>2026-03-28T15:51:43.692Z</time></trkpt><trkpt lat="45.6509258" lon="10.4421638"><ele>266.0</ele><time>2026-03-28T15:51:44.693Z</time></trkpt><trkpt lat="45.6509083" lon="10.4419496"><ele>266.0</ele><time>2026-03-28T15:51:45.692Z</time></trkpt><trkpt lat="45.6508839" lon="10.4417064"><ele>266.6666666666667</ele><time>2026-03-28T15:51:46.693Z</time></trkpt><trkpt lat="45.650854" lon="10.4414741"><ele>267.3333333333333</ele><time>2026-03-28T15:51:47.692Z</time></trkpt><trkpt lat="45.6508225" lon="10.4412516"><ele>268.0</ele><time>2026-03-28T15:51:48.693Z</time></trkpt><trkpt lat="45.6507824" lon="10.4409932"><ele>269.3333333333333</ele><time>2026-03-28T15:51:49.693Z</time></trkpt><trkpt lat="45.6507425" lon="10.4407491"><ele>270.6666666666667</ele><time>2026-03-28T15:51:50.693Z</time></trkpt><trkpt lat="45.6507039" lon="10.4405171"><ele>272.0</ele><time>2026-03-28T15:51:51.692Z</time></trkpt><trkpt lat="45.6506667" lon="10.4402984"><ele>272.6666666666667</ele><time>2026-03-28T15:51:52.692Z</time></trkpt><trkpt lat="45.6506296" lon="10.4400797"><ele>273.3333333333333</ele><time>2026-03-28T15:51:53.693Z</time></trkpt><trkpt lat="45.6505919" lon="10.4398587"><ele>274.0</ele><time>2026-03-28T15:51:54.692Z</time></trkpt><trkpt lat="45.6505545" lon="10.4396343"><ele>273.66666666666663</ele><time>2026-03-28T15:51:55.692Z</time></trkpt><trkpt lat="45.6505214" lon="10.439426"><ele>273.3333333333333</ele><time>2026-03-28T15:51:56.692Z</time></trkpt><trkpt lat="45.6504798" lon="10.4391846"><ele>273.0</ele><time>2026-03-28T15:51:57.693Z</time></trkpt><trkpt lat="45.6504424" lon="10.4389626"><ele>273.3333333333333</ele><time>2026-03-28T15:51:58.693Z</time></trkpt><trkpt lat="45.6504056" lon="10.4387397"><ele>273.66666666666663</ele><time>2026-03-28T15:51:59.692Z</time></trkpt><trkpt lat="45.6503678" lon="10.4385213"><ele>274.0</ele><time>2026-03-28T15:52:00.693Z</time></trkpt><trkpt lat="45.6503345" lon="10.4383171"><ele>274.0</ele><time>2026-03-28T15:52:01.692Z</time></trkpt><trkpt lat="45.6502984" lon="10.4380882"><ele>274.0</ele><time>2026-03-28T15:52:02.693Z</time></trkpt><trkpt lat="45.6502715" lon="10.437876"><ele>274.0</ele><time>2026-03-28T15:52:03.692Z</time></trkpt><trkpt lat="45.6502503" lon="10.4376792"><ele>271.3333333333333</ele><time>2026-03-28T15:52:04.692Z</time></trkpt><trkpt lat="45.6502346" lon="10.4374531"><ele>268.6666666666667</ele><time>2026-03-28T15:52:05.693Z</time></trkpt><trkpt lat="45.6502251" lon="10.4372374"><ele>266.0</ele><time>2026-03-28T15:52:06.692Z</time></trkpt><trkpt lat="45.6502251" lon="10.4370147"><ele>266.0</ele><time>2026-03-28T15:52:07.692Z</time></trkpt><trkpt lat="45.6502353" lon="10.436789"><ele>266.0</ele><time>2026-03-28T15:52:08.693Z</time></trkpt><trkpt lat="45.6502559" lon="10.4365631"><ele>266.0</ele><time>2026-03-28T15:52:09.692Z</time></trkpt><trkpt lat="45.6502856" lon="10.4363482"><ele>268.5</ele><time>2026-03-28T15:52:10.692Z</time></trkpt><trkpt lat="45.6503182" lon="10.4361463"><ele>271.0</ele><time>2026-03-28T15:52:11.692Z</time></trkpt><trkpt lat="45.6503499" lon="10.4359684"><ele>273.5</ele><time>2026-03-28T15:52:12.693Z</time></trkpt><trkpt lat="45.6504025" lon="10.4357694"><ele>276.0</ele><time>2026-03-28T15:52:13.693Z</time></trkpt><trkpt lat="45.6504504" lon="10.4355813"><ele>275.0</ele><time>2026-03-28T15:52:14.693Z</time></trkpt><trkpt lat="45.6505103" lon="10.4353995"><ele>274.0</ele><time>2026-03-28T15:52:15.693Z</time></trkpt><trkpt lat="45.6505747" lon="10.4352192"><ele>273.0</ele><time>2026-03-28T15:52:16.692Z</time></trkpt><trkpt lat="45.6506444" lon="10.4350569"><ele>272.0</ele><time>2026-03-28T15:52:17.693Z</time></trkpt><trkpt lat="45.6507252" lon="10.4348758"><ele>272.0</ele><time>2026-03-28T15:52:18.693Z</time></trkpt><trkpt lat="45.6507981" lon="10.4347059"><ele>272.0</ele><time>2026-03-28T15:52:19.693Z</time></trkpt><trkpt lat="45.6508673" lon="10.4345474"><ele>272.0</ele><time>2026-03-28T15:52:20.692Z</time></trkpt><trkpt lat="45.6509553" lon="10.4343765"><ele>272.0</ele><time>2026-03-28T15:52:21.693Z</time></trkpt><trkpt lat="45.6510312" lon="10.4342217"><ele>273.0</ele><time>2026-03-28T15:52:22.693Z</time></trkpt><trkpt lat="45.6511086" lon="10.4340667"><ele>274.0</ele><time>2026-03-28T15:52:23.692Z</time></trkpt><trkpt lat="45.6511868" lon="10.4339115"><ele>275.0</ele><time>2026-03-28T15:52:24.692Z</time></trkpt><trkpt lat="45.6512632" lon="10.4337546"><ele>276.0</ele><time>2026-03-28T15:52:25.693Z</time></trkpt><trkpt lat="45.6513412" lon="10.4335982"><ele>276.0</ele><time>2026-03-28T15:52:26.692Z</time></trkpt><trkpt lat="45.651419" lon="10.4334404"><ele>276.0</ele><time>2026-03-28T15:52:27.692Z</time></trkpt><trkpt lat="45.6514915" lon="10.433292"><ele>276.0</ele><time>2026-03-28T15:52:28.693Z</time></trkpt><trkpt lat="45.6515746" lon="10.4331256"><ele>276.0</ele><time>2026-03-28T15:52:29.693Z</time></trkpt><trkpt lat="45.6516498" lon="10.4329728"><ele>275.0</ele><time>2026-03-28T15:52:30.692Z</time></trkpt><trkpt lat="45.6517196" lon="10.4328278"><ele>274.0</ele><time>2026-03-28T15:52:31.692Z</time></trkpt><trkpt lat="45.6517911" lon="10.4326816"><ele>273.0</ele><time>2026-03-28T15:52:32.692Z</time></trkpt><trkpt lat="45.6518602" lon="10.4325405"><ele>272.0</ele><time>2026-03-28T15:52:33.693Z</time></trkpt><trkpt lat="45.6519419" lon="10.4323769"><ele>272.25</ele><time>2026-03-28T15:52:34.693Z</time></trkpt><trkpt lat="45.6520192" lon="10.4322192"><ele>272.5</ele><time>2026-03-28T15:52:35.693Z</time></trkpt><trkpt lat="45.6520946" lon="10.4320668"><ele>272.75</ele><time>2026-03-28T15:52:36.693Z</time></trkpt><trkpt lat="45.6521854" lon="10.4318854"><ele>273.0</ele><time>2026-03-28T15:52:37.692Z</time></trkpt><trkpt lat="45.6522725" lon="10.4317139"><ele>273.0</ele><time>2026-03-28T15:52:38.692Z</time></trkpt><trkpt lat="45.6523558" lon="10.4315469"><ele>273.0</ele><time>2026-03-28T15:52:39.693Z</time></trkpt><trkpt lat="45.6524363" lon="10.4313843"><ele>273.0</ele><time>2026-03-28T15:52:40.692Z</time></trkpt><trkpt lat="45.6525131" lon="10.4312151"><ele>273.0</ele><time>2026-03-28T15:52:41.692Z</time></trkpt><trkpt lat="45.6525961" lon="10.4310478"><ele>273.25</ele><time>2026-03-28T15:52:42.693Z</time></trkpt><trkpt lat="45.6526813" lon="10.4308757"><ele>273.5</ele><time>2026-03-28T15:52:43.693Z</time></trkpt><trkpt lat="45.6527617" lon="10.4307153"><ele>273.75</ele><time>2026-03-28T15:52:44.692Z</time></trkpt><trkpt lat="45.6528521" lon="10.4305354"><ele>274.0</ele><time>2026-03-28T15:52:45.693Z</time></trkpt><trkpt lat="45.6529343" lon="10.4303654"><ele>274.0</ele><time>2026-03-28T15:52:46.692Z</time></trkpt><trkpt lat="45.6530215" lon="10.4301925"><ele>274.0</ele><time>2026-03-28T15:52:47.692Z</time></trkpt><trkpt lat="45.6531133" lon="10.4300183"><ele>274.0</ele><time>2026-03-28T15:52:48.692Z</time></trkpt><trkpt lat="45.6532013" lon="10.4298543"><ele>274.0</ele><time>2026-03-28T15:52:49.692Z</time></trkpt><trkpt lat="45.6533082" lon="10.4296707"><ele>272.0</ele><time>2026-03-28T15:52:50.692Z</time></trkpt><trkpt lat="45.6534129" lon="10.4294982"><ele>270.0</ele><time>2026-03-28T15:52:51.692Z</time></trkpt><trkpt lat="45.6535085" lon="10.4293419"><ele>268.0</ele><time>2026-03-28T15:52:52.693Z</time></trkpt><trkpt lat="45.6536119" lon="10.4291758"><ele>268.25</ele><time>2026-03-28T15:52:53.693Z</time></trkpt><trkpt lat="45.6537048" lon="10.429034"><ele>268.5</ele><time>2026-03-28T15:52:54.693Z</time></trkpt><trkpt lat="45.6537959" lon="10.4289079"><ele>268.75</ele><time>2026-03-28T15:52:55.692Z</time></trkpt><trkpt lat="45.6538876" lon="10.4287934"><ele>269.0</ele><time>2026-03-28T15:52:56.693Z</time></trkpt><trkpt lat="45.653976" lon="10.4286915"><ele>269.0</ele><time>2026-03-28T15:52:57.692Z</time></trkpt><trkpt lat="45.654057" lon="10.42861"><ele>269.0</ele><time>2026-03-28T15:52:58.693Z</time></trkpt><trkpt lat="45.6541212" lon="10.4285539"><ele>269.0</ele><time>2026-03-28T15:52:59.693Z</time></trkpt><trkpt lat="45.6542366" lon="10.4284812"><ele>269.0</ele><time>2026-03-28T15:53:01.693Z</time></trkpt><trkpt lat="45.6543668" lon="10.4284691"><ele>269.0</ele><time>2026-03-28T15:53:03.693Z</time></trkpt><trkpt lat="45.6544452" lon="10.4284781"><ele>272.7142857142857</ele><time>2026-03-28T15:53:04.693Z</time></trkpt><trkpt lat="45.6545193" lon="10.4284695"><ele>276.42857142857144</ele><time>2026-03-28T15:53:05.693Z</time></trkpt><trkpt lat="45.6545941" lon="10.4284238"><ele>280.14285714285717</ele><time>2026-03-28T15:53:06.693Z</time></trkpt><trkpt lat="45.6546454" lon="10.4283499"><ele>283.8571428571429</ele><time>2026-03-28T15:53:07.693Z</time></trkpt><trkpt lat="45.6546712" lon="10.428263"><ele>287.57142857142856</ele><time>2026-03-28T15:53:08.692Z</time></trkpt><trkpt lat="45.654673" lon="10.4281598"><ele>291.28571428571433</ele><time>2026-03-28T15:53:09.692Z</time></trkpt><trkpt lat="45.6546511" lon="10.4280698"><ele>295.0</ele><time>2026-03-28T15:53:10.692Z</time></trkpt><trkpt lat="45.654607" lon="10.4279941"><ele>290.8333333333333</ele><time>2026-03-28T15:53:11.693Z</time></trkpt><trkpt lat="45.6545435" lon="10.4279381"><ele>286.66666666666663</ele><time>2026-03-28T15:53:12.692Z</time></trkpt><trkpt lat="45.6544677" lon="10.4279015"><ele>282.5</ele><time>2026-03-28T15:53:13.693Z</time></trkpt><trkpt lat="45.654389" lon="10.4278639"><ele>278.3333333333333</ele><time>2026-03-28T15:53:14.692Z</time></trkpt><trkpt lat="45.6543147" lon="10.4278094"><ele>274.1666666666667</ele><time>2026-03-28T15:53:15.692Z</time></trkpt><trkpt lat="45.6542524" lon="10.4277346"><ele>270.0</ele><time>2026-03-28T15:53:16.693Z</time></trkpt><trkpt lat="45.6541882" lon="10.4276226"><ele>270.0</ele><time>2026-03-28T15:53:17.693Z</time></trkpt><trkpt lat="45.6541283" lon="10.4274948"><ele>270.0</ele><time>2026-03-28T15:53:18.692Z</time></trkpt><trkpt lat="45.6540648" lon="10.4273541"><ele>270.0</ele><time>2026-03-28T15:53:19.693Z</time></trkpt><trkpt lat="45.6539997" lon="10.4272082"><ele>270.0</ele><time>2026-03-28T15:53:20.692Z</time></trkpt><trkpt lat="45.6539384" lon="10.4270719"><ele>270.0</ele><time>2026-03-28T15:53:21.693Z</time></trkpt><trkpt lat="45.653871" lon="10.4269211"><ele>270.0</ele><time>2026-03-28T15:53:22.693Z</time></trkpt><trkpt lat="45.6538126" lon="10.4267889"><ele>270.0</ele><time>2026-03-28T15:53:23.692Z</time></trkpt><trkpt lat="45.6537611" lon="10.4266741"><ele>270.0</ele><time>2026-03-28T15:53:24.693Z</time></trkpt><trkpt lat="45.6537018" lon="10.4265413"><ele>270.0</ele><time>2026-03-28T15:53:25.692Z</time></trkpt><trkpt lat="45.6536432" lon="10.4264055"><ele>272.25</ele><time>2026-03-28T15:53:26.692Z</time></trkpt><trkpt lat="45.6535805" lon="10.426255"><ele>274.5</ele><time>2026-03-28T15:53:27.692Z</time></trkpt><trkpt lat="45.6535092" lon="10.4260884"><ele>276.75</ele><time>2026-03-28T15:53:28.692Z</time></trkpt><trkpt lat="45.6534307" lon="10.4258985"><ele>279.0</ele><time>2026-03-28T15:53:29.692Z</time></trkpt><trkpt lat="45.6533476" lon="10.4256857"><ele>280.3333333333333</ele><time>2026-03-28T15:53:30.693Z</time></trkpt><trkpt lat="45.6532565" lon="10.4254771"><ele>281.66666666666663</ele><time>2026-03-28T15:53:31.692Z</time></trkpt><trkpt lat="45.6531572" lon="10.4251902"><ele>283.0</ele><time>2026-03-28T15:53:32.713Z</time></trkpt><trkpt lat="45.6530613" lon="10.4249233"><ele>284.3333333333333</ele><time>2026-03-28T15:53:33.712Z</time></trkpt><trkpt lat="45.6529591" lon="10.4246431"><ele>285.6666666666667</ele><time>2026-03-28T15:53:34.713Z</time></trkpt><trkpt lat="45.6528511" lon="10.4243663"><ele>287.0</ele><time>2026-03-28T15:53:35.712Z</time></trkpt><trkpt lat="45.6527575" lon="10.4240655"><ele>289.5</ele><time>2026-03-28T15:53:36.713Z</time></trkpt><trkpt lat="45.652659" lon="10.4237624"><ele>292.0</ele><time>2026-03-28T15:53:37.713Z</time></trkpt><trkpt lat="45.6525583" lon="10.4234583"><ele>292.0</ele><time>2026-03-28T15:53:38.713Z</time></trkpt><trkpt lat="45.6524612" lon="10.4231534"><ele>292.0</ele><time>2026-03-28T15:53:39.713Z</time></trkpt><trkpt lat="45.6523607" lon="10.4228462"><ele>290.0</ele><time>2026-03-28T15:53:40.712Z</time></trkpt><trkpt lat="45.6522565" lon="10.4225388"><ele>288.0</ele><time>2026-03-28T15:53:41.712Z</time></trkpt><trkpt lat="45.6521523" lon="10.4222263"><ele>286.0</ele><time>2026-03-28T15:53:42.712Z</time></trkpt><trkpt lat="45.6520478" lon="10.4219112"><ele>284.0</ele><time>2026-03-28T15:53:43.712Z</time></trkpt><trkpt lat="45.6519411" lon="10.421595"><ele>283.5</ele><time>2026-03-28T15:53:44.712Z</time></trkpt><trkpt lat="45.6518333" lon="10.4212761"><ele>283.0</ele><time>2026-03-28T15:53:45.712Z</time></trkpt><trkpt lat="45.6517257" lon="10.420955"><ele>283.0</ele><time>2026-03-28T15:53:46.713Z</time></trkpt><trkpt lat="45.6516181" lon="10.4206329"><ele>283.0</ele><time>2026-03-28T15:53:47.713Z</time></trkpt><trkpt lat="45.651509" lon="10.4203171"><ele>289.0</ele><time>2026-03-28T15:53:48.712Z</time></trkpt><trkpt lat="45.6514028" lon="10.4200038"><ele>295.0</ele><time>2026-03-28T15:53:49.713Z</time></trkpt><trkpt lat="45.6512953" lon="10.4196976"><ele>302.0</ele><time>2026-03-28T15:53:50.713Z</time></trkpt><trkpt lat="45.651189" lon="10.4193893"><ele>309.0</ele><time>2026-03-28T15:53:51.712Z</time></trkpt><trkpt lat="45.6510865" lon="10.4190803"><ele>293.0</ele><time>2026-03-28T15:53:52.713Z</time></trkpt><trkpt lat="45.6505248" lon="10.4174576"><ele>290.0</ele><time>2026-03-28T15:53:58.713Z</time></trkpt><trkpt lat="45.6504303" lon="10.4171385"><ele>287.0</ele><time>2026-03-28T15:53:59.712Z</time></trkpt><trkpt lat="45.6503335" lon="10.4168423"><ele>287.0</ele><time>2026-03-28T15:54:00.712Z</time></trkpt><trkpt lat="45.6502378" lon="10.4165526"><ele>287.0</ele><time>2026-03-28T15:54:01.713Z</time></trkpt><trkpt lat="45.6501415" lon="10.416268"><ele>287.0</ele><time>2026-03-28T15:54:02.712Z</time></trkpt><trkpt lat="45.6500482" lon="10.4159894"><ele>287.0</ele><time>2026-03-28T15:54:03.712Z</time></trkpt><trkpt lat="45.6499629" lon="10.4157103"><ele>287.0</ele><time>2026-03-28T15:54:04.712Z</time></trkpt><trkpt lat="45.64988" lon="10.4154302"><ele>287.0</ele><time>2026-03-28T15:54:05.713Z</time></trkpt><trkpt lat="45.6498116" lon="10.4151563"><ele>287.0</ele><time>2026-03-28T15:54:06.713Z</time></trkpt><trkpt lat="45.6497519" lon="10.4148833"><ele>287.0</ele><time>2026-03-28T15:54:07.712Z</time></trkpt><trkpt lat="45.6497008" lon="10.4146089"><ele>287.0</ele><time>2026-03-28T15:54:08.713Z</time></trkpt><trkpt lat="45.6496594" lon="10.4143255"><ele>289.6666666666667</ele><time>2026-03-28T15:54:09.713Z</time></trkpt><trkpt lat="45.6496253" lon="10.4140392"><ele>292.3333333333333</ele><time>2026-03-28T15:54:10.712Z</time></trkpt><trkpt lat="45.6495986" lon="10.4137427"><ele>295.0</ele><time>2026-03-28T15:54:11.712Z</time></trkpt><trkpt lat="45.649581" lon="10.4134423"><ele>296.3333333333333</ele><time>2026-03-28T15:54:12.712Z</time></trkpt><trkpt lat="45.6495738" lon="10.4131356"><ele>297.6666666666667</ele><time>2026-03-28T15:54:13.713Z</time></trkpt><trkpt lat="45.6495785" lon="10.4128246"><ele>299.0</ele><time>2026-03-28T15:54:14.713Z</time></trkpt><trkpt lat="45.649593" lon="10.4125231"><ele>299.0</ele><time>2026-03-28T15:54:15.713Z</time></trkpt><trkpt lat="45.6496182" lon="10.412224"><ele>299.0</ele><time>2026-03-28T15:54:16.713Z</time></trkpt><trkpt lat="45.649653" lon="10.411924"><ele>299.0</ele><time>2026-03-28T15:54:17.712Z</time></trkpt><trkpt lat="45.6496976" lon="10.4116267"><ele>299.0</ele><time>2026-03-28T15:54:18.713Z</time></trkpt><trkpt lat="45.6497514" lon="10.4113353"><ele>299.0</ele><time>2026-03-28T15:54:19.713Z</time></trkpt><trkpt lat="45.6498127" lon="10.4110519"><ele>299.0</ele><time>2026-03-28T15:54:20.713Z</time></trkpt><trkpt lat="45.6498831" lon="10.4107769"><ele>298.0</ele><time>2026-03-28T15:54:21.712Z</time></trkpt><trkpt lat="45.6499626" lon="10.4105033"><ele>297.0</ele><time>2026-03-28T15:54:22.712Z</time></trkpt><trkpt lat="45.6500481" lon="10.4102315"><ele>296.0</ele><time>2026-03-28T15:54:23.712Z</time></trkpt><trkpt lat="45.6501392" lon="10.4099584"><ele>296.0</ele><time>2026-03-28T15:54:24.712Z</time></trkpt><trkpt lat="45.650231" lon="10.4096848"><ele>296.0</ele><time>2026-03-28T15:54:25.712Z</time></trkpt><trkpt lat="45.6503208" lon="10.4094207"><ele>296.0</ele><time>2026-03-28T15:54:26.713Z</time></trkpt><trkpt lat="45.6504054" lon="10.4091675"><ele>297.33333333333337</ele><time>2026-03-28T15:54:27.713Z</time></trkpt><trkpt lat="45.6504904" lon="10.4089109"><ele>298.6666666666667</ele><time>2026-03-28T15:54:28.712Z</time></trkpt><trkpt lat="45.6505771" lon="10.4086518"><ele>300.0</ele><time>2026-03-28T15:54:29.713Z</time></trkpt><trkpt lat="45.6506636" lon="10.4083905"><ele>300.0</ele><time>2026-03-28T15:54:30.713Z</time></trkpt><trkpt lat="45.6507491" lon="10.4081378"><ele>300.0</ele><time>2026-03-28T15:54:31.712Z</time></trkpt><trkpt lat="45.6508322" lon="10.4078913"><ele>300.0</ele><time>2026-03-28T15:54:32.712Z</time></trkpt><trkpt lat="45.650916" lon="10.4076458"><ele>300.6666666666667</ele><time>2026-03-28T15:54:33.712Z</time></trkpt><trkpt lat="45.6510004" lon="10.407396"><ele>301.33333333333337</ele><time>2026-03-28T15:54:34.712Z</time></trkpt><trkpt lat="45.6510849" lon="10.4071469"><ele>302.0</ele><time>2026-03-28T15:54:35.713Z</time></trkpt><trkpt lat="45.651167" lon="10.4068991"><ele>302.0</ele><time>2026-03-28T15:54:36.712Z</time></trkpt><trkpt lat="45.651247" lon="10.4066552"><ele>302.0</ele><time>2026-03-28T15:54:37.713Z</time></trkpt><trkpt lat="45.6513268" lon="10.4064123"><ele>302.0</ele><time>2026-03-28T15:54:38.713Z</time></trkpt><trkpt lat="45.6514075" lon="10.4061693"><ele>301.6666666666667</ele><time>2026-03-28T15:54:39.713Z</time></trkpt><trkpt lat="45.6514874" lon="10.4059293"><ele>301.3333333333333</ele><time>2026-03-28T15:54:40.712Z</time></trkpt><trkpt lat="45.6515666" lon="10.405686"><ele>301.0</ele><time>2026-03-28T15:54:41.712Z</time></trkpt><trkpt lat="45.6516449" lon="10.405442"><ele>301.0</ele><time>2026-03-28T15:54:42.712Z</time></trkpt><trkpt lat="45.6517262" lon="10.4051959"><ele>301.0</ele><time>2026-03-28T15:54:43.713Z</time></trkpt><trkpt lat="45.6518088" lon="10.404946"><ele>301.0</ele><time>2026-03-28T15:54:44.712Z</time></trkpt><trkpt lat="45.6518939" lon="10.404691"><ele>304.0</ele><time>2026-03-28T15:54:45.713Z</time></trkpt><trkpt lat="45.6519806" lon="10.4044372"><ele>307.0</ele><time>2026-03-28T15:54:46.713Z</time></trkpt><trkpt lat="45.652066" lon="10.4041782"><ele>310.0</ele><time>2026-03-28T15:54:47.712Z</time></trkpt><trkpt lat="45.6521511" lon="10.4039077"><ele>308.0</ele><time>2026-03-28T15:54:48.713Z</time></trkpt><trkpt lat="45.6522431" lon="10.403618"><ele>306.0</ele><time>2026-03-28T15:54:49.712Z</time></trkpt><trkpt lat="45.6523472" lon="10.4032988"><ele>305.0</ele><time>2026-03-28T15:54:50.712Z</time></trkpt><trkpt lat="45.6524648" lon="10.4029553"><ele>304.0</ele><time>2026-03-28T15:54:51.713Z</time></trkpt><trkpt lat="45.6525798" lon="10.4026197"><ele>304.0</ele><time>2026-03-28T15:54:52.712Z</time></trkpt><trkpt lat="45.6526882" lon="10.4023077"><ele>304.0</ele><time>2026-03-28T15:54:53.712Z</time></trkpt><trkpt lat="45.6527889" lon="10.4020147"><ele>304.66666666666663</ele><time>2026-03-28T15:54:54.713Z</time></trkpt><trkpt lat="45.6528819" lon="10.4017415"><ele>305.3333333333333</ele><time>2026-03-28T15:54:55.713Z</time></trkpt><trkpt lat="45.652972" lon="10.4014695"><ele>306.0</ele><time>2026-03-28T15:54:56.713Z</time></trkpt><trkpt lat="45.653064" lon="10.4011812"><ele>306.0</ele><time>2026-03-28T15:54:57.713Z</time></trkpt><trkpt lat="45.6531676" lon="10.4008672"><ele>306.0</ele><time>2026-03-28T15:54:58.713Z</time></trkpt><trkpt lat="45.6532842" lon="10.4005216"><ele>305.0</ele><time>2026-03-28T15:54:59.713Z</time></trkpt><trkpt lat="45.6534086" lon="10.4001576"><ele>304.0</ele><time>2026-03-28T15:55:00.712Z</time></trkpt><trkpt lat="45.653528" lon="10.3998125"><ele>307.5</ele><time>2026-03-28T15:55:01.712Z</time></trkpt><trkpt lat="45.653639" lon="10.3994849"><ele>311.0</ele><time>2026-03-28T15:55:02.713Z</time></trkpt><trkpt lat="45.6537464" lon="10.3991691"><ele>311.0</ele><time>2026-03-28T15:55:03.712Z</time></trkpt><trkpt lat="45.6538502" lon="10.3988574"><ele>311.0</ele><time>2026-03-28T15:55:04.712Z</time></trkpt><trkpt lat="45.6539531" lon="10.3985442"><ele>309.0</ele><time>2026-03-28T15:55:05.712Z</time></trkpt><trkpt lat="45.6540584" lon="10.3982332"><ele>307.0</ele><time>2026-03-28T15:55:06.713Z</time></trkpt><trkpt lat="45.6541617" lon="10.3979178"><ele>306.0</ele><time>2026-03-28T15:55:07.712Z</time></trkpt><trkpt lat="45.6542625" lon="10.3976092"><ele>305.0</ele><time>2026-03-28T15:55:08.712Z</time></trkpt><trkpt lat="45.6543569" lon="10.3973112"><ele>305.0</ele><time>2026-03-28T15:55:09.712Z</time></trkpt><trkpt lat="45.6544453" lon="10.3970086"><ele>305.0</ele><time>2026-03-28T15:55:10.713Z</time></trkpt><trkpt lat="45.6545275" lon="10.3966995"><ele>307.0</ele><time>2026-03-28T15:55:11.713Z</time></trkpt><trkpt lat="45.6546022" lon="10.3963863"><ele>309.0</ele><time>2026-03-28T15:55:12.712Z</time></trkpt><trkpt lat="45.6546697" lon="10.3960716"><ele>309.0</ele><time>2026-03-28T15:55:13.713Z</time></trkpt><trkpt lat="45.6547302" lon="10.3957542"><ele>309.0</ele><time>2026-03-28T15:55:14.712Z</time></trkpt><trkpt lat="45.6547832" lon="10.3954338"><ele>308.5</ele><time>2026-03-28T15:55:15.712Z</time></trkpt><trkpt lat="45.6548282" lon="10.3951083"><ele>308.0</ele><time>2026-03-28T15:55:16.713Z</time></trkpt><trkpt lat="45.6548669" lon="10.3947789"><ele>308.0</ele><time>2026-03-28T15:55:17.713Z</time></trkpt><trkpt lat="45.6548974" lon="10.3944438"><ele>308.0</ele><time>2026-03-28T15:55:18.713Z</time></trkpt><trkpt lat="45.6549202" lon="10.3941034"><ele>309.0</ele><time>2026-03-28T15:55:19.713Z</time></trkpt><trkpt lat="45.6549374" lon="10.3937573"><ele>310.0</ele><time>2026-03-28T15:55:20.712Z</time></trkpt><trkpt lat="45.6549473" lon="10.3934112"><ele>310.0</ele><time>2026-03-28T15:55:21.712Z</time></trkpt><trkpt lat="45.6549515" lon="10.3930681"><ele>310.0</ele><time>2026-03-28T15:55:22.713Z</time></trkpt><trkpt lat="45.654952" lon="10.392727"><ele>311.0</ele><time>2026-03-28T15:55:23.713Z</time></trkpt><trkpt lat="45.6549511" lon="10.3923861"><ele>312.0</ele><time>2026-03-28T15:55:24.713Z</time></trkpt><trkpt lat="45.6549475" lon="10.392048"><ele>312.0</ele><time>2026-03-28T15:55:25.713Z</time></trkpt><trkpt lat="45.6549441" lon="10.3917152"><ele>312.0</ele><time>2026-03-28T15:55:26.712Z</time></trkpt><trkpt lat="45.6549415" lon="10.3913891"><ele>310.5</ele><time>2026-03-28T15:55:27.712Z</time></trkpt><trkpt lat="45.6549386" lon="10.3910644"><ele>309.0</ele><time>2026-03-28T15:55:28.712Z</time></trkpt><trkpt lat="45.6549346" lon="10.3907441"><ele>309.3333333333333</ele><time>2026-03-28T15:55:29.713Z</time></trkpt><trkpt lat="45.6549316" lon="10.390428"><ele>309.66666666666663</ele><time>2026-03-28T15:55:30.713Z</time></trkpt><trkpt lat="45.6549283" lon="10.3901183"><ele>310.0</ele><time>2026-03-28T15:55:31.713Z</time></trkpt><trkpt lat="45.6549249" lon="10.3898122"><ele>309.3333333333333</ele><time>2026-03-28T15:55:32.713Z</time></trkpt><trkpt lat="45.6549209" lon="10.3895108"><ele>308.6666666666667</ele><time>2026-03-28T15:55:33.712Z</time></trkpt><trkpt lat="45.6549185" lon="10.3892181"><ele>308.0</ele><time>2026-03-28T15:55:34.712Z</time></trkpt><trkpt lat="45.6549145" lon="10.3889389"><ele>307.6666666666667</ele><time>2026-03-28T15:55:35.712Z</time></trkpt><trkpt lat="45.6549114" lon="10.3886686"><ele>307.3333333333333</ele><time>2026-03-28T15:55:36.712Z</time></trkpt><trkpt lat="45.6549094" lon="10.3884048"><ele>307.0</ele><time>2026-03-28T15:55:37.712Z</time></trkpt><trkpt lat="45.6549065" lon="10.3881454"><ele>307.3333333333333</ele><time>2026-03-28T15:55:38.712Z</time></trkpt><trkpt lat="45.6549035" lon="10.387889"><ele>307.6666666666667</ele><time>2026-03-28T15:55:39.712Z</time></trkpt><trkpt lat="45.6549018" lon="10.3876322"><ele>308.0</ele><time>2026-03-28T15:55:40.712Z</time></trkpt><trkpt lat="45.654899" lon="10.3873796"><ele>308.33333333333337</ele><time>2026-03-28T15:55:41.713Z</time></trkpt><trkpt lat="45.6548975" lon="10.3871273"><ele>308.6666666666667</ele><time>2026-03-28T15:55:42.712Z</time></trkpt><trkpt lat="45.6548948" lon="10.3868845"><ele>309.0</ele><time>2026-03-28T15:55:43.713Z</time></trkpt><trkpt lat="45.6548941" lon="10.3866553"><ele>309.0</ele><time>2026-03-28T15:55:44.712Z</time></trkpt><trkpt lat="45.654894" lon="10.3864372"><ele>309.0</ele><time>2026-03-28T15:55:45.713Z</time></trkpt><trkpt lat="45.654894" lon="10.386218"><ele>309.0</ele><time>2026-03-28T15:55:46.712Z</time></trkpt><trkpt lat="45.6548985" lon="10.3860112"><ele>309.0</ele><time>2026-03-28T15:55:47.713Z</time></trkpt><trkpt lat="45.6549025" lon="10.3858151"><ele>309.0</ele><time>2026-03-28T15:55:48.712Z</time></trkpt><trkpt lat="45.6549082" lon="10.3856366"><ele>309.0</ele><time>2026-03-28T15:55:49.712Z</time></trkpt><trkpt lat="45.654915" lon="10.3854815"><ele>309.0</ele><time>2026-03-28T15:55:50.712Z</time></trkpt><trkpt lat="45.6549278" lon="10.3853414"><ele>308.8333333333333</ele><time>2026-03-28T15:55:51.712Z</time></trkpt><trkpt lat="45.6549574" lon="10.3852225"><ele>308.6666666666667</ele><time>2026-03-28T15:55:52.712Z</time></trkpt><trkpt lat="45.6550009" lon="10.385123"><ele>308.5</ele><time>2026-03-28T15:55:53.712Z</time></trkpt><trkpt lat="45.6550397" lon="10.3850202"><ele>308.33333333333337</ele><time>2026-03-28T15:55:54.713Z</time></trkpt><trkpt lat="45.6550545" lon="10.3849101"><ele>308.1666666666667</ele><time>2026-03-28T15:55:55.712Z</time></trkpt><trkpt lat="45.6550484" lon="10.3847891"><ele>308.0</ele><time>2026-03-28T15:55:56.713Z</time></trkpt><trkpt lat="45.6550266" lon="10.3846413"><ele>307.75</ele><time>2026-03-28T15:55:57.712Z</time></trkpt><trkpt lat="45.6549921" lon="10.3844693"><ele>307.5</ele><time>2026-03-28T15:55:58.712Z</time></trkpt><trkpt lat="45.6549536" lon="10.3842644"><ele>307.25</ele><time>2026-03-28T15:55:59.712Z</time></trkpt><trkpt lat="45.654919" lon="10.3840287"><ele>307.0</ele><time>2026-03-28T15:56:00.712Z</time></trkpt><trkpt lat="45.6548879" lon="10.3837655"><ele>307.66666666666663</ele><time>2026-03-28T15:56:01.713Z</time></trkpt><trkpt lat="45.6548673" lon="10.3834821"><ele>308.3333333333333</ele><time>2026-03-28T15:56:02.712Z</time></trkpt><trkpt lat="45.6548544" lon="10.3831814"><ele>309.0</ele><time>2026-03-28T15:56:03.713Z</time></trkpt><trkpt lat="45.6548483" lon="10.3828629"><ele>310.5</ele><time>2026-03-28T15:56:04.712Z</time></trkpt><trkpt lat="45.654847" lon="10.382536"><ele>312.0</ele><time>2026-03-28T15:56:05.713Z</time></trkpt><trkpt lat="45.6548478" lon="10.3822156"><ele>311.6666666666667</ele><time>2026-03-28T15:56:06.713Z</time></trkpt><trkpt lat="45.6548547" lon="10.3819161"><ele>311.33333333333337</ele><time>2026-03-28T15:56:07.713Z</time></trkpt><trkpt lat="45.654868" lon="10.3816348"><ele>311.0</ele><time>2026-03-28T15:56:08.712Z</time></trkpt><trkpt lat="45.65489" lon="10.3813651"><ele>311.0</ele><time>2026-03-28T15:56:09.712Z</time></trkpt><trkpt lat="45.654918" lon="10.3810903"><ele>311.0</ele><time>2026-03-28T15:56:10.713Z</time></trkpt><trkpt lat="45.6549552" lon="10.3808152"><ele>311.0</ele><time>2026-03-28T15:56:11.713Z</time></trkpt><trkpt lat="45.6550019" lon="10.3805418"><ele>311.6666666666667</ele><time>2026-03-28T15:56:12.712Z</time></trkpt><trkpt lat="45.6550567" lon="10.3802686"><ele>312.3333333333333</ele><time>2026-03-28T15:56:13.713Z</time></trkpt><trkpt lat="45.6551233" lon="10.3799964"><ele>313.0</ele><time>2026-03-28T15:56:14.713Z</time></trkpt><trkpt lat="45.6551962" lon="10.3797236"><ele>313.3333333333333</ele><time>2026-03-28T15:56:15.713Z</time></trkpt><trkpt lat="45.6552761" lon="10.3794427"><ele>313.6666666666667</ele><time>2026-03-28T15:56:16.712Z</time></trkpt><trkpt lat="45.6553639" lon="10.3791536"><ele>314.0</ele><time>2026-03-28T15:56:17.712Z</time></trkpt><trkpt lat="45.6554548" lon="10.3788628"><ele>315.0</ele><time>2026-03-28T15:56:18.712Z</time></trkpt><trkpt lat="45.6555457" lon="10.3785682"><ele>316.0</ele><time>2026-03-28T15:56:19.713Z</time></trkpt><trkpt lat="45.6556371" lon="10.3782721"><ele>315.0</ele><time>2026-03-28T15:56:20.713Z</time></trkpt><trkpt lat="45.6557295" lon="10.3779733"><ele>314.0</ele><time>2026-03-28T15:56:21.713Z</time></trkpt><trkpt lat="45.6558226" lon="10.3776753"><ele>314.0</ele><time>2026-03-28T15:56:22.713Z</time></trkpt><trkpt lat="45.6559133" lon="10.3773734"><ele>314.0</ele><time>2026-03-28T15:56:23.713Z</time></trkpt><trkpt lat="45.6559972" lon="10.3770686"><ele>314.5</ele><time>2026-03-28T15:56:24.712Z</time></trkpt><trkpt lat="45.6560716" lon="10.3767603"><ele>315.0</ele><time>2026-03-28T15:56:25.713Z</time></trkpt><trkpt lat="45.6561333" lon="10.3764535"><ele>317.6666666666667</ele><time>2026-03-28T15:56:26.712Z</time></trkpt><trkpt lat="45.6561835" lon="10.3761455"><ele>320.33333333333337</ele><time>2026-03-28T15:56:27.713Z</time></trkpt><trkpt lat="45.6562196" lon="10.375839"><ele>323.0</ele><time>2026-03-28T15:56:28.712Z</time></trkpt><trkpt lat="45.6562393" lon="10.3755254"><ele>322.0</ele><time>2026-03-28T15:56:29.712Z</time></trkpt><trkpt lat="45.656247" lon="10.3752075"><ele>321.0</ele><time>2026-03-28T15:56:30.712Z</time></trkpt><trkpt lat="45.6562398" lon="10.3748866"><ele>320.0</ele><time>2026-03-28T15:56:31.712Z</time></trkpt><trkpt lat="45.6562246" lon="10.3745633"><ele>319.0</ele><time>2026-03-28T15:56:32.712Z</time></trkpt><trkpt lat="45.6561984" lon="10.3742357"><ele>318.0</ele><time>2026-03-28T15:56:33.713Z</time></trkpt><trkpt lat="45.6561723" lon="10.3739035"><ele>318.0</ele><time>2026-03-28T15:56:34.712Z</time></trkpt><trkpt lat="45.6561492" lon="10.373568"><ele>318.0</ele><time>2026-03-28T15:56:35.712Z</time></trkpt><trkpt lat="45.6561252" lon="10.3732282"><ele>317.5</ele><time>2026-03-28T15:56:36.712Z</time></trkpt><trkpt lat="45.6561021" lon="10.3728889"><ele>317.0</ele><time>2026-03-28T15:56:37.712Z</time></trkpt><trkpt lat="45.6560747" lon="10.372554"><ele>317.0</ele><time>2026-03-28T15:56:38.712Z</time></trkpt><trkpt lat="45.6560496" lon="10.3722205"><ele>317.0</ele><time>2026-03-28T15:56:39.713Z</time></trkpt><trkpt lat="45.6560235" lon="10.3718914"><ele>318.0</ele><time>2026-03-28T15:56:40.713Z</time></trkpt><trkpt lat="45.6559989" lon="10.3715643"><ele>319.0</ele><time>2026-03-28T15:56:41.713Z</time></trkpt><trkpt lat="45.655974" lon="10.371236"><ele>320.0</ele><time>2026-03-28T15:56:42.713Z</time></trkpt><trkpt lat="45.6559489" lon="10.3709096"><ele>321.0</ele><time>2026-03-28T15:56:43.712Z</time></trkpt><trkpt lat="45.6559239" lon="10.3705828"><ele>321.5</ele><time>2026-03-28T15:56:44.713Z</time></trkpt><trkpt lat="45.6558979" lon="10.3702566"><ele>322.0</ele><time>2026-03-28T15:56:45.713Z</time></trkpt><trkpt lat="45.6558736" lon="10.369928"><ele>322.5</ele><time>2026-03-28T15:56:46.711Z</time></trkpt><trkpt lat="45.6558466" lon="10.3696036"><ele>323.0</ele><time>2026-03-28T15:56:47.713Z</time></trkpt><trkpt lat="45.655822" lon="10.3692793"><ele>323.0</ele><time>2026-03-28T15:56:48.713Z</time></trkpt><trkpt lat="45.6557982" lon="10.3689548"><ele>323.0</ele><time>2026-03-28T15:56:49.712Z</time></trkpt><trkpt lat="45.6557743" lon="10.3686304"><ele>324.5</ele><time>2026-03-28T15:56:50.713Z</time></trkpt><trkpt lat="45.6557501" lon="10.3683055"><ele>326.0</ele><time>2026-03-28T15:56:51.713Z</time></trkpt><trkpt lat="45.6557326" lon="10.3679847"><ele>326.0</ele><time>2026-03-28T15:56:52.713Z</time></trkpt><trkpt lat="45.6557218" lon="10.3676612"><ele>326.0</ele><time>2026-03-28T15:56:53.712Z</time></trkpt><trkpt lat="45.6557246" lon="10.3673372"><ele>325.5</ele><time>2026-03-28T15:56:54.713Z</time></trkpt><trkpt lat="45.6557409" lon="10.3670129"><ele>325.0</ele><time>2026-03-28T15:56:55.712Z</time></trkpt><trkpt lat="45.6557755" lon="10.366692"><ele>325.0</ele><time>2026-03-28T15:56:56.713Z</time></trkpt><trkpt lat="45.6558257" lon="10.3663779"><ele>325.0</ele><time>2026-03-28T15:56:57.713Z</time></trkpt><trkpt lat="45.6558912" lon="10.3660803"><ele>325.0</ele><time>2026-03-28T15:56:58.712Z</time></trkpt><trkpt lat="45.6559691" lon="10.3657896"><ele>326.0</ele><time>2026-03-28T15:56:59.712Z</time></trkpt><trkpt lat="45.6560616" lon="10.3655006"><ele>327.0</ele><time>2026-03-28T15:57:00.713Z</time></trkpt><trkpt lat="45.6561648" lon="10.3652135"><ele>328.0</ele><time>2026-03-28T15:57:01.712Z</time></trkpt><trkpt lat="45.6562711" lon="10.3649238"><ele>330.5</ele><time>2026-03-28T15:57:02.712Z</time></trkpt><trkpt lat="45.6563815" lon="10.3646315"><ele>333.0</ele><time>2026-03-28T15:57:03.714Z</time></trkpt><trkpt lat="45.6564883" lon="10.3643355"><ele>333.0</ele><time>2026-03-28T15:57:04.712Z</time></trkpt><trkpt lat="45.6565951" lon="10.3640393"><ele>333.0</ele><time>2026-03-28T15:57:05.712Z</time></trkpt><trkpt lat="45.6567047" lon="10.3637427"><ele>333.5</ele><time>2026-03-28T15:57:06.713Z</time></trkpt><trkpt lat="45.6568175" lon="10.3634456"><ele>334.0</ele><time>2026-03-28T15:57:07.713Z</time></trkpt><trkpt lat="45.6569295" lon="10.3631385"><ele>338.0</ele><time>2026-03-28T15:57:08.712Z</time></trkpt><trkpt lat="45.6570453" lon="10.3628208"><ele>342.0</ele><time>2026-03-28T15:57:09.712Z</time></trkpt><trkpt lat="45.6571673" lon="10.3624918"><ele>342.0</ele><time>2026-03-28T15:57:10.713Z</time></trkpt><trkpt lat="45.6572927" lon="10.3621682"><ele>342.0</ele><time>2026-03-28T15:57:11.712Z</time></trkpt><trkpt lat="45.6574048" lon="10.3618662"><ele>342.0</ele><time>2026-03-28T15:57:12.713Z</time></trkpt><trkpt lat="45.6575187" lon="10.3615761"><ele>342.0</ele><time>2026-03-28T15:57:13.713Z</time></trkpt><trkpt lat="45.6576362" lon="10.3612832"><ele>342.0</ele><time>2026-03-28T15:57:14.713Z</time></trkpt><trkpt lat="45.6577619" lon="10.3609893"><ele>342.0</ele><time>2026-03-28T15:57:15.713Z</time></trkpt><trkpt lat="45.6578919" lon="10.3606966"><ele>344.0</ele><time>2026-03-28T15:57:16.713Z</time></trkpt><trkpt lat="45.6580242" lon="10.3604055"><ele>346.0</ele><time>2026-03-28T15:57:17.713Z</time></trkpt><trkpt lat="45.658157" lon="10.3601165"><ele>346.0</ele><time>2026-03-28T15:57:18.712Z</time></trkpt><trkpt lat="45.6582892" lon="10.3598293"><ele>346.0</ele><time>2026-03-28T15:57:19.713Z</time></trkpt><trkpt lat="45.6584225" lon="10.3595439"><ele>346.5</ele><time>2026-03-28T15:57:20.713Z</time></trkpt><trkpt lat="45.6585539" lon="10.3592577"><ele>347.0</ele><time>2026-03-28T15:57:21.713Z</time></trkpt><trkpt lat="45.6586865" lon="10.3589732"><ele>350.0</ele><time>2026-03-28T15:57:22.713Z</time></trkpt><trkpt lat="45.6588179" lon="10.3586942"><ele>353.0</ele><time>2026-03-28T15:57:23.713Z</time></trkpt><trkpt lat="45.6589465" lon="10.3584161"><ele>353.0</ele><time>2026-03-28T15:57:24.712Z</time></trkpt><trkpt lat="45.6590729" lon="10.358138"><ele>353.0</ele><time>2026-03-28T15:57:25.712Z</time></trkpt><trkpt lat="45.6592013" lon="10.3578632"><ele>354.0</ele><time>2026-03-28T15:57:26.713Z</time></trkpt><trkpt lat="45.6593299" lon="10.3575884"><ele>355.0</ele><time>2026-03-28T15:57:27.712Z</time></trkpt><trkpt lat="45.659458" lon="10.3573131"><ele>357.5</ele><time>2026-03-28T15:57:28.712Z</time></trkpt><trkpt lat="45.6595877" lon="10.3570378"><ele>360.0</ele><time>2026-03-28T15:57:29.712Z</time></trkpt><trkpt lat="45.6597163" lon="10.3567578"><ele>360.0</ele><time>2026-03-28T15:57:30.713Z</time></trkpt><trkpt lat="45.6598468" lon="10.3564725"><ele>360.0</ele><time>2026-03-28T15:57:31.712Z</time></trkpt><trkpt lat="45.6599803" lon="10.3561884"><ele>360.5</ele><time>2026-03-28T15:57:32.712Z</time></trkpt><trkpt lat="45.6601119" lon="10.3559002"><ele>361.0</ele><time>2026-03-28T15:57:33.713Z</time></trkpt><trkpt lat="45.6602448" lon="10.3556101"><ele>367.0</ele><time>2026-03-28T15:57:34.712Z</time></trkpt><trkpt lat="45.6603777" lon="10.3553183"><ele>373.0</ele><time>2026-03-28T15:57:35.711Z</time></trkpt><trkpt lat="45.6605116" lon="10.3550237"><ele>373.0</ele><time>2026-03-28T15:57:36.713Z</time></trkpt><trkpt lat="45.6606492" lon="10.354728"><ele>373.0</ele><time>2026-03-28T15:57:37.713Z</time></trkpt><trkpt lat="45.660784" lon="10.3544343"><ele>372.0</ele><time>2026-03-28T15:57:38.713Z</time></trkpt><trkpt lat="45.66092" lon="10.3541458"><ele>371.0</ele><time>2026-03-28T15:57:39.713Z</time></trkpt><trkpt lat="45.6610548" lon="10.353855"><ele>376.5</ele><time>2026-03-28T15:57:40.713Z</time></trkpt><trkpt lat="45.6611911" lon="10.3535605"><ele>382.0</ele><time>2026-03-28T15:57:41.712Z</time></trkpt><trkpt lat="45.6613256" lon="10.3532673"><ele>381.0</ele><time>2026-03-28T15:57:42.712Z</time></trkpt><trkpt lat="45.6614502" lon="10.3529954"><ele>380.0</ele><time>2026-03-28T15:57:43.712Z</time></trkpt><trkpt lat="45.6615716" lon="10.35274"><ele>379.0</ele><time>2026-03-28T15:57:44.712Z</time></trkpt><trkpt lat="45.6616975" lon="10.352494"><ele>379.0</ele><time>2026-03-28T15:57:45.712Z</time></trkpt><trkpt lat="45.6618382" lon="10.352262"><ele>379.0</ele><time>2026-03-28T15:57:46.712Z</time></trkpt><trkpt lat="45.661987" lon="10.3520429"><ele>379.0</ele><time>2026-03-28T15:57:47.713Z</time></trkpt><trkpt lat="45.6621463" lon="10.3518415"><ele>379.66666666666663</ele><time>2026-03-28T15:57:48.713Z</time></trkpt><trkpt lat="45.6623182" lon="10.3516511"><ele>380.3333333333333</ele><time>2026-03-28T15:57:49.713Z</time></trkpt><trkpt lat="45.6625029" lon="10.3514668"><ele>381.0</ele><time>2026-03-28T15:57:50.712Z</time></trkpt><trkpt lat="45.6626915" lon="10.3512868"><ele>386.0</ele><time>2026-03-28T15:57:51.712Z</time></trkpt><trkpt lat="45.6628718" lon="10.3511112"><ele>391.0</ele><time>2026-03-28T15:57:52.712Z</time></trkpt><trkpt lat="45.6630398" lon="10.3509424"><ele>396.0</ele><time>2026-03-28T15:57:53.712Z</time></trkpt><trkpt lat="45.6632003" lon="10.3507758"><ele>396.0</ele><time>2026-03-28T15:57:54.713Z</time></trkpt><trkpt lat="45.6633572" lon="10.3506012"><ele>396.0</ele><time>2026-03-28T15:57:55.713Z</time></trkpt><trkpt lat="45.663512" lon="10.3504128"><ele>396.0</ele><time>2026-03-28T15:57:56.712Z</time></trkpt><trkpt lat="45.6636643" lon="10.3502164"><ele>396.66666666666663</ele><time>2026-03-28T15:57:57.712Z</time></trkpt><trkpt lat="45.6638225" lon="10.3500112"><ele>397.3333333333333</ele><time>2026-03-28T15:57:58.713Z</time></trkpt><trkpt lat="45.6639846" lon="10.3497945"><ele>398.0</ele><time>2026-03-28T15:57:59.713Z</time></trkpt><trkpt lat="45.6641454" lon="10.3495728"><ele>398.0</ele><time>2026-03-28T15:58:00.712Z</time></trkpt><trkpt lat="45.6642991" lon="10.3493696"><ele>398.0</ele><time>2026-03-28T15:58:01.713Z</time></trkpt><trkpt lat="45.6644429" lon="10.3491798"><ele>398.0</ele><time>2026-03-28T15:58:02.713Z</time></trkpt><trkpt lat="45.6645748" lon="10.3490043"><ele>401.25</ele><time>2026-03-28T15:58:03.712Z</time></trkpt><trkpt lat="45.6646959" lon="10.3488419"><ele>404.5</ele><time>2026-03-28T15:58:04.712Z</time></trkpt><trkpt lat="45.6647983" lon="10.3487012"><ele>407.75</ele><time>2026-03-28T15:58:05.713Z</time></trkpt><trkpt lat="45.6648757" lon="10.3485649"><ele>411.0</ele><time>2026-03-28T15:58:06.713Z</time></trkpt><trkpt lat="45.6649267" lon="10.3484219"><ele>411.0</ele><time>2026-03-28T15:58:07.713Z</time></trkpt><trkpt lat="45.6649386" lon="10.3482755"><ele>411.0</ele><time>2026-03-28T15:58:08.712Z</time></trkpt><trkpt lat="45.6649099" lon="10.34813"><ele>411.0</ele><time>2026-03-28T15:58:09.712Z</time></trkpt><trkpt lat="45.6648411" lon="10.3480093"><ele>411.0</ele><time>2026-03-28T15:58:10.713Z</time></trkpt><trkpt lat="45.6647373" lon="10.3479322"><ele>411.0</ele><time>2026-03-28T15:58:11.712Z</time></trkpt><trkpt lat="45.6646138" lon="10.3479161"><ele>409.0</ele><time>2026-03-28T15:58:12.713Z</time></trkpt><trkpt lat="45.6644692" lon="10.347957"><ele>407.0</ele><time>2026-03-28T15:58:13.713Z</time></trkpt><trkpt lat="45.6643039" lon="10.3480235"><ele>405.0</ele><time>2026-03-28T15:58:14.712Z</time></trkpt><trkpt lat="45.6641155" lon="10.3480833"><ele>405.0</ele><time>2026-03-28T15:58:15.712Z</time></trkpt><trkpt lat="45.6639167" lon="10.3481439"><ele>405.0</ele><time>2026-03-28T15:58:16.712Z</time></trkpt><trkpt lat="45.6637364" lon="10.3482051"><ele>405.0</ele><time>2026-03-28T15:58:17.713Z</time></trkpt><trkpt lat="45.66356" lon="10.3482625"><ele>405.33333333333337</ele><time>2026-03-28T15:58:18.713Z</time></trkpt><trkpt lat="45.6633859" lon="10.3483171"><ele>405.6666666666667</ele><time>2026-03-28T15:58:19.713Z</time></trkpt><trkpt lat="45.6632271" lon="10.3483719"><ele>406.0</ele><time>2026-03-28T15:58:20.713Z</time></trkpt><trkpt lat="45.6630851" lon="10.3484218"><ele>406.0</ele><time>2026-03-28T15:58:21.712Z</time></trkpt><trkpt lat="45.662963" lon="10.3484629"><ele>406.0</ele><time>2026-03-28T15:58:22.712Z</time></trkpt><trkpt lat="45.6628572" lon="10.3484986"><ele>406.0</ele><time>2026-03-28T15:58:23.713Z</time></trkpt><trkpt lat="45.6627618" lon="10.3485168"><ele>406.0</ele><time>2026-03-28T15:58:24.713Z</time></trkpt><trkpt lat="45.6626685" lon="10.3484988"><ele>406.0</ele><time>2026-03-28T15:58:25.712Z</time></trkpt><trkpt lat="45.6625903" lon="10.348438"><ele>406.4</ele><time>2026-03-28T15:58:26.712Z</time></trkpt><trkpt lat="45.6625281" lon="10.3483468"><ele>406.8</ele><time>2026-03-28T15:58:27.713Z</time></trkpt><trkpt lat="45.6624933" lon="10.3482251"><ele>407.2</ele><time>2026-03-28T15:58:28.712Z</time></trkpt><trkpt lat="45.6624899" lon="10.3480845"><ele>407.59999999999997</ele><time>2026-03-28T15:58:29.713Z</time></trkpt><trkpt lat="45.6625203" lon="10.3479309"><ele>408.0</ele><time>2026-03-28T15:58:30.713Z</time></trkpt><trkpt lat="45.6625832" lon="10.3477734"><ele>408.0</ele><time>2026-03-28T15:58:31.713Z</time></trkpt><trkpt lat="45.6626659" lon="10.3475912"><ele>408.0</ele><time>2026-03-28T15:58:32.713Z</time></trkpt><trkpt lat="45.6627664" lon="10.3473793"><ele>408.0</ele><time>2026-03-28T15:58:33.712Z</time></trkpt><trkpt lat="45.6628745" lon="10.3471529"><ele>413.0</ele><time>2026-03-28T15:58:34.712Z</time></trkpt><trkpt lat="45.6629879" lon="10.3469103"><ele>418.0</ele><time>2026-03-28T15:58:35.712Z</time></trkpt><trkpt lat="45.6631067" lon="10.3466573"><ele>423.0</ele><time>2026-03-28T15:58:36.712Z</time></trkpt><trkpt lat="45.6632216" lon="10.3464089"><ele>421.33333333333337</ele><time>2026-03-28T15:58:37.713Z</time></trkpt><trkpt lat="45.6633198" lon="10.3461795"><ele>419.6666666666667</ele><time>2026-03-28T15:58:38.712Z</time></trkpt><trkpt lat="45.6634001" lon="10.3459476"><ele>418.0</ele><time>2026-03-28T15:58:39.712Z</time></trkpt><trkpt lat="45.6634743" lon="10.3457071"><ele>417.6666666666667</ele><time>2026-03-28T15:58:40.713Z</time></trkpt><trkpt lat="45.6635398" lon="10.3454701"><ele>417.33333333333337</ele><time>2026-03-28T15:58:41.713Z</time></trkpt><trkpt lat="45.6635957" lon="10.345224"><ele>417.0</ele><time>2026-03-28T15:58:42.713Z</time></trkpt><trkpt lat="45.6636446" lon="10.3449636"><ele>427.0</ele><time>2026-03-28T15:58:43.713Z</time></trkpt><trkpt lat="45.6636971" lon="10.3446803"><ele>437.0</ele><time>2026-03-28T15:58:44.712Z</time></trkpt><trkpt lat="45.6637632" lon="10.3443874"><ele>447.0</ele><time>2026-03-28T15:58:45.712Z</time></trkpt><trkpt lat="45.6638365" lon="10.3440896"><ele>445.66666666666663</ele><time>2026-03-28T15:58:46.713Z</time></trkpt><trkpt lat="45.6639086" lon="10.3437896"><ele>444.3333333333333</ele><time>2026-03-28T15:58:47.713Z</time></trkpt><trkpt lat="45.6639789" lon="10.3434811"><ele>443.0</ele><time>2026-03-28T15:58:48.712Z</time></trkpt><trkpt lat="45.6640428" lon="10.343181"><ele>441.66666666666663</ele><time>2026-03-28T15:58:49.713Z</time></trkpt><trkpt lat="45.6640853" lon="10.342894"><ele>440.33333333333337</ele><time>2026-03-28T15:58:50.713Z</time></trkpt><trkpt lat="45.6641023" lon="10.3426003"><ele>439.0</ele><time>2026-03-28T15:58:51.712Z</time></trkpt><trkpt lat="45.664095" lon="10.3422981"><ele>441.6666666666667</ele><time>2026-03-28T15:58:52.713Z</time></trkpt><trkpt lat="45.6640676" lon="10.3420002"><ele>444.33333333333337</ele><time>2026-03-28T15:58:53.713Z</time></trkpt><trkpt lat="45.6640323" lon="10.3417366"><ele>447.0</ele><time>2026-03-28T15:58:54.713Z</time></trkpt><trkpt lat="45.6639973" lon="10.3414948"><ele>450.25</ele><time>2026-03-28T15:58:55.712Z</time></trkpt><trkpt lat="45.6639555" lon="10.3412848"><ele>453.5</ele><time>2026-03-28T15:58:56.712Z</time></trkpt><trkpt lat="45.6638972" lon="10.3411064"><ele>456.75</ele><time>2026-03-28T15:58:57.712Z</time></trkpt><trkpt lat="45.6638104" lon="10.3409626"><ele>460.0</ele><time>2026-03-28T15:58:58.713Z</time></trkpt><trkpt lat="45.6636994" lon="10.3408596"><ele>459.25</ele><time>2026-03-28T15:58:59.712Z</time></trkpt><trkpt lat="45.6635695" lon="10.3408092"><ele>458.5</ele><time>2026-03-28T15:59:00.712Z</time></trkpt><trkpt lat="45.6634264" lon="10.3408227"><ele>457.75</ele><time>2026-03-28T15:59:01.712Z</time></trkpt><trkpt lat="45.6632791" lon="10.3408929"><ele>457.0</ele><time>2026-03-28T15:59:02.713Z</time></trkpt><trkpt lat="45.6631307" lon="10.3410086"><ele>457.0</ele><time>2026-03-28T15:59:03.712Z</time></trkpt><trkpt lat="45.662974" lon="10.3411543"><ele>457.0</ele><time>2026-03-28T15:59:04.712Z</time></trkpt><trkpt lat="45.6628028" lon="10.3413129"><ele>457.0</ele><time>2026-03-28T15:59:05.714Z</time></trkpt><trkpt lat="45.6626231" lon="10.3414741"><ele>461.0</ele><time>2026-03-28T15:59:06.712Z</time></trkpt><trkpt lat="45.6624326" lon="10.3416475"><ele>465.0</ele><time>2026-03-28T15:59:07.712Z</time></trkpt><trkpt lat="45.6622355" lon="10.3418268"><ele>465.0</ele><time>2026-03-28T15:59:08.712Z</time></trkpt><trkpt lat="45.6620314" lon="10.3420143"><ele>465.0</ele><time>2026-03-28T15:59:09.712Z</time></trkpt><trkpt lat="45.6618216" lon="10.3422148"><ele>466.0</ele><time>2026-03-28T15:59:10.713Z</time></trkpt><trkpt lat="45.6616197" lon="10.3424203"><ele>467.0</ele><time>2026-03-28T15:59:11.713Z</time></trkpt><trkpt lat="45.6614243" lon="10.3426389"><ele>467.0</ele><time>2026-03-28T15:59:12.713Z</time></trkpt><trkpt lat="45.6612295" lon="10.3428682"><ele>467.0</ele><time>2026-03-28T15:59:13.713Z</time></trkpt><trkpt lat="45.6610498" lon="10.3430844"><ele>469.66666666666663</ele><time>2026-03-28T15:59:14.713Z</time></trkpt><trkpt lat="45.6608819" lon="10.3432823"><ele>472.33333333333337</ele><time>2026-03-28T15:59:15.712Z</time></trkpt><trkpt lat="45.6607113" lon="10.3434565"><ele>475.0</ele><time>2026-03-28T15:59:16.712Z</time></trkpt><trkpt lat="45.6605271" lon="10.343605"><ele>475.0</ele><time>2026-03-28T15:59:17.713Z</time></trkpt><trkpt lat="45.6603307" lon="10.3437251"><ele>475.0</ele><time>2026-03-28T15:59:18.712Z</time></trkpt><trkpt lat="45.6601323" lon="10.3438095"><ele>475.0</ele><time>2026-03-28T15:59:19.713Z</time></trkpt><trkpt lat="45.65994" lon="10.3438627"><ele>473.33333333333337</ele><time>2026-03-28T15:59:20.713Z</time></trkpt><trkpt lat="45.6597605" lon="10.3438872"><ele>471.66666666666663</ele><time>2026-03-28T15:59:21.713Z</time></trkpt><trkpt lat="45.6595956" lon="10.3439039"><ele>470.0</ele><time>2026-03-28T15:59:22.713Z</time></trkpt><trkpt lat="45.6594569" lon="10.3439239"><ele>472.0</ele><time>2026-03-28T15:59:23.713Z</time></trkpt><trkpt lat="45.6593427" lon="10.343935"><ele>474.0</ele><time>2026-03-28T15:59:24.712Z</time></trkpt><trkpt lat="45.6592388" lon="10.3439201"><ele>476.0</ele><time>2026-03-28T15:59:25.712Z</time></trkpt><trkpt lat="45.659153" lon="10.3438872"><ele>478.0</ele><time>2026-03-28T15:59:26.712Z</time></trkpt><trkpt lat="45.6590857" lon="10.3438272"><ele>480.0</ele><time>2026-03-28T15:59:27.712Z</time></trkpt><trkpt lat="45.6590249" lon="10.3437484"><ele>483.2</ele><time>2026-03-28T15:59:28.713Z</time></trkpt><trkpt lat="45.6589548" lon="10.343694"><ele>486.4</ele><time>2026-03-28T15:59:29.713Z</time></trkpt><trkpt lat="45.6588719" lon="10.3436879"><ele>489.6</ele><time>2026-03-28T15:59:30.712Z</time></trkpt><trkpt lat="45.6587815" lon="10.3437275"><ele>492.8</ele><time>2026-03-28T15:59:31.712Z</time></trkpt><trkpt lat="45.6586831" lon="10.3438029"><ele>496.0</ele><time>2026-03-28T15:59:32.713Z</time></trkpt><trkpt lat="45.6585699" lon="10.3438762"><ele>494.5</ele><time>2026-03-28T15:59:33.712Z</time></trkpt><trkpt lat="45.6584356" lon="10.3439212"><ele>493.0</ele><time>2026-03-28T15:59:34.712Z</time></trkpt><trkpt lat="45.6582881" lon="10.3439453"><ele>491.5</ele><time>2026-03-28T15:59:35.712Z</time></trkpt><trkpt lat="45.6581304" lon="10.3439714"><ele>490.0</ele><time>2026-03-28T15:59:36.712Z</time></trkpt><trkpt lat="45.6579699" lon="10.3440227"><ele>490.0</ele><time>2026-03-28T15:59:37.713Z</time></trkpt><trkpt lat="45.6578094" lon="10.3440957"><ele>490.0</ele><time>2026-03-28T15:59:38.712Z</time></trkpt><trkpt lat="45.6576592" lon="10.3441865"><ele>490.0</ele><time>2026-03-28T15:59:39.712Z</time></trkpt><trkpt lat="45.6575215" lon="10.3442853"><ele>493.0</ele><time>2026-03-28T15:59:40.712Z</time></trkpt><trkpt lat="45.6573879" lon="10.344382"><ele>496.0</ele><time>2026-03-28T15:59:41.712Z</time></trkpt><trkpt lat="45.6572518" lon="10.3444818"><ele>499.0</ele><time>2026-03-28T15:59:42.713Z</time></trkpt><trkpt lat="45.6571149" lon="10.3445837"><ele>499.0</ele><time>2026-03-28T15:59:43.713Z</time></trkpt><trkpt lat="45.6569744" lon="10.3446826"><ele>499.0</ele><time>2026-03-28T15:59:44.712Z</time></trkpt><trkpt lat="45.6568311" lon="10.344782"><ele>499.0</ele><time>2026-03-28T15:59:45.713Z</time></trkpt><trkpt lat="45.6566869" lon="10.34487"><ele>497.33333333333337</ele><time>2026-03-28T15:59:46.713Z</time></trkpt><trkpt lat="45.6565412" lon="10.3449409"><ele>495.66666666666663</ele><time>2026-03-28T15:59:47.712Z</time></trkpt><trkpt lat="45.656395" lon="10.3449941"><ele>494.0</ele><time>2026-03-28T15:59:48.713Z</time></trkpt><trkpt lat="45.6562507" lon="10.3450352"><ele>497.3333333333333</ele><time>2026-03-28T15:59:49.713Z</time></trkpt><trkpt lat="45.6561031" lon="10.3450631"><ele>500.66666666666663</ele><time>2026-03-28T15:59:50.713Z</time></trkpt><trkpt lat="45.6559515" lon="10.3450784"><ele>504.0</ele><time>2026-03-28T15:59:51.713Z</time></trkpt><trkpt lat="45.6557964" lon="10.3450793"><ele>504.0</ele><time>2026-03-28T15:59:52.712Z</time></trkpt><trkpt lat="45.6556385" lon="10.345069"><ele>504.0</ele><time>2026-03-28T15:59:53.713Z</time></trkpt><trkpt lat="45.655485" lon="10.3450581"><ele>504.0</ele><time>2026-03-28T15:59:54.713Z</time></trkpt><trkpt lat="45.6553323" lon="10.3450486"><ele>505.33333333333337</ele><time>2026-03-28T15:59:55.713Z</time></trkpt><trkpt lat="45.6551759" lon="10.3450397"><ele>506.6666666666667</ele><time>2026-03-28T15:59:56.713Z</time></trkpt><trkpt lat="45.6550219" lon="10.3450398"><ele>508.0</ele><time>2026-03-28T15:59:57.712Z</time></trkpt><trkpt lat="45.6548675" lon="10.3450544"><ele>508.0</ele><time>2026-03-28T15:59:58.713Z</time></trkpt><trkpt lat="45.6547147" lon="10.3450768"><ele>508.0</ele><time>2026-03-28T15:59:59.712Z</time></trkpt><trkpt lat="45.6545572" lon="10.345108"><ele>508.0</ele><time>2026-03-28T16:00:00.712Z</time></trkpt><trkpt lat="45.6544029" lon="10.3451472"><ele>511.33333333333337</ele><time>2026-03-28T16:00:01.712Z</time></trkpt><trkpt lat="45.6542562" lon="10.3452017"><ele>514.6666666666666</ele><time>2026-03-28T16:00:02.713Z</time></trkpt><trkpt lat="45.6541106" lon="10.3452668"><ele>518.0</ele><time>2026-03-28T16:00:03.712Z</time></trkpt><trkpt lat="45.6539646" lon="10.3453396"><ele>518.0</ele><time>2026-03-28T16:00:04.712Z</time></trkpt><trkpt lat="45.6538191" lon="10.3454165"><ele>518.0</ele><time>2026-03-28T16:00:05.712Z</time></trkpt><trkpt lat="45.6536701" lon="10.3454961"><ele>518.0</ele><time>2026-03-28T16:00:06.713Z</time></trkpt><trkpt lat="45.653521" lon="10.3455766"><ele>516.0</ele><time>2026-03-28T16:00:07.712Z</time></trkpt><trkpt lat="45.6533712" lon="10.3456562"><ele>514.0</ele><time>2026-03-28T16:00:08.712Z</time></trkpt><trkpt lat="45.653228" lon="10.3457298"><ele>512.0</ele><time>2026-03-28T16:00:09.712Z</time></trkpt><trkpt lat="45.6530967" lon="10.345798"><ele>512.0</ele><time>2026-03-28T16:00:10.713Z</time></trkpt><trkpt lat="45.6529615" lon="10.3458717"><ele>512.0</ele><time>2026-03-28T16:00:11.712Z</time></trkpt><trkpt lat="45.6528181" lon="10.3459528"><ele>512.0</ele><time>2026-03-28T16:00:12.712Z</time></trkpt><trkpt lat="45.65266" lon="10.3460489"><ele>516.6666666666666</ele><time>2026-03-28T16:00:13.712Z</time></trkpt><trkpt lat="45.6524814" lon="10.3461536"><ele>521.3333333333334</ele><time>2026-03-28T16:00:14.712Z</time></trkpt><trkpt lat="45.6522836" lon="10.3462603"><ele>526.0</ele><time>2026-03-28T16:00:15.713Z</time></trkpt><trkpt lat="45.6520718" lon="10.3463651"><ele>527.5</ele><time>2026-03-28T16:00:16.713Z</time></trkpt><trkpt lat="45.6518509" lon="10.3464698"><ele>529.0</ele><time>2026-03-28T16:00:17.712Z</time></trkpt><trkpt lat="45.6516237" lon="10.34658"><ele>529.0</ele><time>2026-03-28T16:00:18.713Z</time></trkpt><trkpt lat="45.6513927" lon="10.3466973"><ele>529.0</ele><time>2026-03-28T16:00:19.712Z</time></trkpt><trkpt lat="45.6511607" lon="10.3468209"><ele>535.6666666666667</ele><time>2026-03-28T16:00:20.713Z</time></trkpt><trkpt lat="45.650948" lon="10.3469318"><ele>542.3333333333334</ele><time>2026-03-28T16:00:21.712Z</time></trkpt><trkpt lat="45.6507521" lon="10.3470334"><ele>549.0</ele><time>2026-03-28T16:00:22.712Z</time></trkpt><trkpt lat="45.6505853" lon="10.3471345"><ele>541.6666666666666</ele><time>2026-03-28T16:00:23.712Z</time></trkpt><trkpt lat="45.6504445" lon="10.3472503"><ele>534.3333333333333</ele><time>2026-03-28T16:00:24.712Z</time></trkpt><trkpt lat="45.6503309" lon="10.3473939"><ele>527.0</ele><time>2026-03-28T16:00:25.712Z</time></trkpt><trkpt lat="45.6502346" lon="10.3475803"><ele>534.0</ele><time>2026-03-28T16:00:26.712Z</time></trkpt><trkpt lat="45.6501588" lon="10.3477971"><ele>541.0</ele><time>2026-03-28T16:00:27.713Z</time></trkpt><trkpt lat="45.6500938" lon="10.3480095"><ele>548.0</ele><time>2026-03-28T16:00:28.712Z</time></trkpt><trkpt lat="45.6500071" lon="10.3482004"><ele>548.0</ele><time>2026-03-28T16:00:29.712Z</time></trkpt><trkpt lat="45.6498868" lon="10.3483806"><ele>548.0</ele><time>2026-03-28T16:00:30.712Z</time></trkpt><trkpt lat="45.6497408" lon="10.3485579"><ele>548.0</ele><time>2026-03-28T16:00:31.712Z</time></trkpt><trkpt lat="45.6495751" lon="10.3487421"><ele>550.3333333333333</ele><time>2026-03-28T16:00:32.713Z</time></trkpt><trkpt lat="45.6494042" lon="10.3489336"><ele>552.6666666666666</ele><time>2026-03-28T16:00:33.712Z</time></trkpt><trkpt lat="45.6492559" lon="10.3491061"><ele>555.0</ele><time>2026-03-28T16:00:34.713Z</time></trkpt><trkpt lat="45.6491268" lon="10.3492563"><ele>555.0</ele><time>2026-03-28T16:00:35.712Z</time></trkpt><trkpt lat="45.6489984" lon="10.3493728"><ele>555.0</ele><time>2026-03-28T16:00:36.712Z</time></trkpt><trkpt lat="45.6488616" lon="10.3494417"><ele>555.0</ele><time>2026-03-28T16:00:37.713Z</time></trkpt><trkpt lat="45.6487133" lon="10.3494583"><ele>555.0</ele><time>2026-03-28T16:00:38.713Z</time></trkpt><trkpt lat="45.6485661" lon="10.349415"><ele>555.0</ele><time>2026-03-28T16:00:39.712Z</time></trkpt><trkpt lat="45.6484273" lon="10.3493163"><ele>555.0</ele><time>2026-03-28T16:00:40.713Z</time></trkpt><trkpt lat="45.6482977" lon="10.349163"><ele>555.0</ele><time>2026-03-28T16:00:41.713Z</time></trkpt><trkpt lat="45.6481601" lon="10.3489823"><ele>555.6666666666666</ele><time>2026-03-28T16:00:42.713Z</time></trkpt><trkpt lat="45.6479988" lon="10.3487822"><ele>556.3333333333333</ele><time>2026-03-28T16:00:43.713Z</time></trkpt><trkpt lat="45.6478407" lon="10.3485975"><ele>557.0</ele><time>2026-03-28T16:00:44.712Z</time></trkpt><trkpt lat="45.6476971" lon="10.3484332"><ele>557.0</ele><time>2026-03-28T16:00:45.712Z</time></trkpt><trkpt lat="45.6475713" lon="10.3482693"><ele>557.0</ele><time>2026-03-28T16:00:46.713Z</time></trkpt><trkpt lat="45.6474654" lon="10.3480759"><ele>557.0</ele><time>2026-03-28T16:00:47.712Z</time></trkpt><trkpt lat="45.6473869" lon="10.3478586"><ele>563.3333333333333</ele><time>2026-03-28T16:00:48.713Z</time></trkpt><trkpt lat="45.6473363" lon="10.3476184"><ele>569.6666666666666</ele><time>2026-03-28T16:00:49.713Z</time></trkpt><trkpt lat="45.6473024" lon="10.3473422"><ele>576.0</ele><time>2026-03-28T16:00:50.713Z</time></trkpt><trkpt lat="45.6472707" lon="10.3470467"><ele>577.5</ele><time>2026-03-28T16:00:51.712Z</time></trkpt><trkpt lat="45.6472278" lon="10.3467297"><ele>579.0</ele><time>2026-03-28T16:00:52.713Z</time></trkpt><trkpt lat="45.6471684" lon="10.3463964"><ele>582.0</ele><time>2026-03-28T16:00:53.713Z</time></trkpt><trkpt lat="45.647095" lon="10.3460567"><ele>585.0</ele><time>2026-03-28T16:00:54.713Z</time></trkpt><trkpt lat="45.647006" lon="10.3457017"><ele>575.0</ele><time>2026-03-28T16:00:55.712Z</time></trkpt><trkpt lat="45.6469135" lon="10.3453297"><ele>565.0</ele><time>2026-03-28T16:00:56.712Z</time></trkpt><trkpt lat="45.6468183" lon="10.3449434"><ele>571.5</ele><time>2026-03-28T16:00:57.712Z</time></trkpt><trkpt lat="45.6467205" lon="10.3445524"><ele>578.0</ele><time>2026-03-28T16:00:58.712Z</time></trkpt><trkpt lat="45.6466296" lon="10.3441869"><ele>580.0</ele><time>2026-03-28T16:00:59.712Z</time></trkpt><trkpt lat="45.6465456" lon="10.343849"><ele>582.0</ele><time>2026-03-28T16:01:00.712Z</time></trkpt><trkpt lat="45.6464657" lon="10.3435414"><ele>582.0</ele><time>2026-03-28T16:01:01.712Z</time></trkpt><trkpt lat="45.6463952" lon="10.3432664"><ele>582.0</ele><time>2026-03-28T16:01:02.713Z</time></trkpt><trkpt lat="45.6463317" lon="10.3430151"><ele>582.0</ele><time>2026-03-28T16:01:03.712Z</time></trkpt><trkpt lat="45.6462774" lon="10.3427862"><ele>582.0</ele><time>2026-03-28T16:01:04.712Z</time></trkpt><trkpt lat="45.6462235" lon="10.3425835"><ele>582.0</ele><time>2026-03-28T16:01:05.712Z</time></trkpt><trkpt lat="45.6461767" lon="10.3424067"><ele>582.0</ele><time>2026-03-28T16:01:06.712Z</time></trkpt><trkpt lat="45.6461606" lon="10.3422444"><ele>582.0</ele><time>2026-03-28T16:01:07.713Z</time></trkpt><trkpt lat="45.646187" lon="10.342086"><ele>582.5</ele><time>2026-03-28T16:01:08.713Z</time></trkpt><trkpt lat="45.6462593" lon="10.3419662"><ele>583.0</ele><time>2026-03-28T16:01:09.713Z</time></trkpt><trkpt lat="45.6463625" lon="10.3419143"><ele>583.5</ele><time>2026-03-28T16:01:10.712Z</time></trkpt><trkpt lat="45.6464738" lon="10.3419415"><ele>584.0</ele><time>2026-03-28T16:01:11.712Z</time></trkpt><trkpt lat="45.6465694" lon="10.3420421"><ele>584.0</ele><time>2026-03-28T16:01:12.712Z</time></trkpt><trkpt lat="45.6466294" lon="10.3422027"><ele>584.0</ele><time>2026-03-28T16:01:13.713Z</time></trkpt><trkpt lat="45.646675" lon="10.342404"><ele>584.0</ele><time>2026-03-28T16:01:14.713Z</time></trkpt><trkpt lat="45.6467275" lon="10.342643"><ele>583.0</ele><time>2026-03-28T16:01:15.712Z</time></trkpt><trkpt lat="45.6467933" lon="10.3429288"><ele>582.0</ele><time>2026-03-28T16:01:16.712Z</time></trkpt><trkpt lat="45.6468704" lon="10.3432538"><ele>582.0</ele><time>2026-03-28T16:01:17.713Z</time></trkpt><trkpt lat="45.646958" lon="10.3436034"><ele>582.0</ele><time>2026-03-28T16:01:18.713Z</time></trkpt><trkpt lat="45.6470579" lon="10.343948"><ele>593.5</ele><time>2026-03-28T16:01:19.713Z</time></trkpt><trkpt lat="45.647167" lon="10.3442532"><ele>605.0</ele><time>2026-03-28T16:01:20.713Z</time></trkpt><trkpt lat="45.6472947" lon="10.3445695"><ele>600.0</ele><time>2026-03-28T16:01:21.712Z</time></trkpt><trkpt lat="45.6474351" lon="10.3448779"><ele>595.0</ele><time>2026-03-28T16:01:22.712Z</time></trkpt><trkpt lat="45.6475689" lon="10.3451503"><ele>595.0</ele><time>2026-03-28T16:01:23.712Z</time></trkpt><trkpt lat="45.6476795" lon="10.3453862"><ele>595.0</ele><time>2026-03-28T16:01:24.712Z</time></trkpt><trkpt lat="45.6477802" lon="10.3455923"><ele>595.0</ele><time>2026-03-28T16:01:25.712Z</time></trkpt><trkpt lat="45.647864" lon="10.3457651"><ele>600.8</ele><time>2026-03-28T16:01:26.712Z</time></trkpt><trkpt lat="45.6479347" lon="10.3458976"><ele>606.6</ele><time>2026-03-28T16:01:27.712Z</time></trkpt><trkpt lat="45.6480154" lon="10.3459742"><ele>612.4</ele><time>2026-03-28T16:01:28.713Z</time></trkpt><trkpt lat="45.6481096" lon="10.3459828"><ele>618.2</ele><time>2026-03-28T16:01:29.713Z</time></trkpt><trkpt lat="45.6481855" lon="10.3459173"><ele>624.0</ele><time>2026-03-28T16:01:30.712Z</time></trkpt><trkpt lat="45.6482185" lon="10.3457857"><ele>624.0</ele><time>2026-03-28T16:01:31.713Z</time></trkpt><trkpt lat="45.6482063" lon="10.3456327"><ele>624.0</ele><time>2026-03-28T16:01:32.712Z</time></trkpt><trkpt lat="45.6481622" lon="10.3454444"><ele>624.0</ele><time>2026-03-28T16:01:33.713Z</time></trkpt><trkpt lat="45.6481123" lon="10.3452197"><ele>624.0</ele><time>2026-03-28T16:01:34.713Z</time></trkpt><trkpt lat="45.6480544" lon="10.3449603"><ele>629.3333333333334</ele><time>2026-03-28T16:01:35.713Z</time></trkpt><trkpt lat="45.6479906" lon="10.344675"><ele>634.6666666666667</ele><time>2026-03-28T16:01:36.712Z</time></trkpt><trkpt lat="45.6479265" lon="10.3443778"><ele>640.0</ele><time>2026-03-28T16:01:37.712Z</time></trkpt><trkpt lat="45.647875" lon="10.3441024"><ele>642.3333333333334</ele><time>2026-03-28T16:01:38.712Z</time></trkpt><trkpt lat="45.6478413" lon="10.3438357"><ele>644.6666666666666</ele><time>2026-03-28T16:01:39.712Z</time></trkpt><trkpt lat="45.6478285" lon="10.3435586"><ele>647.0</ele><time>2026-03-28T16:01:40.712Z</time></trkpt><trkpt lat="45.6478407" lon="10.3432791"><ele>644.3333333333333</ele><time>2026-03-28T16:01:41.712Z</time></trkpt><trkpt lat="45.6478789" lon="10.3430036"><ele>641.6666666666666</ele><time>2026-03-28T16:01:42.712Z</time></trkpt><trkpt lat="45.6479451" lon="10.3427339"><ele>639.0</ele><time>2026-03-28T16:01:43.713Z</time></trkpt><trkpt lat="45.648037" lon="10.3424694"><ele>639.0</ele><time>2026-03-28T16:01:44.712Z</time></trkpt><trkpt lat="45.6481566" lon="10.3422176"><ele>639.0</ele><time>2026-03-28T16:01:45.712Z</time></trkpt><trkpt lat="45.6483021" lon="10.3419776"><ele>639.0</ele><time>2026-03-28T16:01:46.712Z</time></trkpt><trkpt lat="45.6484611" lon="10.3417375"><ele>640.0</ele><time>2026-03-28T16:01:47.713Z</time></trkpt><trkpt lat="45.648627" lon="10.3414852"><ele>641.0</ele><time>2026-03-28T16:01:48.713Z</time></trkpt><trkpt lat="45.6487935" lon="10.3412283"><ele>641.0</ele><time>2026-03-28T16:01:49.712Z</time></trkpt><trkpt lat="45.6489466" lon="10.3409989"><ele>641.0</ele><time>2026-03-28T16:01:50.713Z</time></trkpt><trkpt lat="45.6490859" lon="10.3407838"><ele>641.0</ele><time>2026-03-28T16:01:51.713Z</time></trkpt><trkpt lat="45.649203" lon="10.3405671"><ele>638.6666666666666</ele><time>2026-03-28T16:01:52.713Z</time></trkpt><trkpt lat="45.6492903" lon="10.3403285"><ele>636.3333333333334</ele><time>2026-03-28T16:01:53.712Z</time></trkpt><trkpt lat="45.649346" lon="10.3400654"><ele>634.0</ele><time>2026-03-28T16:01:54.713Z</time></trkpt><trkpt lat="45.6493593" lon="10.3397953"><ele>635.6666666666667</ele><time>2026-03-28T16:01:55.713Z</time></trkpt><trkpt lat="45.6493311" lon="10.3395228"><ele>637.3333333333334</ele><time>2026-03-28T16:01:56.713Z</time></trkpt><trkpt lat="45.6492602" lon="10.3392608"><ele>639.0</ele><time>2026-03-28T16:01:57.713Z</time></trkpt><trkpt lat="45.6491515" lon="10.3390253"><ele>642.0</ele><time>2026-03-28T16:01:58.712Z</time></trkpt><trkpt lat="45.6490191" lon="10.3388371"><ele>645.0</ele><time>2026-03-28T16:01:59.712Z</time></trkpt><trkpt lat="45.6488649" lon="10.3386875"><ele>648.0</ele><time>2026-03-28T16:02:00.712Z</time></trkpt><trkpt lat="45.6486858" lon="10.33857"><ele>649.6666666666666</ele><time>2026-03-28T16:02:01.712Z</time></trkpt><trkpt lat="45.6484918" lon="10.3384628"><ele>651.3333333333333</ele><time>2026-03-28T16:02:02.713Z</time></trkpt><trkpt lat="45.6482913" lon="10.3383542"><ele>653.0</ele><time>2026-03-28T16:02:03.713Z</time></trkpt><trkpt lat="45.6480995" lon="10.3382432"><ele>653.0</ele><time>2026-03-28T16:02:04.712Z</time></trkpt><trkpt lat="45.6479161" lon="10.3381242"><ele>653.0</ele><time>2026-03-28T16:02:05.713Z</time></trkpt><trkpt lat="45.647744" lon="10.3379729"><ele>653.0</ele><time>2026-03-28T16:02:06.713Z</time></trkpt><trkpt lat="45.6475866" lon="10.3377855"><ele>655.0</ele><time>2026-03-28T16:02:07.712Z</time></trkpt><trkpt lat="45.6474493" lon="10.337568"><ele>657.0</ele><time>2026-03-28T16:02:08.712Z</time></trkpt><trkpt lat="45.647331" lon="10.3373243"><ele>659.0</ele><time>2026-03-28T16:02:09.712Z</time></trkpt><trkpt lat="45.6472363" lon="10.3370563"><ele>666.3333333333333</ele><time>2026-03-28T16:02:10.713Z</time></trkpt><trkpt lat="45.6471671" lon="10.336769"><ele>673.6666666666666</ele><time>2026-03-28T16:02:11.713Z</time></trkpt><trkpt lat="45.6471285" lon="10.3364695"><ele>681.0</ele><time>2026-03-28T16:02:12.712Z</time></trkpt><trkpt lat="45.647116" lon="10.3361575"><ele>680.5</ele><time>2026-03-28T16:02:13.712Z</time></trkpt><trkpt lat="45.6471244" lon="10.3358387"><ele>680.0</ele><time>2026-03-28T16:02:14.712Z</time></trkpt><trkpt lat="45.6471437" lon="10.3355102"><ele>680.0</ele><time>2026-03-28T16:02:15.713Z</time></trkpt><trkpt lat="45.6471634" lon="10.33517"><ele>680.0</ele><time>2026-03-28T16:02:16.713Z</time></trkpt><trkpt lat="45.6471802" lon="10.3348212"><ele>680.5</ele><time>2026-03-28T16:02:17.713Z</time></trkpt><trkpt lat="45.6471916" lon="10.3344698"><ele>681.0</ele><time>2026-03-28T16:02:18.712Z</time></trkpt><trkpt lat="45.6471897" lon="10.3341255"><ele>682.5</ele><time>2026-03-28T16:02:19.713Z</time></trkpt><trkpt lat="45.6471733" lon="10.3337835"><ele>684.0</ele><time>2026-03-28T16:02:20.713Z</time></trkpt><trkpt lat="45.6471427" lon="10.333446"><ele>684.0</ele><time>2026-03-28T16:02:21.713Z</time></trkpt><trkpt lat="45.6471027" lon="10.3331086"><ele>684.0</ele><time>2026-03-28T16:02:22.713Z</time></trkpt><trkpt lat="45.6470623" lon="10.332772"><ele>694.0</ele><time>2026-03-28T16:02:23.713Z</time></trkpt><trkpt lat="45.6470186" lon="10.3324351"><ele>704.0</ele><time>2026-03-28T16:02:24.713Z</time></trkpt><trkpt lat="45.6469762" lon="10.3320998"><ele>722.0</ele><time>2026-03-28T16:02:25.712Z</time></trkpt><trkpt lat="45.6463709" lon="10.3238925"><ele>722.0</ele><time>2026-03-28T16:02:49.713Z</time></trkpt><trkpt lat="45.6464648" lon="10.3235796"><ele>722.0</ele><time>2026-03-28T16:02:50.713Z</time></trkpt><trkpt lat="45.6465603" lon="10.3232573"><ele>729.0</ele><time>2026-03-28T16:02:51.713Z</time></trkpt><trkpt lat="45.6466651" lon="10.3229413"><ele>736.0</ele><time>2026-03-28T16:02:52.713Z</time></trkpt><trkpt lat="45.6467687" lon="10.3226289"><ele>715.0</ele><time>2026-03-28T16:02:53.714Z</time></trkpt><trkpt lat="45.6483959" lon="10.3176899"><ele>715.0</ele><time>2026-03-28T16:03:08.714Z</time></trkpt><trkpt lat="45.6484485" lon="10.3173525"><ele>715.0</ele><time>2026-03-28T16:03:09.713Z</time></trkpt><trkpt lat="45.6484757" lon="10.3170477"><ele>711.0</ele><time>2026-03-28T16:03:10.713Z</time></trkpt><trkpt lat="45.6484796" lon="10.3167475"><ele>707.0</ele><time>2026-03-28T16:03:11.713Z</time></trkpt><trkpt lat="45.64844" lon="10.3164486"><ele>703.0</ele><time>2026-03-28T16:03:12.713Z</time></trkpt><trkpt lat="45.6483902" lon="10.3161452"><ele>694.5</ele><time>2026-03-28T16:03:13.714Z</time></trkpt><trkpt lat="45.6483339" lon="10.3158331"><ele>686.0</ele><time>2026-03-28T16:03:14.714Z</time></trkpt><trkpt lat="45.6482783" lon="10.3155109"><ele>678.0</ele><time>2026-03-28T16:03:15.714Z</time></trkpt><trkpt lat="45.6482203" lon="10.3151852"><ele>670.0</ele><time>2026-03-28T16:03:16.713Z</time></trkpt><trkpt lat="45.6481606" lon="10.3148547"><ele>682.0</ele><time>2026-03-28T16:03:17.713Z</time></trkpt><trkpt lat="45.6481018" lon="10.3145221"><ele>694.0</ele><time>2026-03-28T16:03:18.714Z</time></trkpt><trkpt lat="45.6480448" lon="10.3141882"><ele>717.5</ele><time>2026-03-28T16:03:19.714Z</time></trkpt><trkpt lat="45.6479851" lon="10.3138545"><ele>741.0</ele><time>2026-03-28T16:03:20.714Z</time></trkpt><trkpt lat="45.6479234" lon="10.3135177"><ele>741.0</ele><time>2026-03-28T16:03:21.713Z</time></trkpt><trkpt lat="45.6478667" lon="10.3131821"><ele>741.0</ele><time>2026-03-28T16:03:22.714Z</time></trkpt><trkpt lat="45.6478087" lon="10.3128437"><ele>745.5</ele><time>2026-03-28T16:03:23.713Z</time></trkpt><trkpt lat="45.6477506" lon="10.3125058"><ele>750.0</ele><time>2026-03-28T16:03:24.714Z</time></trkpt><trkpt lat="45.6475475" lon="10.3100331"><ele>732.0</ele><time>2026-03-28T16:03:31.713Z</time></trkpt><trkpt lat="45.6475218" lon="10.3096719"><ele>714.0</ele><time>2026-03-28T16:03:32.713Z</time></trkpt><trkpt lat="45.6474881" lon="10.3093135"><ele>714.0</ele><time>2026-03-28T16:03:33.713Z</time></trkpt><trkpt lat="45.6474587" lon="10.3089637"><ele>714.0</ele><time>2026-03-28T16:03:34.714Z</time></trkpt><trkpt lat="45.6474274" lon="10.308614"><ele>707.0</ele><time>2026-03-28T16:03:35.713Z</time></trkpt><trkpt lat="45.6473927" lon="10.3082606"><ele>700.0</ele><time>2026-03-28T16:03:36.714Z</time></trkpt><trkpt lat="45.6473619" lon="10.3079103"><ele>697.0</ele><time>2026-03-28T16:03:37.713Z</time></trkpt><trkpt lat="45.6473308" lon="10.3075623"><ele>694.0</ele><time>2026-03-28T16:03:38.714Z</time></trkpt><trkpt lat="45.6472993" lon="10.307217"><ele>702.0</ele><time>2026-03-28T16:03:39.713Z</time></trkpt><trkpt lat="45.6472702" lon="10.306871"><ele>710.0</ele><time>2026-03-28T16:03:40.713Z</time></trkpt><trkpt lat="45.647238" lon="10.3065238"><ele>716.0</ele><time>2026-03-28T16:03:41.713Z</time></trkpt><trkpt lat="45.6472087" lon="10.3061749"><ele>722.0</ele><time>2026-03-28T16:03:42.714Z</time></trkpt><trkpt lat="45.6471787" lon="10.3058344"><ele>728.3333333333333</ele><time>2026-03-28T16:03:43.713Z</time></trkpt><trkpt lat="45.6471497" lon="10.3055163"><ele>734.6666666666666</ele><time>2026-03-28T16:03:44.714Z</time></trkpt><trkpt lat="45.6471232" lon="10.3052182"><ele>741.0</ele><time>2026-03-28T16:03:45.714Z</time></trkpt><trkpt lat="45.6471044" lon="10.3049351"><ele>743.6666666666666</ele><time>2026-03-28T16:03:46.713Z</time></trkpt><trkpt lat="45.6471026" lon="10.3046528"><ele>746.3333333333333</ele><time>2026-03-28T16:03:47.714Z</time></trkpt><trkpt lat="45.6471219" lon="10.3043689"><ele>749.0</ele><time>2026-03-28T16:03:48.713Z</time></trkpt><trkpt lat="45.6471641" lon="10.3040845"><ele>748.6666666666666</ele><time>2026-03-28T16:03:49.714Z</time></trkpt><trkpt lat="45.6472276" lon="10.303797"><ele>748.3333333333334</ele><time>2026-03-28T16:03:50.714Z</time></trkpt><trkpt lat="45.6472993" lon="10.3035055"><ele>748.0</ele><time>2026-03-28T16:03:51.713Z</time></trkpt><trkpt lat="45.6473724" lon="10.3032117"><ele>739.5</ele><time>2026-03-28T16:03:52.714Z</time></trkpt><trkpt lat="45.6474434" lon="10.3029017"><ele>731.0</ele><time>2026-03-28T16:03:53.713Z</time></trkpt><trkpt lat="45.6475188" lon="10.3025807"><ele>731.0</ele><time>2026-03-28T16:03:54.713Z</time></trkpt><trkpt lat="45.6475994" lon="10.3022482"><ele>731.0</ele><time>2026-03-28T16:03:55.714Z</time></trkpt><trkpt lat="45.6476816" lon="10.3019034"><ele>737.5</ele><time>2026-03-28T16:03:56.713Z</time></trkpt><trkpt lat="45.6477604" lon="10.301575"><ele>744.0</ele><time>2026-03-28T16:03:57.713Z</time></trkpt><trkpt lat="45.6478364" lon="10.3012611"><ele>744.0</ele><time>2026-03-28T16:03:58.713Z</time></trkpt><trkpt lat="45.647907" lon="10.300964"><ele>744.0</ele><time>2026-03-28T16:03:59.714Z</time></trkpt><trkpt lat="45.6479596" lon="10.3006832"><ele>744.0</ele><time>2026-03-28T16:04:00.713Z</time></trkpt><trkpt lat="45.6479822" lon="10.3004063"><ele>744.3333333333334</ele><time>2026-03-28T16:04:01.714Z</time></trkpt><trkpt lat="45.6479757" lon="10.3001201"><ele>744.6666666666667</ele><time>2026-03-28T16:04:02.714Z</time></trkpt><trkpt lat="45.6479419" lon="10.2998191"><ele>745.0</ele><time>2026-03-28T16:04:03.714Z</time></trkpt><trkpt lat="45.6478944" lon="10.2995085"><ele>747.3333333333334</ele><time>2026-03-28T16:04:04.713Z</time></trkpt><trkpt lat="45.6478472" lon="10.2992156"><ele>749.6666666666666</ele><time>2026-03-28T16:04:05.714Z</time></trkpt><trkpt lat="45.6478132" lon="10.298931"><ele>752.0</ele><time>2026-03-28T16:04:06.713Z</time></trkpt><trkpt lat="45.6478018" lon="10.2986552"><ele>752.0</ele><time>2026-03-28T16:04:07.713Z</time></trkpt><trkpt lat="45.6478178" lon="10.2983736"><ele>752.0</ele><time>2026-03-28T16:04:08.713Z</time></trkpt><trkpt lat="45.647864" lon="10.2980945"><ele>752.0</ele><time>2026-03-28T16:04:09.714Z</time></trkpt><trkpt lat="45.6479388" lon="10.2978152"><ele>745.6666666666666</ele><time>2026-03-28T16:04:10.713Z</time></trkpt><trkpt lat="45.6480297" lon="10.2975284"><ele>739.3333333333334</ele><time>2026-03-28T16:04:11.714Z</time></trkpt><trkpt lat="45.6481181" lon="10.2972372"><ele>733.0</ele><time>2026-03-28T16:04:12.713Z</time></trkpt><trkpt lat="45.6482153" lon="10.2969372"><ele>725.0</ele><time>2026-03-28T16:04:13.713Z</time></trkpt><trkpt lat="45.6483104" lon="10.29664"><ele>717.0</ele><time>2026-03-28T16:04:14.714Z</time></trkpt><trkpt lat="45.6484359" lon="10.296272"><ele>706.5</ele><time>2026-03-28T16:04:15.714Z</time></trkpt><trkpt lat="45.6485585" lon="10.2958498"><ele>696.0</ele><time>2026-03-28T16:04:16.713Z</time></trkpt><trkpt lat="45.648703" lon="10.2954829"><ele>696.0</ele><time>2026-03-28T16:04:17.714Z</time></trkpt><trkpt lat="45.6488111" lon="10.2951408"><ele>696.0</ele><time>2026-03-28T16:04:18.713Z</time></trkpt><trkpt lat="45.6489126" lon="10.2947991"><ele>697.0</ele><time>2026-03-28T16:04:19.713Z</time></trkpt><trkpt lat="45.6490248" lon="10.2944631"><ele>698.0</ele><time>2026-03-28T16:04:20.714Z</time></trkpt><trkpt lat="45.6491327" lon="10.2941299"><ele>689.5</ele><time>2026-03-28T16:04:21.714Z</time></trkpt><trkpt lat="45.6492394" lon="10.2937985"><ele>681.0</ele><time>2026-03-28T16:04:22.713Z</time></trkpt><trkpt lat="45.6493473" lon="10.2934788"><ele>681.0</ele><time>2026-03-28T16:04:23.713Z</time></trkpt><trkpt lat="45.6494488" lon="10.2931724"><ele>681.0</ele><time>2026-03-28T16:04:24.713Z</time></trkpt><trkpt lat="45.6495459" lon="10.2928822"><ele>678.3333333333334</ele><time>2026-03-28T16:04:25.714Z</time></trkpt><trkpt lat="45.649644" lon="10.292611"><ele>675.6666666666667</ele><time>2026-03-28T16:04:26.713Z</time></trkpt><trkpt lat="45.6497497" lon="10.2923575"><ele>673.0</ele><time>2026-03-28T16:04:27.713Z</time></trkpt><trkpt lat="45.6498797" lon="10.2921182"><ele>673.0</ele><time>2026-03-28T16:04:28.713Z</time></trkpt><trkpt lat="45.6500279" lon="10.2918906"><ele>673.0</ele><time>2026-03-28T16:04:29.714Z</time></trkpt><trkpt lat="45.6501917" lon="10.2916707"><ele>673.0</ele><time>2026-03-28T16:04:30.713Z</time></trkpt><trkpt lat="45.6503639" lon="10.2914491"><ele>676.5</ele><time>2026-03-28T16:04:31.713Z</time></trkpt><trkpt lat="45.6505435" lon="10.2912269"><ele>680.0</ele><time>2026-03-28T16:04:32.713Z</time></trkpt><trkpt lat="45.6507305" lon="10.291006"><ele>680.0</ele><time>2026-03-28T16:04:33.713Z</time></trkpt><trkpt lat="45.6509192" lon="10.2907983"><ele>680.0</ele><time>2026-03-28T16:04:34.714Z</time></trkpt><trkpt lat="45.6511073" lon="10.2905993"><ele>679.5</ele><time>2026-03-28T16:04:35.713Z</time></trkpt><trkpt lat="45.6512928" lon="10.2903961"><ele>679.0</ele><time>2026-03-28T16:04:36.714Z</time></trkpt><trkpt lat="45.6514806" lon="10.2901885"><ele>679.0</ele><time>2026-03-28T16:04:37.713Z</time></trkpt><trkpt lat="45.6516746" lon="10.2899802"><ele>679.0</ele><time>2026-03-28T16:04:38.714Z</time></trkpt><trkpt lat="45.6518691" lon="10.2897724"><ele>676.0</ele><time>2026-03-28T16:04:39.714Z</time></trkpt><trkpt lat="45.6520583" lon="10.2895726"><ele>673.0</ele><time>2026-03-28T16:04:40.714Z</time></trkpt><trkpt lat="45.6522359" lon="10.2893833"><ele>673.0</ele><time>2026-03-28T16:04:41.713Z</time></trkpt><trkpt lat="45.6523965" lon="10.2892001"><ele>673.0</ele><time>2026-03-28T16:04:42.714Z</time></trkpt><trkpt lat="45.6525331" lon="10.2890113"><ele>673.0</ele><time>2026-03-28T16:04:43.713Z</time></trkpt><trkpt lat="45.6526494" lon="10.2888079"><ele>669.0</ele><time>2026-03-28T16:04:44.713Z</time></trkpt><trkpt lat="45.6527445" lon="10.2885868"><ele>665.0</ele><time>2026-03-28T16:04:45.712Z</time></trkpt><trkpt lat="45.6528221" lon="10.2883446"><ele>661.0</ele><time>2026-03-28T16:04:46.714Z</time></trkpt><trkpt lat="45.6528818" lon="10.2880792"><ele>670.0</ele><time>2026-03-28T16:04:47.713Z</time></trkpt><trkpt lat="45.6529372" lon="10.287801"><ele>679.0</ele><time>2026-03-28T16:04:48.713Z</time></trkpt><trkpt lat="45.652994" lon="10.2875091"><ele>688.0</ele><time>2026-03-28T16:04:49.714Z</time></trkpt><trkpt lat="45.6530467" lon="10.2872293"><ele>688.0</ele><time>2026-03-28T16:04:50.713Z</time></trkpt><trkpt lat="45.6530954" lon="10.2869624"><ele>688.0</ele><time>2026-03-28T16:04:51.714Z</time></trkpt><trkpt lat="45.6531433" lon="10.2867086"><ele>688.0</ele><time>2026-03-28T16:04:52.714Z</time></trkpt><trkpt lat="45.6531929" lon="10.2864539"><ele>684.6666666666667</ele><time>2026-03-28T16:04:53.713Z</time></trkpt><trkpt lat="45.6532524" lon="10.286204"><ele>681.3333333333334</ele><time>2026-03-28T16:04:54.713Z</time></trkpt><trkpt lat="45.6533318" lon="10.2859595"><ele>678.0</ele><time>2026-03-28T16:04:55.713Z</time></trkpt><trkpt lat="45.653433" lon="10.2857234"><ele>676.3333333333334</ele><time>2026-03-28T16:04:56.713Z</time></trkpt><trkpt lat="45.6535544" lon="10.2854983"><ele>674.6666666666667</ele><time>2026-03-28T16:04:57.714Z</time></trkpt><trkpt lat="45.6536912" lon="10.2852792"><ele>673.0</ele><time>2026-03-28T16:04:58.713Z</time></trkpt><trkpt lat="45.6538337" lon="10.2850562"><ele>673.0</ele><time>2026-03-28T16:04:59.713Z</time></trkpt><trkpt lat="45.6539681" lon="10.2848495"><ele>673.0</ele><time>2026-03-28T16:05:00.714Z</time></trkpt><trkpt lat="45.6540927" lon="10.2846547"><ele>673.0</ele><time>2026-03-28T16:05:01.714Z</time></trkpt><trkpt lat="45.6542027" lon="10.2844691"><ele>673.0</ele><time>2026-03-28T16:05:02.713Z</time></trkpt><trkpt lat="45.6542872" lon="10.2842767"><ele>673.0</ele><time>2026-03-28T16:05:03.713Z</time></trkpt><trkpt lat="45.6543414" lon="10.2840531"><ele>673.0</ele><time>2026-03-28T16:05:04.713Z</time></trkpt><trkpt lat="45.6543653" lon="10.2838013"><ele>670.6666666666667</ele><time>2026-03-28T16:05:05.714Z</time></trkpt><trkpt lat="45.6543656" lon="10.2835193"><ele>668.3333333333334</ele><time>2026-03-28T16:05:06.713Z</time></trkpt><trkpt lat="45.6543657" lon="10.2832328"><ele>666.0</ele><time>2026-03-28T16:05:07.713Z</time></trkpt><trkpt lat="45.6543667" lon="10.2829749"><ele>665.25</ele><time>2026-03-28T16:05:08.713Z</time></trkpt><trkpt lat="45.6543653" lon="10.2827446"><ele>664.5</ele><time>2026-03-28T16:05:09.713Z</time></trkpt><trkpt lat="45.6543712" lon="10.282536"><ele>663.75</ele><time>2026-03-28T16:05:10.714Z</time></trkpt><trkpt lat="45.6544012" lon="10.2823535"><ele>663.0</ele><time>2026-03-28T16:05:11.714Z</time></trkpt><trkpt lat="45.6544589" lon="10.2821999"><ele>664.75</ele><time>2026-03-28T16:05:12.713Z</time></trkpt><trkpt lat="45.6545484" lon="10.282081"><ele>666.5</ele><time>2026-03-28T16:05:13.713Z</time></trkpt><trkpt lat="45.6546611" lon="10.282013"><ele>668.25</ele><time>2026-03-28T16:05:14.714Z</time></trkpt><trkpt lat="45.6547916" lon="10.2819952"><ele>670.0</ele><time>2026-03-28T16:05:15.714Z</time></trkpt><trkpt lat="45.6549395" lon="10.2820236"><ele>670.0</ele><time>2026-03-28T16:05:16.713Z</time></trkpt><trkpt lat="45.6550892" lon="10.2820742"><ele>670.0</ele><time>2026-03-28T16:05:17.714Z</time></trkpt><trkpt lat="45.6552302" lon="10.2821054"><ele>670.0</ele><time>2026-03-28T16:05:18.713Z</time></trkpt><trkpt lat="45.6553623" lon="10.2820819"><ele>670.0</ele><time>2026-03-28T16:05:19.713Z</time></trkpt><trkpt lat="45.6554852" lon="10.2820086"><ele>674.0</ele><time>2026-03-28T16:05:20.712Z</time></trkpt><trkpt lat="45.6555831" lon="10.2818823"><ele>678.0</ele><time>2026-03-28T16:05:21.713Z</time></trkpt><trkpt lat="45.6556438" lon="10.2817121"><ele>682.0</ele><time>2026-03-28T16:05:22.714Z</time></trkpt><trkpt lat="45.6556593" lon="10.2815145"><ele>686.0</ele><time>2026-03-28T16:05:23.713Z</time></trkpt><trkpt lat="45.6556383" lon="10.2813028"><ele>686.0</ele><time>2026-03-28T16:05:24.713Z</time></trkpt><trkpt lat="45.6555804" lon="10.2810874"><ele>686.0</ele><time>2026-03-28T16:05:25.713Z</time></trkpt><trkpt lat="45.6555107" lon="10.2808622"><ele>686.0</ele><time>2026-03-28T16:05:26.713Z</time></trkpt><trkpt lat="45.6554573" lon="10.2806446"><ele>684.6666666666666</ele><time>2026-03-28T16:05:27.714Z</time></trkpt><trkpt lat="45.6554259" lon="10.2804244"><ele>683.3333333333334</ele><time>2026-03-28T16:05:28.713Z</time></trkpt><trkpt lat="45.6554144" lon="10.2801945"><ele>682.0</ele><time>2026-03-28T16:05:29.713Z</time></trkpt><trkpt lat="45.6554163" lon="10.2799509"><ele>679.3333333333334</ele><time>2026-03-28T16:05:30.714Z</time></trkpt><trkpt lat="45.6554211" lon="10.2797008"><ele>676.6666666666666</ele><time>2026-03-28T16:05:31.714Z</time></trkpt><trkpt lat="45.6554218" lon="10.2794329"><ele>674.0</ele><time>2026-03-28T16:05:32.713Z</time></trkpt><trkpt lat="45.6554217" lon="10.2791748"><ele>673.3333333333333</ele><time>2026-03-28T16:05:33.714Z</time></trkpt><trkpt lat="45.6554242" lon="10.2789215"><ele>672.6666666666666</ele><time>2026-03-28T16:05:34.713Z</time></trkpt><trkpt lat="45.6554277" lon="10.2786672"><ele>672.0</ele><time>2026-03-28T16:05:35.713Z</time></trkpt><trkpt lat="45.6554308" lon="10.2784062"><ele>672.0</ele><time>2026-03-28T16:05:36.714Z</time></trkpt><trkpt lat="45.6554272" lon="10.2781466"><ele>672.0</ele><time>2026-03-28T16:05:37.713Z</time></trkpt><trkpt lat="45.6554117" lon="10.2778929"><ele>672.0</ele><time>2026-03-28T16:05:38.713Z</time></trkpt><trkpt lat="45.6553869" lon="10.2776446"><ele>674.3333333333334</ele><time>2026-03-28T16:05:39.713Z</time></trkpt><trkpt lat="45.6553585" lon="10.2774028"><ele>676.6666666666667</ele><time>2026-03-28T16:05:40.714Z</time></trkpt><trkpt lat="45.6553273" lon="10.2771655"><ele>679.0</ele><time>2026-03-28T16:05:41.713Z</time></trkpt><trkpt lat="45.6553044" lon="10.2769298"><ele>678.3333333333334</ele><time>2026-03-28T16:05:42.714Z</time></trkpt><trkpt lat="45.6553015" lon="10.2766946"><ele>677.6666666666666</ele><time>2026-03-28T16:05:43.714Z</time></trkpt><trkpt lat="45.6553145" lon="10.2764572"><ele>677.0</ele><time>2026-03-28T16:05:44.713Z</time></trkpt><trkpt lat="45.655348" lon="10.2762207"><ele>677.0</ele><time>2026-03-28T16:05:45.713Z</time></trkpt><trkpt lat="45.6554048" lon="10.2759858"><ele>677.0</ele><time>2026-03-28T16:05:46.713Z</time></trkpt><trkpt lat="45.6554775" lon="10.2757526"><ele>677.0</ele><time>2026-03-28T16:05:47.713Z</time></trkpt><trkpt lat="45.6555569" lon="10.2755175"><ele>671.3333333333333</ele><time>2026-03-28T16:05:48.714Z</time></trkpt><trkpt lat="45.6556385" lon="10.2752709"><ele>665.6666666666666</ele><time>2026-03-28T16:05:49.714Z</time></trkpt><trkpt lat="45.6557222" lon="10.2750143"><ele>660.0</ele><time>2026-03-28T16:05:50.713Z</time></trkpt><trkpt lat="45.6558071" lon="10.2747548"><ele>658.6666666666666</ele><time>2026-03-28T16:05:51.713Z</time></trkpt><trkpt lat="45.6558953" lon="10.274495"><ele>657.3333333333333</ele><time>2026-03-28T16:05:52.713Z</time></trkpt><trkpt lat="45.6559822" lon="10.2742384"><ele>656.0</ele><time>2026-03-28T16:05:53.714Z</time></trkpt><trkpt lat="45.6560638" lon="10.2739968"><ele>662.6666666666666</ele><time>2026-03-28T16:05:54.713Z</time></trkpt><trkpt lat="45.6561391" lon="10.2737747"><ele>669.3333333333334</ele><time>2026-03-28T16:05:55.713Z</time></trkpt><trkpt lat="45.656209" lon="10.2735762"><ele>676.0</ele><time>2026-03-28T16:05:56.712Z</time></trkpt><trkpt lat="45.6562679" lon="10.2734008"><ele>676.0</ele><time>2026-03-28T16:05:57.714Z</time></trkpt><trkpt lat="45.6562998" lon="10.2732376"><ele>676.0</ele><time>2026-03-28T16:05:58.714Z</time></trkpt><trkpt lat="45.6562896" lon="10.2730787"><ele>676.0</ele><time>2026-03-28T16:05:59.713Z</time></trkpt><trkpt lat="45.6562351" lon="10.2729364"><ele>676.0</ele><time>2026-03-28T16:06:00.714Z</time></trkpt><trkpt lat="45.6561453" lon="10.2728476"><ele>669.5</ele><time>2026-03-28T16:06:01.713Z</time></trkpt><trkpt lat="45.6560348" lon="10.2728302"><ele>663.0</ele><time>2026-03-28T16:06:02.714Z</time></trkpt><trkpt lat="45.6559251" lon="10.2728865"><ele>656.5</ele><time>2026-03-28T16:06:03.714Z</time></trkpt><trkpt lat="45.6558318" lon="10.2730081"><ele>650.0</ele><time>2026-03-28T16:06:04.714Z</time></trkpt><trkpt lat="45.6557442" lon="10.2731769"><ele>650.0</ele><time>2026-03-28T16:06:05.713Z</time></trkpt><trkpt lat="45.6556553" lon="10.2733783"><ele>650.0</ele><time>2026-03-28T16:06:06.713Z</time></trkpt><trkpt lat="45.6555567" lon="10.2735989"><ele>650.0</ele><time>2026-03-28T16:06:07.713Z</time></trkpt><trkpt lat="45.6554533" lon="10.2738373"><ele>652.0</ele><time>2026-03-28T16:06:08.713Z</time></trkpt><trkpt lat="45.6553482" lon="10.2740798"><ele>654.0</ele><time>2026-03-28T16:06:09.713Z</time></trkpt><trkpt lat="45.6552443" lon="10.274317"><ele>656.0</ele><time>2026-03-28T16:06:10.714Z</time></trkpt><trkpt lat="45.6551433" lon="10.2745518"><ele>652.0</ele><time>2026-03-28T16:06:11.714Z</time></trkpt><trkpt lat="45.655043" lon="10.2747752"><ele>648.0</ele><time>2026-03-28T16:06:12.714Z</time></trkpt><trkpt lat="45.6549515" lon="10.2749802"><ele>644.0</ele><time>2026-03-28T16:06:13.713Z</time></trkpt><trkpt lat="45.6548818" lon="10.2751846"><ele>644.0</ele><time>2026-03-28T16:06:14.714Z</time></trkpt><trkpt lat="45.6548391" lon="10.2754057"><ele>644.0</ele><time>2026-03-28T16:06:15.713Z</time></trkpt><trkpt lat="45.654839" lon="10.275626"><ele>644.0</ele><time>2026-03-28T16:06:16.713Z</time></trkpt><trkpt lat="45.6548562" lon="10.2758241"><ele>644.0</ele><time>2026-03-28T16:06:17.713Z</time></trkpt><trkpt lat="45.6548785" lon="10.2759957"><ele>644.0</ele><time>2026-03-28T16:06:18.713Z</time></trkpt><trkpt lat="45.6548894" lon="10.2761412"><ele>644.0</ele><time>2026-03-28T16:06:19.714Z</time></trkpt><trkpt lat="45.6548728" lon="10.2762649"><ele>644.0</ele><time>2026-03-28T16:06:20.714Z</time></trkpt><trkpt lat="45.6548163" lon="10.2763457"><ele>644.0</ele><time>2026-03-28T16:06:21.713Z</time></trkpt><trkpt lat="45.6547384" lon="10.2763701"><ele>644.0</ele><time>2026-03-28T16:06:22.714Z</time></trkpt><trkpt lat="45.6546678" lon="10.276316"><ele>644.0</ele><time>2026-03-28T16:06:23.714Z</time></trkpt><trkpt lat="45.6546347" lon="10.2762027"><ele>644.0</ele><time>2026-03-28T16:06:24.713Z</time></trkpt><trkpt lat="45.6546447" lon="10.2760531"><ele>644.0</ele><time>2026-03-28T16:06:25.713Z</time></trkpt><trkpt lat="45.6546773" lon="10.2758745"><ele>644.0</ele><time>2026-03-28T16:06:26.713Z</time></trkpt><trkpt lat="45.6547057" lon="10.2756569"><ele>644.0</ele><time>2026-03-28T16:06:27.713Z</time></trkpt><trkpt lat="45.6547113" lon="10.2754068"><ele>644.0</ele><time>2026-03-28T16:06:28.714Z</time></trkpt><trkpt lat="45.6547094" lon="10.2751355"><ele>644.0</ele><time>2026-03-28T16:06:29.713Z</time></trkpt><trkpt lat="45.6547044" lon="10.2748868"><ele>641.6666666666666</ele><time>2026-03-28T16:06:30.713Z</time></trkpt><trkpt lat="45.6546975" lon="10.2746495"><ele>639.3333333333334</ele><time>2026-03-28T16:06:31.714Z</time></trkpt><trkpt lat="45.6546924" lon="10.2744312"><ele>637.0</ele><time>2026-03-28T16:06:32.713Z</time></trkpt><trkpt lat="45.6546862" lon="10.2742215"><ele>637.0</ele><time>2026-03-28T16:06:33.713Z</time></trkpt><trkpt lat="45.6546805" lon="10.2740146"><ele>637.0</ele><time>2026-03-28T16:06:34.712Z</time></trkpt><trkpt lat="45.6546752" lon="10.2737962"><ele>637.0</ele><time>2026-03-28T16:06:35.714Z</time></trkpt><trkpt lat="45.6546726" lon="10.2735865"><ele>637.0</ele><time>2026-03-28T16:06:36.713Z</time></trkpt><trkpt lat="45.6546779" lon="10.2733833"><ele>635.75</ele><time>2026-03-28T16:06:37.714Z</time></trkpt><trkpt lat="45.6546943" lon="10.2731899"><ele>634.5</ele><time>2026-03-28T16:06:38.713Z</time></trkpt><trkpt lat="45.6547271" lon="10.2730101"><ele>633.25</ele><time>2026-03-28T16:06:39.714Z</time></trkpt><trkpt lat="45.6547677" lon="10.2728435"><ele>632.0</ele><time>2026-03-28T16:06:40.713Z</time></trkpt><trkpt lat="45.6548115" lon="10.2726885"><ele>630.8000000000001</ele><time>2026-03-28T16:06:41.713Z</time></trkpt><trkpt lat="45.654857" lon="10.2725397"><ele>629.6</ele><time>2026-03-28T16:06:42.713Z</time></trkpt><trkpt lat="45.6548985" lon="10.2724045"><ele>628.4000000000001</ele><time>2026-03-28T16:06:43.713Z</time></trkpt><trkpt lat="45.6549337" lon="10.2722906"><ele>627.2</ele><time>2026-03-28T16:06:44.714Z</time></trkpt><trkpt lat="45.654963" lon="10.2721816"><ele>626.0</ele><time>2026-03-28T16:06:45.714Z</time></trkpt><trkpt lat="45.6549821" lon="10.2720781"><ele>625.6666666666666</ele><time>2026-03-28T16:06:46.714Z</time></trkpt><trkpt lat="45.6549766" lon="10.2719757"><ele>625.3333333333333</ele><time>2026-03-28T16:06:47.713Z</time></trkpt><trkpt lat="45.6549456" lon="10.2718854"><ele>625.0</ele><time>2026-03-28T16:06:48.713Z</time></trkpt><trkpt lat="45.6548976" lon="10.2718204"><ele>624.6666666666666</ele><time>2026-03-28T16:06:49.714Z</time></trkpt><trkpt lat="45.6548388" lon="10.271779"><ele>624.3333333333334</ele><time>2026-03-28T16:06:50.713Z</time></trkpt><trkpt lat="45.6547765" lon="10.2717658"><ele>624.0</ele><time>2026-03-28T16:06:51.713Z</time></trkpt><trkpt lat="45.6546572" lon="10.2718235"><ele>624.0</ele><time>2026-03-28T16:06:53.713Z</time></trkpt><trkpt lat="45.6546038" lon="10.271884"><ele>624.0</ele><time>2026-03-28T16:06:54.713Z</time></trkpt><trkpt lat="45.6545544" lon="10.2719596"><ele>624.0</ele><time>2026-03-28T16:06:55.713Z</time></trkpt><trkpt lat="45.6545007" lon="10.2720454"><ele>624.0</ele><time>2026-03-28T16:06:56.713Z</time></trkpt><trkpt lat="45.6544414" lon="10.272137"><ele>624.0</ele><time>2026-03-28T16:06:57.714Z</time></trkpt><trkpt lat="45.6543815" lon="10.2722298"><ele>624.0</ele><time>2026-03-28T16:06:58.714Z</time></trkpt><trkpt lat="45.6543224" lon="10.2723216"><ele>621.2</ele><time>2026-03-28T16:06:59.714Z</time></trkpt><trkpt lat="45.6542626" lon="10.2724145"><ele>618.4</ele><time>2026-03-28T16:07:00.713Z</time></trkpt><trkpt lat="45.6541999" lon="10.2725092"><ele>615.6</ele><time>2026-03-28T16:07:01.714Z</time></trkpt><trkpt lat="45.6541368" lon="10.2726121"><ele>612.8</ele><time>2026-03-28T16:07:02.714Z</time></trkpt><trkpt lat="45.654075" lon="10.2727188"><ele>610.0</ele><time>2026-03-28T16:07:03.713Z</time></trkpt><trkpt lat="45.6540216" lon="10.2728421"><ele>610.0</ele><time>2026-03-28T16:07:04.714Z</time></trkpt><trkpt lat="45.6539778" lon="10.2729945"><ele>610.0</ele><time>2026-03-28T16:07:05.713Z</time></trkpt><trkpt lat="45.6539335" lon="10.2731772"><ele>610.0</ele><time>2026-03-28T16:07:06.713Z</time></trkpt><trkpt lat="45.6538884" lon="10.2733811"><ele>610.0</ele><time>2026-03-28T16:07:07.713Z</time></trkpt><trkpt lat="45.6538349" lon="10.2736017"><ele>611.6666666666667</ele><time>2026-03-28T16:07:08.714Z</time></trkpt><trkpt lat="45.653784" lon="10.2738154"><ele>613.3333333333334</ele><time>2026-03-28T16:07:09.714Z</time></trkpt><trkpt lat="45.6537383" lon="10.2740202"><ele>615.0</ele><time>2026-03-28T16:07:10.713Z</time></trkpt><trkpt lat="45.6536954" lon="10.2742141"><ele>615.75</ele><time>2026-03-28T16:07:11.713Z</time></trkpt><trkpt lat="45.6536539" lon="10.2743974"><ele>616.5</ele><time>2026-03-28T16:07:12.713Z</time></trkpt><trkpt lat="45.6536186" lon="10.274565"><ele>617.25</ele><time>2026-03-28T16:07:13.713Z</time></trkpt><trkpt lat="45.6535899" lon="10.274722"><ele>618.0</ele><time>2026-03-28T16:07:14.714Z</time></trkpt><trkpt lat="45.6535768" lon="10.274867"><ele>617.5</ele><time>2026-03-28T16:07:15.714Z</time></trkpt><trkpt lat="45.653575" lon="10.2750056"><ele>617.0</ele><time>2026-03-28T16:07:16.713Z</time></trkpt><trkpt lat="45.6535828" lon="10.2751338"><ele>616.5</ele><time>2026-03-28T16:07:17.714Z</time></trkpt><trkpt lat="45.6535937" lon="10.2752567"><ele>616.0</ele><time>2026-03-28T16:07:18.713Z</time></trkpt><trkpt lat="45.6536056" lon="10.2753777"><ele>615.5</ele><time>2026-03-28T16:07:19.713Z</time></trkpt><trkpt lat="45.6536189" lon="10.2755029"><ele>615.0</ele><time>2026-03-28T16:07:20.713Z</time></trkpt><trkpt lat="45.65363" lon="10.2756264"><ele>615.0</ele><time>2026-03-28T16:07:21.713Z</time></trkpt><trkpt lat="45.6536389" lon="10.2757476"><ele>615.0</ele><time>2026-03-28T16:07:22.714Z</time></trkpt><trkpt lat="45.6536322" lon="10.2758693"><ele>615.0</ele><time>2026-03-28T16:07:23.713Z</time></trkpt><trkpt lat="45.6535993" lon="10.275977"><ele>615.0</ele><time>2026-03-28T16:07:24.713Z</time></trkpt><trkpt lat="45.6535441" lon="10.2760644"><ele>615.0</ele><time>2026-03-28T16:07:25.713Z</time></trkpt><trkpt lat="45.6534716" lon="10.2761168"><ele>615.0</ele><time>2026-03-28T16:07:26.714Z</time></trkpt><trkpt lat="45.6533877" lon="10.276127"><ele>611.4</ele><time>2026-03-28T16:07:27.714Z</time></trkpt><trkpt lat="45.6533063" lon="10.276087"><ele>607.8</ele><time>2026-03-28T16:07:28.713Z</time></trkpt><trkpt lat="45.6532431" lon="10.2760008"><ele>604.2</ele><time>2026-03-28T16:07:29.713Z</time></trkpt><trkpt lat="45.6531975" lon="10.2758792"><ele>600.6</ele><time>2026-03-28T16:07:30.713Z</time></trkpt><trkpt lat="45.6531734" lon="10.2757375"><ele>597.0</ele><time>2026-03-28T16:07:31.713Z</time></trkpt><trkpt lat="45.6531608" lon="10.2755948"><ele>596.8333333333334</ele><time>2026-03-28T16:07:32.713Z</time></trkpt><trkpt lat="45.653149" lon="10.2754539"><ele>596.6666666666666</ele><time>2026-03-28T16:07:33.713Z</time></trkpt><trkpt lat="45.6531389" lon="10.2753158"><ele>596.5</ele><time>2026-03-28T16:07:34.714Z</time></trkpt><trkpt lat="45.6531284" lon="10.2751872"><ele>596.3333333333333</ele><time>2026-03-28T16:07:35.714Z</time></trkpt><trkpt lat="45.6531194" lon="10.2750697"><ele>596.1666666666666</ele><time>2026-03-28T16:07:36.714Z</time></trkpt><trkpt lat="45.6531176" lon="10.2749675"><ele>596.0</ele><time>2026-03-28T16:07:37.713Z</time></trkpt><trkpt lat="45.6531069" lon="10.2748749"><ele>596.0</ele><time>2026-03-28T16:07:38.713Z</time></trkpt><trkpt lat="45.6530522" lon="10.2747417"><ele>596.0</ele><time>2026-03-28T16:07:40.713Z</time></trkpt><trkpt lat="45.6529575" lon="10.2747355"><ele>596.0</ele><time>2026-03-28T16:07:42.714Z</time></trkpt><trkpt lat="45.6528886" lon="10.2748739"><ele>596.0</ele><time>2026-03-28T16:07:44.714Z</time></trkpt><trkpt lat="45.6528716" lon="10.2749797"><ele>596.0</ele><time>2026-03-28T16:07:45.713Z</time></trkpt><trkpt lat="45.652859" lon="10.2751042"><ele>596.0</ele><time>2026-03-28T16:07:46.713Z</time></trkpt><trkpt lat="45.6528437" lon="10.2752332"><ele>596.0</ele><time>2026-03-28T16:07:47.714Z</time></trkpt><trkpt lat="45.6528322" lon="10.2753613"><ele>596.0</ele><time>2026-03-28T16:07:48.713Z</time></trkpt><trkpt lat="45.6528213" lon="10.2754892"><ele>596.0</ele><time>2026-03-28T16:07:49.712Z</time></trkpt><trkpt lat="45.6528084" lon="10.2756154"><ele>596.0</ele><time>2026-03-28T16:07:50.714Z</time></trkpt><trkpt lat="45.6527954" lon="10.2757411"><ele>593.8571428571429</ele><time>2026-03-28T16:07:51.713Z</time></trkpt><trkpt lat="45.6527832" lon="10.2758656"><ele>591.7142857142857</ele><time>2026-03-28T16:07:52.713Z</time></trkpt><trkpt lat="45.6527698" lon="10.2759814"><ele>589.5714285714286</ele><time>2026-03-28T16:07:53.714Z</time></trkpt><trkpt lat="45.6527501" lon="10.2760754"><ele>587.4285714285714</ele><time>2026-03-28T16:07:54.713Z</time></trkpt><trkpt lat="45.6527129" lon="10.2761504"><ele>585.2857142857142</ele><time>2026-03-28T16:07:55.714Z</time></trkpt><trkpt lat="45.6526596" lon="10.2762011"><ele>583.1428571428571</ele><time>2026-03-28T16:07:56.713Z</time></trkpt><trkpt lat="45.652597" lon="10.2762216"><ele>581.0</ele><time>2026-03-28T16:07:57.713Z</time></trkpt><trkpt lat="45.6525251" lon="10.2762039"><ele>581.0</ele><time>2026-03-28T16:07:58.714Z</time></trkpt><trkpt lat="45.6524658" lon="10.2761484"><ele>581.0</ele><time>2026-03-28T16:07:59.713Z</time></trkpt><trkpt lat="45.6524235" lon="10.2760621"><ele>581.0</ele><time>2026-03-28T16:08:00.714Z</time></trkpt><trkpt lat="45.6523984" lon="10.2759566"><ele>581.0</ele><time>2026-03-28T16:08:01.714Z</time></trkpt><trkpt lat="45.652384" lon="10.2758449"><ele>581.0</ele><time>2026-03-28T16:08:02.714Z</time></trkpt><trkpt lat="45.6523657" lon="10.275716"><ele>581.0</ele><time>2026-03-28T16:08:03.713Z</time></trkpt><trkpt lat="45.6523473" lon="10.2755749"><ele>580.2</ele><time>2026-03-28T16:08:04.713Z</time></trkpt><trkpt lat="45.6523302" lon="10.275433"><ele>579.4000000000001</ele><time>2026-03-28T16:08:05.713Z</time></trkpt><trkpt lat="45.6523112" lon="10.2752939"><ele>578.6</ele><time>2026-03-28T16:08:06.714Z</time></trkpt><trkpt lat="45.6522919" lon="10.2751571"><ele>577.8000000000001</ele><time>2026-03-28T16:08:07.713Z</time></trkpt><trkpt lat="45.6522744" lon="10.2750191"><ele>577.0</ele><time>2026-03-28T16:08:08.714Z</time></trkpt><trkpt lat="45.6522561" lon="10.2748787"><ele>576.5</ele><time>2026-03-28T16:08:09.714Z</time></trkpt><trkpt lat="45.6522384" lon="10.2747395"><ele>576.0</ele><time>2026-03-28T16:08:10.714Z</time></trkpt><trkpt lat="45.652223" lon="10.2746089"><ele>575.5</ele><time>2026-03-28T16:08:11.713Z</time></trkpt><trkpt lat="45.6522108" lon="10.2745013"><ele>575.0</ele><time>2026-03-28T16:08:12.714Z</time></trkpt><trkpt lat="45.6521952" lon="10.2744078"><ele>574.5</ele><time>2026-03-28T16:08:13.713Z</time></trkpt><trkpt lat="45.6521405" lon="10.2742714"><ele>574.0</ele><time>2026-03-28T16:08:15.713Z</time></trkpt><trkpt lat="45.6520396" lon="10.2742563"><ele>574.0</ele><time>2026-03-28T16:08:17.713Z</time></trkpt><trkpt lat="45.6519702" lon="10.2744016"><ele>574.0</ele><time>2026-03-28T16:08:19.714Z</time></trkpt><trkpt lat="45.6519547" lon="10.2745175"><ele>574.0</ele><time>2026-03-28T16:08:20.714Z</time></trkpt><trkpt lat="45.6519482" lon="10.2746702"><ele>574.0</ele><time>2026-03-28T16:08:21.713Z</time></trkpt><trkpt lat="45.6519402" lon="10.2748475"><ele>574.0</ele><time>2026-03-28T16:08:22.714Z</time></trkpt><trkpt lat="45.6519332" lon="10.2750296"><ele>572.2</ele><time>2026-03-28T16:08:23.713Z</time></trkpt><trkpt lat="45.651926" lon="10.2752021"><ele>570.4</ele><time>2026-03-28T16:08:24.713Z</time></trkpt><trkpt lat="45.6519182" lon="10.27536"><ele>568.6</ele><time>2026-03-28T16:08:25.714Z</time></trkpt><trkpt lat="45.6519001" lon="10.2754957"><ele>566.8</ele><time>2026-03-28T16:08:26.714Z</time></trkpt><trkpt lat="45.6518567" lon="10.2756105"><ele>565.0</ele><time>2026-03-28T16:08:27.714Z</time></trkpt><trkpt lat="45.6517956" lon="10.2757063"><ele>565.0</ele><time>2026-03-28T16:08:28.713Z</time></trkpt><trkpt lat="45.6517401" lon="10.2757941"><ele>565.0</ele><time>2026-03-28T16:08:29.713Z</time></trkpt><trkpt lat="45.6516854" lon="10.2758694"><ele>565.0</ele><time>2026-03-28T16:08:30.714Z</time></trkpt><trkpt lat="45.6516437" lon="10.2759445"><ele>565.0</ele><time>2026-03-28T16:08:31.713Z</time></trkpt><trkpt lat="45.6516104" lon="10.2760408"><ele>565.0</ele><time>2026-03-28T16:08:32.714Z</time></trkpt><trkpt lat="45.6515862" lon="10.2761563"><ele>565.0</ele><time>2026-03-28T16:08:33.714Z</time></trkpt><trkpt lat="45.6515637" lon="10.2762938"><ele>566.4</ele><time>2026-03-28T16:08:34.713Z</time></trkpt><trkpt lat="45.6515398" lon="10.2764443"><ele>567.8</ele><time>2026-03-28T16:08:35.713Z</time></trkpt><trkpt lat="45.6515139" lon="10.2765978"><ele>569.2</ele><time>2026-03-28T16:08:36.713Z</time></trkpt><trkpt lat="45.6514887" lon="10.2767569"><ele>570.6</ele><time>2026-03-28T16:08:37.713Z</time></trkpt><trkpt lat="45.6514751" lon="10.276911"><ele>572.0</ele><time>2026-03-28T16:08:38.714Z</time></trkpt><trkpt lat="45.6514631" lon="10.2770609"><ele>572.0</ele><time>2026-03-28T16:08:39.713Z</time></trkpt><trkpt lat="45.6514559" lon="10.277219"><ele>572.0</ele><time>2026-03-28T16:08:40.714Z</time></trkpt><trkpt lat="45.6514532" lon="10.2773927"><ele>572.0</ele><time>2026-03-28T16:08:41.714Z</time></trkpt><trkpt lat="45.6514522" lon="10.2775692"><ele>572.0</ele><time>2026-03-28T16:08:42.713Z</time></trkpt><trkpt lat="45.6514499" lon="10.2777293"><ele>572.8333333333333</ele><time>2026-03-28T16:08:43.713Z</time></trkpt><trkpt lat="45.6514466" lon="10.2778702"><ele>573.6666666666666</ele><time>2026-03-28T16:08:44.714Z</time></trkpt><trkpt lat="45.6514606" lon="10.2779911"><ele>574.5</ele><time>2026-03-28T16:08:45.713Z</time></trkpt><trkpt lat="45.6515006" lon="10.2780961"><ele>575.3333333333334</ele><time>2026-03-28T16:08:46.713Z</time></trkpt><trkpt lat="45.6515694" lon="10.2781711"><ele>576.1666666666667</ele><time>2026-03-28T16:08:47.714Z</time></trkpt><trkpt lat="45.6516414" lon="10.2782405"><ele>577.0</ele><time>2026-03-28T16:08:48.714Z</time></trkpt><trkpt lat="45.6516843" lon="10.27834"><ele>577.6</ele><time>2026-03-28T16:08:49.713Z</time></trkpt><trkpt lat="45.6517054" lon="10.2784629"><ele>578.2</ele><time>2026-03-28T16:08:50.714Z</time></trkpt><trkpt lat="45.651717" lon="10.2786189"><ele>578.8</ele><time>2026-03-28T16:08:51.713Z</time></trkpt><trkpt lat="45.6517278" lon="10.2787962"><ele>579.4</ele><time>2026-03-28T16:08:52.714Z</time></trkpt><trkpt lat="45.6517385" lon="10.2789661"><ele>580.0</ele><time>2026-03-28T16:08:53.713Z</time></trkpt><trkpt lat="45.6517468" lon="10.2791055"><ele>580.1666666666667</ele><time>2026-03-28T16:08:54.713Z</time></trkpt><trkpt lat="45.6517517" lon="10.2792234"><ele>580.3333333333334</ele><time>2026-03-28T16:08:55.713Z</time></trkpt><trkpt lat="45.6517725" lon="10.2793109"><ele>580.5</ele><time>2026-03-28T16:08:56.714Z</time></trkpt><trkpt lat="45.651878" lon="10.2793728"><ele>580.6666666666666</ele><time>2026-03-28T16:08:58.713Z</time></trkpt><trkpt lat="45.6519443" lon="10.2793381"><ele>580.8333333333333</ele><time>2026-03-28T16:08:59.714Z</time></trkpt><trkpt lat="45.6520075" lon="10.279287"><ele>581.0</ele><time>2026-03-28T16:09:00.713Z</time></trkpt><trkpt lat="45.6521025" lon="10.2792417"><ele>584.0</ele><time>2026-03-28T16:09:02.714Z</time></trkpt><trkpt lat="45.6521692" lon="10.2793044"><ele>587.0</ele><time>2026-03-28T16:09:04.714Z</time></trkpt><trkpt lat="45.6522088" lon="10.2794387"><ele>590.0</ele><time>2026-03-28T16:09:06.714Z</time></trkpt><trkpt lat="45.6522533" lon="10.2795181"><ele>593.0</ele><time>2026-03-28T16:09:07.713Z</time></trkpt><trkpt lat="45.652324" lon="10.2795813"><ele>596.0</ele><time>2026-03-28T16:09:08.713Z</time></trkpt><trkpt lat="45.6524118" lon="10.2796474"><ele>599.0</ele><time>2026-03-28T16:09:09.714Z</time></trkpt><trkpt lat="45.6525258" lon="10.2797049"><ele>598.0</ele><time>2026-03-28T16:09:10.713Z</time></trkpt><trkpt lat="45.6526398" lon="10.2797929"><ele>597.0</ele><time>2026-03-28T16:09:11.713Z</time></trkpt><trkpt lat="45.6527488" lon="10.2798699"><ele>596.0</ele><time>2026-03-28T16:09:12.714Z</time></trkpt><trkpt lat="45.6528416" lon="10.2799248"><ele>595.0</ele><time>2026-03-28T16:09:13.714Z</time></trkpt><trkpt lat="45.6529164" lon="10.2799699"><ele>594.0</ele><time>2026-03-28T16:09:14.713Z</time></trkpt><trkpt lat="45.6529697" lon="10.2800261"><ele>596.6666666666666</ele><time>2026-03-28T16:09:15.714Z</time></trkpt><trkpt lat="45.6530007" lon="10.2801872"><ele>599.3333333333334</ele><time>2026-03-28T16:09:17.713Z</time></trkpt><trkpt lat="45.6529955" lon="10.2802788"><ele>602.0</ele><time>2026-03-28T16:09:18.714Z</time></trkpt><trkpt lat="45.6530086" lon="10.280373"><ele>604.6666666666667</ele><time>2026-03-28T16:09:19.713Z</time></trkpt><trkpt lat="45.6530353" lon="10.280476"><ele>607.3333333333334</ele><time>2026-03-28T16:09:20.713Z</time></trkpt><trkpt lat="45.6530638" lon="10.2805857"><ele>610.0</ele><time>2026-03-28T16:09:21.713Z</time></trkpt><trkpt lat="45.6530956" lon="10.2806958"><ele>610.3333333333334</ele><time>2026-03-28T16:09:22.714Z</time></trkpt><trkpt lat="45.6531294" lon="10.280792"><ele>610.6666666666667</ele><time>2026-03-28T16:09:23.713Z</time></trkpt><trkpt lat="45.6531637" lon="10.2808817"><ele>611.0</ele><time>2026-03-28T16:09:24.713Z</time></trkpt><trkpt lat="45.653223" lon="10.2809842"><ele>611.3333333333334</ele><time>2026-03-28T16:09:26.714Z</time></trkpt><trkpt lat="45.6532986" lon="10.2810245"><ele>611.6666666666666</ele><time>2026-03-28T16:09:28.713Z</time></trkpt><trkpt lat="45.6533793" lon="10.2809974"><ele>612.0</ele><time>2026-03-28T16:09:31.714Z</time></trkpt><trkpt lat="45.6533865" lon="10.2808655"><ele>612.0</ele><time>2026-03-28T16:09:38.714Z</time></trkpt><trkpt lat="45.6533843" lon="10.2807661"><ele>612.0</ele><time>2026-03-28T16:09:40.714Z</time></trkpt><trkpt lat="45.6534359" lon="10.2806976"><ele>612.0</ele><time>2026-03-28T16:09:43.713Z</time></trkpt></trkseg></trk></gpx>